<?xml version="1.0" encoding="UTF-8"?><gpx version="1.1" creator="Exported from Strava via extension e-ivanov.ru"  xsi:schemaLocation="http://www.topografix.com/GPX/1/1 http://www.topografix.com/GPX/1/1/gpx.xsd http://www.garmin.com/xmlschemas/GpxExtensions/v3 http://www.garmin.com/xmlschemas/GpxExtensionsv3.xsd http://www.garmin.com/xmlschemas/TrackPointExtension/v1 http://www.garmin.com/xmlschemas/TrackPointExtensionv1.xsd"  xmlns="http://www.topografix.com/GPX/1/1"  xmlns:gpxtpx="http://www.garmin.com/xmlschemas/TrackPointExtension/v1"  xmlns:gpxx="http://www.garmin.com/xmlschemas/GpxExtensions/v3" xmlns:xsi="http://www.w3.org/2001/XMLSchema-instance"><metadata><link href="http://e-ivanov.ru/projects/strava-export-gpx/"><text>Strava gpx export</text></link><time>2022-06-26T11:44:52.696Z</time></metadata><trk><name>RR 22/20 - Kotem | Fietsrit | Strava</name><trkseg><trkpt lon="5.743963" lat="51.14399"><ele>19.6</ele><time>2022-06-26T06:01:00.000Z</time></trkpt><trkpt lon="5.744028" lat="51.143978"><ele>19.6</ele><time>2022-06-26T06:01:01.000Z</time></trkpt><trkpt lon="5.744101" lat="51.143967"><ele>19.6</ele><time>2022-06-26T06:01:02.000Z</time></trkpt><trkpt lon="5.744163" lat="51.143957"><ele>19.6</ele><time>2022-06-26T06:01:03.000Z</time></trkpt><trkpt lon="5.744241" lat="51.143935"><ele>19.4</ele><time>2022-06-26T06:01:04.000Z</time></trkpt><trkpt lon="5.744321" lat="51.143901"><ele>19.4</ele><time>2022-06-26T06:01:05.000Z</time></trkpt><trkpt lon="5.744386" lat="51.143867"><ele>19.4</ele><time>2022-06-26T06:01:06.000Z</time></trkpt><trkpt lon="5.744446" lat="51.14383"><ele>19.4</ele><time>2022-06-26T06:01:07.000Z</time></trkpt><trkpt lon="5.744512" lat="51.143791"><ele>19.4</ele><time>2022-06-26T06:01:08.000Z</time></trkpt><trkpt lon="5.744572" lat="51.14375"><ele>19.4</ele><time>2022-06-26T06:01:09.000Z</time></trkpt><trkpt lon="5.744641" lat="51.143704"><ele>19.4</ele><time>2022-06-26T06:01:10.000Z</time></trkpt><trkpt lon="5.7447" lat="51.143667"><ele>19.4</ele><time>2022-06-26T06:01:11.000Z</time></trkpt><trkpt lon="5.744776" lat="51.143617"><ele>19.4</ele><time>2022-06-26T06:01:12.000Z</time></trkpt><trkpt lon="5.744842" lat="51.143575"><ele>19.4</ele><time>2022-06-26T06:01:13.000Z</time></trkpt><trkpt lon="5.744908" lat="51.143534"><ele>19.4</ele><time>2022-06-26T06:01:14.000Z</time></trkpt><trkpt lon="5.744972" lat="51.14349"><ele>19.4</ele><time>2022-06-26T06:01:15.000Z</time></trkpt><trkpt lon="5.745044" lat="51.143439"><ele>19.4</ele><time>2022-06-26T06:01:16.000Z</time></trkpt><trkpt lon="5.745112" lat="51.143397"><ele>19.4</ele><time>2022-06-26T06:01:17.000Z</time></trkpt><trkpt lon="5.745175" lat="51.143352"><ele>19.4</ele><time>2022-06-26T06:01:18.000Z</time></trkpt><trkpt lon="5.745243" lat="51.143306"><ele>19.4</ele><time>2022-06-26T06:01:19.000Z</time></trkpt><trkpt lon="5.74531" lat="51.143264"><ele>19.4</ele><time>2022-06-26T06:01:20.000Z</time></trkpt><trkpt lon="5.745375" lat="51.143223"><ele>19.4</ele><time>2022-06-26T06:01:21.000Z</time></trkpt><trkpt lon="5.745443" lat="51.143176"><ele>19.4</ele><time>2022-06-26T06:01:22.000Z</time></trkpt><trkpt lon="5.745509" lat="51.143131"><ele>19.2</ele><time>2022-06-26T06:01:23.000Z</time></trkpt><trkpt lon="5.745576" lat="51.143089"><ele>19.4</ele><time>2022-06-26T06:01:24.000Z</time></trkpt><trkpt lon="5.745643" lat="51.143043"><ele>19.4</ele><time>2022-06-26T06:01:25.000Z</time></trkpt><trkpt lon="5.74571" lat="51.143"><ele>19.4</ele><time>2022-06-26T06:01:26.000Z</time></trkpt><trkpt lon="5.745775" lat="51.142956"><ele>19.2</ele><time>2022-06-26T06:01:27.000Z</time></trkpt><trkpt lon="5.74584" lat="51.142909"><ele>19.2</ele><time>2022-06-26T06:01:28.000Z</time></trkpt><trkpt lon="5.745904" lat="51.142864"><ele>19.2</ele><time>2022-06-26T06:01:29.000Z</time></trkpt><trkpt lon="5.745971" lat="51.142818"><ele>19.2</ele><time>2022-06-26T06:01:30.000Z</time></trkpt><trkpt lon="5.746038" lat="51.142775"><ele>19</ele><time>2022-06-26T06:01:31.000Z</time></trkpt><trkpt lon="5.746096" lat="51.142736"><ele>19</ele><time>2022-06-26T06:01:32.000Z</time></trkpt><trkpt lon="5.746169" lat="51.142685"><ele>19</ele><time>2022-06-26T06:01:33.000Z</time></trkpt><trkpt lon="5.746235" lat="51.142643"><ele>19.2</ele><time>2022-06-26T06:01:34.000Z</time></trkpt><trkpt lon="5.7463" lat="51.142598"><ele>19.2</ele><time>2022-06-26T06:01:35.000Z</time></trkpt><trkpt lon="5.746367" lat="51.142555"><ele>19.2</ele><time>2022-06-26T06:01:36.000Z</time></trkpt><trkpt lon="5.746431" lat="51.142514"><ele>19.2</ele><time>2022-06-26T06:01:37.000Z</time></trkpt><trkpt lon="5.746498" lat="51.142467"><ele>19</ele><time>2022-06-26T06:01:38.000Z</time></trkpt><trkpt lon="5.746558" lat="51.142424"><ele>19</ele><time>2022-06-26T06:01:39.000Z</time></trkpt><trkpt lon="5.746624" lat="51.142375"><ele>19</ele><time>2022-06-26T06:01:40.000Z</time></trkpt><trkpt lon="5.746688" lat="51.142329"><ele>19</ele><time>2022-06-26T06:01:41.000Z</time></trkpt><trkpt lon="5.746749" lat="51.142289"><ele>18.8</ele><time>2022-06-26T06:01:42.000Z</time></trkpt><trkpt lon="5.746812" lat="51.142243"><ele>18.8</ele><time>2022-06-26T06:01:43.000Z</time></trkpt><trkpt lon="5.746877" lat="51.142196"><ele>18.8</ele><time>2022-06-26T06:01:44.000Z</time></trkpt><trkpt lon="5.74694" lat="51.142151"><ele>18.8</ele><time>2022-06-26T06:01:45.000Z</time></trkpt><trkpt lon="5.747004" lat="51.142105"><ele>18.8</ele><time>2022-06-26T06:01:46.000Z</time></trkpt><trkpt lon="5.747068" lat="51.142058"><ele>18.8</ele><time>2022-06-26T06:01:47.000Z</time></trkpt><trkpt lon="5.747131" lat="51.142012"><ele>18.8</ele><time>2022-06-26T06:01:48.000Z</time></trkpt><trkpt lon="5.747194" lat="51.141971"><ele>18.6</ele><time>2022-06-26T06:01:49.000Z</time></trkpt><trkpt lon="5.747259" lat="51.141929"><ele>18.6</ele><time>2022-06-26T06:01:50.000Z</time></trkpt><trkpt lon="5.747319" lat="51.141886"><ele>18.6</ele><time>2022-06-26T06:01:51.000Z</time></trkpt><trkpt lon="5.747389" lat="51.141842"><ele>18.6</ele><time>2022-06-26T06:01:52.000Z</time></trkpt><trkpt lon="5.747458" lat="51.141799"><ele>18.6</ele><time>2022-06-26T06:01:53.000Z</time></trkpt><trkpt lon="5.747529" lat="51.14175"><ele>18.6</ele><time>2022-06-26T06:01:54.000Z</time></trkpt><trkpt lon="5.747598" lat="51.141707"><ele>18.6</ele><time>2022-06-26T06:01:55.000Z</time></trkpt><trkpt lon="5.747661" lat="51.141662"><ele>18.6</ele><time>2022-06-26T06:01:56.000Z</time></trkpt><trkpt lon="5.747721" lat="51.141617"><ele>18.6</ele><time>2022-06-26T06:01:57.000Z</time></trkpt><trkpt lon="5.747776" lat="51.141581"><ele>18.6</ele><time>2022-06-26T06:01:58.000Z</time></trkpt><trkpt lon="5.747852" lat="51.141524"><ele>18.6</ele><time>2022-06-26T06:01:59.000Z</time></trkpt><trkpt lon="5.747916" lat="51.141479"><ele>18.6</ele><time>2022-06-26T06:02:00.000Z</time></trkpt><trkpt lon="5.747978" lat="51.141433"><ele>18.6</ele><time>2022-06-26T06:02:01.000Z</time></trkpt><trkpt lon="5.748034" lat="51.141391"><ele>18.6</ele><time>2022-06-26T06:02:02.000Z</time></trkpt><trkpt lon="5.748109" lat="51.141334"><ele>18.6</ele><time>2022-06-26T06:02:03.000Z</time></trkpt><trkpt lon="5.748171" lat="51.141288"><ele>18.8</ele><time>2022-06-26T06:02:04.000Z</time></trkpt><trkpt lon="5.748248" lat="51.141238"><ele>18.8</ele><time>2022-06-26T06:02:05.000Z</time></trkpt><trkpt lon="5.748316" lat="51.141185"><ele>18.8</ele><time>2022-06-26T06:02:06.000Z</time></trkpt><trkpt lon="5.748386" lat="51.14114"><ele>18.8</ele><time>2022-06-26T06:02:07.000Z</time></trkpt><trkpt lon="5.748458" lat="51.14109"><ele>18.6</ele><time>2022-06-26T06:02:08.000Z</time></trkpt><trkpt lon="5.748528" lat="51.141044"><ele>18.6</ele><time>2022-06-26T06:02:09.000Z</time></trkpt><trkpt lon="5.748598" lat="51.140994"><ele>18.6</ele><time>2022-06-26T06:02:10.000Z</time></trkpt><trkpt lon="5.748667" lat="51.140955"><ele>18.6</ele><time>2022-06-26T06:02:11.000Z</time></trkpt><trkpt lon="5.748747" lat="51.140911"><ele>18.6</ele><time>2022-06-26T06:02:12.000Z</time></trkpt><trkpt lon="5.748822" lat="51.140869"><ele>18.6</ele><time>2022-06-26T06:02:13.000Z</time></trkpt><trkpt lon="5.748891" lat="51.140824"><ele>18.6</ele><time>2022-06-26T06:02:14.000Z</time></trkpt><trkpt lon="5.748962" lat="51.140778"><ele>18.6</ele><time>2022-06-26T06:02:15.000Z</time></trkpt><trkpt lon="5.74903" lat="51.140732"><ele>18.6</ele><time>2022-06-26T06:02:16.000Z</time></trkpt><trkpt lon="5.749097" lat="51.140683"><ele>18.6</ele><time>2022-06-26T06:02:17.000Z</time></trkpt><trkpt lon="5.74917" lat="51.14064"><ele>18.6</ele><time>2022-06-26T06:02:18.000Z</time></trkpt><trkpt lon="5.749232" lat="51.140587"><ele>18.6</ele><time>2022-06-26T06:02:19.000Z</time></trkpt><trkpt lon="5.749293" lat="51.140538"><ele>18.6</ele><time>2022-06-26T06:02:20.000Z</time></trkpt><trkpt lon="5.749357" lat="51.140488"><ele>18.6</ele><time>2022-06-26T06:02:21.000Z</time></trkpt><trkpt lon="5.749422" lat="51.140442"><ele>18.4</ele><time>2022-06-26T06:02:22.000Z</time></trkpt><trkpt lon="5.749489" lat="51.140392"><ele>18.4</ele><time>2022-06-26T06:02:23.000Z</time></trkpt><trkpt lon="5.749556" lat="51.140344"><ele>18.4</ele><time>2022-06-26T06:02:24.000Z</time></trkpt><trkpt lon="5.749631" lat="51.140296"><ele>18.2</ele><time>2022-06-26T06:02:25.000Z</time></trkpt><trkpt lon="5.749699" lat="51.140253"><ele>18.2</ele><time>2022-06-26T06:02:26.000Z</time></trkpt><trkpt lon="5.749773" lat="51.140203"><ele>18.2</ele><time>2022-06-26T06:02:27.000Z</time></trkpt><trkpt lon="5.749844" lat="51.140154"><ele>18.2</ele><time>2022-06-26T06:02:28.000Z</time></trkpt><trkpt lon="5.749917" lat="51.140104"><ele>18.2</ele><time>2022-06-26T06:02:29.000Z</time></trkpt><trkpt lon="5.749991" lat="51.140055"><ele>18.2</ele><time>2022-06-26T06:02:30.000Z</time></trkpt><trkpt lon="5.750062" lat="51.140009"><ele>18.2</ele><time>2022-06-26T06:02:31.000Z</time></trkpt><trkpt lon="5.750132" lat="51.139964"><ele>18</ele><time>2022-06-26T06:02:32.000Z</time></trkpt><trkpt lon="5.750201" lat="51.139923"><ele>18</ele><time>2022-06-26T06:02:33.000Z</time></trkpt><trkpt lon="5.750272" lat="51.139876"><ele>18.2</ele><time>2022-06-26T06:02:34.000Z</time></trkpt><trkpt lon="5.750341" lat="51.13983"><ele>18</ele><time>2022-06-26T06:02:35.000Z</time></trkpt><trkpt lon="5.750408" lat="51.139781"><ele>18</ele><time>2022-06-26T06:02:36.000Z</time></trkpt><trkpt lon="5.750477" lat="51.139735"><ele>18</ele><time>2022-06-26T06:02:37.000Z</time></trkpt><trkpt lon="5.750543" lat="51.13969"><ele>18</ele><time>2022-06-26T06:02:38.000Z</time></trkpt><trkpt lon="5.750614" lat="51.139647"><ele>18</ele><time>2022-06-26T06:02:39.000Z</time></trkpt><trkpt lon="5.750684" lat="51.139598"><ele>18</ele><time>2022-06-26T06:02:40.000Z</time></trkpt><trkpt lon="5.750752" lat="51.139552"><ele>18</ele><time>2022-06-26T06:02:41.000Z</time></trkpt><trkpt lon="5.750818" lat="51.139503"><ele>18</ele><time>2022-06-26T06:02:42.000Z</time></trkpt><trkpt lon="5.750889" lat="51.139456"><ele>18</ele><time>2022-06-26T06:02:43.000Z</time></trkpt><trkpt lon="5.750957" lat="51.139411"><ele>18</ele><time>2022-06-26T06:02:44.000Z</time></trkpt><trkpt lon="5.751023" lat="51.139367"><ele>18.2</ele><time>2022-06-26T06:02:45.000Z</time></trkpt><trkpt lon="5.751092" lat="51.13932"><ele>18.2</ele><time>2022-06-26T06:02:46.000Z</time></trkpt><trkpt lon="5.75116" lat="51.139274"><ele>18.2</ele><time>2022-06-26T06:02:47.000Z</time></trkpt><trkpt lon="5.751225" lat="51.13923"><ele>18.2</ele><time>2022-06-26T06:02:48.000Z</time></trkpt><trkpt lon="5.751298" lat="51.139182"><ele>18.2</ele><time>2022-06-26T06:02:49.000Z</time></trkpt><trkpt lon="5.751367" lat="51.139136"><ele>18.2</ele><time>2022-06-26T06:02:50.000Z</time></trkpt><trkpt lon="5.751435" lat="51.13909"><ele>18.4</ele><time>2022-06-26T06:02:51.000Z</time></trkpt><trkpt lon="5.751502" lat="51.139045"><ele>18.4</ele><time>2022-06-26T06:02:52.000Z</time></trkpt><trkpt lon="5.751566" lat="51.138999"><ele>18.4</ele><time>2022-06-26T06:02:53.000Z</time></trkpt><trkpt lon="5.75163" lat="51.138956"><ele>18.4</ele><time>2022-06-26T06:02:54.000Z</time></trkpt><trkpt lon="5.751699" lat="51.138908"><ele>18.2</ele><time>2022-06-26T06:02:55.000Z</time></trkpt><trkpt lon="5.751766" lat="51.138858"><ele>18.2</ele><time>2022-06-26T06:02:56.000Z</time></trkpt><trkpt lon="5.751835" lat="51.138813"><ele>18</ele><time>2022-06-26T06:02:57.000Z</time></trkpt><trkpt lon="5.751904" lat="51.138766"><ele>17.8</ele><time>2022-06-26T06:02:58.000Z</time></trkpt><trkpt lon="5.751967" lat="51.138721"><ele>17.6</ele><time>2022-06-26T06:02:59.000Z</time></trkpt><trkpt lon="5.752035" lat="51.138674"><ele>17.6</ele><time>2022-06-26T06:03:00.000Z</time></trkpt><trkpt lon="5.752102" lat="51.138634"><ele>17.6</ele><time>2022-06-26T06:03:01.000Z</time></trkpt><trkpt lon="5.752171" lat="51.138587"><ele>17.6</ele><time>2022-06-26T06:03:02.000Z</time></trkpt><trkpt lon="5.752236" lat="51.138543"><ele>17.8</ele><time>2022-06-26T06:03:03.000Z</time></trkpt><trkpt lon="5.752305" lat="51.138501"><ele>18</ele><time>2022-06-26T06:03:04.000Z</time></trkpt><trkpt lon="5.752377" lat="51.138453"><ele>18</ele><time>2022-06-26T06:03:05.000Z</time></trkpt><trkpt lon="5.752445" lat="51.138407"><ele>18</ele><time>2022-06-26T06:03:06.000Z</time></trkpt><trkpt lon="5.752513" lat="51.138362"><ele>18</ele><time>2022-06-26T06:03:07.000Z</time></trkpt><trkpt lon="5.752581" lat="51.138317"><ele>18</ele><time>2022-06-26T06:03:08.000Z</time></trkpt><trkpt lon="5.752652" lat="51.13827"><ele>18</ele><time>2022-06-26T06:03:09.000Z</time></trkpt><trkpt lon="5.752722" lat="51.138224"><ele>18</ele><time>2022-06-26T06:03:10.000Z</time></trkpt><trkpt lon="5.752788" lat="51.138182"><ele>18</ele><time>2022-06-26T06:03:11.000Z</time></trkpt><trkpt lon="5.752861" lat="51.138133"><ele>18</ele><time>2022-06-26T06:03:12.000Z</time></trkpt><trkpt lon="5.752929" lat="51.138093"><ele>18</ele><time>2022-06-26T06:03:13.000Z</time></trkpt><trkpt lon="5.753001" lat="51.138045"><ele>18</ele><time>2022-06-26T06:03:14.000Z</time></trkpt><trkpt lon="5.753068" lat="51.137999"><ele>18</ele><time>2022-06-26T06:03:15.000Z</time></trkpt><trkpt lon="5.753137" lat="51.13795"><ele>18</ele><time>2022-06-26T06:03:16.000Z</time></trkpt><trkpt lon="5.753207" lat="51.137904"><ele>18</ele><time>2022-06-26T06:03:17.000Z</time></trkpt><trkpt lon="5.753275" lat="51.137858"><ele>18.2</ele><time>2022-06-26T06:03:18.000Z</time></trkpt><trkpt lon="5.753339" lat="51.137816"><ele>18.2</ele><time>2022-06-26T06:03:19.000Z</time></trkpt><trkpt lon="5.753408" lat="51.137771"><ele>18.2</ele><time>2022-06-26T06:03:20.000Z</time></trkpt><trkpt lon="5.753483" lat="51.137721"><ele>18</ele><time>2022-06-26T06:03:21.000Z</time></trkpt><trkpt lon="5.753557" lat="51.137683"><ele>18</ele><time>2022-06-26T06:03:22.000Z</time></trkpt><trkpt lon="5.753629" lat="51.137645"><ele>18</ele><time>2022-06-26T06:03:23.000Z</time></trkpt><trkpt lon="5.753703" lat="51.137603"><ele>18</ele><time>2022-06-26T06:03:24.000Z</time></trkpt><trkpt lon="5.753772" lat="51.137562"><ele>18</ele><time>2022-06-26T06:03:25.000Z</time></trkpt><trkpt lon="5.753842" lat="51.137515"><ele>18</ele><time>2022-06-26T06:03:26.000Z</time></trkpt><trkpt lon="5.75391" lat="51.137465"><ele>18</ele><time>2022-06-26T06:03:27.000Z</time></trkpt><trkpt lon="5.753977" lat="51.137419"><ele>18</ele><time>2022-06-26T06:03:28.000Z</time></trkpt><trkpt lon="5.754045" lat="51.137373"><ele>18.2</ele><time>2022-06-26T06:03:29.000Z</time></trkpt><trkpt lon="5.754115" lat="51.137324"><ele>18.2</ele><time>2022-06-26T06:03:30.000Z</time></trkpt><trkpt lon="5.754182" lat="51.137278"><ele>18.2</ele><time>2022-06-26T06:03:31.000Z</time></trkpt><trkpt lon="5.75425" lat="51.137233"><ele>18.2</ele><time>2022-06-26T06:03:32.000Z</time></trkpt><trkpt lon="5.754321" lat="51.137191"><ele>18.2</ele><time>2022-06-26T06:03:33.000Z</time></trkpt><trkpt lon="5.754391" lat="51.137145"><ele>18.2</ele><time>2022-06-26T06:03:34.000Z</time></trkpt><trkpt lon="5.754458" lat="51.137101"><ele>18.2</ele><time>2022-06-26T06:03:35.000Z</time></trkpt><trkpt lon="5.754529" lat="51.137054"><ele>18</ele><time>2022-06-26T06:03:36.000Z</time></trkpt><trkpt lon="5.754598" lat="51.137008"><ele>18</ele><time>2022-06-26T06:03:37.000Z</time></trkpt><trkpt lon="5.754667" lat="51.136966"><ele>18</ele><time>2022-06-26T06:03:38.000Z</time></trkpt><trkpt lon="5.754733" lat="51.136922"><ele>18.2</ele><time>2022-06-26T06:03:39.000Z</time></trkpt><trkpt lon="5.754807" lat="51.136874"><ele>18.2</ele><time>2022-06-26T06:03:40.000Z</time></trkpt><trkpt lon="5.754876" lat="51.136832"><ele>18.2</ele><time>2022-06-26T06:03:41.000Z</time></trkpt><trkpt lon="5.754937" lat="51.136791"><ele>18.4</ele><time>2022-06-26T06:03:42.000Z</time></trkpt><trkpt lon="5.755009" lat="51.136743"><ele>18.4</ele><time>2022-06-26T06:03:43.000Z</time></trkpt><trkpt lon="5.755077" lat="51.136698"><ele>18.4</ele><time>2022-06-26T06:03:44.000Z</time></trkpt><trkpt lon="5.75515" lat="51.13665"><ele>18.4</ele><time>2022-06-26T06:03:45.000Z</time></trkpt><trkpt lon="5.75522" lat="51.1366"><ele>18.2</ele><time>2022-06-26T06:03:46.000Z</time></trkpt><trkpt lon="5.75529" lat="51.136554"><ele>18.2</ele><time>2022-06-26T06:03:47.000Z</time></trkpt><trkpt lon="5.755359" lat="51.136512"><ele>18.2</ele><time>2022-06-26T06:03:48.000Z</time></trkpt><trkpt lon="5.755429" lat="51.136466"><ele>18.2</ele><time>2022-06-26T06:03:49.000Z</time></trkpt><trkpt lon="5.7555" lat="51.136424"><ele>18</ele><time>2022-06-26T06:03:50.000Z</time></trkpt><trkpt lon="5.755569" lat="51.136374"><ele>18</ele><time>2022-06-26T06:03:51.000Z</time></trkpt><trkpt lon="5.755633" lat="51.13633"><ele>18</ele><time>2022-06-26T06:03:52.000Z</time></trkpt><trkpt lon="5.755702" lat="51.136283"><ele>18.2</ele><time>2022-06-26T06:03:53.000Z</time></trkpt><trkpt lon="5.75577" lat="51.136235"><ele>18.2</ele><time>2022-06-26T06:03:54.000Z</time></trkpt><trkpt lon="5.755841" lat="51.136184"><ele>18.2</ele><time>2022-06-26T06:03:55.000Z</time></trkpt><trkpt lon="5.755913" lat="51.136134"><ele>18.4</ele><time>2022-06-26T06:03:56.000Z</time></trkpt><trkpt lon="5.755987" lat="51.136088"><ele>18.4</ele><time>2022-06-26T06:03:57.000Z</time></trkpt><trkpt lon="5.75606" lat="51.136043"><ele>18.2</ele><time>2022-06-26T06:03:58.000Z</time></trkpt><trkpt lon="5.756132" lat="51.135997"><ele>18.2</ele><time>2022-06-26T06:03:59.000Z</time></trkpt><trkpt lon="5.756204" lat="51.135948"><ele>18.2</ele><time>2022-06-26T06:04:00.000Z</time></trkpt><trkpt lon="5.756269" lat="51.135905"><ele>18.2</ele><time>2022-06-26T06:04:01.000Z</time></trkpt><trkpt lon="5.756347" lat="51.135856"><ele>18.2</ele><time>2022-06-26T06:04:02.000Z</time></trkpt><trkpt lon="5.756409" lat="51.135818"><ele>18.2</ele><time>2022-06-26T06:04:03.000Z</time></trkpt><trkpt lon="5.756483" lat="51.135769"><ele>18.2</ele><time>2022-06-26T06:04:04.000Z</time></trkpt><trkpt lon="5.75655" lat="51.135722"><ele>18.2</ele><time>2022-06-26T06:04:05.000Z</time></trkpt><trkpt lon="5.756614" lat="51.135673"><ele>18.2</ele><time>2022-06-26T06:04:06.000Z</time></trkpt><trkpt lon="5.756679" lat="51.135631"><ele>18</ele><time>2022-06-26T06:04:07.000Z</time></trkpt><trkpt lon="5.756738" lat="51.135587"><ele>17.8</ele><time>2022-06-26T06:04:08.000Z</time></trkpt><trkpt lon="5.75679" lat="51.135553"><ele>17.6</ele><time>2022-06-26T06:04:09.000Z</time></trkpt><trkpt lon="5.756848" lat="51.135515"><ele>17.6</ele><time>2022-06-26T06:04:10.000Z</time></trkpt><trkpt lon="5.756909" lat="51.135478"><ele>17.6</ele><time>2022-06-26T06:04:11.000Z</time></trkpt><trkpt lon="5.75697" lat="51.135436"><ele>17.6</ele><time>2022-06-26T06:04:12.000Z</time></trkpt><trkpt lon="5.75702" lat="51.135406"><ele>17.6</ele><time>2022-06-26T06:04:13.000Z</time></trkpt><trkpt lon="5.757072" lat="51.135368"><ele>17.6</ele><time>2022-06-26T06:04:14.000Z</time></trkpt><trkpt lon="5.757123" lat="51.135337"><ele>17.6</ele><time>2022-06-26T06:04:15.000Z</time></trkpt><trkpt lon="5.757176" lat="51.135307"><ele>17.8</ele><time>2022-06-26T06:04:16.000Z</time></trkpt><trkpt lon="5.757233" lat="51.13528"><ele>17.8</ele><time>2022-06-26T06:04:17.000Z</time></trkpt><trkpt lon="5.757294" lat="51.13525"><ele>17.8</ele><time>2022-06-26T06:04:18.000Z</time></trkpt><trkpt lon="5.757355" lat="51.135216"><ele>17.8</ele><time>2022-06-26T06:04:19.000Z</time></trkpt><trkpt lon="5.757429" lat="51.135189"><ele>17.8</ele><time>2022-06-26T06:04:20.000Z</time></trkpt><trkpt lon="5.75751" lat="51.13517"><ele>17.8</ele><time>2022-06-26T06:04:21.000Z</time></trkpt><trkpt lon="5.757597" lat="51.135166"><ele>17.8</ele><time>2022-06-26T06:04:22.000Z</time></trkpt><trkpt lon="5.757683" lat="51.135178"><ele>18</ele><time>2022-06-26T06:04:23.000Z</time></trkpt><trkpt lon="5.757779" lat="51.135193"><ele>18</ele><time>2022-06-26T06:04:24.000Z</time></trkpt><trkpt lon="5.757882" lat="51.1352"><ele>18</ele><time>2022-06-26T06:04:25.000Z</time></trkpt><trkpt lon="5.757974" lat="51.135197"><ele>18</ele><time>2022-06-26T06:04:26.000Z</time></trkpt><trkpt lon="5.758096" lat="51.135177"><ele>17.8</ele><time>2022-06-26T06:04:27.000Z</time></trkpt><trkpt lon="5.758156" lat="51.135164"><ele>17.8</ele><time>2022-06-26T06:04:28.000Z</time></trkpt><trkpt lon="5.758299" lat="51.135132"><ele>17.8</ele><time>2022-06-26T06:04:29.000Z</time></trkpt><trkpt lon="5.758341" lat="51.135121"><ele>17.6</ele><time>2022-06-26T06:04:30.000Z</time></trkpt><trkpt lon="5.758383" lat="51.135109"><ele>17.6</ele><time>2022-06-26T06:04:31.000Z</time></trkpt><trkpt lon="5.758518" lat="51.135075"><ele>17.6</ele><time>2022-06-26T06:04:32.000Z</time></trkpt><trkpt lon="5.758652" lat="51.13504"><ele>17.6</ele><time>2022-06-26T06:04:33.000Z</time></trkpt><trkpt lon="5.758701" lat="51.135029"><ele>17.6</ele><time>2022-06-26T06:04:34.000Z</time></trkpt><trkpt lon="5.758832" lat="51.134996"><ele>17.8</ele><time>2022-06-26T06:04:35.000Z</time></trkpt><trkpt lon="5.758964" lat="51.134963"><ele>17.8</ele><time>2022-06-26T06:04:36.000Z</time></trkpt><trkpt lon="5.759087" lat="51.13493"><ele>17.8</ele><time>2022-06-26T06:04:37.000Z</time></trkpt><trkpt lon="5.759141" lat="51.134914"><ele>17.8</ele><time>2022-06-26T06:04:38.000Z</time></trkpt><trkpt lon="5.759256" lat="51.134885"><ele>17.8</ele><time>2022-06-26T06:04:39.000Z</time></trkpt><trkpt lon="5.759315" lat="51.134868"><ele>17.8</ele><time>2022-06-26T06:04:40.000Z</time></trkpt><trkpt lon="5.759359" lat="51.134856"><ele>17.8</ele><time>2022-06-26T06:04:41.000Z</time></trkpt><trkpt lon="5.759483" lat="51.134824"><ele>17.8</ele><time>2022-06-26T06:04:42.000Z</time></trkpt><trkpt lon="5.759607" lat="51.134792"><ele>17.8</ele><time>2022-06-26T06:04:43.000Z</time></trkpt><trkpt lon="5.759697" lat="51.134769"><ele>17.8</ele><time>2022-06-26T06:04:44.000Z</time></trkpt><trkpt lon="5.759817" lat="51.134741"><ele>17.8</ele><time>2022-06-26T06:04:45.000Z</time></trkpt><trkpt lon="5.759896" lat="51.134724"><ele>17.8</ele><time>2022-06-26T06:04:46.000Z</time></trkpt><trkpt lon="5.759973" lat="51.134707"><ele>17.8</ele><time>2022-06-26T06:04:47.000Z</time></trkpt><trkpt lon="5.76011" lat="51.134682"><ele>17.8</ele><time>2022-06-26T06:04:48.000Z</time></trkpt><trkpt lon="5.760155" lat="51.134673"><ele>17.8</ele><time>2022-06-26T06:04:49.000Z</time></trkpt><trkpt lon="5.760198" lat="51.134665"><ele>17.8</ele><time>2022-06-26T06:04:50.000Z</time></trkpt><trkpt lon="5.760328" lat="51.134642"><ele>17.8</ele><time>2022-06-26T06:04:51.000Z</time></trkpt><trkpt lon="5.760458" lat="51.13462"><ele>17.8</ele><time>2022-06-26T06:04:52.000Z</time></trkpt><trkpt lon="5.760596" lat="51.134594"><ele>17.8</ele><time>2022-06-26T06:04:53.000Z</time></trkpt><trkpt lon="5.760645" lat="51.134586"><ele>17.8</ele><time>2022-06-26T06:04:54.000Z</time></trkpt><trkpt lon="5.760751" lat="51.134571"><ele>17.8</ele><time>2022-06-26T06:04:55.000Z</time></trkpt><trkpt lon="5.760826" lat="51.134559"><ele>17.8</ele><time>2022-06-26T06:04:56.000Z</time></trkpt><trkpt lon="5.760869" lat="51.13455"><ele>17.8</ele><time>2022-06-26T06:04:57.000Z</time></trkpt><trkpt lon="5.760998" lat="51.134533"><ele>17.8</ele><time>2022-06-26T06:04:58.000Z</time></trkpt><trkpt lon="5.761127" lat="51.134515"><ele>17.8</ele><time>2022-06-26T06:04:59.000Z</time></trkpt><trkpt lon="5.761264" lat="51.1345"><ele>17.8</ele><time>2022-06-26T06:05:00.000Z</time></trkpt><trkpt lon="5.761313" lat="51.134492"><ele>17.8</ele><time>2022-06-26T06:05:01.000Z</time></trkpt><trkpt lon="5.761355" lat="51.134486"><ele>17.8</ele><time>2022-06-26T06:05:02.000Z</time></trkpt><trkpt lon="5.761495" lat="51.134466"><ele>17.8</ele><time>2022-06-26T06:05:03.000Z</time></trkpt><trkpt lon="5.761636" lat="51.134446"><ele>17.8</ele><time>2022-06-26T06:05:04.000Z</time></trkpt><trkpt lon="5.761765" lat="51.134425"><ele>17.8</ele><time>2022-06-26T06:05:05.000Z</time></trkpt><trkpt lon="5.761817" lat="51.134418"><ele>17.8</ele><time>2022-06-26T06:05:06.000Z</time></trkpt><trkpt lon="5.761857" lat="51.134413"><ele>17.8</ele><time>2022-06-26T06:05:07.000Z</time></trkpt><trkpt lon="5.761993" lat="51.134395"><ele>17.8</ele><time>2022-06-26T06:05:08.000Z</time></trkpt><trkpt lon="5.762129" lat="51.134377"><ele>17.8</ele><time>2022-06-26T06:05:09.000Z</time></trkpt><trkpt lon="5.762176" lat="51.13437"><ele>17.8</ele><time>2022-06-26T06:05:10.000Z</time></trkpt><trkpt lon="5.762319" lat="51.134348"><ele>17.8</ele><time>2022-06-26T06:05:11.000Z</time></trkpt><trkpt lon="5.762462" lat="51.134326"><ele>17.8</ele><time>2022-06-26T06:05:12.000Z</time></trkpt><trkpt lon="5.762583" lat="51.134308"><ele>17.8</ele><time>2022-06-26T06:05:13.000Z</time></trkpt><trkpt lon="5.762642" lat="51.134299"><ele>17.8</ele><time>2022-06-26T06:05:14.000Z</time></trkpt><trkpt lon="5.762784" lat="51.134274"><ele>17.8</ele><time>2022-06-26T06:05:15.000Z</time></trkpt><trkpt lon="5.762837" lat="51.134265"><ele>17.8</ele><time>2022-06-26T06:05:16.000Z</time></trkpt><trkpt lon="5.762987" lat="51.134243"><ele>17.8</ele><time>2022-06-26T06:05:17.000Z</time></trkpt><trkpt lon="5.763028" lat="51.134237"><ele>17.8</ele><time>2022-06-26T06:05:18.000Z</time></trkpt><trkpt lon="5.763069" lat="51.134231"><ele>17.8</ele><time>2022-06-26T06:05:19.000Z</time></trkpt><trkpt lon="5.763207" lat="51.13421"><ele>17.8</ele><time>2022-06-26T06:05:20.000Z</time></trkpt><trkpt lon="5.763344" lat="51.13419"><ele>17.8</ele><time>2022-06-26T06:05:21.000Z</time></trkpt><trkpt lon="5.763396" lat="51.134182"><ele>17.8</ele><time>2022-06-26T06:05:22.000Z</time></trkpt><trkpt lon="5.763533" lat="51.134164"><ele>17.8</ele><time>2022-06-26T06:05:23.000Z</time></trkpt><trkpt lon="5.76367" lat="51.134146"><ele>17.8</ele><time>2022-06-26T06:05:24.000Z</time></trkpt><trkpt lon="5.763818" lat="51.134128"><ele>17.8</ele><time>2022-06-26T06:05:25.000Z</time></trkpt><trkpt lon="5.763864" lat="51.134124"><ele>17.6</ele><time>2022-06-26T06:05:26.000Z</time></trkpt><trkpt lon="5.76391" lat="51.134118"><ele>17.6</ele><time>2022-06-26T06:05:27.000Z</time></trkpt><trkpt lon="5.764051" lat="51.134105"><ele>17.4</ele><time>2022-06-26T06:05:28.000Z</time></trkpt><trkpt lon="5.764192" lat="51.134092"><ele>17.4</ele><time>2022-06-26T06:05:29.000Z</time></trkpt><trkpt lon="5.764345" lat="51.134083"><ele>17.4</ele><time>2022-06-26T06:05:30.000Z</time></trkpt><trkpt lon="5.764393" lat="51.134081"><ele>17.4</ele><time>2022-06-26T06:05:31.000Z</time></trkpt><trkpt lon="5.764442" lat="51.134079"><ele>17.6</ele><time>2022-06-26T06:05:32.000Z</time></trkpt><trkpt lon="5.764642" lat="51.134072"><ele>17.6</ele><time>2022-06-26T06:05:33.000Z</time></trkpt><trkpt lon="5.764763" lat="51.134068"><ele>17.6</ele><time>2022-06-26T06:05:34.000Z</time></trkpt><trkpt lon="5.764874" lat="51.134064"><ele>17.6</ele><time>2022-06-26T06:05:35.000Z</time></trkpt><trkpt lon="5.764919" lat="51.134062"><ele>17.8</ele><time>2022-06-26T06:05:36.000Z</time></trkpt><trkpt lon="5.764965" lat="51.13406"><ele>17.8</ele><time>2022-06-26T06:05:37.000Z</time></trkpt><trkpt lon="5.765114" lat="51.134055"><ele>17.8</ele><time>2022-06-26T06:05:38.000Z</time></trkpt><trkpt lon="5.765264" lat="51.13405"><ele>17.6</ele><time>2022-06-26T06:05:39.000Z</time></trkpt><trkpt lon="5.765399" lat="51.134045"><ele>17.6</ele><time>2022-06-26T06:05:40.000Z</time></trkpt><trkpt lon="5.765453" lat="51.134043"><ele>17.6</ele><time>2022-06-26T06:05:41.000Z</time></trkpt><trkpt lon="5.765605" lat="51.134037"><ele>17.8</ele><time>2022-06-26T06:05:42.000Z</time></trkpt><trkpt lon="5.765647" lat="51.134035"><ele>17.8</ele><time>2022-06-26T06:05:43.000Z</time></trkpt><trkpt lon="5.765688" lat="51.134034"><ele>17.8</ele><time>2022-06-26T06:05:44.000Z</time></trkpt><trkpt lon="5.765828" lat="51.134027"><ele>17.8</ele><time>2022-06-26T06:05:45.000Z</time></trkpt><trkpt lon="5.765969" lat="51.13402"><ele>17.8</ele><time>2022-06-26T06:05:46.000Z</time></trkpt><trkpt lon="5.766035" lat="51.134017"><ele>17.8</ele><time>2022-06-26T06:05:47.000Z</time></trkpt><trkpt lon="5.766224" lat="51.13401"><ele>17.8</ele><time>2022-06-26T06:05:48.000Z</time></trkpt><trkpt lon="5.766289" lat="51.134008"><ele>17.8</ele><time>2022-06-26T06:05:49.000Z</time></trkpt><trkpt lon="5.76644" lat="51.134006"><ele>17.8</ele><time>2022-06-26T06:05:50.000Z</time></trkpt><trkpt lon="5.766499" lat="51.134004"><ele>17.8</ele><time>2022-06-26T06:05:51.000Z</time></trkpt><trkpt lon="5.766638" lat="51.133999"><ele>17.6</ele><time>2022-06-26T06:05:52.000Z</time></trkpt><trkpt lon="5.76668" lat="51.133997"><ele>17.6</ele><time>2022-06-26T06:05:53.000Z</time></trkpt><trkpt lon="5.76672" lat="51.133996"><ele>17.6</ele><time>2022-06-26T06:05:54.000Z</time></trkpt><trkpt lon="5.766839" lat="51.133993"><ele>17.6</ele><time>2022-06-26T06:05:55.000Z</time></trkpt><trkpt lon="5.766958" lat="51.133989"><ele>17.4</ele><time>2022-06-26T06:05:56.000Z</time></trkpt><trkpt lon="5.766998" lat="51.133988"><ele>17.4</ele><time>2022-06-26T06:05:57.000Z</time></trkpt><trkpt lon="5.767132" lat="51.133945"><ele>17.4</ele><time>2022-06-26T06:05:58.000Z</time></trkpt><trkpt lon="5.76715" lat="51.133918"><ele>17.4</ele><time>2022-06-26T06:05:59.000Z</time></trkpt><trkpt lon="5.767173" lat="51.133842"><ele>17.2</ele><time>2022-06-26T06:06:00.000Z</time></trkpt><trkpt lon="5.767176" lat="51.133815"><ele>17.2</ele><time>2022-06-26T06:06:01.000Z</time></trkpt><trkpt lon="5.767179" lat="51.133788"><ele>17.2</ele><time>2022-06-26T06:06:02.000Z</time></trkpt><trkpt lon="5.767195" lat="51.133699"><ele>17.2</ele><time>2022-06-26T06:06:03.000Z</time></trkpt><trkpt lon="5.76721" lat="51.133611"><ele>17.2</ele><time>2022-06-26T06:06:04.000Z</time></trkpt><trkpt lon="5.767227" lat="51.133521"><ele>17.2</ele><time>2022-06-26T06:06:05.000Z</time></trkpt><trkpt lon="5.767233" lat="51.133487"><ele>17.2</ele><time>2022-06-26T06:06:06.000Z</time></trkpt><trkpt lon="5.767246" lat="51.133406"><ele>17</ele><time>2022-06-26T06:06:07.000Z</time></trkpt><trkpt lon="5.767254" lat="51.133361"><ele>17</ele><time>2022-06-26T06:06:08.000Z</time></trkpt><trkpt lon="5.767259" lat="51.133332"><ele>17</ele><time>2022-06-26T06:06:09.000Z</time></trkpt><trkpt lon="5.767275" lat="51.133243"><ele>16.8</ele><time>2022-06-26T06:06:10.000Z</time></trkpt><trkpt lon="5.76729" lat="51.133153"><ele>16.8</ele><time>2022-06-26T06:06:11.000Z</time></trkpt><trkpt lon="5.767296" lat="51.133121"><ele>16.8</ele><time>2022-06-26T06:06:12.000Z</time></trkpt><trkpt lon="5.767312" lat="51.133027"><ele>16.6</ele><time>2022-06-26T06:06:13.000Z</time></trkpt><trkpt lon="5.767327" lat="51.132933"><ele>16.6</ele><time>2022-06-26T06:06:14.000Z</time></trkpt><trkpt lon="5.767345" lat="51.132831"><ele>16.4</ele><time>2022-06-26T06:06:15.000Z</time></trkpt><trkpt lon="5.76735" lat="51.132803"><ele>16.4</ele><time>2022-06-26T06:06:16.000Z</time></trkpt><trkpt lon="5.767356" lat="51.132775"><ele>16.4</ele><time>2022-06-26T06:06:17.000Z</time></trkpt><trkpt lon="5.767373" lat="51.13268"><ele>16.2</ele><time>2022-06-26T06:06:18.000Z</time></trkpt><trkpt lon="5.767389" lat="51.132586"><ele>16.2</ele><time>2022-06-26T06:06:19.000Z</time></trkpt><trkpt lon="5.76741" lat="51.132509"><ele>16.2</ele><time>2022-06-26T06:06:20.000Z</time></trkpt><trkpt lon="5.767438" lat="51.132434"><ele>16</ele><time>2022-06-26T06:06:21.000Z</time></trkpt><trkpt lon="5.767459" lat="51.132377"><ele>16</ele><time>2022-06-26T06:06:22.000Z</time></trkpt><trkpt lon="5.767479" lat="51.132328"><ele>16</ele><time>2022-06-26T06:06:23.000Z</time></trkpt><trkpt lon="5.767522" lat="51.132224"><ele>16</ele><time>2022-06-26T06:06:24.000Z</time></trkpt><trkpt lon="5.767535" lat="51.13219"><ele>16</ele><time>2022-06-26T06:06:25.000Z</time></trkpt><trkpt lon="5.767554" lat="51.132143"><ele>15.8</ele><time>2022-06-26T06:06:26.000Z</time></trkpt><trkpt lon="5.767602" lat="51.132026"><ele>15.6</ele><time>2022-06-26T06:06:27.000Z</time></trkpt><trkpt lon="5.767622" lat="51.13198"><ele>15.4</ele><time>2022-06-26T06:06:28.000Z</time></trkpt><trkpt lon="5.767662" lat="51.131892"><ele>15.2</ele><time>2022-06-26T06:06:29.000Z</time></trkpt><trkpt lon="5.767682" lat="51.131856"><ele>15.4</ele><time>2022-06-26T06:06:30.000Z</time></trkpt><trkpt lon="5.767734" lat="51.131763"><ele>15.2</ele><time>2022-06-26T06:06:31.000Z</time></trkpt><trkpt lon="5.767755" lat="51.131725"><ele>15.2</ele><time>2022-06-26T06:06:32.000Z</time></trkpt><trkpt lon="5.767786" lat="51.131673"><ele>15.4</ele><time>2022-06-26T06:06:33.000Z</time></trkpt><trkpt lon="5.76783" lat="51.131604"><ele>15.4</ele><time>2022-06-26T06:06:34.000Z</time></trkpt><trkpt lon="5.767889" lat="51.131504"><ele>15.6</ele><time>2022-06-26T06:06:35.000Z</time></trkpt><trkpt lon="5.767906" lat="51.131475"><ele>15.8</ele><time>2022-06-26T06:06:36.000Z</time></trkpt><trkpt lon="5.767923" lat="51.131446"><ele>15.8</ele><time>2022-06-26T06:06:37.000Z</time></trkpt><trkpt lon="5.767967" lat="51.131363"><ele>16</ele><time>2022-06-26T06:06:38.000Z</time></trkpt><trkpt lon="5.768011" lat="51.13128"><ele>16</ele><time>2022-06-26T06:06:39.000Z</time></trkpt><trkpt lon="5.768054" lat="51.131195"><ele>15.8</ele><time>2022-06-26T06:06:40.000Z</time></trkpt><trkpt lon="5.768067" lat="51.131165"><ele>15.8</ele><time>2022-06-26T06:06:41.000Z</time></trkpt><trkpt lon="5.768081" lat="51.131134"><ele>15.6</ele><time>2022-06-26T06:06:42.000Z</time></trkpt><trkpt lon="5.768119" lat="51.131052"><ele>15.8</ele><time>2022-06-26T06:06:43.000Z</time></trkpt><trkpt lon="5.768156" lat="51.130969"><ele>15.8</ele><time>2022-06-26T06:06:44.000Z</time></trkpt><trkpt lon="5.768192" lat="51.130878"><ele>16</ele><time>2022-06-26T06:06:45.000Z</time></trkpt><trkpt lon="5.768205" lat="51.130843"><ele>16.2</ele><time>2022-06-26T06:06:46.000Z</time></trkpt><trkpt lon="5.768235" lat="51.130748"><ele>16</ele><time>2022-06-26T06:06:47.000Z</time></trkpt><trkpt lon="5.768244" lat="51.130719"><ele>16</ele><time>2022-06-26T06:06:48.000Z</time></trkpt><trkpt lon="5.768253" lat="51.130689"><ele>16</ele><time>2022-06-26T06:06:49.000Z</time></trkpt><trkpt lon="5.768276" lat="51.130601"><ele>16</ele><time>2022-06-26T06:06:50.000Z</time></trkpt><trkpt lon="5.768299" lat="51.130512"><ele>16</ele><time>2022-06-26T06:06:51.000Z</time></trkpt><trkpt lon="5.768324" lat="51.130417"><ele>16</ele><time>2022-06-26T06:06:52.000Z</time></trkpt><trkpt lon="5.768331" lat="51.130387"><ele>16</ele><time>2022-06-26T06:06:53.000Z</time></trkpt><trkpt lon="5.768338" lat="51.130356"><ele>15.8</ele><time>2022-06-26T06:06:54.000Z</time></trkpt><trkpt lon="5.768361" lat="51.130267"><ele>15.8</ele><time>2022-06-26T06:06:55.000Z</time></trkpt><trkpt lon="5.768384" lat="51.130178"><ele>15.6</ele><time>2022-06-26T06:06:56.000Z</time></trkpt><trkpt lon="5.768412" lat="51.130081"><ele>15.4</ele><time>2022-06-26T06:06:57.000Z</time></trkpt><trkpt lon="5.768421" lat="51.130052"><ele>15.4</ele><time>2022-06-26T06:06:58.000Z</time></trkpt><trkpt lon="5.76843" lat="51.130022"><ele>15.4</ele><time>2022-06-26T06:06:59.000Z</time></trkpt><trkpt lon="5.768457" lat="51.129925"><ele>15.4</ele><time>2022-06-26T06:07:00.000Z</time></trkpt><trkpt lon="5.768484" lat="51.129828"><ele>15.4</ele><time>2022-06-26T06:07:01.000Z</time></trkpt><trkpt lon="5.768509" lat="51.129745"><ele>15.4</ele><time>2022-06-26T06:07:02.000Z</time></trkpt><trkpt lon="5.76852" lat="51.129705"><ele>15.2</ele><time>2022-06-26T06:07:03.000Z</time></trkpt><trkpt lon="5.768548" lat="51.129614"><ele>15.2</ele><time>2022-06-26T06:07:04.000Z</time></trkpt><trkpt lon="5.768559" lat="51.129577"><ele>15.2</ele><time>2022-06-26T06:07:05.000Z</time></trkpt><trkpt lon="5.768582" lat="51.129503"><ele>15.2</ele><time>2022-06-26T06:07:06.000Z</time></trkpt><trkpt lon="5.768599" lat="51.129452"><ele>15.2</ele><time>2022-06-26T06:07:07.000Z</time></trkpt><trkpt lon="5.768609" lat="51.129422"><ele>15.2</ele><time>2022-06-26T06:07:08.000Z</time></trkpt><trkpt lon="5.768636" lat="51.129333"><ele>15.2</ele><time>2022-06-26T06:07:09.000Z</time></trkpt><trkpt lon="5.768664" lat="51.129243"><ele>15.2</ele><time>2022-06-26T06:07:10.000Z</time></trkpt><trkpt lon="5.768694" lat="51.129142"><ele>15.4</ele><time>2022-06-26T06:07:11.000Z</time></trkpt><trkpt lon="5.768702" lat="51.129114"><ele>15.4</ele><time>2022-06-26T06:07:12.000Z</time></trkpt><trkpt lon="5.76871" lat="51.129086"><ele>15.2</ele><time>2022-06-26T06:07:13.000Z</time></trkpt><trkpt lon="5.768738" lat="51.128995"><ele>15.2</ele><time>2022-06-26T06:07:14.000Z</time></trkpt><trkpt lon="5.768766" lat="51.128905"><ele>15.2</ele><time>2022-06-26T06:07:15.000Z</time></trkpt><trkpt lon="5.768793" lat="51.128816"><ele>15.2</ele><time>2022-06-26T06:07:16.000Z</time></trkpt><trkpt lon="5.76881" lat="51.128754"><ele>15.2</ele><time>2022-06-26T06:07:17.000Z</time></trkpt><trkpt lon="5.768826" lat="51.1287"><ele>15.2</ele><time>2022-06-26T06:07:18.000Z</time></trkpt><trkpt lon="5.76884" lat="51.12865"><ele>15.4</ele><time>2022-06-26T06:07:19.000Z</time></trkpt><trkpt lon="5.768869" lat="51.128559"><ele>15.4</ele><time>2022-06-26T06:07:20.000Z</time></trkpt><trkpt lon="5.768887" lat="51.128494"><ele>15.4</ele><time>2022-06-26T06:07:21.000Z</time></trkpt><trkpt lon="5.768901" lat="51.128442"><ele>15.2</ele><time>2022-06-26T06:07:22.000Z</time></trkpt><trkpt lon="5.768916" lat="51.128391"><ele>15.2</ele><time>2022-06-26T06:07:23.000Z</time></trkpt><trkpt lon="5.76895" lat="51.128284"><ele>15.2</ele><time>2022-06-26T06:07:24.000Z</time></trkpt><trkpt lon="5.768958" lat="51.128257"><ele>15.2</ele><time>2022-06-26T06:07:25.000Z</time></trkpt><trkpt lon="5.768965" lat="51.12823"><ele>15.2</ele><time>2022-06-26T06:07:26.000Z</time></trkpt><trkpt lon="5.768991" lat="51.128141"><ele>15.2</ele><time>2022-06-26T06:07:27.000Z</time></trkpt><trkpt lon="5.769017" lat="51.128051"><ele>15.2</ele><time>2022-06-26T06:07:28.000Z</time></trkpt><trkpt lon="5.769031" lat="51.128008"><ele>15.2</ele><time>2022-06-26T06:07:29.000Z</time></trkpt><trkpt lon="5.76907" lat="51.127891"><ele>15.2</ele><time>2022-06-26T06:07:30.000Z</time></trkpt><trkpt lon="5.769087" lat="51.12785"><ele>15.4</ele><time>2022-06-26T06:07:31.000Z</time></trkpt><trkpt lon="5.769112" lat="51.12779"><ele>15.4</ele><time>2022-06-26T06:07:32.000Z</time></trkpt><trkpt lon="5.769144" lat="51.127714"><ele>15.4</ele><time>2022-06-26T06:07:33.000Z</time></trkpt><trkpt lon="5.769175" lat="51.127639"><ele>15.4</ele><time>2022-06-26T06:07:34.000Z</time></trkpt><trkpt lon="5.76919" lat="51.127609"><ele>15.6</ele><time>2022-06-26T06:07:35.000Z</time></trkpt><trkpt lon="5.769205" lat="51.12758"><ele>15.6</ele><time>2022-06-26T06:07:36.000Z</time></trkpt><trkpt lon="5.769248" lat="51.127489"><ele>15.6</ele><time>2022-06-26T06:07:37.000Z</time></trkpt><trkpt lon="5.769291" lat="51.127399"><ele>15.4</ele><time>2022-06-26T06:07:38.000Z</time></trkpt><trkpt lon="5.769327" lat="51.127322"><ele>15.6</ele><time>2022-06-26T06:07:39.000Z</time></trkpt><trkpt lon="5.769351" lat="51.127275"><ele>15.6</ele><time>2022-06-26T06:07:40.000Z</time></trkpt><trkpt lon="5.769395" lat="51.127197"><ele>15.6</ele><time>2022-06-26T06:07:41.000Z</time></trkpt><trkpt lon="5.769418" lat="51.127163"><ele>15.8</ele><time>2022-06-26T06:07:42.000Z</time></trkpt><trkpt lon="5.769467" lat="51.127092"><ele>15.8</ele><time>2022-06-26T06:07:43.000Z</time></trkpt><trkpt lon="5.769501" lat="51.127046"><ele>15.8</ele><time>2022-06-26T06:07:44.000Z</time></trkpt><trkpt lon="5.769523" lat="51.127018"><ele>15.8</ele><time>2022-06-26T06:07:45.000Z</time></trkpt><trkpt lon="5.769584" lat="51.126935"><ele>15.8</ele><time>2022-06-26T06:07:46.000Z</time></trkpt><trkpt lon="5.769646" lat="51.126852"><ele>15.6</ele><time>2022-06-26T06:07:47.000Z</time></trkpt><trkpt lon="5.769715" lat="51.126765"><ele>15.6</ele><time>2022-06-26T06:07:48.000Z</time></trkpt><trkpt lon="5.769743" lat="51.126734"><ele>15.6</ele><time>2022-06-26T06:07:49.000Z</time></trkpt><trkpt lon="5.76977" lat="51.126705"><ele>15.6</ele><time>2022-06-26T06:07:50.000Z</time></trkpt><trkpt lon="5.769854" lat="51.126633"><ele>15.6</ele><time>2022-06-26T06:07:51.000Z</time></trkpt><trkpt lon="5.769938" lat="51.126561"><ele>15.4</ele><time>2022-06-26T06:07:52.000Z</time></trkpt><trkpt lon="5.770006" lat="51.12652"><ele>15.2</ele><time>2022-06-26T06:07:53.000Z</time></trkpt><trkpt lon="5.770128" lat="51.12645"><ele>15.4</ele><time>2022-06-26T06:07:54.000Z</time></trkpt><trkpt lon="5.770179" lat="51.126425"><ele>15.4</ele><time>2022-06-26T06:07:55.000Z</time></trkpt><trkpt lon="5.7703" lat="51.126366"><ele>15.4</ele><time>2022-06-26T06:07:56.000Z</time></trkpt><trkpt lon="5.77034" lat="51.126347"><ele>15.4</ele><time>2022-06-26T06:07:57.000Z</time></trkpt><trkpt lon="5.77038" lat="51.126328"><ele>15.2</ele><time>2022-06-26T06:07:58.000Z</time></trkpt><trkpt lon="5.770494" lat="51.126274"><ele>15.2</ele><time>2022-06-26T06:07:59.000Z</time></trkpt><trkpt lon="5.770608" lat="51.126221"><ele>15.4</ele><time>2022-06-26T06:08:00.000Z</time></trkpt><trkpt lon="5.770732" lat="51.126163"><ele>15.4</ele><time>2022-06-26T06:08:01.000Z</time></trkpt><trkpt lon="5.770766" lat="51.126146"><ele>15.4</ele><time>2022-06-26T06:08:02.000Z</time></trkpt><trkpt lon="5.770799" lat="51.126129"><ele>15.6</ele><time>2022-06-26T06:08:03.000Z</time></trkpt><trkpt lon="5.77091" lat="51.126079"><ele>15.8</ele><time>2022-06-26T06:08:04.000Z</time></trkpt><trkpt lon="5.771021" lat="51.126029"><ele>16</ele><time>2022-06-26T06:08:05.000Z</time></trkpt><trkpt lon="5.771063" lat="51.126008"><ele>16</ele><time>2022-06-26T06:08:06.000Z</time></trkpt><trkpt lon="5.771178" lat="51.125953"><ele>16.2</ele><time>2022-06-26T06:08:07.000Z</time></trkpt><trkpt lon="5.771294" lat="51.125897"><ele>16.4</ele><time>2022-06-26T06:08:08.000Z</time></trkpt><trkpt lon="5.771407" lat="51.125842"><ele>16.4</ele><time>2022-06-26T06:08:09.000Z</time></trkpt><trkpt lon="5.771458" lat="51.125817"><ele>16.6</ele><time>2022-06-26T06:08:10.000Z</time></trkpt><trkpt lon="5.771578" lat="51.125759"><ele>16.6</ele><time>2022-06-26T06:08:11.000Z</time></trkpt><trkpt lon="5.771631" lat="51.125735"><ele>16.6</ele><time>2022-06-26T06:08:12.000Z</time></trkpt><trkpt lon="5.77175" lat="51.125678"><ele>16.6</ele><time>2022-06-26T06:08:13.000Z</time></trkpt><trkpt lon="5.771789" lat="51.125659"><ele>16.6</ele><time>2022-06-26T06:08:14.000Z</time></trkpt><trkpt lon="5.771828" lat="51.12564"><ele>16.6</ele><time>2022-06-26T06:08:15.000Z</time></trkpt><trkpt lon="5.771946" lat="51.125582"><ele>16.8</ele><time>2022-06-26T06:08:16.000Z</time></trkpt><trkpt lon="5.772064" lat="51.125525"><ele>16.6</ele><time>2022-06-26T06:08:17.000Z</time></trkpt><trkpt lon="5.772155" lat="51.125476"><ele>16.8</ele><time>2022-06-26T06:08:18.000Z</time></trkpt><trkpt lon="5.772201" lat="51.125452"><ele>16.6</ele><time>2022-06-26T06:08:19.000Z</time></trkpt><trkpt lon="5.772314" lat="51.125396"><ele>16.6</ele><time>2022-06-26T06:08:20.000Z</time></trkpt><trkpt lon="5.772348" lat="51.12538"><ele>16.6</ele><time>2022-06-26T06:08:21.000Z</time></trkpt><trkpt lon="5.772383" lat="51.125364"><ele>16.6</ele><time>2022-06-26T06:08:22.000Z</time></trkpt><trkpt lon="5.772492" lat="51.125314"><ele>16.8</ele><time>2022-06-26T06:08:23.000Z</time></trkpt><trkpt lon="5.772601" lat="51.125264"><ele>16.8</ele><time>2022-06-26T06:08:24.000Z</time></trkpt><trkpt lon="5.772639" lat="51.125246"><ele>16.8</ele><time>2022-06-26T06:08:25.000Z</time></trkpt><trkpt lon="5.772752" lat="51.125197"><ele>17</ele><time>2022-06-26T06:08:26.000Z</time></trkpt><trkpt lon="5.772865" lat="51.125147"><ele>17</ele><time>2022-06-26T06:08:27.000Z</time></trkpt><trkpt lon="5.772985" lat="51.125095"><ele>17.2</ele><time>2022-06-26T06:08:28.000Z</time></trkpt><trkpt lon="5.773024" lat="51.125078"><ele>17.2</ele><time>2022-06-26T06:08:29.000Z</time></trkpt><trkpt lon="5.773063" lat="51.125061"><ele>17.2</ele><time>2022-06-26T06:08:30.000Z</time></trkpt><trkpt lon="5.773196" lat="51.125011"><ele>17.2</ele><time>2022-06-26T06:08:31.000Z</time></trkpt><trkpt lon="5.773329" lat="51.124961"><ele>17.2</ele><time>2022-06-26T06:08:32.000Z</time></trkpt><trkpt lon="5.773448" lat="51.12492"><ele>17.2</ele><time>2022-06-26T06:08:33.000Z</time></trkpt><trkpt lon="5.773512" lat="51.1249"><ele>17.4</ele><time>2022-06-26T06:08:34.000Z</time></trkpt><trkpt lon="5.773646" lat="51.124858"><ele>17.2</ele><time>2022-06-26T06:08:35.000Z</time></trkpt><trkpt lon="5.773694" lat="51.124844"><ele>17.2</ele><time>2022-06-26T06:08:36.000Z</time></trkpt><trkpt lon="5.773742" lat="51.12483"><ele>17.2</ele><time>2022-06-26T06:08:37.000Z</time></trkpt><trkpt lon="5.773883" lat="51.124796"><ele>17.2</ele><time>2022-06-26T06:08:38.000Z</time></trkpt><trkpt lon="5.774023" lat="51.124763"><ele>17.2</ele><time>2022-06-26T06:08:39.000Z</time></trkpt><trkpt lon="5.77416" lat="51.124736"><ele>17</ele><time>2022-06-26T06:08:40.000Z</time></trkpt><trkpt lon="5.774217" lat="51.124724"><ele>17</ele><time>2022-06-26T06:08:41.000Z</time></trkpt><trkpt lon="5.774368" lat="51.124699"><ele>17.2</ele><time>2022-06-26T06:08:42.000Z</time></trkpt><trkpt lon="5.774426" lat="51.124691"><ele>17.2</ele><time>2022-06-26T06:08:43.000Z</time></trkpt><trkpt lon="5.774516" lat="51.124677"><ele>17.2</ele><time>2022-06-26T06:08:44.000Z</time></trkpt><trkpt lon="5.77469" lat="51.124649"><ele>17.4</ele><time>2022-06-26T06:08:45.000Z</time></trkpt><trkpt lon="5.7748" lat="51.124634"><ele>17.4</ele><time>2022-06-26T06:08:46.000Z</time></trkpt><trkpt lon="5.774862" lat="51.124625"><ele>17.4</ele><time>2022-06-26T06:08:47.000Z</time></trkpt><trkpt lon="5.775008" lat="51.124603"><ele>17.4</ele><time>2022-06-26T06:08:48.000Z</time></trkpt><trkpt lon="5.775067" lat="51.124594"><ele>17.6</ele><time>2022-06-26T06:08:49.000Z</time></trkpt><trkpt lon="5.775213" lat="51.124569"><ele>17.4</ele><time>2022-06-26T06:08:50.000Z</time></trkpt><trkpt lon="5.775263" lat="51.124562"><ele>17.4</ele><time>2022-06-26T06:08:51.000Z</time></trkpt><trkpt lon="5.775312" lat="51.124554"><ele>17.4</ele><time>2022-06-26T06:08:52.000Z</time></trkpt><trkpt lon="5.775454" lat="51.124528"><ele>17.6</ele><time>2022-06-26T06:08:53.000Z</time></trkpt><trkpt lon="5.775596" lat="51.124501"><ele>17.6</ele><time>2022-06-26T06:08:54.000Z</time></trkpt><trkpt lon="5.775745" lat="51.124469"><ele>17.6</ele><time>2022-06-26T06:08:55.000Z</time></trkpt><trkpt lon="5.775796" lat="51.124458"><ele>17.6</ele><time>2022-06-26T06:08:56.000Z</time></trkpt><trkpt lon="5.775847" lat="51.124447"><ele>17.6</ele><time>2022-06-26T06:08:57.000Z</time></trkpt><trkpt lon="5.775983" lat="51.124415"><ele>17.6</ele><time>2022-06-26T06:08:58.000Z</time></trkpt><trkpt lon="5.776119" lat="51.124382"><ele>17.6</ele><time>2022-06-26T06:08:59.000Z</time></trkpt><trkpt lon="5.776266" lat="51.124347"><ele>17.6</ele><time>2022-06-26T06:09:00.000Z</time></trkpt><trkpt lon="5.776309" lat="51.124336"><ele>17.6</ele><time>2022-06-26T06:09:01.000Z</time></trkpt><trkpt lon="5.776352" lat="51.124324"><ele>17.6</ele><time>2022-06-26T06:09:02.000Z</time></trkpt><trkpt lon="5.776493" lat="51.12429"><ele>17.6</ele><time>2022-06-26T06:09:03.000Z</time></trkpt><trkpt lon="5.776634" lat="51.124255"><ele>17.6</ele><time>2022-06-26T06:09:04.000Z</time></trkpt><trkpt lon="5.77678" lat="51.124218"><ele>17.6</ele><time>2022-06-26T06:09:05.000Z</time></trkpt><trkpt lon="5.776839" lat="51.124203"><ele>17.6</ele><time>2022-06-26T06:09:06.000Z</time></trkpt><trkpt lon="5.776984" lat="51.124166"><ele>17.6</ele><time>2022-06-26T06:09:07.000Z</time></trkpt><trkpt lon="5.777034" lat="51.124153"><ele>17.6</ele><time>2022-06-26T06:09:08.000Z</time></trkpt><trkpt lon="5.777079" lat="51.124142"><ele>17.6</ele><time>2022-06-26T06:09:09.000Z</time></trkpt><trkpt lon="5.777227" lat="51.124106"><ele>17.6</ele><time>2022-06-26T06:09:10.000Z</time></trkpt><trkpt lon="5.777374" lat="51.124069"><ele>17.6</ele><time>2022-06-26T06:09:11.000Z</time></trkpt><trkpt lon="5.777508" lat="51.124038"><ele>17.6</ele><time>2022-06-26T06:09:12.000Z</time></trkpt><trkpt lon="5.777558" lat="51.124029"><ele>17.6</ele><time>2022-06-26T06:09:13.000Z</time></trkpt><trkpt lon="5.777608" lat="51.12402"><ele>17.6</ele><time>2022-06-26T06:09:14.000Z</time></trkpt><trkpt lon="5.777748" lat="51.123989"><ele>17.6</ele><time>2022-06-26T06:09:15.000Z</time></trkpt><trkpt lon="5.777888" lat="51.123959"><ele>17.6</ele><time>2022-06-26T06:09:16.000Z</time></trkpt><trkpt lon="5.778037" lat="51.123932"><ele>17.6</ele><time>2022-06-26T06:09:17.000Z</time></trkpt><trkpt lon="5.778093" lat="51.123922"><ele>17.6</ele><time>2022-06-26T06:09:18.000Z</time></trkpt><trkpt lon="5.778216" lat="51.123898"><ele>17.6</ele><time>2022-06-26T06:09:19.000Z</time></trkpt><trkpt lon="5.778296" lat="51.123883"><ele>17.6</ele><time>2022-06-26T06:09:20.000Z</time></trkpt><trkpt lon="5.778339" lat="51.123875"><ele>17.6</ele><time>2022-06-26T06:09:21.000Z</time></trkpt><trkpt lon="5.778491" lat="51.123849"><ele>17.6</ele><time>2022-06-26T06:09:22.000Z</time></trkpt><trkpt lon="5.778643" lat="51.123822"><ele>17.6</ele><time>2022-06-26T06:09:23.000Z</time></trkpt><trkpt lon="5.778798" lat="51.123794"><ele>17.6</ele><time>2022-06-26T06:09:24.000Z</time></trkpt><trkpt lon="5.778844" lat="51.123786"><ele>17.4</ele><time>2022-06-26T06:09:25.000Z</time></trkpt><trkpt lon="5.77889" lat="51.123778"><ele>17.4</ele><time>2022-06-26T06:09:26.000Z</time></trkpt><trkpt lon="5.779037" lat="51.123752"><ele>17.6</ele><time>2022-06-26T06:09:27.000Z</time></trkpt><trkpt lon="5.779184" lat="51.123726"><ele>17.6</ele><time>2022-06-26T06:09:28.000Z</time></trkpt><trkpt lon="5.779277" lat="51.12371"><ele>17.4</ele><time>2022-06-26T06:09:29.000Z</time></trkpt><trkpt lon="5.779449" lat="51.123679"><ele>17.4</ele><time>2022-06-26T06:09:30.000Z</time></trkpt><trkpt lon="5.779558" lat="51.123661"><ele>17.4</ele><time>2022-06-26T06:09:31.000Z</time></trkpt><trkpt lon="5.779668" lat="51.123641"><ele>17.2</ele><time>2022-06-26T06:09:32.000Z</time></trkpt><trkpt lon="5.779777" lat="51.12362"><ele>17.2</ele><time>2022-06-26T06:09:33.000Z</time></trkpt><trkpt lon="5.779885" lat="51.1236"><ele>17.2</ele><time>2022-06-26T06:09:34.000Z</time></trkpt><trkpt lon="5.779948" lat="51.123589"><ele>17.2</ele><time>2022-06-26T06:09:35.000Z</time></trkpt><trkpt lon="5.780092" lat="51.123564"><ele>17.2</ele><time>2022-06-26T06:09:36.000Z</time></trkpt><trkpt lon="5.780159" lat="51.123552"><ele>17</ele><time>2022-06-26T06:09:37.000Z</time></trkpt><trkpt lon="5.780303" lat="51.123527"><ele>17</ele><time>2022-06-26T06:09:38.000Z</time></trkpt><trkpt lon="5.780369" lat="51.123515"><ele>17</ele><time>2022-06-26T06:09:39.000Z</time></trkpt><trkpt lon="5.78042" lat="51.123505"><ele>17</ele><time>2022-06-26T06:09:40.000Z</time></trkpt><trkpt lon="5.780572" lat="51.123478"><ele>17</ele><time>2022-06-26T06:09:41.000Z</time></trkpt><trkpt lon="5.780724" lat="51.123451"><ele>17.2</ele><time>2022-06-26T06:09:42.000Z</time></trkpt><trkpt lon="5.780854" lat="51.123428"><ele>17</ele><time>2022-06-26T06:09:43.000Z</time></trkpt><trkpt lon="5.78091" lat="51.12342"><ele>17</ele><time>2022-06-26T06:09:44.000Z</time></trkpt><trkpt lon="5.781057" lat="51.123399"><ele>17</ele><time>2022-06-26T06:09:45.000Z</time></trkpt><trkpt lon="5.781107" lat="51.12339"><ele>17</ele><time>2022-06-26T06:09:46.000Z</time></trkpt><trkpt lon="5.78115" lat="51.123382"><ele>17</ele><time>2022-06-26T06:09:47.000Z</time></trkpt><trkpt lon="5.781292" lat="51.123356"><ele>17</ele><time>2022-06-26T06:09:48.000Z</time></trkpt><trkpt lon="5.781434" lat="51.12333"><ele>17</ele><time>2022-06-26T06:09:49.000Z</time></trkpt><trkpt lon="5.78157" lat="51.123306"><ele>17</ele><time>2022-06-26T06:09:50.000Z</time></trkpt><trkpt lon="5.781633" lat="51.123294"><ele>17</ele><time>2022-06-26T06:09:51.000Z</time></trkpt><trkpt lon="5.78168" lat="51.123286"><ele>16.8</ele><time>2022-06-26T06:09:52.000Z</time></trkpt><trkpt lon="5.781828" lat="51.123261"><ele>16.6</ele><time>2022-06-26T06:09:53.000Z</time></trkpt><trkpt lon="5.781977" lat="51.123237"><ele>16.6</ele><time>2022-06-26T06:09:54.000Z</time></trkpt><trkpt lon="5.782118" lat="51.123215"><ele>16.6</ele><time>2022-06-26T06:09:55.000Z</time></trkpt><trkpt lon="5.782172" lat="51.123206"><ele>16.6</ele><time>2022-06-26T06:09:56.000Z</time></trkpt><trkpt lon="5.782223" lat="51.123197"><ele>16.6</ele><time>2022-06-26T06:09:57.000Z</time></trkpt><trkpt lon="5.782369" lat="51.123171"><ele>17</ele><time>2022-06-26T06:09:58.000Z</time></trkpt><trkpt lon="5.782515" lat="51.123145"><ele>17</ele><time>2022-06-26T06:09:59.000Z</time></trkpt><trkpt lon="5.782661" lat="51.123119"><ele>17</ele><time>2022-06-26T06:10:00.000Z</time></trkpt><trkpt lon="5.782712" lat="51.123108"><ele>17</ele><time>2022-06-26T06:10:01.000Z</time></trkpt><trkpt lon="5.782763" lat="51.123098"><ele>17</ele><time>2022-06-26T06:10:02.000Z</time></trkpt><trkpt lon="5.78291" lat="51.123074"><ele>17</ele><time>2022-06-26T06:10:03.000Z</time></trkpt><trkpt lon="5.783058" lat="51.12305"><ele>17</ele><time>2022-06-26T06:10:04.000Z</time></trkpt><trkpt lon="5.783192" lat="51.123026"><ele>16.8</ele><time>2022-06-26T06:10:05.000Z</time></trkpt><trkpt lon="5.783255" lat="51.123015"><ele>17</ele><time>2022-06-26T06:10:06.000Z</time></trkpt><trkpt lon="5.783309" lat="51.123005"><ele>17</ele><time>2022-06-26T06:10:07.000Z</time></trkpt><trkpt lon="5.783496" lat="51.122973"><ele>17</ele><time>2022-06-26T06:10:08.000Z</time></trkpt><trkpt lon="5.783593" lat="51.122952"><ele>17</ele><time>2022-06-26T06:10:09.000Z</time></trkpt><trkpt lon="5.783678" lat="51.122933"><ele>17.2</ele><time>2022-06-26T06:10:10.000Z</time></trkpt><trkpt lon="5.783833" lat="51.122901"><ele>17.2</ele><time>2022-06-26T06:10:11.000Z</time></trkpt><trkpt lon="5.783897" lat="51.122889"><ele>17.4</ele><time>2022-06-26T06:10:12.000Z</time></trkpt><trkpt lon="5.783949" lat="51.122879"><ele>17.4</ele><time>2022-06-26T06:10:13.000Z</time></trkpt><trkpt lon="5.78408" lat="51.122857"><ele>17.4</ele><time>2022-06-26T06:10:14.000Z</time></trkpt><trkpt lon="5.784211" lat="51.122836"><ele>17.6</ele><time>2022-06-26T06:10:15.000Z</time></trkpt><trkpt lon="5.784351" lat="51.122818"><ele>17.6</ele><time>2022-06-26T06:10:16.000Z</time></trkpt><trkpt lon="5.784402" lat="51.122812"><ele>17.6</ele><time>2022-06-26T06:10:17.000Z</time></trkpt><trkpt lon="5.784504" lat="51.122809"><ele>17.8</ele><time>2022-06-26T06:10:18.000Z</time></trkpt><trkpt lon="5.784595" lat="51.122816"><ele>17.8</ele><time>2022-06-26T06:10:19.000Z</time></trkpt><trkpt lon="5.784645" lat="51.122821"><ele>17.8</ele><time>2022-06-26T06:10:20.000Z</time></trkpt><trkpt lon="5.784762" lat="51.122867"><ele>17.8</ele><time>2022-06-26T06:10:21.000Z</time></trkpt><trkpt lon="5.784879" lat="51.122913"><ele>17.8</ele><time>2022-06-26T06:10:22.000Z</time></trkpt><trkpt lon="5.784957" lat="51.122947"><ele>17.8</ele><time>2022-06-26T06:10:23.000Z</time></trkpt><trkpt lon="5.785097" lat="51.123006"><ele>17.8</ele><time>2022-06-26T06:10:24.000Z</time></trkpt><trkpt lon="5.785192" lat="51.123032"><ele>17.8</ele><time>2022-06-26T06:10:25.000Z</time></trkpt><trkpt lon="5.785291" lat="51.123055"><ele>17.8</ele><time>2022-06-26T06:10:26.000Z</time></trkpt><trkpt lon="5.785363" lat="51.123063"><ele>17.8</ele><time>2022-06-26T06:10:27.000Z</time></trkpt><trkpt lon="5.785485" lat="51.123074"><ele>18</ele><time>2022-06-26T06:10:28.000Z</time></trkpt><trkpt lon="5.785543" lat="51.123074"><ele>18</ele><time>2022-06-26T06:10:29.000Z</time></trkpt><trkpt lon="5.785708" lat="51.123081"><ele>18</ele><time>2022-06-26T06:10:30.000Z</time></trkpt><trkpt lon="5.785766" lat="51.123083"><ele>18</ele><time>2022-06-26T06:10:31.000Z</time></trkpt><trkpt lon="5.785869" lat="51.123088"><ele>18</ele><time>2022-06-26T06:10:32.000Z</time></trkpt><trkpt lon="5.78603" lat="51.123094"><ele>18</ele><time>2022-06-26T06:10:33.000Z</time></trkpt><trkpt lon="5.786127" lat="51.123096"><ele>18</ele><time>2022-06-26T06:10:34.000Z</time></trkpt><trkpt lon="5.786206" lat="51.123098"><ele>18</ele><time>2022-06-26T06:10:35.000Z</time></trkpt><trkpt lon="5.78627" lat="51.1231"><ele>18</ele><time>2022-06-26T06:10:36.000Z</time></trkpt><trkpt lon="5.786473" lat="51.123107"><ele>17.8</ele><time>2022-06-26T06:10:37.000Z</time></trkpt><trkpt lon="5.786579" lat="51.12311"><ele>18</ele><time>2022-06-26T06:10:38.000Z</time></trkpt><trkpt lon="5.78667" lat="51.123112"><ele>17.8</ele><time>2022-06-26T06:10:39.000Z</time></trkpt><trkpt lon="5.786846" lat="51.123116"><ele>17.8</ele><time>2022-06-26T06:10:40.000Z</time></trkpt><trkpt lon="5.786896" lat="51.123117"><ele>17.8</ele><time>2022-06-26T06:10:41.000Z</time></trkpt><trkpt lon="5.786946" lat="51.123119"><ele>17.8</ele><time>2022-06-26T06:10:42.000Z</time></trkpt><trkpt lon="5.787098" lat="51.123122"><ele>17.8</ele><time>2022-06-26T06:10:43.000Z</time></trkpt><trkpt lon="5.787251" lat="51.123126"><ele>17.6</ele><time>2022-06-26T06:10:44.000Z</time></trkpt><trkpt lon="5.787408" lat="51.123131"><ele>17.6</ele><time>2022-06-26T06:10:45.000Z</time></trkpt><trkpt lon="5.787461" lat="51.123133"><ele>17.6</ele><time>2022-06-26T06:10:46.000Z</time></trkpt><trkpt lon="5.787514" lat="51.123134"><ele>17.6</ele><time>2022-06-26T06:10:47.000Z</time></trkpt><trkpt lon="5.787665" lat="51.123138"><ele>17.4</ele><time>2022-06-26T06:10:48.000Z</time></trkpt><trkpt lon="5.787817" lat="51.123141"><ele>17.2</ele><time>2022-06-26T06:10:49.000Z</time></trkpt><trkpt lon="5.787975" lat="51.12315"><ele>17</ele><time>2022-06-26T06:10:50.000Z</time></trkpt><trkpt lon="5.788038" lat="51.123157"><ele>17</ele><time>2022-06-26T06:10:51.000Z</time></trkpt><trkpt lon="5.788189" lat="51.12318"><ele>17</ele><time>2022-06-26T06:10:52.000Z</time></trkpt><trkpt lon="5.788247" lat="51.123193"><ele>17</ele><time>2022-06-26T06:10:53.000Z</time></trkpt><trkpt lon="5.788379" lat="51.123225"><ele>17</ele><time>2022-06-26T06:10:54.000Z</time></trkpt><trkpt lon="5.788437" lat="51.123241"><ele>17</ele><time>2022-06-26T06:10:55.000Z</time></trkpt><trkpt lon="5.788479" lat="51.123252"><ele>16.8</ele><time>2022-06-26T06:10:56.000Z</time></trkpt><trkpt lon="5.788605" lat="51.123286"><ele>16.8</ele><time>2022-06-26T06:10:57.000Z</time></trkpt><trkpt lon="5.788732" lat="51.123321"><ele>16.8</ele><time>2022-06-26T06:10:58.000Z</time></trkpt><trkpt lon="5.788814" lat="51.123342"><ele>16.8</ele><time>2022-06-26T06:10:59.000Z</time></trkpt><trkpt lon="5.788903" lat="51.123366"><ele>16.8</ele><time>2022-06-26T06:11:00.000Z</time></trkpt><trkpt lon="5.788964" lat="51.123381"><ele>16.8</ele><time>2022-06-26T06:11:01.000Z</time></trkpt><trkpt lon="5.789014" lat="51.123388"><ele>16.8</ele><time>2022-06-26T06:11:02.000Z</time></trkpt><trkpt lon="5.789086" lat="51.123382"><ele>16.8</ele><time>2022-06-26T06:11:03.000Z</time></trkpt><trkpt lon="5.789112" lat="51.123363"><ele>16.6</ele><time>2022-06-26T06:11:04.000Z</time></trkpt><trkpt lon="5.789117" lat="51.123337"><ele>16.4</ele><time>2022-06-26T06:11:05.000Z</time></trkpt><trkpt lon="5.789099" lat="51.123318"><ele>16.4</ele><time>2022-06-26T06:11:06.000Z</time></trkpt><trkpt lon="5.789048" lat="51.123257"><ele>16.4</ele><time>2022-06-26T06:11:07.000Z</time></trkpt><trkpt lon="5.789025" lat="51.12322"><ele>16.4</ele><time>2022-06-26T06:11:08.000Z</time></trkpt><trkpt lon="5.788972" lat="51.123119"><ele>16.4</ele><time>2022-06-26T06:11:09.000Z</time></trkpt><trkpt lon="5.788962" lat="51.123091"><ele>16.4</ele><time>2022-06-26T06:11:10.000Z</time></trkpt><trkpt lon="5.788953" lat="51.123063"><ele>16.4</ele><time>2022-06-26T06:11:11.000Z</time></trkpt><trkpt lon="5.788947" lat="51.122965"><ele>16.6</ele><time>2022-06-26T06:11:12.000Z</time></trkpt><trkpt lon="5.788942" lat="51.122867"><ele>16.6</ele><time>2022-06-26T06:11:13.000Z</time></trkpt><trkpt lon="5.788947" lat="51.12276"><ele>16.6</ele><time>2022-06-26T06:11:14.000Z</time></trkpt><trkpt lon="5.788945" lat="51.122731"><ele>16.6</ele><time>2022-06-26T06:11:15.000Z</time></trkpt><trkpt lon="5.788944" lat="51.122701"><ele>16.4</ele><time>2022-06-26T06:11:16.000Z</time></trkpt><trkpt lon="5.788921" lat="51.122602"><ele>16.4</ele><time>2022-06-26T06:11:17.000Z</time></trkpt><trkpt lon="5.788899" lat="51.122502"><ele>16.4</ele><time>2022-06-26T06:11:18.000Z</time></trkpt><trkpt lon="5.788882" lat="51.122457"><ele>16.6</ele><time>2022-06-26T06:11:19.000Z</time></trkpt><trkpt lon="5.788828" lat="51.122329"><ele>16.6</ele><time>2022-06-26T06:11:20.000Z</time></trkpt><trkpt lon="5.788793" lat="51.122263"><ele>16.6</ele><time>2022-06-26T06:11:21.000Z</time></trkpt><trkpt lon="5.788758" lat="51.122198"><ele>16.6</ele><time>2022-06-26T06:11:22.000Z</time></trkpt><trkpt lon="5.788724" lat="51.122135"><ele>16.6</ele><time>2022-06-26T06:11:23.000Z</time></trkpt><trkpt lon="5.788684" lat="51.122066"><ele>16.8</ele><time>2022-06-26T06:11:24.000Z</time></trkpt><trkpt lon="5.788661" lat="51.122026"><ele>16.8</ele><time>2022-06-26T06:11:25.000Z</time></trkpt><trkpt lon="5.788606" lat="51.121942"><ele>17</ele><time>2022-06-26T06:11:26.000Z</time></trkpt><trkpt lon="5.788582" lat="51.121907"><ele>17</ele><time>2022-06-26T06:11:27.000Z</time></trkpt><trkpt lon="5.788532" lat="51.121841"><ele>17.2</ele><time>2022-06-26T06:11:28.000Z</time></trkpt><trkpt lon="5.788496" lat="51.121792"><ele>17.2</ele><time>2022-06-26T06:11:29.000Z</time></trkpt><trkpt lon="5.788475" lat="51.121763"><ele>17.2</ele><time>2022-06-26T06:11:30.000Z</time></trkpt><trkpt lon="5.788407" lat="51.121676"><ele>17.4</ele><time>2022-06-26T06:11:31.000Z</time></trkpt><trkpt lon="5.788338" lat="51.121589"><ele>17.4</ele><time>2022-06-26T06:11:32.000Z</time></trkpt><trkpt lon="5.788273" lat="51.121513"><ele>17.4</ele><time>2022-06-26T06:11:33.000Z</time></trkpt><trkpt lon="5.788246" lat="51.12148"><ele>17.4</ele><time>2022-06-26T06:11:34.000Z</time></trkpt><trkpt lon="5.788193" lat="51.121417"><ele>17.4</ele><time>2022-06-26T06:11:35.000Z</time></trkpt><trkpt lon="5.788157" lat="51.121373"><ele>17.4</ele><time>2022-06-26T06:11:36.000Z</time></trkpt><trkpt lon="5.788137" lat="51.12135"><ele>17.4</ele><time>2022-06-26T06:11:37.000Z</time></trkpt><trkpt lon="5.788073" lat="51.12127"><ele>17.6</ele><time>2022-06-26T06:11:38.000Z</time></trkpt><trkpt lon="5.78801" lat="51.121191"><ele>17.6</ele><time>2022-06-26T06:11:39.000Z</time></trkpt><trkpt lon="5.787985" lat="51.121161"><ele>17.6</ele><time>2022-06-26T06:11:40.000Z</time></trkpt><trkpt lon="5.787891" lat="51.121047"><ele>17.6</ele><time>2022-06-26T06:11:41.000Z</time></trkpt><trkpt lon="5.787855" lat="51.120998"><ele>17.6</ele><time>2022-06-26T06:11:42.000Z</time></trkpt><trkpt lon="5.787798" lat="51.120921"><ele>17.6</ele><time>2022-06-26T06:11:43.000Z</time></trkpt><trkpt lon="5.787771" lat="51.120888"><ele>17.6</ele><time>2022-06-26T06:11:44.000Z</time></trkpt><trkpt lon="5.787719" lat="51.120812"><ele>17.6</ele><time>2022-06-26T06:11:45.000Z</time></trkpt><trkpt lon="5.787697" lat="51.120778"><ele>17.6</ele><time>2022-06-26T06:11:46.000Z</time></trkpt><trkpt lon="5.78768" lat="51.120751"><ele>17.6</ele><time>2022-06-26T06:11:47.000Z</time></trkpt><trkpt lon="5.787629" lat="51.120668"><ele>17.6</ele><time>2022-06-26T06:11:48.000Z</time></trkpt><trkpt lon="5.787578" lat="51.120585"><ele>17.6</ele><time>2022-06-26T06:11:49.000Z</time></trkpt><trkpt lon="5.787531" lat="51.120505"><ele>17.4</ele><time>2022-06-26T06:11:50.000Z</time></trkpt><trkpt lon="5.787511" lat="51.120469"><ele>17.4</ele><time>2022-06-26T06:11:51.000Z</time></trkpt><trkpt lon="5.787496" lat="51.120443"><ele>17.4</ele><time>2022-06-26T06:11:52.000Z</time></trkpt><trkpt lon="5.787435" lat="51.120336"><ele>17.2</ele><time>2022-06-26T06:11:53.000Z</time></trkpt><trkpt lon="5.787395" lat="51.120264"><ele>17.2</ele><time>2022-06-26T06:11:54.000Z</time></trkpt><trkpt lon="5.787342" lat="51.120167"><ele>17.2</ele><time>2022-06-26T06:11:55.000Z</time></trkpt><trkpt lon="5.787327" lat="51.120141"><ele>17.2</ele><time>2022-06-26T06:11:56.000Z</time></trkpt><trkpt lon="5.787313" lat="51.120116"><ele>17</ele><time>2022-06-26T06:11:57.000Z</time></trkpt><trkpt lon="5.787267" lat="51.120033"><ele>17</ele><time>2022-06-26T06:11:58.000Z</time></trkpt><trkpt lon="5.787221" lat="51.11995"><ele>17</ele><time>2022-06-26T06:11:59.000Z</time></trkpt><trkpt lon="5.787205" lat="51.119922"><ele>17</ele><time>2022-06-26T06:12:00.000Z</time></trkpt><trkpt lon="5.787156" lat="51.119834"><ele>17.2</ele><time>2022-06-26T06:12:01.000Z</time></trkpt><trkpt lon="5.787106" lat="51.119746"><ele>17.2</ele><time>2022-06-26T06:12:02.000Z</time></trkpt><trkpt lon="5.787065" lat="51.119663"><ele>17</ele><time>2022-06-26T06:12:03.000Z</time></trkpt><trkpt lon="5.787044" lat="51.119621"><ele>17</ele><time>2022-06-26T06:12:04.000Z</time></trkpt><trkpt lon="5.787002" lat="51.119538"><ele>17</ele><time>2022-06-26T06:12:05.000Z</time></trkpt><trkpt lon="5.786986" lat="51.119502"><ele>16.8</ele><time>2022-06-26T06:12:06.000Z</time></trkpt><trkpt lon="5.78697" lat="51.11947"><ele>16.8</ele><time>2022-06-26T06:12:07.000Z</time></trkpt><trkpt lon="5.786911" lat="51.119343"><ele>16.8</ele><time>2022-06-26T06:12:08.000Z</time></trkpt><trkpt lon="5.786896" lat="51.119307"><ele>16.8</ele><time>2022-06-26T06:12:09.000Z</time></trkpt><trkpt lon="5.786855" lat="51.119213"><ele>16.6</ele><time>2022-06-26T06:12:10.000Z</time></trkpt><trkpt lon="5.786838" lat="51.119176"><ele>16.6</ele><time>2022-06-26T06:12:11.000Z</time></trkpt><trkpt lon="5.786798" lat="51.119087"><ele>16.6</ele><time>2022-06-26T06:12:12.000Z</time></trkpt><trkpt lon="5.786786" lat="51.119059"><ele>16.4</ele><time>2022-06-26T06:12:13.000Z</time></trkpt><trkpt lon="5.786773" lat="51.11903"><ele>16.4</ele><time>2022-06-26T06:12:14.000Z</time></trkpt><trkpt lon="5.786743" lat="51.118945"><ele>16.2</ele><time>2022-06-26T06:12:15.000Z</time></trkpt><trkpt lon="5.786713" lat="51.11886"><ele>16.2</ele><time>2022-06-26T06:12:16.000Z</time></trkpt><trkpt lon="5.786705" lat="51.118828"><ele>16.4</ele><time>2022-06-26T06:12:17.000Z</time></trkpt><trkpt lon="5.786707" lat="51.118734"><ele>16.4</ele><time>2022-06-26T06:12:18.000Z</time></trkpt><trkpt lon="5.78671" lat="51.11864"><ele>16.4</ele><time>2022-06-26T06:12:19.000Z</time></trkpt><trkpt lon="5.786733" lat="51.11856"><ele>16.4</ele><time>2022-06-26T06:12:20.000Z</time></trkpt><trkpt lon="5.786751" lat="51.118523"><ele>16.4</ele><time>2022-06-26T06:12:21.000Z</time></trkpt><trkpt lon="5.786802" lat="51.11843"><ele>16.4</ele><time>2022-06-26T06:12:22.000Z</time></trkpt><trkpt lon="5.786827" lat="51.118396"><ele>16.4</ele><time>2022-06-26T06:12:23.000Z</time></trkpt><trkpt lon="5.786884" lat="51.118301"><ele>16.2</ele><time>2022-06-26T06:12:24.000Z</time></trkpt><trkpt lon="5.786902" lat="51.118265"><ele>16.2</ele><time>2022-06-26T06:12:25.000Z</time></trkpt><trkpt lon="5.786933" lat="51.118186"><ele>16</ele><time>2022-06-26T06:12:26.000Z</time></trkpt><trkpt lon="5.786944" lat="51.118134"><ele>15.8</ele><time>2022-06-26T06:12:27.000Z</time></trkpt><trkpt lon="5.786951" lat="51.118067"><ele>15.8</ele><time>2022-06-26T06:12:28.000Z</time></trkpt><trkpt lon="5.786939" lat="51.117968"><ele>15.6</ele><time>2022-06-26T06:12:29.000Z</time></trkpt><trkpt lon="5.786926" lat="51.117904"><ele>15.6</ele><time>2022-06-26T06:12:30.000Z</time></trkpt><trkpt lon="5.786912" lat="51.117848"><ele>15.4</ele><time>2022-06-26T06:12:31.000Z</time></trkpt><trkpt lon="5.786883" lat="51.117747"><ele>15.4</ele><time>2022-06-26T06:12:32.000Z</time></trkpt><trkpt lon="5.786872" lat="51.117707"><ele>15.4</ele><time>2022-06-26T06:12:33.000Z</time></trkpt><trkpt lon="5.786843" lat="51.117611"><ele>15.2</ele><time>2022-06-26T06:12:34.000Z</time></trkpt><trkpt lon="5.786833" lat="51.117578"><ele>15.2</ele><time>2022-06-26T06:12:35.000Z</time></trkpt><trkpt lon="5.786822" lat="51.117546"><ele>15.4</ele><time>2022-06-26T06:12:36.000Z</time></trkpt><trkpt lon="5.786776" lat="51.117419"><ele>15.4</ele><time>2022-06-26T06:12:37.000Z</time></trkpt><trkpt lon="5.78676" lat="51.117372"><ele>15.6</ele><time>2022-06-26T06:12:38.000Z</time></trkpt><trkpt lon="5.78673" lat="51.117287"><ele>15.6</ele><time>2022-06-26T06:12:39.000Z</time></trkpt><trkpt lon="5.786718" lat="51.117255"><ele>15.8</ele><time>2022-06-26T06:12:40.000Z</time></trkpt><trkpt lon="5.786707" lat="51.117224"><ele>15.8</ele><time>2022-06-26T06:12:41.000Z</time></trkpt><trkpt lon="5.786676" lat="51.117134"><ele>16</ele><time>2022-06-26T06:12:42.000Z</time></trkpt><trkpt lon="5.786645" lat="51.117045"><ele>16</ele><time>2022-06-26T06:12:43.000Z</time></trkpt><trkpt lon="5.78662" lat="51.116954"><ele>16</ele><time>2022-06-26T06:12:44.000Z</time></trkpt><trkpt lon="5.786614" lat="51.11692"><ele>16</ele><time>2022-06-26T06:12:45.000Z</time></trkpt><trkpt lon="5.786608" lat="51.116887"><ele>16</ele><time>2022-06-26T06:12:46.000Z</time></trkpt><trkpt lon="5.786601" lat="51.116794"><ele>16</ele><time>2022-06-26T06:12:47.000Z</time></trkpt><trkpt lon="5.786594" lat="51.116701"><ele>16</ele><time>2022-06-26T06:12:48.000Z</time></trkpt><trkpt lon="5.786593" lat="51.116603"><ele>15.8</ele><time>2022-06-26T06:12:49.000Z</time></trkpt><trkpt lon="5.786596" lat="51.116571"><ele>15.8</ele><time>2022-06-26T06:12:50.000Z</time></trkpt><trkpt lon="5.786598" lat="51.116538"><ele>15.8</ele><time>2022-06-26T06:12:51.000Z</time></trkpt><trkpt lon="5.786615" lat="51.116446"><ele>16</ele><time>2022-06-26T06:12:52.000Z</time></trkpt><trkpt lon="5.786632" lat="51.116354"><ele>16</ele><time>2022-06-26T06:12:53.000Z</time></trkpt><trkpt lon="5.786662" lat="51.116264"><ele>16</ele><time>2022-06-26T06:12:54.000Z</time></trkpt><trkpt lon="5.786674" lat="51.116235"><ele>15.8</ele><time>2022-06-26T06:12:55.000Z</time></trkpt><trkpt lon="5.786686" lat="51.116205"><ele>15.8</ele><time>2022-06-26T06:12:56.000Z</time></trkpt><trkpt lon="5.786716" lat="51.11612"><ele>15.8</ele><time>2022-06-26T06:12:57.000Z</time></trkpt><trkpt lon="5.786746" lat="51.116034"><ele>15.8</ele><time>2022-06-26T06:12:58.000Z</time></trkpt><trkpt lon="5.786775" lat="51.115942"><ele>15.8</ele><time>2022-06-26T06:12:59.000Z</time></trkpt><trkpt lon="5.786789" lat="51.115901"><ele>16</ele><time>2022-06-26T06:13:00.000Z</time></trkpt><trkpt lon="5.786819" lat="51.115816"><ele>15.8</ele><time>2022-06-26T06:13:01.000Z</time></trkpt><trkpt lon="5.786831" lat="51.115777"><ele>15.8</ele><time>2022-06-26T06:13:02.000Z</time></trkpt><trkpt lon="5.786839" lat="51.11575"><ele>15.8</ele><time>2022-06-26T06:13:03.000Z</time></trkpt><trkpt lon="5.786859" lat="51.115658"><ele>15.8</ele><time>2022-06-26T06:13:04.000Z</time></trkpt><trkpt lon="5.786878" lat="51.115565"><ele>16</ele><time>2022-06-26T06:13:05.000Z</time></trkpt><trkpt lon="5.786893" lat="51.115462"><ele>16.2</ele><time>2022-06-26T06:13:06.000Z</time></trkpt><trkpt lon="5.786897" lat="51.115428"><ele>16.2</ele><time>2022-06-26T06:13:07.000Z</time></trkpt><trkpt lon="5.786905" lat="51.115329"><ele>16.2</ele><time>2022-06-26T06:13:08.000Z</time></trkpt><trkpt lon="5.786907" lat="51.115299"><ele>16.2</ele><time>2022-06-26T06:13:09.000Z</time></trkpt><trkpt lon="5.786909" lat="51.115269"><ele>16.2</ele><time>2022-06-26T06:13:10.000Z</time></trkpt><trkpt lon="5.786911" lat="51.115172"><ele>16.2</ele><time>2022-06-26T06:13:11.000Z</time></trkpt><trkpt lon="5.786912" lat="51.115075"><ele>16.2</ele><time>2022-06-26T06:13:12.000Z</time></trkpt><trkpt lon="5.786911" lat="51.114971"><ele>16.2</ele><time>2022-06-26T06:13:13.000Z</time></trkpt><trkpt lon="5.78691" lat="51.114941"><ele>16.2</ele><time>2022-06-26T06:13:14.000Z</time></trkpt><trkpt lon="5.786909" lat="51.114912"><ele>16.2</ele><time>2022-06-26T06:13:15.000Z</time></trkpt><trkpt lon="5.786904" lat="51.114819"><ele>16.2</ele><time>2022-06-26T06:13:16.000Z</time></trkpt><trkpt lon="5.7869" lat="51.114726"><ele>16.2</ele><time>2022-06-26T06:13:17.000Z</time></trkpt><trkpt lon="5.786897" lat="51.114632"><ele>16.4</ele><time>2022-06-26T06:13:18.000Z</time></trkpt><trkpt lon="5.786897" lat="51.114597"><ele>16.4</ele><time>2022-06-26T06:13:19.000Z</time></trkpt><trkpt lon="5.786897" lat="51.114559"><ele>16.4</ele><time>2022-06-26T06:13:20.000Z</time></trkpt><trkpt lon="5.786912" lat="51.114424"><ele>16.6</ele><time>2022-06-26T06:13:21.000Z</time></trkpt><trkpt lon="5.786919" lat="51.114365"><ele>16.8</ele><time>2022-06-26T06:13:22.000Z</time></trkpt><trkpt lon="5.786925" lat="51.114284"><ele>17</ele><time>2022-06-26T06:13:23.000Z</time></trkpt><trkpt lon="5.786927" lat="51.114237"><ele>17.2</ele><time>2022-06-26T06:13:24.000Z</time></trkpt><trkpt lon="5.786927" lat="51.114136"><ele>17.4</ele><time>2022-06-26T06:13:25.000Z</time></trkpt><trkpt lon="5.786924" lat="51.114103"><ele>17.4</ele><time>2022-06-26T06:13:26.000Z</time></trkpt><trkpt lon="5.786922" lat="51.114071"><ele>17.4</ele><time>2022-06-26T06:13:27.000Z</time></trkpt><trkpt lon="5.786882" lat="51.11396"><ele>17.6</ele><time>2022-06-26T06:13:28.000Z</time></trkpt><trkpt lon="5.786842" lat="51.113849"><ele>17.8</ele><time>2022-06-26T06:13:29.000Z</time></trkpt><trkpt lon="5.786791" lat="51.11378"><ele>17.8</ele><time>2022-06-26T06:13:30.000Z</time></trkpt><trkpt lon="5.786734" lat="51.113718"><ele>18</ele><time>2022-06-26T06:13:31.000Z</time></trkpt><trkpt lon="5.786672" lat="51.113658"><ele>18</ele><time>2022-06-26T06:13:32.000Z</time></trkpt><trkpt lon="5.786622" lat="51.113616"><ele>18.2</ele><time>2022-06-26T06:13:33.000Z</time></trkpt><trkpt lon="5.786535" lat="51.113539"><ele>18.2</ele><time>2022-06-26T06:13:34.000Z</time></trkpt><trkpt lon="5.786483" lat="51.113493"><ele>18.4</ele><time>2022-06-26T06:13:35.000Z</time></trkpt><trkpt lon="5.786404" lat="51.113429"><ele>18.4</ele><time>2022-06-26T06:13:36.000Z</time></trkpt><trkpt lon="5.78634" lat="51.113372"><ele>18.4</ele><time>2022-06-26T06:13:37.000Z</time></trkpt><trkpt lon="5.786272" lat="51.113314"><ele>18.4</ele><time>2022-06-26T06:13:38.000Z</time></trkpt><trkpt lon="5.786212" lat="51.113262"><ele>18.4</ele><time>2022-06-26T06:13:39.000Z</time></trkpt><trkpt lon="5.786144" lat="51.113196"><ele>18.4</ele><time>2022-06-26T06:13:40.000Z</time></trkpt><trkpt lon="5.786092" lat="51.113147"><ele>18.2</ele><time>2022-06-26T06:13:41.000Z</time></trkpt><trkpt lon="5.786034" lat="51.11307"><ele>18.2</ele><time>2022-06-26T06:13:42.000Z</time></trkpt><trkpt lon="5.785998" lat="51.113016"><ele>18.2</ele><time>2022-06-26T06:13:43.000Z</time></trkpt><trkpt lon="5.785953" lat="51.112937"><ele>18.2</ele><time>2022-06-26T06:13:44.000Z</time></trkpt><trkpt lon="5.785927" lat="51.112883"><ele>18.2</ele><time>2022-06-26T06:13:45.000Z</time></trkpt><trkpt lon="5.785884" lat="51.1128"><ele>18.4</ele><time>2022-06-26T06:13:46.000Z</time></trkpt><trkpt lon="5.785858" lat="51.112747"><ele>18.4</ele><time>2022-06-26T06:13:47.000Z</time></trkpt><trkpt lon="5.785816" lat="51.112662"><ele>18.6</ele><time>2022-06-26T06:13:48.000Z</time></trkpt><trkpt lon="5.785785" lat="51.112599"><ele>18.6</ele><time>2022-06-26T06:13:49.000Z</time></trkpt><trkpt lon="5.785751" lat="51.112525"><ele>18.4</ele><time>2022-06-26T06:13:50.000Z</time></trkpt><trkpt lon="5.785726" lat="51.112473"><ele>18.4</ele><time>2022-06-26T06:13:51.000Z</time></trkpt><trkpt lon="5.785686" lat="51.112387"><ele>18.6</ele><time>2022-06-26T06:13:52.000Z</time></trkpt><trkpt lon="5.785656" lat="51.112322"><ele>18.6</ele><time>2022-06-26T06:13:53.000Z</time></trkpt><trkpt lon="5.785621" lat="51.112254"><ele>18.6</ele><time>2022-06-26T06:13:54.000Z</time></trkpt><trkpt lon="5.785597" lat="51.112201"><ele>18.6</ele><time>2022-06-26T06:13:55.000Z</time></trkpt><trkpt lon="5.785559" lat="51.112124"><ele>18.8</ele><time>2022-06-26T06:13:56.000Z</time></trkpt><trkpt lon="5.785528" lat="51.11206"><ele>18.6</ele><time>2022-06-26T06:13:57.000Z</time></trkpt><trkpt lon="5.785493" lat="51.111995"><ele>18.6</ele><time>2022-06-26T06:13:58.000Z</time></trkpt><trkpt lon="5.785465" lat="51.11195"><ele>18.4</ele><time>2022-06-26T06:13:59.000Z</time></trkpt><trkpt lon="5.785404" lat="51.111869"><ele>18.6</ele><time>2022-06-26T06:14:00.000Z</time></trkpt><trkpt lon="5.785358" lat="51.111815"><ele>18.6</ele><time>2022-06-26T06:14:01.000Z</time></trkpt><trkpt lon="5.785291" lat="51.111747"><ele>18.6</ele><time>2022-06-26T06:14:02.000Z</time></trkpt><trkpt lon="5.785239" lat="51.111692"><ele>18.6</ele><time>2022-06-26T06:14:03.000Z</time></trkpt><trkpt lon="5.785174" lat="51.111629"><ele>18.6</ele><time>2022-06-26T06:14:04.000Z</time></trkpt><trkpt lon="5.785113" lat="51.111569"><ele>18.4</ele><time>2022-06-26T06:14:05.000Z</time></trkpt><trkpt lon="5.785045" lat="51.111503"><ele>18.4</ele><time>2022-06-26T06:14:06.000Z</time></trkpt><trkpt lon="5.785002" lat="51.111459"><ele>18.4</ele><time>2022-06-26T06:14:07.000Z</time></trkpt><trkpt lon="5.784922" lat="51.11138"><ele>18.2</ele><time>2022-06-26T06:14:08.000Z</time></trkpt><trkpt lon="5.784872" lat="51.111331"><ele>18.2</ele><time>2022-06-26T06:14:09.000Z</time></trkpt><trkpt lon="5.7848" lat="51.111262"><ele>18</ele><time>2022-06-26T06:14:10.000Z</time></trkpt><trkpt lon="5.784757" lat="51.111215"><ele>17.8</ele><time>2022-06-26T06:14:11.000Z</time></trkpt><trkpt lon="5.784682" lat="51.11114"><ele>17.6</ele><time>2022-06-26T06:14:12.000Z</time></trkpt><trkpt lon="5.784646" lat="51.111099"><ele>17.6</ele><time>2022-06-26T06:14:13.000Z</time></trkpt><trkpt lon="5.784577" lat="51.111015"><ele>17.8</ele><time>2022-06-26T06:14:14.000Z</time></trkpt><trkpt lon="5.784534" lat="51.110962"><ele>17.8</ele><time>2022-06-26T06:14:15.000Z</time></trkpt><trkpt lon="5.784471" lat="51.110888"><ele>17.8</ele><time>2022-06-26T06:14:16.000Z</time></trkpt><trkpt lon="5.784423" lat="51.110834"><ele>17.8</ele><time>2022-06-26T06:14:17.000Z</time></trkpt><trkpt lon="5.784364" lat="51.110766"><ele>17.8</ele><time>2022-06-26T06:14:18.000Z</time></trkpt><trkpt lon="5.784327" lat="51.110722"><ele>18</ele><time>2022-06-26T06:14:19.000Z</time></trkpt><trkpt lon="5.784264" lat="51.11064"><ele>18</ele><time>2022-06-26T06:14:20.000Z</time></trkpt><trkpt lon="5.78422" lat="51.110585"><ele>18</ele><time>2022-06-26T06:14:21.000Z</time></trkpt><trkpt lon="5.784163" lat="51.110518"><ele>18</ele><time>2022-06-26T06:14:22.000Z</time></trkpt><trkpt lon="5.784125" lat="51.110474"><ele>18</ele><time>2022-06-26T06:14:23.000Z</time></trkpt><trkpt lon="5.784061" lat="51.110393"><ele>18</ele><time>2022-06-26T06:14:24.000Z</time></trkpt><trkpt lon="5.784019" lat="51.110339"><ele>18</ele><time>2022-06-26T06:14:25.000Z</time></trkpt><trkpt lon="5.783964" lat="51.11027"><ele>18</ele><time>2022-06-26T06:14:26.000Z</time></trkpt><trkpt lon="5.783926" lat="51.110221"><ele>18</ele><time>2022-06-26T06:14:27.000Z</time></trkpt><trkpt lon="5.783866" lat="51.110141"><ele>18</ele><time>2022-06-26T06:14:28.000Z</time></trkpt><trkpt lon="5.783835" lat="51.110096"><ele>18</ele><time>2022-06-26T06:14:29.000Z</time></trkpt><trkpt lon="5.783779" lat="51.110007"><ele>18</ele><time>2022-06-26T06:14:30.000Z</time></trkpt><trkpt lon="5.783747" lat="51.109951"><ele>18</ele><time>2022-06-26T06:14:31.000Z</time></trkpt><trkpt lon="5.783708" lat="51.109874"><ele>18</ele><time>2022-06-26T06:14:32.000Z</time></trkpt><trkpt lon="5.783684" lat="51.109827"><ele>18</ele><time>2022-06-26T06:14:33.000Z</time></trkpt><trkpt lon="5.78364" lat="51.109737"><ele>18</ele><time>2022-06-26T06:14:34.000Z</time></trkpt><trkpt lon="5.783612" lat="51.109674"><ele>18</ele><time>2022-06-26T06:14:35.000Z</time></trkpt><trkpt lon="5.783576" lat="51.109599"><ele>18</ele><time>2022-06-26T06:14:36.000Z</time></trkpt><trkpt lon="5.783548" lat="51.109542"><ele>18.2</ele><time>2022-06-26T06:14:37.000Z</time></trkpt><trkpt lon="5.783508" lat="51.109457"><ele>18.2</ele><time>2022-06-26T06:14:38.000Z</time></trkpt><trkpt lon="5.783482" lat="51.109403"><ele>18</ele><time>2022-06-26T06:14:39.000Z</time></trkpt><trkpt lon="5.783444" lat="51.109328"><ele>18</ele><time>2022-06-26T06:14:40.000Z</time></trkpt><trkpt lon="5.783416" lat="51.10928"><ele>18</ele><time>2022-06-26T06:14:41.000Z</time></trkpt><trkpt lon="5.783371" lat="51.109202"><ele>18</ele><time>2022-06-26T06:14:42.000Z</time></trkpt><trkpt lon="5.783337" lat="51.109147"><ele>18</ele><time>2022-06-26T06:14:43.000Z</time></trkpt><trkpt lon="5.783293" lat="51.109076"><ele>18</ele><time>2022-06-26T06:14:44.000Z</time></trkpt><trkpt lon="5.783263" lat="51.109029"><ele>17.8</ele><time>2022-06-26T06:14:45.000Z</time></trkpt><trkpt lon="5.783211" lat="51.108947"><ele>17.8</ele><time>2022-06-26T06:14:46.000Z</time></trkpt><trkpt lon="5.783178" lat="51.108897"><ele>17.8</ele><time>2022-06-26T06:14:47.000Z</time></trkpt><trkpt lon="5.783121" lat="51.108817"><ele>17.6</ele><time>2022-06-26T06:14:48.000Z</time></trkpt><trkpt lon="5.783093" lat="51.108774"><ele>17.8</ele><time>2022-06-26T06:14:49.000Z</time></trkpt><trkpt lon="5.783031" lat="51.108689"><ele>17.8</ele><time>2022-06-26T06:14:50.000Z</time></trkpt><trkpt lon="5.782994" lat="51.108642"><ele>17.8</ele><time>2022-06-26T06:14:51.000Z</time></trkpt><trkpt lon="5.782941" lat="51.108565"><ele>17.6</ele><time>2022-06-26T06:14:52.000Z</time></trkpt><trkpt lon="5.782908" lat="51.108526"><ele>17.6</ele><time>2022-06-26T06:14:53.000Z</time></trkpt><trkpt lon="5.782842" lat="51.10845"><ele>17.6</ele><time>2022-06-26T06:14:54.000Z</time></trkpt><trkpt lon="5.782801" lat="51.108409"><ele>17.6</ele><time>2022-06-26T06:14:55.000Z</time></trkpt><trkpt lon="5.782743" lat="51.10834"><ele>17.6</ele><time>2022-06-26T06:14:56.000Z</time></trkpt><trkpt lon="5.78272" lat="51.108306"><ele>17.6</ele><time>2022-06-26T06:14:57.000Z</time></trkpt><trkpt lon="5.782667" lat="51.108226"><ele>17.8</ele><time>2022-06-26T06:14:58.000Z</time></trkpt><trkpt lon="5.782639" lat="51.108185"><ele>17.8</ele><time>2022-06-26T06:14:59.000Z</time></trkpt><trkpt lon="5.782586" lat="51.1081"><ele>17.8</ele><time>2022-06-26T06:15:00.000Z</time></trkpt><trkpt lon="5.782565" lat="51.108052"><ele>17.6</ele><time>2022-06-26T06:15:01.000Z</time></trkpt><trkpt lon="5.782538" lat="51.107963"><ele>17.6</ele><time>2022-06-26T06:15:02.000Z</time></trkpt><trkpt lon="5.782534" lat="51.107924"><ele>17.4</ele><time>2022-06-26T06:15:03.000Z</time></trkpt><trkpt lon="5.782525" lat="51.107828"><ele>17.2</ele><time>2022-06-26T06:15:04.000Z</time></trkpt><trkpt lon="5.782525" lat="51.107778"><ele>17</ele><time>2022-06-26T06:15:05.000Z</time></trkpt><trkpt lon="5.78253" lat="51.107684"><ele>16.8</ele><time>2022-06-26T06:15:06.000Z</time></trkpt><trkpt lon="5.782533" lat="51.107642"><ele>16.6</ele><time>2022-06-26T06:15:07.000Z</time></trkpt><trkpt lon="5.782542" lat="51.107543"><ele>16.4</ele><time>2022-06-26T06:15:08.000Z</time></trkpt><trkpt lon="5.782544" lat="51.107493"><ele>16.4</ele><time>2022-06-26T06:15:09.000Z</time></trkpt><trkpt lon="5.78255" lat="51.107398"><ele>16.2</ele><time>2022-06-26T06:15:10.000Z</time></trkpt><trkpt lon="5.782552" lat="51.107358"><ele>16.4</ele><time>2022-06-26T06:15:11.000Z</time></trkpt><trkpt lon="5.78256" lat="51.107253"><ele>16.4</ele><time>2022-06-26T06:15:12.000Z</time></trkpt><trkpt lon="5.782562" lat="51.107202"><ele>16.4</ele><time>2022-06-26T06:15:13.000Z</time></trkpt><trkpt lon="5.782567" lat="51.107104"><ele>16.6</ele><time>2022-06-26T06:15:14.000Z</time></trkpt><trkpt lon="5.782569" lat="51.107063"><ele>16.6</ele><time>2022-06-26T06:15:15.000Z</time></trkpt><trkpt lon="5.78257" lat="51.106966"><ele>16.6</ele><time>2022-06-26T06:15:16.000Z</time></trkpt><trkpt lon="5.782572" lat="51.106918"><ele>16.6</ele><time>2022-06-26T06:15:17.000Z</time></trkpt><trkpt lon="5.782579" lat="51.10683"><ele>16.6</ele><time>2022-06-26T06:15:18.000Z</time></trkpt><trkpt lon="5.782582" lat="51.106794"><ele>16.6</ele><time>2022-06-26T06:15:19.000Z</time></trkpt><trkpt lon="5.782594" lat="51.106707"><ele>16.6</ele><time>2022-06-26T06:15:20.000Z</time></trkpt><trkpt lon="5.782597" lat="51.106664"><ele>16.6</ele><time>2022-06-26T06:15:21.000Z</time></trkpt><trkpt lon="5.782602" lat="51.106574"><ele>16.6</ele><time>2022-06-26T06:15:22.000Z</time></trkpt><trkpt lon="5.782599" lat="51.106534"><ele>16.4</ele><time>2022-06-26T06:15:23.000Z</time></trkpt><trkpt lon="5.782593" lat="51.106448"><ele>16.4</ele><time>2022-06-26T06:15:24.000Z</time></trkpt><trkpt lon="5.782591" lat="51.106407"><ele>16.2</ele><time>2022-06-26T06:15:25.000Z</time></trkpt><trkpt lon="5.782585" lat="51.106303"><ele>16.2</ele><time>2022-06-26T06:15:26.000Z</time></trkpt><trkpt lon="5.78258" lat="51.106262"><ele>16.2</ele><time>2022-06-26T06:15:27.000Z</time></trkpt><trkpt lon="5.782568" lat="51.106154"><ele>16.2</ele><time>2022-06-26T06:15:28.000Z</time></trkpt><trkpt lon="5.782564" lat="51.106109"><ele>16.2</ele><time>2022-06-26T06:15:29.000Z</time></trkpt><trkpt lon="5.782558" lat="51.106002"><ele>16</ele><time>2022-06-26T06:15:30.000Z</time></trkpt><trkpt lon="5.782562" lat="51.105949"><ele>16.2</ele><time>2022-06-26T06:15:31.000Z</time></trkpt><trkpt lon="5.78257" lat="51.105853"><ele>16.2</ele><time>2022-06-26T06:15:32.000Z</time></trkpt><trkpt lon="5.782578" lat="51.105816"><ele>16.2</ele><time>2022-06-26T06:15:33.000Z</time></trkpt><trkpt lon="5.782603" lat="51.105714"><ele>16.4</ele><time>2022-06-26T06:15:34.000Z</time></trkpt><trkpt lon="5.782619" lat="51.105663"><ele>16.2</ele><time>2022-06-26T06:15:35.000Z</time></trkpt><trkpt lon="5.782646" lat="51.105594"><ele>16.4</ele><time>2022-06-26T06:15:36.000Z</time></trkpt><trkpt lon="5.782689" lat="51.105502"><ele>16.6</ele><time>2022-06-26T06:15:37.000Z</time></trkpt><trkpt lon="5.782723" lat="51.105431"><ele>16.6</ele><time>2022-06-26T06:15:38.000Z</time></trkpt><trkpt lon="5.78276" lat="51.105359"><ele>16.8</ele><time>2022-06-26T06:15:39.000Z</time></trkpt><trkpt lon="5.782805" lat="51.105293"><ele>16.8</ele><time>2022-06-26T06:15:40.000Z</time></trkpt><trkpt lon="5.78285" lat="51.105228"><ele>16.8</ele><time>2022-06-26T06:15:41.000Z</time></trkpt><trkpt lon="5.782906" lat="51.105167"><ele>17</ele><time>2022-06-26T06:15:42.000Z</time></trkpt><trkpt lon="5.782971" lat="51.105109"><ele>17</ele><time>2022-06-26T06:15:43.000Z</time></trkpt><trkpt lon="5.783047" lat="51.105055"><ele>17.2</ele><time>2022-06-26T06:15:44.000Z</time></trkpt><trkpt lon="5.783122" lat="51.105003"><ele>17.2</ele><time>2022-06-26T06:15:45.000Z</time></trkpt><trkpt lon="5.783205" lat="51.10496"><ele>17.2</ele><time>2022-06-26T06:15:46.000Z</time></trkpt><trkpt lon="5.783289" lat="51.104916"><ele>17.2</ele><time>2022-06-26T06:15:47.000Z</time></trkpt><trkpt lon="5.783383" lat="51.104869"><ele>17.2</ele><time>2022-06-26T06:15:48.000Z</time></trkpt><trkpt lon="5.78347" lat="51.104831"><ele>17.2</ele><time>2022-06-26T06:15:49.000Z</time></trkpt><trkpt lon="5.783558" lat="51.104794"><ele>17.2</ele><time>2022-06-26T06:15:50.000Z</time></trkpt><trkpt lon="5.78365" lat="51.104751"><ele>17.4</ele><time>2022-06-26T06:15:51.000Z</time></trkpt><trkpt lon="5.783737" lat="51.104716"><ele>17.4</ele><time>2022-06-26T06:15:52.000Z</time></trkpt><trkpt lon="5.783817" lat="51.104679"><ele>17.4</ele><time>2022-06-26T06:15:53.000Z</time></trkpt><trkpt lon="5.783894" lat="51.104645"><ele>17.4</ele><time>2022-06-26T06:15:54.000Z</time></trkpt><trkpt lon="5.783972" lat="51.104615"><ele>17.4</ele><time>2022-06-26T06:15:55.000Z</time></trkpt><trkpt lon="5.784045" lat="51.10458"><ele>17.4</ele><time>2022-06-26T06:15:56.000Z</time></trkpt><trkpt lon="5.784104" lat="51.10454"><ele>17.4</ele><time>2022-06-26T06:15:57.000Z</time></trkpt><trkpt lon="5.78413" lat="51.104491"><ele>17.4</ele><time>2022-06-26T06:15:58.000Z</time></trkpt><trkpt lon="5.784121" lat="51.104438"><ele>17.4</ele><time>2022-06-26T06:15:59.000Z</time></trkpt><trkpt lon="5.784079" lat="51.104376"><ele>17.4</ele><time>2022-06-26T06:16:00.000Z</time></trkpt><trkpt lon="5.784032" lat="51.104315"><ele>17.4</ele><time>2022-06-26T06:16:01.000Z</time></trkpt><trkpt lon="5.783985" lat="51.104262"><ele>17.4</ele><time>2022-06-26T06:16:02.000Z</time></trkpt><trkpt lon="5.783941" lat="51.104209"><ele>17.4</ele><time>2022-06-26T06:16:03.000Z</time></trkpt><trkpt lon="5.783902" lat="51.104159"><ele>17.4</ele><time>2022-06-26T06:16:04.000Z</time></trkpt><trkpt lon="5.783878" lat="51.104102"><ele>17.4</ele><time>2022-06-26T06:16:05.000Z</time></trkpt><trkpt lon="5.783886" lat="51.104052"><ele>17.4</ele><time>2022-06-26T06:16:06.000Z</time></trkpt><trkpt lon="5.783934" lat="51.104003"><ele>17.2</ele><time>2022-06-26T06:16:07.000Z</time></trkpt><trkpt lon="5.784017" lat="51.103969"><ele>17.2</ele><time>2022-06-26T06:16:08.000Z</time></trkpt><trkpt lon="5.784119" lat="51.10395"><ele>17.2</ele><time>2022-06-26T06:16:09.000Z</time></trkpt><trkpt lon="5.784229" lat="51.103943"><ele>17.2</ele><time>2022-06-26T06:16:10.000Z</time></trkpt><trkpt lon="5.784343" lat="51.103943"><ele>17</ele><time>2022-06-26T06:16:11.000Z</time></trkpt><trkpt lon="5.784461" lat="51.103947"><ele>16.8</ele><time>2022-06-26T06:16:12.000Z</time></trkpt><trkpt lon="5.784587" lat="51.103947"><ele>16.4</ele><time>2022-06-26T06:16:13.000Z</time></trkpt><trkpt lon="5.78471" lat="51.103947"><ele>16.4</ele><time>2022-06-26T06:16:14.000Z</time></trkpt><trkpt lon="5.784833" lat="51.103943"><ele>16.4</ele><time>2022-06-26T06:16:15.000Z</time></trkpt><trkpt lon="5.784953" lat="51.103935"><ele>16.2</ele><time>2022-06-26T06:16:16.000Z</time></trkpt><trkpt lon="5.785075" lat="51.103924"><ele>16</ele><time>2022-06-26T06:16:17.000Z</time></trkpt><trkpt lon="5.78518" lat="51.10391"><ele>15.8</ele><time>2022-06-26T06:16:18.000Z</time></trkpt><trkpt lon="5.785311" lat="51.103889"><ele>15.6</ele><time>2022-06-26T06:16:19.000Z</time></trkpt><trkpt lon="5.78543" lat="51.103866"><ele>15.6</ele><time>2022-06-26T06:16:20.000Z</time></trkpt><trkpt lon="5.785546" lat="51.103847"><ele>15.4</ele><time>2022-06-26T06:16:21.000Z</time></trkpt><trkpt lon="5.785659" lat="51.103833"><ele>15.2</ele><time>2022-06-26T06:16:22.000Z</time></trkpt><trkpt lon="5.785784" lat="51.103813"><ele>15.2</ele><time>2022-06-26T06:16:23.000Z</time></trkpt><trkpt lon="5.785905" lat="51.10379"><ele>15.2</ele><time>2022-06-26T06:16:24.000Z</time></trkpt><trkpt lon="5.786026" lat="51.103767"><ele>14.8</ele><time>2022-06-26T06:16:25.000Z</time></trkpt><trkpt lon="5.786133" lat="51.10375"><ele>14.8</ele><time>2022-06-26T06:16:26.000Z</time></trkpt><trkpt lon="5.786265" lat="51.103721"><ele>14.8</ele><time>2022-06-26T06:16:27.000Z</time></trkpt><trkpt lon="5.786376" lat="51.10369"><ele>15</ele><time>2022-06-26T06:16:28.000Z</time></trkpt><trkpt lon="5.786486" lat="51.10366"><ele>15</ele><time>2022-06-26T06:16:29.000Z</time></trkpt><trkpt lon="5.786587" lat="51.103631"><ele>15</ele><time>2022-06-26T06:16:30.000Z</time></trkpt><trkpt lon="5.786697" lat="51.103603"><ele>15</ele><time>2022-06-26T06:16:31.000Z</time></trkpt><trkpt lon="5.786801" lat="51.103576"><ele>15</ele><time>2022-06-26T06:16:32.000Z</time></trkpt><trkpt lon="5.786898" lat="51.103549"><ele>15.2</ele><time>2022-06-26T06:16:33.000Z</time></trkpt><trkpt lon="5.786969" lat="51.103529"><ele>15.2</ele><time>2022-06-26T06:16:34.000Z</time></trkpt><trkpt lon="5.787086" lat="51.103492"><ele>15.2</ele><time>2022-06-26T06:16:35.000Z</time></trkpt><trkpt lon="5.787178" lat="51.103461"><ele>15.2</ele><time>2022-06-26T06:16:36.000Z</time></trkpt><trkpt lon="5.787274" lat="51.103431"><ele>15.2</ele><time>2022-06-26T06:16:37.000Z</time></trkpt><trkpt lon="5.787369" lat="51.103405"><ele>15.2</ele><time>2022-06-26T06:16:38.000Z</time></trkpt><trkpt lon="5.787464" lat="51.103374"><ele>15.2</ele><time>2022-06-26T06:16:39.000Z</time></trkpt><trkpt lon="5.787554" lat="51.103344"><ele>15.2</ele><time>2022-06-26T06:16:40.000Z</time></trkpt><trkpt lon="5.787646" lat="51.103321"><ele>15</ele><time>2022-06-26T06:16:41.000Z</time></trkpt><trkpt lon="5.787715" lat="51.1033"><ele>15</ele><time>2022-06-26T06:16:42.000Z</time></trkpt><trkpt lon="5.787786" lat="51.103271"><ele>15</ele><time>2022-06-26T06:16:43.000Z</time></trkpt><trkpt lon="5.787804" lat="51.10324"><ele>15</ele><time>2022-06-26T06:16:44.000Z</time></trkpt><trkpt lon="5.78778" lat="51.103183"><ele>15</ele><time>2022-06-26T06:16:45.000Z</time></trkpt><trkpt lon="5.787722" lat="51.103133"><ele>15</ele><time>2022-06-26T06:16:46.000Z</time></trkpt><trkpt lon="5.787667" lat="51.10309"><ele>15</ele><time>2022-06-26T06:16:47.000Z</time></trkpt><trkpt lon="5.78759" lat="51.103019"><ele>15</ele><time>2022-06-26T06:16:48.000Z</time></trkpt><trkpt lon="5.787551" lat="51.102971"><ele>15</ele><time>2022-06-26T06:16:49.000Z</time></trkpt><trkpt lon="5.787489" lat="51.10288"><ele>15</ele><time>2022-06-26T06:16:50.000Z</time></trkpt><trkpt lon="5.787451" lat="51.102818"><ele>15.2</ele><time>2022-06-26T06:16:51.000Z</time></trkpt><trkpt lon="5.787415" lat="51.10274"><ele>15.4</ele><time>2022-06-26T06:16:52.000Z</time></trkpt><trkpt lon="5.787397" lat="51.102674"><ele>15.4</ele><time>2022-06-26T06:16:53.000Z</time></trkpt><trkpt lon="5.787397" lat="51.102588"><ele>15.4</ele><time>2022-06-26T06:16:54.000Z</time></trkpt><trkpt lon="5.787407" lat="51.102534"><ele>15.4</ele><time>2022-06-26T06:16:55.000Z</time></trkpt><trkpt lon="5.787424" lat="51.102438"><ele>15.6</ele><time>2022-06-26T06:16:56.000Z</time></trkpt><trkpt lon="5.787441" lat="51.102379"><ele>15.6</ele><time>2022-06-26T06:16:57.000Z</time></trkpt><trkpt lon="5.787467" lat="51.10229"><ele>15.6</ele><time>2022-06-26T06:16:58.000Z</time></trkpt><trkpt lon="5.787483" lat="51.102231"><ele>15.8</ele><time>2022-06-26T06:16:59.000Z</time></trkpt><trkpt lon="5.787505" lat="51.102145"><ele>15.6</ele><time>2022-06-26T06:17:00.000Z</time></trkpt><trkpt lon="5.787518" lat="51.102084"><ele>15.6</ele><time>2022-06-26T06:17:01.000Z</time></trkpt><trkpt lon="5.787533" lat="51.102004"><ele>15.8</ele><time>2022-06-26T06:17:02.000Z</time></trkpt><trkpt lon="5.787544" lat="51.10195"><ele>15.8</ele><time>2022-06-26T06:17:03.000Z</time></trkpt><trkpt lon="5.787557" lat="51.10187"><ele>15.8</ele><time>2022-06-26T06:17:04.000Z</time></trkpt><trkpt lon="5.787566" lat="51.101818"><ele>15.8</ele><time>2022-06-26T06:17:05.000Z</time></trkpt><trkpt lon="5.78758" lat="51.101736"><ele>15.8</ele><time>2022-06-26T06:17:06.000Z</time></trkpt><trkpt lon="5.787589" lat="51.101678"><ele>15.8</ele><time>2022-06-26T06:17:07.000Z</time></trkpt><trkpt lon="5.787602" lat="51.101591"><ele>15.8</ele><time>2022-06-26T06:17:08.000Z</time></trkpt><trkpt lon="5.787611" lat="51.101524"><ele>15.8</ele><time>2022-06-26T06:17:09.000Z</time></trkpt><trkpt lon="5.787624" lat="51.101451"><ele>15.8</ele><time>2022-06-26T06:17:10.000Z</time></trkpt><trkpt lon="5.787637" lat="51.101388"><ele>15.8</ele><time>2022-06-26T06:17:11.000Z</time></trkpt><trkpt lon="5.787661" lat="51.101309"><ele>15.6</ele><time>2022-06-26T06:17:12.000Z</time></trkpt><trkpt lon="5.78768" lat="51.101243"><ele>15.6</ele><time>2022-06-26T06:17:13.000Z</time></trkpt><trkpt lon="5.787695" lat="51.101172"><ele>15.6</ele><time>2022-06-26T06:17:14.000Z</time></trkpt><trkpt lon="5.787708" lat="51.101115"><ele>15.6</ele><time>2022-06-26T06:17:15.000Z</time></trkpt><trkpt lon="5.787725" lat="51.10103"><ele>15.6</ele><time>2022-06-26T06:17:16.000Z</time></trkpt><trkpt lon="5.787744" lat="51.100958"><ele>15.4</ele><time>2022-06-26T06:17:17.000Z</time></trkpt><trkpt lon="5.787759" lat="51.10089"><ele>15.4</ele><time>2022-06-26T06:17:18.000Z</time></trkpt><trkpt lon="5.787771" lat="51.100841"><ele>15.4</ele><time>2022-06-26T06:17:19.000Z</time></trkpt><trkpt lon="5.787789" lat="51.100749"><ele>15.4</ele><time>2022-06-26T06:17:20.000Z</time></trkpt><trkpt lon="5.787802" lat="51.100693"><ele>15.4</ele><time>2022-06-26T06:17:21.000Z</time></trkpt><trkpt lon="5.787822" lat="51.100611"><ele>15.4</ele><time>2022-06-26T06:17:22.000Z</time></trkpt><trkpt lon="5.787837" lat="51.100551"><ele>15.2</ele><time>2022-06-26T06:17:23.000Z</time></trkpt><trkpt lon="5.787857" lat="51.100466"><ele>15.2</ele><time>2022-06-26T06:17:24.000Z</time></trkpt><trkpt lon="5.787867" lat="51.100407"><ele>15.2</ele><time>2022-06-26T06:17:25.000Z</time></trkpt><trkpt lon="5.787883" lat="51.100326"><ele>15.2</ele><time>2022-06-26T06:17:26.000Z</time></trkpt><trkpt lon="5.787896" lat="51.100275"><ele>15.2</ele><time>2022-06-26T06:17:27.000Z</time></trkpt><trkpt lon="5.78792" lat="51.100184"><ele>15.2</ele><time>2022-06-26T06:17:28.000Z</time></trkpt><trkpt lon="5.787936" lat="51.100133"><ele>15.2</ele><time>2022-06-26T06:17:29.000Z</time></trkpt><trkpt lon="5.787955" lat="51.100054"><ele>15.2</ele><time>2022-06-26T06:17:30.000Z</time></trkpt><trkpt lon="5.78797" lat="51.1"><ele>15.4</ele><time>2022-06-26T06:17:31.000Z</time></trkpt><trkpt lon="5.787995" lat="51.099925"><ele>15.4</ele><time>2022-06-26T06:17:32.000Z</time></trkpt><trkpt lon="5.788015" lat="51.099879"><ele>15.4</ele><time>2022-06-26T06:17:33.000Z</time></trkpt><trkpt lon="5.788045" lat="51.099807"><ele>15.4</ele><time>2022-06-26T06:17:34.000Z</time></trkpt><trkpt lon="5.788062" lat="51.099759"><ele>15.4</ele><time>2022-06-26T06:17:35.000Z</time></trkpt><trkpt lon="5.788078" lat="51.099692"><ele>15.6</ele><time>2022-06-26T06:17:36.000Z</time></trkpt><trkpt lon="5.788078" lat="51.099646"><ele>15.6</ele><time>2022-06-26T06:17:37.000Z</time></trkpt><trkpt lon="5.788063" lat="51.099597"><ele>15.6</ele><time>2022-06-26T06:17:38.000Z</time></trkpt><trkpt lon="5.788052" lat="51.09956"><ele>15.6</ele><time>2022-06-26T06:17:39.000Z</time></trkpt><trkpt lon="5.788056" lat="51.099502"><ele>15.6</ele><time>2022-06-26T06:17:40.000Z</time></trkpt><trkpt lon="5.788089" lat="51.09947"><ele>15.6</ele><time>2022-06-26T06:17:41.000Z</time></trkpt><trkpt lon="5.788165" lat="51.099445"><ele>15.6</ele><time>2022-06-26T06:17:42.000Z</time></trkpt><trkpt lon="5.788251" lat="51.099449"><ele>15.6</ele><time>2022-06-26T06:17:43.000Z</time></trkpt><trkpt lon="5.788328" lat="51.099455"><ele>15.4</ele><time>2022-06-26T06:17:44.000Z</time></trkpt><trkpt lon="5.788451" lat="51.099472"><ele>15.4</ele><time>2022-06-26T06:17:45.000Z</time></trkpt><trkpt lon="5.788537" lat="51.099487"><ele>15.4</ele><time>2022-06-26T06:17:46.000Z</time></trkpt><trkpt lon="5.788677" lat="51.099506"><ele>15.2</ele><time>2022-06-26T06:17:47.000Z</time></trkpt><trkpt lon="5.788776" lat="51.099513"><ele>15.2</ele><time>2022-06-26T06:17:48.000Z</time></trkpt><trkpt lon="5.788931" lat="51.099526"><ele>15.2</ele><time>2022-06-26T06:17:49.000Z</time></trkpt><trkpt lon="5.789033" lat="51.099535"><ele>15.2</ele><time>2022-06-26T06:17:50.000Z</time></trkpt><trkpt lon="5.789185" lat="51.099548"><ele>15.2</ele><time>2022-06-26T06:17:51.000Z</time></trkpt><trkpt lon="5.789285" lat="51.099555"><ele>15</ele><time>2022-06-26T06:17:52.000Z</time></trkpt><trkpt lon="5.789439" lat="51.099568"><ele>15</ele><time>2022-06-26T06:17:53.000Z</time></trkpt><trkpt lon="5.789542" lat="51.099577"><ele>15</ele><time>2022-06-26T06:17:54.000Z</time></trkpt><trkpt lon="5.789695" lat="51.099587"><ele>15</ele><time>2022-06-26T06:17:55.000Z</time></trkpt><trkpt lon="5.789787" lat="51.099592"><ele>15</ele><time>2022-06-26T06:17:56.000Z</time></trkpt><trkpt lon="5.789953" lat="51.099602"><ele>15</ele><time>2022-06-26T06:17:57.000Z</time></trkpt><trkpt lon="5.79004" lat="51.099605"><ele>15</ele><time>2022-06-26T06:17:58.000Z</time></trkpt><trkpt lon="5.790193" lat="51.099609"><ele>15</ele><time>2022-06-26T06:17:59.000Z</time></trkpt><trkpt lon="5.790301" lat="51.099609"><ele>15.2</ele><time>2022-06-26T06:18:00.000Z</time></trkpt><trkpt lon="5.790422" lat="51.099613"><ele>15.2</ele><time>2022-06-26T06:18:01.000Z</time></trkpt><trkpt lon="5.79051" lat="51.099613"><ele>15.2</ele><time>2022-06-26T06:18:02.000Z</time></trkpt><trkpt lon="5.790658" lat="51.099617"><ele>15.2</ele><time>2022-06-26T06:18:03.000Z</time></trkpt><trkpt lon="5.790753" lat="51.099617"><ele>15</ele><time>2022-06-26T06:18:04.000Z</time></trkpt><trkpt lon="5.790892" lat="51.099617"><ele>15</ele><time>2022-06-26T06:18:05.000Z</time></trkpt><trkpt lon="5.790985" lat="51.099617"><ele>15</ele><time>2022-06-26T06:18:06.000Z</time></trkpt><trkpt lon="5.79113" lat="51.099613"><ele>15</ele><time>2022-06-26T06:18:07.000Z</time></trkpt><trkpt lon="5.791221" lat="51.09961"><ele>15.2</ele><time>2022-06-26T06:18:08.000Z</time></trkpt><trkpt lon="5.791368" lat="51.099605"><ele>15.2</ele><time>2022-06-26T06:18:09.000Z</time></trkpt><trkpt lon="5.791471" lat="51.099602"><ele>15.2</ele><time>2022-06-26T06:18:10.000Z</time></trkpt><trkpt lon="5.791605" lat="51.099602"><ele>15.2</ele><time>2022-06-26T06:18:11.000Z</time></trkpt><trkpt lon="5.791701" lat="51.099595"><ele>15.2</ele><time>2022-06-26T06:18:12.000Z</time></trkpt><trkpt lon="5.79183" lat="51.099586"><ele>15.2</ele><time>2022-06-26T06:18:13.000Z</time></trkpt><trkpt lon="5.791912" lat="51.099581"><ele>15.2</ele><time>2022-06-26T06:18:14.000Z</time></trkpt><trkpt lon="5.792054" lat="51.099575"><ele>15.2</ele><time>2022-06-26T06:18:15.000Z</time></trkpt><trkpt lon="5.792131" lat="51.099567"><ele>15.4</ele><time>2022-06-26T06:18:16.000Z</time></trkpt><trkpt lon="5.792277" lat="51.099556"><ele>15.4</ele><time>2022-06-26T06:18:17.000Z</time></trkpt><trkpt lon="5.79236" lat="51.09955"><ele>15.4</ele><time>2022-06-26T06:18:18.000Z</time></trkpt><trkpt lon="5.792504" lat="51.099541"><ele>15.4</ele><time>2022-06-26T06:18:19.000Z</time></trkpt><trkpt lon="5.792584" lat="51.099535"><ele>15.4</ele><time>2022-06-26T06:18:20.000Z</time></trkpt><trkpt lon="5.792734" lat="51.099521"><ele>15.4</ele><time>2022-06-26T06:18:21.000Z</time></trkpt><trkpt lon="5.792817" lat="51.09951"><ele>15.2</ele><time>2022-06-26T06:18:22.000Z</time></trkpt><trkpt lon="5.792964" lat="51.099495"><ele>15.2</ele><time>2022-06-26T06:18:23.000Z</time></trkpt><trkpt lon="5.793051" lat="51.099483"><ele>15.2</ele><time>2022-06-26T06:18:24.000Z</time></trkpt><trkpt lon="5.793199" lat="51.099464"><ele>15</ele><time>2022-06-26T06:18:25.000Z</time></trkpt><trkpt lon="5.793301" lat="51.099447"><ele>14.6</ele><time>2022-06-26T06:18:26.000Z</time></trkpt><trkpt lon="5.79343" lat="51.09943"><ele>14.6</ele><time>2022-06-26T06:18:27.000Z</time></trkpt><trkpt lon="5.793502" lat="51.099418"><ele>14.6</ele><time>2022-06-26T06:18:28.000Z</time></trkpt><trkpt lon="5.793657" lat="51.099392"><ele>14.6</ele><time>2022-06-26T06:18:29.000Z</time></trkpt><trkpt lon="5.793738" lat="51.099378"><ele>14.8</ele><time>2022-06-26T06:18:30.000Z</time></trkpt><trkpt lon="5.793879" lat="51.09935"><ele>14.8</ele><time>2022-06-26T06:18:31.000Z</time></trkpt><trkpt lon="5.793954" lat="51.099336"><ele>14.8</ele><time>2022-06-26T06:18:32.000Z</time></trkpt><trkpt lon="5.794091" lat="51.099312"><ele>15</ele><time>2022-06-26T06:18:33.000Z</time></trkpt><trkpt lon="5.794158" lat="51.0993"><ele>15</ele><time>2022-06-26T06:18:34.000Z</time></trkpt><trkpt lon="5.794309" lat="51.099269"><ele>15</ele><time>2022-06-26T06:18:35.000Z</time></trkpt><trkpt lon="5.794384" lat="51.099254"><ele>14.8</ele><time>2022-06-26T06:18:36.000Z</time></trkpt><trkpt lon="5.794532" lat="51.099224"><ele>14.8</ele><time>2022-06-26T06:18:37.000Z</time></trkpt><trkpt lon="5.794616" lat="51.099206"><ele>14.8</ele><time>2022-06-26T06:18:38.000Z</time></trkpt><trkpt lon="5.794754" lat="51.099174"><ele>14.8</ele><time>2022-06-26T06:18:39.000Z</time></trkpt><trkpt lon="5.794838" lat="51.099154"><ele>14.8</ele><time>2022-06-26T06:18:40.000Z</time></trkpt><trkpt lon="5.794973" lat="51.099121"><ele>15</ele><time>2022-06-26T06:18:41.000Z</time></trkpt><trkpt lon="5.795059" lat="51.0991"><ele>15</ele><time>2022-06-26T06:18:42.000Z</time></trkpt><trkpt lon="5.795188" lat="51.099071"><ele>15</ele><time>2022-06-26T06:18:43.000Z</time></trkpt><trkpt lon="5.795258" lat="51.099053"><ele>15</ele><time>2022-06-26T06:18:44.000Z</time></trkpt><trkpt lon="5.795393" lat="51.099018"><ele>15.2</ele><time>2022-06-26T06:18:45.000Z</time></trkpt><trkpt lon="5.795451" lat="51.099004"><ele>15.2</ele><time>2022-06-26T06:18:46.000Z</time></trkpt><trkpt lon="5.795578" lat="51.098976"><ele>15.4</ele><time>2022-06-26T06:18:47.000Z</time></trkpt><trkpt lon="5.795634" lat="51.098963"><ele>15.6</ele><time>2022-06-26T06:18:48.000Z</time></trkpt><trkpt lon="5.795742" lat="51.098938"><ele>15.6</ele><time>2022-06-26T06:18:49.000Z</time></trkpt><trkpt lon="5.7958" lat="51.098918"><ele>15.8</ele><time>2022-06-26T06:18:50.000Z</time></trkpt><trkpt lon="5.795907" lat="51.098884"><ele>15.6</ele><time>2022-06-26T06:18:51.000Z</time></trkpt><trkpt lon="5.795966" lat="51.098869"><ele>15.4</ele><time>2022-06-26T06:18:52.000Z</time></trkpt><trkpt lon="5.7961" lat="51.098846"><ele>15.4</ele><time>2022-06-26T06:18:53.000Z</time></trkpt><trkpt lon="5.796168" lat="51.098844"><ele>15.4</ele><time>2022-06-26T06:18:54.000Z</time></trkpt><trkpt lon="5.796332" lat="51.098846"><ele>15.6</ele><time>2022-06-26T06:18:55.000Z</time></trkpt><trkpt lon="5.796419" lat="51.098846"><ele>15.6</ele><time>2022-06-26T06:18:56.000Z</time></trkpt><trkpt lon="5.79657" lat="51.098835"><ele>15.8</ele><time>2022-06-26T06:18:57.000Z</time></trkpt><trkpt lon="5.796648" lat="51.098817"><ele>15.8</ele><time>2022-06-26T06:18:58.000Z</time></trkpt><trkpt lon="5.796812" lat="51.098777"><ele>15.8</ele><time>2022-06-26T06:18:59.000Z</time></trkpt><trkpt lon="5.796881" lat="51.098757"><ele>15.8</ele><time>2022-06-26T06:19:00.000Z</time></trkpt><trkpt lon="5.79704" lat="51.098705"><ele>15.8</ele><time>2022-06-26T06:19:01.000Z</time></trkpt><trkpt lon="5.797112" lat="51.098682"><ele>15.8</ele><time>2022-06-26T06:19:02.000Z</time></trkpt><trkpt lon="5.797254" lat="51.098632"><ele>15.8</ele><time>2022-06-26T06:19:03.000Z</time></trkpt><trkpt lon="5.797312" lat="51.098611"><ele>15.8</ele><time>2022-06-26T06:19:04.000Z</time></trkpt><trkpt lon="5.797455" lat="51.098548"><ele>15.8</ele><time>2022-06-26T06:19:05.000Z</time></trkpt><trkpt lon="5.797513" lat="51.098519"><ele>15.6</ele><time>2022-06-26T06:19:06.000Z</time></trkpt><trkpt lon="5.797641" lat="51.098461"><ele>15.2</ele><time>2022-06-26T06:19:07.000Z</time></trkpt><trkpt lon="5.797693" lat="51.098433"><ele>15.2</ele><time>2022-06-26T06:19:08.000Z</time></trkpt><trkpt lon="5.797811" lat="51.098365"><ele>15.2</ele><time>2022-06-26T06:19:09.000Z</time></trkpt><trkpt lon="5.79786" lat="51.098333"><ele>15</ele><time>2022-06-26T06:19:10.000Z</time></trkpt><trkpt lon="5.797967" lat="51.098258"><ele>15.2</ele><time>2022-06-26T06:19:11.000Z</time></trkpt><trkpt lon="5.798014" lat="51.098228"><ele>15.2</ele><time>2022-06-26T06:19:12.000Z</time></trkpt><trkpt lon="5.798114" lat="51.098155"><ele>15.4</ele><time>2022-06-26T06:19:13.000Z</time></trkpt><trkpt lon="5.79816" lat="51.09812"><ele>15.4</ele><time>2022-06-26T06:19:14.000Z</time></trkpt><trkpt lon="5.798268" lat="51.098044"><ele>15.2</ele><time>2022-06-26T06:19:15.000Z</time></trkpt><trkpt lon="5.79832" lat="51.098007"><ele>15</ele><time>2022-06-26T06:19:16.000Z</time></trkpt><trkpt lon="5.798424" lat="51.097934"><ele>15</ele><time>2022-06-26T06:19:17.000Z</time></trkpt><trkpt lon="5.798472" lat="51.097897"><ele>15</ele><time>2022-06-26T06:19:18.000Z</time></trkpt><trkpt lon="5.798577" lat="51.097824"><ele>15</ele><time>2022-06-26T06:19:19.000Z</time></trkpt><trkpt lon="5.798624" lat="51.097791"><ele>15</ele><time>2022-06-26T06:19:20.000Z</time></trkpt><trkpt lon="5.798731" lat="51.097716"><ele>15</ele><time>2022-06-26T06:19:21.000Z</time></trkpt><trkpt lon="5.79878" lat="51.097683"><ele>15</ele><time>2022-06-26T06:19:22.000Z</time></trkpt><trkpt lon="5.798869" lat="51.097613"><ele>14.6</ele><time>2022-06-26T06:19:23.000Z</time></trkpt><trkpt lon="5.798916" lat="51.097576"><ele>14.6</ele><time>2022-06-26T06:19:24.000Z</time></trkpt><trkpt lon="5.799001" lat="51.097511"><ele>14.8</ele><time>2022-06-26T06:19:25.000Z</time></trkpt><trkpt lon="5.79904" lat="51.097483"><ele>14.8</ele><time>2022-06-26T06:19:26.000Z</time></trkpt><trkpt lon="5.799135" lat="51.097423"><ele>15</ele><time>2022-06-26T06:19:27.000Z</time></trkpt><trkpt lon="5.799177" lat="51.097394"><ele>15</ele><time>2022-06-26T06:19:28.000Z</time></trkpt><trkpt lon="5.799251" lat="51.097343"><ele>15</ele><time>2022-06-26T06:19:29.000Z</time></trkpt><trkpt lon="5.799286" lat="51.097317"><ele>15</ele><time>2022-06-26T06:19:30.000Z</time></trkpt><trkpt lon="5.79935" lat="51.097271"><ele>14.8</ele><time>2022-06-26T06:19:31.000Z</time></trkpt><trkpt lon="5.79938" lat="51.097247"><ele>14.6</ele><time>2022-06-26T06:19:32.000Z</time></trkpt><trkpt lon="5.799449" lat="51.097186"><ele>14.6</ele><time>2022-06-26T06:19:33.000Z</time></trkpt><trkpt lon="5.799472" lat="51.097155"><ele>14.6</ele><time>2022-06-26T06:19:34.000Z</time></trkpt><trkpt lon="5.799502" lat="51.097072"><ele>14.6</ele><time>2022-06-26T06:19:35.000Z</time></trkpt><trkpt lon="5.799498" lat="51.097034"><ele>14.6</ele><time>2022-06-26T06:19:36.000Z</time></trkpt><trkpt lon="5.799465" lat="51.096942"><ele>14.6</ele><time>2022-06-26T06:19:37.000Z</time></trkpt><trkpt lon="5.799442" lat="51.096899"><ele>14.6</ele><time>2022-06-26T06:19:38.000Z</time></trkpt><trkpt lon="5.799389" lat="51.096801"><ele>14.6</ele><time>2022-06-26T06:19:39.000Z</time></trkpt><trkpt lon="5.799361" lat="51.096748"><ele>14.6</ele><time>2022-06-26T06:19:40.000Z</time></trkpt><trkpt lon="5.79931" lat="51.096652"><ele>14.6</ele><time>2022-06-26T06:19:41.000Z</time></trkpt><trkpt lon="5.79928" lat="51.096603"><ele>14.6</ele><time>2022-06-26T06:19:42.000Z</time></trkpt><trkpt lon="5.799221" lat="51.096511"><ele>14.6</ele><time>2022-06-26T06:19:43.000Z</time></trkpt><trkpt lon="5.799191" lat="51.096469"><ele>14.6</ele><time>2022-06-26T06:19:44.000Z</time></trkpt><trkpt lon="5.799121" lat="51.09637"><ele>14.6</ele><time>2022-06-26T06:19:45.000Z</time></trkpt><trkpt lon="5.799093" lat="51.096329"><ele>14.6</ele><time>2022-06-26T06:19:46.000Z</time></trkpt><trkpt lon="5.799021" lat="51.096229"><ele>14.6</ele><time>2022-06-26T06:19:47.000Z</time></trkpt><trkpt lon="5.798993" lat="51.09619"><ele>14.6</ele><time>2022-06-26T06:19:48.000Z</time></trkpt><trkpt lon="5.798919" lat="51.096091"><ele>14.6</ele><time>2022-06-26T06:19:49.000Z</time></trkpt><trkpt lon="5.798881" lat="51.096048"><ele>14.6</ele><time>2022-06-26T06:19:50.000Z</time></trkpt><trkpt lon="5.798801" lat="51.095958"><ele>14.8</ele><time>2022-06-26T06:19:51.000Z</time></trkpt><trkpt lon="5.798767" lat="51.09592"><ele>14.8</ele><time>2022-06-26T06:19:52.000Z</time></trkpt><trkpt lon="5.798686" lat="51.095832"><ele>14.8</ele><time>2022-06-26T06:19:53.000Z</time></trkpt><trkpt lon="5.798653" lat="51.095798"><ele>14.6</ele><time>2022-06-26T06:19:54.000Z</time></trkpt><trkpt lon="5.798569" lat="51.09571"><ele>14.6</ele><time>2022-06-26T06:19:55.000Z</time></trkpt><trkpt lon="5.798536" lat="51.095672"><ele>14.6</ele><time>2022-06-26T06:19:56.000Z</time></trkpt><trkpt lon="5.798453" lat="51.095584"><ele>14.8</ele><time>2022-06-26T06:19:57.000Z</time></trkpt><trkpt lon="5.798419" lat="51.09555"><ele>14.8</ele><time>2022-06-26T06:19:58.000Z</time></trkpt><trkpt lon="5.798332" lat="51.095466"><ele>14.8</ele><time>2022-06-26T06:19:59.000Z</time></trkpt><trkpt lon="5.798294" lat="51.09543"><ele>15</ele><time>2022-06-26T06:20:00.000Z</time></trkpt><trkpt lon="5.798216" lat="51.095359"><ele>15</ele><time>2022-06-26T06:20:01.000Z</time></trkpt><trkpt lon="5.79818" lat="51.09533"><ele>15</ele><time>2022-06-26T06:20:02.000Z</time></trkpt><trkpt lon="5.798089" lat="51.095256"><ele>15</ele><time>2022-06-26T06:20:03.000Z</time></trkpt><trkpt lon="5.798051" lat="51.095225"><ele>15</ele><time>2022-06-26T06:20:04.000Z</time></trkpt><trkpt lon="5.797962" lat="51.095148"><ele>15.2</ele><time>2022-06-26T06:20:05.000Z</time></trkpt><trkpt lon="5.797923" lat="51.095113"><ele>15.2</ele><time>2022-06-26T06:20:06.000Z</time></trkpt><trkpt lon="5.797841" lat="51.095035"><ele>15.2</ele><time>2022-06-26T06:20:07.000Z</time></trkpt><trkpt lon="5.797807" lat="51.095004"><ele>15.2</ele><time>2022-06-26T06:20:08.000Z</time></trkpt><trkpt lon="5.797726" lat="51.094928"><ele>15.2</ele><time>2022-06-26T06:20:09.000Z</time></trkpt><trkpt lon="5.797688" lat="51.094893"><ele>15.2</ele><time>2022-06-26T06:20:10.000Z</time></trkpt><trkpt lon="5.797615" lat="51.094822"><ele>15.4</ele><time>2022-06-26T06:20:11.000Z</time></trkpt><trkpt lon="5.797579" lat="51.094798"><ele>15.4</ele><time>2022-06-26T06:20:12.000Z</time></trkpt><trkpt lon="5.797478" lat="51.094749"><ele>15.4</ele><time>2022-06-26T06:20:13.000Z</time></trkpt><trkpt lon="5.797417" lat="51.094739"><ele>15.6</ele><time>2022-06-26T06:20:14.000Z</time></trkpt><trkpt lon="5.797291" lat="51.09473"><ele>15.6</ele><time>2022-06-26T06:20:15.000Z</time></trkpt><trkpt lon="5.797237" lat="51.09473"><ele>15.6</ele><time>2022-06-26T06:20:16.000Z</time></trkpt><trkpt lon="5.797095" lat="51.09473"><ele>15.6</ele><time>2022-06-26T06:20:17.000Z</time></trkpt><trkpt lon="5.797042" lat="51.094724"><ele>15.6</ele><time>2022-06-26T06:20:18.000Z</time></trkpt><trkpt lon="5.796911" lat="51.094703"><ele>15.8</ele><time>2022-06-26T06:20:19.000Z</time></trkpt><trkpt lon="5.796874" lat="51.094687"><ele>15.8</ele><time>2022-06-26T06:20:20.000Z</time></trkpt><trkpt lon="5.796798" lat="51.094627"><ele>15.8</ele><time>2022-06-26T06:20:21.000Z</time></trkpt><trkpt lon="5.796785" lat="51.094589"><ele>15.6</ele><time>2022-06-26T06:20:22.000Z</time></trkpt><trkpt lon="5.79676" lat="51.094493"><ele>15.6</ele><time>2022-06-26T06:20:23.000Z</time></trkpt><trkpt lon="5.796748" lat="51.094453"><ele>15.6</ele><time>2022-06-26T06:20:24.000Z</time></trkpt><trkpt lon="5.796718" lat="51.094356"><ele>15.6</ele><time>2022-06-26T06:20:25.000Z</time></trkpt><trkpt lon="5.796706" lat="51.094319"><ele>15.6</ele><time>2022-06-26T06:20:26.000Z</time></trkpt><trkpt lon="5.796673" lat="51.094226"><ele>15.6</ele><time>2022-06-26T06:20:27.000Z</time></trkpt><trkpt lon="5.79666" lat="51.094192"><ele>15.8</ele><time>2022-06-26T06:20:28.000Z</time></trkpt><trkpt lon="5.796613" lat="51.0941"><ele>15.8</ele><time>2022-06-26T06:20:29.000Z</time></trkpt><trkpt lon="5.79659" lat="51.094062"><ele>15.8</ele><time>2022-06-26T06:20:30.000Z</time></trkpt><trkpt lon="5.796536" lat="51.093978"><ele>16</ele><time>2022-06-26T06:20:31.000Z</time></trkpt><trkpt lon="5.796515" lat="51.093946"><ele>16</ele><time>2022-06-26T06:20:32.000Z</time></trkpt><trkpt lon="5.796463" lat="51.093868"><ele>16</ele><time>2022-06-26T06:20:33.000Z</time></trkpt><trkpt lon="5.796445" lat="51.093841"><ele>16</ele><time>2022-06-26T06:20:34.000Z</time></trkpt><trkpt lon="5.796403" lat="51.093779"><ele>16</ele><time>2022-06-26T06:20:35.000Z</time></trkpt><trkpt lon="5.796388" lat="51.093755"><ele>16</ele><time>2022-06-26T06:20:36.000Z</time></trkpt><trkpt lon="5.796358" lat="51.093704"><ele>16</ele><time>2022-06-26T06:20:37.000Z</time></trkpt><trkpt lon="5.796347" lat="51.093677"><ele>16</ele><time>2022-06-26T06:20:38.000Z</time></trkpt><trkpt lon="5.796354" lat="51.093643"><ele>16</ele><time>2022-06-26T06:20:39.000Z</time></trkpt><trkpt lon="5.796362" lat="51.093608"><ele>16</ele><time>2022-06-26T06:20:40.000Z</time></trkpt><trkpt lon="5.796396" lat="51.093574"><ele>15.8</ele><time>2022-06-26T06:20:41.000Z</time></trkpt><trkpt lon="5.796446" lat="51.093539"><ele>15.8</ele><time>2022-06-26T06:20:42.000Z</time></trkpt><trkpt lon="5.796508" lat="51.093505"><ele>15.6</ele><time>2022-06-26T06:20:43.000Z</time></trkpt><trkpt lon="5.79658" lat="51.093479"><ele>15.6</ele><time>2022-06-26T06:20:44.000Z</time></trkpt><trkpt lon="5.796662" lat="51.09346"><ele>15.6</ele><time>2022-06-26T06:20:45.000Z</time></trkpt><trkpt lon="5.796752" lat="51.093449"><ele>15.6</ele><time>2022-06-26T06:20:46.000Z</time></trkpt><trkpt lon="5.796846" lat="51.093445"><ele>15.8</ele><time>2022-06-26T06:20:47.000Z</time></trkpt><trkpt lon="5.796937" lat="51.093445"><ele>15.8</ele><time>2022-06-26T06:20:48.000Z</time></trkpt><trkpt lon="5.797027" lat="51.093441"><ele>16</ele><time>2022-06-26T06:20:49.000Z</time></trkpt><trkpt lon="5.797114" lat="51.093433"><ele>16.2</ele><time>2022-06-26T06:20:50.000Z</time></trkpt><trkpt lon="5.797196" lat="51.093414"><ele>16.6</ele><time>2022-06-26T06:20:51.000Z</time></trkpt><trkpt lon="5.797271" lat="51.093395"><ele>16.8</ele><time>2022-06-26T06:20:52.000Z</time></trkpt><trkpt lon="5.797342" lat="51.093376"><ele>17.2</ele><time>2022-06-26T06:20:53.000Z</time></trkpt><trkpt lon="5.797412" lat="51.093352"><ele>17.4</ele><time>2022-06-26T06:20:54.000Z</time></trkpt><trkpt lon="5.797484" lat="51.093322"><ele>17.6</ele><time>2022-06-26T06:20:55.000Z</time></trkpt><trkpt lon="5.797558" lat="51.093288"><ele>17.8</ele><time>2022-06-26T06:20:56.000Z</time></trkpt><trkpt lon="5.797633" lat="51.093246"><ele>18.2</ele><time>2022-06-26T06:20:57.000Z</time></trkpt><trkpt lon="5.797709" lat="51.093204"><ele>18.6</ele><time>2022-06-26T06:20:58.000Z</time></trkpt><trkpt lon="5.797785" lat="51.093162"><ele>18.6</ele><time>2022-06-26T06:20:59.000Z</time></trkpt><trkpt lon="5.797861" lat="51.09312"><ele>18.8</ele><time>2022-06-26T06:21:00.000Z</time></trkpt><trkpt lon="5.797941" lat="51.093073"><ele>18.8</ele><time>2022-06-26T06:21:01.000Z</time></trkpt><trkpt lon="5.798024" lat="51.093028"><ele>19</ele><time>2022-06-26T06:21:02.000Z</time></trkpt><trkpt lon="5.798106" lat="51.092978"><ele>19.2</ele><time>2022-06-26T06:21:03.000Z</time></trkpt><trkpt lon="5.798186" lat="51.092932"><ele>19.4</ele><time>2022-06-26T06:21:04.000Z</time></trkpt><trkpt lon="5.798267" lat="51.092887"><ele>19.6</ele><time>2022-06-26T06:21:05.000Z</time></trkpt><trkpt lon="5.798345" lat="51.092838"><ele>19.6</ele><time>2022-06-26T06:21:06.000Z</time></trkpt><trkpt lon="5.798428" lat="51.092788"><ele>19.8</ele><time>2022-06-26T06:21:07.000Z</time></trkpt><trkpt lon="5.798509" lat="51.092742"><ele>19.8</ele><time>2022-06-26T06:21:08.000Z</time></trkpt><trkpt lon="5.798592" lat="51.092692"><ele>19.8</ele><time>2022-06-26T06:21:09.000Z</time></trkpt><trkpt lon="5.798674" lat="51.092642"><ele>20</ele><time>2022-06-26T06:21:10.000Z</time></trkpt><trkpt lon="5.798756" lat="51.092598"><ele>19.8</ele><time>2022-06-26T06:21:11.000Z</time></trkpt><trkpt lon="5.798841" lat="51.092548"><ele>19.8</ele><time>2022-06-26T06:21:12.000Z</time></trkpt><trkpt lon="5.798923" lat="51.092498"><ele>19.8</ele><time>2022-06-26T06:21:13.000Z</time></trkpt><trkpt lon="5.799001" lat="51.092452"><ele>19.8</ele><time>2022-06-26T06:21:14.000Z</time></trkpt><trkpt lon="5.799079" lat="51.092402"><ele>19.6</ele><time>2022-06-26T06:21:15.000Z</time></trkpt><trkpt lon="5.799157" lat="51.092356"><ele>19.4</ele><time>2022-06-26T06:21:16.000Z</time></trkpt><trkpt lon="5.799237" lat="51.092307"><ele>19.2</ele><time>2022-06-26T06:21:17.000Z</time></trkpt><trkpt lon="5.799317" lat="51.092257"><ele>19.2</ele><time>2022-06-26T06:21:18.000Z</time></trkpt><trkpt lon="5.7994" lat="51.092211"><ele>19.2</ele><time>2022-06-26T06:21:19.000Z</time></trkpt><trkpt lon="5.799482" lat="51.092162"><ele>19.4</ele><time>2022-06-26T06:21:20.000Z</time></trkpt><trkpt lon="5.799564" lat="51.092112"><ele>19.4</ele><time>2022-06-26T06:21:21.000Z</time></trkpt><trkpt lon="5.799647" lat="51.092066"><ele>19.4</ele><time>2022-06-26T06:21:22.000Z</time></trkpt><trkpt lon="5.799733" lat="51.092017"><ele>19.2</ele><time>2022-06-26T06:21:23.000Z</time></trkpt><trkpt lon="5.799821" lat="51.091967"><ele>18.8</ele><time>2022-06-26T06:21:24.000Z</time></trkpt><trkpt lon="5.799905" lat="51.09191"><ele>18.6</ele><time>2022-06-26T06:21:25.000Z</time></trkpt><trkpt lon="5.799977" lat="51.091852"><ele>18.6</ele><time>2022-06-26T06:21:26.000Z</time></trkpt><trkpt lon="5.800057" lat="51.09178"><ele>17.6</ele><time>2022-06-26T06:21:27.000Z</time></trkpt><trkpt lon="5.800124" lat="51.09171"><ele>17.2</ele><time>2022-06-26T06:21:28.000Z</time></trkpt><trkpt lon="5.800197" lat="51.091635"><ele>16.8</ele><time>2022-06-26T06:21:29.000Z</time></trkpt><trkpt lon="5.800265" lat="51.091563"><ele>16.6</ele><time>2022-06-26T06:21:30.000Z</time></trkpt><trkpt lon="5.800325" lat="51.091486"><ele>16.4</ele><time>2022-06-26T06:21:31.000Z</time></trkpt><trkpt lon="5.800372" lat="51.091406"><ele>16.2</ele><time>2022-06-26T06:21:32.000Z</time></trkpt><trkpt lon="5.800403" lat="51.091323"><ele>16.2</ele><time>2022-06-26T06:21:33.000Z</time></trkpt><trkpt lon="5.800423" lat="51.091238"><ele>16.2</ele><time>2022-06-26T06:21:34.000Z</time></trkpt><trkpt lon="5.800435" lat="51.09115"><ele>16</ele><time>2022-06-26T06:21:35.000Z</time></trkpt><trkpt lon="5.800438" lat="51.091066"><ele>16</ele><time>2022-06-26T06:21:36.000Z</time></trkpt><trkpt lon="5.800435" lat="51.090983"><ele>15.8</ele><time>2022-06-26T06:21:37.000Z</time></trkpt><trkpt lon="5.80043" lat="51.090898"><ele>15.8</ele><time>2022-06-26T06:21:38.000Z</time></trkpt><trkpt lon="5.800423" lat="51.090814"><ele>15.8</ele><time>2022-06-26T06:21:39.000Z</time></trkpt><trkpt lon="5.800416" lat="51.090735"><ele>15.8</ele><time>2022-06-26T06:21:40.000Z</time></trkpt><trkpt lon="5.800408" lat="51.090658"><ele>15.8</ele><time>2022-06-26T06:21:41.000Z</time></trkpt><trkpt lon="5.800402" lat="51.090578"><ele>15.8</ele><time>2022-06-26T06:21:42.000Z</time></trkpt><trkpt lon="5.800398" lat="51.090498"><ele>16</ele><time>2022-06-26T06:21:43.000Z</time></trkpt><trkpt lon="5.800396" lat="51.090426"><ele>16</ele><time>2022-06-26T06:21:44.000Z</time></trkpt><trkpt lon="5.800397" lat="51.090353"><ele>16</ele><time>2022-06-26T06:21:45.000Z</time></trkpt><trkpt lon="5.800403" lat="51.090291"><ele>16.2</ele><time>2022-06-26T06:21:46.000Z</time></trkpt><trkpt lon="5.800415" lat="51.090212"><ele>16.2</ele><time>2022-06-26T06:21:47.000Z</time></trkpt><trkpt lon="5.80043" lat="51.090143"><ele>16.4</ele><time>2022-06-26T06:21:48.000Z</time></trkpt><trkpt lon="5.800454" lat="51.090067"><ele>16.4</ele><time>2022-06-26T06:21:49.000Z</time></trkpt><trkpt lon="5.80048" lat="51.090003"><ele>16.2</ele><time>2022-06-26T06:21:50.000Z</time></trkpt><trkpt lon="5.800516" lat="51.08993"><ele>15.8</ele><time>2022-06-26T06:21:51.000Z</time></trkpt><trkpt lon="5.800556" lat="51.089862"><ele>15.6</ele><time>2022-06-26T06:21:52.000Z</time></trkpt><trkpt lon="5.800602" lat="51.089797"><ele>15.4</ele><time>2022-06-26T06:21:53.000Z</time></trkpt><trkpt lon="5.800655" lat="51.089732"><ele>15.2</ele><time>2022-06-26T06:21:54.000Z</time></trkpt><trkpt lon="5.800707" lat="51.089671"><ele>15</ele><time>2022-06-26T06:21:55.000Z</time></trkpt><trkpt lon="5.800761" lat="51.089614"><ele>15</ele><time>2022-06-26T06:21:56.000Z</time></trkpt><trkpt lon="5.800815" lat="51.08956"><ele>15</ele><time>2022-06-26T06:21:57.000Z</time></trkpt><trkpt lon="5.800863" lat="51.08951"><ele>14.8</ele><time>2022-06-26T06:21:58.000Z</time></trkpt><trkpt lon="5.800917" lat="51.089454"><ele>14.8</ele><time>2022-06-26T06:21:59.000Z</time></trkpt><trkpt lon="5.800971" lat="51.0894"><ele>14.8</ele><time>2022-06-26T06:22:00.000Z</time></trkpt><trkpt lon="5.801027" lat="51.089343"><ele>14.8</ele><time>2022-06-26T06:22:01.000Z</time></trkpt><trkpt lon="5.801085" lat="51.089289"><ele>14.6</ele><time>2022-06-26T06:22:02.000Z</time></trkpt><trkpt lon="5.801144" lat="51.089232"><ele>14.8</ele><time>2022-06-26T06:22:03.000Z</time></trkpt><trkpt lon="5.801189" lat="51.089192"><ele>14.8</ele><time>2022-06-26T06:22:04.000Z</time></trkpt><trkpt lon="5.801258" lat="51.089122"><ele>14.8</ele><time>2022-06-26T06:22:05.000Z</time></trkpt><trkpt lon="5.801307" lat="51.089075"><ele>14.6</ele><time>2022-06-26T06:22:06.000Z</time></trkpt><trkpt lon="5.801371" lat="51.089011"><ele>14.8</ele><time>2022-06-26T06:22:07.000Z</time></trkpt><trkpt lon="5.801424" lat="51.088958"><ele>14.8</ele><time>2022-06-26T06:22:08.000Z</time></trkpt><trkpt lon="5.801484" lat="51.0889"><ele>14.8</ele><time>2022-06-26T06:22:09.000Z</time></trkpt><trkpt lon="5.801528" lat="51.088856"><ele>15</ele><time>2022-06-26T06:22:10.000Z</time></trkpt><trkpt lon="5.801597" lat="51.088786"><ele>15.2</ele><time>2022-06-26T06:22:11.000Z</time></trkpt><trkpt lon="5.801655" lat="51.088725"><ele>15.2</ele><time>2022-06-26T06:22:12.000Z</time></trkpt><trkpt lon="5.801713" lat="51.088667"><ele>15.2</ele><time>2022-06-26T06:22:13.000Z</time></trkpt><trkpt lon="5.801773" lat="51.088606"><ele>15.2</ele><time>2022-06-26T06:22:14.000Z</time></trkpt><trkpt lon="5.801834" lat="51.088549"><ele>15.2</ele><time>2022-06-26T06:22:15.000Z</time></trkpt><trkpt lon="5.801893" lat="51.088492"><ele>15.2</ele><time>2022-06-26T06:22:16.000Z</time></trkpt><trkpt lon="5.801955" lat="51.088435"><ele>15.2</ele><time>2022-06-26T06:22:17.000Z</time></trkpt><trkpt lon="5.802014" lat="51.088378"><ele>15.4</ele><time>2022-06-26T06:22:18.000Z</time></trkpt><trkpt lon="5.802073" lat="51.088321"><ele>15.4</ele><time>2022-06-26T06:22:19.000Z</time></trkpt><trkpt lon="5.80213" lat="51.088263"><ele>15.6</ele><time>2022-06-26T06:22:20.000Z</time></trkpt><trkpt lon="5.80219" lat="51.088206"><ele>15.6</ele><time>2022-06-26T06:22:21.000Z</time></trkpt><trkpt lon="5.802245" lat="51.088153"><ele>15.8</ele><time>2022-06-26T06:22:22.000Z</time></trkpt><trkpt lon="5.802309" lat="51.088092"><ele>16</ele><time>2022-06-26T06:22:23.000Z</time></trkpt><trkpt lon="5.802363" lat="51.088042"><ele>15.8</ele><time>2022-06-26T06:22:24.000Z</time></trkpt><trkpt lon="5.802431" lat="51.087977"><ele>15.8</ele><time>2022-06-26T06:22:25.000Z</time></trkpt><trkpt lon="5.802482" lat="51.08793"><ele>15.8</ele><time>2022-06-26T06:22:26.000Z</time></trkpt><trkpt lon="5.802551" lat="51.087863"><ele>16</ele><time>2022-06-26T06:22:27.000Z</time></trkpt><trkpt lon="5.802599" lat="51.087816"><ele>16</ele><time>2022-06-26T06:22:28.000Z</time></trkpt><trkpt lon="5.802671" lat="51.087748"><ele>16</ele><time>2022-06-26T06:22:29.000Z</time></trkpt><trkpt lon="5.802727" lat="51.087696"><ele>16</ele><time>2022-06-26T06:22:30.000Z</time></trkpt><trkpt lon="5.802793" lat="51.087634"><ele>16.2</ele><time>2022-06-26T06:22:31.000Z</time></trkpt><trkpt lon="5.802845" lat="51.087584"><ele>16.2</ele><time>2022-06-26T06:22:32.000Z</time></trkpt><trkpt lon="5.802914" lat="51.087516"><ele>16.2</ele><time>2022-06-26T06:22:33.000Z</time></trkpt><trkpt lon="5.802968" lat="51.087464"><ele>16.2</ele><time>2022-06-26T06:22:34.000Z</time></trkpt><trkpt lon="5.803044" lat="51.087394"><ele>16</ele><time>2022-06-26T06:22:35.000Z</time></trkpt><trkpt lon="5.803108" lat="51.087335"><ele>16</ele><time>2022-06-26T06:22:36.000Z</time></trkpt><trkpt lon="5.803192" lat="51.087264"><ele>16</ele><time>2022-06-26T06:22:37.000Z</time></trkpt><trkpt lon="5.803249" lat="51.087214"><ele>15.8</ele><time>2022-06-26T06:22:38.000Z</time></trkpt><trkpt lon="5.803341" lat="51.087126"><ele>15.6</ele><time>2022-06-26T06:22:39.000Z</time></trkpt><trkpt lon="5.803409" lat="51.087058"><ele>15.6</ele><time>2022-06-26T06:22:40.000Z</time></trkpt><trkpt lon="5.80348" lat="51.086989"><ele>15.6</ele><time>2022-06-26T06:22:41.000Z</time></trkpt><trkpt lon="5.803545" lat="51.086927"><ele>15.4</ele><time>2022-06-26T06:22:42.000Z</time></trkpt><trkpt lon="5.80362" lat="51.086855"><ele>15.2</ele><time>2022-06-26T06:22:43.000Z</time></trkpt><trkpt lon="5.803677" lat="51.086798"><ele>15.2</ele><time>2022-06-26T06:22:44.000Z</time></trkpt><trkpt lon="5.803755" lat="51.086726"><ele>15.2</ele><time>2022-06-26T06:22:45.000Z</time></trkpt><trkpt lon="5.803809" lat="51.086672"><ele>15</ele><time>2022-06-26T06:22:46.000Z</time></trkpt><trkpt lon="5.803886" lat="51.0866"><ele>15</ele><time>2022-06-26T06:22:47.000Z</time></trkpt><trkpt lon="5.803938" lat="51.086553"><ele>14.8</ele><time>2022-06-26T06:22:48.000Z</time></trkpt><trkpt lon="5.80402" lat="51.086474"><ele>14.8</ele><time>2022-06-26T06:22:49.000Z</time></trkpt><trkpt lon="5.804087" lat="51.086412"><ele>14.8</ele><time>2022-06-26T06:22:50.000Z</time></trkpt><trkpt lon="5.804152" lat="51.086353"><ele>14.8</ele><time>2022-06-26T06:22:51.000Z</time></trkpt><trkpt lon="5.804214" lat="51.086296"><ele>14.8</ele><time>2022-06-26T06:22:52.000Z</time></trkpt><trkpt lon="5.804285" lat="51.086226"><ele>14.8</ele><time>2022-06-26T06:22:53.000Z</time></trkpt><trkpt lon="5.804351" lat="51.086165"><ele>14.8</ele><time>2022-06-26T06:22:54.000Z</time></trkpt><trkpt lon="5.80442" lat="51.0861"><ele>14.8</ele><time>2022-06-26T06:22:55.000Z</time></trkpt><trkpt lon="5.804481" lat="51.086041"><ele>14.8</ele><time>2022-06-26T06:22:56.000Z</time></trkpt><trkpt lon="5.804555" lat="51.085971"><ele>14.8</ele><time>2022-06-26T06:22:57.000Z</time></trkpt><trkpt lon="5.804612" lat="51.085918"><ele>14.6</ele><time>2022-06-26T06:22:58.000Z</time></trkpt><trkpt lon="5.804686" lat="51.085845"><ele>14.6</ele><time>2022-06-26T06:22:59.000Z</time></trkpt><trkpt lon="5.804735" lat="51.085799"><ele>14.6</ele><time>2022-06-26T06:23:00.000Z</time></trkpt><trkpt lon="5.804814" lat="51.085724"><ele>14.6</ele><time>2022-06-26T06:23:01.000Z</time></trkpt><trkpt lon="5.80488" lat="51.085666"><ele>14.6</ele><time>2022-06-26T06:23:02.000Z</time></trkpt><trkpt lon="5.804951" lat="51.085601"><ele>14.6</ele><time>2022-06-26T06:23:03.000Z</time></trkpt><trkpt lon="5.805" lat="51.085557"><ele>14.8</ele><time>2022-06-26T06:23:04.000Z</time></trkpt><trkpt lon="5.80509" lat="51.085483"><ele>14.8</ele><time>2022-06-26T06:23:05.000Z</time></trkpt><trkpt lon="5.805148" lat="51.085437"><ele>14.8</ele><time>2022-06-26T06:23:06.000Z</time></trkpt><trkpt lon="5.80524" lat="51.085368"><ele>14.6</ele><time>2022-06-26T06:23:07.000Z</time></trkpt><trkpt lon="5.805299" lat="51.085324"><ele>14.6</ele><time>2022-06-26T06:23:08.000Z</time></trkpt><trkpt lon="5.805391" lat="51.08526"><ele>14.6</ele><time>2022-06-26T06:23:09.000Z</time></trkpt><trkpt lon="5.805471" lat="51.085205"><ele>14.6</ele><time>2022-06-26T06:23:10.000Z</time></trkpt><trkpt lon="5.805562" lat="51.085147"><ele>14.8</ele><time>2022-06-26T06:23:11.000Z</time></trkpt><trkpt lon="5.805626" lat="51.085109"><ele>14.8</ele><time>2022-06-26T06:23:12.000Z</time></trkpt><trkpt lon="5.80573" lat="51.085044"><ele>14.8</ele><time>2022-06-26T06:23:13.000Z</time></trkpt><trkpt lon="5.805799" lat="51.085008"><ele>14.8</ele><time>2022-06-26T06:23:14.000Z</time></trkpt><trkpt lon="5.805906" lat="51.084948"><ele>14.8</ele><time>2022-06-26T06:23:15.000Z</time></trkpt><trkpt lon="5.805977" lat="51.084909"><ele>14.8</ele><time>2022-06-26T06:23:16.000Z</time></trkpt><trkpt lon="5.806085" lat="51.08485"><ele>14.8</ele><time>2022-06-26T06:23:17.000Z</time></trkpt><trkpt lon="5.806158" lat="51.084812"><ele>14.8</ele><time>2022-06-26T06:23:18.000Z</time></trkpt><trkpt lon="5.806259" lat="51.084758"><ele>14.8</ele><time>2022-06-26T06:23:19.000Z</time></trkpt><trkpt lon="5.806324" lat="51.084727"><ele>14.8</ele><time>2022-06-26T06:23:20.000Z</time></trkpt><trkpt lon="5.806435" lat="51.084674"><ele>14.8</ele><time>2022-06-26T06:23:21.000Z</time></trkpt><trkpt lon="5.806503" lat="51.084639"><ele>14.8</ele><time>2022-06-26T06:23:22.000Z</time></trkpt><trkpt lon="5.80661" lat="51.084586"><ele>15</ele><time>2022-06-26T06:23:23.000Z</time></trkpt><trkpt lon="5.806677" lat="51.084551"><ele>15</ele><time>2022-06-26T06:23:24.000Z</time></trkpt><trkpt lon="5.806782" lat="51.084495"><ele>15</ele><time>2022-06-26T06:23:25.000Z</time></trkpt><trkpt lon="5.806857" lat="51.084452"><ele>15</ele><time>2022-06-26T06:23:26.000Z</time></trkpt><trkpt lon="5.806938" lat="51.084407"><ele>15</ele><time>2022-06-26T06:23:27.000Z</time></trkpt><trkpt lon="5.80699" lat="51.084375"><ele>15</ele><time>2022-06-26T06:23:28.000Z</time></trkpt><trkpt lon="5.807085" lat="51.084319"><ele>15</ele><time>2022-06-26T06:23:29.000Z</time></trkpt><trkpt lon="5.807152" lat="51.08428"><ele>15</ele><time>2022-06-26T06:23:30.000Z</time></trkpt><trkpt lon="5.807218" lat="51.084239"><ele>15</ele><time>2022-06-26T06:23:31.000Z</time></trkpt><trkpt lon="5.807268" lat="51.084208"><ele>15</ele><time>2022-06-26T06:23:32.000Z</time></trkpt><trkpt lon="5.807332" lat="51.084167"><ele>15</ele><time>2022-06-26T06:23:33.000Z</time></trkpt><trkpt lon="5.807359" lat="51.084139"><ele>15</ele><time>2022-06-26T06:23:34.000Z</time></trkpt><trkpt lon="5.807388" lat="51.084083"><ele>15</ele><time>2022-06-26T06:23:35.000Z</time></trkpt><trkpt lon="5.807378" lat="51.084051"><ele>14.8</ele><time>2022-06-26T06:23:36.000Z</time></trkpt><trkpt lon="5.807325" lat="51.084003"><ele>14.8</ele><time>2022-06-26T06:23:37.000Z</time></trkpt><trkpt lon="5.80726" lat="51.083965"><ele>14.8</ele><time>2022-06-26T06:23:38.000Z</time></trkpt><trkpt lon="5.807202" lat="51.083934"><ele>14.6</ele><time>2022-06-26T06:23:39.000Z</time></trkpt><trkpt lon="5.807101" lat="51.083885"><ele>14.6</ele><time>2022-06-26T06:23:40.000Z</time></trkpt><trkpt lon="5.807037" lat="51.083854"><ele>14.6</ele><time>2022-06-26T06:23:41.000Z</time></trkpt><trkpt lon="5.806922" lat="51.0838"><ele>14.4</ele><time>2022-06-26T06:23:42.000Z</time></trkpt><trkpt lon="5.806842" lat="51.083759"><ele>14.4</ele><time>2022-06-26T06:23:43.000Z</time></trkpt><trkpt lon="5.806742" lat="51.083713"><ele>14.4</ele><time>2022-06-26T06:23:44.000Z</time></trkpt><trkpt lon="5.806681" lat="51.083685"><ele>14.4</ele><time>2022-06-26T06:23:45.000Z</time></trkpt><trkpt lon="5.806555" lat="51.083633"><ele>14.4</ele><time>2022-06-26T06:23:46.000Z</time></trkpt><trkpt lon="5.806488" lat="51.083607"><ele>14.4</ele><time>2022-06-26T06:23:47.000Z</time></trkpt><trkpt lon="5.806355" lat="51.083553"><ele>14.4</ele><time>2022-06-26T06:23:48.000Z</time></trkpt><trkpt lon="5.80628" lat="51.083526"><ele>14.4</ele><time>2022-06-26T06:23:49.000Z</time></trkpt><trkpt lon="5.806147" lat="51.08348"><ele>14.4</ele><time>2022-06-26T06:23:50.000Z</time></trkpt><trkpt lon="5.806074" lat="51.083456"><ele>14.4</ele><time>2022-06-26T06:23:51.000Z</time></trkpt><trkpt lon="5.805944" lat="51.083419"><ele>14.6</ele><time>2022-06-26T06:23:52.000Z</time></trkpt><trkpt lon="5.805853" lat="51.083393"><ele>14.6</ele><time>2022-06-26T06:23:53.000Z</time></trkpt><trkpt lon="5.805738" lat="51.083358"><ele>14.4</ele><time>2022-06-26T06:23:54.000Z</time></trkpt><trkpt lon="5.805653" lat="51.083339"><ele>14.4</ele><time>2022-06-26T06:23:55.000Z</time></trkpt><trkpt lon="5.805535" lat="51.083309"><ele>14.2</ele><time>2022-06-26T06:23:56.000Z</time></trkpt><trkpt lon="5.80545" lat="51.083286"><ele>14.2</ele><time>2022-06-26T06:23:57.000Z</time></trkpt><trkpt lon="5.805334" lat="51.083255"><ele>14.4</ele><time>2022-06-26T06:23:58.000Z</time></trkpt><trkpt lon="5.805258" lat="51.083238"><ele>14.4</ele><time>2022-06-26T06:23:59.000Z</time></trkpt><trkpt lon="5.805142" lat="51.083217"><ele>14.4</ele><time>2022-06-26T06:24:00.000Z</time></trkpt><trkpt lon="5.805062" lat="51.083208"><ele>14.6</ele><time>2022-06-26T06:24:01.000Z</time></trkpt><trkpt lon="5.804936" lat="51.083202"><ele>14.6</ele><time>2022-06-26T06:24:02.000Z</time></trkpt><trkpt lon="5.804858" lat="51.0832"><ele>14.8</ele><time>2022-06-26T06:24:03.000Z</time></trkpt><trkpt lon="5.804712" lat="51.083199"><ele>14.8</ele><time>2022-06-26T06:24:04.000Z</time></trkpt><trkpt lon="5.804606" lat="51.083199"><ele>14.8</ele><time>2022-06-26T06:24:05.000Z</time></trkpt><trkpt lon="5.804475" lat="51.083195"><ele>14.8</ele><time>2022-06-26T06:24:06.000Z</time></trkpt><trkpt lon="5.804389" lat="51.083198"><ele>14.8</ele><time>2022-06-26T06:24:07.000Z</time></trkpt><trkpt lon="5.80425" lat="51.083199"><ele>14.8</ele><time>2022-06-26T06:24:08.000Z</time></trkpt><trkpt lon="5.804176" lat="51.083206"><ele>14.8</ele><time>2022-06-26T06:24:09.000Z</time></trkpt><trkpt lon="5.804032" lat="51.083218"><ele>14.8</ele><time>2022-06-26T06:24:10.000Z</time></trkpt><trkpt lon="5.803965" lat="51.083223"><ele>15</ele><time>2022-06-26T06:24:11.000Z</time></trkpt><trkpt lon="5.803839" lat="51.083229"><ele>15</ele><time>2022-06-26T06:24:12.000Z</time></trkpt><trkpt lon="5.803776" lat="51.083214"><ele>15.2</ele><time>2022-06-26T06:24:13.000Z</time></trkpt><trkpt lon="5.803696" lat="51.083179"><ele>15.2</ele><time>2022-06-26T06:24:14.000Z</time></trkpt><trkpt lon="5.803661" lat="51.083142"><ele>15.4</ele><time>2022-06-26T06:24:15.000Z</time></trkpt><trkpt lon="5.803657" lat="51.083083"><ele>15.8</ele><time>2022-06-26T06:24:16.000Z</time></trkpt><trkpt lon="5.803669" lat="51.083045"><ele>16</ele><time>2022-06-26T06:24:17.000Z</time></trkpt><trkpt lon="5.803704" lat="51.082969"><ele>16.2</ele><time>2022-06-26T06:24:18.000Z</time></trkpt><trkpt lon="5.803728" lat="51.08293"><ele>16.4</ele><time>2022-06-26T06:24:19.000Z</time></trkpt><trkpt lon="5.803784" lat="51.082842"><ele>16.4</ele><time>2022-06-26T06:24:20.000Z</time></trkpt><trkpt lon="5.80382" lat="51.08279"><ele>16.4</ele><time>2022-06-26T06:24:21.000Z</time></trkpt><trkpt lon="5.803883" lat="51.082702"><ele>16.4</ele><time>2022-06-26T06:24:22.000Z</time></trkpt><trkpt lon="5.803919" lat="51.082654"><ele>16.4</ele><time>2022-06-26T06:24:23.000Z</time></trkpt><trkpt lon="5.803989" lat="51.082564"><ele>16.4</ele><time>2022-06-26T06:24:24.000Z</time></trkpt><trkpt lon="5.804031" lat="51.082512"><ele>16.4</ele><time>2022-06-26T06:24:25.000Z</time></trkpt><trkpt lon="5.804089" lat="51.082435"><ele>16.4</ele><time>2022-06-26T06:24:26.000Z</time></trkpt><trkpt lon="5.804124" lat="51.082383"><ele>16.4</ele><time>2022-06-26T06:24:27.000Z</time></trkpt><trkpt lon="5.804175" lat="51.082298"><ele>16.4</ele><time>2022-06-26T06:24:28.000Z</time></trkpt><trkpt lon="5.804196" lat="51.082257"><ele>16.4</ele><time>2022-06-26T06:24:29.000Z</time></trkpt><trkpt lon="5.804238" lat="51.082171"><ele>16.6</ele><time>2022-06-26T06:24:30.000Z</time></trkpt><trkpt lon="5.804262" lat="51.082122"><ele>16.6</ele><time>2022-06-26T06:24:31.000Z</time></trkpt><trkpt lon="5.804306" lat="51.082042"><ele>16.8</ele><time>2022-06-26T06:24:32.000Z</time></trkpt><trkpt lon="5.804334" lat="51.081993"><ele>17</ele><time>2022-06-26T06:24:33.000Z</time></trkpt><trkpt lon="5.804386" lat="51.081912"><ele>17.2</ele><time>2022-06-26T06:24:34.000Z</time></trkpt><trkpt lon="5.804415" lat="51.081869"><ele>17.2</ele><time>2022-06-26T06:24:35.000Z</time></trkpt><trkpt lon="5.804474" lat="51.081782"><ele>17.4</ele><time>2022-06-26T06:24:36.000Z</time></trkpt><trkpt lon="5.804507" lat="51.081734"><ele>17.6</ele><time>2022-06-26T06:24:37.000Z</time></trkpt><trkpt lon="5.804567" lat="51.081645"><ele>17.6</ele><time>2022-06-26T06:24:38.000Z</time></trkpt><trkpt lon="5.8046" lat="51.081597"><ele>17.6</ele><time>2022-06-26T06:24:39.000Z</time></trkpt><trkpt lon="5.804661" lat="51.081511"><ele>17.6</ele><time>2022-06-26T06:24:40.000Z</time></trkpt><trkpt lon="5.80469" lat="51.081468"><ele>17.6</ele><time>2022-06-26T06:24:41.000Z</time></trkpt><trkpt lon="5.804753" lat="51.081374"><ele>17.4</ele><time>2022-06-26T06:24:42.000Z</time></trkpt><trkpt lon="5.804781" lat="51.081328"><ele>17.4</ele><time>2022-06-26T06:24:43.000Z</time></trkpt><trkpt lon="5.804837" lat="51.081237"><ele>17.6</ele><time>2022-06-26T06:24:44.000Z</time></trkpt><trkpt lon="5.804865" lat="51.081188"><ele>17.6</ele><time>2022-06-26T06:24:45.000Z</time></trkpt><trkpt lon="5.804919" lat="51.081096"><ele>17.6</ele><time>2022-06-26T06:24:46.000Z</time></trkpt><trkpt lon="5.804947" lat="51.081047"><ele>17.6</ele><time>2022-06-26T06:24:47.000Z</time></trkpt><trkpt lon="5.804997" lat="51.080958"><ele>17.6</ele><time>2022-06-26T06:24:48.000Z</time></trkpt><trkpt lon="5.805022" lat="51.080911"><ele>17.6</ele><time>2022-06-26T06:24:49.000Z</time></trkpt><trkpt lon="5.80507" lat="51.080821"><ele>17.8</ele><time>2022-06-26T06:24:50.000Z</time></trkpt><trkpt lon="5.805096" lat="51.080776"><ele>17.8</ele><time>2022-06-26T06:24:51.000Z</time></trkpt><trkpt lon="5.805147" lat="51.080691"><ele>17.6</ele><time>2022-06-26T06:24:52.000Z</time></trkpt><trkpt lon="5.805173" lat="51.080651"><ele>17.6</ele><time>2022-06-26T06:24:53.000Z</time></trkpt><trkpt lon="5.805231" lat="51.080562"><ele>17.8</ele><time>2022-06-26T06:24:54.000Z</time></trkpt><trkpt lon="5.80526" lat="51.08052"><ele>17.8</ele><time>2022-06-26T06:24:55.000Z</time></trkpt><trkpt lon="5.805319" lat="51.080428"><ele>17.8</ele><time>2022-06-26T06:24:56.000Z</time></trkpt><trkpt lon="5.805347" lat="51.080382"><ele>17.8</ele><time>2022-06-26T06:24:57.000Z</time></trkpt><trkpt lon="5.805399" lat="51.080291"><ele>17.8</ele><time>2022-06-26T06:24:58.000Z</time></trkpt><trkpt lon="5.805427" lat="51.080245"><ele>17.8</ele><time>2022-06-26T06:24:59.000Z</time></trkpt><trkpt lon="5.805476" lat="51.080154"><ele>17.8</ele><time>2022-06-26T06:25:00.000Z</time></trkpt><trkpt lon="5.8055" lat="51.080108"><ele>17.8</ele><time>2022-06-26T06:25:01.000Z</time></trkpt><trkpt lon="5.805549" lat="51.080016"><ele>17.6</ele><time>2022-06-26T06:25:02.000Z</time></trkpt><trkpt lon="5.805579" lat="51.079962"><ele>17.6</ele><time>2022-06-26T06:25:03.000Z</time></trkpt><trkpt lon="5.805627" lat="51.07988"><ele>17.6</ele><time>2022-06-26T06:25:04.000Z</time></trkpt><trkpt lon="5.80565" lat="51.079835"><ele>17.6</ele><time>2022-06-26T06:25:05.000Z</time></trkpt><trkpt lon="5.805695" lat="51.079738"><ele>17.8</ele><time>2022-06-26T06:25:06.000Z</time></trkpt><trkpt lon="5.805715" lat="51.079691"><ele>17.8</ele><time>2022-06-26T06:25:07.000Z</time></trkpt><trkpt lon="5.80575" lat="51.079597"><ele>17.8</ele><time>2022-06-26T06:25:08.000Z</time></trkpt><trkpt lon="5.805771" lat="51.079547"><ele>17.8</ele><time>2022-06-26T06:25:09.000Z</time></trkpt><trkpt lon="5.80581" lat="51.07946"><ele>18</ele><time>2022-06-26T06:25:10.000Z</time></trkpt><trkpt lon="5.80583" lat="51.079415"><ele>17.8</ele><time>2022-06-26T06:25:11.000Z</time></trkpt><trkpt lon="5.805872" lat="51.079322"><ele>17.8</ele><time>2022-06-26T06:25:12.000Z</time></trkpt><trkpt lon="5.805899" lat="51.079266"><ele>17.8</ele><time>2022-06-26T06:25:13.000Z</time></trkpt><trkpt lon="5.80594" lat="51.079185"><ele>17.8</ele><time>2022-06-26T06:25:14.000Z</time></trkpt><trkpt lon="5.805963" lat="51.079142"><ele>17.8</ele><time>2022-06-26T06:25:15.000Z</time></trkpt><trkpt lon="5.806014" lat="51.079047"><ele>17.8</ele><time>2022-06-26T06:25:16.000Z</time></trkpt><trkpt lon="5.806044" lat="51.078994"><ele>17.8</ele><time>2022-06-26T06:25:17.000Z</time></trkpt><trkpt lon="5.806087" lat="51.078906"><ele>17.8</ele><time>2022-06-26T06:25:18.000Z</time></trkpt><trkpt lon="5.806107" lat="51.078869"><ele>17.6</ele><time>2022-06-26T06:25:19.000Z</time></trkpt><trkpt lon="5.806152" lat="51.078769"><ele>17.6</ele><time>2022-06-26T06:25:20.000Z</time></trkpt><trkpt lon="5.806172" lat="51.078718"><ele>17.6</ele><time>2022-06-26T06:25:21.000Z</time></trkpt><trkpt lon="5.806205" lat="51.078628"><ele>17.6</ele><time>2022-06-26T06:25:22.000Z</time></trkpt><trkpt lon="5.806217" lat="51.078583"><ele>17.6</ele><time>2022-06-26T06:25:23.000Z</time></trkpt><trkpt lon="5.806237" lat="51.078483"><ele>17.4</ele><time>2022-06-26T06:25:24.000Z</time></trkpt><trkpt lon="5.806242" lat="51.07844"><ele>17.4</ele><time>2022-06-26T06:25:25.000Z</time></trkpt><trkpt lon="5.806247" lat="51.078337"><ele>17.4</ele><time>2022-06-26T06:25:26.000Z</time></trkpt><trkpt lon="5.806245" lat="51.078286"><ele>17.4</ele><time>2022-06-26T06:25:27.000Z</time></trkpt><trkpt lon="5.80624" lat="51.078193"><ele>17.4</ele><time>2022-06-26T06:25:28.000Z</time></trkpt><trkpt lon="5.806235" lat="51.078156"><ele>17.4</ele><time>2022-06-26T06:25:29.000Z</time></trkpt><trkpt lon="5.806211" lat="51.078056"><ele>17.2</ele><time>2022-06-26T06:25:30.000Z</time></trkpt><trkpt lon="5.806192" lat="51.078013"><ele>17</ele><time>2022-06-26T06:25:31.000Z</time></trkpt><trkpt lon="5.806143" lat="51.077918"><ele>16.8</ele><time>2022-06-26T06:25:32.000Z</time></trkpt><trkpt lon="5.806123" lat="51.077877"><ele>16.6</ele><time>2022-06-26T06:25:33.000Z</time></trkpt><trkpt lon="5.806084" lat="51.077783"><ele>16.6</ele><time>2022-06-26T06:25:34.000Z</time></trkpt><trkpt lon="5.806072" lat="51.077736"><ele>16.6</ele><time>2022-06-26T06:25:35.000Z</time></trkpt><trkpt lon="5.806072" lat="51.07764"><ele>16.8</ele><time>2022-06-26T06:25:36.000Z</time></trkpt><trkpt lon="5.80609" lat="51.077594"><ele>17</ele><time>2022-06-26T06:25:37.000Z</time></trkpt><trkpt lon="5.806139" lat="51.077502"><ele>17</ele><time>2022-06-26T06:25:38.000Z</time></trkpt><trkpt lon="5.806165" lat="51.077466"><ele>17.2</ele><time>2022-06-26T06:25:39.000Z</time></trkpt><trkpt lon="5.806241" lat="51.077373"><ele>17.4</ele><time>2022-06-26T06:25:40.000Z</time></trkpt><trkpt lon="5.806277" lat="51.077333"><ele>17.4</ele><time>2022-06-26T06:25:41.000Z</time></trkpt><trkpt lon="5.806367" lat="51.077247"><ele>17.6</ele><time>2022-06-26T06:25:42.000Z</time></trkpt><trkpt lon="5.806409" lat="51.07721"><ele>17.6</ele><time>2022-06-26T06:25:43.000Z</time></trkpt><trkpt lon="5.806509" lat="51.077121"><ele>17.8</ele><time>2022-06-26T06:25:44.000Z</time></trkpt><trkpt lon="5.80655" lat="51.077085"><ele>17.8</ele><time>2022-06-26T06:25:45.000Z</time></trkpt><trkpt lon="5.806648" lat="51.076995"><ele>17.8</ele><time>2022-06-26T06:25:46.000Z</time></trkpt><trkpt lon="5.806691" lat="51.076952"><ele>17.8</ele><time>2022-06-26T06:25:47.000Z</time></trkpt><trkpt lon="5.806779" lat="51.076865"><ele>17.8</ele><time>2022-06-26T06:25:48.000Z</time></trkpt><trkpt lon="5.806818" lat="51.076827"><ele>17.6</ele><time>2022-06-26T06:25:49.000Z</time></trkpt><trkpt lon="5.806909" lat="51.076735"><ele>17.6</ele><time>2022-06-26T06:25:50.000Z</time></trkpt><trkpt lon="5.806949" lat="51.076697"><ele>17.6</ele><time>2022-06-26T06:25:51.000Z</time></trkpt><trkpt lon="5.807038" lat="51.076613"><ele>17.4</ele><time>2022-06-26T06:25:52.000Z</time></trkpt><trkpt lon="5.807082" lat="51.076571"><ele>17.4</ele><time>2022-06-26T06:25:53.000Z</time></trkpt><trkpt lon="5.807172" lat="51.076488"><ele>17.4</ele><time>2022-06-26T06:25:54.000Z</time></trkpt><trkpt lon="5.80721" lat="51.07645"><ele>17.4</ele><time>2022-06-26T06:25:55.000Z</time></trkpt><trkpt lon="5.807304" lat="51.076362"><ele>17.4</ele><time>2022-06-26T06:25:56.000Z</time></trkpt><trkpt lon="5.807348" lat="51.07632"><ele>17.4</ele><time>2022-06-26T06:25:57.000Z</time></trkpt><trkpt lon="5.807438" lat="51.076235"><ele>17.4</ele><time>2022-06-26T06:25:58.000Z</time></trkpt><trkpt lon="5.807479" lat="51.07619"><ele>17.4</ele><time>2022-06-26T06:25:59.000Z</time></trkpt><trkpt lon="5.807552" lat="51.076099"><ele>17.6</ele><time>2022-06-26T06:26:00.000Z</time></trkpt><trkpt lon="5.807579" lat="51.076059"><ele>17.6</ele><time>2022-06-26T06:26:01.000Z</time></trkpt><trkpt lon="5.807639" lat="51.075957"><ele>17.6</ele><time>2022-06-26T06:26:02.000Z</time></trkpt><trkpt lon="5.807661" lat="51.075912"><ele>17.6</ele><time>2022-06-26T06:26:03.000Z</time></trkpt><trkpt lon="5.807702" lat="51.075817"><ele>17.6</ele><time>2022-06-26T06:26:04.000Z</time></trkpt><trkpt lon="5.807718" lat="51.075774"><ele>17.8</ele><time>2022-06-26T06:26:05.000Z</time></trkpt><trkpt lon="5.807754" lat="51.075671"><ele>17.8</ele><time>2022-06-26T06:26:06.000Z</time></trkpt><trkpt lon="5.807768" lat="51.075623"><ele>17.8</ele><time>2022-06-26T06:26:07.000Z</time></trkpt><trkpt lon="5.807792" lat="51.075522"><ele>17.4</ele><time>2022-06-26T06:26:08.000Z</time></trkpt><trkpt lon="5.8078" lat="51.075474"><ele>17.2</ele><time>2022-06-26T06:26:09.000Z</time></trkpt><trkpt lon="5.807815" lat="51.075379"><ele>17</ele><time>2022-06-26T06:26:10.000Z</time></trkpt><trkpt lon="5.807822" lat="51.075342"><ele>16.8</ele><time>2022-06-26T06:26:11.000Z</time></trkpt><trkpt lon="5.807841" lat="51.075247"><ele>16.8</ele><time>2022-06-26T06:26:12.000Z</time></trkpt><trkpt lon="5.807852" lat="51.07519"><ele>17</ele><time>2022-06-26T06:26:13.000Z</time></trkpt><trkpt lon="5.807872" lat="51.075096"><ele>17</ele><time>2022-06-26T06:26:14.000Z</time></trkpt><trkpt lon="5.807878" lat="51.075055"><ele>17.2</ele><time>2022-06-26T06:26:15.000Z</time></trkpt><trkpt lon="5.807893" lat="51.074958"><ele>17.4</ele><time>2022-06-26T06:26:16.000Z</time></trkpt><trkpt lon="5.807899" lat="51.074913"><ele>17.6</ele><time>2022-06-26T06:26:17.000Z</time></trkpt><trkpt lon="5.807912" lat="51.074813"><ele>17.6</ele><time>2022-06-26T06:26:18.000Z</time></trkpt><trkpt lon="5.807917" lat="51.074774"><ele>17.6</ele><time>2022-06-26T06:26:19.000Z</time></trkpt><trkpt lon="5.807922" lat="51.074672"><ele>17.4</ele><time>2022-06-26T06:26:20.000Z</time></trkpt><trkpt lon="5.807918" lat="51.074632"><ele>17.2</ele><time>2022-06-26T06:26:21.000Z</time></trkpt><trkpt lon="5.807904" lat="51.074535"><ele>17</ele><time>2022-06-26T06:26:22.000Z</time></trkpt><trkpt lon="5.807897" lat="51.074481"><ele>17</ele><time>2022-06-26T06:26:23.000Z</time></trkpt><trkpt lon="5.80788" lat="51.074382"><ele>17.2</ele><time>2022-06-26T06:26:24.000Z</time></trkpt><trkpt lon="5.807872" lat="51.074345"><ele>17.2</ele><time>2022-06-26T06:26:25.000Z</time></trkpt><trkpt lon="5.807846" lat="51.074241"><ele>17.4</ele><time>2022-06-26T06:26:26.000Z</time></trkpt><trkpt lon="5.807834" lat="51.074204"><ele>17.4</ele><time>2022-06-26T06:26:27.000Z</time></trkpt><trkpt lon="5.807798" lat="51.074112"><ele>17.4</ele><time>2022-06-26T06:26:28.000Z</time></trkpt><trkpt lon="5.807774" lat="51.07406"><ele>17.6</ele><time>2022-06-26T06:26:29.000Z</time></trkpt><trkpt lon="5.807735" lat="51.073963"><ele>17.6</ele><time>2022-06-26T06:26:30.000Z</time></trkpt><trkpt lon="5.807719" lat="51.073921"><ele>17.6</ele><time>2022-06-26T06:26:31.000Z</time></trkpt><trkpt lon="5.807698" lat="51.073855"><ele>17.8</ele><time>2022-06-26T06:26:32.000Z</time></trkpt><trkpt lon="5.807671" lat="51.073748"><ele>17.8</ele><time>2022-06-26T06:26:33.000Z</time></trkpt><trkpt lon="5.807661" lat="51.073671"><ele>17.8</ele><time>2022-06-26T06:26:34.000Z</time></trkpt><trkpt lon="5.807655" lat="51.073593"><ele>17.8</ele><time>2022-06-26T06:26:35.000Z</time></trkpt><trkpt lon="5.807645" lat="51.073517"><ele>17.6</ele><time>2022-06-26T06:26:36.000Z</time></trkpt><trkpt lon="5.807633" lat="51.073443"><ele>17.2</ele><time>2022-06-26T06:26:37.000Z</time></trkpt><trkpt lon="5.80762" lat="51.07337"><ele>17.2</ele><time>2022-06-26T06:26:38.000Z</time></trkpt><trkpt lon="5.80761" lat="51.073294"><ele>17</ele><time>2022-06-26T06:26:39.000Z</time></trkpt><trkpt lon="5.807605" lat="51.073222"><ele>17</ele><time>2022-06-26T06:26:40.000Z</time></trkpt><trkpt lon="5.807602" lat="51.073149"><ele>17</ele><time>2022-06-26T06:26:41.000Z</time></trkpt><trkpt lon="5.807603" lat="51.073076"><ele>17</ele><time>2022-06-26T06:26:42.000Z</time></trkpt><trkpt lon="5.80761" lat="51.073"><ele>17.2</ele><time>2022-06-26T06:26:43.000Z</time></trkpt><trkpt lon="5.807611" lat="51.072924"><ele>17.2</ele><time>2022-06-26T06:26:44.000Z</time></trkpt><trkpt lon="5.807601" lat="51.072851"><ele>17.2</ele><time>2022-06-26T06:26:45.000Z</time></trkpt><trkpt lon="5.807578" lat="51.072775"><ele>17.2</ele><time>2022-06-26T06:26:46.000Z</time></trkpt><trkpt lon="5.807546" lat="51.072703"><ele>17.2</ele><time>2022-06-26T06:26:47.000Z</time></trkpt><trkpt lon="5.807512" lat="51.07263"><ele>17.2</ele><time>2022-06-26T06:26:48.000Z</time></trkpt><trkpt lon="5.807479" lat="51.072561"><ele>17.2</ele><time>2022-06-26T06:26:49.000Z</time></trkpt><trkpt lon="5.807449" lat="51.072485"><ele>17</ele><time>2022-06-26T06:26:50.000Z</time></trkpt><trkpt lon="5.807419" lat="51.072413"><ele>17</ele><time>2022-06-26T06:26:51.000Z</time></trkpt><trkpt lon="5.807387" lat="51.07234"><ele>17</ele><time>2022-06-26T06:26:52.000Z</time></trkpt><trkpt lon="5.807355" lat="51.072273"><ele>16.8</ele><time>2022-06-26T06:26:53.000Z</time></trkpt><trkpt lon="5.807323" lat="51.072199"><ele>16.8</ele><time>2022-06-26T06:26:54.000Z</time></trkpt><trkpt lon="5.807293" lat="51.072127"><ele>16.8</ele><time>2022-06-26T06:26:55.000Z</time></trkpt><trkpt lon="5.807261" lat="51.072058"><ele>17</ele><time>2022-06-26T06:26:56.000Z</time></trkpt><trkpt lon="5.807238" lat="51.071986"><ele>17</ele><time>2022-06-26T06:26:57.000Z</time></trkpt><trkpt lon="5.807222" lat="51.071909"><ele>17</ele><time>2022-06-26T06:26:58.000Z</time></trkpt><trkpt lon="5.807212" lat="51.071837"><ele>17</ele><time>2022-06-26T06:26:59.000Z</time></trkpt><trkpt lon="5.807205" lat="51.071764"><ele>17</ele><time>2022-06-26T06:27:00.000Z</time></trkpt><trkpt lon="5.807205" lat="51.071688"><ele>17</ele><time>2022-06-26T06:27:01.000Z</time></trkpt><trkpt lon="5.80721" lat="51.071616"><ele>17</ele><time>2022-06-26T06:27:02.000Z</time></trkpt><trkpt lon="5.807219" lat="51.071543"><ele>17.2</ele><time>2022-06-26T06:27:03.000Z</time></trkpt><trkpt lon="5.807227" lat="51.071467"><ele>17.2</ele><time>2022-06-26T06:27:04.000Z</time></trkpt><trkpt lon="5.807237" lat="51.071391"><ele>17.4</ele><time>2022-06-26T06:27:05.000Z</time></trkpt><trkpt lon="5.807245" lat="51.071318"><ele>17.4</ele><time>2022-06-26T06:27:06.000Z</time></trkpt><trkpt lon="5.807255" lat="51.071242"><ele>17.4</ele><time>2022-06-26T06:27:07.000Z</time></trkpt><trkpt lon="5.80726" lat="51.071167"><ele>17.4</ele><time>2022-06-26T06:27:08.000Z</time></trkpt><trkpt lon="5.807258" lat="51.071089"><ele>17.4</ele><time>2022-06-26T06:27:09.000Z</time></trkpt><trkpt lon="5.807246" lat="51.071013"><ele>17.6</ele><time>2022-06-26T06:27:10.000Z</time></trkpt><trkpt lon="5.807219" lat="51.07094"><ele>17.6</ele><time>2022-06-26T06:27:11.000Z</time></trkpt><trkpt lon="5.807172" lat="51.070872"><ele>17.8</ele><time>2022-06-26T06:27:12.000Z</time></trkpt><trkpt lon="5.807101" lat="51.070819"><ele>17.8</ele><time>2022-06-26T06:27:13.000Z</time></trkpt><trkpt lon="5.807027" lat="51.070771"><ele>17.6</ele><time>2022-06-26T06:27:14.000Z</time></trkpt><trkpt lon="5.806923" lat="51.070724"><ele>17.4</ele><time>2022-06-26T06:27:15.000Z</time></trkpt><trkpt lon="5.806833" lat="51.070684"><ele>17.4</ele><time>2022-06-26T06:27:16.000Z</time></trkpt><trkpt lon="5.806744" lat="51.070632"><ele>17.4</ele><time>2022-06-26T06:27:17.000Z</time></trkpt><trkpt lon="5.806681" lat="51.07057"><ele>17.6</ele><time>2022-06-26T06:27:18.000Z</time></trkpt><trkpt lon="5.80664" lat="51.070502"><ele>17.6</ele><time>2022-06-26T06:27:19.000Z</time></trkpt><trkpt lon="5.80661" lat="51.070436"><ele>17.6</ele><time>2022-06-26T06:27:20.000Z</time></trkpt><trkpt lon="5.80658" lat="51.070357"><ele>17.6</ele><time>2022-06-26T06:27:21.000Z</time></trkpt><trkpt lon="5.806551" lat="51.070286"><ele>17.6</ele><time>2022-06-26T06:27:22.000Z</time></trkpt><trkpt lon="5.806528" lat="51.070212"><ele>17.6</ele><time>2022-06-26T06:27:23.000Z</time></trkpt><trkpt lon="5.806503" lat="51.070136"><ele>17.6</ele><time>2022-06-26T06:27:24.000Z</time></trkpt><trkpt lon="5.80648" lat="51.070063"><ele>17.4</ele><time>2022-06-26T06:27:25.000Z</time></trkpt><trkpt lon="5.806459" lat="51.069992"><ele>17.4</ele><time>2022-06-26T06:27:26.000Z</time></trkpt><trkpt lon="5.806443" lat="51.069918"><ele>17.4</ele><time>2022-06-26T06:27:27.000Z</time></trkpt><trkpt lon="5.80643" lat="51.069842"><ele>17.6</ele><time>2022-06-26T06:27:28.000Z</time></trkpt><trkpt lon="5.806418" lat="51.069773"><ele>17.6</ele><time>2022-06-26T06:27:29.000Z</time></trkpt><trkpt lon="5.806407" lat="51.069714"><ele>17.8</ele><time>2022-06-26T06:27:30.000Z</time></trkpt><trkpt lon="5.806389" lat="51.069628"><ele>17.8</ele><time>2022-06-26T06:27:31.000Z</time></trkpt><trkpt lon="5.806373" lat="51.069558"><ele>18</ele><time>2022-06-26T06:27:32.000Z</time></trkpt><trkpt lon="5.806356" lat="51.069483"><ele>18</ele><time>2022-06-26T06:27:33.000Z</time></trkpt><trkpt lon="5.806346" lat="51.069417"><ele>18</ele><time>2022-06-26T06:27:34.000Z</time></trkpt><trkpt lon="5.806338" lat="51.06934"><ele>17.8</ele><time>2022-06-26T06:27:35.000Z</time></trkpt><trkpt lon="5.806333" lat="51.069278"><ele>17.8</ele><time>2022-06-26T06:27:36.000Z</time></trkpt><trkpt lon="5.806327" lat="51.069194"><ele>17.8</ele><time>2022-06-26T06:27:37.000Z</time></trkpt><trkpt lon="5.80632" lat="51.069117"><ele>17.6</ele><time>2022-06-26T06:27:38.000Z</time></trkpt><trkpt lon="5.80631" lat="51.069045"><ele>17.6</ele><time>2022-06-26T06:27:39.000Z</time></trkpt><trkpt lon="5.806295" lat="51.068972"><ele>17.6</ele><time>2022-06-26T06:27:40.000Z</time></trkpt><trkpt lon="5.806278" lat="51.068904"><ele>17.6</ele><time>2022-06-26T06:27:41.000Z</time></trkpt><trkpt lon="5.806266" lat="51.068846"><ele>17.8</ele><time>2022-06-26T06:27:42.000Z</time></trkpt><trkpt lon="5.806251" lat="51.068759"><ele>17.6</ele><time>2022-06-26T06:27:43.000Z</time></trkpt><trkpt lon="5.806245" lat="51.068686"><ele>17.4</ele><time>2022-06-26T06:27:44.000Z</time></trkpt><trkpt lon="5.806238" lat="51.068614"><ele>17.4</ele><time>2022-06-26T06:27:45.000Z</time></trkpt><trkpt lon="5.806227" lat="51.068541"><ele>17.4</ele><time>2022-06-26T06:27:46.000Z</time></trkpt><trkpt lon="5.806216" lat="51.068469"><ele>17.4</ele><time>2022-06-26T06:27:47.000Z</time></trkpt><trkpt lon="5.806204" lat="51.06841"><ele>17.4</ele><time>2022-06-26T06:27:48.000Z</time></trkpt><trkpt lon="5.80618" lat="51.068324"><ele>17.2</ele><time>2022-06-26T06:27:49.000Z</time></trkpt><trkpt lon="5.806151" lat="51.068255"><ele>17.4</ele><time>2022-06-26T06:27:50.000Z</time></trkpt><trkpt lon="5.806118" lat="51.068186"><ele>17.4</ele><time>2022-06-26T06:27:51.000Z</time></trkpt><trkpt lon="5.806084" lat="51.068114"><ele>17.2</ele><time>2022-06-26T06:27:52.000Z</time></trkpt><trkpt lon="5.806044" lat="51.068045"><ele>17.4</ele><time>2022-06-26T06:27:53.000Z</time></trkpt><trkpt lon="5.805999" lat="51.06798"><ele>17.6</ele><time>2022-06-26T06:27:54.000Z</time></trkpt><trkpt lon="5.805946" lat="51.067916"><ele>17.6</ele><time>2022-06-26T06:27:55.000Z</time></trkpt><trkpt lon="5.805901" lat="51.067866"><ele>17.6</ele><time>2022-06-26T06:27:56.000Z</time></trkpt><trkpt lon="5.805834" lat="51.067794"><ele>17.6</ele><time>2022-06-26T06:27:57.000Z</time></trkpt><trkpt lon="5.805787" lat="51.067745"><ele>17.6</ele><time>2022-06-26T06:27:58.000Z</time></trkpt><trkpt lon="5.805722" lat="51.067672"><ele>17.6</ele><time>2022-06-26T06:27:59.000Z</time></trkpt><trkpt lon="5.805673" lat="51.067616"><ele>17.6</ele><time>2022-06-26T06:28:00.000Z</time></trkpt><trkpt lon="5.805614" lat="51.067549"><ele>17.4</ele><time>2022-06-26T06:28:01.000Z</time></trkpt><trkpt lon="5.805561" lat="51.067485"><ele>17.4</ele><time>2022-06-26T06:28:02.000Z</time></trkpt><trkpt lon="5.805507" lat="51.067419"><ele>17.4</ele><time>2022-06-26T06:28:03.000Z</time></trkpt><trkpt lon="5.805455" lat="51.067359"><ele>17.4</ele><time>2022-06-26T06:28:04.000Z</time></trkpt><trkpt lon="5.805401" lat="51.067294"><ele>17.4</ele><time>2022-06-26T06:28:05.000Z</time></trkpt><trkpt lon="5.805352" lat="51.067237"><ele>17.6</ele><time>2022-06-26T06:28:06.000Z</time></trkpt><trkpt lon="5.805289" lat="51.067168"><ele>17.6</ele><time>2022-06-26T06:28:07.000Z</time></trkpt><trkpt lon="5.805236" lat="51.067109"><ele>17.8</ele><time>2022-06-26T06:28:08.000Z</time></trkpt><trkpt lon="5.805173" lat="51.067038"><ele>17.8</ele><time>2022-06-26T06:28:09.000Z</time></trkpt><trkpt lon="5.805117" lat="51.066973"><ele>17.8</ele><time>2022-06-26T06:28:10.000Z</time></trkpt><trkpt lon="5.805065" lat="51.066909"><ele>17.8</ele><time>2022-06-26T06:28:11.000Z</time></trkpt><trkpt lon="5.805025" lat="51.066858"><ele>17.6</ele><time>2022-06-26T06:28:12.000Z</time></trkpt><trkpt lon="5.804959" lat="51.066775"><ele>17.6</ele><time>2022-06-26T06:28:13.000Z</time></trkpt><trkpt lon="5.804909" lat="51.066706"><ele>17.6</ele><time>2022-06-26T06:28:14.000Z</time></trkpt><trkpt lon="5.80486" lat="51.066642"><ele>17.6</ele><time>2022-06-26T06:28:15.000Z</time></trkpt><trkpt lon="5.80482" lat="51.066586"><ele>17.6</ele><time>2022-06-26T06:28:16.000Z</time></trkpt><trkpt lon="5.804762" lat="51.066508"><ele>17.6</ele><time>2022-06-26T06:28:17.000Z</time></trkpt><trkpt lon="5.804717" lat="51.066451"><ele>17.8</ele><time>2022-06-26T06:28:18.000Z</time></trkpt><trkpt lon="5.804662" lat="51.066374"><ele>17.8</ele><time>2022-06-26T06:28:19.000Z</time></trkpt><trkpt lon="5.804618" lat="51.066306"><ele>17.8</ele><time>2022-06-26T06:28:20.000Z</time></trkpt><trkpt lon="5.804581" lat="51.066234"><ele>17.8</ele><time>2022-06-26T06:28:21.000Z</time></trkpt><trkpt lon="5.804557" lat="51.066184"><ele>17.8</ele><time>2022-06-26T06:28:22.000Z</time></trkpt><trkpt lon="5.804513" lat="51.066093"><ele>17.8</ele><time>2022-06-26T06:28:23.000Z</time></trkpt><trkpt lon="5.804487" lat="51.066041"><ele>17.8</ele><time>2022-06-26T06:28:24.000Z</time></trkpt><trkpt lon="5.804446" lat="51.065959"><ele>17.8</ele><time>2022-06-26T06:28:25.000Z</time></trkpt><trkpt lon="5.804417" lat="51.065907"><ele>18</ele><time>2022-06-26T06:28:26.000Z</time></trkpt><trkpt lon="5.804374" lat="51.065825"><ele>18</ele><time>2022-06-26T06:28:27.000Z</time></trkpt><trkpt lon="5.80434" lat="51.065761"><ele>18</ele><time>2022-06-26T06:28:28.000Z</time></trkpt><trkpt lon="5.804301" lat="51.065688"><ele>17.8</ele><time>2022-06-26T06:28:29.000Z</time></trkpt><trkpt lon="5.804276" lat="51.065641"><ele>17.8</ele><time>2022-06-26T06:28:30.000Z</time></trkpt><trkpt lon="5.804229" lat="51.065554"><ele>17.6</ele><time>2022-06-26T06:28:31.000Z</time></trkpt><trkpt lon="5.804199" lat="51.065499"><ele>17.6</ele><time>2022-06-26T06:28:32.000Z</time></trkpt><trkpt lon="5.804161" lat="51.065421"><ele>17.8</ele><time>2022-06-26T06:28:33.000Z</time></trkpt><trkpt lon="5.804139" lat="51.065367"><ele>17.8</ele><time>2022-06-26T06:28:34.000Z</time></trkpt><trkpt lon="5.804108" lat="51.065288"><ele>17.8</ele><time>2022-06-26T06:28:35.000Z</time></trkpt><trkpt lon="5.804093" lat="51.065235"><ele>17.8</ele><time>2022-06-26T06:28:36.000Z</time></trkpt><trkpt lon="5.804068" lat="51.065147"><ele>17.8</ele><time>2022-06-26T06:28:37.000Z</time></trkpt><trkpt lon="5.804052" lat="51.065089"><ele>17.8</ele><time>2022-06-26T06:28:38.000Z</time></trkpt><trkpt lon="5.804026" lat="51.065005"><ele>18</ele><time>2022-06-26T06:28:39.000Z</time></trkpt><trkpt lon="5.804013" lat="51.06495"><ele>17.8</ele><time>2022-06-26T06:28:40.000Z</time></trkpt><trkpt lon="5.803998" lat="51.064863"><ele>18</ele><time>2022-06-26T06:28:41.000Z</time></trkpt><trkpt lon="5.803989" lat="51.064799"><ele>18</ele><time>2022-06-26T06:28:42.000Z</time></trkpt><trkpt lon="5.803978" lat="51.064719"><ele>18</ele><time>2022-06-26T06:28:43.000Z</time></trkpt><trkpt lon="5.80397" lat="51.064669"><ele>18</ele><time>2022-06-26T06:28:44.000Z</time></trkpt><trkpt lon="5.803952" lat="51.064578"><ele>18</ele><time>2022-06-26T06:28:45.000Z</time></trkpt><trkpt lon="5.803937" lat="51.064511"><ele>18</ele><time>2022-06-26T06:28:46.000Z</time></trkpt><trkpt lon="5.80392" lat="51.064437"><ele>18</ele><time>2022-06-26T06:28:47.000Z</time></trkpt><trkpt lon="5.803904" lat="51.06437"><ele>18.2</ele><time>2022-06-26T06:28:48.000Z</time></trkpt><trkpt lon="5.803888" lat="51.064296"><ele>18</ele><time>2022-06-26T06:28:49.000Z</time></trkpt><trkpt lon="5.803876" lat="51.064252"><ele>18</ele><time>2022-06-26T06:28:50.000Z</time></trkpt><trkpt lon="5.803857" lat="51.064166"><ele>18.2</ele><time>2022-06-26T06:28:51.000Z</time></trkpt><trkpt lon="5.803859" lat="51.064124"><ele>18.2</ele><time>2022-06-26T06:28:52.000Z</time></trkpt><trkpt lon="5.803884" lat="51.064048"><ele>18.2</ele><time>2022-06-26T06:28:53.000Z</time></trkpt><trkpt lon="5.803911" lat="51.064002"><ele>18.4</ele><time>2022-06-26T06:28:54.000Z</time></trkpt><trkpt lon="5.80394" lat="51.063941"><ele>18.4</ele><time>2022-06-26T06:28:55.000Z</time></trkpt><trkpt lon="5.803954" lat="51.063892"><ele>18.4</ele><time>2022-06-26T06:28:56.000Z</time></trkpt><trkpt lon="5.803967" lat="51.063834"><ele>18.4</ele><time>2022-06-26T06:28:57.000Z</time></trkpt><trkpt lon="5.803988" lat="51.063782"><ele>18.4</ele><time>2022-06-26T06:28:58.000Z</time></trkpt><trkpt lon="5.804034" lat="51.063728"><ele>18.2</ele><time>2022-06-26T06:28:59.000Z</time></trkpt><trkpt lon="5.804079" lat="51.06369"><ele>18</ele><time>2022-06-26T06:29:00.000Z</time></trkpt><trkpt lon="5.804173" lat="51.063628"><ele>17.8</ele><time>2022-06-26T06:29:01.000Z</time></trkpt><trkpt lon="5.804242" lat="51.063588"><ele>17.6</ele><time>2022-06-26T06:29:02.000Z</time></trkpt><trkpt lon="5.80435" lat="51.063537"><ele>17.2</ele><time>2022-06-26T06:29:03.000Z</time></trkpt><trkpt lon="5.804425" lat="51.063504"><ele>17</ele><time>2022-06-26T06:29:04.000Z</time></trkpt><trkpt lon="5.804541" lat="51.063461"><ele>17</ele><time>2022-06-26T06:29:05.000Z</time></trkpt><trkpt lon="5.804614" lat="51.063437"><ele>16.8</ele><time>2022-06-26T06:29:06.000Z</time></trkpt><trkpt lon="5.80472" lat="51.063404"><ele>16.8</ele><time>2022-06-26T06:29:07.000Z</time></trkpt><trkpt lon="5.80478" lat="51.06338"><ele>16.8</ele><time>2022-06-26T06:29:08.000Z</time></trkpt><trkpt lon="5.804843" lat="51.063335"><ele>16.6</ele><time>2022-06-26T06:29:09.000Z</time></trkpt><trkpt lon="5.804843" lat="51.063302"><ele>16.6</ele><time>2022-06-26T06:29:10.000Z</time></trkpt><trkpt lon="5.804809" lat="51.063239"><ele>16.4</ele><time>2022-06-26T06:29:11.000Z</time></trkpt><trkpt lon="5.804772" lat="51.0632"><ele>16.4</ele><time>2022-06-26T06:29:12.000Z</time></trkpt><trkpt lon="5.804714" lat="51.063148"><ele>16.2</ele><time>2022-06-26T06:29:13.000Z</time></trkpt><trkpt lon="5.80467" lat="51.063112"><ele>16.2</ele><time>2022-06-26T06:29:14.000Z</time></trkpt><trkpt lon="5.804589" lat="51.063053"><ele>15.8</ele><time>2022-06-26T06:29:15.000Z</time></trkpt><trkpt lon="5.804546" lat="51.063023"><ele>15.8</ele><time>2022-06-26T06:29:16.000Z</time></trkpt><trkpt lon="5.804466" lat="51.062966"><ele>16</ele><time>2022-06-26T06:29:17.000Z</time></trkpt><trkpt lon="5.804419" lat="51.06293"><ele>15.8</ele><time>2022-06-26T06:29:18.000Z</time></trkpt><trkpt lon="5.804353" lat="51.062865"><ele>15.8</ele><time>2022-06-26T06:29:19.000Z</time></trkpt><trkpt lon="5.804327" lat="51.06282"><ele>15.8</ele><time>2022-06-26T06:29:20.000Z</time></trkpt><trkpt lon="5.804303" lat="51.062735"><ele>15.8</ele><time>2022-06-26T06:29:21.000Z</time></trkpt><trkpt lon="5.804313" lat="51.062682"><ele>16</ele><time>2022-06-26T06:29:22.000Z</time></trkpt><trkpt lon="5.804342" lat="51.062602"><ele>16.2</ele><time>2022-06-26T06:29:23.000Z</time></trkpt><trkpt lon="5.804363" lat="51.062559"><ele>16.2</ele><time>2022-06-26T06:29:24.000Z</time></trkpt><trkpt lon="5.804404" lat="51.062477"><ele>16.2</ele><time>2022-06-26T06:29:25.000Z</time></trkpt><trkpt lon="5.804424" lat="51.062433"><ele>16.2</ele><time>2022-06-26T06:29:26.000Z</time></trkpt><trkpt lon="5.80446" lat="51.062354"><ele>16.2</ele><time>2022-06-26T06:29:27.000Z</time></trkpt><trkpt lon="5.804488" lat="51.062299"><ele>16.2</ele><time>2022-06-26T06:29:28.000Z</time></trkpt><trkpt lon="5.804524" lat="51.062232"><ele>16.2</ele><time>2022-06-26T06:29:29.000Z</time></trkpt><trkpt lon="5.804549" lat="51.062183"><ele>16.2</ele><time>2022-06-26T06:29:30.000Z</time></trkpt><trkpt lon="5.804591" lat="51.062106"><ele>16.2</ele><time>2022-06-26T06:29:31.000Z</time></trkpt><trkpt lon="5.804611" lat="51.062069"><ele>16.2</ele><time>2022-06-26T06:29:32.000Z</time></trkpt><trkpt lon="5.804652" lat="51.061991"><ele>16.4</ele><time>2022-06-26T06:29:33.000Z</time></trkpt><trkpt lon="5.804675" lat="51.061944"><ele>16.4</ele><time>2022-06-26T06:29:34.000Z</time></trkpt><trkpt lon="5.804714" lat="51.061877"><ele>16.6</ele><time>2022-06-26T06:29:35.000Z</time></trkpt><trkpt lon="5.804735" lat="51.061841"><ele>16.8</ele><time>2022-06-26T06:29:36.000Z</time></trkpt><trkpt lon="5.804767" lat="51.061778"><ele>16.8</ele><time>2022-06-26T06:29:37.000Z</time></trkpt><trkpt lon="5.804767" lat="51.061748"><ele>17</ele><time>2022-06-26T06:29:38.000Z</time></trkpt><trkpt lon="5.80473" lat="51.061706"><ele>17</ele><time>2022-06-26T06:29:39.000Z</time></trkpt><trkpt lon="5.804674" lat="51.061683"><ele>17.2</ele><time>2022-06-26T06:29:40.000Z</time></trkpt><trkpt lon="5.804616" lat="51.06167"><ele>17.2</ele><time>2022-06-26T06:29:41.000Z</time></trkpt><trkpt lon="5.804503" lat="51.061641"><ele>17.2</ele><time>2022-06-26T06:29:42.000Z</time></trkpt><trkpt lon="5.804432" lat="51.061623"><ele>17</ele><time>2022-06-26T06:29:43.000Z</time></trkpt><trkpt lon="5.804322" lat="51.061596"><ele>17</ele><time>2022-06-26T06:29:44.000Z</time></trkpt><trkpt lon="5.804257" lat="51.061579"><ele>17</ele><time>2022-06-26T06:29:45.000Z</time></trkpt><trkpt lon="5.804139" lat="51.061546"><ele>16.8</ele><time>2022-06-26T06:29:46.000Z</time></trkpt><trkpt lon="5.804076" lat="51.06153"><ele>16.8</ele><time>2022-06-26T06:29:47.000Z</time></trkpt><trkpt lon="5.803957" lat="51.0615"><ele>17</ele><time>2022-06-26T06:29:48.000Z</time></trkpt><trkpt lon="5.803896" lat="51.061484"><ele>17</ele><time>2022-06-26T06:29:49.000Z</time></trkpt><trkpt lon="5.803793" lat="51.06145"><ele>17.2</ele><time>2022-06-26T06:29:50.000Z</time></trkpt><trkpt lon="5.80375" lat="51.061425"><ele>17.4</ele><time>2022-06-26T06:29:51.000Z</time></trkpt><trkpt lon="5.8037" lat="51.061374"><ele>17.6</ele><time>2022-06-26T06:29:52.000Z</time></trkpt><trkpt lon="5.803696" lat="51.061335"><ele>17.6</ele><time>2022-06-26T06:29:53.000Z</time></trkpt><trkpt lon="5.803699" lat="51.061259"><ele>17.6</ele><time>2022-06-26T06:29:54.000Z</time></trkpt><trkpt lon="5.803701" lat="51.061214"><ele>17.6</ele><time>2022-06-26T06:29:55.000Z</time></trkpt><trkpt lon="5.803703" lat="51.061126"><ele>17.6</ele><time>2022-06-26T06:29:56.000Z</time></trkpt><trkpt lon="5.803705" lat="51.061078"><ele>17.4</ele><time>2022-06-26T06:29:57.000Z</time></trkpt><trkpt lon="5.803703" lat="51.060996"><ele>17.4</ele><time>2022-06-26T06:29:58.000Z</time></trkpt><trkpt lon="5.803701" lat="51.060946"><ele>17.2</ele><time>2022-06-26T06:29:59.000Z</time></trkpt><trkpt lon="5.803693" lat="51.060859"><ele>17.2</ele><time>2022-06-26T06:30:00.000Z</time></trkpt><trkpt lon="5.803685" lat="51.060811"><ele>17.2</ele><time>2022-06-26T06:30:01.000Z</time></trkpt><trkpt lon="5.803672" lat="51.060717"><ele>17.4</ele><time>2022-06-26T06:30:02.000Z</time></trkpt><trkpt lon="5.803665" lat="51.06066"><ele>17.4</ele><time>2022-06-26T06:30:03.000Z</time></trkpt><trkpt lon="5.803655" lat="51.060576"><ele>17.4</ele><time>2022-06-26T06:30:04.000Z</time></trkpt><trkpt lon="5.80365" lat="51.060535"><ele>17.4</ele><time>2022-06-26T06:30:05.000Z</time></trkpt><trkpt lon="5.80364" lat="51.060435"><ele>17.4</ele><time>2022-06-26T06:30:06.000Z</time></trkpt><trkpt lon="5.803635" lat="51.060388"><ele>17.4</ele><time>2022-06-26T06:30:07.000Z</time></trkpt><trkpt lon="5.80363" lat="51.060294"><ele>17.2</ele><time>2022-06-26T06:30:08.000Z</time></trkpt><trkpt lon="5.80363" lat="51.060249"><ele>17.2</ele><time>2022-06-26T06:30:09.000Z</time></trkpt><trkpt lon="5.80363" lat="51.060153"><ele>17.2</ele><time>2022-06-26T06:30:10.000Z</time></trkpt><trkpt lon="5.803629" lat="51.06011"><ele>17.2</ele><time>2022-06-26T06:30:11.000Z</time></trkpt><trkpt lon="5.803625" lat="51.060015"><ele>17.2</ele><time>2022-06-26T06:30:12.000Z</time></trkpt><trkpt lon="5.803622" lat="51.05997"><ele>17</ele><time>2022-06-26T06:30:13.000Z</time></trkpt><trkpt lon="5.803613" lat="51.059874"><ele>17</ele><time>2022-06-26T06:30:14.000Z</time></trkpt><trkpt lon="5.80361" lat="51.059828"><ele>17</ele><time>2022-06-26T06:30:15.000Z</time></trkpt><trkpt lon="5.803603" lat="51.05973"><ele>17</ele><time>2022-06-26T06:30:16.000Z</time></trkpt><trkpt lon="5.8036" lat="51.059685"><ele>17</ele><time>2022-06-26T06:30:17.000Z</time></trkpt><trkpt lon="5.803592" lat="51.059587"><ele>17</ele><time>2022-06-26T06:30:18.000Z</time></trkpt><trkpt lon="5.803587" lat="51.059547"><ele>17.2</ele><time>2022-06-26T06:30:19.000Z</time></trkpt><trkpt lon="5.803566" lat="51.059443"><ele>17.2</ele><time>2022-06-26T06:30:20.000Z</time></trkpt><trkpt lon="5.803549" lat="51.059394"><ele>17.2</ele><time>2022-06-26T06:30:21.000Z</time></trkpt><trkpt lon="5.803516" lat="51.059302"><ele>17.2</ele><time>2022-06-26T06:30:22.000Z</time></trkpt><trkpt lon="5.803499" lat="51.059258"><ele>17.2</ele><time>2022-06-26T06:30:23.000Z</time></trkpt><trkpt lon="5.803458" lat="51.059161"><ele>17.2</ele><time>2022-06-26T06:30:24.000Z</time></trkpt><trkpt lon="5.803435" lat="51.059118"><ele>17.2</ele><time>2022-06-26T06:30:25.000Z</time></trkpt><trkpt lon="5.803378" lat="51.059024"><ele>17.2</ele><time>2022-06-26T06:30:26.000Z</time></trkpt><trkpt lon="5.803352" lat="51.058987"><ele>17.2</ele><time>2022-06-26T06:30:27.000Z</time></trkpt><trkpt lon="5.803286" lat="51.05889"><ele>17.2</ele><time>2022-06-26T06:30:28.000Z</time></trkpt><trkpt lon="5.803258" lat="51.058854"><ele>17.2</ele><time>2022-06-26T06:30:29.000Z</time></trkpt><trkpt lon="5.803191" lat="51.058757"><ele>17</ele><time>2022-06-26T06:30:30.000Z</time></trkpt><trkpt lon="5.803159" lat="51.058711"><ele>17.2</ele><time>2022-06-26T06:30:31.000Z</time></trkpt><trkpt lon="5.803094" lat="51.05862"><ele>17.2</ele><time>2022-06-26T06:30:32.000Z</time></trkpt><trkpt lon="5.803064" lat="51.058579"><ele>17.4</ele><time>2022-06-26T06:30:33.000Z</time></trkpt><trkpt lon="5.802992" lat="51.058486"><ele>17.4</ele><time>2022-06-26T06:30:34.000Z</time></trkpt><trkpt lon="5.802961" lat="51.058448"><ele>17.4</ele><time>2022-06-26T06:30:35.000Z</time></trkpt><trkpt lon="5.802883" lat="51.058353"><ele>17.4</ele><time>2022-06-26T06:30:36.000Z</time></trkpt><trkpt lon="5.802845" lat="51.058316"><ele>17.6</ele><time>2022-06-26T06:30:37.000Z</time></trkpt><trkpt lon="5.802754" lat="51.058238"><ele>18</ele><time>2022-06-26T06:30:38.000Z</time></trkpt><trkpt lon="5.802709" lat="51.0582"><ele>18</ele><time>2022-06-26T06:30:39.000Z</time></trkpt><trkpt lon="5.802613" lat="51.058132"><ele>18</ele><time>2022-06-26T06:30:40.000Z</time></trkpt><trkpt lon="5.802572" lat="51.058105"><ele>17.8</ele><time>2022-06-26T06:30:41.000Z</time></trkpt><trkpt lon="5.802458" lat="51.058037"><ele>17.8</ele><time>2022-06-26T06:30:42.000Z</time></trkpt><trkpt lon="5.802405" lat="51.058003"><ele>17.8</ele><time>2022-06-26T06:30:43.000Z</time></trkpt><trkpt lon="5.802305" lat="51.057941"><ele>17.8</ele><time>2022-06-26T06:30:44.000Z</time></trkpt><trkpt lon="5.80226" lat="51.057914"><ele>17.8</ele><time>2022-06-26T06:30:45.000Z</time></trkpt><trkpt lon="5.802153" lat="51.057846"><ele>18</ele><time>2022-06-26T06:30:46.000Z</time></trkpt><trkpt lon="5.802108" lat="51.057815"><ele>18</ele><time>2022-06-26T06:30:47.000Z</time></trkpt><trkpt lon="5.802006" lat="51.057746"><ele>18.2</ele><time>2022-06-26T06:30:48.000Z</time></trkpt><trkpt lon="5.801959" lat="51.057713"><ele>18.2</ele><time>2022-06-26T06:30:49.000Z</time></trkpt><trkpt lon="5.801862" lat="51.057651"><ele>18.2</ele><time>2022-06-26T06:30:50.000Z</time></trkpt><trkpt lon="5.801823" lat="51.057628"><ele>18.2</ele><time>2022-06-26T06:30:51.000Z</time></trkpt><trkpt lon="5.801728" lat="51.05757"><ele>18.2</ele><time>2022-06-26T06:30:52.000Z</time></trkpt><trkpt lon="5.801674" lat="51.057536"><ele>18.4</ele><time>2022-06-26T06:30:53.000Z</time></trkpt><trkpt lon="5.801566" lat="51.057464"><ele>18.4</ele><time>2022-06-26T06:30:54.000Z</time></trkpt><trkpt lon="5.801518" lat="51.057434"><ele>18.4</ele><time>2022-06-26T06:30:55.000Z</time></trkpt><trkpt lon="5.801394" lat="51.057361"><ele>18.2</ele><time>2022-06-26T06:30:56.000Z</time></trkpt><trkpt lon="5.801338" lat="51.057324"><ele>18.2</ele><time>2022-06-26T06:30:57.000Z</time></trkpt><trkpt lon="5.801233" lat="51.057258"><ele>18.2</ele><time>2022-06-26T06:30:58.000Z</time></trkpt><trkpt lon="5.801186" lat="51.057231"><ele>18.4</ele><time>2022-06-26T06:30:59.000Z</time></trkpt><trkpt lon="5.801077" lat="51.05717"><ele>18.4</ele><time>2022-06-26T06:31:00.000Z</time></trkpt><trkpt lon="5.801028" lat="51.057142"><ele>18.4</ele><time>2022-06-26T06:31:01.000Z</time></trkpt><trkpt lon="5.80093" lat="51.057084"><ele>18.4</ele><time>2022-06-26T06:31:02.000Z</time></trkpt><trkpt lon="5.80088" lat="51.057059"><ele>18.4</ele><time>2022-06-26T06:31:03.000Z</time></trkpt><trkpt lon="5.800757" lat="51.056995"><ele>18.6</ele><time>2022-06-26T06:31:04.000Z</time></trkpt><trkpt lon="5.800707" lat="51.056971"><ele>18.6</ele><time>2022-06-26T06:31:05.000Z</time></trkpt><trkpt lon="5.800631" lat="51.056934"><ele>18.6</ele><time>2022-06-26T06:31:06.000Z</time></trkpt><trkpt lon="5.800488" lat="51.056862"><ele>18.4</ele><time>2022-06-26T06:31:07.000Z</time></trkpt><trkpt lon="5.800434" lat="51.056835"><ele>18.6</ele><time>2022-06-26T06:31:08.000Z</time></trkpt><trkpt lon="5.800295" lat="51.05677"><ele>18.6</ele><time>2022-06-26T06:31:09.000Z</time></trkpt><trkpt lon="5.800243" lat="51.056745"><ele>18.6</ele><time>2022-06-26T06:31:10.000Z</time></trkpt><trkpt lon="5.800101" lat="51.056678"><ele>18.4</ele><time>2022-06-26T06:31:11.000Z</time></trkpt><trkpt lon="5.800039" lat="51.056649"><ele>18.4</ele><time>2022-06-26T06:31:12.000Z</time></trkpt><trkpt lon="5.799907" lat="51.056587"><ele>18.6</ele><time>2022-06-26T06:31:13.000Z</time></trkpt><trkpt lon="5.799844" lat="51.056561"><ele>18.4</ele><time>2022-06-26T06:31:14.000Z</time></trkpt><trkpt lon="5.799701" lat="51.056511"><ele>18.6</ele><time>2022-06-26T06:31:15.000Z</time></trkpt><trkpt lon="5.799641" lat="51.056491"><ele>18.6</ele><time>2022-06-26T06:31:16.000Z</time></trkpt><trkpt lon="5.799484" lat="51.056438"><ele>18.4</ele><time>2022-06-26T06:31:17.000Z</time></trkpt><trkpt lon="5.799422" lat="51.056423"><ele>18.4</ele><time>2022-06-26T06:31:18.000Z</time></trkpt><trkpt lon="5.799266" lat="51.056381"><ele>18.4</ele><time>2022-06-26T06:31:19.000Z</time></trkpt><trkpt lon="5.799205" lat="51.056362"><ele>18.4</ele><time>2022-06-26T06:31:20.000Z</time></trkpt><trkpt lon="5.799066" lat="51.056325"><ele>18.6</ele><time>2022-06-26T06:31:21.000Z</time></trkpt><trkpt lon="5.798982" lat="51.056305"><ele>18.6</ele><time>2022-06-26T06:31:22.000Z</time></trkpt><trkpt lon="5.798823" lat="51.056267"><ele>18.4</ele><time>2022-06-26T06:31:23.000Z</time></trkpt><trkpt lon="5.798755" lat="51.056251"><ele>18.2</ele><time>2022-06-26T06:31:24.000Z</time></trkpt><trkpt lon="5.798597" lat="51.056209"><ele>18</ele><time>2022-06-26T06:31:25.000Z</time></trkpt><trkpt lon="5.798535" lat="51.056192"><ele>18</ele><time>2022-06-26T06:31:26.000Z</time></trkpt><trkpt lon="5.798379" lat="51.056152"><ele>18</ele><time>2022-06-26T06:31:27.000Z</time></trkpt><trkpt lon="5.79832" lat="51.056136"><ele>18</ele><time>2022-06-26T06:31:28.000Z</time></trkpt><trkpt lon="5.798162" lat="51.056091"><ele>18</ele><time>2022-06-26T06:31:29.000Z</time></trkpt><trkpt lon="5.798097" lat="51.056076"><ele>18</ele><time>2022-06-26T06:31:30.000Z</time></trkpt><trkpt lon="5.797941" lat="51.056037"><ele>18</ele><time>2022-06-26T06:31:31.000Z</time></trkpt><trkpt lon="5.797877" lat="51.056022"><ele>18</ele><time>2022-06-26T06:31:32.000Z</time></trkpt><trkpt lon="5.797726" lat="51.055984"><ele>18</ele><time>2022-06-26T06:31:33.000Z</time></trkpt><trkpt lon="5.79767" lat="51.05597"><ele>18</ele><time>2022-06-26T06:31:34.000Z</time></trkpt><trkpt lon="5.797515" lat="51.055931"><ele>18.2</ele><time>2022-06-26T06:31:35.000Z</time></trkpt><trkpt lon="5.797454" lat="51.055913"><ele>18</ele><time>2022-06-26T06:31:36.000Z</time></trkpt><trkpt lon="5.797306" lat="51.05587"><ele>17.8</ele><time>2022-06-26T06:31:37.000Z</time></trkpt><trkpt lon="5.797241" lat="51.055853"><ele>17.8</ele><time>2022-06-26T06:31:38.000Z</time></trkpt><trkpt lon="5.797093" lat="51.05582"><ele>17.6</ele><time>2022-06-26T06:31:39.000Z</time></trkpt><trkpt lon="5.797034" lat="51.055804"><ele>17.6</ele><time>2022-06-26T06:31:40.000Z</time></trkpt><trkpt lon="5.79689" lat="51.055771"><ele>17.6</ele><time>2022-06-26T06:31:41.000Z</time></trkpt><trkpt lon="5.796822" lat="51.055758"><ele>17.8</ele><time>2022-06-26T06:31:42.000Z</time></trkpt><trkpt lon="5.796673" lat="51.055725"><ele>17.8</ele><time>2022-06-26T06:31:43.000Z</time></trkpt><trkpt lon="5.796607" lat="51.055708"><ele>17.8</ele><time>2022-06-26T06:31:44.000Z</time></trkpt><trkpt lon="5.796462" lat="51.055671"><ele>17.8</ele><time>2022-06-26T06:31:45.000Z</time></trkpt><trkpt lon="5.796404" lat="51.055656"><ele>17.8</ele><time>2022-06-26T06:31:46.000Z</time></trkpt><trkpt lon="5.796256" lat="51.055618"><ele>17.8</ele><time>2022-06-26T06:31:47.000Z</time></trkpt><trkpt lon="5.7962" lat="51.055602"><ele>17.8</ele><time>2022-06-26T06:31:48.000Z</time></trkpt><trkpt lon="5.796046" lat="51.055557"><ele>17.8</ele><time>2022-06-26T06:31:49.000Z</time></trkpt><trkpt lon="5.795986" lat="51.055539"><ele>17.6</ele><time>2022-06-26T06:31:50.000Z</time></trkpt><trkpt lon="5.795837" lat="51.055492"><ele>17.6</ele><time>2022-06-26T06:31:51.000Z</time></trkpt><trkpt lon="5.795785" lat="51.055473"><ele>17.6</ele><time>2022-06-26T06:31:52.000Z</time></trkpt><trkpt lon="5.79565" lat="51.055422"><ele>17.6</ele><time>2022-06-26T06:31:53.000Z</time></trkpt><trkpt lon="5.795578" lat="51.055395"><ele>17.6</ele><time>2022-06-26T06:31:54.000Z</time></trkpt><trkpt lon="5.795445" lat="51.05534"><ele>17.6</ele><time>2022-06-26T06:31:55.000Z</time></trkpt><trkpt lon="5.795391" lat="51.055314"><ele>17.6</ele><time>2022-06-26T06:31:56.000Z</time></trkpt><trkpt lon="5.795268" lat="51.055241"><ele>17.6</ele><time>2022-06-26T06:31:57.000Z</time></trkpt><trkpt lon="5.795217" lat="51.05521"><ele>17.4</ele><time>2022-06-26T06:31:58.000Z</time></trkpt><trkpt lon="5.795093" lat="51.05513"><ele>17.4</ele><time>2022-06-26T06:31:59.000Z</time></trkpt><trkpt lon="5.795043" lat="51.055099"><ele>17.2</ele><time>2022-06-26T06:32:00.000Z</time></trkpt><trkpt lon="5.794906" lat="51.055015"><ele>17</ele><time>2022-06-26T06:32:01.000Z</time></trkpt><trkpt lon="5.794847" lat="51.054979"><ele>17</ele><time>2022-06-26T06:32:02.000Z</time></trkpt><trkpt lon="5.794723" lat="51.054904"><ele>17.4</ele><time>2022-06-26T06:32:03.000Z</time></trkpt><trkpt lon="5.794677" lat="51.054877"><ele>17.6</ele><time>2022-06-26T06:32:04.000Z</time></trkpt><trkpt lon="5.794631" lat="51.054849"><ele>17.6</ele><time>2022-06-26T06:32:05.000Z</time></trkpt><trkpt lon="5.794585" lat="51.054821"><ele>17.6</ele><time>2022-06-26T06:32:06.000Z</time></trkpt><trkpt lon="5.794534" lat="51.05479"><ele>17.4</ele><time>2022-06-26T06:32:07.000Z</time></trkpt><trkpt lon="5.794463" lat="51.05474"><ele>17.4</ele><time>2022-06-26T06:32:08.000Z</time></trkpt><trkpt lon="5.794391" lat="51.054691"><ele>17.4</ele><time>2022-06-26T06:32:09.000Z</time></trkpt><trkpt lon="5.794258" lat="51.054605"><ele>17.2</ele><time>2022-06-26T06:32:10.000Z</time></trkpt><trkpt lon="5.794121" lat="51.054518"><ele>17.4</ele><time>2022-06-26T06:32:11.000Z</time></trkpt><trkpt lon="5.794044" lat="51.054472"><ele>17.6</ele><time>2022-06-26T06:32:12.000Z</time></trkpt><trkpt lon="5.793877" lat="51.054374"><ele>17.4</ele><time>2022-06-26T06:32:13.000Z</time></trkpt><trkpt lon="5.793797" lat="51.054322"><ele>17.6</ele><time>2022-06-26T06:32:14.000Z</time></trkpt><trkpt lon="5.793707" lat="51.054271"><ele>17.6</ele><time>2022-06-26T06:32:15.000Z</time></trkpt><trkpt lon="5.793657" lat="51.054241"><ele>17.4</ele><time>2022-06-26T06:32:16.000Z</time></trkpt><trkpt lon="5.793553" lat="51.054175"><ele>17.4</ele><time>2022-06-26T06:32:17.000Z</time></trkpt><trkpt lon="5.793486" lat="51.054131"><ele>17.6</ele><time>2022-06-26T06:32:18.000Z</time></trkpt><trkpt lon="5.793369" lat="51.054057"><ele>17.6</ele><time>2022-06-26T06:32:19.000Z</time></trkpt><trkpt lon="5.793319" lat="51.054025"><ele>17.6</ele><time>2022-06-26T06:32:20.000Z</time></trkpt><trkpt lon="5.793197" lat="51.053947"><ele>17.6</ele><time>2022-06-26T06:32:21.000Z</time></trkpt><trkpt lon="5.793145" lat="51.053917"><ele>17.4</ele><time>2022-06-26T06:32:22.000Z</time></trkpt><trkpt lon="5.793025" lat="51.053844"><ele>17.4</ele><time>2022-06-26T06:32:23.000Z</time></trkpt><trkpt lon="5.792973" lat="51.053811"><ele>17.4</ele><time>2022-06-26T06:32:24.000Z</time></trkpt><trkpt lon="5.792857" lat="51.053733"><ele>17.4</ele><time>2022-06-26T06:32:25.000Z</time></trkpt><trkpt lon="5.792811" lat="51.053698"><ele>17.4</ele><time>2022-06-26T06:32:26.000Z</time></trkpt><trkpt lon="5.792708" lat="51.053618"><ele>17.4</ele><time>2022-06-26T06:32:27.000Z</time></trkpt><trkpt lon="5.792661" lat="51.053576"><ele>17.2</ele><time>2022-06-26T06:32:28.000Z</time></trkpt><trkpt lon="5.792579" lat="51.053493"><ele>17.2</ele><time>2022-06-26T06:32:29.000Z</time></trkpt><trkpt lon="5.792543" lat="51.053457"><ele>17</ele><time>2022-06-26T06:32:30.000Z</time></trkpt><trkpt lon="5.792459" lat="51.053368"><ele>17</ele><time>2022-06-26T06:32:31.000Z</time></trkpt><trkpt lon="5.792419" lat="51.053329"><ele>17</ele><time>2022-06-26T06:32:32.000Z</time></trkpt><trkpt lon="5.792336" lat="51.053241"><ele>16.8</ele><time>2022-06-26T06:32:33.000Z</time></trkpt><trkpt lon="5.792299" lat="51.053201"><ele>16.8</ele><time>2022-06-26T06:32:34.000Z</time></trkpt><trkpt lon="5.792218" lat="51.053108"><ele>16.8</ele><time>2022-06-26T06:32:35.000Z</time></trkpt><trkpt lon="5.792176" lat="51.053064"><ele>16.8</ele><time>2022-06-26T06:32:36.000Z</time></trkpt><trkpt lon="5.792094" lat="51.052977"><ele>16.8</ele><time>2022-06-26T06:32:37.000Z</time></trkpt><trkpt lon="5.792053" lat="51.052935"><ele>16.6</ele><time>2022-06-26T06:32:38.000Z</time></trkpt><trkpt lon="5.791969" lat="51.052844"><ele>16.6</ele><time>2022-06-26T06:32:39.000Z</time></trkpt><trkpt lon="5.791926" lat="51.052799"><ele>16.6</ele><time>2022-06-26T06:32:40.000Z</time></trkpt><trkpt lon="5.791846" lat="51.052715"><ele>16.6</ele><time>2022-06-26T06:32:41.000Z</time></trkpt><trkpt lon="5.791811" lat="51.052678"><ele>16.6</ele><time>2022-06-26T06:32:42.000Z</time></trkpt><trkpt lon="5.791725" lat="51.052585"><ele>16.6</ele><time>2022-06-26T06:32:43.000Z</time></trkpt><trkpt lon="5.791681" lat="51.05254"><ele>16.6</ele><time>2022-06-26T06:32:44.000Z</time></trkpt><trkpt lon="5.791599" lat="51.052455"><ele>16.6</ele><time>2022-06-26T06:32:45.000Z</time></trkpt><trkpt lon="5.791563" lat="51.052415"><ele>16.6</ele><time>2022-06-26T06:32:46.000Z</time></trkpt><trkpt lon="5.791479" lat="51.052329"><ele>16.6</ele><time>2022-06-26T06:32:47.000Z</time></trkpt><trkpt lon="5.791437" lat="51.052285"><ele>16.6</ele><time>2022-06-26T06:32:48.000Z</time></trkpt><trkpt lon="5.791358" lat="51.052199"><ele>16.6</ele><time>2022-06-26T06:32:49.000Z</time></trkpt><trkpt lon="5.791322" lat="51.052163"><ele>16.6</ele><time>2022-06-26T06:32:50.000Z</time></trkpt><trkpt lon="5.791236" lat="51.052078"><ele>16.6</ele><time>2022-06-26T06:32:51.000Z</time></trkpt><trkpt lon="5.791202" lat="51.052039"><ele>16.6</ele><time>2022-06-26T06:32:52.000Z</time></trkpt><trkpt lon="5.791119" lat="51.051948"><ele>16.6</ele><time>2022-06-26T06:32:53.000Z</time></trkpt><trkpt lon="5.791085" lat="51.051912"><ele>16.6</ele><time>2022-06-26T06:32:54.000Z</time></trkpt><trkpt lon="5.791004" lat="51.051826"><ele>16.6</ele><time>2022-06-26T06:32:55.000Z</time></trkpt><trkpt lon="5.790975" lat="51.051786"><ele>16.6</ele><time>2022-06-26T06:32:56.000Z</time></trkpt><trkpt lon="5.790933" lat="51.051699"><ele>16.6</ele><time>2022-06-26T06:32:57.000Z</time></trkpt><trkpt lon="5.790931" lat="51.051659"><ele>16.6</ele><time>2022-06-26T06:32:58.000Z</time></trkpt><trkpt lon="5.790921" lat="51.051558"><ele>16.4</ele><time>2022-06-26T06:32:59.000Z</time></trkpt><trkpt lon="5.790906" lat="51.051504"><ele>16.4</ele><time>2022-06-26T06:33:00.000Z</time></trkpt><trkpt lon="5.790858" lat="51.051406"><ele>16</ele><time>2022-06-26T06:33:01.000Z</time></trkpt><trkpt lon="5.790825" lat="51.051367"><ele>15.8</ele><time>2022-06-26T06:33:02.000Z</time></trkpt><trkpt lon="5.790743" lat="51.051262"><ele>15.4</ele><time>2022-06-26T06:33:03.000Z</time></trkpt><trkpt lon="5.790707" lat="51.051221"><ele>15.2</ele><time>2022-06-26T06:33:04.000Z</time></trkpt><trkpt lon="5.790619" lat="51.051117"><ele>14.8</ele><time>2022-06-26T06:33:05.000Z</time></trkpt><trkpt lon="5.790586" lat="51.051076"><ele>14.8</ele><time>2022-06-26T06:33:06.000Z</time></trkpt><trkpt lon="5.790504" lat="51.050975"><ele>14.8</ele><time>2022-06-26T06:33:07.000Z</time></trkpt><trkpt lon="5.79046" lat="51.050927"><ele>14.6</ele><time>2022-06-26T06:33:08.000Z</time></trkpt><trkpt lon="5.790379" lat="51.050837"><ele>14.6</ele><time>2022-06-26T06:33:09.000Z</time></trkpt><trkpt lon="5.79034" lat="51.050793"><ele>14.4</ele><time>2022-06-26T06:33:10.000Z</time></trkpt><trkpt lon="5.790262" lat="51.0507"><ele>14.6</ele><time>2022-06-26T06:33:11.000Z</time></trkpt><trkpt lon="5.790224" lat="51.050656"><ele>14.6</ele><time>2022-06-26T06:33:12.000Z</time></trkpt><trkpt lon="5.790148" lat="51.050571"><ele>14.8</ele><time>2022-06-26T06:33:13.000Z</time></trkpt><trkpt lon="5.790116" lat="51.050539"><ele>15.2</ele><time>2022-06-26T06:33:14.000Z</time></trkpt><trkpt lon="5.790026" lat="51.050452"><ele>15.4</ele><time>2022-06-26T06:33:15.000Z</time></trkpt><trkpt lon="5.789984" lat="51.050415"><ele>15.6</ele><time>2022-06-26T06:33:16.000Z</time></trkpt><trkpt lon="5.789901" lat="51.050334"><ele>15.8</ele><time>2022-06-26T06:33:17.000Z</time></trkpt><trkpt lon="5.78987" lat="51.050295"><ele>15.8</ele><time>2022-06-26T06:33:18.000Z</time></trkpt><trkpt lon="5.78982" lat="51.050208"><ele>16</ele><time>2022-06-26T06:33:19.000Z</time></trkpt><trkpt lon="5.789808" lat="51.05017"><ele>16</ele><time>2022-06-26T06:33:20.000Z</time></trkpt><trkpt lon="5.789781" lat="51.050063"><ele>16.2</ele><time>2022-06-26T06:33:21.000Z</time></trkpt><trkpt lon="5.789771" lat="51.050016"><ele>16.2</ele><time>2022-06-26T06:33:22.000Z</time></trkpt><trkpt lon="5.789745" lat="51.049918"><ele>16.4</ele><time>2022-06-26T06:33:23.000Z</time></trkpt><trkpt lon="5.789732" lat="51.04988"><ele>16.4</ele><time>2022-06-26T06:33:24.000Z</time></trkpt><trkpt lon="5.789693" lat="51.049773"><ele>16.4</ele><time>2022-06-26T06:33:25.000Z</time></trkpt><trkpt lon="5.789673" lat="51.049727"><ele>16.4</ele><time>2022-06-26T06:33:26.000Z</time></trkpt><trkpt lon="5.789627" lat="51.049626"><ele>16.4</ele><time>2022-06-26T06:33:27.000Z</time></trkpt><trkpt lon="5.789604" lat="51.049584"><ele>16.4</ele><time>2022-06-26T06:33:28.000Z</time></trkpt><trkpt lon="5.789548" lat="51.049488"><ele>16.4</ele><time>2022-06-26T06:33:29.000Z</time></trkpt><trkpt lon="5.789522" lat="51.049446"><ele>16.4</ele><time>2022-06-26T06:33:30.000Z</time></trkpt><trkpt lon="5.789453" lat="51.049346"><ele>16.4</ele><time>2022-06-26T06:33:31.000Z</time></trkpt><trkpt lon="5.789426" lat="51.049311"><ele>16.4</ele><time>2022-06-26T06:33:32.000Z</time></trkpt><trkpt lon="5.789348" lat="51.049213"><ele>16.4</ele><time>2022-06-26T06:33:33.000Z</time></trkpt><trkpt lon="5.789316" lat="51.049175"><ele>16.4</ele><time>2022-06-26T06:33:34.000Z</time></trkpt><trkpt lon="5.789242" lat="51.049086"><ele>16.4</ele><time>2022-06-26T06:33:35.000Z</time></trkpt><trkpt lon="5.789205" lat="51.049042"><ele>16.4</ele><time>2022-06-26T06:33:36.000Z</time></trkpt><trkpt lon="5.789127" lat="51.048946"><ele>16.4</ele><time>2022-06-26T06:33:37.000Z</time></trkpt><trkpt lon="5.789096" lat="51.04891"><ele>16.4</ele><time>2022-06-26T06:33:38.000Z</time></trkpt><trkpt lon="5.789019" lat="51.048819"><ele>16.4</ele><time>2022-06-26T06:33:39.000Z</time></trkpt><trkpt lon="5.788988" lat="51.04878"><ele>16.4</ele><time>2022-06-26T06:33:40.000Z</time></trkpt><trkpt lon="5.78891" lat="51.048683"><ele>16.6</ele><time>2022-06-26T06:33:41.000Z</time></trkpt><trkpt lon="5.788875" lat="51.048639"><ele>16.6</ele><time>2022-06-26T06:33:42.000Z</time></trkpt><trkpt lon="5.788801" lat="51.048545"><ele>16.6</ele><time>2022-06-26T06:33:43.000Z</time></trkpt><trkpt lon="5.788749" lat="51.048482"><ele>16.6</ele><time>2022-06-26T06:33:44.000Z</time></trkpt><trkpt lon="5.788696" lat="51.048419"><ele>16.6</ele><time>2022-06-26T06:33:45.000Z</time></trkpt><trkpt lon="5.788641" lat="51.048351"><ele>16.8</ele><time>2022-06-26T06:33:46.000Z</time></trkpt><trkpt lon="5.788586" lat="51.048288"><ele>16.6</ele><time>2022-06-26T06:33:47.000Z</time></trkpt><trkpt lon="5.788529" lat="51.048221"><ele>16.6</ele><time>2022-06-26T06:33:48.000Z</time></trkpt><trkpt lon="5.788471" lat="51.048154"><ele>16.8</ele><time>2022-06-26T06:33:49.000Z</time></trkpt><trkpt lon="5.788414" lat="51.048085"><ele>16.8</ele><time>2022-06-26T06:33:50.000Z</time></trkpt><trkpt lon="5.788358" lat="51.048019"><ele>16.8</ele><time>2022-06-26T06:33:51.000Z</time></trkpt><trkpt lon="5.788305" lat="51.047951"><ele>16.8</ele><time>2022-06-26T06:33:52.000Z</time></trkpt><trkpt lon="5.78825" lat="51.047886"><ele>16.8</ele><time>2022-06-26T06:33:53.000Z</time></trkpt><trkpt lon="5.788192" lat="51.047816"><ele>16.8</ele><time>2022-06-26T06:33:54.000Z</time></trkpt><trkpt lon="5.78814" lat="51.047753"><ele>16.8</ele><time>2022-06-26T06:33:55.000Z</time></trkpt><trkpt lon="5.788088" lat="51.047687"><ele>16.8</ele><time>2022-06-26T06:33:56.000Z</time></trkpt><trkpt lon="5.78804" lat="51.047618"><ele>16.8</ele><time>2022-06-26T06:33:57.000Z</time></trkpt><trkpt lon="5.787996" lat="51.047555"><ele>16.8</ele><time>2022-06-26T06:33:58.000Z</time></trkpt><trkpt lon="5.787951" lat="51.047484"><ele>16.6</ele><time>2022-06-26T06:33:59.000Z</time></trkpt><trkpt lon="5.787911" lat="51.047407"><ele>16.6</ele><time>2022-06-26T06:34:00.000Z</time></trkpt><trkpt lon="5.787876" lat="51.047331"><ele>16.4</ele><time>2022-06-26T06:34:01.000Z</time></trkpt><trkpt lon="5.787839" lat="51.047255"><ele>16.2</ele><time>2022-06-26T06:34:02.000Z</time></trkpt><trkpt lon="5.787806" lat="51.047179"><ele>16.2</ele><time>2022-06-26T06:34:03.000Z</time></trkpt><trkpt lon="5.787774" lat="51.047106"><ele>16.2</ele><time>2022-06-26T06:34:04.000Z</time></trkpt><trkpt lon="5.78774" lat="51.047031"><ele>16.2</ele><time>2022-06-26T06:34:05.000Z</time></trkpt><trkpt lon="5.787713" lat="51.046968"><ele>16.4</ele><time>2022-06-26T06:34:06.000Z</time></trkpt><trkpt lon="5.787676" lat="51.046885"><ele>16.6</ele><time>2022-06-26T06:34:07.000Z</time></trkpt><trkpt lon="5.787643" lat="51.046809"><ele>17</ele><time>2022-06-26T06:34:08.000Z</time></trkpt><trkpt lon="5.787607" lat="51.046732"><ele>17.2</ele><time>2022-06-26T06:34:09.000Z</time></trkpt><trkpt lon="5.787573" lat="51.046656"><ele>17.2</ele><time>2022-06-26T06:34:10.000Z</time></trkpt><trkpt lon="5.787539" lat="51.04658"><ele>17.4</ele><time>2022-06-26T06:34:11.000Z</time></trkpt><trkpt lon="5.787506" lat="51.046504"><ele>17.4</ele><time>2022-06-26T06:34:12.000Z</time></trkpt><trkpt lon="5.78748" lat="51.046431"><ele>17.6</ele><time>2022-06-26T06:34:13.000Z</time></trkpt><trkpt lon="5.787467" lat="51.046368"><ele>17.6</ele><time>2022-06-26T06:34:14.000Z</time></trkpt><trkpt lon="5.787458" lat="51.046278"><ele>17.6</ele><time>2022-06-26T06:34:15.000Z</time></trkpt><trkpt lon="5.787457" lat="51.046199"><ele>17.6</ele><time>2022-06-26T06:34:16.000Z</time></trkpt><trkpt lon="5.78746" lat="51.046123"><ele>17.6</ele><time>2022-06-26T06:34:17.000Z</time></trkpt><trkpt lon="5.787461" lat="51.046058"><ele>17.6</ele><time>2022-06-26T06:34:18.000Z</time></trkpt><trkpt lon="5.787467" lat="51.045973"><ele>17.6</ele><time>2022-06-26T06:34:19.000Z</time></trkpt><trkpt lon="5.787472" lat="51.045898"><ele>17.6</ele><time>2022-06-26T06:34:20.000Z</time></trkpt><trkpt lon="5.787473" lat="51.045817"><ele>17.6</ele><time>2022-06-26T06:34:21.000Z</time></trkpt><trkpt lon="5.787472" lat="51.045741"><ele>17.4</ele><time>2022-06-26T06:34:22.000Z</time></trkpt><trkpt lon="5.78747" lat="51.045664"><ele>17.2</ele><time>2022-06-26T06:34:23.000Z</time></trkpt><trkpt lon="5.787468" lat="51.045584"><ele>17</ele><time>2022-06-26T06:34:24.000Z</time></trkpt><trkpt lon="5.787456" lat="51.045508"><ele>17</ele><time>2022-06-26T06:34:25.000Z</time></trkpt><trkpt lon="5.787443" lat="51.045447"><ele>17</ele><time>2022-06-26T06:34:26.000Z</time></trkpt><trkpt lon="5.787414" lat="51.045355"><ele>17.2</ele><time>2022-06-26T06:34:27.000Z</time></trkpt><trkpt lon="5.787388" lat="51.045279"><ele>17.2</ele><time>2022-06-26T06:34:28.000Z</time></trkpt><trkpt lon="5.787357" lat="51.045208"><ele>17.2</ele><time>2022-06-26T06:34:29.000Z</time></trkpt><trkpt lon="5.787326" lat="51.045141"><ele>17.4</ele><time>2022-06-26T06:34:30.000Z</time></trkpt><trkpt lon="5.78728" lat="51.045061"><ele>17.4</ele><time>2022-06-26T06:34:31.000Z</time></trkpt><trkpt lon="5.787237" lat="51.044993"><ele>17.4</ele><time>2022-06-26T06:34:32.000Z</time></trkpt><trkpt lon="5.787189" lat="51.044928"><ele>17.6</ele><time>2022-06-26T06:34:33.000Z</time></trkpt><trkpt lon="5.78715" lat="51.044875"><ele>17.6</ele><time>2022-06-26T06:34:34.000Z</time></trkpt><trkpt lon="5.787084" lat="51.044795"><ele>17.6</ele><time>2022-06-26T06:34:35.000Z</time></trkpt><trkpt lon="5.78704" lat="51.044743"><ele>17.8</ele><time>2022-06-26T06:34:36.000Z</time></trkpt><trkpt lon="5.786974" lat="51.044665"><ele>17.6</ele><time>2022-06-26T06:34:37.000Z</time></trkpt><trkpt lon="5.786925" lat="51.044609"><ele>17.6</ele><time>2022-06-26T06:34:38.000Z</time></trkpt><trkpt lon="5.786862" lat="51.044535"><ele>17.6</ele><time>2022-06-26T06:34:39.000Z</time></trkpt><trkpt lon="5.786804" lat="51.04447"><ele>17.6</ele><time>2022-06-26T06:34:40.000Z</time></trkpt><trkpt lon="5.786742" lat="51.044411"><ele>17.6</ele><time>2022-06-26T06:34:41.000Z</time></trkpt><trkpt lon="5.786681" lat="51.044358"><ele>17.8</ele><time>2022-06-26T06:34:42.000Z</time></trkpt><trkpt lon="5.786593" lat="51.044295"><ele>17.8</ele><time>2022-06-26T06:34:43.000Z</time></trkpt><trkpt lon="5.786508" lat="51.044246"><ele>18</ele><time>2022-06-26T06:34:44.000Z</time></trkpt><trkpt lon="5.786418" lat="51.044196"><ele>18</ele><time>2022-06-26T06:34:45.000Z</time></trkpt><trkpt lon="5.78634" lat="51.044161"><ele>18</ele><time>2022-06-26T06:34:46.000Z</time></trkpt><trkpt lon="5.78623" lat="51.044105"><ele>18</ele><time>2022-06-26T06:34:47.000Z</time></trkpt><trkpt lon="5.786142" lat="51.044066"><ele>18</ele><time>2022-06-26T06:34:48.000Z</time></trkpt><trkpt lon="5.78604" lat="51.044017"><ele>18</ele><time>2022-06-26T06:34:49.000Z</time></trkpt><trkpt lon="5.785955" lat="51.043977"><ele>18</ele><time>2022-06-26T06:34:50.000Z</time></trkpt><trkpt lon="5.785846" lat="51.043926"><ele>18</ele><time>2022-06-26T06:34:51.000Z</time></trkpt><trkpt lon="5.785756" lat="51.043884"><ele>18</ele><time>2022-06-26T06:34:52.000Z</time></trkpt><trkpt lon="5.785648" lat="51.043834"><ele>18</ele><time>2022-06-26T06:34:53.000Z</time></trkpt><trkpt lon="5.785572" lat="51.043798"><ele>18</ele><time>2022-06-26T06:34:54.000Z</time></trkpt><trkpt lon="5.785453" lat="51.043742"><ele>18</ele><time>2022-06-26T06:34:55.000Z</time></trkpt><trkpt lon="5.785357" lat="51.0437"><ele>17.8</ele><time>2022-06-26T06:34:56.000Z</time></trkpt><trkpt lon="5.785265" lat="51.043651"><ele>17.8</ele><time>2022-06-26T06:34:57.000Z</time></trkpt><trkpt lon="5.785193" lat="51.043609"><ele>17.6</ele><time>2022-06-26T06:34:58.000Z</time></trkpt><trkpt lon="5.785102" lat="51.043543"><ele>17.6</ele><time>2022-06-26T06:34:59.000Z</time></trkpt><trkpt lon="5.785036" lat="51.043487"><ele>17.6</ele><time>2022-06-26T06:35:00.000Z</time></trkpt><trkpt lon="5.784976" lat="51.043421"><ele>17.6</ele><time>2022-06-26T06:35:01.000Z</time></trkpt><trkpt lon="5.784943" lat="51.043365"><ele>17.6</ele><time>2022-06-26T06:35:02.000Z</time></trkpt><trkpt lon="5.784911" lat="51.043284"><ele>17.8</ele><time>2022-06-26T06:35:03.000Z</time></trkpt><trkpt lon="5.784902" lat="51.043225"><ele>17.8</ele><time>2022-06-26T06:35:04.000Z</time></trkpt><trkpt lon="5.784893" lat="51.043139"><ele>17.6</ele><time>2022-06-26T06:35:05.000Z</time></trkpt><trkpt lon="5.784889" lat="51.043074"><ele>17.4</ele><time>2022-06-26T06:35:06.000Z</time></trkpt><trkpt lon="5.78489" lat="51.042998"><ele>17.4</ele><time>2022-06-26T06:35:07.000Z</time></trkpt><trkpt lon="5.784893" lat="51.042945"><ele>17.4</ele><time>2022-06-26T06:35:08.000Z</time></trkpt><trkpt lon="5.784897" lat="51.042857"><ele>17.4</ele><time>2022-06-26T06:35:09.000Z</time></trkpt><trkpt lon="5.784901" lat="51.042796"><ele>17.2</ele><time>2022-06-26T06:35:10.000Z</time></trkpt><trkpt lon="5.784908" lat="51.042719"><ele>17.2</ele><time>2022-06-26T06:35:11.000Z</time></trkpt><trkpt lon="5.784913" lat="51.042658"><ele>17.4</ele><time>2022-06-26T06:35:12.000Z</time></trkpt><trkpt lon="5.784915" lat="51.042582"><ele>17.4</ele><time>2022-06-26T06:35:13.000Z</time></trkpt><trkpt lon="5.784914" lat="51.042528"><ele>17.6</ele><time>2022-06-26T06:35:14.000Z</time></trkpt><trkpt lon="5.78491" lat="51.042448"><ele>17.8</ele><time>2022-06-26T06:35:15.000Z</time></trkpt><trkpt lon="5.784903" lat="51.042384"><ele>18</ele><time>2022-06-26T06:35:16.000Z</time></trkpt><trkpt lon="5.784898" lat="51.042319"><ele>18</ele><time>2022-06-26T06:35:17.000Z</time></trkpt><trkpt lon="5.7849" lat="51.042268"><ele>18.2</ele><time>2022-06-26T06:35:18.000Z</time></trkpt><trkpt lon="5.784902" lat="51.042197"><ele>18.4</ele><time>2022-06-26T06:35:19.000Z</time></trkpt><trkpt lon="5.784902" lat="51.04214"><ele>18.4</ele><time>2022-06-26T06:35:20.000Z</time></trkpt><trkpt lon="5.7849" lat="51.042063"><ele>18.4</ele><time>2022-06-26T06:35:21.000Z</time></trkpt><trkpt lon="5.784898" lat="51.042013"><ele>18.4</ele><time>2022-06-26T06:35:22.000Z</time></trkpt><trkpt lon="5.784897" lat="51.041934"><ele>18.4</ele><time>2022-06-26T06:35:23.000Z</time></trkpt><trkpt lon="5.784897" lat="51.041887"><ele>18.4</ele><time>2022-06-26T06:35:24.000Z</time></trkpt><trkpt lon="5.784898" lat="51.041812"><ele>18.6</ele><time>2022-06-26T06:35:25.000Z</time></trkpt><trkpt lon="5.784895" lat="51.04175"><ele>18.6</ele><time>2022-06-26T06:35:26.000Z</time></trkpt><trkpt lon="5.784887" lat="51.04169"><ele>18.8</ele><time>2022-06-26T06:35:27.000Z</time></trkpt><trkpt lon="5.784881" lat="51.041639"><ele>18.8</ele><time>2022-06-26T06:35:28.000Z</time></trkpt><trkpt lon="5.78487" lat="51.041564"><ele>19</ele><time>2022-06-26T06:35:29.000Z</time></trkpt><trkpt lon="5.784858" lat="51.041508"><ele>19.2</ele><time>2022-06-26T06:35:30.000Z</time></trkpt><trkpt lon="5.784843" lat="51.041446"><ele>19.2</ele><time>2022-06-26T06:35:31.000Z</time></trkpt><trkpt lon="5.784835" lat="51.041399"><ele>19.2</ele><time>2022-06-26T06:35:32.000Z</time></trkpt><trkpt lon="5.784823" lat="51.041355"><ele>19.2</ele><time>2022-06-26T06:35:33.000Z</time></trkpt><trkpt lon="5.78481" lat="51.041324"><ele>19.2</ele><time>2022-06-26T06:35:34.000Z</time></trkpt><trkpt lon="5.784799" lat="51.041306"><ele>19.2</ele><time>2022-06-26T06:35:35.000Z</time></trkpt><trkpt lon="5.78479" lat="51.041286"><ele>19.4</ele><time>2022-06-26T06:35:36.000Z</time></trkpt><trkpt lon="5.784798" lat="51.041241"><ele>19.6</ele><time>2022-06-26T06:35:40.000Z</time></trkpt><trkpt lon="5.784822" lat="51.041225"><ele>19.6</ele><time>2022-06-26T06:35:41.000Z</time></trkpt><trkpt lon="5.784854" lat="51.04121"><ele>19.6</ele><time>2022-06-26T06:35:42.000Z</time></trkpt><trkpt lon="5.784885" lat="51.041179"><ele>19.4</ele><time>2022-06-26T06:35:43.000Z</time></trkpt><trkpt lon="5.784905" lat="51.041137"><ele>19.4</ele><time>2022-06-26T06:35:44.000Z</time></trkpt><trkpt lon="5.784913" lat="51.041097"><ele>19.4</ele><time>2022-06-26T06:35:45.000Z</time></trkpt><trkpt lon="5.784924" lat="51.041038"><ele>19.4</ele><time>2022-06-26T06:35:46.000Z</time></trkpt><trkpt lon="5.784928" lat="51.040994"><ele>19.4</ele><time>2022-06-26T06:35:47.000Z</time></trkpt><trkpt lon="5.784932" lat="51.040927"><ele>19.6</ele><time>2022-06-26T06:35:48.000Z</time></trkpt><trkpt lon="5.784933" lat="51.040878"><ele>19.6</ele><time>2022-06-26T06:35:49.000Z</time></trkpt><trkpt lon="5.784932" lat="51.040798"><ele>19.4</ele><time>2022-06-26T06:35:50.000Z</time></trkpt><trkpt lon="5.78493" lat="51.040739"><ele>19.4</ele><time>2022-06-26T06:35:51.000Z</time></trkpt><trkpt lon="5.78493" lat="51.040644"><ele>19.4</ele><time>2022-06-26T06:35:52.000Z</time></trkpt><trkpt lon="5.78493" lat="51.040572"><ele>19.6</ele><time>2022-06-26T06:35:53.000Z</time></trkpt><trkpt lon="5.784932" lat="51.040488"><ele>19.4</ele><time>2022-06-26T06:35:54.000Z</time></trkpt><trkpt lon="5.784933" lat="51.040423"><ele>19.4</ele><time>2022-06-26T06:35:55.000Z</time></trkpt><trkpt lon="5.784935" lat="51.040335"><ele>19.2</ele><time>2022-06-26T06:35:56.000Z</time></trkpt><trkpt lon="5.784937" lat="51.040274"><ele>19.2</ele><time>2022-06-26T06:35:57.000Z</time></trkpt><trkpt lon="5.78494" lat="51.040194"><ele>19.2</ele><time>2022-06-26T06:35:58.000Z</time></trkpt><trkpt lon="5.784941" lat="51.040136"><ele>19</ele><time>2022-06-26T06:35:59.000Z</time></trkpt><trkpt lon="5.784943" lat="51.040057"><ele>19</ele><time>2022-06-26T06:36:00.000Z</time></trkpt><trkpt lon="5.784943" lat="51.040002"><ele>18.8</ele><time>2022-06-26T06:36:01.000Z</time></trkpt><trkpt lon="5.784945" lat="51.039927"><ele>18.8</ele><time>2022-06-26T06:36:02.000Z</time></trkpt><trkpt lon="5.784946" lat="51.039867"><ele>18.8</ele><time>2022-06-26T06:36:03.000Z</time></trkpt><trkpt lon="5.784946" lat="51.039794"><ele>19</ele><time>2022-06-26T06:36:04.000Z</time></trkpt><trkpt lon="5.784946" lat="51.039745"><ele>18.8</ele><time>2022-06-26T06:36:05.000Z</time></trkpt><trkpt lon="5.78495" lat="51.039664"><ele>19</ele><time>2022-06-26T06:36:06.000Z</time></trkpt><trkpt lon="5.78495" lat="51.039616"><ele>19</ele><time>2022-06-26T06:36:07.000Z</time></trkpt><trkpt lon="5.78495" lat="51.039536"><ele>19</ele><time>2022-06-26T06:36:08.000Z</time></trkpt><trkpt lon="5.784955" lat="51.039465"><ele>19</ele><time>2022-06-26T06:36:09.000Z</time></trkpt><trkpt lon="5.78496" lat="51.039401"><ele>19</ele><time>2022-06-26T06:36:10.000Z</time></trkpt><trkpt lon="5.78496" lat="51.039345"><ele>19.2</ele><time>2022-06-26T06:36:11.000Z</time></trkpt><trkpt lon="5.78496" lat="51.039263"><ele>19.2</ele><time>2022-06-26T06:36:12.000Z</time></trkpt><trkpt lon="5.784954" lat="51.039201"><ele>19.2</ele><time>2022-06-26T06:36:13.000Z</time></trkpt><trkpt lon="5.784945" lat="51.039123"><ele>19.4</ele><time>2022-06-26T06:36:14.000Z</time></trkpt><trkpt lon="5.784938" lat="51.039068"><ele>19.4</ele><time>2022-06-26T06:36:15.000Z</time></trkpt><trkpt lon="5.784927" lat="51.038981"><ele>19.4</ele><time>2022-06-26T06:36:16.000Z</time></trkpt><trkpt lon="5.78492" lat="51.038912"><ele>19.4</ele><time>2022-06-26T06:36:17.000Z</time></trkpt><trkpt lon="5.78491" lat="51.038844"><ele>19.4</ele><time>2022-06-26T06:36:18.000Z</time></trkpt><trkpt lon="5.7849" lat="51.038784"><ele>19.4</ele><time>2022-06-26T06:36:19.000Z</time></trkpt><trkpt lon="5.78489" lat="51.038702"><ele>19.2</ele><time>2022-06-26T06:36:20.000Z</time></trkpt><trkpt lon="5.78488" lat="51.03863"><ele>19.2</ele><time>2022-06-26T06:36:21.000Z</time></trkpt><trkpt lon="5.784873" lat="51.038561"><ele>19.2</ele><time>2022-06-26T06:36:22.000Z</time></trkpt><trkpt lon="5.784862" lat="51.038495"><ele>19.2</ele><time>2022-06-26T06:36:23.000Z</time></trkpt><trkpt lon="5.784848" lat="51.038421"><ele>19.2</ele><time>2022-06-26T06:36:24.000Z</time></trkpt><trkpt lon="5.784835" lat="51.038356"><ele>19.2</ele><time>2022-06-26T06:36:25.000Z</time></trkpt><trkpt lon="5.784818" lat="51.038276"><ele>19.2</ele><time>2022-06-26T06:36:26.000Z</time></trkpt><trkpt lon="5.784807" lat="51.038217"><ele>19.4</ele><time>2022-06-26T06:36:27.000Z</time></trkpt><trkpt lon="5.78479" lat="51.038132"><ele>19.6</ele><time>2022-06-26T06:36:28.000Z</time></trkpt><trkpt lon="5.784779" lat="51.038072"><ele>19.6</ele><time>2022-06-26T06:36:29.000Z</time></trkpt><trkpt lon="5.784761" lat="51.037985"><ele>19.6</ele><time>2022-06-26T06:36:30.000Z</time></trkpt><trkpt lon="5.784748" lat="51.037913"><ele>19.6</ele><time>2022-06-26T06:36:31.000Z</time></trkpt><trkpt lon="5.784733" lat="51.03784"><ele>19.8</ele><time>2022-06-26T06:36:32.000Z</time></trkpt><trkpt lon="5.784722" lat="51.037783"><ele>19.8</ele><time>2022-06-26T06:36:33.000Z</time></trkpt><trkpt lon="5.784706" lat="51.037695"><ele>19.8</ele><time>2022-06-26T06:36:34.000Z</time></trkpt><trkpt lon="5.784692" lat="51.03763"><ele>20</ele><time>2022-06-26T06:36:35.000Z</time></trkpt><trkpt lon="5.784678" lat="51.037554"><ele>20</ele><time>2022-06-26T06:36:36.000Z</time></trkpt><trkpt lon="5.784664" lat="51.037485"><ele>20</ele><time>2022-06-26T06:36:37.000Z</time></trkpt><trkpt lon="5.78465" lat="51.037417"><ele>20</ele><time>2022-06-26T06:36:38.000Z</time></trkpt><trkpt lon="5.784638" lat="51.03735"><ele>20.2</ele><time>2022-06-26T06:36:39.000Z</time></trkpt><trkpt lon="5.784622" lat="51.037268"><ele>20.4</ele><time>2022-06-26T06:36:40.000Z</time></trkpt><trkpt lon="5.784614" lat="51.037221"><ele>20.4</ele><time>2022-06-26T06:36:41.000Z</time></trkpt><trkpt lon="5.7846" lat="51.037127"><ele>20.4</ele><time>2022-06-26T06:36:42.000Z</time></trkpt><trkpt lon="5.784594" lat="51.037077"><ele>20.4</ele><time>2022-06-26T06:36:43.000Z</time></trkpt><trkpt lon="5.784583" lat="51.036983"><ele>20.4</ele><time>2022-06-26T06:36:44.000Z</time></trkpt><trkpt lon="5.78458" lat="51.036934"><ele>20.4</ele><time>2022-06-26T06:36:45.000Z</time></trkpt><trkpt lon="5.784575" lat="51.036841"><ele>20.4</ele><time>2022-06-26T06:36:46.000Z</time></trkpt><trkpt lon="5.784577" lat="51.03678"><ele>20.4</ele><time>2022-06-26T06:36:47.000Z</time></trkpt><trkpt lon="5.78458" lat="51.036697"><ele>20.4</ele><time>2022-06-26T06:36:48.000Z</time></trkpt><trkpt lon="5.784583" lat="51.036642"><ele>20.4</ele><time>2022-06-26T06:36:49.000Z</time></trkpt><trkpt lon="5.784585" lat="51.036559"><ele>20.4</ele><time>2022-06-26T06:36:50.000Z</time></trkpt><trkpt lon="5.784589" lat="51.036503"><ele>20.6</ele><time>2022-06-26T06:36:51.000Z</time></trkpt><trkpt lon="5.784595" lat="51.036418"><ele>20.6</ele><time>2022-06-26T06:36:52.000Z</time></trkpt><trkpt lon="5.784598" lat="51.03637"><ele>20.6</ele><time>2022-06-26T06:36:53.000Z</time></trkpt><trkpt lon="5.784605" lat="51.03628"><ele>20.6</ele><time>2022-06-26T06:36:54.000Z</time></trkpt><trkpt lon="5.784606" lat="51.036232"><ele>20.4</ele><time>2022-06-26T06:36:55.000Z</time></trkpt><trkpt lon="5.784607" lat="51.03614"><ele>20.2</ele><time>2022-06-26T06:36:56.000Z</time></trkpt><trkpt lon="5.78461" lat="51.036091"><ele>20.4</ele><time>2022-06-26T06:36:57.000Z</time></trkpt><trkpt lon="5.784615" lat="51.035995"><ele>20.8</ele><time>2022-06-26T06:36:58.000Z</time></trkpt><trkpt lon="5.784616" lat="51.035969"><ele>21</ele><time>2022-06-26T06:36:59.000Z</time></trkpt><trkpt lon="5.784618" lat="51.035943"><ele>21.2</ele><time>2022-06-26T06:37:00.000Z</time></trkpt><trkpt lon="5.784621" lat="51.035879"><ele>21.2</ele><time>2022-06-26T06:37:01.000Z</time></trkpt><trkpt lon="5.784627" lat="51.035757"><ele>21.4</ele><time>2022-06-26T06:37:02.000Z</time></trkpt><trkpt lon="5.784633" lat="51.035636"><ele>21.4</ele><time>2022-06-26T06:37:03.000Z</time></trkpt><trkpt lon="5.784637" lat="51.035555"><ele>21.4</ele><time>2022-06-26T06:37:04.000Z</time></trkpt><trkpt lon="5.784643" lat="51.035489"><ele>21.4</ele><time>2022-06-26T06:37:05.000Z</time></trkpt><trkpt lon="5.78465" lat="51.03541"><ele>21.2</ele><time>2022-06-26T06:37:06.000Z</time></trkpt><trkpt lon="5.784652" lat="51.035355"><ele>21</ele><time>2022-06-26T06:37:07.000Z</time></trkpt><trkpt lon="5.784658" lat="51.035266"><ele>20.6</ele><time>2022-06-26T06:37:08.000Z</time></trkpt><trkpt lon="5.784664" lat="51.035201"><ele>20.4</ele><time>2022-06-26T06:37:09.000Z</time></trkpt><trkpt lon="5.78467" lat="51.035117"><ele>19.8</ele><time>2022-06-26T06:37:10.000Z</time></trkpt><trkpt lon="5.784679" lat="51.035044"><ele>19.6</ele><time>2022-06-26T06:37:11.000Z</time></trkpt><trkpt lon="5.784687" lat="51.034972"><ele>19.2</ele><time>2022-06-26T06:37:12.000Z</time></trkpt><trkpt lon="5.78469" lat="51.034919"><ele>19</ele><time>2022-06-26T06:37:13.000Z</time></trkpt><trkpt lon="5.784698" lat="51.034828"><ele>18.6</ele><time>2022-06-26T06:37:14.000Z</time></trkpt><trkpt lon="5.784704" lat="51.034773"><ele>18.6</ele><time>2022-06-26T06:37:15.000Z</time></trkpt><trkpt lon="5.784712" lat="51.034682"><ele>18.2</ele><time>2022-06-26T06:37:16.000Z</time></trkpt><trkpt lon="5.78472" lat="51.034621"><ele>18</ele><time>2022-06-26T06:37:17.000Z</time></trkpt><trkpt lon="5.784734" lat="51.034526"><ele>18</ele><time>2022-06-26T06:37:18.000Z</time></trkpt><trkpt lon="5.784745" lat="51.034455"><ele>17.8</ele><time>2022-06-26T06:37:19.000Z</time></trkpt><trkpt lon="5.784757" lat="51.034381"><ele>17.8</ele><time>2022-06-26T06:37:20.000Z</time></trkpt><trkpt lon="5.784766" lat="51.034323"><ele>17.8</ele><time>2022-06-26T06:37:21.000Z</time></trkpt><trkpt lon="5.78478" lat="51.034236"><ele>17.6</ele><time>2022-06-26T06:37:22.000Z</time></trkpt><trkpt lon="5.784791" lat="51.034181"><ele>17.6</ele><time>2022-06-26T06:37:23.000Z</time></trkpt><trkpt lon="5.784804" lat="51.034094"><ele>17.4</ele><time>2022-06-26T06:37:24.000Z</time></trkpt><trkpt lon="5.784811" lat="51.03404"><ele>17.4</ele><time>2022-06-26T06:37:25.000Z</time></trkpt><trkpt lon="5.784822" lat="51.033949"><ele>17.6</ele><time>2022-06-26T06:37:26.000Z</time></trkpt><trkpt lon="5.784831" lat="51.033879"><ele>17.6</ele><time>2022-06-26T06:37:27.000Z</time></trkpt><trkpt lon="5.784842" lat="51.033808"><ele>17.8</ele><time>2022-06-26T06:37:28.000Z</time></trkpt><trkpt lon="5.784854" lat="51.033745"><ele>17.8</ele><time>2022-06-26T06:37:29.000Z</time></trkpt><trkpt lon="5.784864" lat="51.033671"><ele>17.8</ele><time>2022-06-26T06:37:30.000Z</time></trkpt><trkpt lon="5.784869" lat="51.033615"><ele>18</ele><time>2022-06-26T06:37:31.000Z</time></trkpt><trkpt lon="5.78488" lat="51.033542"><ele>18</ele><time>2022-06-26T06:37:32.000Z</time></trkpt><trkpt lon="5.784887" lat="51.03349"><ele>18.2</ele><time>2022-06-26T06:37:33.000Z</time></trkpt><trkpt lon="5.784894" lat="51.033412"><ele>18.2</ele><time>2022-06-26T06:37:34.000Z</time></trkpt><trkpt lon="5.784899" lat="51.033356"><ele>18.4</ele><time>2022-06-26T06:37:35.000Z</time></trkpt><trkpt lon="5.784914" lat="51.03327"><ele>18.6</ele><time>2022-06-26T06:37:36.000Z</time></trkpt><trkpt lon="5.784928" lat="51.033213"><ele>18.4</ele><time>2022-06-26T06:37:37.000Z</time></trkpt><trkpt lon="5.784955" lat="51.033122"><ele>18.4</ele><time>2022-06-26T06:37:38.000Z</time></trkpt><trkpt lon="5.784974" lat="51.033064"><ele>18.6</ele><time>2022-06-26T06:37:39.000Z</time></trkpt><trkpt lon="5.785004" lat="51.032973"><ele>18.6</ele><time>2022-06-26T06:37:40.000Z</time></trkpt><trkpt lon="5.785032" lat="51.0329"><ele>18.8</ele><time>2022-06-26T06:37:41.000Z</time></trkpt><trkpt lon="5.785066" lat="51.03282"><ele>18.8</ele><time>2022-06-26T06:37:42.000Z</time></trkpt><trkpt lon="5.785093" lat="51.032751"><ele>19</ele><time>2022-06-26T06:37:43.000Z</time></trkpt><trkpt lon="5.785134" lat="51.032668"><ele>19</ele><time>2022-06-26T06:37:44.000Z</time></trkpt><trkpt lon="5.785167" lat="51.032599"><ele>19</ele><time>2022-06-26T06:37:45.000Z</time></trkpt><trkpt lon="5.785204" lat="51.032523"><ele>19.2</ele><time>2022-06-26T06:37:46.000Z</time></trkpt><trkpt lon="5.785232" lat="51.032468"><ele>19.2</ele><time>2022-06-26T06:37:47.000Z</time></trkpt><trkpt lon="5.785274" lat="51.032385"><ele>19.4</ele><time>2022-06-26T06:37:48.000Z</time></trkpt><trkpt lon="5.785306" lat="51.032326"><ele>19.4</ele><time>2022-06-26T06:37:49.000Z</time></trkpt><trkpt lon="5.785352" lat="51.032245"><ele>19.4</ele><time>2022-06-26T06:37:50.000Z</time></trkpt><trkpt lon="5.78539" lat="51.032178"><ele>19.2</ele><time>2022-06-26T06:37:51.000Z</time></trkpt><trkpt lon="5.785436" lat="51.032103"><ele>19.2</ele><time>2022-06-26T06:37:52.000Z</time></trkpt><trkpt lon="5.785469" lat="51.032053"><ele>19.4</ele><time>2022-06-26T06:37:53.000Z</time></trkpt><trkpt lon="5.785522" lat="51.03197"><ele>19.4</ele><time>2022-06-26T06:37:54.000Z</time></trkpt><trkpt lon="5.785556" lat="51.03192"><ele>19.6</ele><time>2022-06-26T06:37:55.000Z</time></trkpt><trkpt lon="5.785612" lat="51.031833"><ele>19.6</ele><time>2022-06-26T06:37:56.000Z</time></trkpt><trkpt lon="5.785643" lat="51.031782"><ele>19.6</ele><time>2022-06-26T06:37:57.000Z</time></trkpt><trkpt lon="5.785697" lat="51.031695"><ele>19.6</ele><time>2022-06-26T06:37:58.000Z</time></trkpt><trkpt lon="5.785733" lat="51.031643"><ele>19.6</ele><time>2022-06-26T06:37:59.000Z</time></trkpt><trkpt lon="5.785787" lat="51.031558"><ele>19.8</ele><time>2022-06-26T06:38:00.000Z</time></trkpt><trkpt lon="5.785824" lat="51.031504"><ele>19.8</ele><time>2022-06-26T06:38:01.000Z</time></trkpt><trkpt lon="5.785881" lat="51.03142"><ele>19.8</ele><time>2022-06-26T06:38:02.000Z</time></trkpt><trkpt lon="5.785915" lat="51.031371"><ele>19.8</ele><time>2022-06-26T06:38:03.000Z</time></trkpt><trkpt lon="5.785972" lat="51.031287"><ele>19.8</ele><time>2022-06-26T06:38:04.000Z</time></trkpt><trkpt lon="5.786004" lat="51.031241"><ele>19.8</ele><time>2022-06-26T06:38:05.000Z</time></trkpt><trkpt lon="5.786066" lat="51.03115"><ele>19.8</ele><time>2022-06-26T06:38:06.000Z</time></trkpt><trkpt lon="5.786101" lat="51.031099"><ele>19.8</ele><time>2022-06-26T06:38:07.000Z</time></trkpt><trkpt lon="5.786156" lat="51.031016"><ele>19.8</ele><time>2022-06-26T06:38:08.000Z</time></trkpt><trkpt lon="5.786191" lat="51.030967"><ele>19.8</ele><time>2022-06-26T06:38:09.000Z</time></trkpt><trkpt lon="5.786249" lat="51.030887"><ele>19.8</ele><time>2022-06-26T06:38:10.000Z</time></trkpt><trkpt lon="5.786284" lat="51.03083"><ele>19.8</ele><time>2022-06-26T06:38:11.000Z</time></trkpt><trkpt lon="5.786338" lat="51.030749"><ele>19.8</ele><time>2022-06-26T06:38:12.000Z</time></trkpt><trkpt lon="5.786368" lat="51.030704"><ele>19.8</ele><time>2022-06-26T06:38:13.000Z</time></trkpt><trkpt lon="5.78642" lat="51.030624"><ele>19.8</ele><time>2022-06-26T06:38:14.000Z</time></trkpt><trkpt lon="5.786448" lat="51.030579"><ele>19.6</ele><time>2022-06-26T06:38:15.000Z</time></trkpt><trkpt lon="5.786504" lat="51.030497"><ele>19.6</ele><time>2022-06-26T06:38:16.000Z</time></trkpt><trkpt lon="5.786539" lat="51.030439"><ele>19.6</ele><time>2022-06-26T06:38:17.000Z</time></trkpt><trkpt lon="5.786588" lat="51.030364"><ele>19.6</ele><time>2022-06-26T06:38:18.000Z</time></trkpt><trkpt lon="5.786625" lat="51.030308"><ele>19.6</ele><time>2022-06-26T06:38:19.000Z</time></trkpt><trkpt lon="5.786674" lat="51.030238"><ele>19.6</ele><time>2022-06-26T06:38:20.000Z</time></trkpt><trkpt lon="5.786703" lat="51.030194"><ele>19.6</ele><time>2022-06-26T06:38:21.000Z</time></trkpt><trkpt lon="5.786754" lat="51.030112"><ele>19.4</ele><time>2022-06-26T06:38:22.000Z</time></trkpt><trkpt lon="5.786787" lat="51.030061"><ele>19.4</ele><time>2022-06-26T06:38:23.000Z</time></trkpt><trkpt lon="5.786841" lat="51.029982"><ele>19.4</ele><time>2022-06-26T06:38:24.000Z</time></trkpt><trkpt lon="5.786878" lat="51.02993"><ele>19.4</ele><time>2022-06-26T06:38:25.000Z</time></trkpt><trkpt lon="5.786939" lat="51.029849"><ele>19.4</ele><time>2022-06-26T06:38:26.000Z</time></trkpt><trkpt lon="5.786984" lat="51.029796"><ele>19.2</ele><time>2022-06-26T06:38:27.000Z</time></trkpt><trkpt lon="5.787044" lat="51.029723"><ele>19.4</ele><time>2022-06-26T06:38:28.000Z</time></trkpt><trkpt lon="5.787081" lat="51.029678"><ele>19.4</ele><time>2022-06-26T06:38:29.000Z</time></trkpt><trkpt lon="5.787153" lat="51.029593"><ele>19.6</ele><time>2022-06-26T06:38:30.000Z</time></trkpt><trkpt lon="5.7872" lat="51.029541"><ele>19.6</ele><time>2022-06-26T06:38:31.000Z</time></trkpt><trkpt lon="5.787266" lat="51.029475"><ele>19.6</ele><time>2022-06-26T06:38:32.000Z</time></trkpt><trkpt lon="5.787316" lat="51.029427"><ele>19.4</ele><time>2022-06-26T06:38:33.000Z</time></trkpt><trkpt lon="5.787389" lat="51.029365"><ele>19.4</ele><time>2022-06-26T06:38:34.000Z</time></trkpt><trkpt lon="5.78743" lat="51.029326"><ele>19.4</ele><time>2022-06-26T06:38:35.000Z</time></trkpt><trkpt lon="5.787514" lat="51.029254"><ele>19.6</ele><time>2022-06-26T06:38:36.000Z</time></trkpt><trkpt lon="5.787573" lat="51.029208"><ele>19.8</ele><time>2022-06-26T06:38:37.000Z</time></trkpt><trkpt lon="5.787652" lat="51.02914"><ele>20</ele><time>2022-06-26T06:38:38.000Z</time></trkpt><trkpt lon="5.787696" lat="51.029102"><ele>20</ele><time>2022-06-26T06:38:39.000Z</time></trkpt><trkpt lon="5.787784" lat="51.029021"><ele>20</ele><time>2022-06-26T06:38:40.000Z</time></trkpt><trkpt lon="5.787832" lat="51.028978"><ele>20.2</ele><time>2022-06-26T06:38:41.000Z</time></trkpt><trkpt lon="5.787913" lat="51.028911"><ele>20.2</ele><time>2022-06-26T06:38:42.000Z</time></trkpt><trkpt lon="5.787957" lat="51.028872"><ele>20.2</ele><time>2022-06-26T06:38:43.000Z</time></trkpt><trkpt lon="5.788046" lat="51.028796"><ele>20.4</ele><time>2022-06-26T06:38:44.000Z</time></trkpt><trkpt lon="5.788093" lat="51.028756"><ele>20.4</ele><time>2022-06-26T06:38:45.000Z</time></trkpt><trkpt lon="5.788181" lat="51.028682"><ele>20.4</ele><time>2022-06-26T06:38:46.000Z</time></trkpt><trkpt lon="5.788233" lat="51.02864"><ele>20.6</ele><time>2022-06-26T06:38:47.000Z</time></trkpt><trkpt lon="5.788314" lat="51.028572"><ele>20.6</ele><time>2022-06-26T06:38:48.000Z</time></trkpt><trkpt lon="5.788362" lat="51.028532"><ele>20.8</ele><time>2022-06-26T06:38:49.000Z</time></trkpt><trkpt lon="5.78844" lat="51.028464"><ele>20.8</ele><time>2022-06-26T06:38:50.000Z</time></trkpt><trkpt lon="5.788482" lat="51.028427"><ele>21</ele><time>2022-06-26T06:38:51.000Z</time></trkpt><trkpt lon="5.788557" lat="51.028358"><ele>21</ele><time>2022-06-26T06:38:52.000Z</time></trkpt><trkpt lon="5.7886" lat="51.028322"><ele>21.2</ele><time>2022-06-26T06:38:53.000Z</time></trkpt><trkpt lon="5.788678" lat="51.028258"><ele>21.2</ele><time>2022-06-26T06:38:54.000Z</time></trkpt><trkpt lon="5.788723" lat="51.028224"><ele>21.4</ele><time>2022-06-26T06:38:55.000Z</time></trkpt><trkpt lon="5.788806" lat="51.028155"><ele>21.4</ele><time>2022-06-26T06:38:56.000Z</time></trkpt><trkpt lon="5.788851" lat="51.028115"><ele>21.6</ele><time>2022-06-26T06:38:57.000Z</time></trkpt><trkpt lon="5.788936" lat="51.028041"><ele>21.6</ele><time>2022-06-26T06:38:58.000Z</time></trkpt><trkpt lon="5.788983" lat="51.028003"><ele>21.6</ele><time>2022-06-26T06:38:59.000Z</time></trkpt><trkpt lon="5.789069" lat="51.027926"><ele>21.8</ele><time>2022-06-26T06:39:00.000Z</time></trkpt><trkpt lon="5.789116" lat="51.027886"><ele>21.6</ele><time>2022-06-26T06:39:01.000Z</time></trkpt><trkpt lon="5.789203" lat="51.027816"><ele>21.6</ele><time>2022-06-26T06:39:02.000Z</time></trkpt><trkpt lon="5.789255" lat="51.027772"><ele>21.8</ele><time>2022-06-26T06:39:03.000Z</time></trkpt><trkpt lon="5.789329" lat="51.027713"><ele>21.8</ele><time>2022-06-26T06:39:04.000Z</time></trkpt><trkpt lon="5.78937" lat="51.027679"><ele>22</ele><time>2022-06-26T06:39:05.000Z</time></trkpt><trkpt lon="5.789446" lat="51.027617"><ele>22</ele><time>2022-06-26T06:39:06.000Z</time></trkpt><trkpt lon="5.789488" lat="51.027578"><ele>22</ele><time>2022-06-26T06:39:07.000Z</time></trkpt><trkpt lon="5.78956" lat="51.027519"><ele>22.2</ele><time>2022-06-26T06:39:08.000Z</time></trkpt><trkpt lon="5.789599" lat="51.027485"><ele>22.4</ele><time>2022-06-26T06:39:09.000Z</time></trkpt><trkpt lon="5.78967" lat="51.02742"><ele>22.6</ele><time>2022-06-26T06:39:10.000Z</time></trkpt><trkpt lon="5.789709" lat="51.027388"><ele>22.8</ele><time>2022-06-26T06:39:11.000Z</time></trkpt><trkpt lon="5.789772" lat="51.027324"><ele>23</ele><time>2022-06-26T06:39:12.000Z</time></trkpt><trkpt lon="5.789793" lat="51.027285"><ele>23</ele><time>2022-06-26T06:39:13.000Z</time></trkpt><trkpt lon="5.789798" lat="51.027209"><ele>23</ele><time>2022-06-26T06:39:14.000Z</time></trkpt><trkpt lon="5.789771" lat="51.027177"><ele>23</ele><time>2022-06-26T06:39:15.000Z</time></trkpt><trkpt lon="5.78968" lat="51.027118"><ele>23</ele><time>2022-06-26T06:39:16.000Z</time></trkpt><trkpt lon="5.789623" lat="51.027098"><ele>23</ele><time>2022-06-26T06:39:17.000Z</time></trkpt><trkpt lon="5.789502" lat="51.027069"><ele>23</ele><time>2022-06-26T06:39:18.000Z</time></trkpt><trkpt lon="5.789439" lat="51.027054"><ele>23.2</ele><time>2022-06-26T06:39:19.000Z</time></trkpt><trkpt lon="5.789298" lat="51.027027"><ele>23.2</ele><time>2022-06-26T06:39:20.000Z</time></trkpt><trkpt lon="5.789221" lat="51.027009"><ele>23.4</ele><time>2022-06-26T06:39:21.000Z</time></trkpt><trkpt lon="5.789096" lat="51.026985"><ele>23.4</ele><time>2022-06-26T06:39:22.000Z</time></trkpt><trkpt lon="5.789016" lat="51.026964"><ele>23.4</ele><time>2022-06-26T06:39:23.000Z</time></trkpt><trkpt lon="5.788883" lat="51.026935"><ele>23.4</ele><time>2022-06-26T06:39:24.000Z</time></trkpt><trkpt lon="5.788798" lat="51.026917"><ele>23.6</ele><time>2022-06-26T06:39:25.000Z</time></trkpt><trkpt lon="5.788665" lat="51.02689"><ele>23.6</ele><time>2022-06-26T06:39:26.000Z</time></trkpt><trkpt lon="5.788602" lat="51.026878"><ele>23.6</ele><time>2022-06-26T06:39:27.000Z</time></trkpt><trkpt lon="5.788453" lat="51.026847"><ele>23.8</ele><time>2022-06-26T06:39:28.000Z</time></trkpt><trkpt lon="5.788383" lat="51.026832"><ele>23.8</ele><time>2022-06-26T06:39:29.000Z</time></trkpt><trkpt lon="5.788243" lat="51.026802"><ele>23.6</ele><time>2022-06-26T06:39:30.000Z</time></trkpt><trkpt lon="5.788171" lat="51.026789"><ele>23.6</ele><time>2022-06-26T06:39:31.000Z</time></trkpt><trkpt lon="5.788034" lat="51.02676"><ele>23.8</ele><time>2022-06-26T06:39:32.000Z</time></trkpt><trkpt lon="5.787975" lat="51.026749"><ele>23.8</ele><time>2022-06-26T06:39:33.000Z</time></trkpt><trkpt lon="5.787827" lat="51.026718"><ele>24</ele><time>2022-06-26T06:39:34.000Z</time></trkpt><trkpt lon="5.787761" lat="51.026706"><ele>24</ele><time>2022-06-26T06:39:35.000Z</time></trkpt><trkpt lon="5.787618" lat="51.02668"><ele>24.2</ele><time>2022-06-26T06:39:36.000Z</time></trkpt><trkpt lon="5.787547" lat="51.026666"><ele>24.2</ele><time>2022-06-26T06:39:37.000Z</time></trkpt><trkpt lon="5.787414" lat="51.026642"><ele>24.2</ele><time>2022-06-26T06:39:38.000Z</time></trkpt><trkpt lon="5.787354" lat="51.026628"><ele>24.4</ele><time>2022-06-26T06:39:39.000Z</time></trkpt><trkpt lon="5.787208" lat="51.0266"><ele>24.6</ele><time>2022-06-26T06:39:40.000Z</time></trkpt><trkpt lon="5.787146" lat="51.026588"><ele>24.6</ele><time>2022-06-26T06:39:41.000Z</time></trkpt><trkpt lon="5.787005" lat="51.026561"><ele>24.8</ele><time>2022-06-26T06:39:42.000Z</time></trkpt><trkpt lon="5.786939" lat="51.026549"><ele>24.8</ele><time>2022-06-26T06:39:43.000Z</time></trkpt><trkpt lon="5.786808" lat="51.026527"><ele>25</ele><time>2022-06-26T06:39:44.000Z</time></trkpt><trkpt lon="5.786743" lat="51.026517"><ele>25</ele><time>2022-06-26T06:39:45.000Z</time></trkpt><trkpt lon="5.786613" lat="51.026497"><ele>25.2</ele><time>2022-06-26T06:39:46.000Z</time></trkpt><trkpt lon="5.786558" lat="51.026488"><ele>25.2</ele><time>2022-06-26T06:39:47.000Z</time></trkpt><trkpt lon="5.786421" lat="51.026462"><ele>25.6</ele><time>2022-06-26T06:39:48.000Z</time></trkpt><trkpt lon="5.786368" lat="51.026454"><ele>25.6</ele><time>2022-06-26T06:39:49.000Z</time></trkpt><trkpt lon="5.786227" lat="51.026428"><ele>25.8</ele><time>2022-06-26T06:39:50.000Z</time></trkpt><trkpt lon="5.78617" lat="51.026421"><ele>25.8</ele><time>2022-06-26T06:39:51.000Z</time></trkpt><trkpt lon="5.786031" lat="51.026397"><ele>25.8</ele><time>2022-06-26T06:39:52.000Z</time></trkpt><trkpt lon="5.785972" lat="51.026384"><ele>25.8</ele><time>2022-06-26T06:39:53.000Z</time></trkpt><trkpt lon="5.785825" lat="51.026352"><ele>25.4</ele><time>2022-06-26T06:39:54.000Z</time></trkpt><trkpt lon="5.785759" lat="51.026336"><ele>25</ele><time>2022-06-26T06:39:55.000Z</time></trkpt><trkpt lon="5.785602" lat="51.02629"><ele>24.6</ele><time>2022-06-26T06:39:56.000Z</time></trkpt><trkpt lon="5.785536" lat="51.02627"><ele>24.2</ele><time>2022-06-26T06:39:57.000Z</time></trkpt><trkpt lon="5.785378" lat="51.026218"><ele>23.8</ele><time>2022-06-26T06:39:58.000Z</time></trkpt><trkpt lon="5.785307" lat="51.026195"><ele>23.6</ele><time>2022-06-26T06:39:59.000Z</time></trkpt><trkpt lon="5.78516" lat="51.026145"><ele>23.4</ele><time>2022-06-26T06:40:00.000Z</time></trkpt><trkpt lon="5.785096" lat="51.026125"><ele>23.2</ele><time>2022-06-26T06:40:01.000Z</time></trkpt><trkpt lon="5.784942" lat="51.026073"><ele>22.8</ele><time>2022-06-26T06:40:02.000Z</time></trkpt><trkpt lon="5.784877" lat="51.026053"><ele>22.6</ele><time>2022-06-26T06:40:03.000Z</time></trkpt><trkpt lon="5.784722" lat="51.026004"><ele>22.6</ele><time>2022-06-26T06:40:04.000Z</time></trkpt><trkpt lon="5.784659" lat="51.025982"><ele>22.4</ele><time>2022-06-26T06:40:05.000Z</time></trkpt><trkpt lon="5.784509" lat="51.025932"><ele>22.4</ele><time>2022-06-26T06:40:06.000Z</time></trkpt><trkpt lon="5.784447" lat="51.025911"><ele>22.4</ele><time>2022-06-26T06:40:07.000Z</time></trkpt><trkpt lon="5.78431" lat="51.025863"><ele>22.4</ele><time>2022-06-26T06:40:08.000Z</time></trkpt><trkpt lon="5.784257" lat="51.025846"><ele>22.4</ele><time>2022-06-26T06:40:09.000Z</time></trkpt><trkpt lon="5.78413" lat="51.025806"><ele>22.6</ele><time>2022-06-26T06:40:10.000Z</time></trkpt><trkpt lon="5.78408" lat="51.025787"><ele>22.8</ele><time>2022-06-26T06:40:11.000Z</time></trkpt><trkpt lon="5.783974" lat="51.025753"><ele>22.8</ele><time>2022-06-26T06:40:12.000Z</time></trkpt><trkpt lon="5.783943" lat="51.025741"><ele>22.8</ele><time>2022-06-26T06:40:13.000Z</time></trkpt><trkpt lon="5.783864" lat="51.025711"><ele>23</ele><time>2022-06-26T06:40:14.000Z</time></trkpt><trkpt lon="5.783826" lat="51.025695"><ele>23</ele><time>2022-06-26T06:40:15.000Z</time></trkpt><trkpt lon="5.783808" lat="51.025683"><ele>23</ele><time>2022-06-26T06:40:16.000Z</time></trkpt><trkpt lon="5.783789" lat="51.025641"><ele>23</ele><time>2022-06-26T06:40:17.000Z</time></trkpt><trkpt lon="5.783802" lat="51.025604"><ele>23.2</ele><time>2022-06-26T06:40:18.000Z</time></trkpt><trkpt lon="5.783819" lat="51.02558"><ele>23.2</ele><time>2022-06-26T06:40:19.000Z</time></trkpt><trkpt lon="5.783872" lat="51.025513"><ele>23.2</ele><time>2022-06-26T06:40:20.000Z</time></trkpt><trkpt lon="5.783904" lat="51.025474"><ele>23.4</ele><time>2022-06-26T06:40:21.000Z</time></trkpt><trkpt lon="5.783941" lat="51.025424"><ele>23.6</ele><time>2022-06-26T06:40:22.000Z</time></trkpt><trkpt lon="5.783999" lat="51.02534"><ele>23.8</ele><time>2022-06-26T06:40:23.000Z</time></trkpt><trkpt lon="5.784034" lat="51.025283"><ele>24.2</ele><time>2022-06-26T06:40:24.000Z</time></trkpt><trkpt lon="5.784067" lat="51.025226"><ele>24.2</ele><time>2022-06-26T06:40:25.000Z</time></trkpt><trkpt lon="5.784097" lat="51.025168"><ele>24.4</ele><time>2022-06-26T06:40:26.000Z</time></trkpt><trkpt lon="5.784134" lat="51.025111"><ele>24.8</ele><time>2022-06-26T06:40:27.000Z</time></trkpt><trkpt lon="5.784166" lat="51.025053"><ele>25</ele><time>2022-06-26T06:40:28.000Z</time></trkpt><trkpt lon="5.784201" lat="51.024992"><ele>25.2</ele><time>2022-06-26T06:40:29.000Z</time></trkpt><trkpt lon="5.784234" lat="51.024935"><ele>25.4</ele><time>2022-06-26T06:40:30.000Z</time></trkpt><trkpt lon="5.784266" lat="51.02487"><ele>25.4</ele><time>2022-06-26T06:40:31.000Z</time></trkpt><trkpt lon="5.784298" lat="51.02481"><ele>25.6</ele><time>2022-06-26T06:40:32.000Z</time></trkpt><trkpt lon="5.78433" lat="51.024749"><ele>25.8</ele><time>2022-06-26T06:40:33.000Z</time></trkpt><trkpt lon="5.78436" lat="51.024688"><ele>26</ele><time>2022-06-26T06:40:34.000Z</time></trkpt><trkpt lon="5.784382" lat="51.024632"><ele>26.4</ele><time>2022-06-26T06:40:35.000Z</time></trkpt><trkpt lon="5.784411" lat="51.024572"><ele>26.6</ele><time>2022-06-26T06:40:36.000Z</time></trkpt><trkpt lon="5.78444" lat="51.024512"><ele>26.6</ele><time>2022-06-26T06:40:37.000Z</time></trkpt><trkpt lon="5.784469" lat="51.024455"><ele>27</ele><time>2022-06-26T06:40:38.000Z</time></trkpt><trkpt lon="5.784499" lat="51.024394"><ele>27.2</ele><time>2022-06-26T06:40:39.000Z</time></trkpt><trkpt lon="5.784529" lat="51.024341"><ele>27.2</ele><time>2022-06-26T06:40:40.000Z</time></trkpt><trkpt lon="5.784556" lat="51.024279"><ele>27.4</ele><time>2022-06-26T06:40:41.000Z</time></trkpt><trkpt lon="5.78458" lat="51.024224"><ele>27.6</ele><time>2022-06-26T06:40:42.000Z</time></trkpt><trkpt lon="5.784607" lat="51.024161"><ele>27.8</ele><time>2022-06-26T06:40:43.000Z</time></trkpt><trkpt lon="5.784635" lat="51.024105"><ele>28</ele><time>2022-06-26T06:40:44.000Z</time></trkpt><trkpt lon="5.784665" lat="51.024043"><ele>28.2</ele><time>2022-06-26T06:40:45.000Z</time></trkpt><trkpt lon="5.784694" lat="51.023982"><ele>28.2</ele><time>2022-06-26T06:40:46.000Z</time></trkpt><trkpt lon="5.784722" lat="51.023921"><ele>28.2</ele><time>2022-06-26T06:40:47.000Z</time></trkpt><trkpt lon="5.784749" lat="51.023861"><ele>28.2</ele><time>2022-06-26T06:40:48.000Z</time></trkpt><trkpt lon="5.784773" lat="51.023796"><ele>28.4</ele><time>2022-06-26T06:40:49.000Z</time></trkpt><trkpt lon="5.784798" lat="51.023736"><ele>28.4</ele><time>2022-06-26T06:40:50.000Z</time></trkpt><trkpt lon="5.784826" lat="51.023671"><ele>28.4</ele><time>2022-06-26T06:40:51.000Z</time></trkpt><trkpt lon="5.784851" lat="51.02361"><ele>28.4</ele><time>2022-06-26T06:40:52.000Z</time></trkpt><trkpt lon="5.784877" lat="51.023548"><ele>28.6</ele><time>2022-06-26T06:40:53.000Z</time></trkpt><trkpt lon="5.784903" lat="51.023484"><ele>28.6</ele><time>2022-06-26T06:40:54.000Z</time></trkpt><trkpt lon="5.78493" lat="51.023426"><ele>28.8</ele><time>2022-06-26T06:40:55.000Z</time></trkpt><trkpt lon="5.784956" lat="51.023365"><ele>28.8</ele><time>2022-06-26T06:40:56.000Z</time></trkpt><trkpt lon="5.784983" lat="51.0233"><ele>29</ele><time>2022-06-26T06:40:57.000Z</time></trkpt><trkpt lon="5.78501" lat="51.023235"><ele>29</ele><time>2022-06-26T06:40:58.000Z</time></trkpt><trkpt lon="5.785033" lat="51.023171"><ele>29</ele><time>2022-06-26T06:40:59.000Z</time></trkpt><trkpt lon="5.785061" lat="51.023107"><ele>29</ele><time>2022-06-26T06:41:00.000Z</time></trkpt><trkpt lon="5.785092" lat="51.023045"><ele>29</ele><time>2022-06-26T06:41:01.000Z</time></trkpt><trkpt lon="5.785123" lat="51.022976"><ele>28.8</ele><time>2022-06-26T06:41:02.000Z</time></trkpt><trkpt lon="5.785154" lat="51.022912"><ele>28.8</ele><time>2022-06-26T06:41:03.000Z</time></trkpt><trkpt lon="5.785187" lat="51.022846"><ele>28.6</ele><time>2022-06-26T06:41:04.000Z</time></trkpt><trkpt lon="5.785217" lat="51.022782"><ele>28.6</ele><time>2022-06-26T06:41:05.000Z</time></trkpt><trkpt lon="5.78525" lat="51.022713"><ele>28.6</ele><time>2022-06-26T06:41:06.000Z</time></trkpt><trkpt lon="5.785286" lat="51.022651"><ele>28.6</ele><time>2022-06-26T06:41:07.000Z</time></trkpt><trkpt lon="5.785332" lat="51.022583"><ele>28.6</ele><time>2022-06-26T06:41:08.000Z</time></trkpt><trkpt lon="5.785376" lat="51.022519"><ele>28.6</ele><time>2022-06-26T06:41:09.000Z</time></trkpt><trkpt lon="5.785422" lat="51.022455"><ele>28.2</ele><time>2022-06-26T06:41:10.000Z</time></trkpt><trkpt lon="5.78547" lat="51.022394"><ele>28.2</ele><time>2022-06-26T06:41:11.000Z</time></trkpt><trkpt lon="5.785522" lat="51.022336"><ele>28</ele><time>2022-06-26T06:41:12.000Z</time></trkpt><trkpt lon="5.78558" lat="51.022282"><ele>28</ele><time>2022-06-26T06:41:13.000Z</time></trkpt><trkpt lon="5.785639" lat="51.022221"><ele>28.2</ele><time>2022-06-26T06:41:14.000Z</time></trkpt><trkpt lon="5.785699" lat="51.022164"><ele>28.2</ele><time>2022-06-26T06:41:15.000Z</time></trkpt><trkpt lon="5.785764" lat="51.022102"><ele>28.2</ele><time>2022-06-26T06:41:16.000Z</time></trkpt><trkpt lon="5.78583" lat="51.022045"><ele>28.4</ele><time>2022-06-26T06:41:17.000Z</time></trkpt><trkpt lon="5.785895" lat="51.021991"><ele>28.4</ele><time>2022-06-26T06:41:18.000Z</time></trkpt><trkpt lon="5.785959" lat="51.02194"><ele>28.6</ele><time>2022-06-26T06:41:19.000Z</time></trkpt><trkpt lon="5.786025" lat="51.021883"><ele>28.8</ele><time>2022-06-26T06:41:20.000Z</time></trkpt><trkpt lon="5.786085" lat="51.021832"><ele>29</ele><time>2022-06-26T06:41:21.000Z</time></trkpt><trkpt lon="5.786148" lat="51.021777"><ele>29</ele><time>2022-06-26T06:41:22.000Z</time></trkpt><trkpt lon="5.786204" lat="51.021729"><ele>29.2</ele><time>2022-06-26T06:41:23.000Z</time></trkpt><trkpt lon="5.786265" lat="51.021674"><ele>29.4</ele><time>2022-06-26T06:41:24.000Z</time></trkpt><trkpt lon="5.786326" lat="51.021625"><ele>29.6</ele><time>2022-06-26T06:41:25.000Z</time></trkpt><trkpt lon="5.786386" lat="51.021579"><ele>29.8</ele><time>2022-06-26T06:41:26.000Z</time></trkpt><trkpt lon="5.786443" lat="51.021529"><ele>30</ele><time>2022-06-26T06:41:27.000Z</time></trkpt><trkpt lon="5.786497" lat="51.021476"><ele>30.2</ele><time>2022-06-26T06:41:28.000Z</time></trkpt><trkpt lon="5.786554" lat="51.02143"><ele>30.6</ele><time>2022-06-26T06:41:29.000Z</time></trkpt><trkpt lon="5.786609" lat="51.021385"><ele>30.8</ele><time>2022-06-26T06:41:30.000Z</time></trkpt><trkpt lon="5.786668" lat="51.021334"><ele>30.8</ele><time>2022-06-26T06:41:31.000Z</time></trkpt><trkpt lon="5.786721" lat="51.021289"><ele>31</ele><time>2022-06-26T06:41:32.000Z</time></trkpt><trkpt lon="5.786776" lat="51.021239"><ele>31</ele><time>2022-06-26T06:41:33.000Z</time></trkpt><trkpt lon="5.78683" lat="51.02119"><ele>31.4</ele><time>2022-06-26T06:41:34.000Z</time></trkpt><trkpt lon="5.786886" lat="51.02114"><ele>31.6</ele><time>2022-06-26T06:41:35.000Z</time></trkpt><trkpt lon="5.786941" lat="51.021095"><ele>32</ele><time>2022-06-26T06:41:36.000Z</time></trkpt><trkpt lon="5.786997" lat="51.021048"><ele>32</ele><time>2022-06-26T06:41:37.000Z</time></trkpt><trkpt lon="5.787051" lat="51.021002"><ele>32.2</ele><time>2022-06-26T06:41:38.000Z</time></trkpt><trkpt lon="5.787106" lat="51.020957"><ele>32.6</ele><time>2022-06-26T06:41:39.000Z</time></trkpt><trkpt lon="5.787157" lat="51.020916"><ele>32.8</ele><time>2022-06-26T06:41:40.000Z</time></trkpt><trkpt lon="5.787205" lat="51.020877"><ele>33</ele><time>2022-06-26T06:41:41.000Z</time></trkpt><trkpt lon="5.787255" lat="51.020838"><ele>33.2</ele><time>2022-06-26T06:41:42.000Z</time></trkpt><trkpt lon="5.787302" lat="51.0208"><ele>33.4</ele><time>2022-06-26T06:41:43.000Z</time></trkpt><trkpt lon="5.787342" lat="51.020755"><ele>33.6</ele><time>2022-06-26T06:41:44.000Z</time></trkpt><trkpt lon="5.787369" lat="51.020709"><ele>33.8</ele><time>2022-06-26T06:41:45.000Z</time></trkpt><trkpt lon="5.78738" lat="51.020659"><ele>33.8</ele><time>2022-06-26T06:41:46.000Z</time></trkpt><trkpt lon="5.787377" lat="51.02061"><ele>34</ele><time>2022-06-26T06:41:47.000Z</time></trkpt><trkpt lon="5.787361" lat="51.020557"><ele>34.2</ele><time>2022-06-26T06:41:48.000Z</time></trkpt><trkpt lon="5.787331" lat="51.020503"><ele>34.2</ele><time>2022-06-26T06:41:49.000Z</time></trkpt><trkpt lon="5.787303" lat="51.020465"><ele>34.4</ele><time>2022-06-26T06:41:50.000Z</time></trkpt><trkpt lon="5.787259" lat="51.020415"><ele>34.6</ele><time>2022-06-26T06:41:51.000Z</time></trkpt><trkpt lon="5.787242" lat="51.020392"><ele>34.8</ele><time>2022-06-26T06:41:52.000Z</time></trkpt><trkpt lon="5.787227" lat="51.020372"><ele>35</ele><time>2022-06-26T06:41:53.000Z</time></trkpt><trkpt lon="5.787161" lat="51.02027"><ele>35.2</ele><time>2022-06-26T06:41:54.000Z</time></trkpt><trkpt lon="5.787127" lat="51.020222"><ele>35.4</ele><time>2022-06-26T06:41:55.000Z</time></trkpt><trkpt lon="5.787094" lat="51.020175"><ele>35.6</ele><time>2022-06-26T06:41:56.000Z</time></trkpt><trkpt lon="5.787064" lat="51.020127"><ele>35.8</ele><time>2022-06-26T06:41:57.000Z</time></trkpt><trkpt lon="5.787028" lat="51.020076"><ele>36</ele><time>2022-06-26T06:41:58.000Z</time></trkpt><trkpt lon="5.786989" lat="51.02003"><ele>36.2</ele><time>2022-06-26T06:41:59.000Z</time></trkpt><trkpt lon="5.786953" lat="51.019984"><ele>36.4</ele><time>2022-06-26T06:42:00.000Z</time></trkpt><trkpt lon="5.786916" lat="51.019938"><ele>36.6</ele><time>2022-06-26T06:42:01.000Z</time></trkpt><trkpt lon="5.786865" lat="51.019881"><ele>36.8</ele><time>2022-06-26T06:42:02.000Z</time></trkpt><trkpt lon="5.786822" lat="51.019846"><ele>37</ele><time>2022-06-26T06:42:03.000Z</time></trkpt><trkpt lon="5.786783" lat="51.019801"><ele>37</ele><time>2022-06-26T06:42:04.000Z</time></trkpt><trkpt lon="5.786771" lat="51.019767"><ele>37.2</ele><time>2022-06-26T06:42:05.000Z</time></trkpt><trkpt lon="5.786776" lat="51.019718"><ele>37.4</ele><time>2022-06-26T06:42:06.000Z</time></trkpt><trkpt lon="5.786799" lat="51.019683"><ele>37.4</ele><time>2022-06-26T06:42:07.000Z</time></trkpt><trkpt lon="5.786845" lat="51.019653"><ele>37.6</ele><time>2022-06-26T06:42:08.000Z</time></trkpt><trkpt lon="5.786912" lat="51.019615"><ele>37.6</ele><time>2022-06-26T06:42:09.000Z</time></trkpt><trkpt lon="5.786975" lat="51.019586"><ele>37.6</ele><time>2022-06-26T06:42:10.000Z</time></trkpt><trkpt lon="5.787061" lat="51.019542"><ele>37.8</ele><time>2022-06-26T06:42:11.000Z</time></trkpt><trkpt lon="5.787132" lat="51.019512"><ele>37.8</ele><time>2022-06-26T06:42:12.000Z</time></trkpt><trkpt lon="5.787225" lat="51.019481"><ele>37.8</ele><time>2022-06-26T06:42:13.000Z</time></trkpt><trkpt lon="5.787295" lat="51.019451"><ele>37.8</ele><time>2022-06-26T06:42:14.000Z</time></trkpt><trkpt lon="5.787393" lat="51.019416"><ele>37.8</ele><time>2022-06-26T06:42:15.000Z</time></trkpt><trkpt lon="5.787464" lat="51.01939"><ele>37.8</ele><time>2022-06-26T06:42:16.000Z</time></trkpt><trkpt lon="5.787567" lat="51.019363"><ele>37.8</ele><time>2022-06-26T06:42:17.000Z</time></trkpt><trkpt lon="5.787648" lat="51.01934"><ele>37.8</ele><time>2022-06-26T06:42:18.000Z</time></trkpt><trkpt lon="5.787759" lat="51.019305"><ele>37.8</ele><time>2022-06-26T06:42:19.000Z</time></trkpt><trkpt lon="5.787839" lat="51.019278"><ele>37.8</ele><time>2022-06-26T06:42:20.000Z</time></trkpt><trkpt lon="5.787947" lat="51.019245"><ele>37.6</ele><time>2022-06-26T06:42:21.000Z</time></trkpt><trkpt lon="5.788024" lat="51.019224"><ele>37.6</ele><time>2022-06-26T06:42:22.000Z</time></trkpt><trkpt lon="5.788144" lat="51.019188"><ele>37.4</ele><time>2022-06-26T06:42:23.000Z</time></trkpt><trkpt lon="5.788245" lat="51.019164"><ele>37.2</ele><time>2022-06-26T06:42:24.000Z</time></trkpt><trkpt lon="5.788348" lat="51.019134"><ele>37</ele><time>2022-06-26T06:42:25.000Z</time></trkpt><trkpt lon="5.788433" lat="51.01911"><ele>36.8</ele><time>2022-06-26T06:42:26.000Z</time></trkpt><trkpt lon="5.788572" lat="51.019077"><ele>36.6</ele><time>2022-06-26T06:42:27.000Z</time></trkpt><trkpt lon="5.788664" lat="51.019053"><ele>36.2</ele><time>2022-06-26T06:42:28.000Z</time></trkpt><trkpt lon="5.788806" lat="51.019027"><ele>36</ele><time>2022-06-26T06:42:29.000Z</time></trkpt><trkpt lon="5.788929" lat="51.019008"><ele>35.8</ele><time>2022-06-26T06:42:30.000Z</time></trkpt><trkpt lon="5.789043" lat="51.018997"><ele>35.4</ele><time>2022-06-26T06:42:31.000Z</time></trkpt><trkpt lon="5.789147" lat="51.018984"><ele>35.2</ele><time>2022-06-26T06:42:32.000Z</time></trkpt><trkpt lon="5.789288" lat="51.018966"><ele>34.8</ele><time>2022-06-26T06:42:33.000Z</time></trkpt><trkpt lon="5.789402" lat="51.018952"><ele>34.6</ele><time>2022-06-26T06:42:34.000Z</time></trkpt><trkpt lon="5.789534" lat="51.01894"><ele>34.2</ele><time>2022-06-26T06:42:35.000Z</time></trkpt><trkpt lon="5.789629" lat="51.018932"><ele>34</ele><time>2022-06-26T06:42:36.000Z</time></trkpt><trkpt lon="5.789794" lat="51.018917"><ele>33.6</ele><time>2022-06-26T06:42:37.000Z</time></trkpt><trkpt lon="5.789902" lat="51.018911"><ele>33.2</ele><time>2022-06-26T06:42:38.000Z</time></trkpt><trkpt lon="5.790063" lat="51.018894"><ele>33</ele><time>2022-06-26T06:42:39.000Z</time></trkpt><trkpt lon="5.790167" lat="51.018885"><ele>32.6</ele><time>2022-06-26T06:42:40.000Z</time></trkpt><trkpt lon="5.790333" lat="51.018871"><ele>32.4</ele><time>2022-06-26T06:42:41.000Z</time></trkpt><trkpt lon="5.790442" lat="51.018859"><ele>32.2</ele><time>2022-06-26T06:42:42.000Z</time></trkpt><trkpt lon="5.790601" lat="51.018844"><ele>31.8</ele><time>2022-06-26T06:42:43.000Z</time></trkpt><trkpt lon="5.790708" lat="51.018833"><ele>31.6</ele><time>2022-06-26T06:42:44.000Z</time></trkpt><trkpt lon="5.790878" lat="51.018818"><ele>31.2</ele><time>2022-06-26T06:42:45.000Z</time></trkpt><trkpt lon="5.79101" lat="51.018806"><ele>31</ele><time>2022-06-26T06:42:46.000Z</time></trkpt><trkpt lon="5.791142" lat="51.018795"><ele>30.6</ele><time>2022-06-26T06:42:47.000Z</time></trkpt><trkpt lon="5.791235" lat="51.018787"><ele>30.4</ele><time>2022-06-26T06:42:48.000Z</time></trkpt><trkpt lon="5.791399" lat="51.018772"><ele>30.2</ele><time>2022-06-26T06:42:49.000Z</time></trkpt><trkpt lon="5.791514" lat="51.018765"><ele>30</ele><time>2022-06-26T06:42:50.000Z</time></trkpt><trkpt lon="5.791632" lat="51.018757"><ele>30</ele><time>2022-06-26T06:42:51.000Z</time></trkpt><trkpt lon="5.791715" lat="51.018751"><ele>29.8</ele><time>2022-06-26T06:42:52.000Z</time></trkpt><trkpt lon="5.791839" lat="51.018741"><ele>29.8</ele><time>2022-06-26T06:42:53.000Z</time></trkpt><trkpt lon="5.791907" lat="51.018732"><ele>29.8</ele><time>2022-06-26T06:42:54.000Z</time></trkpt><trkpt lon="5.791992" lat="51.01871"><ele>30</ele><time>2022-06-26T06:42:55.000Z</time></trkpt><trkpt lon="5.792025" lat="51.018683"><ele>30</ele><time>2022-06-26T06:42:56.000Z</time></trkpt><trkpt lon="5.792052" lat="51.018634"><ele>30</ele><time>2022-06-26T06:42:57.000Z</time></trkpt><trkpt lon="5.79206" lat="51.018584"><ele>30.2</ele><time>2022-06-26T06:42:58.000Z</time></trkpt><trkpt lon="5.79206" lat="51.018544"><ele>30.2</ele><time>2022-06-26T06:42:59.000Z</time></trkpt><trkpt lon="5.792062" lat="51.018462"><ele>30.2</ele><time>2022-06-26T06:43:00.000Z</time></trkpt><trkpt lon="5.792062" lat="51.018422"><ele>30.4</ele><time>2022-06-26T06:43:01.000Z</time></trkpt><trkpt lon="5.792067" lat="51.018347"><ele>30.4</ele><time>2022-06-26T06:43:02.000Z</time></trkpt><trkpt lon="5.792067" lat="51.0183"><ele>30.6</ele><time>2022-06-26T06:43:03.000Z</time></trkpt><trkpt lon="5.792065" lat="51.018241"><ele>30.6</ele><time>2022-06-26T06:43:04.000Z</time></trkpt><trkpt lon="5.792065" lat="51.018192"><ele>30.6</ele><time>2022-06-26T06:43:05.000Z</time></trkpt><trkpt lon="5.792065" lat="51.018115"><ele>30.6</ele><time>2022-06-26T06:43:06.000Z</time></trkpt><trkpt lon="5.792066" lat="51.018067"><ele>30.6</ele><time>2022-06-26T06:43:07.000Z</time></trkpt><trkpt lon="5.792065" lat="51.017985"><ele>30.8</ele><time>2022-06-26T06:43:08.000Z</time></trkpt><trkpt lon="5.792063" lat="51.017938"><ele>30.8</ele><time>2022-06-26T06:43:09.000Z</time></trkpt><trkpt lon="5.792053" lat="51.017844"><ele>30.8</ele><time>2022-06-26T06:43:10.000Z</time></trkpt><trkpt lon="5.792048" lat="51.017786"><ele>30.6</ele><time>2022-06-26T06:43:11.000Z</time></trkpt><trkpt lon="5.792038" lat="51.017699"><ele>30.6</ele><time>2022-06-26T06:43:12.000Z</time></trkpt><trkpt lon="5.792033" lat="51.017644"><ele>30.6</ele><time>2022-06-26T06:43:13.000Z</time></trkpt><trkpt lon="5.792023" lat="51.017554"><ele>30.4</ele><time>2022-06-26T06:43:14.000Z</time></trkpt><trkpt lon="5.792018" lat="51.017496"><ele>30.4</ele><time>2022-06-26T06:43:15.000Z</time></trkpt><trkpt lon="5.79201" lat="51.017405"><ele>30.6</ele><time>2022-06-26T06:43:16.000Z</time></trkpt><trkpt lon="5.792006" lat="51.017351"><ele>30.6</ele><time>2022-06-26T06:43:17.000Z</time></trkpt><trkpt lon="5.791998" lat="51.01726"><ele>30.6</ele><time>2022-06-26T06:43:18.000Z</time></trkpt><trkpt lon="5.791996" lat="51.017207"><ele>30.6</ele><time>2022-06-26T06:43:19.000Z</time></trkpt><trkpt lon="5.79199" lat="51.017119"><ele>30.8</ele><time>2022-06-26T06:43:20.000Z</time></trkpt><trkpt lon="5.791987" lat="51.017057"><ele>30.8</ele><time>2022-06-26T06:43:21.000Z</time></trkpt><trkpt lon="5.791979" lat="51.016981"><ele>30.8</ele><time>2022-06-26T06:43:22.000Z</time></trkpt><trkpt lon="5.791972" lat="51.016928"><ele>30.8</ele><time>2022-06-26T06:43:23.000Z</time></trkpt><trkpt lon="5.791962" lat="51.016845"><ele>30.6</ele><time>2022-06-26T06:43:24.000Z</time></trkpt><trkpt lon="5.791956" lat="51.016787"><ele>30.6</ele><time>2022-06-26T06:43:25.000Z</time></trkpt><trkpt lon="5.791948" lat="51.016711"><ele>30.8</ele><time>2022-06-26T06:43:26.000Z</time></trkpt><trkpt lon="5.791944" lat="51.01665"><ele>30.8</ele><time>2022-06-26T06:43:27.000Z</time></trkpt><trkpt lon="5.79194" lat="51.01657"><ele>30.8</ele><time>2022-06-26T06:43:28.000Z</time></trkpt><trkpt lon="5.791937" lat="51.016527"><ele>30.8</ele><time>2022-06-26T06:43:29.000Z</time></trkpt><trkpt lon="5.791928" lat="51.016429"><ele>31</ele><time>2022-06-26T06:43:30.000Z</time></trkpt><trkpt lon="5.791926" lat="51.016381"><ele>31</ele><time>2022-06-26T06:43:31.000Z</time></trkpt><trkpt lon="5.79192" lat="51.016288"><ele>31.2</ele><time>2022-06-26T06:43:32.000Z</time></trkpt><trkpt lon="5.791916" lat="51.016231"><ele>31.2</ele><time>2022-06-26T06:43:33.000Z</time></trkpt><trkpt lon="5.791912" lat="51.01615"><ele>31.4</ele><time>2022-06-26T06:43:34.000Z</time></trkpt><trkpt lon="5.791909" lat="51.016104"><ele>31.4</ele><time>2022-06-26T06:43:35.000Z</time></trkpt><trkpt lon="5.791903" lat="51.016006"><ele>31.4</ele><time>2022-06-26T06:43:36.000Z</time></trkpt><trkpt lon="5.791901" lat="51.015963"><ele>31.6</ele><time>2022-06-26T06:43:37.000Z</time></trkpt><trkpt lon="5.791895" lat="51.015872"><ele>31.6</ele><time>2022-06-26T06:43:38.000Z</time></trkpt><trkpt lon="5.79189" lat="51.015827"><ele>31.6</ele><time>2022-06-26T06:43:39.000Z</time></trkpt><trkpt lon="5.791882" lat="51.015731"><ele>31.8</ele><time>2022-06-26T06:43:40.000Z</time></trkpt><trkpt lon="5.791878" lat="51.015684"><ele>31.8</ele><time>2022-06-26T06:43:41.000Z</time></trkpt><trkpt lon="5.791871" lat="51.015593"><ele>31.8</ele><time>2022-06-26T06:43:42.000Z</time></trkpt><trkpt lon="5.791868" lat="51.015546"><ele>32</ele><time>2022-06-26T06:43:43.000Z</time></trkpt><trkpt lon="5.791861" lat="51.015453"><ele>32</ele><time>2022-06-26T06:43:44.000Z</time></trkpt><trkpt lon="5.791857" lat="51.015408"><ele>32</ele><time>2022-06-26T06:43:45.000Z</time></trkpt><trkpt lon="5.791848" lat="51.015311"><ele>32</ele><time>2022-06-26T06:43:46.000Z</time></trkpt><trkpt lon="5.791844" lat="51.015267"><ele>32</ele><time>2022-06-26T06:43:47.000Z</time></trkpt><trkpt lon="5.791837" lat="51.015174"><ele>32</ele><time>2022-06-26T06:43:48.000Z</time></trkpt><trkpt lon="5.791833" lat="51.015124"><ele>32</ele><time>2022-06-26T06:43:49.000Z</time></trkpt><trkpt lon="5.791827" lat="51.015033"><ele>32</ele><time>2022-06-26T06:43:50.000Z</time></trkpt><trkpt lon="5.791821" lat="51.014978"><ele>32</ele><time>2022-06-26T06:43:51.000Z</time></trkpt><trkpt lon="5.791815" lat="51.014899"><ele>32</ele><time>2022-06-26T06:43:52.000Z</time></trkpt><trkpt lon="5.79181" lat="51.014847"><ele>31.8</ele><time>2022-06-26T06:43:53.000Z</time></trkpt><trkpt lon="5.791801" lat="51.014758"><ele>31.8</ele><time>2022-06-26T06:43:54.000Z</time></trkpt><trkpt lon="5.791798" lat="51.014715"><ele>31.8</ele><time>2022-06-26T06:43:55.000Z</time></trkpt><trkpt lon="5.79179" lat="51.014621"><ele>31.8</ele><time>2022-06-26T06:43:56.000Z</time></trkpt><trkpt lon="5.791785" lat="51.014574"><ele>31.8</ele><time>2022-06-26T06:43:57.000Z</time></trkpt><trkpt lon="5.791775" lat="51.014479"><ele>31.6</ele><time>2022-06-26T06:43:58.000Z</time></trkpt><trkpt lon="5.791772" lat="51.014436"><ele>31.6</ele><time>2022-06-26T06:43:59.000Z</time></trkpt><trkpt lon="5.791765" lat="51.014342"><ele>31.8</ele><time>2022-06-26T06:44:00.000Z</time></trkpt><trkpt lon="5.791762" lat="51.0143"><ele>31.8</ele><time>2022-06-26T06:44:01.000Z</time></trkpt><trkpt lon="5.791755" lat="51.014201"><ele>31.8</ele><time>2022-06-26T06:44:02.000Z</time></trkpt><trkpt lon="5.79175" lat="51.014148"><ele>31.8</ele><time>2022-06-26T06:44:03.000Z</time></trkpt><trkpt lon="5.791742" lat="51.014064"><ele>31.8</ele><time>2022-06-26T06:44:04.000Z</time></trkpt><trkpt lon="5.791738" lat="51.014019"><ele>31.8</ele><time>2022-06-26T06:44:05.000Z</time></trkpt><trkpt lon="5.791732" lat="51.013923"><ele>31.8</ele><time>2022-06-26T06:44:06.000Z</time></trkpt><trkpt lon="5.791727" lat="51.013877"><ele>31.8</ele><time>2022-06-26T06:44:07.000Z</time></trkpt><trkpt lon="5.79172" lat="51.013789"><ele>31.8</ele><time>2022-06-26T06:44:08.000Z</time></trkpt><trkpt lon="5.791718" lat="51.013741"><ele>31.8</ele><time>2022-06-26T06:44:09.000Z</time></trkpt><trkpt lon="5.791712" lat="51.013652"><ele>31.6</ele><time>2022-06-26T06:44:10.000Z</time></trkpt><trkpt lon="5.791707" lat="51.013604"><ele>31.6</ele><time>2022-06-26T06:44:11.000Z</time></trkpt><trkpt lon="5.791698" lat="51.013511"><ele>31.6</ele><time>2022-06-26T06:44:12.000Z</time></trkpt><trkpt lon="5.791694" lat="51.013469"><ele>31.4</ele><time>2022-06-26T06:44:13.000Z</time></trkpt><trkpt lon="5.791686" lat="51.013377"><ele>31.4</ele><time>2022-06-26T06:44:14.000Z</time></trkpt><trkpt lon="5.791683" lat="51.013334"><ele>31.4</ele><time>2022-06-26T06:44:15.000Z</time></trkpt><trkpt lon="5.791678" lat="51.01324"><ele>31.2</ele><time>2022-06-26T06:44:16.000Z</time></trkpt><trkpt lon="5.791674" lat="51.013192"><ele>31.2</ele><time>2022-06-26T06:44:17.000Z</time></trkpt><trkpt lon="5.791666" lat="51.013102"><ele>31.2</ele><time>2022-06-26T06:44:18.000Z</time></trkpt><trkpt lon="5.791661" lat="51.013051"><ele>31.4</ele><time>2022-06-26T06:44:19.000Z</time></trkpt><trkpt lon="5.791656" lat="51.012961"><ele>31.4</ele><time>2022-06-26T06:44:20.000Z</time></trkpt><trkpt lon="5.791654" lat="51.01292"><ele>31.4</ele><time>2022-06-26T06:44:21.000Z</time></trkpt><trkpt lon="5.791645" lat="51.012825"><ele>31.6</ele><time>2022-06-26T06:44:22.000Z</time></trkpt><trkpt lon="5.791641" lat="51.012777"><ele>31.6</ele><time>2022-06-26T06:44:23.000Z</time></trkpt><trkpt lon="5.791635" lat="51.012691"><ele>31.6</ele><time>2022-06-26T06:44:24.000Z</time></trkpt><trkpt lon="5.79163" lat="51.012646"><ele>31.8</ele><time>2022-06-26T06:44:25.000Z</time></trkpt><trkpt lon="5.791623" lat="51.012557"><ele>31.8</ele><time>2022-06-26T06:44:26.000Z</time></trkpt><trkpt lon="5.791619" lat="51.012512"><ele>31.8</ele><time>2022-06-26T06:44:27.000Z</time></trkpt><trkpt lon="5.791608" lat="51.01242"><ele>31.8</ele><time>2022-06-26T06:44:28.000Z</time></trkpt><trkpt lon="5.791604" lat="51.012377"><ele>31.8</ele><time>2022-06-26T06:44:29.000Z</time></trkpt><trkpt lon="5.791597" lat="51.012286"><ele>31.6</ele><time>2022-06-26T06:44:30.000Z</time></trkpt><trkpt lon="5.791592" lat="51.012241"><ele>31.6</ele><time>2022-06-26T06:44:31.000Z</time></trkpt><trkpt lon="5.791585" lat="51.012149"><ele>31.8</ele><time>2022-06-26T06:44:32.000Z</time></trkpt><trkpt lon="5.791581" lat="51.012108"><ele>31.8</ele><time>2022-06-26T06:44:33.000Z</time></trkpt><trkpt lon="5.791573" lat="51.012015"><ele>31.8</ele><time>2022-06-26T06:44:34.000Z</time></trkpt><trkpt lon="5.79157" lat="51.011976"><ele>31.8</ele><time>2022-06-26T06:44:35.000Z</time></trkpt><trkpt lon="5.791562" lat="51.011888"><ele>32</ele><time>2022-06-26T06:44:36.000Z</time></trkpt><trkpt lon="5.791559" lat="51.011835"><ele>32</ele><time>2022-06-26T06:44:37.000Z</time></trkpt><trkpt lon="5.791555" lat="51.011752"><ele>32</ele><time>2022-06-26T06:44:38.000Z</time></trkpt><trkpt lon="5.791552" lat="51.01171"><ele>32</ele><time>2022-06-26T06:44:39.000Z</time></trkpt><trkpt lon="5.791541" lat="51.011614"><ele>32</ele><time>2022-06-26T06:44:40.000Z</time></trkpt><trkpt lon="5.791536" lat="51.011562"><ele>32</ele><time>2022-06-26T06:44:41.000Z</time></trkpt><trkpt lon="5.79153" lat="51.011477"><ele>32</ele><time>2022-06-26T06:44:42.000Z</time></trkpt><trkpt lon="5.791529" lat="51.011428"><ele>32</ele><time>2022-06-26T06:44:43.000Z</time></trkpt><trkpt lon="5.791525" lat="51.011344"><ele>32</ele><time>2022-06-26T06:44:44.000Z</time></trkpt><trkpt lon="5.791524" lat="51.011304"><ele>32</ele><time>2022-06-26T06:44:45.000Z</time></trkpt><trkpt lon="5.791518" lat="51.011211"><ele>32</ele><time>2022-06-26T06:44:46.000Z</time></trkpt><trkpt lon="5.791515" lat="51.011172"><ele>32</ele><time>2022-06-26T06:44:47.000Z</time></trkpt><trkpt lon="5.791508" lat="51.011077"><ele>32</ele><time>2022-06-26T06:44:48.000Z</time></trkpt><trkpt lon="5.791503" lat="51.011026"><ele>32</ele><time>2022-06-26T06:44:49.000Z</time></trkpt><trkpt lon="5.791497" lat="51.01094"><ele>32</ele><time>2022-06-26T06:44:50.000Z</time></trkpt><trkpt lon="5.791493" lat="51.010896"><ele>32.2</ele><time>2022-06-26T06:44:51.000Z</time></trkpt><trkpt lon="5.791485" lat="51.010802"><ele>32.2</ele><time>2022-06-26T06:44:52.000Z</time></trkpt><trkpt lon="5.791481" lat="51.010756"><ele>32</ele><time>2022-06-26T06:44:53.000Z</time></trkpt><trkpt lon="5.791475" lat="51.010668"><ele>32</ele><time>2022-06-26T06:44:54.000Z</time></trkpt><trkpt lon="5.791469" lat="51.010618"><ele>32</ele><time>2022-06-26T06:44:55.000Z</time></trkpt><trkpt lon="5.791457" lat="51.010531"><ele>32</ele><time>2022-06-26T06:44:56.000Z</time></trkpt><trkpt lon="5.791453" lat="51.010487"><ele>32</ele><time>2022-06-26T06:44:57.000Z</time></trkpt><trkpt lon="5.791445" lat="51.010394"><ele>31.8</ele><time>2022-06-26T06:44:58.000Z</time></trkpt><trkpt lon="5.791441" lat="51.010346"><ele>32</ele><time>2022-06-26T06:44:59.000Z</time></trkpt><trkpt lon="5.791435" lat="51.010261"><ele>32.2</ele><time>2022-06-26T06:45:00.000Z</time></trkpt><trkpt lon="5.791433" lat="51.010218"><ele>32.2</ele><time>2022-06-26T06:45:01.000Z</time></trkpt><trkpt lon="5.791425" lat="51.010123"><ele>32.2</ele><time>2022-06-26T06:45:02.000Z</time></trkpt><trkpt lon="5.791422" lat="51.010077"><ele>32.4</ele><time>2022-06-26T06:45:03.000Z</time></trkpt><trkpt lon="5.791413" lat="51.009986"><ele>32.4</ele><time>2022-06-26T06:45:04.000Z</time></trkpt><trkpt lon="5.79141" lat="51.00994"><ele>32.4</ele><time>2022-06-26T06:45:05.000Z</time></trkpt><trkpt lon="5.791402" lat="51.009848"><ele>32.2</ele><time>2022-06-26T06:45:06.000Z</time></trkpt><trkpt lon="5.791398" lat="51.009796"><ele>32.2</ele><time>2022-06-26T06:45:07.000Z</time></trkpt><trkpt lon="5.79139" lat="51.009715"><ele>32.2</ele><time>2022-06-26T06:45:08.000Z</time></trkpt><trkpt lon="5.791386" lat="51.009675"><ele>32.2</ele><time>2022-06-26T06:45:09.000Z</time></trkpt><trkpt lon="5.791377" lat="51.009582"><ele>32</ele><time>2022-06-26T06:45:10.000Z</time></trkpt><trkpt lon="5.791373" lat="51.009538"><ele>32.2</ele><time>2022-06-26T06:45:11.000Z</time></trkpt><trkpt lon="5.791365" lat="51.009449"><ele>32.2</ele><time>2022-06-26T06:45:12.000Z</time></trkpt><trkpt lon="5.791362" lat="51.009407"><ele>32.2</ele><time>2022-06-26T06:45:13.000Z</time></trkpt><trkpt lon="5.791355" lat="51.009315"><ele>32.4</ele><time>2022-06-26T06:45:14.000Z</time></trkpt><trkpt lon="5.791351" lat="51.009275"><ele>32.2</ele><time>2022-06-26T06:45:15.000Z</time></trkpt><trkpt lon="5.79134" lat="51.009181"><ele>32.2</ele><time>2022-06-26T06:45:16.000Z</time></trkpt><trkpt lon="5.791336" lat="51.009141"><ele>32</ele><time>2022-06-26T06:45:17.000Z</time></trkpt><trkpt lon="5.791326" lat="51.009051"><ele>32</ele><time>2022-06-26T06:45:18.000Z</time></trkpt><trkpt lon="5.791323" lat="51.009008"><ele>32</ele><time>2022-06-26T06:45:19.000Z</time></trkpt><trkpt lon="5.791315" lat="51.008918"><ele>32.2</ele><time>2022-06-26T06:45:20.000Z</time></trkpt><trkpt lon="5.791311" lat="51.008868"><ele>32.2</ele><time>2022-06-26T06:45:21.000Z</time></trkpt><trkpt lon="5.791305" lat="51.008784"><ele>32.2</ele><time>2022-06-26T06:45:22.000Z</time></trkpt><trkpt lon="5.791302" lat="51.008742"><ele>32.2</ele><time>2022-06-26T06:45:23.000Z</time></trkpt><trkpt lon="5.791295" lat="51.00865"><ele>32.4</ele><time>2022-06-26T06:45:24.000Z</time></trkpt><trkpt lon="5.791291" lat="51.008605"><ele>32.4</ele><time>2022-06-26T06:45:25.000Z</time></trkpt><trkpt lon="5.791283" lat="51.008518"><ele>32.6</ele><time>2022-06-26T06:45:26.000Z</time></trkpt><trkpt lon="5.791279" lat="51.008479"><ele>32.6</ele><time>2022-06-26T06:45:27.000Z</time></trkpt><trkpt lon="5.791272" lat="51.008387"><ele>32.6</ele><time>2022-06-26T06:45:28.000Z</time></trkpt><trkpt lon="5.79127" lat="51.008342"><ele>32.8</ele><time>2022-06-26T06:45:29.000Z</time></trkpt><trkpt lon="5.791268" lat="51.008254"><ele>32.8</ele><time>2022-06-26T06:45:30.000Z</time></trkpt><trkpt lon="5.791265" lat="51.008216"><ele>33</ele><time>2022-06-26T06:45:31.000Z</time></trkpt><trkpt lon="5.791258" lat="51.00812"><ele>33.2</ele><time>2022-06-26T06:45:32.000Z</time></trkpt><trkpt lon="5.791255" lat="51.00808"><ele>33.2</ele><time>2022-06-26T06:45:33.000Z</time></trkpt><trkpt lon="5.791248" lat="51.007991"><ele>33.4</ele><time>2022-06-26T06:45:34.000Z</time></trkpt><trkpt lon="5.791245" lat="51.007949"><ele>33.4</ele><time>2022-06-26T06:45:35.000Z</time></trkpt><trkpt lon="5.791238" lat="51.007861"><ele>33.8</ele><time>2022-06-26T06:45:36.000Z</time></trkpt><trkpt lon="5.791234" lat="51.007818"><ele>34</ele><time>2022-06-26T06:45:37.000Z</time></trkpt><trkpt lon="5.791227" lat="51.007735"><ele>34.2</ele><time>2022-06-26T06:45:38.000Z</time></trkpt><trkpt lon="5.791224" lat="51.0077"><ele>34.4</ele><time>2022-06-26T06:45:39.000Z</time></trkpt><trkpt lon="5.791217" lat="51.00761"><ele>34.6</ele><time>2022-06-26T06:45:40.000Z</time></trkpt><trkpt lon="5.791213" lat="51.00757"><ele>35</ele><time>2022-06-26T06:45:41.000Z</time></trkpt><trkpt lon="5.791207" lat="51.007487"><ele>35.2</ele><time>2022-06-26T06:45:42.000Z</time></trkpt><trkpt lon="5.791203" lat="51.007448"><ele>35.6</ele><time>2022-06-26T06:45:43.000Z</time></trkpt><trkpt lon="5.791195" lat="51.007365"><ele>35.8</ele><time>2022-06-26T06:45:44.000Z</time></trkpt><trkpt lon="5.79119" lat="51.007322"><ele>36</ele><time>2022-06-26T06:45:45.000Z</time></trkpt><trkpt lon="5.791181" lat="51.007247"><ele>36.2</ele><time>2022-06-26T06:45:46.000Z</time></trkpt><trkpt lon="5.791178" lat="51.007213"><ele>36.4</ele><time>2022-06-26T06:45:47.000Z</time></trkpt><trkpt lon="5.791171" lat="51.007129"><ele>36.4</ele><time>2022-06-26T06:45:48.000Z</time></trkpt><trkpt lon="5.791169" lat="51.007097"><ele>36.4</ele><time>2022-06-26T06:45:49.000Z</time></trkpt><trkpt lon="5.791165" lat="51.007011"><ele>36.6</ele><time>2022-06-26T06:45:50.000Z</time></trkpt><trkpt lon="5.791162" lat="51.006975"><ele>36.6</ele><time>2022-06-26T06:45:51.000Z</time></trkpt><trkpt lon="5.791157" lat="51.006889"><ele>36.6</ele><time>2022-06-26T06:45:52.000Z</time></trkpt><trkpt lon="5.791154" lat="51.006854"><ele>36.8</ele><time>2022-06-26T06:45:53.000Z</time></trkpt><trkpt lon="5.791148" lat="51.006763"><ele>37</ele><time>2022-06-26T06:45:54.000Z</time></trkpt><trkpt lon="5.791146" lat="51.006727"><ele>37</ele><time>2022-06-26T06:45:55.000Z</time></trkpt><trkpt lon="5.791138" lat="51.006633"><ele>37</ele><time>2022-06-26T06:45:56.000Z</time></trkpt><trkpt lon="5.791134" lat="51.006594"><ele>37</ele><time>2022-06-26T06:45:57.000Z</time></trkpt><trkpt lon="5.791127" lat="51.006496"><ele>37</ele><time>2022-06-26T06:45:58.000Z</time></trkpt><trkpt lon="5.791124" lat="51.006457"><ele>36.8</ele><time>2022-06-26T06:45:59.000Z</time></trkpt><trkpt lon="5.791117" lat="51.006359"><ele>36.8</ele><time>2022-06-26T06:46:00.000Z</time></trkpt><trkpt lon="5.791114" lat="51.006318"><ele>36.6</ele><time>2022-06-26T06:46:01.000Z</time></trkpt><trkpt lon="5.791105" lat="51.006226"><ele>36.6</ele><time>2022-06-26T06:46:02.000Z</time></trkpt><trkpt lon="5.791101" lat="51.006187"><ele>36.4</ele><time>2022-06-26T06:46:03.000Z</time></trkpt><trkpt lon="5.791093" lat="51.006088"><ele>36.4</ele><time>2022-06-26T06:46:04.000Z</time></trkpt><trkpt lon="5.791088" lat="51.006046"><ele>36.2</ele><time>2022-06-26T06:46:05.000Z</time></trkpt><trkpt lon="5.79108" lat="51.005955"><ele>36.2</ele><time>2022-06-26T06:46:06.000Z</time></trkpt><trkpt lon="5.791076" lat="51.005918"><ele>36.2</ele><time>2022-06-26T06:46:07.000Z</time></trkpt><trkpt lon="5.791067" lat="51.005821"><ele>36</ele><time>2022-06-26T06:46:08.000Z</time></trkpt><trkpt lon="5.791064" lat="51.005774"><ele>36</ele><time>2022-06-26T06:46:09.000Z</time></trkpt><trkpt lon="5.791058" lat="51.005709"><ele>36</ele><time>2022-06-26T06:46:10.000Z</time></trkpt><trkpt lon="5.791048" lat="51.005618"><ele>36</ele><time>2022-06-26T06:46:11.000Z</time></trkpt><trkpt lon="5.791042" lat="51.005548"><ele>35.8</ele><time>2022-06-26T06:46:12.000Z</time></trkpt><trkpt lon="5.791037" lat="51.005481"><ele>35.8</ele><time>2022-06-26T06:46:13.000Z</time></trkpt><trkpt lon="5.791032" lat="51.005412"><ele>35.8</ele><time>2022-06-26T06:46:14.000Z</time></trkpt><trkpt lon="5.791025" lat="51.005343"><ele>35.8</ele><time>2022-06-26T06:46:15.000Z</time></trkpt><trkpt lon="5.791018" lat="51.00527"><ele>35.8</ele><time>2022-06-26T06:46:16.000Z</time></trkpt><trkpt lon="5.791012" lat="51.005202"><ele>35.8</ele><time>2022-06-26T06:46:17.000Z</time></trkpt><trkpt lon="5.791006" lat="51.005137"><ele>35.8</ele><time>2022-06-26T06:46:18.000Z</time></trkpt><trkpt lon="5.791" lat="51.005072"><ele>36</ele><time>2022-06-26T06:46:19.000Z</time></trkpt><trkpt lon="5.790995" lat="51.005007"><ele>36</ele><time>2022-06-26T06:46:20.000Z</time></trkpt><trkpt lon="5.79099" lat="51.004947"><ele>36</ele><time>2022-06-26T06:46:21.000Z</time></trkpt><trkpt lon="5.790987" lat="51.00489"><ele>36.2</ele><time>2022-06-26T06:46:22.000Z</time></trkpt><trkpt lon="5.790985" lat="51.004832"><ele>36.2</ele><time>2022-06-26T06:46:23.000Z</time></trkpt><trkpt lon="5.790983" lat="51.004779"><ele>36.4</ele><time>2022-06-26T06:46:24.000Z</time></trkpt><trkpt lon="5.790978" lat="51.004737"><ele>36.6</ele><time>2022-06-26T06:46:25.000Z</time></trkpt><trkpt lon="5.790966" lat="51.004699"><ele>36.6</ele><time>2022-06-26T06:46:26.000Z</time></trkpt><trkpt lon="5.790944" lat="51.004669"><ele>36.8</ele><time>2022-06-26T06:46:27.000Z</time></trkpt><trkpt lon="5.790907" lat="51.00465"><ele>36.8</ele><time>2022-06-26T06:46:28.000Z</time></trkpt><trkpt lon="5.790851" lat="51.004648"><ele>36.8</ele><time>2022-06-26T06:46:29.000Z</time></trkpt><trkpt lon="5.790793" lat="51.004647"><ele>37</ele><time>2022-06-26T06:46:30.000Z</time></trkpt><trkpt lon="5.790716" lat="51.004665"><ele>37.2</ele><time>2022-06-26T06:46:31.000Z</time></trkpt><trkpt lon="5.790621" lat="51.004689"><ele>37.2</ele><time>2022-06-26T06:46:32.000Z</time></trkpt><trkpt lon="5.790517" lat="51.004716"><ele>37.4</ele><time>2022-06-26T06:46:33.000Z</time></trkpt><trkpt lon="5.790409" lat="51.004742"><ele>37.2</ele><time>2022-06-26T06:46:34.000Z</time></trkpt><trkpt lon="5.790298" lat="51.004769"><ele>37.2</ele><time>2022-06-26T06:46:35.000Z</time></trkpt><trkpt lon="5.790187" lat="51.004795"><ele>37.4</ele><time>2022-06-26T06:46:36.000Z</time></trkpt><trkpt lon="5.790079" lat="51.004818"><ele>37.4</ele><time>2022-06-26T06:46:37.000Z</time></trkpt><trkpt lon="5.789973" lat="51.004841"><ele>37.4</ele><time>2022-06-26T06:46:38.000Z</time></trkpt><trkpt lon="5.789867" lat="51.004865"><ele>37.4</ele><time>2022-06-26T06:46:39.000Z</time></trkpt><trkpt lon="5.789764" lat="51.004891"><ele>37.4</ele><time>2022-06-26T06:46:40.000Z</time></trkpt><trkpt lon="5.789661" lat="51.004914"><ele>37.6</ele><time>2022-06-26T06:46:41.000Z</time></trkpt><trkpt lon="5.789561" lat="51.00494"><ele>37.6</ele><time>2022-06-26T06:46:42.000Z</time></trkpt><trkpt lon="5.789462" lat="51.004963"><ele>37.6</ele><time>2022-06-26T06:46:43.000Z</time></trkpt><trkpt lon="5.789365" lat="51.004982"><ele>37.6</ele><time>2022-06-26T06:46:44.000Z</time></trkpt><trkpt lon="5.789264" lat="51.005005"><ele>37.6</ele><time>2022-06-26T06:46:45.000Z</time></trkpt><trkpt lon="5.789161" lat="51.005028"><ele>37.6</ele><time>2022-06-26T06:46:46.000Z</time></trkpt><trkpt lon="5.78906" lat="51.005051"><ele>37.6</ele><time>2022-06-26T06:46:47.000Z</time></trkpt><trkpt lon="5.788956" lat="51.005074"><ele>37.6</ele><time>2022-06-26T06:46:48.000Z</time></trkpt><trkpt lon="5.788851" lat="51.005093"><ele>37.6</ele><time>2022-06-26T06:46:49.000Z</time></trkpt><trkpt lon="5.788752" lat="51.005111"><ele>37.6</ele><time>2022-06-26T06:46:50.000Z</time></trkpt><trkpt lon="5.788642" lat="51.005131"><ele>37.6</ele><time>2022-06-26T06:46:51.000Z</time></trkpt><trkpt lon="5.788539" lat="51.005153"><ele>37.6</ele><time>2022-06-26T06:46:52.000Z</time></trkpt><trkpt lon="5.788436" lat="51.005176"><ele>37.8</ele><time>2022-06-26T06:46:53.000Z</time></trkpt><trkpt lon="5.788328" lat="51.005196"><ele>37.8</ele><time>2022-06-26T06:46:54.000Z</time></trkpt><trkpt lon="5.788225" lat="51.005218"><ele>37.8</ele><time>2022-06-26T06:46:55.000Z</time></trkpt><trkpt lon="5.788119" lat="51.005237"><ele>37.8</ele><time>2022-06-26T06:46:56.000Z</time></trkpt><trkpt lon="5.788015" lat="51.00526"><ele>37.8</ele><time>2022-06-26T06:46:57.000Z</time></trkpt><trkpt lon="5.787909" lat="51.005283"><ele>37.8</ele><time>2022-06-26T06:46:58.000Z</time></trkpt><trkpt lon="5.787802" lat="51.005306"><ele>37.8</ele><time>2022-06-26T06:46:59.000Z</time></trkpt><trkpt lon="5.787696" lat="51.005329"><ele>37.8</ele><time>2022-06-26T06:47:00.000Z</time></trkpt><trkpt lon="5.787589" lat="51.005352"><ele>37.6</ele><time>2022-06-26T06:47:01.000Z</time></trkpt><trkpt lon="5.787482" lat="51.005375"><ele>37.6</ele><time>2022-06-26T06:47:02.000Z</time></trkpt><trkpt lon="5.787375" lat="51.005398"><ele>37.6</ele><time>2022-06-26T06:47:03.000Z</time></trkpt><trkpt lon="5.787273" lat="51.00542"><ele>37.6</ele><time>2022-06-26T06:47:04.000Z</time></trkpt><trkpt lon="5.787168" lat="51.005443"><ele>37.4</ele><time>2022-06-26T06:47:05.000Z</time></trkpt><trkpt lon="5.787066" lat="51.005462"><ele>37.4</ele><time>2022-06-26T06:47:06.000Z</time></trkpt><trkpt lon="5.786962" lat="51.005485"><ele>37.4</ele><time>2022-06-26T06:47:07.000Z</time></trkpt><trkpt lon="5.786861" lat="51.005508"><ele>37.4</ele><time>2022-06-26T06:47:08.000Z</time></trkpt><trkpt lon="5.786757" lat="51.005535"><ele>37.4</ele><time>2022-06-26T06:47:09.000Z</time></trkpt><trkpt lon="5.786656" lat="51.005554"><ele>37.4</ele><time>2022-06-26T06:47:10.000Z</time></trkpt><trkpt lon="5.786554" lat="51.005577"><ele>37.4</ele><time>2022-06-26T06:47:11.000Z</time></trkpt><trkpt lon="5.786454" lat="51.0056"><ele>37.4</ele><time>2022-06-26T06:47:12.000Z</time></trkpt><trkpt lon="5.786353" lat="51.005623"><ele>37.6</ele><time>2022-06-26T06:47:13.000Z</time></trkpt><trkpt lon="5.78625" lat="51.005642"><ele>37.6</ele><time>2022-06-26T06:47:14.000Z</time></trkpt><trkpt lon="5.786147" lat="51.005665"><ele>37.6</ele><time>2022-06-26T06:47:15.000Z</time></trkpt><trkpt lon="5.786042" lat="51.005684"><ele>37.6</ele><time>2022-06-26T06:47:16.000Z</time></trkpt><trkpt lon="5.785938" lat="51.005707"><ele>37.6</ele><time>2022-06-26T06:47:17.000Z</time></trkpt><trkpt lon="5.785828" lat="51.005722"><ele>37.6</ele><time>2022-06-26T06:47:18.000Z</time></trkpt><trkpt lon="5.78572" lat="51.005737"><ele>37.6</ele><time>2022-06-26T06:47:19.000Z</time></trkpt><trkpt lon="5.785612" lat="51.005749"><ele>37.6</ele><time>2022-06-26T06:47:20.000Z</time></trkpt><trkpt lon="5.785511" lat="51.00576"><ele>37.8</ele><time>2022-06-26T06:47:21.000Z</time></trkpt><trkpt lon="5.785403" lat="51.005772"><ele>37.8</ele><time>2022-06-26T06:47:22.000Z</time></trkpt><trkpt lon="5.785301" lat="51.005783"><ele>37.8</ele><time>2022-06-26T06:47:23.000Z</time></trkpt><trkpt lon="5.785202" lat="51.005794"><ele>37.8</ele><time>2022-06-26T06:47:24.000Z</time></trkpt><trkpt lon="5.785089" lat="51.005802"><ele>37.8</ele><time>2022-06-26T06:47:25.000Z</time></trkpt><trkpt lon="5.784984" lat="51.005814"><ele>37.8</ele><time>2022-06-26T06:47:26.000Z</time></trkpt><trkpt lon="5.784877" lat="51.005825"><ele>37.8</ele><time>2022-06-26T06:47:27.000Z</time></trkpt><trkpt lon="5.784768" lat="51.005837"><ele>37.8</ele><time>2022-06-26T06:47:28.000Z</time></trkpt><trkpt lon="5.784661" lat="51.005848"><ele>38</ele><time>2022-06-26T06:47:29.000Z</time></trkpt><trkpt lon="5.784551" lat="51.005863"><ele>38</ele><time>2022-06-26T06:47:30.000Z</time></trkpt><trkpt lon="5.784439" lat="51.005871"><ele>38</ele><time>2022-06-26T06:47:31.000Z</time></trkpt><trkpt lon="5.784331" lat="51.005882"><ele>38</ele><time>2022-06-26T06:47:32.000Z</time></trkpt><trkpt lon="5.784228" lat="51.005894"><ele>38</ele><time>2022-06-26T06:47:33.000Z</time></trkpt><trkpt lon="5.784123" lat="51.005905"><ele>38</ele><time>2022-06-26T06:47:34.000Z</time></trkpt><trkpt lon="5.784021" lat="51.005917"><ele>38</ele><time>2022-06-26T06:47:35.000Z</time></trkpt><trkpt lon="5.783925" lat="51.005928"><ele>38</ele><time>2022-06-26T06:47:36.000Z</time></trkpt><trkpt lon="5.783818" lat="51.005936"><ele>38</ele><time>2022-06-26T06:47:37.000Z</time></trkpt><trkpt lon="5.783714" lat="51.005947"><ele>38</ele><time>2022-06-26T06:47:38.000Z</time></trkpt><trkpt lon="5.78361" lat="51.005959"><ele>38</ele><time>2022-06-26T06:47:39.000Z</time></trkpt><trkpt lon="5.783515" lat="51.005969"><ele>37.8</ele><time>2022-06-26T06:47:40.000Z</time></trkpt><trkpt lon="5.783391" lat="51.005982"><ele>37.8</ele><time>2022-06-26T06:47:41.000Z</time></trkpt><trkpt lon="5.783277" lat="51.005993"><ele>37.6</ele><time>2022-06-26T06:47:42.000Z</time></trkpt><trkpt lon="5.783161" lat="51.006005"><ele>37.2</ele><time>2022-06-26T06:47:43.000Z</time></trkpt><trkpt lon="5.783044" lat="51.006016"><ele>36.8</ele><time>2022-06-26T06:47:44.000Z</time></trkpt><trkpt lon="5.782927" lat="51.006028"><ele>36.8</ele><time>2022-06-26T06:47:45.000Z</time></trkpt><trkpt lon="5.782827" lat="51.006041"><ele>36.6</ele><time>2022-06-26T06:47:46.000Z</time></trkpt><trkpt lon="5.782694" lat="51.006054"><ele>36.6</ele><time>2022-06-26T06:47:47.000Z</time></trkpt><trkpt lon="5.782576" lat="51.006066"><ele>36.6</ele><time>2022-06-26T06:47:48.000Z</time></trkpt><trkpt lon="5.782455" lat="51.006077"><ele>36.4</ele><time>2022-06-26T06:47:49.000Z</time></trkpt><trkpt lon="5.782337" lat="51.006092"><ele>36.2</ele><time>2022-06-26T06:47:50.000Z</time></trkpt><trkpt lon="5.782219" lat="51.006104"><ele>36</ele><time>2022-06-26T06:47:51.000Z</time></trkpt><trkpt lon="5.782104" lat="51.006115"><ele>35.8</ele><time>2022-06-26T06:47:52.000Z</time></trkpt><trkpt lon="5.781988" lat="51.00613"><ele>35.6</ele><time>2022-06-26T06:47:53.000Z</time></trkpt><trkpt lon="5.781874" lat="51.006142"><ele>35.4</ele><time>2022-06-26T06:47:54.000Z</time></trkpt><trkpt lon="5.781763" lat="51.006153"><ele>35.4</ele><time>2022-06-26T06:47:55.000Z</time></trkpt><trkpt lon="5.781655" lat="51.006169"><ele>35.2</ele><time>2022-06-26T06:47:56.000Z</time></trkpt><trkpt lon="5.781545" lat="51.00618"><ele>35.2</ele><time>2022-06-26T06:47:57.000Z</time></trkpt><trkpt lon="5.781436" lat="51.006191"><ele>35</ele><time>2022-06-26T06:47:58.000Z</time></trkpt><trkpt lon="5.781317" lat="51.006199"><ele>35</ele><time>2022-06-26T06:47:59.000Z</time></trkpt><trkpt lon="5.781204" lat="51.006207"><ele>35</ele><time>2022-06-26T06:48:00.000Z</time></trkpt><trkpt lon="5.781094" lat="51.006222"><ele>34.8</ele><time>2022-06-26T06:48:01.000Z</time></trkpt><trkpt lon="5.780991" lat="51.006234"><ele>34.8</ele><time>2022-06-26T06:48:02.000Z</time></trkpt><trkpt lon="5.780893" lat="51.006249"><ele>34.8</ele><time>2022-06-26T06:48:03.000Z</time></trkpt><trkpt lon="5.780801" lat="51.006272"><ele>34.8</ele><time>2022-06-26T06:48:04.000Z</time></trkpt><trkpt lon="5.780712" lat="51.006311"><ele>34.8</ele><time>2022-06-26T06:48:05.000Z</time></trkpt><trkpt lon="5.780628" lat="51.006361"><ele>34.8</ele><time>2022-06-26T06:48:06.000Z</time></trkpt><trkpt lon="5.780559" lat="51.006422"><ele>34.6</ele><time>2022-06-26T06:48:07.000Z</time></trkpt><trkpt lon="5.780498" lat="51.006483"><ele>34.8</ele><time>2022-06-26T06:48:08.000Z</time></trkpt><trkpt lon="5.780442" lat="51.006548"><ele>34.8</ele><time>2022-06-26T06:48:09.000Z</time></trkpt><trkpt lon="5.780388" lat="51.006607"><ele>34.8</ele><time>2022-06-26T06:48:10.000Z</time></trkpt><trkpt lon="5.780327" lat="51.006673"><ele>34.8</ele><time>2022-06-26T06:48:11.000Z</time></trkpt><trkpt lon="5.780273" lat="51.00673"><ele>34.8</ele><time>2022-06-26T06:48:12.000Z</time></trkpt><trkpt lon="5.780224" lat="51.00678"><ele>34.8</ele><time>2022-06-26T06:48:13.000Z</time></trkpt><trkpt lon="5.780172" lat="51.006825"><ele>34.8</ele><time>2022-06-26T06:48:14.000Z</time></trkpt><trkpt lon="5.78011" lat="51.006855"><ele>35</ele><time>2022-06-26T06:48:15.000Z</time></trkpt><trkpt lon="5.780037" lat="51.006866"><ele>35</ele><time>2022-06-26T06:48:16.000Z</time></trkpt><trkpt lon="5.779953" lat="51.006862"><ele>34.8</ele><time>2022-06-26T06:48:17.000Z</time></trkpt><trkpt lon="5.779874" lat="51.006849"><ele>35</ele><time>2022-06-26T06:48:18.000Z</time></trkpt><trkpt lon="5.77977" lat="51.00682"><ele>34.8</ele><time>2022-06-26T06:48:19.000Z</time></trkpt><trkpt lon="5.779682" lat="51.006786"><ele>34.8</ele><time>2022-06-26T06:48:20.000Z</time></trkpt><trkpt lon="5.77959" lat="51.006739"><ele>34.8</ele><time>2022-06-26T06:48:21.000Z</time></trkpt><trkpt lon="5.779508" lat="51.006686"><ele>34.8</ele><time>2022-06-26T06:48:22.000Z</time></trkpt><trkpt lon="5.779434" lat="51.006629"><ele>34.6</ele><time>2022-06-26T06:48:23.000Z</time></trkpt><trkpt lon="5.779362" lat="51.006573"><ele>34.6</ele><time>2022-06-26T06:48:24.000Z</time></trkpt><trkpt lon="5.77929" lat="51.006512"><ele>34.6</ele><time>2022-06-26T06:48:25.000Z</time></trkpt><trkpt lon="5.779222" lat="51.006454"><ele>34.4</ele><time>2022-06-26T06:48:26.000Z</time></trkpt><trkpt lon="5.779159" lat="51.006392"><ele>34.4</ele><time>2022-06-26T06:48:27.000Z</time></trkpt><trkpt lon="5.779098" lat="51.006336"><ele>34.4</ele><time>2022-06-26T06:48:28.000Z</time></trkpt><trkpt lon="5.779039" lat="51.006278"><ele>34.4</ele><time>2022-06-26T06:48:29.000Z</time></trkpt><trkpt lon="5.778982" lat="51.00622"><ele>34.4</ele><time>2022-06-26T06:48:30.000Z</time></trkpt><trkpt lon="5.778926" lat="51.00616"><ele>34.4</ele><time>2022-06-26T06:48:31.000Z</time></trkpt><trkpt lon="5.778869" lat="51.006106"><ele>34.6</ele><time>2022-06-26T06:48:32.000Z</time></trkpt><trkpt lon="5.778812" lat="51.006049"><ele>34.8</ele><time>2022-06-26T06:48:33.000Z</time></trkpt><trkpt lon="5.778755" lat="51.005992"><ele>34.8</ele><time>2022-06-26T06:48:34.000Z</time></trkpt><trkpt lon="5.778697" lat="51.005935"><ele>35</ele><time>2022-06-26T06:48:35.000Z</time></trkpt><trkpt lon="5.778648" lat="51.005887"><ele>35</ele><time>2022-06-26T06:48:36.000Z</time></trkpt><trkpt lon="5.77858" lat="51.00582"><ele>35.2</ele><time>2022-06-26T06:48:37.000Z</time></trkpt><trkpt lon="5.778525" lat="51.005768"><ele>35.2</ele><time>2022-06-26T06:48:38.000Z</time></trkpt><trkpt lon="5.778467" lat="51.00571"><ele>35.4</ele><time>2022-06-26T06:48:39.000Z</time></trkpt><trkpt lon="5.778414" lat="51.005658"><ele>35.6</ele><time>2022-06-26T06:48:40.000Z</time></trkpt><trkpt lon="5.778357" lat="51.005599"><ele>35.8</ele><time>2022-06-26T06:48:41.000Z</time></trkpt><trkpt lon="5.778307" lat="51.005552"><ele>35.8</ele><time>2022-06-26T06:48:42.000Z</time></trkpt><trkpt lon="5.77825" lat="51.005492"><ele>36</ele><time>2022-06-26T06:48:43.000Z</time></trkpt><trkpt lon="5.778202" lat="51.005444"><ele>36.2</ele><time>2022-06-26T06:48:44.000Z</time></trkpt><trkpt lon="5.778146" lat="51.005377"><ele>36.2</ele><time>2022-06-26T06:48:45.000Z</time></trkpt><trkpt lon="5.778101" lat="51.005327"><ele>36.4</ele><time>2022-06-26T06:48:46.000Z</time></trkpt><trkpt lon="5.778045" lat="51.005263"><ele>36.4</ele><time>2022-06-26T06:48:47.000Z</time></trkpt><trkpt lon="5.777999" lat="51.005202"><ele>36.6</ele><time>2022-06-26T06:48:48.000Z</time></trkpt><trkpt lon="5.777954" lat="51.005145"><ele>36.6</ele><time>2022-06-26T06:48:49.000Z</time></trkpt><trkpt lon="5.777909" lat="51.005084"><ele>36.8</ele><time>2022-06-26T06:48:50.000Z</time></trkpt><trkpt lon="5.777866" lat="51.005027"><ele>37</ele><time>2022-06-26T06:48:51.000Z</time></trkpt><trkpt lon="5.777832" lat="51.004981"><ele>37</ele><time>2022-06-26T06:48:52.000Z</time></trkpt><trkpt lon="5.777778" lat="51.004909"><ele>37.4</ele><time>2022-06-26T06:48:53.000Z</time></trkpt><trkpt lon="5.777736" lat="51.004848"><ele>37.4</ele><time>2022-06-26T06:48:54.000Z</time></trkpt><trkpt lon="5.777698" lat="51.00479"><ele>37.6</ele><time>2022-06-26T06:48:55.000Z</time></trkpt><trkpt lon="5.777669" lat="51.004738"><ele>37.6</ele><time>2022-06-26T06:48:56.000Z</time></trkpt><trkpt lon="5.777634" lat="51.004664"><ele>37.8</ele><time>2022-06-26T06:48:57.000Z</time></trkpt><trkpt lon="5.777609" lat="51.004599"><ele>38</ele><time>2022-06-26T06:48:58.000Z</time></trkpt><trkpt lon="5.777588" lat="51.004535"><ele>38</ele><time>2022-06-26T06:48:59.000Z</time></trkpt><trkpt lon="5.777566" lat="51.004469"><ele>38.2</ele><time>2022-06-26T06:49:00.000Z</time></trkpt><trkpt lon="5.777541" lat="51.004405"><ele>38.2</ele><time>2022-06-26T06:49:01.000Z</time></trkpt><trkpt lon="5.777516" lat="51.004351"><ele>38.2</ele><time>2022-06-26T06:49:02.000Z</time></trkpt><trkpt lon="5.777476" lat="51.004278"><ele>38.2</ele><time>2022-06-26T06:49:03.000Z</time></trkpt><trkpt lon="5.777432" lat="51.004214"><ele>38.2</ele><time>2022-06-26T06:49:04.000Z</time></trkpt><trkpt lon="5.777383" lat="51.004153"><ele>38.2</ele><time>2022-06-26T06:49:05.000Z</time></trkpt><trkpt lon="5.777328" lat="51.004092"><ele>38.2</ele><time>2022-06-26T06:49:06.000Z</time></trkpt><trkpt lon="5.777272" lat="51.004035"><ele>38.2</ele><time>2022-06-26T06:49:07.000Z</time></trkpt><trkpt lon="5.777221" lat="51.003986"><ele>38</ele><time>2022-06-26T06:49:08.000Z</time></trkpt><trkpt lon="5.777153" lat="51.003925"><ele>38</ele><time>2022-06-26T06:49:09.000Z</time></trkpt><trkpt lon="5.777105" lat="51.003888"><ele>37.8</ele><time>2022-06-26T06:49:10.000Z</time></trkpt><trkpt lon="5.777022" lat="51.003829"><ele>37.8</ele><time>2022-06-26T06:49:11.000Z</time></trkpt><trkpt lon="5.776975" lat="51.003802"><ele>37.6</ele><time>2022-06-26T06:49:12.000Z</time></trkpt><trkpt lon="5.776893" lat="51.00375"><ele>37.6</ele><time>2022-06-26T06:49:13.000Z</time></trkpt><trkpt lon="5.776847" lat="51.003717"><ele>37.6</ele><time>2022-06-26T06:49:14.000Z</time></trkpt><trkpt lon="5.776779" lat="51.003673"><ele>37.6</ele><time>2022-06-26T06:49:15.000Z</time></trkpt><trkpt lon="5.776737" lat="51.003645"><ele>37.6</ele><time>2022-06-26T06:49:16.000Z</time></trkpt><trkpt lon="5.776672" lat="51.003604"><ele>37.4</ele><time>2022-06-26T06:49:17.000Z</time></trkpt><trkpt lon="5.776622" lat="51.00358"><ele>37.2</ele><time>2022-06-26T06:49:18.000Z</time></trkpt><trkpt lon="5.77652" lat="51.003536"><ele>36.8</ele><time>2022-06-26T06:49:19.000Z</time></trkpt><trkpt lon="5.77646" lat="51.003505"><ele>36.8</ele><time>2022-06-26T06:49:20.000Z</time></trkpt><trkpt lon="5.776354" lat="51.003444"><ele>36.8</ele><time>2022-06-26T06:49:21.000Z</time></trkpt><trkpt lon="5.776294" lat="51.003403"><ele>36.6</ele><time>2022-06-26T06:49:22.000Z</time></trkpt><trkpt lon="5.776187" lat="51.003329"><ele>36.6</ele><time>2022-06-26T06:49:23.000Z</time></trkpt><trkpt lon="5.776117" lat="51.003281"><ele>36.4</ele><time>2022-06-26T06:49:24.000Z</time></trkpt><trkpt lon="5.77602" lat="51.003211"><ele>36.4</ele><time>2022-06-26T06:49:25.000Z</time></trkpt><trkpt lon="5.775941" lat="51.003153"><ele>36.2</ele><time>2022-06-26T06:49:26.000Z</time></trkpt><trkpt lon="5.775858" lat="51.003089"><ele>36.2</ele><time>2022-06-26T06:49:27.000Z</time></trkpt><trkpt lon="5.7758" lat="51.003046"><ele>36</ele><time>2022-06-26T06:49:28.000Z</time></trkpt><trkpt lon="5.775699" lat="51.002967"><ele>36</ele><time>2022-06-26T06:49:29.000Z</time></trkpt><trkpt lon="5.775639" lat="51.002914"><ele>35.8</ele><time>2022-06-26T06:49:30.000Z</time></trkpt><trkpt lon="5.775555" lat="51.002837"><ele>35.6</ele><time>2022-06-26T06:49:31.000Z</time></trkpt><trkpt lon="5.775501" lat="51.002784"><ele>35.4</ele><time>2022-06-26T06:49:32.000Z</time></trkpt><trkpt lon="5.775426" lat="51.002703"><ele>35.2</ele><time>2022-06-26T06:49:33.000Z</time></trkpt><trkpt lon="5.775378" lat="51.002647"><ele>35</ele><time>2022-06-26T06:49:34.000Z</time></trkpt><trkpt lon="5.775312" lat="51.00257"><ele>34.8</ele><time>2022-06-26T06:49:35.000Z</time></trkpt><trkpt lon="5.775276" lat="51.002521"><ele>34.6</ele><time>2022-06-26T06:49:36.000Z</time></trkpt><trkpt lon="5.775211" lat="51.002432"><ele>34.2</ele><time>2022-06-26T06:49:37.000Z</time></trkpt><trkpt lon="5.775168" lat="51.00237"><ele>34</ele><time>2022-06-26T06:49:38.000Z</time></trkpt><trkpt lon="5.775121" lat="51.002296"><ele>33.6</ele><time>2022-06-26T06:49:39.000Z</time></trkpt><trkpt lon="5.775095" lat="51.002248"><ele>33.6</ele><time>2022-06-26T06:49:40.000Z</time></trkpt><trkpt lon="5.775044" lat="51.002158"><ele>33</ele><time>2022-06-26T06:49:41.000Z</time></trkpt><trkpt lon="5.77501" lat="51.002093"><ele>32.8</ele><time>2022-06-26T06:49:42.000Z</time></trkpt><trkpt lon="5.774964" lat="51.002017"><ele>32.8</ele><time>2022-06-26T06:49:43.000Z</time></trkpt><trkpt lon="5.774934" lat="51.001962"><ele>32.8</ele><time>2022-06-26T06:49:44.000Z</time></trkpt><trkpt lon="5.774884" lat="51.001872"><ele>33</ele><time>2022-06-26T06:49:45.000Z</time></trkpt><trkpt lon="5.774849" lat="51.00181"><ele>33.2</ele><time>2022-06-26T06:49:46.000Z</time></trkpt><trkpt lon="5.774801" lat="51.001731"><ele>33.2</ele><time>2022-06-26T06:49:47.000Z</time></trkpt><trkpt lon="5.774771" lat="51.00168"><ele>33</ele><time>2022-06-26T06:49:48.000Z</time></trkpt><trkpt lon="5.774723" lat="51.00159"><ele>32.6</ele><time>2022-06-26T06:49:49.000Z</time></trkpt><trkpt lon="5.774695" lat="51.001541"><ele>32.4</ele><time>2022-06-26T06:49:50.000Z</time></trkpt><trkpt lon="5.774648" lat="51.001452"><ele>32.4</ele><time>2022-06-26T06:49:51.000Z</time></trkpt><trkpt lon="5.774623" lat="51.001407"><ele>32.4</ele><time>2022-06-26T06:49:52.000Z</time></trkpt><trkpt lon="5.77458" lat="51.001321"><ele>32.4</ele><time>2022-06-26T06:49:53.000Z</time></trkpt><trkpt lon="5.774554" lat="51.001268"><ele>32.6</ele><time>2022-06-26T06:49:54.000Z</time></trkpt><trkpt lon="5.774515" lat="51.00119"><ele>32.6</ele><time>2022-06-26T06:49:55.000Z</time></trkpt><trkpt lon="5.774488" lat="51.001137"><ele>32.6</ele><time>2022-06-26T06:49:56.000Z</time></trkpt><trkpt lon="5.774441" lat="51.001048"><ele>32.6</ele><time>2022-06-26T06:49:57.000Z</time></trkpt><trkpt lon="5.774409" lat="51.000995"><ele>32.6</ele><time>2022-06-26T06:49:58.000Z</time></trkpt><trkpt lon="5.774349" lat="51.000899"><ele>32.4</ele><time>2022-06-26T06:49:59.000Z</time></trkpt><trkpt lon="5.774315" lat="51.000847"><ele>32.4</ele><time>2022-06-26T06:50:00.000Z</time></trkpt><trkpt lon="5.774251" lat="51.00075"><ele>32.2</ele><time>2022-06-26T06:50:01.000Z</time></trkpt><trkpt lon="5.774211" lat="51.000691"><ele>32.2</ele><time>2022-06-26T06:50:02.000Z</time></trkpt><trkpt lon="5.774149" lat="51.000598"><ele>32.2</ele><time>2022-06-26T06:50:03.000Z</time></trkpt><trkpt lon="5.774112" lat="51.000539"><ele>32.2</ele><time>2022-06-26T06:50:04.000Z</time></trkpt><trkpt lon="5.774058" lat="51.000449"><ele>32</ele><time>2022-06-26T06:50:05.000Z</time></trkpt><trkpt lon="5.774029" lat="51.000401"><ele>32</ele><time>2022-06-26T06:50:06.000Z</time></trkpt><trkpt lon="5.773973" lat="51.000305"><ele>31.8</ele><time>2022-06-26T06:50:07.000Z</time></trkpt><trkpt lon="5.773945" lat="51.000257"><ele>32</ele><time>2022-06-26T06:50:08.000Z</time></trkpt><trkpt lon="5.773893" lat="51.000163"><ele>31.8</ele><time>2022-06-26T06:50:09.000Z</time></trkpt><trkpt lon="5.773867" lat="51.000115"><ele>32</ele><time>2022-06-26T06:50:10.000Z</time></trkpt><trkpt lon="5.773821" lat="51.000022"><ele>32</ele><time>2022-06-26T06:50:11.000Z</time></trkpt><trkpt lon="5.773794" lat="50.999968"><ele>32</ele><time>2022-06-26T06:50:12.000Z</time></trkpt><trkpt lon="5.773753" lat="50.999881"><ele>32</ele><time>2022-06-26T06:50:13.000Z</time></trkpt><trkpt lon="5.773728" lat="50.99983"><ele>32</ele><time>2022-06-26T06:50:14.000Z</time></trkpt><trkpt lon="5.773684" lat="50.999739"><ele>32</ele><time>2022-06-26T06:50:15.000Z</time></trkpt><trkpt lon="5.773659" lat="50.999685"><ele>32</ele><time>2022-06-26T06:50:16.000Z</time></trkpt><trkpt lon="5.77362" lat="50.999595"><ele>31.8</ele><time>2022-06-26T06:50:17.000Z</time></trkpt><trkpt lon="5.773602" lat="50.999543"><ele>31.6</ele><time>2022-06-26T06:50:18.000Z</time></trkpt><trkpt lon="5.773571" lat="50.999453"><ele>31.4</ele><time>2022-06-26T06:50:19.000Z</time></trkpt><trkpt lon="5.773553" lat="50.999401"><ele>31.4</ele><time>2022-06-26T06:50:20.000Z</time></trkpt><trkpt lon="5.773516" lat="50.999308"><ele>31.4</ele><time>2022-06-26T06:50:21.000Z</time></trkpt><trkpt lon="5.773497" lat="50.999254"><ele>31.4</ele><time>2022-06-26T06:50:22.000Z</time></trkpt><trkpt lon="5.773461" lat="50.999164"><ele>31.4</ele><time>2022-06-26T06:50:23.000Z</time></trkpt><trkpt lon="5.773439" lat="50.99911"><ele>31.2</ele><time>2022-06-26T06:50:24.000Z</time></trkpt><trkpt lon="5.773403" lat="50.999022"><ele>31.2</ele><time>2022-06-26T06:50:25.000Z</time></trkpt><trkpt lon="5.773379" lat="50.998961"><ele>31</ele><time>2022-06-26T06:50:26.000Z</time></trkpt><trkpt lon="5.773351" lat="50.998881"><ele>31</ele><time>2022-06-26T06:50:27.000Z</time></trkpt><trkpt lon="5.773335" lat="50.998835"><ele>31.2</ele><time>2022-06-26T06:50:28.000Z</time></trkpt><trkpt lon="5.773303" lat="50.99874"><ele>31.2</ele><time>2022-06-26T06:50:29.000Z</time></trkpt><trkpt lon="5.773285" lat="50.998681"><ele>31.2</ele><time>2022-06-26T06:50:30.000Z</time></trkpt><trkpt lon="5.773258" lat="50.998595"><ele>31</ele><time>2022-06-26T06:50:31.000Z</time></trkpt><trkpt lon="5.773238" lat="50.998535"><ele>30.8</ele><time>2022-06-26T06:50:32.000Z</time></trkpt><trkpt lon="5.773211" lat="50.99845"><ele>31</ele><time>2022-06-26T06:50:33.000Z</time></trkpt><trkpt lon="5.77319" lat="50.998389"><ele>31</ele><time>2022-06-26T06:50:34.000Z</time></trkpt><trkpt lon="5.773162" lat="50.998305"><ele>30.8</ele><time>2022-06-26T06:50:35.000Z</time></trkpt><trkpt lon="5.773144" lat="50.998258"><ele>31</ele><time>2022-06-26T06:50:36.000Z</time></trkpt><trkpt lon="5.773108" lat="50.99816"><ele>31.2</ele><time>2022-06-26T06:50:37.000Z</time></trkpt><trkpt lon="5.773088" lat="50.998098"><ele>31.2</ele><time>2022-06-26T06:50:38.000Z</time></trkpt><trkpt lon="5.773058" lat="50.998011"><ele>31.4</ele><time>2022-06-26T06:50:39.000Z</time></trkpt><trkpt lon="5.77304" lat="50.997961"><ele>31.4</ele><time>2022-06-26T06:50:40.000Z</time></trkpt><trkpt lon="5.773006" lat="50.997863"><ele>31.4</ele><time>2022-06-26T06:50:41.000Z</time></trkpt><trkpt lon="5.772983" lat="50.997806"><ele>31.6</ele><time>2022-06-26T06:50:42.000Z</time></trkpt><trkpt lon="5.772948" lat="50.997722"><ele>31.6</ele><time>2022-06-26T06:50:43.000Z</time></trkpt><trkpt lon="5.772925" lat="50.997667"><ele>31.6</ele><time>2022-06-26T06:50:44.000Z</time></trkpt><trkpt lon="5.772886" lat="50.997577"><ele>31.6</ele><time>2022-06-26T06:50:45.000Z</time></trkpt><trkpt lon="5.772867" lat="50.997528"><ele>31.6</ele><time>2022-06-26T06:50:46.000Z</time></trkpt><trkpt lon="5.772831" lat="50.997432"><ele>31.6</ele><time>2022-06-26T06:50:47.000Z</time></trkpt><trkpt lon="5.772813" lat="50.997378"><ele>31.4</ele><time>2022-06-26T06:50:48.000Z</time></trkpt><trkpt lon="5.772782" lat="50.997287"><ele>31.4</ele><time>2022-06-26T06:50:49.000Z</time></trkpt><trkpt lon="5.772764" lat="50.997233"><ele>31.2</ele><time>2022-06-26T06:50:50.000Z</time></trkpt><trkpt lon="5.772735" lat="50.997142"><ele>31.2</ele><time>2022-06-26T06:50:51.000Z</time></trkpt><trkpt lon="5.772718" lat="50.997089"><ele>31.2</ele><time>2022-06-26T06:50:52.000Z</time></trkpt><trkpt lon="5.772689" lat="50.996997"><ele>31.2</ele><time>2022-06-26T06:50:53.000Z</time></trkpt><trkpt lon="5.772672" lat="50.996934"><ele>31.4</ele><time>2022-06-26T06:50:54.000Z</time></trkpt><trkpt lon="5.772648" lat="50.996848"><ele>31.4</ele><time>2022-06-26T06:50:55.000Z</time></trkpt><trkpt lon="5.772635" lat="50.996794"><ele>31.2</ele><time>2022-06-26T06:50:56.000Z</time></trkpt><trkpt lon="5.772611" lat="50.996699"><ele>31.2</ele><time>2022-06-26T06:50:57.000Z</time></trkpt><trkpt lon="5.772598" lat="50.996642"><ele>31.2</ele><time>2022-06-26T06:50:58.000Z</time></trkpt><trkpt lon="5.772575" lat="50.996551"><ele>31</ele><time>2022-06-26T06:50:59.000Z</time></trkpt><trkpt lon="5.772562" lat="50.9965"><ele>31</ele><time>2022-06-26T06:51:00.000Z</time></trkpt><trkpt lon="5.77254" lat="50.996405"><ele>31</ele><time>2022-06-26T06:51:01.000Z</time></trkpt><trkpt lon="5.772527" lat="50.996351"><ele>31</ele><time>2022-06-26T06:51:02.000Z</time></trkpt><trkpt lon="5.772503" lat="50.99626"><ele>31</ele><time>2022-06-26T06:51:03.000Z</time></trkpt><trkpt lon="5.772489" lat="50.996208"><ele>31</ele><time>2022-06-26T06:51:04.000Z</time></trkpt><trkpt lon="5.772468" lat="50.996115"><ele>30.8</ele><time>2022-06-26T06:51:05.000Z</time></trkpt><trkpt lon="5.772455" lat="50.996062"><ele>30.8</ele><time>2022-06-26T06:51:06.000Z</time></trkpt><trkpt lon="5.772432" lat="50.995971"><ele>30.8</ele><time>2022-06-26T06:51:07.000Z</time></trkpt><trkpt lon="5.772421" lat="50.995925"><ele>30.8</ele><time>2022-06-26T06:51:08.000Z</time></trkpt><trkpt lon="5.7724" lat="50.995826"><ele>30.8</ele><time>2022-06-26T06:51:09.000Z</time></trkpt><trkpt lon="5.77239" lat="50.995783"><ele>30.8</ele><time>2022-06-26T06:51:10.000Z</time></trkpt><trkpt lon="5.772376" lat="50.995712"><ele>30.8</ele><time>2022-06-26T06:51:11.000Z</time></trkpt><trkpt lon="5.772355" lat="50.995608"><ele>30.6</ele><time>2022-06-26T06:51:12.000Z</time></trkpt><trkpt lon="5.772345" lat="50.995562"><ele>30.6</ele><time>2022-06-26T06:51:13.000Z</time></trkpt><trkpt lon="5.772328" lat="50.99546"><ele>30.8</ele><time>2022-06-26T06:51:14.000Z</time></trkpt><trkpt lon="5.772321" lat="50.99541"><ele>30.8</ele><time>2022-06-26T06:51:15.000Z</time></trkpt><trkpt lon="5.772313" lat="50.995314"><ele>30.8</ele><time>2022-06-26T06:51:16.000Z</time></trkpt><trkpt lon="5.772312" lat="50.995265"><ele>30.8</ele><time>2022-06-26T06:51:17.000Z</time></trkpt><trkpt lon="5.77231" lat="50.995169"><ele>30.8</ele><time>2022-06-26T06:51:18.000Z</time></trkpt><trkpt lon="5.772307" lat="50.995119"><ele>30.8</ele><time>2022-06-26T06:51:19.000Z</time></trkpt><trkpt lon="5.772303" lat="50.995028"><ele>30.6</ele><time>2022-06-26T06:51:20.000Z</time></trkpt><trkpt lon="5.772302" lat="50.994972"><ele>30.6</ele><time>2022-06-26T06:51:21.000Z</time></trkpt><trkpt lon="5.7723" lat="50.994876"><ele>30.4</ele><time>2022-06-26T06:51:22.000Z</time></trkpt><trkpt lon="5.772299" lat="50.994829"><ele>30.4</ele><time>2022-06-26T06:51:23.000Z</time></trkpt><trkpt lon="5.772295" lat="50.994731"><ele>30.2</ele><time>2022-06-26T06:51:24.000Z</time></trkpt><trkpt lon="5.772294" lat="50.994682"><ele>30.2</ele><time>2022-06-26T06:51:25.000Z</time></trkpt><trkpt lon="5.772294" lat="50.994586"><ele>30</ele><time>2022-06-26T06:51:26.000Z</time></trkpt><trkpt lon="5.772295" lat="50.994535"><ele>30</ele><time>2022-06-26T06:51:27.000Z</time></trkpt><trkpt lon="5.772303" lat="50.994438"><ele>29.8</ele><time>2022-06-26T06:51:28.000Z</time></trkpt><trkpt lon="5.772311" lat="50.994384"><ele>29.8</ele><time>2022-06-26T06:51:29.000Z</time></trkpt><trkpt lon="5.772323" lat="50.994293"><ele>29.6</ele><time>2022-06-26T06:51:30.000Z</time></trkpt><trkpt lon="5.772329" lat="50.994247"><ele>29.4</ele><time>2022-06-26T06:51:31.000Z</time></trkpt><trkpt lon="5.772337" lat="50.994143"><ele>29.4</ele><time>2022-06-26T06:51:32.000Z</time></trkpt><trkpt lon="5.772341" lat="50.994088"><ele>29.4</ele><time>2022-06-26T06:51:33.000Z</time></trkpt><trkpt lon="5.772343" lat="50.993998"><ele>29.4</ele><time>2022-06-26T06:51:34.000Z</time></trkpt><trkpt lon="5.772348" lat="50.993944"><ele>29.6</ele><time>2022-06-26T06:51:35.000Z</time></trkpt><trkpt lon="5.772355" lat="50.99385"><ele>29.6</ele><time>2022-06-26T06:51:36.000Z</time></trkpt><trkpt lon="5.772357" lat="50.993802"><ele>29.6</ele><time>2022-06-26T06:51:37.000Z</time></trkpt><trkpt lon="5.772358" lat="50.993711"><ele>29.6</ele><time>2022-06-26T06:51:38.000Z</time></trkpt><trkpt lon="5.772358" lat="50.993652"><ele>29.6</ele><time>2022-06-26T06:51:39.000Z</time></trkpt><trkpt lon="5.77236" lat="50.993556"><ele>29.6</ele><time>2022-06-26T06:51:40.000Z</time></trkpt><trkpt lon="5.772361" lat="50.993497"><ele>29.8</ele><time>2022-06-26T06:51:41.000Z</time></trkpt><trkpt lon="5.772365" lat="50.993407"><ele>29.8</ele><time>2022-06-26T06:51:42.000Z</time></trkpt><trkpt lon="5.772377" lat="50.993341"><ele>29.6</ele><time>2022-06-26T06:51:43.000Z</time></trkpt><trkpt lon="5.772388" lat="50.993275"><ele>29.6</ele><time>2022-06-26T06:51:44.000Z</time></trkpt><trkpt lon="5.7724" lat="50.993209"><ele>29.6</ele><time>2022-06-26T06:51:45.000Z</time></trkpt><trkpt lon="5.772412" lat="50.993143"><ele>29.6</ele><time>2022-06-26T06:51:46.000Z</time></trkpt><trkpt lon="5.772377" lat="50.993097"><ele>29.6</ele><time>2022-06-26T06:51:47.000Z</time></trkpt><trkpt lon="5.772354" lat="50.993032"><ele>29.6</ele><time>2022-06-26T06:51:48.000Z</time></trkpt><trkpt lon="5.772345" lat="50.992945"><ele>29.4</ele><time>2022-06-26T06:51:49.000Z</time></trkpt><trkpt lon="5.77235" lat="50.992897"><ele>29.4</ele><time>2022-06-26T06:51:50.000Z</time></trkpt><trkpt lon="5.772349" lat="50.9928"><ele>29.4</ele><time>2022-06-26T06:51:51.000Z</time></trkpt><trkpt lon="5.772354" lat="50.992753"><ele>29.4</ele><time>2022-06-26T06:51:52.000Z</time></trkpt><trkpt lon="5.772352" lat="50.992659"><ele>29.2</ele><time>2022-06-26T06:51:53.000Z</time></trkpt><trkpt lon="5.772342" lat="50.992605"><ele>29.4</ele><time>2022-06-26T06:51:54.000Z</time></trkpt><trkpt lon="5.772328" lat="50.99251"><ele>29.4</ele><time>2022-06-26T06:51:55.000Z</time></trkpt><trkpt lon="5.772319" lat="50.992465"><ele>29.4</ele><time>2022-06-26T06:51:56.000Z</time></trkpt><trkpt lon="5.772296" lat="50.992373"><ele>29.4</ele><time>2022-06-26T06:51:57.000Z</time></trkpt><trkpt lon="5.772289" lat="50.992324"><ele>29.2</ele><time>2022-06-26T06:51:58.000Z</time></trkpt><trkpt lon="5.772287" lat="50.992239"><ele>29</ele><time>2022-06-26T06:51:59.000Z</time></trkpt><trkpt lon="5.772276" lat="50.992191"><ele>29</ele><time>2022-06-26T06:52:00.000Z</time></trkpt><trkpt lon="5.772248" lat="50.992091"><ele>29.2</ele><time>2022-06-26T06:52:01.000Z</time></trkpt><trkpt lon="5.772234" lat="50.992043"><ele>29.2</ele><time>2022-06-26T06:52:02.000Z</time></trkpt><trkpt lon="5.772204" lat="50.991946"><ele>29.4</ele><time>2022-06-26T06:52:03.000Z</time></trkpt><trkpt lon="5.77219" lat="50.991901"><ele>29.4</ele><time>2022-06-26T06:52:04.000Z</time></trkpt><trkpt lon="5.772161" lat="50.991809"><ele>29.4</ele><time>2022-06-26T06:52:05.000Z</time></trkpt><trkpt lon="5.772151" lat="50.991764"><ele>29.4</ele><time>2022-06-26T06:52:06.000Z</time></trkpt><trkpt lon="5.772118" lat="50.991664"><ele>29.4</ele><time>2022-06-26T06:52:07.000Z</time></trkpt><trkpt lon="5.772102" lat="50.991621"><ele>29.2</ele><time>2022-06-26T06:52:08.000Z</time></trkpt><trkpt lon="5.772068" lat="50.991518"><ele>29.4</ele><time>2022-06-26T06:52:09.000Z</time></trkpt><trkpt lon="5.772046" lat="50.991465"><ele>29.4</ele><time>2022-06-26T06:52:10.000Z</time></trkpt><trkpt lon="5.772008" lat="50.991374"><ele>29.6</ele><time>2022-06-26T06:52:11.000Z</time></trkpt><trkpt lon="5.771987" lat="50.991327"><ele>29.8</ele><time>2022-06-26T06:52:12.000Z</time></trkpt><trkpt lon="5.771943" lat="50.991229"><ele>30</ele><time>2022-06-26T06:52:13.000Z</time></trkpt><trkpt lon="5.771922" lat="50.991188"><ele>30.2</ele><time>2022-06-26T06:52:14.000Z</time></trkpt><trkpt lon="5.77188" lat="50.991099"><ele>30.4</ele><time>2022-06-26T06:52:15.000Z</time></trkpt><trkpt lon="5.771864" lat="50.991058"><ele>30.4</ele><time>2022-06-26T06:52:16.000Z</time></trkpt><trkpt lon="5.771835" lat="50.990973"><ele>30.6</ele><time>2022-06-26T06:52:17.000Z</time></trkpt><trkpt lon="5.771824" lat="50.990928"><ele>30.8</ele><time>2022-06-26T06:52:18.000Z</time></trkpt><trkpt lon="5.771805" lat="50.990843"><ele>30.8</ele><time>2022-06-26T06:52:19.000Z</time></trkpt><trkpt lon="5.771794" lat="50.990798"><ele>31</ele><time>2022-06-26T06:52:20.000Z</time></trkpt><trkpt lon="5.771771" lat="50.990718"><ele>31</ele><time>2022-06-26T06:52:21.000Z</time></trkpt><trkpt lon="5.771764" lat="50.990687"><ele>31.2</ele><time>2022-06-26T06:52:22.000Z</time></trkpt><trkpt lon="5.771754" lat="50.990605"><ele>31.2</ele><time>2022-06-26T06:52:23.000Z</time></trkpt><trkpt lon="5.771755" lat="50.99055"><ele>31.4</ele><time>2022-06-26T06:52:24.000Z</time></trkpt><trkpt lon="5.771756" lat="50.990481"><ele>31.4</ele><time>2022-06-26T06:52:25.000Z</time></trkpt><trkpt lon="5.771753" lat="50.990381"><ele>31.4</ele><time>2022-06-26T06:52:26.000Z</time></trkpt><trkpt lon="5.771743" lat="50.990309"><ele>31.6</ele><time>2022-06-26T06:52:27.000Z</time></trkpt><trkpt lon="5.771725" lat="50.990237"><ele>31.6</ele><time>2022-06-26T06:52:28.000Z</time></trkpt><trkpt lon="5.771702" lat="50.990168"><ele>31.8</ele><time>2022-06-26T06:52:29.000Z</time></trkpt><trkpt lon="5.771675" lat="50.990104"><ele>31.8</ele><time>2022-06-26T06:52:30.000Z</time></trkpt><trkpt lon="5.771637" lat="50.990038"><ele>31.8</ele><time>2022-06-26T06:52:31.000Z</time></trkpt><trkpt lon="5.771598" lat="50.98997"><ele>31.8</ele><time>2022-06-26T06:52:32.000Z</time></trkpt><trkpt lon="5.77156" lat="50.989906"><ele>31.8</ele><time>2022-06-26T06:52:33.000Z</time></trkpt><trkpt lon="5.771521" lat="50.98984"><ele>31.8</ele><time>2022-06-26T06:52:34.000Z</time></trkpt><trkpt lon="5.77148" lat="50.989776"><ele>31.8</ele><time>2022-06-26T06:52:35.000Z</time></trkpt><trkpt lon="5.771441" lat="50.989714"><ele>31.8</ele><time>2022-06-26T06:52:36.000Z</time></trkpt><trkpt lon="5.7714" lat="50.989654"><ele>31.8</ele><time>2022-06-26T06:52:37.000Z</time></trkpt><trkpt lon="5.771361" lat="50.989593"><ele>32</ele><time>2022-06-26T06:52:38.000Z</time></trkpt><trkpt lon="5.771323" lat="50.989531"><ele>32</ele><time>2022-06-26T06:52:39.000Z</time></trkpt><trkpt lon="5.771288" lat="50.989471"><ele>32.2</ele><time>2022-06-26T06:52:40.000Z</time></trkpt><trkpt lon="5.771252" lat="50.989413"><ele>32.2</ele><time>2022-06-26T06:52:41.000Z</time></trkpt><trkpt lon="5.771216" lat="50.989356"><ele>32.4</ele><time>2022-06-26T06:52:42.000Z</time></trkpt><trkpt lon="5.771176" lat="50.989299"><ele>32.4</ele><time>2022-06-26T06:52:43.000Z</time></trkpt><trkpt lon="5.771134" lat="50.989234"><ele>32.4</ele><time>2022-06-26T06:52:44.000Z</time></trkpt><trkpt lon="5.771091" lat="50.989173"><ele>32.6</ele><time>2022-06-26T06:52:45.000Z</time></trkpt><trkpt lon="5.771051" lat="50.989112"><ele>32.4</ele><time>2022-06-26T06:52:46.000Z</time></trkpt><trkpt lon="5.771013" lat="50.989051"><ele>32.4</ele><time>2022-06-26T06:52:47.000Z</time></trkpt><trkpt lon="5.770976" lat="50.988987"><ele>32.2</ele><time>2022-06-26T06:52:48.000Z</time></trkpt><trkpt lon="5.770938" lat="50.988922"><ele>32.2</ele><time>2022-06-26T06:52:49.000Z</time></trkpt><trkpt lon="5.770901" lat="50.988857"><ele>32.2</ele><time>2022-06-26T06:52:50.000Z</time></trkpt><trkpt lon="5.770866" lat="50.988792"><ele>32.4</ele><time>2022-06-26T06:52:51.000Z</time></trkpt><trkpt lon="5.77083" lat="50.988727"><ele>32.6</ele><time>2022-06-26T06:52:52.000Z</time></trkpt><trkpt lon="5.770794" lat="50.988663"><ele>32.8</ele><time>2022-06-26T06:52:53.000Z</time></trkpt><trkpt lon="5.770758" lat="50.988597"><ele>32.8</ele><time>2022-06-26T06:52:54.000Z</time></trkpt><trkpt lon="5.770727" lat="50.988533"><ele>33</ele><time>2022-06-26T06:52:55.000Z</time></trkpt><trkpt lon="5.770695" lat="50.988467"><ele>33</ele><time>2022-06-26T06:52:56.000Z</time></trkpt><trkpt lon="5.770661" lat="50.988403"><ele>33</ele><time>2022-06-26T06:52:57.000Z</time></trkpt><trkpt lon="5.770623" lat="50.988339"><ele>33</ele><time>2022-06-26T06:52:58.000Z</time></trkpt><trkpt lon="5.770578" lat="50.988277"><ele>33</ele><time>2022-06-26T06:52:59.000Z</time></trkpt><trkpt lon="5.77053" lat="50.988216"><ele>33.2</ele><time>2022-06-26T06:53:00.000Z</time></trkpt><trkpt lon="5.770481" lat="50.988151"><ele>33.2</ele><time>2022-06-26T06:53:01.000Z</time></trkpt><trkpt lon="5.77044" lat="50.98809"><ele>33.2</ele><time>2022-06-26T06:53:02.000Z</time></trkpt><trkpt lon="5.770401" lat="50.988026"><ele>33.4</ele><time>2022-06-26T06:53:03.000Z</time></trkpt><trkpt lon="5.770365" lat="50.987964"><ele>33.4</ele><time>2022-06-26T06:53:04.000Z</time></trkpt><trkpt lon="5.770331" lat="50.987899"><ele>33.6</ele><time>2022-06-26T06:53:05.000Z</time></trkpt><trkpt lon="5.770295" lat="50.987834"><ele>33.6</ele><time>2022-06-26T06:53:06.000Z</time></trkpt><trkpt lon="5.77026" lat="50.987771"><ele>33.8</ele><time>2022-06-26T06:53:07.000Z</time></trkpt><trkpt lon="5.770226" lat="50.987708"><ele>33.8</ele><time>2022-06-26T06:53:08.000Z</time></trkpt><trkpt lon="5.770197" lat="50.987645"><ele>33.8</ele><time>2022-06-26T06:53:09.000Z</time></trkpt><trkpt lon="5.770165" lat="50.987579"><ele>34</ele><time>2022-06-26T06:53:10.000Z</time></trkpt><trkpt lon="5.77014" lat="50.987518"><ele>34</ele><time>2022-06-26T06:53:11.000Z</time></trkpt><trkpt lon="5.770117" lat="50.987454"><ele>34</ele><time>2022-06-26T06:53:12.000Z</time></trkpt><trkpt lon="5.77009" lat="50.987392"><ele>34.2</ele><time>2022-06-26T06:53:13.000Z</time></trkpt><trkpt lon="5.770063" lat="50.98733"><ele>34.2</ele><time>2022-06-26T06:53:14.000Z</time></trkpt><trkpt lon="5.770036" lat="50.987269"><ele>34.4</ele><time>2022-06-26T06:53:15.000Z</time></trkpt><trkpt lon="5.770013" lat="50.987208"><ele>34.4</ele><time>2022-06-26T06:53:16.000Z</time></trkpt><trkpt lon="5.769993" lat="50.987142"><ele>34.4</ele><time>2022-06-26T06:53:17.000Z</time></trkpt><trkpt lon="5.769971" lat="50.987082"><ele>34.6</ele><time>2022-06-26T06:53:18.000Z</time></trkpt><trkpt lon="5.76995" lat="50.987017"><ele>34.6</ele><time>2022-06-26T06:53:19.000Z</time></trkpt><trkpt lon="5.769935" lat="50.986958"><ele>34.6</ele><time>2022-06-26T06:53:20.000Z</time></trkpt><trkpt lon="5.76992" lat="50.986897"><ele>34.8</ele><time>2022-06-26T06:53:21.000Z</time></trkpt><trkpt lon="5.769899" lat="50.98683"><ele>35</ele><time>2022-06-26T06:53:22.000Z</time></trkpt><trkpt lon="5.769885" lat="50.986765"><ele>35</ele><time>2022-06-26T06:53:23.000Z</time></trkpt><trkpt lon="5.769868" lat="50.986704"><ele>35.2</ele><time>2022-06-26T06:53:24.000Z</time></trkpt><trkpt lon="5.769856" lat="50.986639"><ele>35.2</ele><time>2022-06-26T06:53:25.000Z</time></trkpt><trkpt lon="5.769845" lat="50.986575"><ele>35.2</ele><time>2022-06-26T06:53:26.000Z</time></trkpt><trkpt lon="5.769837" lat="50.986509"><ele>35.2</ele><time>2022-06-26T06:53:27.000Z</time></trkpt><trkpt lon="5.769828" lat="50.986445"><ele>35.4</ele><time>2022-06-26T06:53:28.000Z</time></trkpt><trkpt lon="5.769819" lat="50.986384"><ele>35.4</ele><time>2022-06-26T06:53:29.000Z</time></trkpt><trkpt lon="5.769808" lat="50.986315"><ele>35.4</ele><time>2022-06-26T06:53:30.000Z</time></trkpt><trkpt lon="5.769799" lat="50.986253"><ele>35.4</ele><time>2022-06-26T06:53:31.000Z</time></trkpt><trkpt lon="5.76979" lat="50.986181"><ele>35.4</ele><time>2022-06-26T06:53:32.000Z</time></trkpt><trkpt lon="5.769783" lat="50.986117"><ele>35.6</ele><time>2022-06-26T06:53:33.000Z</time></trkpt><trkpt lon="5.76978" lat="50.986052"><ele>35.8</ele><time>2022-06-26T06:53:34.000Z</time></trkpt><trkpt lon="5.769778" lat="50.985987"><ele>35.8</ele><time>2022-06-26T06:53:35.000Z</time></trkpt><trkpt lon="5.769778" lat="50.985922"><ele>36</ele><time>2022-06-26T06:53:36.000Z</time></trkpt><trkpt lon="5.769782" lat="50.985859"><ele>36.2</ele><time>2022-06-26T06:53:37.000Z</time></trkpt><trkpt lon="5.769787" lat="50.985796"><ele>36.4</ele><time>2022-06-26T06:53:38.000Z</time></trkpt><trkpt lon="5.769795" lat="50.985735"><ele>36.4</ele><time>2022-06-26T06:53:39.000Z</time></trkpt><trkpt lon="5.769804" lat="50.985671"><ele>36.6</ele><time>2022-06-26T06:53:40.000Z</time></trkpt><trkpt lon="5.769813" lat="50.985611"><ele>36.6</ele><time>2022-06-26T06:53:41.000Z</time></trkpt><trkpt lon="5.769824" lat="50.985549"><ele>37</ele><time>2022-06-26T06:53:42.000Z</time></trkpt><trkpt lon="5.769834" lat="50.985492"><ele>37.2</ele><time>2022-06-26T06:53:43.000Z</time></trkpt><trkpt lon="5.769845" lat="50.98543"><ele>37.4</ele><time>2022-06-26T06:53:44.000Z</time></trkpt><trkpt lon="5.769857" lat="50.985369"><ele>37.6</ele><time>2022-06-26T06:53:45.000Z</time></trkpt><trkpt lon="5.769862" lat="50.985308"><ele>37.8</ele><time>2022-06-26T06:53:46.000Z</time></trkpt><trkpt lon="5.769865" lat="50.985247"><ele>38.2</ele><time>2022-06-26T06:53:47.000Z</time></trkpt><trkpt lon="5.769868" lat="50.98519"><ele>38.4</ele><time>2022-06-26T06:53:48.000Z</time></trkpt><trkpt lon="5.769872" lat="50.985128"><ele>38.6</ele><time>2022-06-26T06:53:49.000Z</time></trkpt><trkpt lon="5.769877" lat="50.985068"><ele>38.6</ele><time>2022-06-26T06:53:50.000Z</time></trkpt><trkpt lon="5.769882" lat="50.985006"><ele>38.8</ele><time>2022-06-26T06:53:51.000Z</time></trkpt><trkpt lon="5.769885" lat="50.984946"><ele>38.8</ele><time>2022-06-26T06:53:52.000Z</time></trkpt><trkpt lon="5.769888" lat="50.984889"><ele>38.8</ele><time>2022-06-26T06:53:53.000Z</time></trkpt><trkpt lon="5.76989" lat="50.984828"><ele>38.8</ele><time>2022-06-26T06:53:54.000Z</time></trkpt><trkpt lon="5.769892" lat="50.984766"><ele>38.8</ele><time>2022-06-26T06:53:55.000Z</time></trkpt><trkpt lon="5.769893" lat="50.984705"><ele>38.8</ele><time>2022-06-26T06:53:56.000Z</time></trkpt><trkpt lon="5.76989" lat="50.984644"><ele>38.8</ele><time>2022-06-26T06:53:57.000Z</time></trkpt><trkpt lon="5.769882" lat="50.98458"><ele>38.6</ele><time>2022-06-26T06:53:58.000Z</time></trkpt><trkpt lon="5.769873" lat="50.984515"><ele>38.6</ele><time>2022-06-26T06:53:59.000Z</time></trkpt><trkpt lon="5.769863" lat="50.984447"><ele>38.2</ele><time>2022-06-26T06:54:00.000Z</time></trkpt><trkpt lon="5.76985" lat="50.984386"><ele>38.2</ele><time>2022-06-26T06:54:01.000Z</time></trkpt><trkpt lon="5.769831" lat="50.98432"><ele>37.6</ele><time>2022-06-26T06:54:02.000Z</time></trkpt><trkpt lon="5.769813" lat="50.984259"><ele>37.4</ele><time>2022-06-26T06:54:03.000Z</time></trkpt><trkpt lon="5.769791" lat="50.984198"><ele>37.2</ele><time>2022-06-26T06:54:04.000Z</time></trkpt><trkpt lon="5.769765" lat="50.984133"><ele>37</ele><time>2022-06-26T06:54:05.000Z</time></trkpt><trkpt lon="5.769744" lat="50.984064"><ele>36.8</ele><time>2022-06-26T06:54:06.000Z</time></trkpt><trkpt lon="5.769723" lat="50.984"><ele>36.6</ele><time>2022-06-26T06:54:07.000Z</time></trkpt><trkpt lon="5.769698" lat="50.983939"><ele>36.6</ele><time>2022-06-26T06:54:08.000Z</time></trkpt><trkpt lon="5.769674" lat="50.983873"><ele>36.4</ele><time>2022-06-26T06:54:09.000Z</time></trkpt><trkpt lon="5.769653" lat="50.98381"><ele>36.2</ele><time>2022-06-26T06:54:10.000Z</time></trkpt><trkpt lon="5.769632" lat="50.983747"><ele>36.2</ele><time>2022-06-26T06:54:11.000Z</time></trkpt><trkpt lon="5.769608" lat="50.983683"><ele>36.2</ele><time>2022-06-26T06:54:12.000Z</time></trkpt><trkpt lon="5.769583" lat="50.983618"><ele>36.4</ele><time>2022-06-26T06:54:13.000Z</time></trkpt><trkpt lon="5.769558" lat="50.983549"><ele>36.4</ele><time>2022-06-26T06:54:14.000Z</time></trkpt><trkpt lon="5.769531" lat="50.983488"><ele>36.6</ele><time>2022-06-26T06:54:15.000Z</time></trkpt><trkpt lon="5.769506" lat="50.983423"><ele>36.6</ele><time>2022-06-26T06:54:16.000Z</time></trkpt><trkpt lon="5.769481" lat="50.983359"><ele>36.8</ele><time>2022-06-26T06:54:17.000Z</time></trkpt><trkpt lon="5.769458" lat="50.983297"><ele>36.8</ele><time>2022-06-26T06:54:18.000Z</time></trkpt><trkpt lon="5.769437" lat="50.983236"><ele>37</ele><time>2022-06-26T06:54:19.000Z</time></trkpt><trkpt lon="5.769414" lat="50.983172"><ele>37.2</ele><time>2022-06-26T06:54:20.000Z</time></trkpt><trkpt lon="5.769396" lat="50.98311"><ele>37.2</ele><time>2022-06-26T06:54:21.000Z</time></trkpt><trkpt lon="5.769381" lat="50.983054"><ele>37.4</ele><time>2022-06-26T06:54:22.000Z</time></trkpt><trkpt lon="5.769366" lat="50.982992"><ele>37.6</ele><time>2022-06-26T06:54:23.000Z</time></trkpt><trkpt lon="5.769351" lat="50.982936"><ele>37.8</ele><time>2022-06-26T06:54:24.000Z</time></trkpt><trkpt lon="5.769333" lat="50.982882"><ele>38</ele><time>2022-06-26T06:54:25.000Z</time></trkpt><trkpt lon="5.769309" lat="50.982825"><ele>38.2</ele><time>2022-06-26T06:54:26.000Z</time></trkpt><trkpt lon="5.769286" lat="50.982766"><ele>38.4</ele><time>2022-06-26T06:54:27.000Z</time></trkpt><trkpt lon="5.769261" lat="50.982711"><ele>38.4</ele><time>2022-06-26T06:54:28.000Z</time></trkpt><trkpt lon="5.769241" lat="50.982657"><ele>38.6</ele><time>2022-06-26T06:54:29.000Z</time></trkpt><trkpt lon="5.769216" lat="50.982596"><ele>38.8</ele><time>2022-06-26T06:54:30.000Z</time></trkpt><trkpt lon="5.769193" lat="50.982535"><ele>38.8</ele><time>2022-06-26T06:54:31.000Z</time></trkpt><trkpt lon="5.769169" lat="50.982478"><ele>39</ele><time>2022-06-26T06:54:32.000Z</time></trkpt><trkpt lon="5.769144" lat="50.98242"><ele>39</ele><time>2022-06-26T06:54:33.000Z</time></trkpt><trkpt lon="5.769121" lat="50.982363"><ele>39.2</ele><time>2022-06-26T06:54:34.000Z</time></trkpt><trkpt lon="5.769101" lat="50.982306"><ele>39.2</ele><time>2022-06-26T06:54:35.000Z</time></trkpt><trkpt lon="5.769081" lat="50.982253"><ele>39.2</ele><time>2022-06-26T06:54:36.000Z</time></trkpt><trkpt lon="5.769062" lat="50.982203"><ele>39.2</ele><time>2022-06-26T06:54:37.000Z</time></trkpt><trkpt lon="5.769036" lat="50.982138"><ele>39.2</ele><time>2022-06-26T06:54:38.000Z</time></trkpt><trkpt lon="5.769009" lat="50.982083"><ele>39.2</ele><time>2022-06-26T06:54:39.000Z</time></trkpt><trkpt lon="5.768979" lat="50.982028"><ele>39.2</ele><time>2022-06-26T06:54:40.000Z</time></trkpt><trkpt lon="5.768954" lat="50.98198"><ele>39.2</ele><time>2022-06-26T06:54:41.000Z</time></trkpt><trkpt lon="5.768909" lat="50.981933"><ele>39.2</ele><time>2022-06-26T06:54:42.000Z</time></trkpt><trkpt lon="5.768856" lat="50.981905"><ele>39.2</ele><time>2022-06-26T06:54:43.000Z</time></trkpt><trkpt lon="5.768784" lat="50.981876"><ele>39.2</ele><time>2022-06-26T06:54:44.000Z</time></trkpt><trkpt lon="5.768731" lat="50.981845"><ele>39</ele><time>2022-06-26T06:54:45.000Z</time></trkpt><trkpt lon="5.7687" lat="50.981799"><ele>38.8</ele><time>2022-06-26T06:54:46.000Z</time></trkpt><trkpt lon="5.768698" lat="50.981746"><ele>38.8</ele><time>2022-06-26T06:54:47.000Z</time></trkpt><trkpt lon="5.768721" lat="50.981692"><ele>38.8</ele><time>2022-06-26T06:54:48.000Z</time></trkpt><trkpt lon="5.768759" lat="50.981638"><ele>38.8</ele><time>2022-06-26T06:54:49.000Z</time></trkpt><trkpt lon="5.768785" lat="50.981577"><ele>38.8</ele><time>2022-06-26T06:54:50.000Z</time></trkpt><trkpt lon="5.768785" lat="50.981518"><ele>38.8</ele><time>2022-06-26T06:54:51.000Z</time></trkpt><trkpt lon="5.768766" lat="50.981439"><ele>38.8</ele><time>2022-06-26T06:54:52.000Z</time></trkpt><trkpt lon="5.768737" lat="50.981363"><ele>38.6</ele><time>2022-06-26T06:54:53.000Z</time></trkpt><trkpt lon="5.7687" lat="50.98129"><ele>38.6</ele><time>2022-06-26T06:54:54.000Z</time></trkpt><trkpt lon="5.76866" lat="50.98122"><ele>38.4</ele><time>2022-06-26T06:54:55.000Z</time></trkpt><trkpt lon="5.768616" lat="50.981139"><ele>38.4</ele><time>2022-06-26T06:54:56.000Z</time></trkpt><trkpt lon="5.768572" lat="50.981062"><ele>38.2</ele><time>2022-06-26T06:54:57.000Z</time></trkpt><trkpt lon="5.768527" lat="50.98099"><ele>38</ele><time>2022-06-26T06:54:58.000Z</time></trkpt><trkpt lon="5.76849" lat="50.980928"><ele>38</ele><time>2022-06-26T06:54:59.000Z</time></trkpt><trkpt lon="5.768431" lat="50.980841"><ele>37.6</ele><time>2022-06-26T06:55:00.000Z</time></trkpt><trkpt lon="5.768383" lat="50.980766"><ele>37.4</ele><time>2022-06-26T06:55:01.000Z</time></trkpt><trkpt lon="5.768338" lat="50.980689"><ele>37.2</ele><time>2022-06-26T06:55:02.000Z</time></trkpt><trkpt lon="5.768297" lat="50.980608"><ele>37</ele><time>2022-06-26T06:55:03.000Z</time></trkpt><trkpt lon="5.768256" lat="50.980532"><ele>36.8</ele><time>2022-06-26T06:55:04.000Z</time></trkpt><trkpt lon="5.768216" lat="50.980464"><ele>36.6</ele><time>2022-06-26T06:55:05.000Z</time></trkpt><trkpt lon="5.768172" lat="50.980395"><ele>36.4</ele><time>2022-06-26T06:55:06.000Z</time></trkpt><trkpt lon="5.768137" lat="50.980334"><ele>36.4</ele><time>2022-06-26T06:55:07.000Z</time></trkpt><trkpt lon="5.768094" lat="50.980257"><ele>36.2</ele><time>2022-06-26T06:55:08.000Z</time></trkpt><trkpt lon="5.768057" lat="50.980192"><ele>36.2</ele><time>2022-06-26T06:55:09.000Z</time></trkpt><trkpt lon="5.768019" lat="50.980132"><ele>36.2</ele><time>2022-06-26T06:55:10.000Z</time></trkpt><trkpt lon="5.767988" lat="50.980076"><ele>36</ele><time>2022-06-26T06:55:11.000Z</time></trkpt><trkpt lon="5.767946" lat="50.980006"><ele>36</ele><time>2022-06-26T06:55:12.000Z</time></trkpt><trkpt lon="5.767913" lat="50.979945"><ele>36</ele><time>2022-06-26T06:55:13.000Z</time></trkpt><trkpt lon="5.767874" lat="50.97988"><ele>36</ele><time>2022-06-26T06:55:14.000Z</time></trkpt><trkpt lon="5.767834" lat="50.979814"><ele>36</ele><time>2022-06-26T06:55:15.000Z</time></trkpt><trkpt lon="5.767796" lat="50.979755"><ele>36</ele><time>2022-06-26T06:55:16.000Z</time></trkpt><trkpt lon="5.767756" lat="50.979697"><ele>36</ele><time>2022-06-26T06:55:17.000Z</time></trkpt><trkpt lon="5.767716" lat="50.97964"><ele>36.2</ele><time>2022-06-26T06:55:18.000Z</time></trkpt><trkpt lon="5.767687" lat="50.979593"><ele>36.4</ele><time>2022-06-26T06:55:19.000Z</time></trkpt><trkpt lon="5.767651" lat="50.979525"><ele>36.6</ele><time>2022-06-26T06:55:20.000Z</time></trkpt><trkpt lon="5.767618" lat="50.979468"><ele>36.8</ele><time>2022-06-26T06:55:21.000Z</time></trkpt><trkpt lon="5.767578" lat="50.979403"><ele>36.8</ele><time>2022-06-26T06:55:22.000Z</time></trkpt><trkpt lon="5.767551" lat="50.979349"><ele>37</ele><time>2022-06-26T06:55:23.000Z</time></trkpt><trkpt lon="5.767511" lat="50.979277"><ele>37.2</ele><time>2022-06-26T06:55:24.000Z</time></trkpt><trkpt lon="5.767481" lat="50.979216"><ele>37.4</ele><time>2022-06-26T06:55:25.000Z</time></trkpt><trkpt lon="5.767446" lat="50.979163"><ele>37.6</ele><time>2022-06-26T06:55:26.000Z</time></trkpt><trkpt lon="5.767412" lat="50.979115"><ele>37.8</ele><time>2022-06-26T06:55:27.000Z</time></trkpt><trkpt lon="5.767378" lat="50.97906"><ele>38</ele><time>2022-06-26T06:55:28.000Z</time></trkpt><trkpt lon="5.76735" lat="50.979013"><ele>38.2</ele><time>2022-06-26T06:55:29.000Z</time></trkpt><trkpt lon="5.767314" lat="50.978957"><ele>38.6</ele><time>2022-06-26T06:55:30.000Z</time></trkpt><trkpt lon="5.767286" lat="50.978913"><ele>38.8</ele><time>2022-06-26T06:55:31.000Z</time></trkpt><trkpt lon="5.767254" lat="50.978858"><ele>38.8</ele><time>2022-06-26T06:55:32.000Z</time></trkpt><trkpt lon="5.767232" lat="50.978822"><ele>39</ele><time>2022-06-26T06:55:33.000Z</time></trkpt><trkpt lon="5.767203" lat="50.978774"><ele>39.2</ele><time>2022-06-26T06:55:34.000Z</time></trkpt><trkpt lon="5.767181" lat="50.978737"><ele>39.2</ele><time>2022-06-26T06:55:35.000Z</time></trkpt><trkpt lon="5.767149" lat="50.978706"><ele>39.4</ele><time>2022-06-26T06:55:36.000Z</time></trkpt><trkpt lon="5.76711" lat="50.978691"><ele>39.6</ele><time>2022-06-26T06:55:37.000Z</time></trkpt><trkpt lon="5.767063" lat="50.978687"><ele>39.8</ele><time>2022-06-26T06:55:38.000Z</time></trkpt><trkpt lon="5.767" lat="50.978691"><ele>40</ele><time>2022-06-26T06:55:39.000Z</time></trkpt><trkpt lon="5.766928" lat="50.978695"><ele>40</ele><time>2022-06-26T06:55:40.000Z</time></trkpt><trkpt lon="5.766849" lat="50.978702"><ele>40.2</ele><time>2022-06-26T06:55:41.000Z</time></trkpt><trkpt lon="5.766764" lat="50.97871"><ele>40.4</ele><time>2022-06-26T06:55:42.000Z</time></trkpt><trkpt lon="5.766687" lat="50.978717"><ele>40.4</ele><time>2022-06-26T06:55:43.000Z</time></trkpt><trkpt lon="5.766592" lat="50.978718"><ele>40.6</ele><time>2022-06-26T06:55:44.000Z</time></trkpt><trkpt lon="5.766495" lat="50.978706"><ele>40.6</ele><time>2022-06-26T06:55:45.000Z</time></trkpt><trkpt lon="5.766396" lat="50.978687"><ele>40.6</ele><time>2022-06-26T06:55:46.000Z</time></trkpt><trkpt lon="5.766298" lat="50.978664"><ele>40.6</ele><time>2022-06-26T06:55:47.000Z</time></trkpt><trkpt lon="5.766209" lat="50.978633"><ele>40.6</ele><time>2022-06-26T06:55:48.000Z</time></trkpt><trkpt lon="5.766149" lat="50.978599"><ele>40.6</ele><time>2022-06-26T06:55:49.000Z</time></trkpt><trkpt lon="5.76607" lat="50.978537"><ele>40.6</ele><time>2022-06-26T06:55:50.000Z</time></trkpt><trkpt lon="5.766014" lat="50.97848"><ele>40.6</ele><time>2022-06-26T06:55:51.000Z</time></trkpt><trkpt lon="5.76596" lat="50.978419"><ele>40.6</ele><time>2022-06-26T06:55:52.000Z</time></trkpt><trkpt lon="5.7659" lat="50.978361"><ele>40.6</ele><time>2022-06-26T06:55:53.000Z</time></trkpt><trkpt lon="5.765838" lat="50.978304"><ele>40.6</ele><time>2022-06-26T06:55:54.000Z</time></trkpt><trkpt lon="5.765776" lat="50.978248"><ele>40.6</ele><time>2022-06-26T06:55:55.000Z</time></trkpt><trkpt lon="5.765708" lat="50.978194"><ele>40.6</ele><time>2022-06-26T06:55:56.000Z</time></trkpt><trkpt lon="5.765645" lat="50.978142"><ele>40.6</ele><time>2022-06-26T06:55:57.000Z</time></trkpt><trkpt lon="5.765581" lat="50.978092"><ele>40.6</ele><time>2022-06-26T06:55:58.000Z</time></trkpt><trkpt lon="5.765524" lat="50.978045"><ele>40.8</ele><time>2022-06-26T06:55:59.000Z</time></trkpt><trkpt lon="5.76546" lat="50.977988"><ele>40.8</ele><time>2022-06-26T06:56:00.000Z</time></trkpt><trkpt lon="5.7654" lat="50.977934"><ele>41</ele><time>2022-06-26T06:56:01.000Z</time></trkpt><trkpt lon="5.765341" lat="50.977878"><ele>41</ele><time>2022-06-26T06:56:02.000Z</time></trkpt><trkpt lon="5.765276" lat="50.977826"><ele>41.2</ele><time>2022-06-26T06:56:03.000Z</time></trkpt><trkpt lon="5.765206" lat="50.977775"><ele>41.2</ele><time>2022-06-26T06:56:04.000Z</time></trkpt><trkpt lon="5.76514" lat="50.977726"><ele>41.4</ele><time>2022-06-26T06:56:05.000Z</time></trkpt><trkpt lon="5.765078" lat="50.977672"><ele>41.4</ele><time>2022-06-26T06:56:06.000Z</time></trkpt><trkpt lon="5.765034" lat="50.977635"><ele>41.4</ele><time>2022-06-26T06:56:07.000Z</time></trkpt><trkpt lon="5.764955" lat="50.977573"><ele>41.4</ele><time>2022-06-26T06:56:08.000Z</time></trkpt><trkpt lon="5.764903" lat="50.977531"><ele>41.4</ele><time>2022-06-26T06:56:09.000Z</time></trkpt><trkpt lon="5.764829" lat="50.977473"><ele>41.4</ele><time>2022-06-26T06:56:10.000Z</time></trkpt><trkpt lon="5.764766" lat="50.977423"><ele>41.4</ele><time>2022-06-26T06:56:11.000Z</time></trkpt><trkpt lon="5.764706" lat="50.977374"><ele>41.4</ele><time>2022-06-26T06:56:12.000Z</time></trkpt><trkpt lon="5.764659" lat="50.977337"><ele>41.4</ele><time>2022-06-26T06:56:13.000Z</time></trkpt><trkpt lon="5.764583" lat="50.977275"><ele>41.2</ele><time>2022-06-26T06:56:14.000Z</time></trkpt><trkpt lon="5.764524" lat="50.977229"><ele>41.2</ele><time>2022-06-26T06:56:15.000Z</time></trkpt><trkpt lon="5.764455" lat="50.977176"><ele>41.2</ele><time>2022-06-26T06:56:16.000Z</time></trkpt><trkpt lon="5.764402" lat="50.977132"><ele>41.2</ele><time>2022-06-26T06:56:17.000Z</time></trkpt><trkpt lon="5.76433" lat="50.977069"><ele>41.2</ele><time>2022-06-26T06:56:18.000Z</time></trkpt><trkpt lon="5.764268" lat="50.977015"><ele>41</ele><time>2022-06-26T06:56:19.000Z</time></trkpt><trkpt lon="5.764207" lat="50.976962"><ele>41</ele><time>2022-06-26T06:56:20.000Z</time></trkpt><trkpt lon="5.764156" lat="50.976921"><ele>41</ele><time>2022-06-26T06:56:21.000Z</time></trkpt><trkpt lon="5.764073" lat="50.976852"><ele>41</ele><time>2022-06-26T06:56:22.000Z</time></trkpt><trkpt lon="5.764007" lat="50.976798"><ele>41</ele><time>2022-06-26T06:56:23.000Z</time></trkpt><trkpt lon="5.763942" lat="50.976744"><ele>41</ele><time>2022-06-26T06:56:24.000Z</time></trkpt><trkpt lon="5.763886" lat="50.976699"><ele>41</ele><time>2022-06-26T06:56:25.000Z</time></trkpt><trkpt lon="5.76381" lat="50.976642"><ele>41</ele><time>2022-06-26T06:56:26.000Z</time></trkpt><trkpt lon="5.763757" lat="50.9766"><ele>41</ele><time>2022-06-26T06:56:27.000Z</time></trkpt><trkpt lon="5.763675" lat="50.976535"><ele>40.8</ele><time>2022-06-26T06:56:28.000Z</time></trkpt><trkpt lon="5.76361" lat="50.976481"><ele>40.6</ele><time>2022-06-26T06:56:29.000Z</time></trkpt><trkpt lon="5.763548" lat="50.976425"><ele>40.6</ele><time>2022-06-26T06:56:30.000Z</time></trkpt><trkpt lon="5.763498" lat="50.976382"><ele>40.6</ele><time>2022-06-26T06:56:31.000Z</time></trkpt><trkpt lon="5.763413" lat="50.976306"><ele>40.2</ele><time>2022-06-26T06:56:32.000Z</time></trkpt><trkpt lon="5.763344" lat="50.976249"><ele>40</ele><time>2022-06-26T06:56:33.000Z</time></trkpt><trkpt lon="5.763276" lat="50.976192"><ele>40</ele><time>2022-06-26T06:56:34.000Z</time></trkpt><trkpt lon="5.763212" lat="50.976136"><ele>40</ele><time>2022-06-26T06:56:35.000Z</time></trkpt><trkpt lon="5.763133" lat="50.976074"><ele>39.8</ele><time>2022-06-26T06:56:36.000Z</time></trkpt><trkpt lon="5.76308" lat="50.976032"><ele>39.8</ele><time>2022-06-26T06:56:37.000Z</time></trkpt><trkpt lon="5.762989" lat="50.975959"><ele>39.6</ele><time>2022-06-26T06:56:38.000Z</time></trkpt><trkpt lon="5.762935" lat="50.975919"><ele>39.6</ele><time>2022-06-26T06:56:39.000Z</time></trkpt><trkpt lon="5.762851" lat="50.975856"><ele>39.4</ele><time>2022-06-26T06:56:40.000Z</time></trkpt><trkpt lon="5.762791" lat="50.975812"><ele>39.4</ele><time>2022-06-26T06:56:41.000Z</time></trkpt><trkpt lon="5.762705" lat="50.975749"><ele>39.4</ele><time>2022-06-26T06:56:42.000Z</time></trkpt><trkpt lon="5.762638" lat="50.975698"><ele>39.4</ele><time>2022-06-26T06:56:43.000Z</time></trkpt><trkpt lon="5.762558" lat="50.975638"><ele>39.4</ele><time>2022-06-26T06:56:44.000Z</time></trkpt><trkpt lon="5.76249" lat="50.975585"><ele>39</ele><time>2022-06-26T06:56:45.000Z</time></trkpt><trkpt lon="5.762398" lat="50.975516"><ele>38.8</ele><time>2022-06-26T06:56:46.000Z</time></trkpt><trkpt lon="5.762317" lat="50.975454"><ele>38.6</ele><time>2022-06-26T06:56:47.000Z</time></trkpt><trkpt lon="5.762227" lat="50.975383"><ele>37.8</ele><time>2022-06-26T06:56:48.000Z</time></trkpt><trkpt lon="5.762158" lat="50.97533"><ele>37.6</ele><time>2022-06-26T06:56:49.000Z</time></trkpt><trkpt lon="5.762042" lat="50.975245"><ele>37</ele><time>2022-06-26T06:56:50.000Z</time></trkpt><trkpt lon="5.761958" lat="50.975186"><ele>36.8</ele><time>2022-06-26T06:56:51.000Z</time></trkpt><trkpt lon="5.761866" lat="50.975114"><ele>36</ele><time>2022-06-26T06:56:52.000Z</time></trkpt><trkpt lon="5.761762" lat="50.975031"><ele>35.4</ele><time>2022-06-26T06:56:53.000Z</time></trkpt><trkpt lon="5.761648" lat="50.974949"><ele>34.6</ele><time>2022-06-26T06:56:54.000Z</time></trkpt><trkpt lon="5.761556" lat="50.974881"><ele>33.8</ele><time>2022-06-26T06:56:55.000Z</time></trkpt><trkpt lon="5.761462" lat="50.9748"><ele>33.2</ele><time>2022-06-26T06:56:56.000Z</time></trkpt><trkpt lon="5.761385" lat="50.974723"><ele>32.6</ele><time>2022-06-26T06:56:57.000Z</time></trkpt><trkpt lon="5.76131" lat="50.974643"><ele>32</ele><time>2022-06-26T06:56:58.000Z</time></trkpt><trkpt lon="5.76124" lat="50.97455"><ele>31.8</ele><time>2022-06-26T06:56:59.000Z</time></trkpt><trkpt lon="5.761181" lat="50.974451"><ele>31.4</ele><time>2022-06-26T06:57:00.000Z</time></trkpt><trkpt lon="5.761146" lat="50.974354"><ele>30.8</ele><time>2022-06-26T06:57:01.000Z</time></trkpt><trkpt lon="5.761124" lat="50.974256"><ele>30.2</ele><time>2022-06-26T06:57:02.000Z</time></trkpt><trkpt lon="5.761112" lat="50.974165"><ele>29.8</ele><time>2022-06-26T06:57:03.000Z</time></trkpt><trkpt lon="5.76111" lat="50.974074"><ele>29.6</ele><time>2022-06-26T06:57:04.000Z</time></trkpt><trkpt lon="5.761112" lat="50.973975"><ele>29.8</ele><time>2022-06-26T06:57:05.000Z</time></trkpt><trkpt lon="5.761115" lat="50.973917"><ele>30</ele><time>2022-06-26T06:57:06.000Z</time></trkpt><trkpt lon="5.761117" lat="50.973826"><ele>30</ele><time>2022-06-26T06:57:07.000Z</time></trkpt><trkpt lon="5.761118" lat="50.973758"><ele>30.2</ele><time>2022-06-26T06:57:08.000Z</time></trkpt><trkpt lon="5.76112" lat="50.973685"><ele>30.2</ele><time>2022-06-26T06:57:09.000Z</time></trkpt><trkpt lon="5.761119" lat="50.973629"><ele>30.4</ele><time>2022-06-26T06:57:10.000Z</time></trkpt><trkpt lon="5.761113" lat="50.973544"><ele>30.6</ele><time>2022-06-26T06:57:11.000Z</time></trkpt><trkpt lon="5.761107" lat="50.973495"><ele>30.8</ele><time>2022-06-26T06:57:12.000Z</time></trkpt><trkpt lon="5.761095" lat="50.973407"><ele>31</ele><time>2022-06-26T06:57:13.000Z</time></trkpt><trkpt lon="5.761083" lat="50.973347"><ele>31</ele><time>2022-06-26T06:57:14.000Z</time></trkpt><trkpt lon="5.76107" lat="50.973273"><ele>31.2</ele><time>2022-06-26T06:57:15.000Z</time></trkpt><trkpt lon="5.761059" lat="50.973215"><ele>31.2</ele><time>2022-06-26T06:57:16.000Z</time></trkpt><trkpt lon="5.76105" lat="50.973148"><ele>31.6</ele><time>2022-06-26T06:57:17.000Z</time></trkpt><trkpt lon="5.761042" lat="50.973097"><ele>32</ele><time>2022-06-26T06:57:18.000Z</time></trkpt><trkpt lon="5.761027" lat="50.973014"><ele>32.2</ele><time>2022-06-26T06:57:19.000Z</time></trkpt><trkpt lon="5.761017" lat="50.972958"><ele>32.6</ele><time>2022-06-26T06:57:20.000Z</time></trkpt><trkpt lon="5.761007" lat="50.97288"><ele>32.8</ele><time>2022-06-26T06:57:21.000Z</time></trkpt><trkpt lon="5.761" lat="50.972832"><ele>33</ele><time>2022-06-26T06:57:22.000Z</time></trkpt><trkpt lon="5.760992" lat="50.972746"><ele>33.2</ele><time>2022-06-26T06:57:23.000Z</time></trkpt><trkpt lon="5.760988" lat="50.972687"><ele>33.4</ele><time>2022-06-26T06:57:24.000Z</time></trkpt><trkpt lon="5.760985" lat="50.972617"><ele>33.6</ele><time>2022-06-26T06:57:25.000Z</time></trkpt><trkpt lon="5.760983" lat="50.972575"><ele>33.6</ele><time>2022-06-26T06:57:26.000Z</time></trkpt><trkpt lon="5.76098" lat="50.972494"><ele>33.8</ele><time>2022-06-26T06:57:27.000Z</time></trkpt><trkpt lon="5.760975" lat="50.972438"><ele>34</ele><time>2022-06-26T06:57:28.000Z</time></trkpt><trkpt lon="5.760968" lat="50.972369"><ele>34</ele><time>2022-06-26T06:57:29.000Z</time></trkpt><trkpt lon="5.76096" lat="50.97232"><ele>34</ele><time>2022-06-26T06:57:30.000Z</time></trkpt><trkpt lon="5.760948" lat="50.972239"><ele>33.8</ele><time>2022-06-26T06:57:31.000Z</time></trkpt><trkpt lon="5.760933" lat="50.972177"><ele>33.8</ele><time>2022-06-26T06:57:32.000Z</time></trkpt><trkpt lon="5.760909" lat="50.972106"><ele>33.8</ele><time>2022-06-26T06:57:33.000Z</time></trkpt><trkpt lon="5.760891" lat="50.972062"><ele>34</ele><time>2022-06-26T06:57:34.000Z</time></trkpt><trkpt lon="5.760844" lat="50.97198"><ele>34.2</ele><time>2022-06-26T06:57:35.000Z</time></trkpt><trkpt lon="5.760812" lat="50.971925"><ele>34.2</ele><time>2022-06-26T06:57:36.000Z</time></trkpt><trkpt lon="5.760767" lat="50.97186"><ele>34.4</ele><time>2022-06-26T06:57:37.000Z</time></trkpt><trkpt lon="5.760734" lat="50.971809"><ele>34.4</ele><time>2022-06-26T06:57:38.000Z</time></trkpt><trkpt lon="5.760688" lat="50.971732"><ele>34.6</ele><time>2022-06-26T06:57:39.000Z</time></trkpt><trkpt lon="5.760667" lat="50.971689"><ele>34.6</ele><time>2022-06-26T06:57:40.000Z</time></trkpt><trkpt lon="5.760631" lat="50.971606"><ele>34.6</ele><time>2022-06-26T06:57:41.000Z</time></trkpt><trkpt lon="5.760616" lat="50.97156"><ele>34.6</ele><time>2022-06-26T06:57:42.000Z</time></trkpt><trkpt lon="5.760591" lat="50.971476"><ele>34.6</ele><time>2022-06-26T06:57:43.000Z</time></trkpt><trkpt lon="5.760574" lat="50.971431"><ele>34.6</ele><time>2022-06-26T06:57:44.000Z</time></trkpt><trkpt lon="5.76054" lat="50.971346"><ele>34.6</ele><time>2022-06-26T06:57:45.000Z</time></trkpt><trkpt lon="5.760508" lat="50.971298"><ele>34.6</ele><time>2022-06-26T06:57:46.000Z</time></trkpt><trkpt lon="5.760445" lat="50.971228"><ele>34.6</ele><time>2022-06-26T06:57:47.000Z</time></trkpt><trkpt lon="5.76039" lat="50.971188"><ele>34.4</ele><time>2022-06-26T06:57:48.000Z</time></trkpt><trkpt lon="5.760316" lat="50.971126"><ele>34.4</ele><time>2022-06-26T06:57:49.000Z</time></trkpt><trkpt lon="5.760265" lat="50.971092"><ele>34.6</ele><time>2022-06-26T06:57:50.000Z</time></trkpt><trkpt lon="5.760184" lat="50.971034"><ele>34.6</ele><time>2022-06-26T06:57:51.000Z</time></trkpt><trkpt lon="5.760131" lat="50.971004"><ele>34.4</ele><time>2022-06-26T06:57:52.000Z</time></trkpt><trkpt lon="5.760048" lat="50.970955"><ele>34.2</ele><time>2022-06-26T06:57:53.000Z</time></trkpt><trkpt lon="5.759997" lat="50.97093"><ele>34</ele><time>2022-06-26T06:57:54.000Z</time></trkpt><trkpt lon="5.759884" lat="50.970878"><ele>33.6</ele><time>2022-06-26T06:57:55.000Z</time></trkpt><trkpt lon="5.75981" lat="50.970849"><ele>33</ele><time>2022-06-26T06:57:56.000Z</time></trkpt><trkpt lon="5.759689" lat="50.970805"><ele>32.6</ele><time>2022-06-26T06:57:57.000Z</time></trkpt><trkpt lon="5.759598" lat="50.970776"><ele>32.2</ele><time>2022-06-26T06:57:58.000Z</time></trkpt><trkpt lon="5.759483" lat="50.970733"><ele>31.8</ele><time>2022-06-26T06:57:59.000Z</time></trkpt><trkpt lon="5.759408" lat="50.970709"><ele>31.4</ele><time>2022-06-26T06:58:00.000Z</time></trkpt><trkpt lon="5.75927" lat="50.970653"><ele>30.4</ele><time>2022-06-26T06:58:01.000Z</time></trkpt><trkpt lon="5.759203" lat="50.970613"><ele>30.2</ele><time>2022-06-26T06:58:02.000Z</time></trkpt><trkpt lon="5.759098" lat="50.970538"><ele>29.4</ele><time>2022-06-26T06:58:03.000Z</time></trkpt><trkpt lon="5.759049" lat="50.970487"><ele>29.2</ele><time>2022-06-26T06:58:04.000Z</time></trkpt><trkpt lon="5.758957" lat="50.970389"><ele>28.6</ele><time>2022-06-26T06:58:05.000Z</time></trkpt><trkpt lon="5.758915" lat="50.970336"><ele>28.2</ele><time>2022-06-26T06:58:06.000Z</time></trkpt><trkpt lon="5.758833" lat="50.970238"><ele>28</ele><time>2022-06-26T06:58:07.000Z</time></trkpt><trkpt lon="5.758795" lat="50.970189"><ele>27.8</ele><time>2022-06-26T06:58:08.000Z</time></trkpt><trkpt lon="5.758716" lat="50.970092"><ele>27.4</ele><time>2022-06-26T06:58:09.000Z</time></trkpt><trkpt lon="5.758679" lat="50.970044"><ele>27.2</ele><time>2022-06-26T06:58:10.000Z</time></trkpt><trkpt lon="5.758609" lat="50.969959"><ele>27</ele><time>2022-06-26T06:58:11.000Z</time></trkpt><trkpt lon="5.758576" lat="50.969913"><ele>27</ele><time>2022-06-26T06:58:12.000Z</time></trkpt><trkpt lon="5.758528" lat="50.969844"><ele>27</ele><time>2022-06-26T06:58:13.000Z</time></trkpt><trkpt lon="5.758502" lat="50.969814"><ele>27.2</ele><time>2022-06-26T06:58:14.000Z</time></trkpt><trkpt lon="5.758421" lat="50.969753"><ele>27</ele><time>2022-06-26T06:58:15.000Z</time></trkpt><trkpt lon="5.758364" lat="50.96974"><ele>27</ele><time>2022-06-26T06:58:16.000Z</time></trkpt><trkpt lon="5.758236" lat="50.969738"><ele>26.6</ele><time>2022-06-26T06:58:17.000Z</time></trkpt><trkpt lon="5.758159" lat="50.969751"><ele>26.6</ele><time>2022-06-26T06:58:18.000Z</time></trkpt><trkpt lon="5.758012" lat="50.96978"><ele>26.2</ele><time>2022-06-26T06:58:19.000Z</time></trkpt><trkpt lon="5.757937" lat="50.969797"><ele>25.8</ele><time>2022-06-26T06:58:20.000Z</time></trkpt><trkpt lon="5.757778" lat="50.969842"><ele>25.4</ele><time>2022-06-26T06:58:21.000Z</time></trkpt><trkpt lon="5.75771" lat="50.969865"><ele>25</ele><time>2022-06-26T06:58:22.000Z</time></trkpt><trkpt lon="5.757554" lat="50.969918"><ele>24.6</ele><time>2022-06-26T06:58:23.000Z</time></trkpt><trkpt lon="5.757473" lat="50.969944"><ele>24.2</ele><time>2022-06-26T06:58:24.000Z</time></trkpt><trkpt lon="5.757352" lat="50.969983"><ele>24</ele><time>2022-06-26T06:58:25.000Z</time></trkpt><trkpt lon="5.757289" lat="50.969998"><ele>23.8</ele><time>2022-06-26T06:58:26.000Z</time></trkpt><trkpt lon="5.757168" lat="50.970013"><ele>23.4</ele><time>2022-06-26T06:58:27.000Z</time></trkpt><trkpt lon="5.757104" lat="50.970013"><ele>23.2</ele><time>2022-06-26T06:58:28.000Z</time></trkpt><trkpt lon="5.757008" lat="50.969993"><ele>23</ele><time>2022-06-26T06:58:29.000Z</time></trkpt><trkpt lon="5.756964" lat="50.969972"><ele>23</ele><time>2022-06-26T06:58:30.000Z</time></trkpt><trkpt lon="5.756881" lat="50.969913"><ele>22.8</ele><time>2022-06-26T06:58:31.000Z</time></trkpt><trkpt lon="5.756841" lat="50.969876"><ele>22.6</ele><time>2022-06-26T06:58:32.000Z</time></trkpt><trkpt lon="5.756767" lat="50.969802"><ele>22.4</ele><time>2022-06-26T06:58:33.000Z</time></trkpt><trkpt lon="5.756731" lat="50.969765"><ele>22.4</ele><time>2022-06-26T06:58:34.000Z</time></trkpt><trkpt lon="5.756661" lat="50.969691"><ele>22.2</ele><time>2022-06-26T06:58:35.000Z</time></trkpt><trkpt lon="5.756627" lat="50.969655"><ele>22</ele><time>2022-06-26T06:58:36.000Z</time></trkpt><trkpt lon="5.756563" lat="50.969585"><ele>22</ele><time>2022-06-26T06:58:37.000Z</time></trkpt><trkpt lon="5.756532" lat="50.969549"><ele>22</ele><time>2022-06-26T06:58:38.000Z</time></trkpt><trkpt lon="5.756474" lat="50.969482"><ele>22</ele><time>2022-06-26T06:58:39.000Z</time></trkpt><trkpt lon="5.756453" lat="50.969451"><ele>22.2</ele><time>2022-06-26T06:58:40.000Z</time></trkpt><trkpt lon="5.75642" lat="50.969398"><ele>22.2</ele><time>2022-06-26T06:58:41.000Z</time></trkpt><trkpt lon="5.756409" lat="50.969381"><ele>22.2</ele><time>2022-06-26T06:58:42.000Z</time></trkpt><trkpt lon="5.756386" lat="50.969356"><ele>22.2</ele><time>2022-06-26T06:58:43.000Z</time></trkpt><trkpt lon="5.756365" lat="50.969334"><ele>22.2</ele><time>2022-06-26T06:58:50.000Z</time></trkpt><trkpt lon="5.756378" lat="50.969349"><ele>22.2</ele><time>2022-06-26T06:58:51.000Z</time></trkpt><trkpt lon="5.756394" lat="50.969372"><ele>22.4</ele><time>2022-06-26T06:58:52.000Z</time></trkpt><trkpt lon="5.75641" lat="50.969395"><ele>22.4</ele><time>2022-06-26T06:58:53.000Z</time></trkpt><trkpt lon="5.756422" lat="50.96943"><ele>22.4</ele><time>2022-06-26T06:58:54.000Z</time></trkpt><trkpt lon="5.756438" lat="50.969464"><ele>22.4</ele><time>2022-06-26T06:58:55.000Z</time></trkpt><trkpt lon="5.756438" lat="50.96951"><ele>22.6</ele><time>2022-06-26T06:58:56.000Z</time></trkpt><trkpt lon="5.756423" lat="50.969539"><ele>22.6</ele><time>2022-06-26T06:58:57.000Z</time></trkpt><trkpt lon="5.756359" lat="50.969582"><ele>22.6</ele><time>2022-06-26T06:58:58.000Z</time></trkpt><trkpt lon="5.756291" lat="50.969601"><ele>22.8</ele><time>2022-06-26T06:58:59.000Z</time></trkpt><trkpt lon="5.756235" lat="50.969611"><ele>22.8</ele><time>2022-06-26T06:59:00.000Z</time></trkpt><trkpt lon="5.756117" lat="50.969628"><ele>23</ele><time>2022-06-26T06:59:01.000Z</time></trkpt><trkpt lon="5.756049" lat="50.969641"><ele>23</ele><time>2022-06-26T06:59:02.000Z</time></trkpt><trkpt lon="5.755917" lat="50.969662"><ele>23.4</ele><time>2022-06-26T06:59:03.000Z</time></trkpt><trkpt lon="5.75585" lat="50.969672"><ele>23.4</ele><time>2022-06-26T06:59:04.000Z</time></trkpt><trkpt lon="5.755702" lat="50.969697"><ele>23.8</ele><time>2022-06-26T06:59:05.000Z</time></trkpt><trkpt lon="5.755622" lat="50.969713"><ele>24</ele><time>2022-06-26T06:59:06.000Z</time></trkpt><trkpt lon="5.755481" lat="50.969742"><ele>24.4</ele><time>2022-06-26T06:59:07.000Z</time></trkpt><trkpt lon="5.755397" lat="50.96976"><ele>24.8</ele><time>2022-06-26T06:59:08.000Z</time></trkpt><trkpt lon="5.755258" lat="50.969788"><ele>25</ele><time>2022-06-26T06:59:09.000Z</time></trkpt><trkpt lon="5.755182" lat="50.969809"><ele>25.4</ele><time>2022-06-26T06:59:10.000Z</time></trkpt><trkpt lon="5.755029" lat="50.969853"><ele>25.6</ele><time>2022-06-26T06:59:11.000Z</time></trkpt><trkpt lon="5.754943" lat="50.969879"><ele>26</ele><time>2022-06-26T06:59:12.000Z</time></trkpt><trkpt lon="5.754798" lat="50.969921"><ele>26.2</ele><time>2022-06-26T06:59:13.000Z</time></trkpt><trkpt lon="5.754729" lat="50.969947"><ele>26.4</ele><time>2022-06-26T06:59:14.000Z</time></trkpt><trkpt lon="5.754646" lat="50.969978"><ele>26.8</ele><time>2022-06-26T06:59:15.000Z</time></trkpt><trkpt lon="5.75444" lat="50.970047"><ele>27.4</ele><time>2022-06-26T06:59:16.000Z</time></trkpt><trkpt lon="5.754365" lat="50.970074"><ele>27.8</ele><time>2022-06-26T06:59:17.000Z</time></trkpt><trkpt lon="5.754204" lat="50.970124"><ele>28.2</ele><time>2022-06-26T06:59:18.000Z</time></trkpt><trkpt lon="5.754132" lat="50.970147"><ele>28.6</ele><time>2022-06-26T06:59:19.000Z</time></trkpt><trkpt lon="5.753975" lat="50.970193"><ele>29.2</ele><time>2022-06-26T06:59:20.000Z</time></trkpt><trkpt lon="5.753909" lat="50.970215"><ele>29.6</ele><time>2022-06-26T06:59:21.000Z</time></trkpt><trkpt lon="5.75376" lat="50.970261"><ele>30</ele><time>2022-06-26T06:59:22.000Z</time></trkpt><trkpt lon="5.75369" lat="50.970284"><ele>30.6</ele><time>2022-06-26T06:59:23.000Z</time></trkpt><trkpt lon="5.753558" lat="50.970326"><ele>31</ele><time>2022-06-26T06:59:24.000Z</time></trkpt><trkpt lon="5.753498" lat="50.970346"><ele>31.4</ele><time>2022-06-26T06:59:25.000Z</time></trkpt><trkpt lon="5.753381" lat="50.970379"><ele>31.8</ele><time>2022-06-26T06:59:26.000Z</time></trkpt><trkpt lon="5.753335" lat="50.970394"><ele>32.2</ele><time>2022-06-26T06:59:27.000Z</time></trkpt><trkpt lon="5.753253" lat="50.970421"><ele>32.8</ele><time>2022-06-26T06:59:28.000Z</time></trkpt><trkpt lon="5.753225" lat="50.970432"><ele>33.2</ele><time>2022-06-26T06:59:29.000Z</time></trkpt><trkpt lon="5.753176" lat="50.970444"><ele>33.6</ele><time>2022-06-26T06:59:30.000Z</time></trkpt><trkpt lon="5.753148" lat="50.97044"><ele>34</ele><time>2022-06-26T06:59:31.000Z</time></trkpt><trkpt lon="5.753128" lat="50.970425"><ele>34.2</ele><time>2022-06-26T06:59:32.000Z</time></trkpt><trkpt lon="5.753108" lat="50.970405"><ele>34.4</ele><time>2022-06-26T06:59:33.000Z</time></trkpt><trkpt lon="5.753094" lat="50.970401"><ele>34.4</ele><time>2022-06-26T06:59:34.000Z</time></trkpt><trkpt lon="5.753039" lat="50.970398"><ele>34.6</ele><time>2022-06-26T06:59:35.000Z</time></trkpt><trkpt lon="5.75299" lat="50.97041"><ele>34.8</ele><time>2022-06-26T06:59:36.000Z</time></trkpt><trkpt lon="5.752939" lat="50.970428"><ele>34.8</ele><time>2022-06-26T06:59:37.000Z</time></trkpt><trkpt lon="5.752902" lat="50.970438"><ele>35</ele><time>2022-06-26T06:59:38.000Z</time></trkpt><trkpt lon="5.752811" lat="50.970463"><ele>35.2</ele><time>2022-06-26T06:59:39.000Z</time></trkpt><trkpt lon="5.752741" lat="50.970482"><ele>35.2</ele><time>2022-06-26T06:59:40.000Z</time></trkpt><trkpt lon="5.752702" lat="50.970492"><ele>35.4</ele><time>2022-06-26T06:59:41.000Z</time></trkpt><trkpt lon="5.752597" lat="50.970528"><ele>35.6</ele><time>2022-06-26T06:59:42.000Z</time></trkpt><trkpt lon="5.752549" lat="50.970548"><ele>35.6</ele><time>2022-06-26T06:59:43.000Z</time></trkpt><trkpt lon="5.752439" lat="50.970593"><ele>35.8</ele><time>2022-06-26T06:59:44.000Z</time></trkpt><trkpt lon="5.752385" lat="50.970612"><ele>36</ele><time>2022-06-26T06:59:45.000Z</time></trkpt><trkpt lon="5.752264" lat="50.970654"><ele>36.2</ele><time>2022-06-26T06:59:46.000Z</time></trkpt><trkpt lon="5.752216" lat="50.97067"><ele>36.2</ele><time>2022-06-26T06:59:47.000Z</time></trkpt><trkpt lon="5.752081" lat="50.970715"><ele>36.4</ele><time>2022-06-26T06:59:48.000Z</time></trkpt><trkpt lon="5.75202" lat="50.970735"><ele>36.4</ele><time>2022-06-26T06:59:49.000Z</time></trkpt><trkpt lon="5.751894" lat="50.97078"><ele>36.6</ele><time>2022-06-26T06:59:50.000Z</time></trkpt><trkpt lon="5.751843" lat="50.970797"><ele>36.6</ele><time>2022-06-26T06:59:51.000Z</time></trkpt><trkpt lon="5.751731" lat="50.970831"><ele>36.6</ele><time>2022-06-26T06:59:52.000Z</time></trkpt><trkpt lon="5.751666" lat="50.970852"><ele>36.6</ele><time>2022-06-26T06:59:53.000Z</time></trkpt><trkpt lon="5.751548" lat="50.970883"><ele>36.6</ele><time>2022-06-26T06:59:54.000Z</time></trkpt><trkpt lon="5.751502" lat="50.970889"><ele>36.6</ele><time>2022-06-26T06:59:55.000Z</time></trkpt><trkpt lon="5.751398" lat="50.970894"><ele>36.6</ele><time>2022-06-26T06:59:56.000Z</time></trkpt><trkpt lon="5.751356" lat="50.970884"><ele>36.6</ele><time>2022-06-26T06:59:57.000Z</time></trkpt><trkpt lon="5.751276" lat="50.970848"><ele>36.4</ele><time>2022-06-26T06:59:58.000Z</time></trkpt><trkpt lon="5.751252" lat="50.97082"><ele>36.4</ele><time>2022-06-26T06:59:59.000Z</time></trkpt><trkpt lon="5.75119" lat="50.970745"><ele>36.2</ele><time>2022-06-26T07:00:00.000Z</time></trkpt><trkpt lon="5.751165" lat="50.970717"><ele>36</ele><time>2022-06-26T07:00:01.000Z</time></trkpt><trkpt lon="5.751134" lat="50.97068"><ele>35.8</ele><time>2022-06-26T07:00:02.000Z</time></trkpt><trkpt lon="5.751045" lat="50.970572"><ele>35.8</ele><time>2022-06-26T07:00:03.000Z</time></trkpt><trkpt lon="5.750999" lat="50.970507"><ele>35.6</ele><time>2022-06-26T07:00:04.000Z</time></trkpt><trkpt lon="5.750952" lat="50.970442"><ele>35.6</ele><time>2022-06-26T07:00:05.000Z</time></trkpt><trkpt lon="5.750905" lat="50.970377"><ele>35.4</ele><time>2022-06-26T07:00:06.000Z</time></trkpt><trkpt lon="5.750856" lat="50.970305"><ele>35</ele><time>2022-06-26T07:00:07.000Z</time></trkpt><trkpt lon="5.750806" lat="50.970232"><ele>34.8</ele><time>2022-06-26T07:00:08.000Z</time></trkpt><trkpt lon="5.750745" lat="50.970159"><ele>34.6</ele><time>2022-06-26T07:00:09.000Z</time></trkpt><trkpt lon="5.750685" lat="50.970091"><ele>34.4</ele><time>2022-06-26T07:00:10.000Z</time></trkpt><trkpt lon="5.750623" lat="50.970019"><ele>34.2</ele><time>2022-06-26T07:00:11.000Z</time></trkpt><trkpt lon="5.750562" lat="50.969946"><ele>33.8</ele><time>2022-06-26T07:00:12.000Z</time></trkpt><trkpt lon="5.7505" lat="50.969872"><ele>33.6</ele><time>2022-06-26T07:00:13.000Z</time></trkpt><trkpt lon="5.750439" lat="50.969798"><ele>33.4</ele><time>2022-06-26T07:00:14.000Z</time></trkpt><trkpt lon="5.750381" lat="50.969725"><ele>33.4</ele><time>2022-06-26T07:00:15.000Z</time></trkpt><trkpt lon="5.750322" lat="50.969648"><ele>33</ele><time>2022-06-26T07:00:16.000Z</time></trkpt><trkpt lon="5.750264" lat="50.969572"><ele>32.6</ele><time>2022-06-26T07:00:17.000Z</time></trkpt><trkpt lon="5.750201" lat="50.9695"><ele>32.4</ele><time>2022-06-26T07:00:18.000Z</time></trkpt><trkpt lon="5.750143" lat="50.969428"><ele>32.2</ele><time>2022-06-26T07:00:19.000Z</time></trkpt><trkpt lon="5.750085" lat="50.969356"><ele>31.8</ele><time>2022-06-26T07:00:20.000Z</time></trkpt><trkpt lon="5.750031" lat="50.969291"><ele>31.6</ele><time>2022-06-26T07:00:21.000Z</time></trkpt><trkpt lon="5.74998" lat="50.969225"><ele>31.4</ele><time>2022-06-26T07:00:22.000Z</time></trkpt><trkpt lon="5.749932" lat="50.969165"><ele>31.2</ele><time>2022-06-26T07:00:23.000Z</time></trkpt><trkpt lon="5.749885" lat="50.969103"><ele>31.2</ele><time>2022-06-26T07:00:24.000Z</time></trkpt><trkpt lon="5.749841" lat="50.969048"><ele>31</ele><time>2022-06-26T07:00:25.000Z</time></trkpt><trkpt lon="5.749797" lat="50.968993"><ele>31</ele><time>2022-06-26T07:00:26.000Z</time></trkpt><trkpt lon="5.749761" lat="50.96894"><ele>30.8</ele><time>2022-06-26T07:00:27.000Z</time></trkpt><trkpt lon="5.749729" lat="50.96889"><ele>30.6</ele><time>2022-06-26T07:00:28.000Z</time></trkpt><trkpt lon="5.749705" lat="50.968848"><ele>30.6</ele><time>2022-06-26T07:00:29.000Z</time></trkpt><trkpt lon="5.749704" lat="50.968811"><ele>30.6</ele><time>2022-06-26T07:00:30.000Z</time></trkpt><trkpt lon="5.749723" lat="50.96878"><ele>30.6</ele><time>2022-06-26T07:00:31.000Z</time></trkpt><trkpt lon="5.749741" lat="50.968741"><ele>30.6</ele><time>2022-06-26T07:00:32.000Z</time></trkpt><trkpt lon="5.749736" lat="50.9687"><ele>30.6</ele><time>2022-06-26T07:00:33.000Z</time></trkpt><trkpt lon="5.749708" lat="50.968658"><ele>30.8</ele><time>2022-06-26T07:00:34.000Z</time></trkpt><trkpt lon="5.749678" lat="50.968608"><ele>30.8</ele><time>2022-06-26T07:00:35.000Z</time></trkpt><trkpt lon="5.749639" lat="50.968551"><ele>30.8</ele><time>2022-06-26T07:00:36.000Z</time></trkpt><trkpt lon="5.749598" lat="50.968493"><ele>30.8</ele><time>2022-06-26T07:00:37.000Z</time></trkpt><trkpt lon="5.749555" lat="50.968433"><ele>30.8</ele><time>2022-06-26T07:00:38.000Z</time></trkpt><trkpt lon="5.749514" lat="50.968367"><ele>30.8</ele><time>2022-06-26T07:00:39.000Z</time></trkpt><trkpt lon="5.749474" lat="50.968302"><ele>30.8</ele><time>2022-06-26T07:00:40.000Z</time></trkpt><trkpt lon="5.749436" lat="50.968238"><ele>30.6</ele><time>2022-06-26T07:00:41.000Z</time></trkpt><trkpt lon="5.749397" lat="50.968172"><ele>30.6</ele><time>2022-06-26T07:00:42.000Z</time></trkpt><trkpt lon="5.749364" lat="50.968104"><ele>30.6</ele><time>2022-06-26T07:00:43.000Z</time></trkpt><trkpt lon="5.749331" lat="50.968035"><ele>30.6</ele><time>2022-06-26T07:00:44.000Z</time></trkpt><trkpt lon="5.749294" lat="50.967963"><ele>30.6</ele><time>2022-06-26T07:00:45.000Z</time></trkpt><trkpt lon="5.749258" lat="50.967894"><ele>30.4</ele><time>2022-06-26T07:00:46.000Z</time></trkpt><trkpt lon="5.749223" lat="50.967827"><ele>30.4</ele><time>2022-06-26T07:00:47.000Z</time></trkpt><trkpt lon="5.749189" lat="50.967757"><ele>30.2</ele><time>2022-06-26T07:00:48.000Z</time></trkpt><trkpt lon="5.749159" lat="50.967692"><ele>30.2</ele><time>2022-06-26T07:00:49.000Z</time></trkpt><trkpt lon="5.74913" lat="50.967628"><ele>30.2</ele><time>2022-06-26T07:00:50.000Z</time></trkpt><trkpt lon="5.749103" lat="50.967559"><ele>30</ele><time>2022-06-26T07:00:51.000Z</time></trkpt><trkpt lon="5.749074" lat="50.967494"><ele>30</ele><time>2022-06-26T07:00:52.000Z</time></trkpt><trkpt lon="5.74905" lat="50.967428"><ele>29.8</ele><time>2022-06-26T07:00:53.000Z</time></trkpt><trkpt lon="5.749026" lat="50.967361"><ele>29.8</ele><time>2022-06-26T07:00:54.000Z</time></trkpt><trkpt lon="5.749001" lat="50.967296"><ele>29.8</ele><time>2022-06-26T07:00:55.000Z</time></trkpt><trkpt lon="5.74898" lat="50.967226"><ele>29.8</ele><time>2022-06-26T07:00:56.000Z</time></trkpt><trkpt lon="5.748958" lat="50.967154"><ele>29.6</ele><time>2022-06-26T07:00:57.000Z</time></trkpt><trkpt lon="5.748938" lat="50.967085"><ele>29.6</ele><time>2022-06-26T07:00:58.000Z</time></trkpt><trkpt lon="5.748916" lat="50.967017"><ele>29.6</ele><time>2022-06-26T07:00:59.000Z</time></trkpt><trkpt lon="5.74889" lat="50.966949"><ele>29.6</ele><time>2022-06-26T07:01:00.000Z</time></trkpt><trkpt lon="5.748873" lat="50.96688"><ele>29.6</ele><time>2022-06-26T07:01:01.000Z</time></trkpt><trkpt lon="5.748858" lat="50.966807"><ele>29.6</ele><time>2022-06-26T07:01:02.000Z</time></trkpt><trkpt lon="5.748846" lat="50.966738"><ele>29.6</ele><time>2022-06-26T07:01:03.000Z</time></trkpt><trkpt lon="5.748835" lat="50.966671"><ele>29.6</ele><time>2022-06-26T07:01:04.000Z</time></trkpt><trkpt lon="5.748827" lat="50.966602"><ele>29.6</ele><time>2022-06-26T07:01:05.000Z</time></trkpt><trkpt lon="5.74882" lat="50.966528"><ele>29.4</ele><time>2022-06-26T07:01:06.000Z</time></trkpt><trkpt lon="5.748812" lat="50.966456"><ele>29.4</ele><time>2022-06-26T07:01:07.000Z</time></trkpt><trkpt lon="5.748806" lat="50.966384"><ele>29.4</ele><time>2022-06-26T07:01:08.000Z</time></trkpt><trkpt lon="5.7488" lat="50.966307"><ele>29.2</ele><time>2022-06-26T07:01:09.000Z</time></trkpt><trkpt lon="5.748798" lat="50.966238"><ele>29.2</ele><time>2022-06-26T07:01:10.000Z</time></trkpt><trkpt lon="5.748798" lat="50.966167"><ele>29.2</ele><time>2022-06-26T07:01:11.000Z</time></trkpt><trkpt lon="5.7488" lat="50.966097"><ele>29.2</ele><time>2022-06-26T07:01:12.000Z</time></trkpt><trkpt lon="5.748802" lat="50.966028"><ele>29.2</ele><time>2022-06-26T07:01:13.000Z</time></trkpt><trkpt lon="5.748805" lat="50.965956"><ele>29.2</ele><time>2022-06-26T07:01:14.000Z</time></trkpt><trkpt lon="5.74881" lat="50.965887"><ele>29.2</ele><time>2022-06-26T07:01:15.000Z</time></trkpt><trkpt lon="5.748812" lat="50.965815"><ele>29</ele><time>2022-06-26T07:01:16.000Z</time></trkpt><trkpt lon="5.748817" lat="50.965743"><ele>29</ele><time>2022-06-26T07:01:17.000Z</time></trkpt><trkpt lon="5.748825" lat="50.96567"><ele>28.8</ele><time>2022-06-26T07:01:18.000Z</time></trkpt><trkpt lon="5.748835" lat="50.9656"><ele>28.8</ele><time>2022-06-26T07:01:19.000Z</time></trkpt><trkpt lon="5.748845" lat="50.965529"><ele>28.8</ele><time>2022-06-26T07:01:20.000Z</time></trkpt><trkpt lon="5.74886" lat="50.96546"><ele>28.8</ele><time>2022-06-26T07:01:21.000Z</time></trkpt><trkpt lon="5.748874" lat="50.965388"><ele>28.8</ele><time>2022-06-26T07:01:22.000Z</time></trkpt><trkpt lon="5.74889" lat="50.965316"><ele>28.8</ele><time>2022-06-26T07:01:23.000Z</time></trkpt><trkpt lon="5.748909" lat="50.965244"><ele>28.6</ele><time>2022-06-26T07:01:24.000Z</time></trkpt><trkpt lon="5.748927" lat="50.96517"><ele>28.6</ele><time>2022-06-26T07:01:25.000Z</time></trkpt><trkpt lon="5.748947" lat="50.965098"><ele>28.4</ele><time>2022-06-26T07:01:26.000Z</time></trkpt><trkpt lon="5.748969" lat="50.965025"><ele>28.2</ele><time>2022-06-26T07:01:27.000Z</time></trkpt><trkpt lon="5.748992" lat="50.964956"><ele>28.2</ele><time>2022-06-26T07:01:28.000Z</time></trkpt><trkpt lon="5.749017" lat="50.964888"><ele>28.2</ele><time>2022-06-26T07:01:29.000Z</time></trkpt><trkpt lon="5.749042" lat="50.96482"><ele>28.2</ele><time>2022-06-26T07:01:30.000Z</time></trkpt><trkpt lon="5.749072" lat="50.964751"><ele>28</ele><time>2022-06-26T07:01:31.000Z</time></trkpt><trkpt lon="5.749101" lat="50.964682"><ele>28.2</ele><time>2022-06-26T07:01:32.000Z</time></trkpt><trkpt lon="5.749133" lat="50.964613"><ele>28.2</ele><time>2022-06-26T07:01:33.000Z</time></trkpt><trkpt lon="5.749164" lat="50.964541"><ele>28.4</ele><time>2022-06-26T07:01:34.000Z</time></trkpt><trkpt lon="5.749199" lat="50.964472"><ele>28.6</ele><time>2022-06-26T07:01:35.000Z</time></trkpt><trkpt lon="5.749234" lat="50.964403"><ele>28.6</ele><time>2022-06-26T07:01:36.000Z</time></trkpt><trkpt lon="5.74927" lat="50.964334"><ele>28.8</ele><time>2022-06-26T07:01:37.000Z</time></trkpt><trkpt lon="5.749306" lat="50.964262"><ele>29.2</ele><time>2022-06-26T07:01:38.000Z</time></trkpt><trkpt lon="5.749345" lat="50.964193"><ele>29.2</ele><time>2022-06-26T07:01:39.000Z</time></trkpt><trkpt lon="5.749385" lat="50.964125"><ele>29.4</ele><time>2022-06-26T07:01:40.000Z</time></trkpt><trkpt lon="5.749424" lat="50.96406"><ele>29.8</ele><time>2022-06-26T07:01:41.000Z</time></trkpt><trkpt lon="5.749468" lat="50.963991"><ele>29.8</ele><time>2022-06-26T07:01:42.000Z</time></trkpt><trkpt lon="5.749511" lat="50.963927"><ele>29.8</ele><time>2022-06-26T07:01:43.000Z</time></trkpt><trkpt lon="5.749556" lat="50.963858"><ele>29.8</ele><time>2022-06-26T07:01:44.000Z</time></trkpt><trkpt lon="5.749599" lat="50.963792"><ele>29.8</ele><time>2022-06-26T07:01:45.000Z</time></trkpt><trkpt lon="5.749648" lat="50.963721"><ele>29.6</ele><time>2022-06-26T07:01:46.000Z</time></trkpt><trkpt lon="5.749696" lat="50.963656"><ele>29.6</ele><time>2022-06-26T07:01:47.000Z</time></trkpt><trkpt lon="5.749748" lat="50.963587"><ele>29.6</ele><time>2022-06-26T07:01:48.000Z</time></trkpt><trkpt lon="5.749798" lat="50.963523"><ele>29.6</ele><time>2022-06-26T07:01:49.000Z</time></trkpt><trkpt lon="5.749851" lat="50.963454"><ele>29.6</ele><time>2022-06-26T07:01:50.000Z</time></trkpt><trkpt lon="5.749904" lat="50.96339"><ele>29.6</ele><time>2022-06-26T07:01:51.000Z</time></trkpt><trkpt lon="5.749958" lat="50.963324"><ele>29.8</ele><time>2022-06-26T07:01:52.000Z</time></trkpt><trkpt lon="5.750016" lat="50.963263"><ele>29.6</ele><time>2022-06-26T07:01:53.000Z</time></trkpt><trkpt lon="5.750075" lat="50.963198"><ele>29.6</ele><time>2022-06-26T07:01:54.000Z</time></trkpt><trkpt lon="5.750136" lat="50.963134"><ele>29.6</ele><time>2022-06-26T07:01:55.000Z</time></trkpt><trkpt lon="5.750197" lat="50.963072"><ele>29.6</ele><time>2022-06-26T07:01:56.000Z</time></trkpt><trkpt lon="5.75026" lat="50.963011"><ele>29.8</ele><time>2022-06-26T07:01:57.000Z</time></trkpt><trkpt lon="5.750323" lat="50.96295"><ele>29.6</ele><time>2022-06-26T07:01:58.000Z</time></trkpt><trkpt lon="5.750385" lat="50.962894"><ele>29.6</ele><time>2022-06-26T07:01:59.000Z</time></trkpt><trkpt lon="5.750437" lat="50.962832"><ele>29.6</ele><time>2022-06-26T07:02:00.000Z</time></trkpt><trkpt lon="5.75047" lat="50.962772"><ele>29.6</ele><time>2022-06-26T07:02:01.000Z</time></trkpt><trkpt lon="5.750503" lat="50.96271"><ele>29.6</ele><time>2022-06-26T07:02:02.000Z</time></trkpt><trkpt lon="5.750553" lat="50.962649"><ele>29.6</ele><time>2022-06-26T07:02:03.000Z</time></trkpt><trkpt lon="5.750619" lat="50.962596"><ele>29.6</ele><time>2022-06-26T07:02:04.000Z</time></trkpt><trkpt lon="5.750697" lat="50.962547"><ele>29.6</ele><time>2022-06-26T07:02:05.000Z</time></trkpt><trkpt lon="5.750779" lat="50.962496"><ele>29.6</ele><time>2022-06-26T07:02:06.000Z</time></trkpt><trkpt lon="5.750865" lat="50.962447"><ele>29.6</ele><time>2022-06-26T07:02:07.000Z</time></trkpt><trkpt lon="5.75095" lat="50.962397"><ele>29.4</ele><time>2022-06-26T07:02:08.000Z</time></trkpt><trkpt lon="5.751038" lat="50.962343"><ele>29.4</ele><time>2022-06-26T07:02:09.000Z</time></trkpt><trkpt lon="5.751122" lat="50.96229"><ele>29.4</ele><time>2022-06-26T07:02:10.000Z</time></trkpt><trkpt lon="5.751204" lat="50.962238"><ele>29.4</ele><time>2022-06-26T07:02:11.000Z</time></trkpt><trkpt lon="5.751285" lat="50.962184"><ele>29.4</ele><time>2022-06-26T07:02:12.000Z</time></trkpt><trkpt lon="5.751363" lat="50.962131"><ele>29.6</ele><time>2022-06-26T07:02:13.000Z</time></trkpt><trkpt lon="5.75144" lat="50.962081"><ele>29.8</ele><time>2022-06-26T07:02:14.000Z</time></trkpt><trkpt lon="5.751511" lat="50.962034"><ele>29.8</ele><time>2022-06-26T07:02:15.000Z</time></trkpt><trkpt lon="5.751588" lat="50.961978"><ele>29.8</ele><time>2022-06-26T07:02:16.000Z</time></trkpt><trkpt lon="5.751665" lat="50.961925"><ele>29.8</ele><time>2022-06-26T07:02:17.000Z</time></trkpt><trkpt lon="5.751741" lat="50.961872"><ele>29.8</ele><time>2022-06-26T07:02:18.000Z</time></trkpt><trkpt lon="5.751819" lat="50.961817"><ele>30</ele><time>2022-06-26T07:02:19.000Z</time></trkpt><trkpt lon="5.751896" lat="50.961768"><ele>30</ele><time>2022-06-26T07:02:20.000Z</time></trkpt><trkpt lon="5.751974" lat="50.961714"><ele>30</ele><time>2022-06-26T07:02:21.000Z</time></trkpt><trkpt lon="5.752051" lat="50.961662"><ele>30</ele><time>2022-06-26T07:02:22.000Z</time></trkpt><trkpt lon="5.752131" lat="50.961604"><ele>30</ele><time>2022-06-26T07:02:23.000Z</time></trkpt><trkpt lon="5.752208" lat="50.961551"><ele>30</ele><time>2022-06-26T07:02:24.000Z</time></trkpt><trkpt lon="5.752285" lat="50.961498"><ele>30</ele><time>2022-06-26T07:02:25.000Z</time></trkpt><trkpt lon="5.752364" lat="50.961444"><ele>30</ele><time>2022-06-26T07:02:26.000Z</time></trkpt><trkpt lon="5.752441" lat="50.961391"><ele>30</ele><time>2022-06-26T07:02:27.000Z</time></trkpt><trkpt lon="5.752519" lat="50.961337"><ele>29.8</ele><time>2022-06-26T07:02:28.000Z</time></trkpt><trkpt lon="5.752595" lat="50.961284"><ele>29.6</ele><time>2022-06-26T07:02:29.000Z</time></trkpt><trkpt lon="5.752672" lat="50.961231"><ele>29.6</ele><time>2022-06-26T07:02:30.000Z</time></trkpt><trkpt lon="5.752743" lat="50.96118"><ele>29.6</ele><time>2022-06-26T07:02:31.000Z</time></trkpt><trkpt lon="5.752824" lat="50.961127"><ele>29.8</ele><time>2022-06-26T07:02:32.000Z</time></trkpt><trkpt lon="5.752899" lat="50.961075"><ele>29.8</ele><time>2022-06-26T07:02:33.000Z</time></trkpt><trkpt lon="5.752975" lat="50.96102"><ele>29.6</ele><time>2022-06-26T07:02:34.000Z</time></trkpt><trkpt lon="5.75305" lat="50.960967"><ele>29.8</ele><time>2022-06-26T07:02:35.000Z</time></trkpt><trkpt lon="5.753125" lat="50.960917"><ele>29.8</ele><time>2022-06-26T07:02:36.000Z</time></trkpt><trkpt lon="5.7532" lat="50.960864"><ele>29.8</ele><time>2022-06-26T07:02:37.000Z</time></trkpt><trkpt lon="5.753274" lat="50.960812"><ele>29.8</ele><time>2022-06-26T07:02:38.000Z</time></trkpt><trkpt lon="5.753354" lat="50.960757"><ele>29.8</ele><time>2022-06-26T07:02:39.000Z</time></trkpt><trkpt lon="5.753429" lat="50.960703"><ele>29.8</ele><time>2022-06-26T07:02:40.000Z</time></trkpt><trkpt lon="5.753507" lat="50.960646"><ele>30</ele><time>2022-06-26T07:02:41.000Z</time></trkpt><trkpt lon="5.753583" lat="50.960593"><ele>30</ele><time>2022-06-26T07:02:42.000Z</time></trkpt><trkpt lon="5.753659" lat="50.960542"><ele>30</ele><time>2022-06-26T07:02:43.000Z</time></trkpt><trkpt lon="5.753738" lat="50.960486"><ele>30</ele><time>2022-06-26T07:02:44.000Z</time></trkpt><trkpt lon="5.753809" lat="50.960433"><ele>30</ele><time>2022-06-26T07:02:45.000Z</time></trkpt><trkpt lon="5.753893" lat="50.960375"><ele>30</ele><time>2022-06-26T07:02:46.000Z</time></trkpt><trkpt lon="5.753971" lat="50.960323"><ele>30</ele><time>2022-06-26T07:02:47.000Z</time></trkpt><trkpt lon="5.754048" lat="50.960269"><ele>30</ele><time>2022-06-26T07:02:48.000Z</time></trkpt><trkpt lon="5.754124" lat="50.960216"><ele>30</ele><time>2022-06-26T07:02:49.000Z</time></trkpt><trkpt lon="5.754202" lat="50.960162"><ele>30</ele><time>2022-06-26T07:02:50.000Z</time></trkpt><trkpt lon="5.754279" lat="50.960108"><ele>30</ele><time>2022-06-26T07:02:51.000Z</time></trkpt><trkpt lon="5.754357" lat="50.960055"><ele>30</ele><time>2022-06-26T07:02:52.000Z</time></trkpt><trkpt lon="5.754434" lat="50.960001"><ele>30</ele><time>2022-06-26T07:02:53.000Z</time></trkpt><trkpt lon="5.75451" lat="50.959948"><ele>29.8</ele><time>2022-06-26T07:02:54.000Z</time></trkpt><trkpt lon="5.754586" lat="50.959895"><ele>29.8</ele><time>2022-06-26T07:02:55.000Z</time></trkpt><trkpt lon="5.754662" lat="50.959841"><ele>29.8</ele><time>2022-06-26T07:02:56.000Z</time></trkpt><trkpt lon="5.754738" lat="50.959788"><ele>30</ele><time>2022-06-26T07:02:57.000Z</time></trkpt><trkpt lon="5.754813" lat="50.959735"><ele>30</ele><time>2022-06-26T07:02:58.000Z</time></trkpt><trkpt lon="5.754885" lat="50.959685"><ele>30</ele><time>2022-06-26T07:02:59.000Z</time></trkpt><trkpt lon="5.754969" lat="50.959628"><ele>29.8</ele><time>2022-06-26T07:03:00.000Z</time></trkpt><trkpt lon="5.755047" lat="50.959574"><ele>29.8</ele><time>2022-06-26T07:03:01.000Z</time></trkpt><trkpt lon="5.755124" lat="50.959517"><ele>29.8</ele><time>2022-06-26T07:03:02.000Z</time></trkpt><trkpt lon="5.755202" lat="50.959468"><ele>29.8</ele><time>2022-06-26T07:03:03.000Z</time></trkpt><trkpt lon="5.755278" lat="50.959415"><ele>29.8</ele><time>2022-06-26T07:03:04.000Z</time></trkpt><trkpt lon="5.755343" lat="50.959369"><ele>29.8</ele><time>2022-06-26T07:03:05.000Z</time></trkpt><trkpt lon="5.755431" lat="50.959312"><ele>29.6</ele><time>2022-06-26T07:03:06.000Z</time></trkpt><trkpt lon="5.755511" lat="50.959261"><ele>29.6</ele><time>2022-06-26T07:03:07.000Z</time></trkpt><trkpt lon="5.755587" lat="50.959212"><ele>29.6</ele><time>2022-06-26T07:03:08.000Z</time></trkpt><trkpt lon="5.755654" lat="50.959173"><ele>29.4</ele><time>2022-06-26T07:03:09.000Z</time></trkpt><trkpt lon="5.75573" lat="50.959124"><ele>29</ele><time>2022-06-26T07:03:10.000Z</time></trkpt><trkpt lon="5.755797" lat="50.959083"><ele>29</ele><time>2022-06-26T07:03:11.000Z</time></trkpt><trkpt lon="5.755862" lat="50.959037"><ele>28.8</ele><time>2022-06-26T07:03:12.000Z</time></trkpt><trkpt lon="5.755917" lat="50.958998"><ele>28.8</ele><time>2022-06-26T07:03:13.000Z</time></trkpt><trkpt lon="5.755963" lat="50.958961"><ele>29</ele><time>2022-06-26T07:03:14.000Z</time></trkpt><trkpt lon="5.756008" lat="50.958932"><ele>29</ele><time>2022-06-26T07:03:15.000Z</time></trkpt><trkpt lon="5.756078" lat="50.958888"><ele>29</ele><time>2022-06-26T07:03:16.000Z</time></trkpt><trkpt lon="5.756135" lat="50.958854"><ele>29</ele><time>2022-06-26T07:03:17.000Z</time></trkpt><trkpt lon="5.756191" lat="50.958816"><ele>29</ele><time>2022-06-26T07:03:18.000Z</time></trkpt><trkpt lon="5.75624" lat="50.958783"><ele>28.8</ele><time>2022-06-26T07:03:19.000Z</time></trkpt><trkpt lon="5.756287" lat="50.958747"><ele>28.6</ele><time>2022-06-26T07:03:20.000Z</time></trkpt><trkpt lon="5.756318" lat="50.958716"><ele>28.4</ele><time>2022-06-26T07:03:21.000Z</time></trkpt><trkpt lon="5.75635" lat="50.958667"><ele>28.2</ele><time>2022-06-26T07:03:22.000Z</time></trkpt><trkpt lon="5.756367" lat="50.958632"><ele>28</ele><time>2022-06-26T07:03:23.000Z</time></trkpt><trkpt lon="5.756384" lat="50.958591"><ele>27.8</ele><time>2022-06-26T07:03:24.000Z</time></trkpt><trkpt lon="5.756413" lat="50.958546"><ele>27.6</ele><time>2022-06-26T07:03:25.000Z</time></trkpt><trkpt lon="5.756453" lat="50.958503"><ele>27.4</ele><time>2022-06-26T07:03:26.000Z</time></trkpt><trkpt lon="5.756508" lat="50.958461"><ele>27.2</ele><time>2022-06-26T07:03:27.000Z</time></trkpt><trkpt lon="5.756572" lat="50.95843"><ele>27.2</ele><time>2022-06-26T07:03:28.000Z</time></trkpt><trkpt lon="5.75666" lat="50.958388"><ele>27.2</ele><time>2022-06-26T07:03:29.000Z</time></trkpt><trkpt lon="5.756739" lat="50.958343"><ele>27.2</ele><time>2022-06-26T07:03:30.000Z</time></trkpt><trkpt lon="5.756819" lat="50.958297"><ele>27.4</ele><time>2022-06-26T07:03:31.000Z</time></trkpt><trkpt lon="5.756885" lat="50.958251"><ele>27.4</ele><time>2022-06-26T07:03:32.000Z</time></trkpt><trkpt lon="5.756957" lat="50.958205"><ele>27.6</ele><time>2022-06-26T07:03:33.000Z</time></trkpt><trkpt lon="5.757017" lat="50.958162"><ele>27.8</ele><time>2022-06-26T07:03:34.000Z</time></trkpt><trkpt lon="5.757087" lat="50.958117"><ele>28.2</ele><time>2022-06-26T07:03:35.000Z</time></trkpt><trkpt lon="5.757152" lat="50.958068"><ele>28.4</ele><time>2022-06-26T07:03:36.000Z</time></trkpt><trkpt lon="5.757213" lat="50.958022"><ele>28.8</ele><time>2022-06-26T07:03:37.000Z</time></trkpt><trkpt lon="5.757262" lat="50.957984"><ele>29</ele><time>2022-06-26T07:03:38.000Z</time></trkpt><trkpt lon="5.757343" lat="50.957927"><ele>29.4</ele><time>2022-06-26T07:03:39.000Z</time></trkpt><trkpt lon="5.757399" lat="50.957884"><ele>29.6</ele><time>2022-06-26T07:03:40.000Z</time></trkpt><trkpt lon="5.757469" lat="50.957828"><ele>29.6</ele><time>2022-06-26T07:03:41.000Z</time></trkpt><trkpt lon="5.757534" lat="50.957773"><ele>29.8</ele><time>2022-06-26T07:03:42.000Z</time></trkpt><trkpt lon="5.757596" lat="50.957721"><ele>29.8</ele><time>2022-06-26T07:03:43.000Z</time></trkpt><trkpt lon="5.757649" lat="50.957679"><ele>30</ele><time>2022-06-26T07:03:44.000Z</time></trkpt><trkpt lon="5.757723" lat="50.957618"><ele>30.2</ele><time>2022-06-26T07:03:45.000Z</time></trkpt><trkpt lon="5.75779" lat="50.957568"><ele>30.4</ele><time>2022-06-26T07:03:46.000Z</time></trkpt><trkpt lon="5.757855" lat="50.957518"><ele>30.6</ele><time>2022-06-26T07:03:47.000Z</time></trkpt><trkpt lon="5.757915" lat="50.957469"><ele>30.8</ele><time>2022-06-26T07:03:48.000Z</time></trkpt><trkpt lon="5.757976" lat="50.957423"><ele>31</ele><time>2022-06-26T07:03:49.000Z</time></trkpt><trkpt lon="5.758026" lat="50.957385"><ele>31.2</ele><time>2022-06-26T07:03:50.000Z</time></trkpt><trkpt lon="5.758095" lat="50.957328"><ele>31.4</ele><time>2022-06-26T07:03:51.000Z</time></trkpt><trkpt lon="5.758152" lat="50.957281"><ele>31.6</ele><time>2022-06-26T07:03:52.000Z</time></trkpt><trkpt lon="5.758216" lat="50.957233"><ele>31.6</ele><time>2022-06-26T07:03:53.000Z</time></trkpt><trkpt lon="5.758272" lat="50.957183"><ele>31.6</ele><time>2022-06-26T07:03:54.000Z</time></trkpt><trkpt lon="5.75834" lat="50.957126"><ele>31.8</ele><time>2022-06-26T07:03:55.000Z</time></trkpt><trkpt lon="5.758403" lat="50.957082"><ele>31.8</ele><time>2022-06-26T07:03:56.000Z</time></trkpt><trkpt lon="5.758478" lat="50.957023"><ele>32</ele><time>2022-06-26T07:03:57.000Z</time></trkpt><trkpt lon="5.75853" lat="50.95698"><ele>32</ele><time>2022-06-26T07:03:58.000Z</time></trkpt><trkpt lon="5.758612" lat="50.956916"><ele>32</ele><time>2022-06-26T07:03:59.000Z</time></trkpt><trkpt lon="5.758674" lat="50.956873"><ele>32</ele><time>2022-06-26T07:04:00.000Z</time></trkpt><trkpt lon="5.75876" lat="50.956813"><ele>32.2</ele><time>2022-06-26T07:04:01.000Z</time></trkpt><trkpt lon="5.758832" lat="50.956759"><ele>32.2</ele><time>2022-06-26T07:04:02.000Z</time></trkpt><trkpt lon="5.758905" lat="50.956706"><ele>32.2</ele><time>2022-06-26T07:04:03.000Z</time></trkpt><trkpt lon="5.758961" lat="50.956667"><ele>32.2</ele><time>2022-06-26T07:04:04.000Z</time></trkpt><trkpt lon="5.759053" lat="50.956599"><ele>32.2</ele><time>2022-06-26T07:04:05.000Z</time></trkpt><trkpt lon="5.759103" lat="50.95656"><ele>32.2</ele><time>2022-06-26T07:04:06.000Z</time></trkpt><trkpt lon="5.759189" lat="50.956492"><ele>32.2</ele><time>2022-06-26T07:04:07.000Z</time></trkpt><trkpt lon="5.759248" lat="50.956444"><ele>32.4</ele><time>2022-06-26T07:04:08.000Z</time></trkpt><trkpt lon="5.759336" lat="50.956374"><ele>32.4</ele><time>2022-06-26T07:04:09.000Z</time></trkpt><trkpt lon="5.759393" lat="50.956333"><ele>32.4</ele><time>2022-06-26T07:04:10.000Z</time></trkpt><trkpt lon="5.759484" lat="50.956264"><ele>32.4</ele><time>2022-06-26T07:04:11.000Z</time></trkpt><trkpt lon="5.759538" lat="50.95622"><ele>32.4</ele><time>2022-06-26T07:04:12.000Z</time></trkpt><trkpt lon="5.759625" lat="50.956149"><ele>32.2</ele><time>2022-06-26T07:04:13.000Z</time></trkpt><trkpt lon="5.759673" lat="50.956106"><ele>32.2</ele><time>2022-06-26T07:04:14.000Z</time></trkpt><trkpt lon="5.759751" lat="50.95603"><ele>32</ele><time>2022-06-26T07:04:15.000Z</time></trkpt><trkpt lon="5.759807" lat="50.955974"><ele>32</ele><time>2022-06-26T07:04:16.000Z</time></trkpt><trkpt lon="5.759868" lat="50.955917"><ele>31.8</ele><time>2022-06-26T07:04:17.000Z</time></trkpt><trkpt lon="5.759919" lat="50.955869"><ele>31.8</ele><time>2022-06-26T07:04:18.000Z</time></trkpt><trkpt lon="5.759982" lat="50.955806"><ele>32</ele><time>2022-06-26T07:04:19.000Z</time></trkpt><trkpt lon="5.760015" lat="50.95576"><ele>32</ele><time>2022-06-26T07:04:20.000Z</time></trkpt><trkpt lon="5.76007" lat="50.955688"><ele>32</ele><time>2022-06-26T07:04:21.000Z</time></trkpt><trkpt lon="5.760106" lat="50.955641"><ele>32.2</ele><time>2022-06-26T07:04:22.000Z</time></trkpt><trkpt lon="5.760166" lat="50.955566"><ele>32.2</ele><time>2022-06-26T07:04:23.000Z</time></trkpt><trkpt lon="5.760201" lat="50.955519"><ele>32</ele><time>2022-06-26T07:04:24.000Z</time></trkpt><trkpt lon="5.76026" lat="50.955444"><ele>32.2</ele><time>2022-06-26T07:04:25.000Z</time></trkpt><trkpt lon="5.760303" lat="50.95538"><ele>32.2</ele><time>2022-06-26T07:04:26.000Z</time></trkpt><trkpt lon="5.760344" lat="50.955314"><ele>32.2</ele><time>2022-06-26T07:04:27.000Z</time></trkpt><trkpt lon="5.760381" lat="50.955251"><ele>32.4</ele><time>2022-06-26T07:04:28.000Z</time></trkpt><trkpt lon="5.760426" lat="50.955184"><ele>32.4</ele><time>2022-06-26T07:04:29.000Z</time></trkpt><trkpt lon="5.760467" lat="50.955118"><ele>32.4</ele><time>2022-06-26T07:04:30.000Z</time></trkpt><trkpt lon="5.760509" lat="50.955047"><ele>32.4</ele><time>2022-06-26T07:04:31.000Z</time></trkpt><trkpt lon="5.760545" lat="50.954991"><ele>32.4</ele><time>2022-06-26T07:04:32.000Z</time></trkpt><trkpt lon="5.760589" lat="50.954913"><ele>32.4</ele><time>2022-06-26T07:04:33.000Z</time></trkpt><trkpt lon="5.760616" lat="50.954863"><ele>32.4</ele><time>2022-06-26T07:04:34.000Z</time></trkpt><trkpt lon="5.760655" lat="50.954779"><ele>32.4</ele><time>2022-06-26T07:04:35.000Z</time></trkpt><trkpt lon="5.76068" lat="50.954723"><ele>32.4</ele><time>2022-06-26T07:04:36.000Z</time></trkpt><trkpt lon="5.760719" lat="50.954642"><ele>32.4</ele><time>2022-06-26T07:04:37.000Z</time></trkpt><trkpt lon="5.760744" lat="50.954581"><ele>32.4</ele><time>2022-06-26T07:04:38.000Z</time></trkpt><trkpt lon="5.760779" lat="50.954497"><ele>32.2</ele><time>2022-06-26T07:04:39.000Z</time></trkpt><trkpt lon="5.760801" lat="50.95444"><ele>32.4</ele><time>2022-06-26T07:04:40.000Z</time></trkpt><trkpt lon="5.760832" lat="50.954356"><ele>32.2</ele><time>2022-06-26T07:04:41.000Z</time></trkpt><trkpt lon="5.760849" lat="50.954301"><ele>32.4</ele><time>2022-06-26T07:04:42.000Z</time></trkpt><trkpt lon="5.760872" lat="50.954215"><ele>32.4</ele><time>2022-06-26T07:04:43.000Z</time></trkpt><trkpt lon="5.760885" lat="50.954155"><ele>32.4</ele><time>2022-06-26T07:04:44.000Z</time></trkpt><trkpt lon="5.760902" lat="50.954074"><ele>32.4</ele><time>2022-06-26T07:04:45.000Z</time></trkpt><trkpt lon="5.760908" lat="50.954016"><ele>32.4</ele><time>2022-06-26T07:04:46.000Z</time></trkpt><trkpt lon="5.76092" lat="50.953933"><ele>32.4</ele><time>2022-06-26T07:04:47.000Z</time></trkpt><trkpt lon="5.760925" lat="50.953883"><ele>32.2</ele><time>2022-06-26T07:04:48.000Z</time></trkpt><trkpt lon="5.760928" lat="50.953795"><ele>32.4</ele><time>2022-06-26T07:04:49.000Z</time></trkpt><trkpt lon="5.760931" lat="50.953746"><ele>32.6</ele><time>2022-06-26T07:04:50.000Z</time></trkpt><trkpt lon="5.76093" lat="50.953662"><ele>32.8</ele><time>2022-06-26T07:04:51.000Z</time></trkpt><trkpt lon="5.760927" lat="50.953611"><ele>33</ele><time>2022-06-26T07:04:52.000Z</time></trkpt><trkpt lon="5.760925" lat="50.953532"><ele>33</ele><time>2022-06-26T07:04:53.000Z</time></trkpt><trkpt lon="5.760924" lat="50.953479"><ele>33</ele><time>2022-06-26T07:04:54.000Z</time></trkpt><trkpt lon="5.760921" lat="50.953398"><ele>33.2</ele><time>2022-06-26T07:04:55.000Z</time></trkpt><trkpt lon="5.760916" lat="50.953345"><ele>33.4</ele><time>2022-06-26T07:04:56.000Z</time></trkpt><trkpt lon="5.760913" lat="50.953265"><ele>33.4</ele><time>2022-06-26T07:04:57.000Z</time></trkpt><trkpt lon="5.760911" lat="50.953217"><ele>33.6</ele><time>2022-06-26T07:04:58.000Z</time></trkpt><trkpt lon="5.760903" lat="50.953135"><ele>33.8</ele><time>2022-06-26T07:04:59.000Z</time></trkpt><trkpt lon="5.760896" lat="50.953079"><ele>33.8</ele><time>2022-06-26T07:05:00.000Z</time></trkpt><trkpt lon="5.760883" lat="50.953006"><ele>34.2</ele><time>2022-06-26T07:05:01.000Z</time></trkpt><trkpt lon="5.760872" lat="50.952959"><ele>34.4</ele><time>2022-06-26T07:05:02.000Z</time></trkpt><trkpt lon="5.760863" lat="50.952887"><ele>34.4</ele><time>2022-06-26T07:05:03.000Z</time></trkpt><trkpt lon="5.760854" lat="50.952835"><ele>34.6</ele><time>2022-06-26T07:05:04.000Z</time></trkpt><trkpt lon="5.760833" lat="50.952761"><ele>34.8</ele><time>2022-06-26T07:05:05.000Z</time></trkpt><trkpt lon="5.760814" lat="50.952709"><ele>34.8</ele><time>2022-06-26T07:05:06.000Z</time></trkpt><trkpt lon="5.760785" lat="50.952636"><ele>35</ele><time>2022-06-26T07:05:07.000Z</time></trkpt><trkpt lon="5.760765" lat="50.952588"><ele>35.2</ele><time>2022-06-26T07:05:08.000Z</time></trkpt><trkpt lon="5.760735" lat="50.952514"><ele>35.2</ele><time>2022-06-26T07:05:09.000Z</time></trkpt><trkpt lon="5.760718" lat="50.952466"><ele>35.4</ele><time>2022-06-26T07:05:10.000Z</time></trkpt><trkpt lon="5.760686" lat="50.952387"><ele>35.6</ele><time>2022-06-26T07:05:11.000Z</time></trkpt><trkpt lon="5.760664" lat="50.952338"><ele>35.6</ele><time>2022-06-26T07:05:12.000Z</time></trkpt><trkpt lon="5.760631" lat="50.952266"><ele>35.8</ele><time>2022-06-26T07:05:13.000Z</time></trkpt><trkpt lon="5.76061" lat="50.95222"><ele>36</ele><time>2022-06-26T07:05:14.000Z</time></trkpt><trkpt lon="5.760584" lat="50.952148"><ele>36</ele><time>2022-06-26T07:05:15.000Z</time></trkpt><trkpt lon="5.760562" lat="50.952103"><ele>36.2</ele><time>2022-06-26T07:05:16.000Z</time></trkpt><trkpt lon="5.760533" lat="50.952041"><ele>36.4</ele><time>2022-06-26T07:05:17.000Z</time></trkpt><trkpt lon="5.760513" lat="50.952001"><ele>36.6</ele><time>2022-06-26T07:05:18.000Z</time></trkpt><trkpt lon="5.760483" lat="50.951934"><ele>36.8</ele><time>2022-06-26T07:05:19.000Z</time></trkpt><trkpt lon="5.76046" lat="50.951897"><ele>37</ele><time>2022-06-26T07:05:20.000Z</time></trkpt><trkpt lon="5.760414" lat="50.951835"><ele>37</ele><time>2022-06-26T07:05:21.000Z</time></trkpt><trkpt lon="5.760383" lat="50.951793"><ele>37.2</ele><time>2022-06-26T07:05:22.000Z</time></trkpt><trkpt lon="5.760331" lat="50.951728"><ele>37.4</ele><time>2022-06-26T07:05:23.000Z</time></trkpt><trkpt lon="5.760299" lat="50.951686"><ele>37.4</ele><time>2022-06-26T07:05:24.000Z</time></trkpt><trkpt lon="5.760251" lat="50.951625"><ele>37.6</ele><time>2022-06-26T07:05:25.000Z</time></trkpt><trkpt lon="5.760212" lat="50.951575"><ele>37.8</ele><time>2022-06-26T07:05:26.000Z</time></trkpt><trkpt lon="5.760164" lat="50.951514"><ele>38</ele><time>2022-06-26T07:05:27.000Z</time></trkpt><trkpt lon="5.760122" lat="50.951467"><ele>38</ele><time>2022-06-26T07:05:28.000Z</time></trkpt><trkpt lon="5.760069" lat="50.9514"><ele>38.2</ele><time>2022-06-26T07:05:29.000Z</time></trkpt><trkpt lon="5.760042" lat="50.951356"><ele>38.2</ele><time>2022-06-26T07:05:30.000Z</time></trkpt><trkpt lon="5.759994" lat="50.951262"><ele>38.2</ele><time>2022-06-26T07:05:31.000Z</time></trkpt><trkpt lon="5.759969" lat="50.951204"><ele>38</ele><time>2022-06-26T07:05:32.000Z</time></trkpt><trkpt lon="5.759924" lat="50.951117"><ele>37.8</ele><time>2022-06-26T07:05:33.000Z</time></trkpt><trkpt lon="5.759898" lat="50.951059"><ele>37.6</ele><time>2022-06-26T07:05:34.000Z</time></trkpt><trkpt lon="5.759843" lat="50.950973"><ele>37.4</ele><time>2022-06-26T07:05:35.000Z</time></trkpt><trkpt lon="5.759807" lat="50.950917"><ele>37.2</ele><time>2022-06-26T07:05:36.000Z</time></trkpt><trkpt lon="5.759756" lat="50.950831"><ele>36.8</ele><time>2022-06-26T07:05:37.000Z</time></trkpt><trkpt lon="5.759721" lat="50.950784"><ele>36.6</ele><time>2022-06-26T07:05:38.000Z</time></trkpt><trkpt lon="5.759646" lat="50.950698"><ele>36</ele><time>2022-06-26T07:05:39.000Z</time></trkpt><trkpt lon="5.7596" lat="50.950654"><ele>35.6</ele><time>2022-06-26T07:05:40.000Z</time></trkpt><trkpt lon="5.759528" lat="50.950569"><ele>35.4</ele><time>2022-06-26T07:05:41.000Z</time></trkpt><trkpt lon="5.759486" lat="50.950517"><ele>35.2</ele><time>2022-06-26T07:05:42.000Z</time></trkpt><trkpt lon="5.759409" lat="50.950427"><ele>35</ele><time>2022-06-26T07:05:43.000Z</time></trkpt><trkpt lon="5.759367" lat="50.950375"><ele>34.8</ele><time>2022-06-26T07:05:44.000Z</time></trkpt><trkpt lon="5.759282" lat="50.950278"><ele>34.8</ele><time>2022-06-26T07:05:45.000Z</time></trkpt><trkpt lon="5.759228" lat="50.950225"><ele>34.6</ele><time>2022-06-26T07:05:46.000Z</time></trkpt><trkpt lon="5.759129" lat="50.950137"><ele>34.2</ele><time>2022-06-26T07:05:47.000Z</time></trkpt><trkpt lon="5.759063" lat="50.950075"><ele>34</ele><time>2022-06-26T07:05:48.000Z</time></trkpt><trkpt lon="5.758969" lat="50.95"><ele>33.6</ele><time>2022-06-26T07:05:49.000Z</time></trkpt><trkpt lon="5.758911" lat="50.949957"><ele>33.4</ele><time>2022-06-26T07:05:50.000Z</time></trkpt><trkpt lon="5.758792" lat="50.949869"><ele>33</ele><time>2022-06-26T07:05:51.000Z</time></trkpt><trkpt lon="5.758716" lat="50.949817"><ele>32.8</ele><time>2022-06-26T07:05:52.000Z</time></trkpt><trkpt lon="5.758615" lat="50.949744"><ele>32.4</ele><time>2022-06-26T07:05:53.000Z</time></trkpt><trkpt lon="5.758536" lat="50.949694"><ele>32</ele><time>2022-06-26T07:05:54.000Z</time></trkpt><trkpt lon="5.758441" lat="50.949632"><ele>31.8</ele><time>2022-06-26T07:05:55.000Z</time></trkpt><trkpt lon="5.758365" lat="50.94958"><ele>31.6</ele><time>2022-06-26T07:05:56.000Z</time></trkpt><trkpt lon="5.758265" lat="50.949516"><ele>31.2</ele><time>2022-06-26T07:05:57.000Z</time></trkpt><trkpt lon="5.758202" lat="50.949474"><ele>31</ele><time>2022-06-26T07:05:58.000Z</time></trkpt><trkpt lon="5.75808" lat="50.949394"><ele>30.4</ele><time>2022-06-26T07:05:59.000Z</time></trkpt><trkpt lon="5.757993" lat="50.949341"><ele>30</ele><time>2022-06-26T07:06:00.000Z</time></trkpt><trkpt lon="5.757872" lat="50.949271"><ele>29.2</ele><time>2022-06-26T07:06:01.000Z</time></trkpt><trkpt lon="5.757788" lat="50.949221"><ele>29</ele><time>2022-06-26T07:06:02.000Z</time></trkpt><trkpt lon="5.75768" lat="50.949149"><ele>28.6</ele><time>2022-06-26T07:06:03.000Z</time></trkpt><trkpt lon="5.757554" lat="50.949086"><ele>28.4</ele><time>2022-06-26T07:06:04.000Z</time></trkpt><trkpt lon="5.757421" lat="50.949012"><ele>28</ele><time>2022-06-26T07:06:05.000Z</time></trkpt><trkpt lon="5.757342" lat="50.948971"><ele>28</ele><time>2022-06-26T07:06:06.000Z</time></trkpt><trkpt lon="5.757214" lat="50.948905"><ele>27.8</ele><time>2022-06-26T07:06:07.000Z</time></trkpt><trkpt lon="5.757147" lat="50.948873"><ele>27.6</ele><time>2022-06-26T07:06:08.000Z</time></trkpt><trkpt lon="5.757015" lat="50.948806"><ele>27.4</ele><time>2022-06-26T07:06:09.000Z</time></trkpt><trkpt lon="5.756945" lat="50.948767"><ele>27.2</ele><time>2022-06-26T07:06:10.000Z</time></trkpt><trkpt lon="5.75682" lat="50.948703"><ele>27</ele><time>2022-06-26T07:06:11.000Z</time></trkpt><trkpt lon="5.756746" lat="50.948665"><ele>26.8</ele><time>2022-06-26T07:06:12.000Z</time></trkpt><trkpt lon="5.756627" lat="50.948604"><ele>26.6</ele><time>2022-06-26T07:06:13.000Z</time></trkpt><trkpt lon="5.756557" lat="50.94857"><ele>26.4</ele><time>2022-06-26T07:06:14.000Z</time></trkpt><trkpt lon="5.756439" lat="50.948513"><ele>26.2</ele><time>2022-06-26T07:06:15.000Z</time></trkpt><trkpt lon="5.756371" lat="50.948476"><ele>26.2</ele><time>2022-06-26T07:06:16.000Z</time></trkpt><trkpt lon="5.756255" lat="50.948417"><ele>25.8</ele><time>2022-06-26T07:06:17.000Z</time></trkpt><trkpt lon="5.75619" lat="50.948385"><ele>25.6</ele><time>2022-06-26T07:06:18.000Z</time></trkpt><trkpt lon="5.756076" lat="50.948326"><ele>25.4</ele><time>2022-06-26T07:06:19.000Z</time></trkpt><trkpt lon="5.756021" lat="50.948292"><ele>25.4</ele><time>2022-06-26T07:06:20.000Z</time></trkpt><trkpt lon="5.755911" lat="50.948226"><ele>25.2</ele><time>2022-06-26T07:06:21.000Z</time></trkpt><trkpt lon="5.755848" lat="50.94819"><ele>25</ele><time>2022-06-26T07:06:22.000Z</time></trkpt><trkpt lon="5.755725" lat="50.948127"><ele>24.6</ele><time>2022-06-26T07:06:23.000Z</time></trkpt><trkpt lon="5.755651" lat="50.94809"><ele>24.6</ele><time>2022-06-26T07:06:24.000Z</time></trkpt><trkpt lon="5.755513" lat="50.94802"><ele>24.2</ele><time>2022-06-26T07:06:25.000Z</time></trkpt><trkpt lon="5.755438" lat="50.947984"><ele>24</ele><time>2022-06-26T07:06:26.000Z</time></trkpt><trkpt lon="5.755301" lat="50.947917"><ele>23.8</ele><time>2022-06-26T07:06:27.000Z</time></trkpt><trkpt lon="5.755221" lat="50.947877"><ele>23.4</ele><time>2022-06-26T07:06:28.000Z</time></trkpt><trkpt lon="5.755087" lat="50.94781"><ele>23.2</ele><time>2022-06-26T07:06:29.000Z</time></trkpt><trkpt lon="5.755015" lat="50.947774"><ele>22.8</ele><time>2022-06-26T07:06:30.000Z</time></trkpt><trkpt lon="5.754878" lat="50.947703"><ele>22.6</ele><time>2022-06-26T07:06:31.000Z</time></trkpt><trkpt lon="5.754798" lat="50.947663"><ele>22.6</ele><time>2022-06-26T07:06:32.000Z</time></trkpt><trkpt lon="5.754686" lat="50.947604"><ele>22.6</ele><time>2022-06-26T07:06:33.000Z</time></trkpt><trkpt lon="5.754626" lat="50.947567"><ele>22.6</ele><time>2022-06-26T07:06:34.000Z</time></trkpt><trkpt lon="5.754518" lat="50.947498"><ele>22.4</ele><time>2022-06-26T07:06:35.000Z</time></trkpt><trkpt lon="5.754455" lat="50.947457"><ele>22.4</ele><time>2022-06-26T07:06:36.000Z</time></trkpt><trkpt lon="5.754355" lat="50.947387"><ele>22.4</ele><time>2022-06-26T07:06:37.000Z</time></trkpt><trkpt lon="5.754303" lat="50.947354"><ele>22.4</ele><time>2022-06-26T07:06:38.000Z</time></trkpt><trkpt lon="5.754188" lat="50.947276"><ele>22.4</ele><time>2022-06-26T07:06:39.000Z</time></trkpt><trkpt lon="5.754135" lat="50.947234"><ele>22.4</ele><time>2022-06-26T07:06:40.000Z</time></trkpt><trkpt lon="5.754041" lat="50.947154"><ele>22.4</ele><time>2022-06-26T07:06:41.000Z</time></trkpt><trkpt lon="5.753993" lat="50.947111"><ele>22.2</ele><time>2022-06-26T07:06:42.000Z</time></trkpt><trkpt lon="5.753904" lat="50.947028"><ele>22.2</ele><time>2022-06-26T07:06:43.000Z</time></trkpt><trkpt lon="5.75386" lat="50.946988"><ele>22.2</ele><time>2022-06-26T07:06:44.000Z</time></trkpt><trkpt lon="5.75376" lat="50.946902"><ele>22.2</ele><time>2022-06-26T07:06:45.000Z</time></trkpt><trkpt lon="5.753705" lat="50.946852"><ele>22</ele><time>2022-06-26T07:06:46.000Z</time></trkpt><trkpt lon="5.753618" lat="50.946773"><ele>22</ele><time>2022-06-26T07:06:47.000Z</time></trkpt><trkpt lon="5.753567" lat="50.946729"><ele>22</ele><time>2022-06-26T07:06:48.000Z</time></trkpt><trkpt lon="5.753479" lat="50.94665"><ele>22</ele><time>2022-06-26T07:06:49.000Z</time></trkpt><trkpt lon="5.75343" lat="50.946605"><ele>22</ele><time>2022-06-26T07:06:50.000Z</time></trkpt><trkpt lon="5.753349" lat="50.946525"><ele>22</ele><time>2022-06-26T07:06:51.000Z</time></trkpt><trkpt lon="5.75331" lat="50.946487"><ele>22</ele><time>2022-06-26T07:06:52.000Z</time></trkpt><trkpt lon="5.753223" lat="50.946403"><ele>22</ele><time>2022-06-26T07:06:53.000Z</time></trkpt><trkpt lon="5.753179" lat="50.94636"><ele>22</ele><time>2022-06-26T07:06:54.000Z</time></trkpt><trkpt lon="5.753099" lat="50.94628"><ele>22</ele><time>2022-06-26T07:06:55.000Z</time></trkpt><trkpt lon="5.753055" lat="50.946234"><ele>22.2</ele><time>2022-06-26T07:06:56.000Z</time></trkpt><trkpt lon="5.752977" lat="50.946155"><ele>22.2</ele><time>2022-06-26T07:06:57.000Z</time></trkpt><trkpt lon="5.752939" lat="50.946116"><ele>22.2</ele><time>2022-06-26T07:06:58.000Z</time></trkpt><trkpt lon="5.752852" lat="50.946036"><ele>22.2</ele><time>2022-06-26T07:06:59.000Z</time></trkpt><trkpt lon="5.752814" lat="50.946001"><ele>22.2</ele><time>2022-06-26T07:07:00.000Z</time></trkpt><trkpt lon="5.752731" lat="50.945914"><ele>22.2</ele><time>2022-06-26T07:07:01.000Z</time></trkpt><trkpt lon="5.752689" lat="50.945868"><ele>22.2</ele><time>2022-06-26T07:07:02.000Z</time></trkpt><trkpt lon="5.752624" lat="50.945788"><ele>22.2</ele><time>2022-06-26T07:07:03.000Z</time></trkpt><trkpt lon="5.752594" lat="50.945747"><ele>22.2</ele><time>2022-06-26T07:07:04.000Z</time></trkpt><trkpt lon="5.752526" lat="50.945658"><ele>22.2</ele><time>2022-06-26T07:07:05.000Z</time></trkpt><trkpt lon="5.752493" lat="50.945613"><ele>22.2</ele><time>2022-06-26T07:07:06.000Z</time></trkpt><trkpt lon="5.752425" lat="50.945525"><ele>22.4</ele><time>2022-06-26T07:07:07.000Z</time></trkpt><trkpt lon="5.752394" lat="50.945488"><ele>22.4</ele><time>2022-06-26T07:07:08.000Z</time></trkpt><trkpt lon="5.752323" lat="50.945398"><ele>22.2</ele><time>2022-06-26T07:07:09.000Z</time></trkpt><trkpt lon="5.75229" lat="50.945355"><ele>22.4</ele><time>2022-06-26T07:07:10.000Z</time></trkpt><trkpt lon="5.75222" lat="50.945266"><ele>22.4</ele><time>2022-06-26T07:07:11.000Z</time></trkpt><trkpt lon="5.752183" lat="50.945216"><ele>22.4</ele><time>2022-06-26T07:07:12.000Z</time></trkpt><trkpt lon="5.752119" lat="50.945132"><ele>22.2</ele><time>2022-06-26T07:07:13.000Z</time></trkpt><trkpt lon="5.752082" lat="50.945087"><ele>22.2</ele><time>2022-06-26T07:07:14.000Z</time></trkpt><trkpt lon="5.75202" lat="50.945007"><ele>22</ele><time>2022-06-26T07:07:15.000Z</time></trkpt><trkpt lon="5.751985" lat="50.944968"><ele>22</ele><time>2022-06-26T07:07:16.000Z</time></trkpt><trkpt lon="5.751906" lat="50.944884"><ele>22</ele><time>2022-06-26T07:07:17.000Z</time></trkpt><trkpt lon="5.751863" lat="50.94484"><ele>22.2</ele><time>2022-06-26T07:07:18.000Z</time></trkpt><trkpt lon="5.751784" lat="50.944762"><ele>22.2</ele><time>2022-06-26T07:07:19.000Z</time></trkpt><trkpt lon="5.751741" lat="50.944719"><ele>22.2</ele><time>2022-06-26T07:07:20.000Z</time></trkpt><trkpt lon="5.751662" lat="50.944644"><ele>22.2</ele><time>2022-06-26T07:07:21.000Z</time></trkpt><trkpt lon="5.75162" lat="50.944606"><ele>22.2</ele><time>2022-06-26T07:07:22.000Z</time></trkpt><trkpt lon="5.751534" lat="50.944529"><ele>22.2</ele><time>2022-06-26T07:07:23.000Z</time></trkpt><trkpt lon="5.751487" lat="50.944488"><ele>22</ele><time>2022-06-26T07:07:24.000Z</time></trkpt><trkpt lon="5.751402" lat="50.944415"><ele>22.2</ele><time>2022-06-26T07:07:25.000Z</time></trkpt><trkpt lon="5.751359" lat="50.944375"><ele>22.2</ele><time>2022-06-26T07:07:26.000Z</time></trkpt><trkpt lon="5.751281" lat="50.944293"><ele>22.4</ele><time>2022-06-26T07:07:27.000Z</time></trkpt><trkpt lon="5.751253" lat="50.94425"><ele>22.4</ele><time>2022-06-26T07:07:28.000Z</time></trkpt><trkpt lon="5.751201" lat="50.944159"><ele>22.4</ele><time>2022-06-26T07:07:29.000Z</time></trkpt><trkpt lon="5.751182" lat="50.944116"><ele>22.4</ele><time>2022-06-26T07:07:30.000Z</time></trkpt><trkpt lon="5.751143" lat="50.944022"><ele>22.2</ele><time>2022-06-26T07:07:31.000Z</time></trkpt><trkpt lon="5.751121" lat="50.943972"><ele>22.2</ele><time>2022-06-26T07:07:32.000Z</time></trkpt><trkpt lon="5.751081" lat="50.943885"><ele>22.2</ele><time>2022-06-26T07:07:33.000Z</time></trkpt><trkpt lon="5.751064" lat="50.943844"><ele>22.2</ele><time>2022-06-26T07:07:34.000Z</time></trkpt><trkpt lon="5.751022" lat="50.943749"><ele>22.2</ele><time>2022-06-26T07:07:35.000Z</time></trkpt><trkpt lon="5.751" lat="50.943698"><ele>22.2</ele><time>2022-06-26T07:07:36.000Z</time></trkpt><trkpt lon="5.750961" lat="50.94361"><ele>22</ele><time>2022-06-26T07:07:37.000Z</time></trkpt><trkpt lon="5.750944" lat="50.943571"><ele>22</ele><time>2022-06-26T07:07:38.000Z</time></trkpt><trkpt lon="5.750901" lat="50.943473"><ele>22</ele><time>2022-06-26T07:07:39.000Z</time></trkpt><trkpt lon="5.75088" lat="50.943427"><ele>22</ele><time>2022-06-26T07:07:40.000Z</time></trkpt><trkpt lon="5.750838" lat="50.943336"><ele>22</ele><time>2022-06-26T07:07:41.000Z</time></trkpt><trkpt lon="5.750818" lat="50.943295"><ele>22</ele><time>2022-06-26T07:07:42.000Z</time></trkpt><trkpt lon="5.750773" lat="50.943202"><ele>22.2</ele><time>2022-06-26T07:07:43.000Z</time></trkpt><trkpt lon="5.750753" lat="50.943159"><ele>22.2</ele><time>2022-06-26T07:07:44.000Z</time></trkpt><trkpt lon="5.75071" lat="50.943064"><ele>22.2</ele><time>2022-06-26T07:07:45.000Z</time></trkpt><trkpt lon="5.750688" lat="50.943019"><ele>22.4</ele><time>2022-06-26T07:07:46.000Z</time></trkpt><trkpt lon="5.750646" lat="50.942928"><ele>22.4</ele><time>2022-06-26T07:07:47.000Z</time></trkpt><trkpt lon="5.750626" lat="50.942886"><ele>22.4</ele><time>2022-06-26T07:07:48.000Z</time></trkpt><trkpt lon="5.750581" lat="50.942794"><ele>22.4</ele><time>2022-06-26T07:07:49.000Z</time></trkpt><trkpt lon="5.750559" lat="50.942751"><ele>22.4</ele><time>2022-06-26T07:07:50.000Z</time></trkpt><trkpt lon="5.75051" lat="50.94266"><ele>22.4</ele><time>2022-06-26T07:07:51.000Z</time></trkpt><trkpt lon="5.750484" lat="50.942618"><ele>22.4</ele><time>2022-06-26T07:07:52.000Z</time></trkpt><trkpt lon="5.750426" lat="50.942527"><ele>22.4</ele><time>2022-06-26T07:07:53.000Z</time></trkpt><trkpt lon="5.750397" lat="50.942478"><ele>22.4</ele><time>2022-06-26T07:07:54.000Z</time></trkpt><trkpt lon="5.750351" lat="50.942389"><ele>22.4</ele><time>2022-06-26T07:07:55.000Z</time></trkpt><trkpt lon="5.750337" lat="50.942347"><ele>22.4</ele><time>2022-06-26T07:07:56.000Z</time></trkpt><trkpt lon="5.75031" lat="50.942252"><ele>22.4</ele><time>2022-06-26T07:07:57.000Z</time></trkpt><trkpt lon="5.750297" lat="50.942208"><ele>22.4</ele><time>2022-06-26T07:07:58.000Z</time></trkpt><trkpt lon="5.750263" lat="50.942111"><ele>22.4</ele><time>2022-06-26T07:07:59.000Z</time></trkpt><trkpt lon="5.750246" lat="50.942073"><ele>22.4</ele><time>2022-06-26T07:08:00.000Z</time></trkpt><trkpt lon="5.750203" lat="50.941974"><ele>22.6</ele><time>2022-06-26T07:08:01.000Z</time></trkpt><trkpt lon="5.750181" lat="50.941927"><ele>22.6</ele><time>2022-06-26T07:08:02.000Z</time></trkpt><trkpt lon="5.75014" lat="50.94184"><ele>22.6</ele><time>2022-06-26T07:08:03.000Z</time></trkpt><trkpt lon="5.750119" lat="50.941793"><ele>22.4</ele><time>2022-06-26T07:08:04.000Z</time></trkpt><trkpt lon="5.75008" lat="50.941703"><ele>22.4</ele><time>2022-06-26T07:08:05.000Z</time></trkpt><trkpt lon="5.750059" lat="50.941659"><ele>22.6</ele><time>2022-06-26T07:08:06.000Z</time></trkpt><trkpt lon="5.750014" lat="50.941569"><ele>22.6</ele><time>2022-06-26T07:08:07.000Z</time></trkpt><trkpt lon="5.749996" lat="50.941532"><ele>22.6</ele><time>2022-06-26T07:08:08.000Z</time></trkpt><trkpt lon="5.749948" lat="50.941432"><ele>22.6</ele><time>2022-06-26T07:08:09.000Z</time></trkpt><trkpt lon="5.74993" lat="50.941394"><ele>22.6</ele><time>2022-06-26T07:08:10.000Z</time></trkpt><trkpt lon="5.749883" lat="50.941299"><ele>22.8</ele><time>2022-06-26T07:08:11.000Z</time></trkpt><trkpt lon="5.749861" lat="50.941257"><ele>22.6</ele><time>2022-06-26T07:08:12.000Z</time></trkpt><trkpt lon="5.749808" lat="50.941165"><ele>22.8</ele><time>2022-06-26T07:08:13.000Z</time></trkpt><trkpt lon="5.749786" lat="50.941128"><ele>22.8</ele><time>2022-06-26T07:08:14.000Z</time></trkpt><trkpt lon="5.749733" lat="50.941028"><ele>22.8</ele><time>2022-06-26T07:08:15.000Z</time></trkpt><trkpt lon="5.749715" lat="50.940985"><ele>22.8</ele><time>2022-06-26T07:08:16.000Z</time></trkpt><trkpt lon="5.749681" lat="50.940886"><ele>22.8</ele><time>2022-06-26T07:08:17.000Z</time></trkpt><trkpt lon="5.749666" lat="50.940843"><ele>22.6</ele><time>2022-06-26T07:08:18.000Z</time></trkpt><trkpt lon="5.749628" lat="50.940745"><ele>22.6</ele><time>2022-06-26T07:08:19.000Z</time></trkpt><trkpt lon="5.74961" lat="50.940706"><ele>22.8</ele><time>2022-06-26T07:08:20.000Z</time></trkpt><trkpt lon="5.749566" lat="50.940604"><ele>22.8</ele><time>2022-06-26T07:08:21.000Z</time></trkpt><trkpt lon="5.74955" lat="50.940568"><ele>22.8</ele><time>2022-06-26T07:08:22.000Z</time></trkpt><trkpt lon="5.749501" lat="50.940467"><ele>22.8</ele><time>2022-06-26T07:08:23.000Z</time></trkpt><trkpt lon="5.74948" lat="50.940426"><ele>22.8</ele><time>2022-06-26T07:08:24.000Z</time></trkpt><trkpt lon="5.749434" lat="50.940333"><ele>22.8</ele><time>2022-06-26T07:08:25.000Z</time></trkpt><trkpt lon="5.749413" lat="50.94029"><ele>22.8</ele><time>2022-06-26T07:08:26.000Z</time></trkpt><trkpt lon="5.749368" lat="50.940192"><ele>22.8</ele><time>2022-06-26T07:08:27.000Z</time></trkpt><trkpt lon="5.749349" lat="50.940152"><ele>22.8</ele><time>2022-06-26T07:08:28.000Z</time></trkpt><trkpt lon="5.749303" lat="50.940055"><ele>22.8</ele><time>2022-06-26T07:08:29.000Z</time></trkpt><trkpt lon="5.749282" lat="50.940011"><ele>22.8</ele><time>2022-06-26T07:08:30.000Z</time></trkpt><trkpt lon="5.749238" lat="50.939917"><ele>22.8</ele><time>2022-06-26T07:08:31.000Z</time></trkpt><trkpt lon="5.749218" lat="50.939879"><ele>23</ele><time>2022-06-26T07:08:32.000Z</time></trkpt><trkpt lon="5.749171" lat="50.939784"><ele>23</ele><time>2022-06-26T07:08:33.000Z</time></trkpt><trkpt lon="5.749148" lat="50.939742"><ele>23</ele><time>2022-06-26T07:08:34.000Z</time></trkpt><trkpt lon="5.7491" lat="50.939654"><ele>23</ele><time>2022-06-26T07:08:35.000Z</time></trkpt><trkpt lon="5.749079" lat="50.939618"><ele>23</ele><time>2022-06-26T07:08:36.000Z</time></trkpt><trkpt lon="5.749031" lat="50.939517"><ele>23</ele><time>2022-06-26T07:08:37.000Z</time></trkpt><trkpt lon="5.749004" lat="50.939447"><ele>23</ele><time>2022-06-26T07:08:38.000Z</time></trkpt><trkpt lon="5.748977" lat="50.939377"><ele>23</ele><time>2022-06-26T07:08:39.000Z</time></trkpt><trkpt lon="5.74895" lat="50.939314"><ele>23</ele><time>2022-06-26T07:08:40.000Z</time></trkpt><trkpt lon="5.748916" lat="50.939239"><ele>23</ele><time>2022-06-26T07:08:41.000Z</time></trkpt><trkpt lon="5.748886" lat="50.939173"><ele>23</ele><time>2022-06-26T07:08:42.000Z</time></trkpt><trkpt lon="5.748854" lat="50.939101"><ele>23</ele><time>2022-06-26T07:08:43.000Z</time></trkpt><trkpt lon="5.748821" lat="50.939032"><ele>23</ele><time>2022-06-26T07:08:44.000Z</time></trkpt><trkpt lon="5.748789" lat="50.938963"><ele>23</ele><time>2022-06-26T07:08:45.000Z</time></trkpt><trkpt lon="5.748759" lat="50.938898"><ele>23</ele><time>2022-06-26T07:08:46.000Z</time></trkpt><trkpt lon="5.748728" lat="50.93883"><ele>23</ele><time>2022-06-26T07:08:47.000Z</time></trkpt><trkpt lon="5.748697" lat="50.938761"><ele>23</ele><time>2022-06-26T07:08:48.000Z</time></trkpt><trkpt lon="5.748667" lat="50.938694"><ele>23</ele><time>2022-06-26T07:08:49.000Z</time></trkpt><trkpt lon="5.748636" lat="50.938624"><ele>23</ele><time>2022-06-26T07:08:50.000Z</time></trkpt><trkpt lon="5.748606" lat="50.938555"><ele>23</ele><time>2022-06-26T07:08:51.000Z</time></trkpt><trkpt lon="5.748574" lat="50.93849"><ele>23.2</ele><time>2022-06-26T07:08:52.000Z</time></trkpt><trkpt lon="5.748541" lat="50.938422"><ele>23.2</ele><time>2022-06-26T07:08:53.000Z</time></trkpt><trkpt lon="5.748506" lat="50.938353"><ele>23.2</ele><time>2022-06-26T07:08:54.000Z</time></trkpt><trkpt lon="5.748468" lat="50.938284"><ele>23.2</ele><time>2022-06-26T07:08:55.000Z</time></trkpt><trkpt lon="5.74843" lat="50.938217"><ele>23.2</ele><time>2022-06-26T07:08:56.000Z</time></trkpt><trkpt lon="5.748393" lat="50.938147"><ele>23.2</ele><time>2022-06-26T07:08:57.000Z</time></trkpt><trkpt lon="5.748357" lat="50.938078"><ele>23.2</ele><time>2022-06-26T07:08:58.000Z</time></trkpt><trkpt lon="5.748323" lat="50.93801"><ele>23.2</ele><time>2022-06-26T07:08:59.000Z</time></trkpt><trkpt lon="5.748293" lat="50.937941"><ele>23.2</ele><time>2022-06-26T07:09:00.000Z</time></trkpt><trkpt lon="5.748264" lat="50.937872"><ele>23.2</ele><time>2022-06-26T07:09:01.000Z</time></trkpt><trkpt lon="5.748238" lat="50.937803"><ele>23.2</ele><time>2022-06-26T07:09:02.000Z</time></trkpt><trkpt lon="5.748213" lat="50.937731"><ele>23.2</ele><time>2022-06-26T07:09:03.000Z</time></trkpt><trkpt lon="5.748191" lat="50.937663"><ele>23.2</ele><time>2022-06-26T07:09:04.000Z</time></trkpt><trkpt lon="5.748171" lat="50.93759"><ele>23.2</ele><time>2022-06-26T07:09:05.000Z</time></trkpt><trkpt lon="5.748158" lat="50.937521"><ele>23.2</ele><time>2022-06-26T07:09:06.000Z</time></trkpt><trkpt lon="5.748148" lat="50.937449"><ele>23.2</ele><time>2022-06-26T07:09:07.000Z</time></trkpt><trkpt lon="5.748139" lat="50.937383"><ele>23.2</ele><time>2022-06-26T07:09:08.000Z</time></trkpt><trkpt lon="5.748128" lat="50.937308"><ele>23.4</ele><time>2022-06-26T07:09:09.000Z</time></trkpt><trkpt lon="5.748118" lat="50.937236"><ele>23.4</ele><time>2022-06-26T07:09:10.000Z</time></trkpt><trkpt lon="5.748108" lat="50.937167"><ele>23.4</ele><time>2022-06-26T07:09:11.000Z</time></trkpt><trkpt lon="5.748096" lat="50.937098"><ele>23.4</ele><time>2022-06-26T07:09:12.000Z</time></trkpt><trkpt lon="5.748085" lat="50.937025"><ele>23.4</ele><time>2022-06-26T07:09:13.000Z</time></trkpt><trkpt lon="5.748072" lat="50.936958"><ele>23.4</ele><time>2022-06-26T07:09:14.000Z</time></trkpt><trkpt lon="5.748054" lat="50.936884"><ele>23.4</ele><time>2022-06-26T07:09:15.000Z</time></trkpt><trkpt lon="5.748032" lat="50.936817"><ele>23.6</ele><time>2022-06-26T07:09:16.000Z</time></trkpt><trkpt lon="5.747998" lat="50.936747"><ele>23.6</ele><time>2022-06-26T07:09:17.000Z</time></trkpt><trkpt lon="5.747967" lat="50.936679"><ele>23.6</ele><time>2022-06-26T07:09:18.000Z</time></trkpt><trkpt lon="5.747934" lat="50.936614"><ele>23.6</ele><time>2022-06-26T07:09:19.000Z</time></trkpt><trkpt lon="5.747903" lat="50.936545"><ele>23.6</ele><time>2022-06-26T07:09:20.000Z</time></trkpt><trkpt lon="5.747873" lat="50.93648"><ele>23.6</ele><time>2022-06-26T07:09:21.000Z</time></trkpt><trkpt lon="5.747846" lat="50.936423"><ele>23.6</ele><time>2022-06-26T07:09:22.000Z</time></trkpt><trkpt lon="5.747816" lat="50.936346"><ele>23.8</ele><time>2022-06-26T07:09:23.000Z</time></trkpt><trkpt lon="5.747791" lat="50.936282"><ele>23.6</ele><time>2022-06-26T07:09:24.000Z</time></trkpt><trkpt lon="5.747766" lat="50.936213"><ele>23.6</ele><time>2022-06-26T07:09:25.000Z</time></trkpt><trkpt lon="5.747747" lat="50.936156"><ele>23.6</ele><time>2022-06-26T07:09:26.000Z</time></trkpt><trkpt lon="5.747726" lat="50.936083"><ele>23.6</ele><time>2022-06-26T07:09:27.000Z</time></trkpt><trkpt lon="5.747706" lat="50.936018"><ele>23.6</ele><time>2022-06-26T07:09:28.000Z</time></trkpt><trkpt lon="5.747683" lat="50.935954"><ele>23.6</ele><time>2022-06-26T07:09:29.000Z</time></trkpt><trkpt lon="5.747657" lat="50.93589"><ele>23.6</ele><time>2022-06-26T07:09:30.000Z</time></trkpt><trkpt lon="5.747631" lat="50.93582"><ele>23.6</ele><time>2022-06-26T07:09:31.000Z</time></trkpt><trkpt lon="5.747604" lat="50.935756"><ele>23.6</ele><time>2022-06-26T07:09:32.000Z</time></trkpt><trkpt lon="5.74758" lat="50.935691"><ele>23.8</ele><time>2022-06-26T07:09:33.000Z</time></trkpt><trkpt lon="5.747551" lat="50.935626"><ele>23.8</ele><time>2022-06-26T07:09:34.000Z</time></trkpt><trkpt lon="5.747523" lat="50.935561"><ele>23.6</ele><time>2022-06-26T07:09:35.000Z</time></trkpt><trkpt lon="5.747501" lat="50.935507"><ele>23.6</ele><time>2022-06-26T07:09:36.000Z</time></trkpt><trkpt lon="5.747466" lat="50.935427"><ele>23.6</ele><time>2022-06-26T07:09:37.000Z</time></trkpt><trkpt lon="5.747435" lat="50.935364"><ele>23.6</ele><time>2022-06-26T07:09:38.000Z</time></trkpt><trkpt lon="5.747402" lat="50.935294"><ele>23.6</ele><time>2022-06-26T07:09:39.000Z</time></trkpt><trkpt lon="5.747371" lat="50.935225"><ele>23.6</ele><time>2022-06-26T07:09:40.000Z</time></trkpt><trkpt lon="5.747343" lat="50.935161"><ele>23.6</ele><time>2022-06-26T07:09:41.000Z</time></trkpt><trkpt lon="5.747321" lat="50.935104"><ele>23.4</ele><time>2022-06-26T07:09:42.000Z</time></trkpt><trkpt lon="5.747288" lat="50.935031"><ele>23.4</ele><time>2022-06-26T07:09:43.000Z</time></trkpt><trkpt lon="5.747253" lat="50.934967"><ele>23.4</ele><time>2022-06-26T07:09:44.000Z</time></trkpt><trkpt lon="5.747214" lat="50.934901"><ele>23.2</ele><time>2022-06-26T07:09:45.000Z</time></trkpt><trkpt lon="5.747182" lat="50.934845"><ele>23.2</ele><time>2022-06-26T07:09:46.000Z</time></trkpt><trkpt lon="5.747149" lat="50.934779"><ele>23.2</ele><time>2022-06-26T07:09:47.000Z</time></trkpt><trkpt lon="5.747119" lat="50.934714"><ele>23.2</ele><time>2022-06-26T07:09:48.000Z</time></trkpt><trkpt lon="5.747085" lat="50.934653"><ele>23.4</ele><time>2022-06-26T07:09:49.000Z</time></trkpt><trkpt lon="5.747052" lat="50.934594"><ele>23.6</ele><time>2022-06-26T07:09:50.000Z</time></trkpt><trkpt lon="5.747014" lat="50.934527"><ele>23.6</ele><time>2022-06-26T07:09:51.000Z</time></trkpt><trkpt lon="5.746979" lat="50.934465"><ele>23.8</ele><time>2022-06-26T07:09:52.000Z</time></trkpt><trkpt lon="5.746946" lat="50.934397"><ele>23.8</ele><time>2022-06-26T07:09:53.000Z</time></trkpt><trkpt lon="5.746914" lat="50.934333"><ele>23.8</ele><time>2022-06-26T07:09:54.000Z</time></trkpt><trkpt lon="5.746881" lat="50.934268"><ele>23.8</ele><time>2022-06-26T07:09:55.000Z</time></trkpt><trkpt lon="5.746856" lat="50.934217"><ele>23.8</ele><time>2022-06-26T07:09:56.000Z</time></trkpt><trkpt lon="5.746811" lat="50.934134"><ele>23.8</ele><time>2022-06-26T07:09:57.000Z</time></trkpt><trkpt lon="5.746774" lat="50.934065"><ele>23.6</ele><time>2022-06-26T07:09:58.000Z</time></trkpt><trkpt lon="5.746738" lat="50.933997"><ele>23.6</ele><time>2022-06-26T07:09:59.000Z</time></trkpt><trkpt lon="5.746709" lat="50.933945"><ele>23.6</ele><time>2022-06-26T07:10:00.000Z</time></trkpt><trkpt lon="5.746672" lat="50.933871"><ele>23.6</ele><time>2022-06-26T07:10:01.000Z</time></trkpt><trkpt lon="5.746643" lat="50.933807"><ele>23.6</ele><time>2022-06-26T07:10:02.000Z</time></trkpt><trkpt lon="5.746608" lat="50.933737"><ele>23.6</ele><time>2022-06-26T07:10:03.000Z</time></trkpt><trkpt lon="5.746579" lat="50.933681"><ele>23.8</ele><time>2022-06-26T07:10:04.000Z</time></trkpt><trkpt lon="5.746541" lat="50.933604"><ele>23.8</ele><time>2022-06-26T07:10:05.000Z</time></trkpt><trkpt lon="5.746516" lat="50.933547"><ele>23.8</ele><time>2022-06-26T07:10:06.000Z</time></trkpt><trkpt lon="5.74648" lat="50.933471"><ele>23.8</ele><time>2022-06-26T07:10:07.000Z</time></trkpt><trkpt lon="5.746454" lat="50.933413"><ele>23.8</ele><time>2022-06-26T07:10:08.000Z</time></trkpt><trkpt lon="5.746421" lat="50.933341"><ele>23.8</ele><time>2022-06-26T07:10:09.000Z</time></trkpt><trkpt lon="5.746391" lat="50.933279"><ele>23.8</ele><time>2022-06-26T07:10:10.000Z</time></trkpt><trkpt lon="5.746361" lat="50.933211"><ele>23.8</ele><time>2022-06-26T07:10:11.000Z</time></trkpt><trkpt lon="5.746338" lat="50.933158"><ele>23.8</ele><time>2022-06-26T07:10:12.000Z</time></trkpt><trkpt lon="5.746296" lat="50.933073"><ele>23.8</ele><time>2022-06-26T07:10:13.000Z</time></trkpt><trkpt lon="5.746263" lat="50.933008"><ele>23.8</ele><time>2022-06-26T07:10:14.000Z</time></trkpt><trkpt lon="5.746226" lat="50.932928"><ele>23.8</ele><time>2022-06-26T07:10:15.000Z</time></trkpt><trkpt lon="5.7462" lat="50.932879"><ele>23.8</ele><time>2022-06-26T07:10:16.000Z</time></trkpt><trkpt lon="5.746163" lat="50.932795"><ele>24</ele><time>2022-06-26T07:10:17.000Z</time></trkpt><trkpt lon="5.746131" lat="50.932726"><ele>24</ele><time>2022-06-26T07:10:18.000Z</time></trkpt><trkpt lon="5.746093" lat="50.93265"><ele>24</ele><time>2022-06-26T07:10:19.000Z</time></trkpt><trkpt lon="5.746064" lat="50.932587"><ele>24</ele><time>2022-06-26T07:10:20.000Z</time></trkpt><trkpt lon="5.746028" lat="50.932513"><ele>24</ele><time>2022-06-26T07:10:21.000Z</time></trkpt><trkpt lon="5.746004" lat="50.932457"><ele>24</ele><time>2022-06-26T07:10:22.000Z</time></trkpt><trkpt lon="5.745966" lat="50.932372"><ele>24</ele><time>2022-06-26T07:10:23.000Z</time></trkpt><trkpt lon="5.745937" lat="50.932318"><ele>24.2</ele><time>2022-06-26T07:10:24.000Z</time></trkpt><trkpt lon="5.745894" lat="50.932231"><ele>24.2</ele><time>2022-06-26T07:10:25.000Z</time></trkpt><trkpt lon="5.745866" lat="50.932172"><ele>24.2</ele><time>2022-06-26T07:10:26.000Z</time></trkpt><trkpt lon="5.745827" lat="50.932093"><ele>24.2</ele><time>2022-06-26T07:10:27.000Z</time></trkpt><trkpt lon="5.745799" lat="50.93203"><ele>24.2</ele><time>2022-06-26T07:10:28.000Z</time></trkpt><trkpt lon="5.745763" lat="50.931956"><ele>24.2</ele><time>2022-06-26T07:10:29.000Z</time></trkpt><trkpt lon="5.745738" lat="50.931903"><ele>24.2</ele><time>2022-06-26T07:10:30.000Z</time></trkpt><trkpt lon="5.745701" lat="50.931822"><ele>24.2</ele><time>2022-06-26T07:10:31.000Z</time></trkpt><trkpt lon="5.745678" lat="50.931766"><ele>24.2</ele><time>2022-06-26T07:10:32.000Z</time></trkpt><trkpt lon="5.745646" lat="50.931693"><ele>24.2</ele><time>2022-06-26T07:10:33.000Z</time></trkpt><trkpt lon="5.745617" lat="50.931643"><ele>24.2</ele><time>2022-06-26T07:10:34.000Z</time></trkpt><trkpt lon="5.745559" lat="50.931575"><ele>24.4</ele><time>2022-06-26T07:10:35.000Z</time></trkpt><trkpt lon="5.745496" lat="50.931529"><ele>24.4</ele><time>2022-06-26T07:10:36.000Z</time></trkpt><trkpt lon="5.745426" lat="50.931491"><ele>24.6</ele><time>2022-06-26T07:10:37.000Z</time></trkpt><trkpt lon="5.745344" lat="50.931465"><ele>24.8</ele><time>2022-06-26T07:10:38.000Z</time></trkpt><trkpt lon="5.745246" lat="50.93145"><ele>24.8</ele><time>2022-06-26T07:10:39.000Z</time></trkpt><trkpt lon="5.745149" lat="50.93145"><ele>25</ele><time>2022-06-26T07:10:40.000Z</time></trkpt><trkpt lon="5.745033" lat="50.931466"><ele>25</ele><time>2022-06-26T07:10:41.000Z</time></trkpt><trkpt lon="5.744941" lat="50.931482"><ele>25</ele><time>2022-06-26T07:10:42.000Z</time></trkpt><trkpt lon="5.744811" lat="50.931512"><ele>25</ele><time>2022-06-26T07:10:43.000Z</time></trkpt><trkpt lon="5.744697" lat="50.931538"><ele>25</ele><time>2022-06-26T07:10:44.000Z</time></trkpt><trkpt lon="5.744587" lat="50.931561"><ele>24.8</ele><time>2022-06-26T07:10:45.000Z</time></trkpt><trkpt lon="5.744501" lat="50.931582"><ele>25</ele><time>2022-06-26T07:10:46.000Z</time></trkpt><trkpt lon="5.744366" lat="50.931611"><ele>24.8</ele><time>2022-06-26T07:10:47.000Z</time></trkpt><trkpt lon="5.744259" lat="50.931637"><ele>25</ele><time>2022-06-26T07:10:48.000Z</time></trkpt><trkpt lon="5.744155" lat="50.931664"><ele>25</ele><time>2022-06-26T07:10:49.000Z</time></trkpt><trkpt lon="5.744077" lat="50.931684"><ele>25</ele><time>2022-06-26T07:10:50.000Z</time></trkpt><trkpt lon="5.743945" lat="50.931714"><ele>25</ele><time>2022-06-26T07:10:51.000Z</time></trkpt><trkpt lon="5.74386" lat="50.931732"><ele>25</ele><time>2022-06-26T07:10:52.000Z</time></trkpt><trkpt lon="5.743736" lat="50.931763"><ele>25</ele><time>2022-06-26T07:10:53.000Z</time></trkpt><trkpt lon="5.74364" lat="50.93179"><ele>25</ele><time>2022-06-26T07:10:54.000Z</time></trkpt><trkpt lon="5.74352" lat="50.93182"><ele>25</ele><time>2022-06-26T07:10:55.000Z</time></trkpt><trkpt lon="5.743438" lat="50.931837"><ele>25</ele><time>2022-06-26T07:10:56.000Z</time></trkpt><trkpt lon="5.743298" lat="50.931866"><ele>25</ele><time>2022-06-26T07:10:57.000Z</time></trkpt><trkpt lon="5.743208" lat="50.931885"><ele>25</ele><time>2022-06-26T07:10:58.000Z</time></trkpt><trkpt lon="5.743076" lat="50.931908"><ele>25</ele><time>2022-06-26T07:10:59.000Z</time></trkpt><trkpt lon="5.742967" lat="50.931927"><ele>25</ele><time>2022-06-26T07:11:00.000Z</time></trkpt><trkpt lon="5.742858" lat="50.931942"><ele>25</ele><time>2022-06-26T07:11:01.000Z</time></trkpt><trkpt lon="5.742772" lat="50.931957"><ele>25.2</ele><time>2022-06-26T07:11:02.000Z</time></trkpt><trkpt lon="5.742635" lat="50.931973"><ele>25.2</ele><time>2022-06-26T07:11:03.000Z</time></trkpt><trkpt lon="5.742523" lat="50.93198"><ele>25.2</ele><time>2022-06-26T07:11:04.000Z</time></trkpt><trkpt lon="5.742411" lat="50.931984"><ele>25.2</ele><time>2022-06-26T07:11:05.000Z</time></trkpt><trkpt lon="5.74232" lat="50.931981"><ele>25.2</ele><time>2022-06-26T07:11:06.000Z</time></trkpt><trkpt lon="5.74219" lat="50.931976"><ele>25</ele><time>2022-06-26T07:11:07.000Z</time></trkpt><trkpt lon="5.74211" lat="50.931971"><ele>25</ele><time>2022-06-26T07:11:08.000Z</time></trkpt><trkpt lon="5.741978" lat="50.931954"><ele>25.2</ele><time>2022-06-26T07:11:09.000Z</time></trkpt><trkpt lon="5.741878" lat="50.931938"><ele>25.2</ele><time>2022-06-26T07:11:10.000Z</time></trkpt><trkpt lon="5.741778" lat="50.931922"><ele>25.2</ele><time>2022-06-26T07:11:11.000Z</time></trkpt><trkpt lon="5.741702" lat="50.931907"><ele>25.2</ele><time>2022-06-26T07:11:12.000Z</time></trkpt><trkpt lon="5.741591" lat="50.931884"><ele>25.2</ele><time>2022-06-26T07:11:13.000Z</time></trkpt><trkpt lon="5.741504" lat="50.931862"><ele>25.2</ele><time>2022-06-26T07:11:14.000Z</time></trkpt><trkpt lon="5.741407" lat="50.931835"><ele>25.2</ele><time>2022-06-26T07:11:15.000Z</time></trkpt><trkpt lon="5.74134" lat="50.931816"><ele>25.2</ele><time>2022-06-26T07:11:16.000Z</time></trkpt><trkpt lon="5.741211" lat="50.931777"><ele>25.2</ele><time>2022-06-26T07:11:17.000Z</time></trkpt><trkpt lon="5.741126" lat="50.931752"><ele>25.2</ele><time>2022-06-26T07:11:18.000Z</time></trkpt><trkpt lon="5.741008" lat="50.931712"><ele>25.2</ele><time>2022-06-26T07:11:19.000Z</time></trkpt><trkpt lon="5.740928" lat="50.931685"><ele>25.2</ele><time>2022-06-26T07:11:20.000Z</time></trkpt><trkpt lon="5.740811" lat="50.93164"><ele>25.2</ele><time>2022-06-26T07:11:21.000Z</time></trkpt><trkpt lon="5.740723" lat="50.931612"><ele>25.2</ele><time>2022-06-26T07:11:22.000Z</time></trkpt><trkpt lon="5.740631" lat="50.931576"><ele>25.4</ele><time>2022-06-26T07:11:23.000Z</time></trkpt><trkpt lon="5.740576" lat="50.93155"><ele>25.6</ele><time>2022-06-26T07:11:24.000Z</time></trkpt><trkpt lon="5.740494" lat="50.931502"><ele>25.8</ele><time>2022-06-26T07:11:25.000Z</time></trkpt><trkpt lon="5.740458" lat="50.931461"><ele>26</ele><time>2022-06-26T07:11:26.000Z</time></trkpt><trkpt lon="5.74044" lat="50.931415"><ele>26.2</ele><time>2022-06-26T07:11:27.000Z</time></trkpt><trkpt lon="5.740445" lat="50.931375"><ele>26.4</ele><time>2022-06-26T07:11:28.000Z</time></trkpt><trkpt lon="5.740448" lat="50.931323"><ele>26.4</ele><time>2022-06-26T07:11:29.000Z</time></trkpt><trkpt lon="5.740433" lat="50.931291"><ele>26.4</ele><time>2022-06-26T07:11:30.000Z</time></trkpt><trkpt lon="5.74037" lat="50.931228"><ele>26.4</ele><time>2022-06-26T07:11:31.000Z</time></trkpt><trkpt lon="5.740308" lat="50.931183"><ele>26.2</ele><time>2022-06-26T07:11:32.000Z</time></trkpt><trkpt lon="5.740216" lat="50.931121"><ele>26</ele><time>2022-06-26T07:11:33.000Z</time></trkpt><trkpt lon="5.740154" lat="50.931077"><ele>25.8</ele><time>2022-06-26T07:11:34.000Z</time></trkpt><trkpt lon="5.74004" lat="50.930999"><ele>25.4</ele><time>2022-06-26T07:11:35.000Z</time></trkpt><trkpt lon="5.739965" lat="50.930952"><ele>25.2</ele><time>2022-06-26T07:11:36.000Z</time></trkpt><trkpt lon="5.739862" lat="50.930881"><ele>24.8</ele><time>2022-06-26T07:11:37.000Z</time></trkpt><trkpt lon="5.739802" lat="50.930837"><ele>24.8</ele><time>2022-06-26T07:11:38.000Z</time></trkpt><trkpt lon="5.739701" lat="50.930759"><ele>24.6</ele><time>2022-06-26T07:11:39.000Z</time></trkpt><trkpt lon="5.739646" lat="50.930713"><ele>24.6</ele><time>2022-06-26T07:11:40.000Z</time></trkpt><trkpt lon="5.739559" lat="50.930636"><ele>24.4</ele><time>2022-06-26T07:11:41.000Z</time></trkpt><trkpt lon="5.739511" lat="50.930584"><ele>24.4</ele><time>2022-06-26T07:11:42.000Z</time></trkpt><trkpt lon="5.739446" lat="50.930511"><ele>24.4</ele><time>2022-06-26T07:11:43.000Z</time></trkpt><trkpt lon="5.739413" lat="50.930462"><ele>24.4</ele><time>2022-06-26T07:11:44.000Z</time></trkpt><trkpt lon="5.739351" lat="50.930381"><ele>24.4</ele><time>2022-06-26T07:11:45.000Z</time></trkpt><trkpt lon="5.739317" lat="50.930336"><ele>24.4</ele><time>2022-06-26T07:11:46.000Z</time></trkpt><trkpt lon="5.739259" lat="50.930255"><ele>24.4</ele><time>2022-06-26T07:11:47.000Z</time></trkpt><trkpt lon="5.739226" lat="50.930201"><ele>24.4</ele><time>2022-06-26T07:11:48.000Z</time></trkpt><trkpt lon="5.739177" lat="50.930125"><ele>24.4</ele><time>2022-06-26T07:11:49.000Z</time></trkpt><trkpt lon="5.739142" lat="50.930068"><ele>24.4</ele><time>2022-06-26T07:11:50.000Z</time></trkpt><trkpt lon="5.739101" lat="50.929995"><ele>24.6</ele><time>2022-06-26T07:11:51.000Z</time></trkpt><trkpt lon="5.739077" lat="50.929954"><ele>24.6</ele><time>2022-06-26T07:11:52.000Z</time></trkpt><trkpt lon="5.739029" lat="50.92987"><ele>24.6</ele><time>2022-06-26T07:11:53.000Z</time></trkpt><trkpt lon="5.738999" lat="50.929811"><ele>24.6</ele><time>2022-06-26T07:11:54.000Z</time></trkpt><trkpt lon="5.738966" lat="50.929744"><ele>24.6</ele><time>2022-06-26T07:11:55.000Z</time></trkpt><trkpt lon="5.738948" lat="50.929701"><ele>24.6</ele><time>2022-06-26T07:11:56.000Z</time></trkpt><trkpt lon="5.738915" lat="50.929614"><ele>24.8</ele><time>2022-06-26T07:11:57.000Z</time></trkpt><trkpt lon="5.738893" lat="50.929566"><ele>24.8</ele><time>2022-06-26T07:11:58.000Z</time></trkpt><trkpt lon="5.738861" lat="50.929488"><ele>24.8</ele><time>2022-06-26T07:11:59.000Z</time></trkpt><trkpt lon="5.738842" lat="50.929439"><ele>24.8</ele><time>2022-06-26T07:12:00.000Z</time></trkpt><trkpt lon="5.738815" lat="50.929359"><ele>24.8</ele><time>2022-06-26T07:12:01.000Z</time></trkpt><trkpt lon="5.738807" lat="50.929312"><ele>24.8</ele><time>2022-06-26T07:12:02.000Z</time></trkpt><trkpt lon="5.738795" lat="50.929225"><ele>24.8</ele><time>2022-06-26T07:12:03.000Z</time></trkpt><trkpt lon="5.738794" lat="50.929173"><ele>24.8</ele><time>2022-06-26T07:12:04.000Z</time></trkpt><trkpt lon="5.738805" lat="50.929096"><ele>24.8</ele><time>2022-06-26T07:12:05.000Z</time></trkpt><trkpt lon="5.738815" lat="50.929053"><ele>24.8</ele><time>2022-06-26T07:12:06.000Z</time></trkpt><trkpt lon="5.738834" lat="50.928985"><ele>24.8</ele><time>2022-06-26T07:12:07.000Z</time></trkpt><trkpt lon="5.738838" lat="50.928954"><ele>25</ele><time>2022-06-26T07:12:08.000Z</time></trkpt><trkpt lon="5.738826" lat="50.92889"><ele>25</ele><time>2022-06-26T07:12:09.000Z</time></trkpt><trkpt lon="5.738792" lat="50.928865"><ele>25</ele><time>2022-06-26T07:12:10.000Z</time></trkpt><trkpt lon="5.738714" lat="50.928837"><ele>25</ele><time>2022-06-26T07:12:11.000Z</time></trkpt><trkpt lon="5.738646" lat="50.928825"><ele>25.2</ele><time>2022-06-26T07:12:12.000Z</time></trkpt><trkpt lon="5.738517" lat="50.928802"><ele>25.2</ele><time>2022-06-26T07:12:13.000Z</time></trkpt><trkpt lon="5.738436" lat="50.928785"><ele>25.2</ele><time>2022-06-26T07:12:14.000Z</time></trkpt><trkpt lon="5.738295" lat="50.928756"><ele>25.2</ele><time>2022-06-26T07:12:15.000Z</time></trkpt><trkpt lon="5.738217" lat="50.928736"><ele>25.2</ele><time>2022-06-26T07:12:16.000Z</time></trkpt><trkpt lon="5.738067" lat="50.928695"><ele>25.2</ele><time>2022-06-26T07:12:17.000Z</time></trkpt><trkpt lon="5.737986" lat="50.928676"><ele>25.2</ele><time>2022-06-26T07:12:18.000Z</time></trkpt><trkpt lon="5.737846" lat="50.928646"><ele>25.4</ele><time>2022-06-26T07:12:19.000Z</time></trkpt><trkpt lon="5.737759" lat="50.928628"><ele>25.4</ele><time>2022-06-26T07:12:20.000Z</time></trkpt><trkpt lon="5.737622" lat="50.9286"><ele>25.4</ele><time>2022-06-26T07:12:21.000Z</time></trkpt><trkpt lon="5.737544" lat="50.928586"><ele>25.2</ele><time>2022-06-26T07:12:22.000Z</time></trkpt><trkpt lon="5.737402" lat="50.928562"><ele>25.4</ele><time>2022-06-26T07:12:23.000Z</time></trkpt><trkpt lon="5.737321" lat="50.928551"><ele>25.4</ele><time>2022-06-26T07:12:24.000Z</time></trkpt><trkpt lon="5.737176" lat="50.928532"><ele>25.4</ele><time>2022-06-26T07:12:25.000Z</time></trkpt><trkpt lon="5.737103" lat="50.928524"><ele>25.4</ele><time>2022-06-26T07:12:26.000Z</time></trkpt><trkpt lon="5.73695" lat="50.928516"><ele>25.4</ele><time>2022-06-26T07:12:27.000Z</time></trkpt><trkpt lon="5.73686" lat="50.928513"><ele>25.4</ele><time>2022-06-26T07:12:28.000Z</time></trkpt><trkpt lon="5.73672" lat="50.928509"><ele>25.4</ele><time>2022-06-26T07:12:29.000Z</time></trkpt><trkpt lon="5.736637" lat="50.928506"><ele>25.4</ele><time>2022-06-26T07:12:30.000Z</time></trkpt><trkpt lon="5.736488" lat="50.928505"><ele>25.4</ele><time>2022-06-26T07:12:31.000Z</time></trkpt><trkpt lon="5.736412" lat="50.928502"><ele>25.4</ele><time>2022-06-26T07:12:32.000Z</time></trkpt><trkpt lon="5.736259" lat="50.928497"><ele>25.4</ele><time>2022-06-26T07:12:33.000Z</time></trkpt><trkpt lon="5.736182" lat="50.928492"><ele>25.4</ele><time>2022-06-26T07:12:34.000Z</time></trkpt><trkpt lon="5.736035" lat="50.928486"><ele>25.4</ele><time>2022-06-26T07:12:35.000Z</time></trkpt><trkpt lon="5.735959" lat="50.928478"><ele>25.4</ele><time>2022-06-26T07:12:36.000Z</time></trkpt><trkpt lon="5.735815" lat="50.928467"><ele>25.4</ele><time>2022-06-26T07:12:37.000Z</time></trkpt><trkpt lon="5.735737" lat="50.928456"><ele>25.4</ele><time>2022-06-26T07:12:38.000Z</time></trkpt><trkpt lon="5.735595" lat="50.928432"><ele>25.2</ele><time>2022-06-26T07:12:39.000Z</time></trkpt><trkpt lon="5.73552" lat="50.928416"><ele>25.2</ele><time>2022-06-26T07:12:40.000Z</time></trkpt><trkpt lon="5.735389" lat="50.928382"><ele>25.2</ele><time>2022-06-26T07:12:41.000Z</time></trkpt><trkpt lon="5.735318" lat="50.928362"><ele>25</ele><time>2022-06-26T07:12:42.000Z</time></trkpt><trkpt lon="5.735184" lat="50.928321"><ele>25</ele><time>2022-06-26T07:12:43.000Z</time></trkpt><trkpt lon="5.735105" lat="50.928293"><ele>25</ele><time>2022-06-26T07:12:44.000Z</time></trkpt><trkpt lon="5.735002" lat="50.928256"><ele>25.2</ele><time>2022-06-26T07:12:45.000Z</time></trkpt><trkpt lon="5.734944" lat="50.92823"><ele>25.2</ele><time>2022-06-26T07:12:46.000Z</time></trkpt><trkpt lon="5.734837" lat="50.928176"><ele>25.2</ele><time>2022-06-26T07:12:47.000Z</time></trkpt><trkpt lon="5.734776" lat="50.928142"><ele>25.2</ele><time>2022-06-26T07:12:48.000Z</time></trkpt><trkpt lon="5.734674" lat="50.928077"><ele>25.2</ele><time>2022-06-26T07:12:49.000Z</time></trkpt><trkpt lon="5.734615" lat="50.928035"><ele>25.2</ele><time>2022-06-26T07:12:50.000Z</time></trkpt><trkpt lon="5.734519" lat="50.927962"><ele>25.2</ele><time>2022-06-26T07:12:51.000Z</time></trkpt><trkpt lon="5.734466" lat="50.927925"><ele>25.2</ele><time>2022-06-26T07:12:52.000Z</time></trkpt><trkpt lon="5.734369" lat="50.927856"><ele>25.2</ele><time>2022-06-26T07:12:53.000Z</time></trkpt><trkpt lon="5.734321" lat="50.92782"><ele>25.2</ele><time>2022-06-26T07:12:54.000Z</time></trkpt><trkpt lon="5.734225" lat="50.927746"><ele>25.2</ele><time>2022-06-26T07:12:55.000Z</time></trkpt><trkpt lon="5.734178" lat="50.927711"><ele>25.2</ele><time>2022-06-26T07:12:56.000Z</time></trkpt><trkpt lon="5.734084" lat="50.927638"><ele>25.2</ele><time>2022-06-26T07:12:57.000Z</time></trkpt><trkpt lon="5.734032" lat="50.927597"><ele>25.2</ele><time>2022-06-26T07:12:58.000Z</time></trkpt><trkpt lon="5.733949" lat="50.927527"><ele>25.2</ele><time>2022-06-26T07:12:59.000Z</time></trkpt><trkpt lon="5.733894" lat="50.927485"><ele>25.2</ele><time>2022-06-26T07:13:00.000Z</time></trkpt><trkpt lon="5.733811" lat="50.92742"><ele>25.2</ele><time>2022-06-26T07:13:01.000Z</time></trkpt><trkpt lon="5.733753" lat="50.927373"><ele>25.2</ele><time>2022-06-26T07:13:02.000Z</time></trkpt><trkpt lon="5.733672" lat="50.92731"><ele>25.2</ele><time>2022-06-26T07:13:03.000Z</time></trkpt><trkpt lon="5.733617" lat="50.927262"><ele>25.2</ele><time>2022-06-26T07:13:04.000Z</time></trkpt><trkpt lon="5.733541" lat="50.927196"><ele>25.2</ele><time>2022-06-26T07:13:05.000Z</time></trkpt><trkpt lon="5.733499" lat="50.927157"><ele>25.4</ele><time>2022-06-26T07:13:06.000Z</time></trkpt><trkpt lon="5.733421" lat="50.927081"><ele>25.4</ele><time>2022-06-26T07:13:07.000Z</time></trkpt><trkpt lon="5.733374" lat="50.927034"><ele>25.4</ele><time>2022-06-26T07:13:08.000Z</time></trkpt><trkpt lon="5.733311" lat="50.926967"><ele>25.2</ele><time>2022-06-26T07:13:09.000Z</time></trkpt><trkpt lon="5.733278" lat="50.926929"><ele>25.2</ele><time>2022-06-26T07:13:10.000Z</time></trkpt><trkpt lon="5.733211" lat="50.926857"><ele>25.2</ele><time>2022-06-26T07:13:11.000Z</time></trkpt><trkpt lon="5.733178" lat="50.926819"><ele>25.2</ele><time>2022-06-26T07:13:12.000Z</time></trkpt><trkpt lon="5.733116" lat="50.92675"><ele>25.2</ele><time>2022-06-26T07:13:13.000Z</time></trkpt><trkpt lon="5.733076" lat="50.926707"><ele>25.2</ele><time>2022-06-26T07:13:14.000Z</time></trkpt><trkpt lon="5.733012" lat="50.926639"><ele>25.2</ele><time>2022-06-26T07:13:15.000Z</time></trkpt><trkpt lon="5.732981" lat="50.926604"><ele>25</ele><time>2022-06-26T07:13:16.000Z</time></trkpt><trkpt lon="5.7329" lat="50.926524"><ele>25</ele><time>2022-06-26T07:13:17.000Z</time></trkpt><trkpt lon="5.732856" lat="50.926482"><ele>25</ele><time>2022-06-26T07:13:18.000Z</time></trkpt><trkpt lon="5.732769" lat="50.926406"><ele>25</ele><time>2022-06-26T07:13:19.000Z</time></trkpt><trkpt lon="5.732726" lat="50.926365"><ele>24.8</ele><time>2022-06-26T07:13:20.000Z</time></trkpt><trkpt lon="5.732641" lat="50.926284"><ele>24.6</ele><time>2022-06-26T07:13:21.000Z</time></trkpt><trkpt lon="5.732593" lat="50.926243"><ele>24.6</ele><time>2022-06-26T07:13:22.000Z</time></trkpt><trkpt lon="5.732509" lat="50.926166"><ele>24.8</ele><time>2022-06-26T07:13:23.000Z</time></trkpt><trkpt lon="5.732465" lat="50.926127"><ele>24.8</ele><time>2022-06-26T07:13:24.000Z</time></trkpt><trkpt lon="5.732372" lat="50.926047"><ele>25</ele><time>2022-06-26T07:13:25.000Z</time></trkpt><trkpt lon="5.732325" lat="50.926005"><ele>25</ele><time>2022-06-26T07:13:26.000Z</time></trkpt><trkpt lon="5.732234" lat="50.925926"><ele>25</ele><time>2022-06-26T07:13:27.000Z</time></trkpt><trkpt lon="5.732194" lat="50.925889"><ele>25</ele><time>2022-06-26T07:13:28.000Z</time></trkpt><trkpt lon="5.732099" lat="50.925804"><ele>25</ele><time>2022-06-26T07:13:29.000Z</time></trkpt><trkpt lon="5.732054" lat="50.925765"><ele>25</ele><time>2022-06-26T07:13:30.000Z</time></trkpt><trkpt lon="5.731966" lat="50.925689"><ele>25</ele><time>2022-06-26T07:13:31.000Z</time></trkpt><trkpt lon="5.731916" lat="50.925644"><ele>25</ele><time>2022-06-26T07:13:32.000Z</time></trkpt><trkpt lon="5.731836" lat="50.925571"><ele>25</ele><time>2022-06-26T07:13:33.000Z</time></trkpt><trkpt lon="5.731794" lat="50.925534"><ele>25</ele><time>2022-06-26T07:13:34.000Z</time></trkpt><trkpt lon="5.731711" lat="50.925456"><ele>25</ele><time>2022-06-26T07:13:35.000Z</time></trkpt><trkpt lon="5.731672" lat="50.92542"><ele>25.2</ele><time>2022-06-26T07:13:36.000Z</time></trkpt><trkpt lon="5.731591" lat="50.925345"><ele>25.2</ele><time>2022-06-26T07:13:37.000Z</time></trkpt><trkpt lon="5.731553" lat="50.925313"><ele>25.2</ele><time>2022-06-26T07:13:38.000Z</time></trkpt><trkpt lon="5.731473" lat="50.925239"><ele>25.2</ele><time>2022-06-26T07:13:39.000Z</time></trkpt><trkpt lon="5.731436" lat="50.925206"><ele>25.2</ele><time>2022-06-26T07:13:40.000Z</time></trkpt><trkpt lon="5.731363" lat="50.925144"><ele>25.4</ele><time>2022-06-26T07:13:41.000Z</time></trkpt><trkpt lon="5.731329" lat="50.925113"><ele>25.4</ele><time>2022-06-26T07:13:42.000Z</time></trkpt><trkpt lon="5.731271" lat="50.92506"><ele>25.4</ele><time>2022-06-26T07:13:43.000Z</time></trkpt><trkpt lon="5.731252" lat="50.925038"><ele>25.4</ele><time>2022-06-26T07:13:44.000Z</time></trkpt><trkpt lon="5.731236" lat="50.924987"><ele>25.4</ele><time>2022-06-26T07:13:45.000Z</time></trkpt><trkpt lon="5.731261" lat="50.924953"><ele>25.4</ele><time>2022-06-26T07:13:46.000Z</time></trkpt><trkpt lon="5.731302" lat="50.92493"><ele>25.4</ele><time>2022-06-26T07:13:47.000Z</time></trkpt><trkpt lon="5.731391" lat="50.9249"><ele>25.4</ele><time>2022-06-26T07:13:48.000Z</time></trkpt><trkpt lon="5.731442" lat="50.924886"><ele>25.6</ele><time>2022-06-26T07:13:49.000Z</time></trkpt><trkpt lon="5.731565" lat="50.924854"><ele>25.6</ele><time>2022-06-26T07:13:50.000Z</time></trkpt><trkpt lon="5.731626" lat="50.924839"><ele>25.6</ele><time>2022-06-26T07:13:51.000Z</time></trkpt><trkpt lon="5.731751" lat="50.924808"><ele>25.6</ele><time>2022-06-26T07:13:52.000Z</time></trkpt><trkpt lon="5.731815" lat="50.92479"><ele>25.8</ele><time>2022-06-26T07:13:53.000Z</time></trkpt><trkpt lon="5.731944" lat="50.924759"><ele>25.8</ele><time>2022-06-26T07:13:54.000Z</time></trkpt><trkpt lon="5.73202" lat="50.924736"><ele>25.6</ele><time>2022-06-26T07:13:55.000Z</time></trkpt><trkpt lon="5.732147" lat="50.924701"><ele>25.6</ele><time>2022-06-26T07:13:56.000Z</time></trkpt><trkpt lon="5.73222" lat="50.924683"><ele>25.6</ele><time>2022-06-26T07:13:57.000Z</time></trkpt><trkpt lon="5.732355" lat="50.924648"><ele>25.6</ele><time>2022-06-26T07:13:58.000Z</time></trkpt><trkpt lon="5.732417" lat="50.924628"><ele>25.6</ele><time>2022-06-26T07:13:59.000Z</time></trkpt><trkpt lon="5.732552" lat="50.924587"><ele>25.6</ele><time>2022-06-26T07:14:00.000Z</time></trkpt><trkpt lon="5.732623" lat="50.924566"><ele>25.4</ele><time>2022-06-26T07:14:01.000Z</time></trkpt><trkpt lon="5.732767" lat="50.924526"><ele>25.4</ele><time>2022-06-26T07:14:02.000Z</time></trkpt><trkpt lon="5.73284" lat="50.92451"><ele>25.2</ele><time>2022-06-26T07:14:03.000Z</time></trkpt><trkpt lon="5.732985" lat="50.92448"><ele>25.2</ele><time>2022-06-26T07:14:04.000Z</time></trkpt><trkpt lon="5.733058" lat="50.924468"><ele>25.2</ele><time>2022-06-26T07:14:05.000Z</time></trkpt><trkpt lon="5.733197" lat="50.92444"><ele>25.2</ele><time>2022-06-26T07:14:06.000Z</time></trkpt><trkpt lon="5.733278" lat="50.924428"><ele>25.2</ele><time>2022-06-26T07:14:07.000Z</time></trkpt><trkpt lon="5.73342" lat="50.924404"><ele>25.2</ele><time>2022-06-26T07:14:08.000Z</time></trkpt><trkpt lon="5.733488" lat="50.924395"><ele>25.2</ele><time>2022-06-26T07:14:09.000Z</time></trkpt><trkpt lon="5.733646" lat="50.924374"><ele>25.2</ele><time>2022-06-26T07:14:10.000Z</time></trkpt><trkpt lon="5.733723" lat="50.924366"><ele>25.2</ele><time>2022-06-26T07:14:11.000Z</time></trkpt><trkpt lon="5.733876" lat="50.924351"><ele>25.2</ele><time>2022-06-26T07:14:12.000Z</time></trkpt><trkpt lon="5.733946" lat="50.924341"><ele>25.2</ele><time>2022-06-26T07:14:13.000Z</time></trkpt><trkpt lon="5.734098" lat="50.92432"><ele>25.2</ele><time>2022-06-26T07:14:14.000Z</time></trkpt><trkpt lon="5.734163" lat="50.924308"><ele>25</ele><time>2022-06-26T07:14:15.000Z</time></trkpt><trkpt lon="5.734312" lat="50.924278"><ele>25</ele><time>2022-06-26T07:14:16.000Z</time></trkpt><trkpt lon="5.734392" lat="50.924264"><ele>25</ele><time>2022-06-26T07:14:17.000Z</time></trkpt><trkpt lon="5.73454" lat="50.92424"><ele>25</ele><time>2022-06-26T07:14:18.000Z</time></trkpt><trkpt lon="5.734617" lat="50.924225"><ele>25</ele><time>2022-06-26T07:14:19.000Z</time></trkpt><trkpt lon="5.73478" lat="50.924198"><ele>25</ele><time>2022-06-26T07:14:20.000Z</time></trkpt><trkpt lon="5.734852" lat="50.924182"><ele>25</ele><time>2022-06-26T07:14:21.000Z</time></trkpt><trkpt lon="5.735015" lat="50.924152"><ele>25</ele><time>2022-06-26T07:14:22.000Z</time></trkpt><trkpt lon="5.735085" lat="50.924138"><ele>24.8</ele><time>2022-06-26T07:14:23.000Z</time></trkpt><trkpt lon="5.735236" lat="50.924106"><ele>24.8</ele><time>2022-06-26T07:14:24.000Z</time></trkpt><trkpt lon="5.735304" lat="50.924089"><ele>24.8</ele><time>2022-06-26T07:14:25.000Z</time></trkpt><trkpt lon="5.735446" lat="50.924061"><ele>24.8</ele><time>2022-06-26T07:14:26.000Z</time></trkpt><trkpt lon="5.735517" lat="50.924045"><ele>24.8</ele><time>2022-06-26T07:14:27.000Z</time></trkpt><trkpt lon="5.735643" lat="50.924019"><ele>24.8</ele><time>2022-06-26T07:14:28.000Z</time></trkpt><trkpt lon="5.735708" lat="50.924005"><ele>25</ele><time>2022-06-26T07:14:29.000Z</time></trkpt><trkpt lon="5.735821" lat="50.92398"><ele>25</ele><time>2022-06-26T07:14:30.000Z</time></trkpt><trkpt lon="5.735872" lat="50.923971"><ele>25</ele><time>2022-06-26T07:14:31.000Z</time></trkpt><trkpt lon="5.735984" lat="50.92395"><ele>25</ele><time>2022-06-26T07:14:32.000Z</time></trkpt><trkpt lon="5.736039" lat="50.923934"><ele>25</ele><time>2022-06-26T07:14:33.000Z</time></trkpt><trkpt lon="5.736119" lat="50.9239"><ele>25</ele><time>2022-06-26T07:14:34.000Z</time></trkpt><trkpt lon="5.736138" lat="50.923868"><ele>25</ele><time>2022-06-26T07:14:35.000Z</time></trkpt><trkpt lon="5.736135" lat="50.923794"><ele>25</ele><time>2022-06-26T07:14:36.000Z</time></trkpt><trkpt lon="5.736111" lat="50.923751"><ele>25</ele><time>2022-06-26T07:14:37.000Z</time></trkpt><trkpt lon="5.736053" lat="50.923671"><ele>24.8</ele><time>2022-06-26T07:14:38.000Z</time></trkpt><trkpt lon="5.736024" lat="50.923633"><ele>24.8</ele><time>2022-06-26T07:14:39.000Z</time></trkpt><trkpt lon="5.735946" lat="50.923533"><ele>24.8</ele><time>2022-06-26T07:14:40.000Z</time></trkpt><trkpt lon="5.73591" lat="50.923488"><ele>24.8</ele><time>2022-06-26T07:14:41.000Z</time></trkpt><trkpt lon="5.735828" lat="50.923388"><ele>24.8</ele><time>2022-06-26T07:14:42.000Z</time></trkpt><trkpt lon="5.735789" lat="50.923346"><ele>24.8</ele><time>2022-06-26T07:14:43.000Z</time></trkpt><trkpt lon="5.735704" lat="50.923247"><ele>24.6</ele><time>2022-06-26T07:14:44.000Z</time></trkpt><trkpt lon="5.735661" lat="50.9232"><ele>24.6</ele><time>2022-06-26T07:14:45.000Z</time></trkpt><trkpt lon="5.735586" lat="50.923114"><ele>24.4</ele><time>2022-06-26T07:14:46.000Z</time></trkpt><trkpt lon="5.735546" lat="50.923069"><ele>24.4</ele><time>2022-06-26T07:14:47.000Z</time></trkpt><trkpt lon="5.735473" lat="50.922985"><ele>24.4</ele><time>2022-06-26T07:14:48.000Z</time></trkpt><trkpt lon="5.735441" lat="50.922945"><ele>24.4</ele><time>2022-06-26T07:14:49.000Z</time></trkpt><trkpt lon="5.735369" lat="50.922865"><ele>24.2</ele><time>2022-06-26T07:14:50.000Z</time></trkpt><trkpt lon="5.73533" lat="50.922818"><ele>24.4</ele><time>2022-06-26T07:14:51.000Z</time></trkpt><trkpt lon="5.735259" lat="50.922737"><ele>24.4</ele><time>2022-06-26T07:14:52.000Z</time></trkpt><trkpt lon="5.735228" lat="50.922702"><ele>24.2</ele><time>2022-06-26T07:14:53.000Z</time></trkpt><trkpt lon="5.735152" lat="50.922614"><ele>24.2</ele><time>2022-06-26T07:14:54.000Z</time></trkpt><trkpt lon="5.735114" lat="50.922571"><ele>24.2</ele><time>2022-06-26T07:14:55.000Z</time></trkpt><trkpt lon="5.735046" lat="50.922492"><ele>24.2</ele><time>2022-06-26T07:14:56.000Z</time></trkpt><trkpt lon="5.735016" lat="50.922458"><ele>24.2</ele><time>2022-06-26T07:14:57.000Z</time></trkpt><trkpt lon="5.734939" lat="50.92237"><ele>24.2</ele><time>2022-06-26T07:14:58.000Z</time></trkpt><trkpt lon="5.734903" lat="50.922329"><ele>24.2</ele><time>2022-06-26T07:14:59.000Z</time></trkpt><trkpt lon="5.734834" lat="50.922252"><ele>24.2</ele><time>2022-06-26T07:15:00.000Z</time></trkpt><trkpt lon="5.734798" lat="50.92221"><ele>24.2</ele><time>2022-06-26T07:15:01.000Z</time></trkpt><trkpt lon="5.73473" lat="50.922127"><ele>24.2</ele><time>2022-06-26T07:15:02.000Z</time></trkpt><trkpt lon="5.7347" lat="50.922095"><ele>24.2</ele><time>2022-06-26T07:15:03.000Z</time></trkpt><trkpt lon="5.734623" lat="50.922007"><ele>24.2</ele><time>2022-06-26T07:15:04.000Z</time></trkpt><trkpt lon="5.734587" lat="50.921967"><ele>24.2</ele><time>2022-06-26T07:15:05.000Z</time></trkpt><trkpt lon="5.734516" lat="50.921882"><ele>24.2</ele><time>2022-06-26T07:15:06.000Z</time></trkpt><trkpt lon="5.734482" lat="50.921843"><ele>24.2</ele><time>2022-06-26T07:15:07.000Z</time></trkpt><trkpt lon="5.734409" lat="50.92176"><ele>24.2</ele><time>2022-06-26T07:15:08.000Z</time></trkpt><trkpt lon="5.734384" lat="50.921728"><ele>24.2</ele><time>2022-06-26T07:15:09.000Z</time></trkpt><trkpt lon="5.734358" lat="50.921697"><ele>24.2</ele><time>2022-06-26T07:15:10.000Z</time></trkpt><trkpt lon="5.734275" lat="50.921602"><ele>24.2</ele><time>2022-06-26T07:15:11.000Z</time></trkpt><trkpt lon="5.734192" lat="50.921508"><ele>24.2</ele><time>2022-06-26T07:15:12.000Z</time></trkpt><trkpt lon="5.734138" lat="50.921447"><ele>24</ele><time>2022-06-26T07:15:13.000Z</time></trkpt><trkpt lon="5.734085" lat="50.921382"><ele>24</ele><time>2022-06-26T07:15:14.000Z</time></trkpt><trkpt lon="5.73403" lat="50.92132"><ele>24</ele><time>2022-06-26T07:15:15.000Z</time></trkpt><trkpt lon="5.733978" lat="50.921257"><ele>24</ele><time>2022-06-26T07:15:16.000Z</time></trkpt><trkpt lon="5.733922" lat="50.921195"><ele>24</ele><time>2022-06-26T07:15:17.000Z</time></trkpt><trkpt lon="5.733869" lat="50.92113"><ele>24</ele><time>2022-06-26T07:15:18.000Z</time></trkpt><trkpt lon="5.733812" lat="50.921069"><ele>24</ele><time>2022-06-26T07:15:19.000Z</time></trkpt><trkpt lon="5.733758" lat="50.921008"><ele>24.2</ele><time>2022-06-26T07:15:20.000Z</time></trkpt><trkpt lon="5.733704" lat="50.920947"><ele>24.2</ele><time>2022-06-26T07:15:21.000Z</time></trkpt><trkpt lon="5.73365" lat="50.920882"><ele>24.2</ele><time>2022-06-26T07:15:22.000Z</time></trkpt><trkpt lon="5.733596" lat="50.920822"><ele>24.2</ele><time>2022-06-26T07:15:23.000Z</time></trkpt><trkpt lon="5.733541" lat="50.92076"><ele>24.2</ele><time>2022-06-26T07:15:24.000Z</time></trkpt><trkpt lon="5.733486" lat="50.920699"><ele>24.2</ele><time>2022-06-26T07:15:25.000Z</time></trkpt><trkpt lon="5.733436" lat="50.920643"><ele>24.2</ele><time>2022-06-26T07:15:26.000Z</time></trkpt><trkpt lon="5.733379" lat="50.920577"><ele>24.2</ele><time>2022-06-26T07:15:27.000Z</time></trkpt><trkpt lon="5.733325" lat="50.920513"><ele>24.2</ele><time>2022-06-26T07:15:28.000Z</time></trkpt><trkpt lon="5.73327" lat="50.920452"><ele>24.2</ele><time>2022-06-26T07:15:29.000Z</time></trkpt><trkpt lon="5.733214" lat="50.92039"><ele>24.2</ele><time>2022-06-26T07:15:30.000Z</time></trkpt><trkpt lon="5.733163" lat="50.920329"><ele>24.4</ele><time>2022-06-26T07:15:31.000Z</time></trkpt><trkpt lon="5.733111" lat="50.920272"><ele>24.4</ele><time>2022-06-26T07:15:32.000Z</time></trkpt><trkpt lon="5.733061" lat="50.920211"><ele>24.6</ele><time>2022-06-26T07:15:33.000Z</time></trkpt><trkpt lon="5.733011" lat="50.920154"><ele>24.6</ele><time>2022-06-26T07:15:34.000Z</time></trkpt><trkpt lon="5.732963" lat="50.9201"><ele>24.6</ele><time>2022-06-26T07:15:35.000Z</time></trkpt><trkpt lon="5.732914" lat="50.920042"><ele>24.8</ele><time>2022-06-26T07:15:36.000Z</time></trkpt><trkpt lon="5.732866" lat="50.919986"><ele>24.8</ele><time>2022-06-26T07:15:37.000Z</time></trkpt><trkpt lon="5.732815" lat="50.919928"><ele>24.8</ele><time>2022-06-26T07:15:38.000Z</time></trkpt><trkpt lon="5.732763" lat="50.919868"><ele>24.8</ele><time>2022-06-26T07:15:39.000Z</time></trkpt><trkpt lon="5.73271" lat="50.919806"><ele>24.8</ele><time>2022-06-26T07:15:40.000Z</time></trkpt><trkpt lon="5.732658" lat="50.919746"><ele>24.8</ele><time>2022-06-26T07:15:41.000Z</time></trkpt><trkpt lon="5.732604" lat="50.91968"><ele>25</ele><time>2022-06-26T07:15:42.000Z</time></trkpt><trkpt lon="5.732549" lat="50.919612"><ele>25</ele><time>2022-06-26T07:15:43.000Z</time></trkpt><trkpt lon="5.732493" lat="50.919544"><ele>24.8</ele><time>2022-06-26T07:15:44.000Z</time></trkpt><trkpt lon="5.732434" lat="50.91947"><ele>24.8</ele><time>2022-06-26T07:15:45.000Z</time></trkpt><trkpt lon="5.732376" lat="50.919406"><ele>24.8</ele><time>2022-06-26T07:15:46.000Z</time></trkpt><trkpt lon="5.732315" lat="50.919337"><ele>24.6</ele><time>2022-06-26T07:15:47.000Z</time></trkpt><trkpt lon="5.732259" lat="50.919272"><ele>24.6</ele><time>2022-06-26T07:15:48.000Z</time></trkpt><trkpt lon="5.7322" lat="50.919207"><ele>24.4</ele><time>2022-06-26T07:15:49.000Z</time></trkpt><trkpt lon="5.732152" lat="50.919147"><ele>24.2</ele><time>2022-06-26T07:15:50.000Z</time></trkpt><trkpt lon="5.732087" lat="50.919074"><ele>24.2</ele><time>2022-06-26T07:15:51.000Z</time></trkpt><trkpt lon="5.732032" lat="50.919008"><ele>24.2</ele><time>2022-06-26T07:15:52.000Z</time></trkpt><trkpt lon="5.731975" lat="50.918944"><ele>24.4</ele><time>2022-06-26T07:15:53.000Z</time></trkpt><trkpt lon="5.731918" lat="50.918883"><ele>24.4</ele><time>2022-06-26T07:15:54.000Z</time></trkpt><trkpt lon="5.731862" lat="50.918818"><ele>24.2</ele><time>2022-06-26T07:15:55.000Z</time></trkpt><trkpt lon="5.73181" lat="50.91876"><ele>24.2</ele><time>2022-06-26T07:15:56.000Z</time></trkpt><trkpt lon="5.73175" lat="50.918692"><ele>24.2</ele><time>2022-06-26T07:15:57.000Z</time></trkpt><trkpt lon="5.731695" lat="50.918627"><ele>24.2</ele><time>2022-06-26T07:15:58.000Z</time></trkpt><trkpt lon="5.731642" lat="50.918563"><ele>24</ele><time>2022-06-26T07:15:59.000Z</time></trkpt><trkpt lon="5.731587" lat="50.918501"><ele>24</ele><time>2022-06-26T07:16:00.000Z</time></trkpt><trkpt lon="5.731534" lat="50.918437"><ele>24</ele><time>2022-06-26T07:16:01.000Z</time></trkpt><trkpt lon="5.731477" lat="50.918375"><ele>24</ele><time>2022-06-26T07:16:02.000Z</time></trkpt><trkpt lon="5.731422" lat="50.918311"><ele>24.2</ele><time>2022-06-26T07:16:03.000Z</time></trkpt><trkpt lon="5.731366" lat="50.91825"><ele>24.2</ele><time>2022-06-26T07:16:04.000Z</time></trkpt><trkpt lon="5.731311" lat="50.918185"><ele>24.4</ele><time>2022-06-26T07:16:05.000Z</time></trkpt><trkpt lon="5.731261" lat="50.91813"><ele>24.4</ele><time>2022-06-26T07:16:06.000Z</time></trkpt><trkpt lon="5.731203" lat="50.91806"><ele>24.2</ele><time>2022-06-26T07:16:07.000Z</time></trkpt><trkpt lon="5.731147" lat="50.917998"><ele>24.2</ele><time>2022-06-26T07:16:08.000Z</time></trkpt><trkpt lon="5.731092" lat="50.917933"><ele>24.2</ele><time>2022-06-26T07:16:09.000Z</time></trkpt><trkpt lon="5.731041" lat="50.917873"><ele>24</ele><time>2022-06-26T07:16:10.000Z</time></trkpt><trkpt lon="5.730989" lat="50.917807"><ele>24</ele><time>2022-06-26T07:16:11.000Z</time></trkpt><trkpt lon="5.730938" lat="50.917746"><ele>24.2</ele><time>2022-06-26T07:16:12.000Z</time></trkpt><trkpt lon="5.730883" lat="50.917682"><ele>24.2</ele><time>2022-06-26T07:16:13.000Z</time></trkpt><trkpt lon="5.730827" lat="50.917616"><ele>24.2</ele><time>2022-06-26T07:16:14.000Z</time></trkpt><trkpt lon="5.730774" lat="50.917556"><ele>24.2</ele><time>2022-06-26T07:16:15.000Z</time></trkpt><trkpt lon="5.730728" lat="50.917504"><ele>24.2</ele><time>2022-06-26T07:16:16.000Z</time></trkpt><trkpt lon="5.730666" lat="50.917433"><ele>24.4</ele><time>2022-06-26T07:16:17.000Z</time></trkpt><trkpt lon="5.730615" lat="50.917372"><ele>24.4</ele><time>2022-06-26T07:16:18.000Z</time></trkpt><trkpt lon="5.730569" lat="50.917319"><ele>24.4</ele><time>2022-06-26T07:16:19.000Z</time></trkpt><trkpt lon="5.730523" lat="50.917268"><ele>24.6</ele><time>2022-06-26T07:16:20.000Z</time></trkpt><trkpt lon="5.730476" lat="50.917213"><ele>24.8</ele><time>2022-06-26T07:16:21.000Z</time></trkpt><trkpt lon="5.730439" lat="50.91717"><ele>25</ele><time>2022-06-26T07:16:22.000Z</time></trkpt><trkpt lon="5.73039" lat="50.917114"><ele>25.2</ele><time>2022-06-26T07:16:23.000Z</time></trkpt><trkpt lon="5.730355" lat="50.917073"><ele>25.6</ele><time>2022-06-26T07:16:24.000Z</time></trkpt><trkpt lon="5.730305" lat="50.91701"><ele>25.8</ele><time>2022-06-26T07:16:25.000Z</time></trkpt><trkpt lon="5.730265" lat="50.916964"><ele>26</ele><time>2022-06-26T07:16:26.000Z</time></trkpt><trkpt lon="5.730208" lat="50.916899"><ele>26</ele><time>2022-06-26T07:16:27.000Z</time></trkpt><trkpt lon="5.730155" lat="50.916834"><ele>26</ele><time>2022-06-26T07:16:28.000Z</time></trkpt><trkpt lon="5.730101" lat="50.91677"><ele>25.6</ele><time>2022-06-26T07:16:29.000Z</time></trkpt><trkpt lon="5.730052" lat="50.916712"><ele>25.4</ele><time>2022-06-26T07:16:30.000Z</time></trkpt><trkpt lon="5.729982" lat="50.916629"><ele>25.2</ele><time>2022-06-26T07:16:31.000Z</time></trkpt><trkpt lon="5.729923" lat="50.916566"><ele>25</ele><time>2022-06-26T07:16:32.000Z</time></trkpt><trkpt lon="5.729861" lat="50.916495"><ele>25</ele><time>2022-06-26T07:16:33.000Z</time></trkpt><trkpt lon="5.729804" lat="50.916431"><ele>24.8</ele><time>2022-06-26T07:16:34.000Z</time></trkpt><trkpt lon="5.729739" lat="50.916358"><ele>24.8</ele><time>2022-06-26T07:16:35.000Z</time></trkpt><trkpt lon="5.729678" lat="50.916289"><ele>24.6</ele><time>2022-06-26T07:16:36.000Z</time></trkpt><trkpt lon="5.729619" lat="50.916221"><ele>24.6</ele><time>2022-06-26T07:16:37.000Z</time></trkpt><trkpt lon="5.729566" lat="50.916158"><ele>24.6</ele><time>2022-06-26T07:16:38.000Z</time></trkpt><trkpt lon="5.729501" lat="50.916085"><ele>24.6</ele><time>2022-06-26T07:16:39.000Z</time></trkpt><trkpt lon="5.729442" lat="50.916014"><ele>24.6</ele><time>2022-06-26T07:16:40.000Z</time></trkpt><trkpt lon="5.729384" lat="50.915946"><ele>24.4</ele><time>2022-06-26T07:16:41.000Z</time></trkpt><trkpt lon="5.729334" lat="50.915891"><ele>24.4</ele><time>2022-06-26T07:16:42.000Z</time></trkpt><trkpt lon="5.729271" lat="50.915816"><ele>24.2</ele><time>2022-06-26T07:16:43.000Z</time></trkpt><trkpt lon="5.729217" lat="50.915753"><ele>24.2</ele><time>2022-06-26T07:16:44.000Z</time></trkpt><trkpt lon="5.729164" lat="50.91569"><ele>24.4</ele><time>2022-06-26T07:16:45.000Z</time></trkpt><trkpt lon="5.729114" lat="50.915633"><ele>24.4</ele><time>2022-06-26T07:16:46.000Z</time></trkpt><trkpt lon="5.729056" lat="50.915568"><ele>24.4</ele><time>2022-06-26T07:16:47.000Z</time></trkpt><trkpt lon="5.729007" lat="50.915509"><ele>24.4</ele><time>2022-06-26T07:16:48.000Z</time></trkpt><trkpt lon="5.728955" lat="50.915455"><ele>24.4</ele><time>2022-06-26T07:16:49.000Z</time></trkpt><trkpt lon="5.728915" lat="50.91541"><ele>24.4</ele><time>2022-06-26T07:16:50.000Z</time></trkpt><trkpt lon="5.728868" lat="50.915359"><ele>24.4</ele><time>2022-06-26T07:16:51.000Z</time></trkpt><trkpt lon="5.72883" lat="50.915315"><ele>24.6</ele><time>2022-06-26T07:16:52.000Z</time></trkpt><trkpt lon="5.728791" lat="50.915271"><ele>24.6</ele><time>2022-06-26T07:16:53.000Z</time></trkpt><trkpt lon="5.728773" lat="50.915235"><ele>24.6</ele><time>2022-06-26T07:16:54.000Z</time></trkpt><trkpt lon="5.728765" lat="50.915183"><ele>24.4</ele><time>2022-06-26T07:16:55.000Z</time></trkpt><trkpt lon="5.728789" lat="50.915137"><ele>24.4</ele><time>2022-06-26T07:16:56.000Z</time></trkpt><trkpt lon="5.728829" lat="50.915096"><ele>24.4</ele><time>2022-06-26T07:16:57.000Z</time></trkpt><trkpt lon="5.728884" lat="50.915053"><ele>24.4</ele><time>2022-06-26T07:16:58.000Z</time></trkpt><trkpt lon="5.728941" lat="50.915012"><ele>24.2</ele><time>2022-06-26T07:16:59.000Z</time></trkpt><trkpt lon="5.729001" lat="50.914975"><ele>24.2</ele><time>2022-06-26T07:17:00.000Z</time></trkpt><trkpt lon="5.729082" lat="50.914931"><ele>24.2</ele><time>2022-06-26T07:17:01.000Z</time></trkpt><trkpt lon="5.729148" lat="50.914895"><ele>24.2</ele><time>2022-06-26T07:17:02.000Z</time></trkpt><trkpt lon="5.72922" lat="50.914855"><ele>24.2</ele><time>2022-06-26T07:17:03.000Z</time></trkpt><trkpt lon="5.729283" lat="50.914825"><ele>24.2</ele><time>2022-06-26T07:17:04.000Z</time></trkpt><trkpt lon="5.729363" lat="50.914783"><ele>24.2</ele><time>2022-06-26T07:17:05.000Z</time></trkpt><trkpt lon="5.729418" lat="50.914748"><ele>24.2</ele><time>2022-06-26T07:17:06.000Z</time></trkpt><trkpt lon="5.729496" lat="50.914699"><ele>24.2</ele><time>2022-06-26T07:17:07.000Z</time></trkpt><trkpt lon="5.729564" lat="50.914649"><ele>24.2</ele><time>2022-06-26T07:17:08.000Z</time></trkpt><trkpt lon="5.729639" lat="50.914599"><ele>24.2</ele><time>2022-06-26T07:17:09.000Z</time></trkpt><trkpt lon="5.729716" lat="50.914552"><ele>24.4</ele><time>2022-06-26T07:17:10.000Z</time></trkpt><trkpt lon="5.729798" lat="50.914504"><ele>24.6</ele><time>2022-06-26T07:17:11.000Z</time></trkpt><trkpt lon="5.729857" lat="50.914466"><ele>24.8</ele><time>2022-06-26T07:17:12.000Z</time></trkpt><trkpt lon="5.729933" lat="50.91442"><ele>25</ele><time>2022-06-26T07:17:13.000Z</time></trkpt><trkpt lon="5.729983" lat="50.914388"><ele>25.2</ele><time>2022-06-26T07:17:14.000Z</time></trkpt><trkpt lon="5.730044" lat="50.914348"><ele>25.4</ele><time>2022-06-26T07:17:15.000Z</time></trkpt><trkpt lon="5.730071" lat="50.914306"><ele>25.4</ele><time>2022-06-26T07:17:16.000Z</time></trkpt><trkpt lon="5.730068" lat="50.91426"><ele>25.4</ele><time>2022-06-26T07:17:17.000Z</time></trkpt><trkpt lon="5.730041" lat="50.914207"><ele>25.4</ele><time>2022-06-26T07:17:18.000Z</time></trkpt><trkpt lon="5.730008" lat="50.914146"><ele>25</ele><time>2022-06-26T07:17:19.000Z</time></trkpt><trkpt lon="5.729965" lat="50.914073"><ele>24.8</ele><time>2022-06-26T07:17:20.000Z</time></trkpt><trkpt lon="5.729928" lat="50.914013"><ele>24.6</ele><time>2022-06-26T07:17:21.000Z</time></trkpt><trkpt lon="5.729866" lat="50.91392"><ele>24.4</ele><time>2022-06-26T07:17:22.000Z</time></trkpt><trkpt lon="5.729817" lat="50.913851"><ele>24.2</ele><time>2022-06-26T07:17:23.000Z</time></trkpt><trkpt lon="5.729754" lat="50.913768"><ele>23.8</ele><time>2022-06-26T07:17:24.000Z</time></trkpt><trkpt lon="5.729703" lat="50.913711"><ele>23.8</ele><time>2022-06-26T07:17:25.000Z</time></trkpt><trkpt lon="5.729629" lat="50.913626"><ele>23.8</ele><time>2022-06-26T07:17:26.000Z</time></trkpt><trkpt lon="5.729574" lat="50.913562"><ele>23.8</ele><time>2022-06-26T07:17:27.000Z</time></trkpt><trkpt lon="5.729507" lat="50.913485"><ele>23.8</ele><time>2022-06-26T07:17:28.000Z</time></trkpt><trkpt lon="5.729449" lat="50.913412"><ele>23.8</ele><time>2022-06-26T07:17:29.000Z</time></trkpt><trkpt lon="5.729393" lat="50.913344"><ele>23.6</ele><time>2022-06-26T07:17:30.000Z</time></trkpt><trkpt lon="5.729341" lat="50.913284"><ele>23.6</ele><time>2022-06-26T07:17:31.000Z</time></trkpt><trkpt lon="5.729277" lat="50.91321"><ele>23.6</ele><time>2022-06-26T07:17:32.000Z</time></trkpt><trkpt lon="5.729222" lat="50.913142"><ele>23.6</ele><time>2022-06-26T07:17:33.000Z</time></trkpt><trkpt lon="5.729164" lat="50.913077"><ele>23.6</ele><time>2022-06-26T07:17:34.000Z</time></trkpt><trkpt lon="5.729117" lat="50.913024"><ele>23.6</ele><time>2022-06-26T07:17:35.000Z</time></trkpt><trkpt lon="5.729046" lat="50.912943"><ele>23.6</ele><time>2022-06-26T07:17:36.000Z</time></trkpt><trkpt lon="5.728992" lat="50.91288"><ele>23.6</ele><time>2022-06-26T07:17:37.000Z</time></trkpt><trkpt lon="5.728931" lat="50.91281"><ele>23.6</ele><time>2022-06-26T07:17:38.000Z</time></trkpt><trkpt lon="5.728886" lat="50.912756"><ele>23.6</ele><time>2022-06-26T07:17:39.000Z</time></trkpt><trkpt lon="5.728817" lat="50.912677"><ele>23.8</ele><time>2022-06-26T07:17:40.000Z</time></trkpt><trkpt lon="5.728768" lat="50.912619"><ele>23.8</ele><time>2022-06-26T07:17:41.000Z</time></trkpt><trkpt lon="5.728708" lat="50.912547"><ele>23.4</ele><time>2022-06-26T07:17:42.000Z</time></trkpt><trkpt lon="5.728659" lat="50.912488"><ele>23.4</ele><time>2022-06-26T07:17:43.000Z</time></trkpt><trkpt lon="5.728601" lat="50.912417"><ele>23.4</ele><time>2022-06-26T07:17:44.000Z</time></trkpt><trkpt lon="5.728558" lat="50.912361"><ele>23.4</ele><time>2022-06-26T07:17:45.000Z</time></trkpt><trkpt lon="5.728497" lat="50.912291"><ele>23.6</ele><time>2022-06-26T07:17:46.000Z</time></trkpt><trkpt lon="5.728447" lat="50.912226"><ele>23.6</ele><time>2022-06-26T07:17:47.000Z</time></trkpt><trkpt lon="5.728403" lat="50.912166"><ele>23.6</ele><time>2022-06-26T07:17:48.000Z</time></trkpt><trkpt lon="5.728363" lat="50.912105"><ele>23.6</ele><time>2022-06-26T07:17:49.000Z</time></trkpt><trkpt lon="5.728321" lat="50.912047"><ele>23.8</ele><time>2022-06-26T07:17:50.000Z</time></trkpt><trkpt lon="5.728282" lat="50.911997"><ele>23.8</ele><time>2022-06-26T07:17:51.000Z</time></trkpt><trkpt lon="5.728229" lat="50.911929"><ele>24</ele><time>2022-06-26T07:17:52.000Z</time></trkpt><trkpt lon="5.72819" lat="50.911875"><ele>24</ele><time>2022-06-26T07:17:53.000Z</time></trkpt><trkpt lon="5.728137" lat="50.911807"><ele>24</ele><time>2022-06-26T07:17:54.000Z</time></trkpt><trkpt lon="5.728095" lat="50.911751"><ele>24</ele><time>2022-06-26T07:17:55.000Z</time></trkpt><trkpt lon="5.728034" lat="50.911677"><ele>24</ele><time>2022-06-26T07:17:56.000Z</time></trkpt><trkpt lon="5.727981" lat="50.911608"><ele>24</ele><time>2022-06-26T07:17:57.000Z</time></trkpt><trkpt lon="5.72793" lat="50.91154"><ele>24</ele><time>2022-06-26T07:17:58.000Z</time></trkpt><trkpt lon="5.727881" lat="50.911476"><ele>23.8</ele><time>2022-06-26T07:17:59.000Z</time></trkpt><trkpt lon="5.727829" lat="50.911402"><ele>23.8</ele><time>2022-06-26T07:18:00.000Z</time></trkpt><trkpt lon="5.727775" lat="50.911333"><ele>23.8</ele><time>2022-06-26T07:18:01.000Z</time></trkpt><trkpt lon="5.727722" lat="50.911265"><ele>23.8</ele><time>2022-06-26T07:18:02.000Z</time></trkpt><trkpt lon="5.72768" lat="50.911207"><ele>24</ele><time>2022-06-26T07:18:03.000Z</time></trkpt><trkpt lon="5.727616" lat="50.911124"><ele>24</ele><time>2022-06-26T07:18:04.000Z</time></trkpt><trkpt lon="5.727569" lat="50.911063"><ele>24</ele><time>2022-06-26T07:18:05.000Z</time></trkpt><trkpt lon="5.727509" lat="50.910987"><ele>24</ele><time>2022-06-26T07:18:06.000Z</time></trkpt><trkpt lon="5.727467" lat="50.91093"><ele>24</ele><time>2022-06-26T07:18:07.000Z</time></trkpt><trkpt lon="5.727408" lat="50.910853"><ele>24</ele><time>2022-06-26T07:18:08.000Z</time></trkpt><trkpt lon="5.727369" lat="50.910799"><ele>24</ele><time>2022-06-26T07:18:09.000Z</time></trkpt><trkpt lon="5.727316" lat="50.910724"><ele>24</ele><time>2022-06-26T07:18:10.000Z</time></trkpt><trkpt lon="5.727275" lat="50.910667"><ele>24</ele><time>2022-06-26T07:18:11.000Z</time></trkpt><trkpt lon="5.727219" lat="50.910593"><ele>24.2</ele><time>2022-06-26T07:18:12.000Z</time></trkpt><trkpt lon="5.727167" lat="50.910532"><ele>24.2</ele><time>2022-06-26T07:18:13.000Z</time></trkpt><trkpt lon="5.727107" lat="50.91046"><ele>24.2</ele><time>2022-06-26T07:18:14.000Z</time></trkpt><trkpt lon="5.727061" lat="50.9104"><ele>24.2</ele><time>2022-06-26T07:18:15.000Z</time></trkpt><trkpt lon="5.727001" lat="50.910327"><ele>24</ele><time>2022-06-26T07:18:16.000Z</time></trkpt><trkpt lon="5.726961" lat="50.910273"><ele>24.2</ele><time>2022-06-26T07:18:17.000Z</time></trkpt><trkpt lon="5.726897" lat="50.910193"><ele>24.2</ele><time>2022-06-26T07:18:18.000Z</time></trkpt><trkpt lon="5.72685" lat="50.910135"><ele>24.2</ele><time>2022-06-26T07:18:19.000Z</time></trkpt><trkpt lon="5.726792" lat="50.910063"><ele>24</ele><time>2022-06-26T07:18:20.000Z</time></trkpt><trkpt lon="5.726748" lat="50.910009"><ele>24</ele><time>2022-06-26T07:18:21.000Z</time></trkpt><trkpt lon="5.726688" lat="50.909934"><ele>24</ele><time>2022-06-26T07:18:22.000Z</time></trkpt><trkpt lon="5.726637" lat="50.909876"><ele>24</ele><time>2022-06-26T07:18:23.000Z</time></trkpt><trkpt lon="5.726579" lat="50.909808"><ele>24</ele><time>2022-06-26T07:18:24.000Z</time></trkpt><trkpt lon="5.726531" lat="50.909756"><ele>24</ele><time>2022-06-26T07:18:25.000Z</time></trkpt><trkpt lon="5.726458" lat="50.909682"><ele>24</ele><time>2022-06-26T07:18:26.000Z</time></trkpt><trkpt lon="5.726394" lat="50.909617"><ele>24</ele><time>2022-06-26T07:18:27.000Z</time></trkpt><trkpt lon="5.726332" lat="50.909556"><ele>24</ele><time>2022-06-26T07:18:28.000Z</time></trkpt><trkpt lon="5.726285" lat="50.909506"><ele>24</ele><time>2022-06-26T07:18:29.000Z</time></trkpt><trkpt lon="5.726221" lat="50.90943"><ele>24</ele><time>2022-06-26T07:18:30.000Z</time></trkpt><trkpt lon="5.726183" lat="50.909378"><ele>24</ele><time>2022-06-26T07:18:31.000Z</time></trkpt><trkpt lon="5.726123" lat="50.909293"><ele>24</ele><time>2022-06-26T07:18:32.000Z</time></trkpt><trkpt lon="5.726082" lat="50.909234"><ele>24</ele><time>2022-06-26T07:18:33.000Z</time></trkpt><trkpt lon="5.726032" lat="50.90916"><ele>24.2</ele><time>2022-06-26T07:18:34.000Z</time></trkpt><trkpt lon="5.725996" lat="50.909106"><ele>24.2</ele><time>2022-06-26T07:18:35.000Z</time></trkpt><trkpt lon="5.725937" lat="50.909022"><ele>24.2</ele><time>2022-06-26T07:18:36.000Z</time></trkpt><trkpt lon="5.72589" lat="50.908961"><ele>24.2</ele><time>2022-06-26T07:18:37.000Z</time></trkpt><trkpt lon="5.725833" lat="50.908889"><ele>24.2</ele><time>2022-06-26T07:18:38.000Z</time></trkpt><trkpt lon="5.725781" lat="50.90883"><ele>24.2</ele><time>2022-06-26T07:18:39.000Z</time></trkpt><trkpt lon="5.725708" lat="50.908752"><ele>24.2</ele><time>2022-06-26T07:18:40.000Z</time></trkpt><trkpt lon="5.725651" lat="50.9087"><ele>24.2</ele><time>2022-06-26T07:18:41.000Z</time></trkpt><trkpt lon="5.725571" lat="50.908633"><ele>24.4</ele><time>2022-06-26T07:18:42.000Z</time></trkpt><trkpt lon="5.725515" lat="50.908589"><ele>24.4</ele><time>2022-06-26T07:18:43.000Z</time></trkpt><trkpt lon="5.725427" lat="50.908523"><ele>24.8</ele><time>2022-06-26T07:18:44.000Z</time></trkpt><trkpt lon="5.725372" lat="50.908483"><ele>24.8</ele><time>2022-06-26T07:18:45.000Z</time></trkpt><trkpt lon="5.725287" lat="50.908423"><ele>25.2</ele><time>2022-06-26T07:18:46.000Z</time></trkpt><trkpt lon="5.725238" lat="50.908388"><ele>25.4</ele><time>2022-06-26T07:18:47.000Z</time></trkpt><trkpt lon="5.725164" lat="50.908332"><ele>25.6</ele><time>2022-06-26T07:18:48.000Z</time></trkpt><trkpt lon="5.725116" lat="50.908297"><ele>26</ele><time>2022-06-26T07:18:49.000Z</time></trkpt><trkpt lon="5.725054" lat="50.908244"><ele>26.2</ele><time>2022-06-26T07:18:50.000Z</time></trkpt><trkpt lon="5.72501" lat="50.9082"><ele>26.2</ele><time>2022-06-26T07:18:51.000Z</time></trkpt><trkpt lon="5.724954" lat="50.908137"><ele>26.4</ele><time>2022-06-26T07:18:52.000Z</time></trkpt><trkpt lon="5.724914" lat="50.908091"><ele>26.2</ele><time>2022-06-26T07:18:53.000Z</time></trkpt><trkpt lon="5.724849" lat="50.908007"><ele>26</ele><time>2022-06-26T07:18:54.000Z</time></trkpt><trkpt lon="5.724808" lat="50.907949"><ele>25.6</ele><time>2022-06-26T07:18:55.000Z</time></trkpt><trkpt lon="5.724746" lat="50.907859"><ele>25.4</ele><time>2022-06-26T07:18:56.000Z</time></trkpt><trkpt lon="5.724704" lat="50.907795"><ele>24.8</ele><time>2022-06-26T07:18:57.000Z</time></trkpt><trkpt lon="5.724644" lat="50.907702"><ele>24.6</ele><time>2022-06-26T07:18:58.000Z</time></trkpt><trkpt lon="5.724594" lat="50.907624"><ele>24.4</ele><time>2022-06-26T07:18:59.000Z</time></trkpt><trkpt lon="5.724543" lat="50.907546"><ele>24.2</ele><time>2022-06-26T07:19:00.000Z</time></trkpt><trkpt lon="5.724507" lat="50.907489"><ele>24.2</ele><time>2022-06-26T07:19:01.000Z</time></trkpt><trkpt lon="5.724445" lat="50.907398"><ele>24.2</ele><time>2022-06-26T07:19:02.000Z</time></trkpt><trkpt lon="5.724392" lat="50.907328"><ele>24.2</ele><time>2022-06-26T07:19:03.000Z</time></trkpt><trkpt lon="5.724341" lat="50.907256"><ele>24.2</ele><time>2022-06-26T07:19:04.000Z</time></trkpt><trkpt lon="5.724291" lat="50.907194"><ele>24.2</ele><time>2022-06-26T07:19:05.000Z</time></trkpt><trkpt lon="5.72423" lat="50.907124"><ele>24.2</ele><time>2022-06-26T07:19:06.000Z</time></trkpt><trkpt lon="5.724181" lat="50.907066"><ele>24.2</ele><time>2022-06-26T07:19:07.000Z</time></trkpt><trkpt lon="5.724114" lat="50.906989"><ele>24.2</ele><time>2022-06-26T07:19:08.000Z</time></trkpt><trkpt lon="5.724069" lat="50.906941"><ele>24</ele><time>2022-06-26T07:19:09.000Z</time></trkpt><trkpt lon="5.724004" lat="50.906867"><ele>24</ele><time>2022-06-26T07:19:10.000Z</time></trkpt><trkpt lon="5.723959" lat="50.906815"><ele>24</ele><time>2022-06-26T07:19:11.000Z</time></trkpt><trkpt lon="5.72389" lat="50.906749"><ele>24</ele><time>2022-06-26T07:19:12.000Z</time></trkpt><trkpt lon="5.723833" lat="50.906688"><ele>24</ele><time>2022-06-26T07:19:13.000Z</time></trkpt><trkpt lon="5.72377" lat="50.90663"><ele>24</ele><time>2022-06-26T07:19:14.000Z</time></trkpt><trkpt lon="5.723714" lat="50.906583"><ele>23.8</ele><time>2022-06-26T07:19:15.000Z</time></trkpt><trkpt lon="5.723644" lat="50.90652"><ele>23.8</ele><time>2022-06-26T07:19:16.000Z</time></trkpt><trkpt lon="5.72359" lat="50.906479"><ele>23.8</ele><time>2022-06-26T07:19:17.000Z</time></trkpt><trkpt lon="5.723512" lat="50.90642"><ele>23.8</ele><time>2022-06-26T07:19:18.000Z</time></trkpt><trkpt lon="5.723451" lat="50.906374"><ele>23.8</ele><time>2022-06-26T07:19:19.000Z</time></trkpt><trkpt lon="5.723385" lat="50.906329"><ele>24</ele><time>2022-06-26T07:19:20.000Z</time></trkpt><trkpt lon="5.723331" lat="50.906287"><ele>24</ele><time>2022-06-26T07:19:21.000Z</time></trkpt><trkpt lon="5.723288" lat="50.906249"><ele>24.2</ele><time>2022-06-26T07:19:22.000Z</time></trkpt><trkpt lon="5.723266" lat="50.906206"><ele>24.2</ele><time>2022-06-26T07:19:23.000Z</time></trkpt><trkpt lon="5.723265" lat="50.906154"><ele>24.4</ele><time>2022-06-26T07:19:24.000Z</time></trkpt><trkpt lon="5.723261" lat="50.906109"><ele>24.4</ele><time>2022-06-26T07:19:25.000Z</time></trkpt><trkpt lon="5.72325" lat="50.906044"><ele>24.6</ele><time>2022-06-26T07:19:26.000Z</time></trkpt><trkpt lon="5.723246" lat="50.906004"><ele>24.6</ele><time>2022-06-26T07:19:27.000Z</time></trkpt><trkpt lon="5.723254" lat="50.905932"><ele>24.8</ele><time>2022-06-26T07:19:28.000Z</time></trkpt><trkpt lon="5.723274" lat="50.905887"><ele>24.8</ele><time>2022-06-26T07:19:29.000Z</time></trkpt><trkpt lon="5.723319" lat="50.90581"><ele>24.8</ele><time>2022-06-26T07:19:30.000Z</time></trkpt><trkpt lon="5.723356" lat="50.905758"><ele>24.8</ele><time>2022-06-26T07:19:31.000Z</time></trkpt><trkpt lon="5.723402" lat="50.90568"><ele>24.8</ele><time>2022-06-26T07:19:32.000Z</time></trkpt><trkpt lon="5.723418" lat="50.905616"><ele>25</ele><time>2022-06-26T07:19:33.000Z</time></trkpt><trkpt lon="5.723407" lat="50.905547"><ele>25</ele><time>2022-06-26T07:19:34.000Z</time></trkpt><trkpt lon="5.723373" lat="50.905491"><ele>25</ele><time>2022-06-26T07:19:35.000Z</time></trkpt><trkpt lon="5.723302" lat="50.905417"><ele>24.8</ele><time>2022-06-26T07:19:36.000Z</time></trkpt><trkpt lon="5.723248" lat="50.905372"><ele>24.8</ele><time>2022-06-26T07:19:37.000Z</time></trkpt><trkpt lon="5.723143" lat="50.905284"><ele>24.8</ele><time>2022-06-26T07:19:38.000Z</time></trkpt><trkpt lon="5.723075" lat="50.90523"><ele>24.6</ele><time>2022-06-26T07:19:39.000Z</time></trkpt><trkpt lon="5.722989" lat="50.905158"><ele>24.6</ele><time>2022-06-26T07:19:40.000Z</time></trkpt><trkpt lon="5.722922" lat="50.905105"><ele>24.6</ele><time>2022-06-26T07:19:41.000Z</time></trkpt><trkpt lon="5.722847" lat="50.90504"><ele>24.6</ele><time>2022-06-26T07:19:42.000Z</time></trkpt><trkpt lon="5.722798" lat="50.905001"><ele>24.6</ele><time>2022-06-26T07:19:43.000Z</time></trkpt><trkpt lon="5.722703" lat="50.904929"><ele>24.6</ele><time>2022-06-26T07:19:44.000Z</time></trkpt><trkpt lon="5.722638" lat="50.904875"><ele>24.6</ele><time>2022-06-26T07:19:45.000Z</time></trkpt><trkpt lon="5.722565" lat="50.904815"><ele>24.4</ele><time>2022-06-26T07:19:46.000Z</time></trkpt><trkpt lon="5.722513" lat="50.904776"><ele>24.4</ele><time>2022-06-26T07:19:47.000Z</time></trkpt><trkpt lon="5.722426" lat="50.904704"><ele>24.2</ele><time>2022-06-26T07:19:48.000Z</time></trkpt><trkpt lon="5.722365" lat="50.904655"><ele>24.2</ele><time>2022-06-26T07:19:49.000Z</time></trkpt><trkpt lon="5.72229" lat="50.904597"><ele>24.2</ele><time>2022-06-26T07:19:50.000Z</time></trkpt><trkpt lon="5.722248" lat="50.904559"><ele>24.2</ele><time>2022-06-26T07:19:51.000Z</time></trkpt><trkpt lon="5.722166" lat="50.904483"><ele>24</ele><time>2022-06-26T07:19:52.000Z</time></trkpt><trkpt lon="5.722121" lat="50.904438"><ele>24</ele><time>2022-06-26T07:19:53.000Z</time></trkpt><trkpt lon="5.722057" lat="50.904361"><ele>23.8</ele><time>2022-06-26T07:19:54.000Z</time></trkpt><trkpt lon="5.722021" lat="50.904315"><ele>23.8</ele><time>2022-06-26T07:19:55.000Z</time></trkpt><trkpt lon="5.721961" lat="50.904239"><ele>24</ele><time>2022-06-26T07:19:56.000Z</time></trkpt><trkpt lon="5.721919" lat="50.904182"><ele>24</ele><time>2022-06-26T07:19:57.000Z</time></trkpt><trkpt lon="5.721865" lat="50.904113"><ele>24</ele><time>2022-06-26T07:19:58.000Z</time></trkpt><trkpt lon="5.721831" lat="50.904068"><ele>24</ele><time>2022-06-26T07:19:59.000Z</time></trkpt><trkpt lon="5.721771" lat="50.903987"><ele>24</ele><time>2022-06-26T07:20:00.000Z</time></trkpt><trkpt lon="5.72173" lat="50.903935"><ele>24</ele><time>2022-06-26T07:20:01.000Z</time></trkpt><trkpt lon="5.721672" lat="50.903861"><ele>23.8</ele><time>2022-06-26T07:20:02.000Z</time></trkpt><trkpt lon="5.721633" lat="50.903807"><ele>23.8</ele><time>2022-06-26T07:20:03.000Z</time></trkpt><trkpt lon="5.721579" lat="50.903739"><ele>23.8</ele><time>2022-06-26T07:20:04.000Z</time></trkpt><trkpt lon="5.721548" lat="50.903698"><ele>23.6</ele><time>2022-06-26T07:20:05.000Z</time></trkpt><trkpt lon="5.721484" lat="50.903617"><ele>23.6</ele><time>2022-06-26T07:20:06.000Z</time></trkpt><trkpt lon="5.721445" lat="50.903561"><ele>23.6</ele><time>2022-06-26T07:20:07.000Z</time></trkpt><trkpt lon="5.721389" lat="50.903491"><ele>23.6</ele><time>2022-06-26T07:20:08.000Z</time></trkpt><trkpt lon="5.721352" lat="50.903444"><ele>23.6</ele><time>2022-06-26T07:20:09.000Z</time></trkpt><trkpt lon="5.721286" lat="50.903361"><ele>23.8</ele><time>2022-06-26T07:20:10.000Z</time></trkpt><trkpt lon="5.721249" lat="50.903318"><ele>23.8</ele><time>2022-06-26T07:20:11.000Z</time></trkpt><trkpt lon="5.721185" lat="50.903236"><ele>23.6</ele><time>2022-06-26T07:20:12.000Z</time></trkpt><trkpt lon="5.721148" lat="50.903188"><ele>23.6</ele><time>2022-06-26T07:20:13.000Z</time></trkpt><trkpt lon="5.721086" lat="50.90311"><ele>23.4</ele><time>2022-06-26T07:20:14.000Z</time></trkpt><trkpt lon="5.721044" lat="50.903057"><ele>23.4</ele><time>2022-06-26T07:20:15.000Z</time></trkpt><trkpt lon="5.720991" lat="50.902987"><ele>23.4</ele><time>2022-06-26T07:20:16.000Z</time></trkpt><trkpt lon="5.720958" lat="50.902945"><ele>23.4</ele><time>2022-06-26T07:20:17.000Z</time></trkpt><trkpt lon="5.720893" lat="50.902862"><ele>23.6</ele><time>2022-06-26T07:20:18.000Z</time></trkpt><trkpt lon="5.720854" lat="50.902814"><ele>23.6</ele><time>2022-06-26T07:20:19.000Z</time></trkpt><trkpt lon="5.720792" lat="50.902735"><ele>23.8</ele><time>2022-06-26T07:20:20.000Z</time></trkpt><trkpt lon="5.720759" lat="50.902692"><ele>24</ele><time>2022-06-26T07:20:21.000Z</time></trkpt><trkpt lon="5.720697" lat="50.902613"><ele>24</ele><time>2022-06-26T07:20:22.000Z</time></trkpt><trkpt lon="5.720661" lat="50.902566"><ele>24</ele><time>2022-06-26T07:20:23.000Z</time></trkpt><trkpt lon="5.720599" lat="50.902484"><ele>24</ele><time>2022-06-26T07:20:24.000Z</time></trkpt><trkpt lon="5.720566" lat="50.902442"><ele>23.8</ele><time>2022-06-26T07:20:25.000Z</time></trkpt><trkpt lon="5.720504" lat="50.902362"><ele>23.8</ele><time>2022-06-26T07:20:26.000Z</time></trkpt><trkpt lon="5.72047" lat="50.90232"><ele>23.8</ele><time>2022-06-26T07:20:27.000Z</time></trkpt><trkpt lon="5.720404" lat="50.902236"><ele>23.8</ele><time>2022-06-26T07:20:28.000Z</time></trkpt><trkpt lon="5.720364" lat="50.902182"><ele>23.6</ele><time>2022-06-26T07:20:29.000Z</time></trkpt><trkpt lon="5.720309" lat="50.90211"><ele>23.6</ele><time>2022-06-26T07:20:30.000Z</time></trkpt><trkpt lon="5.720269" lat="50.902056"><ele>23.4</ele><time>2022-06-26T07:20:31.000Z</time></trkpt><trkpt lon="5.720213" lat="50.90198"><ele>23.6</ele><time>2022-06-26T07:20:32.000Z</time></trkpt><trkpt lon="5.720179" lat="50.901936"><ele>23.6</ele><time>2022-06-26T07:20:33.000Z</time></trkpt><trkpt lon="5.720114" lat="50.901851"><ele>23.6</ele><time>2022-06-26T07:20:34.000Z</time></trkpt><trkpt lon="5.720078" lat="50.901804"><ele>23.6</ele><time>2022-06-26T07:20:35.000Z</time></trkpt><trkpt lon="5.720012" lat="50.901721"><ele>23.6</ele><time>2022-06-26T07:20:36.000Z</time></trkpt><trkpt lon="5.719972" lat="50.901668"><ele>23.4</ele><time>2022-06-26T07:20:37.000Z</time></trkpt><trkpt lon="5.719914" lat="50.901595"><ele>23.2</ele><time>2022-06-26T07:20:38.000Z</time></trkpt><trkpt lon="5.719886" lat="50.901558"><ele>23</ele><time>2022-06-26T07:20:39.000Z</time></trkpt><trkpt lon="5.719816" lat="50.901466"><ele>23</ele><time>2022-06-26T07:20:40.000Z</time></trkpt><trkpt lon="5.719784" lat="50.901425"><ele>22.8</ele><time>2022-06-26T07:20:41.000Z</time></trkpt><trkpt lon="5.719716" lat="50.90134"><ele>22.8</ele><time>2022-06-26T07:20:42.000Z</time></trkpt><trkpt lon="5.719685" lat="50.9013"><ele>22.8</ele><time>2022-06-26T07:20:43.000Z</time></trkpt><trkpt lon="5.719618" lat="50.901214"><ele>22.8</ele><time>2022-06-26T07:20:44.000Z</time></trkpt><trkpt lon="5.719587" lat="50.901173"><ele>22.8</ele><time>2022-06-26T07:20:45.000Z</time></trkpt><trkpt lon="5.719523" lat="50.901089"><ele>22.8</ele><time>2022-06-26T07:20:46.000Z</time></trkpt><trkpt lon="5.719491" lat="50.901047"><ele>22.8</ele><time>2022-06-26T07:20:47.000Z</time></trkpt><trkpt lon="5.719421" lat="50.900958"><ele>22.8</ele><time>2022-06-26T07:20:48.000Z</time></trkpt><trkpt lon="5.719391" lat="50.90092"><ele>22.8</ele><time>2022-06-26T07:20:49.000Z</time></trkpt><trkpt lon="5.719322" lat="50.900832"><ele>22.8</ele><time>2022-06-26T07:20:50.000Z</time></trkpt><trkpt lon="5.719288" lat="50.900785"><ele>22.6</ele><time>2022-06-26T07:20:51.000Z</time></trkpt><trkpt lon="5.719227" lat="50.900703"><ele>22.6</ele><time>2022-06-26T07:20:52.000Z</time></trkpt><trkpt lon="5.719196" lat="50.900665"><ele>22.6</ele><time>2022-06-26T07:20:53.000Z</time></trkpt><trkpt lon="5.719127" lat="50.90058"><ele>22.6</ele><time>2022-06-26T07:20:54.000Z</time></trkpt><trkpt lon="5.719092" lat="50.900535"><ele>22.6</ele><time>2022-06-26T07:20:55.000Z</time></trkpt><trkpt lon="5.719028" lat="50.900451"><ele>22.6</ele><time>2022-06-26T07:20:56.000Z</time></trkpt><trkpt lon="5.718994" lat="50.900408"><ele>22.6</ele><time>2022-06-26T07:20:57.000Z</time></trkpt><trkpt lon="5.718934" lat="50.900329"><ele>22.4</ele><time>2022-06-26T07:20:58.000Z</time></trkpt><trkpt lon="5.718907" lat="50.900291"><ele>22.4</ele><time>2022-06-26T07:20:59.000Z</time></trkpt><trkpt lon="5.718839" lat="50.900199"><ele>22.6</ele><time>2022-06-26T07:21:00.000Z</time></trkpt><trkpt lon="5.71881" lat="50.900162"><ele>22.8</ele><time>2022-06-26T07:21:01.000Z</time></trkpt><trkpt lon="5.718741" lat="50.900073"><ele>22.8</ele><time>2022-06-26T07:21:02.000Z</time></trkpt><trkpt lon="5.718712" lat="50.900037"><ele>22.8</ele><time>2022-06-26T07:21:03.000Z</time></trkpt><trkpt lon="5.718639" lat="50.899947"><ele>22.8</ele><time>2022-06-26T07:21:04.000Z</time></trkpt><trkpt lon="5.718603" lat="50.899902"><ele>22.8</ele><time>2022-06-26T07:21:05.000Z</time></trkpt><trkpt lon="5.718539" lat="50.899817"><ele>22.8</ele><time>2022-06-26T07:21:06.000Z</time></trkpt><trkpt lon="5.718505" lat="50.899776"><ele>22.8</ele><time>2022-06-26T07:21:07.000Z</time></trkpt><trkpt lon="5.718441" lat="50.899692"><ele>22.8</ele><time>2022-06-26T07:21:08.000Z</time></trkpt><trkpt lon="5.718418" lat="50.899661"><ele>22.8</ele><time>2022-06-26T07:21:09.000Z</time></trkpt><trkpt lon="5.718394" lat="50.89963"><ele>22.8</ele><time>2022-06-26T07:21:10.000Z</time></trkpt><trkpt lon="5.718318" lat="50.89953"><ele>23</ele><time>2022-06-26T07:21:11.000Z</time></trkpt><trkpt lon="5.718242" lat="50.899431"><ele>23</ele><time>2022-06-26T07:21:12.000Z</time></trkpt><trkpt lon="5.718192" lat="50.899367"><ele>23</ele><time>2022-06-26T07:21:13.000Z</time></trkpt><trkpt lon="5.718139" lat="50.899302"><ele>22.8</ele><time>2022-06-26T07:21:14.000Z</time></trkpt><trkpt lon="5.71809" lat="50.899241"><ele>22.8</ele><time>2022-06-26T07:21:15.000Z</time></trkpt><trkpt lon="5.718042" lat="50.899178"><ele>22.6</ele><time>2022-06-26T07:21:16.000Z</time></trkpt><trkpt lon="5.717991" lat="50.899115"><ele>22.8</ele><time>2022-06-26T07:21:17.000Z</time></trkpt><trkpt lon="5.717941" lat="50.89905"><ele>22.6</ele><time>2022-06-26T07:21:18.000Z</time></trkpt><trkpt lon="5.717889" lat="50.898985"><ele>22.6</ele><time>2022-06-26T07:21:19.000Z</time></trkpt><trkpt lon="5.717839" lat="50.89892"><ele>22.4</ele><time>2022-06-26T07:21:20.000Z</time></trkpt><trkpt lon="5.71779" lat="50.898859"><ele>22.4</ele><time>2022-06-26T07:21:21.000Z</time></trkpt><trkpt lon="5.717741" lat="50.898795"><ele>22.2</ele><time>2022-06-26T07:21:22.000Z</time></trkpt><trkpt lon="5.717692" lat="50.898734"><ele>22.2</ele><time>2022-06-26T07:21:23.000Z</time></trkpt><trkpt lon="5.717645" lat="50.89867"><ele>22.2</ele><time>2022-06-26T07:21:24.000Z</time></trkpt><trkpt lon="5.717598" lat="50.898605"><ele>22.2</ele><time>2022-06-26T07:21:25.000Z</time></trkpt><trkpt lon="5.717549" lat="50.89854"><ele>22.4</ele><time>2022-06-26T07:21:26.000Z</time></trkpt><trkpt lon="5.717501" lat="50.898474"><ele>22.6</ele><time>2022-06-26T07:21:27.000Z</time></trkpt><trkpt lon="5.717453" lat="50.898413"><ele>22.6</ele><time>2022-06-26T07:21:28.000Z</time></trkpt><trkpt lon="5.717409" lat="50.898348"><ele>22.4</ele><time>2022-06-26T07:21:29.000Z</time></trkpt><trkpt lon="5.717369" lat="50.898284"><ele>22.6</ele><time>2022-06-26T07:21:30.000Z</time></trkpt><trkpt lon="5.717331" lat="50.898219"><ele>22.8</ele><time>2022-06-26T07:21:31.000Z</time></trkpt><trkpt lon="5.7173" lat="50.898155"><ele>22.8</ele><time>2022-06-26T07:21:32.000Z</time></trkpt><trkpt lon="5.717268" lat="50.898085"><ele>23</ele><time>2022-06-26T07:21:33.000Z</time></trkpt><trkpt lon="5.717239" lat="50.898016"><ele>23</ele><time>2022-06-26T07:21:34.000Z</time></trkpt><trkpt lon="5.717209" lat="50.897948"><ele>23</ele><time>2022-06-26T07:21:35.000Z</time></trkpt><trkpt lon="5.717183" lat="50.897879"><ele>23</ele><time>2022-06-26T07:21:36.000Z</time></trkpt><trkpt lon="5.717157" lat="50.897811"><ele>23</ele><time>2022-06-26T07:21:37.000Z</time></trkpt><trkpt lon="5.717131" lat="50.897742"><ele>23</ele><time>2022-06-26T07:21:38.000Z</time></trkpt><trkpt lon="5.717106" lat="50.897677"><ele>23</ele><time>2022-06-26T07:21:39.000Z</time></trkpt><trkpt lon="5.717087" lat="50.897623"><ele>23.2</ele><time>2022-06-26T07:21:40.000Z</time></trkpt><trkpt lon="5.717061" lat="50.897548"><ele>23.4</ele><time>2022-06-26T07:21:41.000Z</time></trkpt><trkpt lon="5.717043" lat="50.897495"><ele>23.6</ele><time>2022-06-26T07:21:42.000Z</time></trkpt><trkpt lon="5.717023" lat="50.897429"><ele>23.8</ele><time>2022-06-26T07:21:43.000Z</time></trkpt><trkpt lon="5.717018" lat="50.897369"><ele>24</ele><time>2022-06-26T07:21:44.000Z</time></trkpt><trkpt lon="5.717025" lat="50.897307"><ele>24.2</ele><time>2022-06-26T07:21:45.000Z</time></trkpt><trkpt lon="5.717023" lat="50.89725"><ele>24.4</ele><time>2022-06-26T07:21:46.000Z</time></trkpt><trkpt lon="5.717001" lat="50.897174"><ele>24.6</ele><time>2022-06-26T07:21:47.000Z</time></trkpt><trkpt lon="5.716967" lat="50.897113"><ele>24.8</ele><time>2022-06-26T07:21:48.000Z</time></trkpt><trkpt lon="5.716907" lat="50.89704"><ele>24.8</ele><time>2022-06-26T07:21:49.000Z</time></trkpt><trkpt lon="5.716837" lat="50.896985"><ele>25</ele><time>2022-06-26T07:21:50.000Z</time></trkpt><trkpt lon="5.716757" lat="50.896926"><ele>24.4</ele><time>2022-06-26T07:21:51.000Z</time></trkpt><trkpt lon="5.716682" lat="50.896869"><ele>24.2</ele><time>2022-06-26T07:21:52.000Z</time></trkpt><trkpt lon="5.716619" lat="50.896808"><ele>24.2</ele><time>2022-06-26T07:21:53.000Z</time></trkpt><trkpt lon="5.716565" lat="50.896742"><ele>24.2</ele><time>2022-06-26T07:21:54.000Z</time></trkpt><trkpt lon="5.716516" lat="50.896681"><ele>24.2</ele><time>2022-06-26T07:21:55.000Z</time></trkpt><trkpt lon="5.716467" lat="50.896616"><ele>24.2</ele><time>2022-06-26T07:21:56.000Z</time></trkpt><trkpt lon="5.716419" lat="50.896555"><ele>24.4</ele><time>2022-06-26T07:21:57.000Z</time></trkpt><trkpt lon="5.71637" lat="50.896491"><ele>24.4</ele><time>2022-06-26T07:21:58.000Z</time></trkpt><trkpt lon="5.716321" lat="50.89643"><ele>24.4</ele><time>2022-06-26T07:21:59.000Z</time></trkpt><trkpt lon="5.71627" lat="50.896364"><ele>24.4</ele><time>2022-06-26T07:22:00.000Z</time></trkpt><trkpt lon="5.716217" lat="50.8963"><ele>24.4</ele><time>2022-06-26T07:22:01.000Z</time></trkpt><trkpt lon="5.716168" lat="50.896239"><ele>24.4</ele><time>2022-06-26T07:22:02.000Z</time></trkpt><trkpt lon="5.716109" lat="50.896162"><ele>24.6</ele><time>2022-06-26T07:22:03.000Z</time></trkpt><trkpt lon="5.71606" lat="50.896101"><ele>24.6</ele><time>2022-06-26T07:22:04.000Z</time></trkpt><trkpt lon="5.716007" lat="50.896029"><ele>24.6</ele><time>2022-06-26T07:22:05.000Z</time></trkpt><trkpt lon="5.715959" lat="50.895956"><ele>24.6</ele><time>2022-06-26T07:22:06.000Z</time></trkpt><trkpt lon="5.715906" lat="50.895884"><ele>24.4</ele><time>2022-06-26T07:22:07.000Z</time></trkpt><trkpt lon="5.715857" lat="50.895818"><ele>24.4</ele><time>2022-06-26T07:22:08.000Z</time></trkpt><trkpt lon="5.715793" lat="50.895739"><ele>24.4</ele><time>2022-06-26T07:22:09.000Z</time></trkpt><trkpt lon="5.715736" lat="50.895671"><ele>24.4</ele><time>2022-06-26T07:22:10.000Z</time></trkpt><trkpt lon="5.715669" lat="50.895594"><ele>24.4</ele><time>2022-06-26T07:22:11.000Z</time></trkpt><trkpt lon="5.71561" lat="50.895541"><ele>24.4</ele><time>2022-06-26T07:22:12.000Z</time></trkpt><trkpt lon="5.715534" lat="50.895472"><ele>24.4</ele><time>2022-06-26T07:22:13.000Z</time></trkpt><trkpt lon="5.715485" lat="50.895418"><ele>24.4</ele><time>2022-06-26T07:22:14.000Z</time></trkpt><trkpt lon="5.715426" lat="50.895342"><ele>24.4</ele><time>2022-06-26T07:22:15.000Z</time></trkpt><trkpt lon="5.715387" lat="50.895285"><ele>24.4</ele><time>2022-06-26T07:22:16.000Z</time></trkpt><trkpt lon="5.715334" lat="50.895205"><ele>24.4</ele><time>2022-06-26T07:22:17.000Z</time></trkpt><trkpt lon="5.71529" lat="50.895142"><ele>24.4</ele><time>2022-06-26T07:22:18.000Z</time></trkpt><trkpt lon="5.715244" lat="50.895072"><ele>24.4</ele><time>2022-06-26T07:22:19.000Z</time></trkpt><trkpt lon="5.715201" lat="50.895011"><ele>24.4</ele><time>2022-06-26T07:22:20.000Z</time></trkpt><trkpt lon="5.715149" lat="50.894938"><ele>24.4</ele><time>2022-06-26T07:22:21.000Z</time></trkpt><trkpt lon="5.715104" lat="50.894873"><ele>24.4</ele><time>2022-06-26T07:22:22.000Z</time></trkpt><trkpt lon="5.715061" lat="50.894809"><ele>24.4</ele><time>2022-06-26T07:22:23.000Z</time></trkpt><trkpt lon="5.715024" lat="50.894754"><ele>24.4</ele><time>2022-06-26T07:22:24.000Z</time></trkpt><trkpt lon="5.714973" lat="50.894675"><ele>24.4</ele><time>2022-06-26T07:22:25.000Z</time></trkpt><trkpt lon="5.714932" lat="50.894606"><ele>24.4</ele><time>2022-06-26T07:22:26.000Z</time></trkpt><trkpt lon="5.714892" lat="50.894541"><ele>24.6</ele><time>2022-06-26T07:22:27.000Z</time></trkpt><trkpt lon="5.714853" lat="50.894483"><ele>24.8</ele><time>2022-06-26T07:22:28.000Z</time></trkpt><trkpt lon="5.714805" lat="50.894412"><ele>25.2</ele><time>2022-06-26T07:22:29.000Z</time></trkpt><trkpt lon="5.714759" lat="50.894346"><ele>25.4</ele><time>2022-06-26T07:22:30.000Z</time></trkpt><trkpt lon="5.714714" lat="50.894282"><ele>25.6</ele><time>2022-06-26T07:22:31.000Z</time></trkpt><trkpt lon="5.714671" lat="50.894221"><ele>25.8</ele><time>2022-06-26T07:22:32.000Z</time></trkpt><trkpt lon="5.714624" lat="50.894156"><ele>26.2</ele><time>2022-06-26T07:22:33.000Z</time></trkpt><trkpt lon="5.714583" lat="50.894097"><ele>26.4</ele><time>2022-06-26T07:22:34.000Z</time></trkpt><trkpt lon="5.714531" lat="50.894027"><ele>26.6</ele><time>2022-06-26T07:22:35.000Z</time></trkpt><trkpt lon="5.714481" lat="50.893965"><ele>26.8</ele><time>2022-06-26T07:22:36.000Z</time></trkpt><trkpt lon="5.714431" lat="50.893908"><ele>26.8</ele><time>2022-06-26T07:22:37.000Z</time></trkpt><trkpt lon="5.714384" lat="50.893853"><ele>26.8</ele><time>2022-06-26T07:22:38.000Z</time></trkpt><trkpt lon="5.714327" lat="50.89379"><ele>27</ele><time>2022-06-26T07:22:39.000Z</time></trkpt><trkpt lon="5.714287" lat="50.893742"><ele>27</ele><time>2022-06-26T07:22:40.000Z</time></trkpt><trkpt lon="5.71423" lat="50.893676"><ele>26.8</ele><time>2022-06-26T07:22:41.000Z</time></trkpt><trkpt lon="5.714186" lat="50.893627"><ele>26.8</ele><time>2022-06-26T07:22:42.000Z</time></trkpt><trkpt lon="5.714128" lat="50.893565"><ele>27</ele><time>2022-06-26T07:22:43.000Z</time></trkpt><trkpt lon="5.714076" lat="50.893518"><ele>27.2</ele><time>2022-06-26T07:22:44.000Z</time></trkpt><trkpt lon="5.71401" lat="50.893478"><ele>27.4</ele><time>2022-06-26T07:22:45.000Z</time></trkpt><trkpt lon="5.713942" lat="50.893451"><ele>27.4</ele><time>2022-06-26T07:22:46.000Z</time></trkpt><trkpt lon="5.713841" lat="50.893432"><ele>27.6</ele><time>2022-06-26T07:22:47.000Z</time></trkpt><trkpt lon="5.713744" lat="50.893425"><ele>27.8</ele><time>2022-06-26T07:22:48.000Z</time></trkpt><trkpt lon="5.713643" lat="50.893413"><ele>28</ele><time>2022-06-26T07:22:49.000Z</time></trkpt><trkpt lon="5.713564" lat="50.893388"><ele>28</ele><time>2022-06-26T07:22:50.000Z</time></trkpt><trkpt lon="5.713492" lat="50.893336"><ele>27.8</ele><time>2022-06-26T07:22:51.000Z</time></trkpt><trkpt lon="5.713437" lat="50.893274"><ele>27.8</ele><time>2022-06-26T07:22:52.000Z</time></trkpt><trkpt lon="5.713393" lat="50.89321"><ele>27.8</ele><time>2022-06-26T07:22:53.000Z</time></trkpt><trkpt lon="5.713366" lat="50.893148"><ele>27.8</ele><time>2022-06-26T07:22:54.000Z</time></trkpt><trkpt lon="5.713333" lat="50.893058"><ele>27.8</ele><time>2022-06-26T07:22:55.000Z</time></trkpt><trkpt lon="5.713306" lat="50.892997"><ele>27.6</ele><time>2022-06-26T07:22:56.000Z</time></trkpt><trkpt lon="5.713268" lat="50.892914"><ele>27.2</ele><time>2022-06-26T07:22:57.000Z</time></trkpt><trkpt lon="5.713226" lat="50.892843"><ele>27.2</ele><time>2022-06-26T07:22:58.000Z</time></trkpt><trkpt lon="5.71318" lat="50.892775"><ele>26.8</ele><time>2022-06-26T07:22:59.000Z</time></trkpt><trkpt lon="5.71313" lat="50.89271"><ele>26.6</ele><time>2022-06-26T07:23:00.000Z</time></trkpt><trkpt lon="5.713069" lat="50.892646"><ele>26.4</ele><time>2022-06-26T07:23:01.000Z</time></trkpt><trkpt lon="5.713009" lat="50.892596"><ele>26.2</ele><time>2022-06-26T07:23:02.000Z</time></trkpt><trkpt lon="5.712926" lat="50.892528"><ele>25.6</ele><time>2022-06-26T07:23:03.000Z</time></trkpt><trkpt lon="5.712851" lat="50.892477"><ele>25.4</ele><time>2022-06-26T07:23:04.000Z</time></trkpt><trkpt lon="5.712765" lat="50.892417"><ele>25</ele><time>2022-06-26T07:23:05.000Z</time></trkpt><trkpt lon="5.712689" lat="50.892369"><ele>24.8</ele><time>2022-06-26T07:23:06.000Z</time></trkpt><trkpt lon="5.712588" lat="50.89231"><ele>24.2</ele><time>2022-06-26T07:23:07.000Z</time></trkpt><trkpt lon="5.712502" lat="50.892262"><ele>24</ele><time>2022-06-26T07:23:08.000Z</time></trkpt><trkpt lon="5.712414" lat="50.892207"><ele>23.8</ele><time>2022-06-26T07:23:09.000Z</time></trkpt><trkpt lon="5.712344" lat="50.892168"><ele>23.8</ele><time>2022-06-26T07:23:10.000Z</time></trkpt><trkpt lon="5.71224" lat="50.892104"><ele>23.8</ele><time>2022-06-26T07:23:11.000Z</time></trkpt><trkpt lon="5.712169" lat="50.892055"><ele>23.6</ele><time>2022-06-26T07:23:12.000Z</time></trkpt><trkpt lon="5.712085" lat="50.891978"><ele>23.4</ele><time>2022-06-26T07:23:13.000Z</time></trkpt><trkpt lon="5.712032" lat="50.891919"><ele>23.4</ele><time>2022-06-26T07:23:14.000Z</time></trkpt><trkpt lon="5.711967" lat="50.89184"><ele>23</ele><time>2022-06-26T07:23:15.000Z</time></trkpt><trkpt lon="5.711915" lat="50.891771"><ele>22.8</ele><time>2022-06-26T07:23:16.000Z</time></trkpt><trkpt lon="5.711866" lat="50.891708"><ele>22.6</ele><time>2022-06-26T07:23:17.000Z</time></trkpt><trkpt lon="5.711834" lat="50.891661"><ele>22.4</ele><time>2022-06-26T07:23:18.000Z</time></trkpt><trkpt lon="5.711777" lat="50.891573"><ele>22.2</ele><time>2022-06-26T07:23:19.000Z</time></trkpt><trkpt lon="5.711742" lat="50.891513"><ele>22.4</ele><time>2022-06-26T07:23:20.000Z</time></trkpt><trkpt lon="5.711701" lat="50.89144"><ele>22.4</ele><time>2022-06-26T07:23:21.000Z</time></trkpt><trkpt lon="5.71167" lat="50.891388"><ele>22.4</ele><time>2022-06-26T07:23:22.000Z</time></trkpt><trkpt lon="5.711631" lat="50.891307"><ele>22.2</ele><time>2022-06-26T07:23:23.000Z</time></trkpt><trkpt lon="5.7116" lat="50.891242"><ele>22.2</ele><time>2022-06-26T07:23:24.000Z</time></trkpt><trkpt lon="5.711561" lat="50.89117"><ele>22.2</ele><time>2022-06-26T07:23:25.000Z</time></trkpt><trkpt lon="5.711537" lat="50.89112"><ele>22.2</ele><time>2022-06-26T07:23:26.000Z</time></trkpt><trkpt lon="5.711496" lat="50.891032"><ele>22.2</ele><time>2022-06-26T07:23:27.000Z</time></trkpt><trkpt lon="5.711464" lat="50.890968"><ele>22.2</ele><time>2022-06-26T07:23:28.000Z</time></trkpt><trkpt lon="5.711425" lat="50.890895"><ele>22</ele><time>2022-06-26T07:23:29.000Z</time></trkpt><trkpt lon="5.711399" lat="50.89084"><ele>22</ele><time>2022-06-26T07:23:30.000Z</time></trkpt><trkpt lon="5.711355" lat="50.890758"><ele>21.8</ele><time>2022-06-26T07:23:31.000Z</time></trkpt><trkpt lon="5.711319" lat="50.890695"><ele>21.8</ele><time>2022-06-26T07:23:32.000Z</time></trkpt><trkpt lon="5.711285" lat="50.89062"><ele>21.8</ele><time>2022-06-26T07:23:33.000Z</time></trkpt><trkpt lon="5.711261" lat="50.890567"><ele>21.8</ele><time>2022-06-26T07:23:34.000Z</time></trkpt><trkpt lon="5.711219" lat="50.890483"><ele>21.8</ele><time>2022-06-26T07:23:35.000Z</time></trkpt><trkpt lon="5.711196" lat="50.890427"><ele>22</ele><time>2022-06-26T07:23:36.000Z</time></trkpt><trkpt lon="5.71116" lat="50.890345"><ele>22</ele><time>2022-06-26T07:23:37.000Z</time></trkpt><trkpt lon="5.711131" lat="50.890292"><ele>22</ele><time>2022-06-26T07:23:38.000Z</time></trkpt><trkpt lon="5.711088" lat="50.890204"><ele>22</ele><time>2022-06-26T07:23:39.000Z</time></trkpt><trkpt lon="5.711063" lat="50.890156"><ele>22</ele><time>2022-06-26T07:23:40.000Z</time></trkpt><trkpt lon="5.71102" lat="50.890068"><ele>22</ele><time>2022-06-26T07:23:41.000Z</time></trkpt><trkpt lon="5.710993" lat="50.890009"><ele>22.2</ele><time>2022-06-26T07:23:42.000Z</time></trkpt><trkpt lon="5.710955" lat="50.889922"><ele>22.2</ele><time>2022-06-26T07:23:43.000Z</time></trkpt><trkpt lon="5.71093" lat="50.889871"><ele>22.2</ele><time>2022-06-26T07:23:44.000Z</time></trkpt><trkpt lon="5.710879" lat="50.889784"><ele>22.2</ele><time>2022-06-26T07:23:45.000Z</time></trkpt><trkpt lon="5.710847" lat="50.889727"><ele>22.2</ele><time>2022-06-26T07:23:46.000Z</time></trkpt><trkpt lon="5.710797" lat="50.889647"><ele>22.4</ele><time>2022-06-26T07:23:47.000Z</time></trkpt><trkpt lon="5.710762" lat="50.889592"><ele>22.2</ele><time>2022-06-26T07:23:48.000Z</time></trkpt><trkpt lon="5.710702" lat="50.889514"><ele>22.2</ele><time>2022-06-26T07:23:49.000Z</time></trkpt><trkpt lon="5.710656" lat="50.889454"><ele>22.2</ele><time>2022-06-26T07:23:50.000Z</time></trkpt><trkpt lon="5.710594" lat="50.889369"><ele>22.2</ele><time>2022-06-26T07:23:51.000Z</time></trkpt><trkpt lon="5.710552" lat="50.88932"><ele>22.2</ele><time>2022-06-26T07:23:52.000Z</time></trkpt><trkpt lon="5.710486" lat="50.889232"><ele>22</ele><time>2022-06-26T07:23:53.000Z</time></trkpt><trkpt lon="5.710434" lat="50.889165"><ele>22</ele><time>2022-06-26T07:23:54.000Z</time></trkpt><trkpt lon="5.710376" lat="50.88909"><ele>22.2</ele><time>2022-06-26T07:23:55.000Z</time></trkpt><trkpt lon="5.71034" lat="50.889038"><ele>22.2</ele><time>2022-06-26T07:23:56.000Z</time></trkpt><trkpt lon="5.71028" lat="50.888954"><ele>23</ele><time>2022-06-26T07:23:57.000Z</time></trkpt><trkpt lon="5.710262" lat="50.888928"><ele>23</ele><time>2022-06-26T07:23:58.000Z</time></trkpt><trkpt lon="5.710244" lat="50.888903"><ele>23</ele><time>2022-06-26T07:23:59.000Z</time></trkpt><trkpt lon="5.710213" lat="50.888855"><ele>22.8</ele><time>2022-06-26T07:24:00.000Z</time></trkpt><trkpt lon="5.710146" lat="50.88874"><ele>23</ele><time>2022-06-26T07:24:01.000Z</time></trkpt><trkpt lon="5.71008" lat="50.888626"><ele>23.2</ele><time>2022-06-26T07:24:02.000Z</time></trkpt><trkpt lon="5.710032" lat="50.888537"><ele>23.2</ele><time>2022-06-26T07:24:03.000Z</time></trkpt><trkpt lon="5.71" lat="50.888483"><ele>23.2</ele><time>2022-06-26T07:24:04.000Z</time></trkpt><trkpt lon="5.709944" lat="50.888404"><ele>23.4</ele><time>2022-06-26T07:24:05.000Z</time></trkpt><trkpt lon="5.709903" lat="50.888354"><ele>23.4</ele><time>2022-06-26T07:24:06.000Z</time></trkpt><trkpt lon="5.709838" lat="50.888278"><ele>23.6</ele><time>2022-06-26T07:24:07.000Z</time></trkpt><trkpt lon="5.709796" lat="50.888227"><ele>23.6</ele><time>2022-06-26T07:24:08.000Z</time></trkpt><trkpt lon="5.709739" lat="50.888156"><ele>23.6</ele><time>2022-06-26T07:24:09.000Z</time></trkpt><trkpt lon="5.709697" lat="50.888102"><ele>23.2</ele><time>2022-06-26T07:24:10.000Z</time></trkpt><trkpt lon="5.709641" lat="50.88803"><ele>23</ele><time>2022-06-26T07:24:11.000Z</time></trkpt><trkpt lon="5.709608" lat="50.887988"><ele>23</ele><time>2022-06-26T07:24:12.000Z</time></trkpt><trkpt lon="5.709549" lat="50.887915"><ele>23</ele><time>2022-06-26T07:24:13.000Z</time></trkpt><trkpt lon="5.709511" lat="50.887869"><ele>23.2</ele><time>2022-06-26T07:24:14.000Z</time></trkpt><trkpt lon="5.709463" lat="50.887812"><ele>23.4</ele><time>2022-06-26T07:24:15.000Z</time></trkpt><trkpt lon="5.70943" lat="50.88777"><ele>23.6</ele><time>2022-06-26T07:24:16.000Z</time></trkpt><trkpt lon="5.709394" lat="50.887725"><ele>23.6</ele><time>2022-06-26T07:24:17.000Z</time></trkpt><trkpt lon="5.709363" lat="50.887699"><ele>23.6</ele><time>2022-06-26T07:24:18.000Z</time></trkpt><trkpt lon="5.709327" lat="50.887684"><ele>23.8</ele><time>2022-06-26T07:24:19.000Z</time></trkpt><trkpt lon="5.709279" lat="50.887688"><ele>23.8</ele><time>2022-06-26T07:24:20.000Z</time></trkpt><trkpt lon="5.709214" lat="50.887699"><ele>23.8</ele><time>2022-06-26T07:24:21.000Z</time></trkpt><trkpt lon="5.709154" lat="50.887714"><ele>23.8</ele><time>2022-06-26T07:24:22.000Z</time></trkpt><trkpt lon="5.709051" lat="50.887734"><ele>23.8</ele><time>2022-06-26T07:24:23.000Z</time></trkpt><trkpt lon="5.708984" lat="50.887748"><ele>23.8</ele><time>2022-06-26T07:24:24.000Z</time></trkpt><trkpt lon="5.70887" lat="50.887772"><ele>23.8</ele><time>2022-06-26T07:24:25.000Z</time></trkpt><trkpt lon="5.708799" lat="50.887786"><ele>24</ele><time>2022-06-26T07:24:26.000Z</time></trkpt><trkpt lon="5.708677" lat="50.887822"><ele>23.8</ele><time>2022-06-26T07:24:27.000Z</time></trkpt><trkpt lon="5.708593" lat="50.887841"><ele>23.8</ele><time>2022-06-26T07:24:28.000Z</time></trkpt><trkpt lon="5.708479" lat="50.887875"><ele>23.8</ele><time>2022-06-26T07:24:29.000Z</time></trkpt><trkpt lon="5.708401" lat="50.887895"><ele>23.8</ele><time>2022-06-26T07:24:30.000Z</time></trkpt><trkpt lon="5.708273" lat="50.887928"><ele>23.8</ele><time>2022-06-26T07:24:31.000Z</time></trkpt><trkpt lon="5.708192" lat="50.887949"><ele>23.8</ele><time>2022-06-26T07:24:32.000Z</time></trkpt><trkpt lon="5.708061" lat="50.887978"><ele>23.6</ele><time>2022-06-26T07:24:33.000Z</time></trkpt><trkpt lon="5.707961" lat="50.888003"><ele>23.6</ele><time>2022-06-26T07:24:34.000Z</time></trkpt><trkpt lon="5.707849" lat="50.888035"><ele>23.6</ele><time>2022-06-26T07:24:35.000Z</time></trkpt><trkpt lon="5.707775" lat="50.888054"><ele>23.6</ele><time>2022-06-26T07:24:36.000Z</time></trkpt><trkpt lon="5.707639" lat="50.888089"><ele>23.6</ele><time>2022-06-26T07:24:37.000Z</time></trkpt><trkpt lon="5.707542" lat="50.888117"><ele>23.4</ele><time>2022-06-26T07:24:38.000Z</time></trkpt><trkpt lon="5.707428" lat="50.888149"><ele>23.4</ele><time>2022-06-26T07:24:39.000Z</time></trkpt><trkpt lon="5.707354" lat="50.888168"><ele>23.4</ele><time>2022-06-26T07:24:40.000Z</time></trkpt><trkpt lon="5.707218" lat="50.888203"><ele>23.4</ele><time>2022-06-26T07:24:41.000Z</time></trkpt><trkpt lon="5.707133" lat="50.888223"><ele>23.4</ele><time>2022-06-26T07:24:42.000Z</time></trkpt><trkpt lon="5.70702" lat="50.888249"><ele>23.4</ele><time>2022-06-26T07:24:43.000Z</time></trkpt><trkpt lon="5.706948" lat="50.888267"><ele>23.4</ele><time>2022-06-26T07:24:44.000Z</time></trkpt><trkpt lon="5.706842" lat="50.888295"><ele>23.4</ele><time>2022-06-26T07:24:45.000Z</time></trkpt><trkpt lon="5.706777" lat="50.88831"><ele>23.4</ele><time>2022-06-26T07:24:46.000Z</time></trkpt><trkpt lon="5.706689" lat="50.888328"><ele>23.4</ele><time>2022-06-26T07:24:47.000Z</time></trkpt><trkpt lon="5.706641" lat="50.888323"><ele>23.4</ele><time>2022-06-26T07:24:48.000Z</time></trkpt><trkpt lon="5.70657" lat="50.888301"><ele>23.4</ele><time>2022-06-26T07:24:49.000Z</time></trkpt><trkpt lon="5.70654" lat="50.888259"><ele>23.2</ele><time>2022-06-26T07:24:50.000Z</time></trkpt><trkpt lon="5.706522" lat="50.888217"><ele>23.2</ele><time>2022-06-26T07:24:51.000Z</time></trkpt><trkpt lon="5.706491" lat="50.888141"><ele>23</ele><time>2022-06-26T07:24:52.000Z</time></trkpt><trkpt lon="5.706471" lat="50.888091"><ele>22.8</ele><time>2022-06-26T07:24:53.000Z</time></trkpt><trkpt lon="5.706436" lat="50.888007"><ele>22.8</ele><time>2022-06-26T07:24:54.000Z</time></trkpt><trkpt lon="5.706412" lat="50.887956"><ele>22.8</ele><time>2022-06-26T07:24:55.000Z</time></trkpt><trkpt lon="5.706376" lat="50.887874"><ele>22.8</ele><time>2022-06-26T07:24:56.000Z</time></trkpt><trkpt lon="5.70635" lat="50.887829"><ele>22.8</ele><time>2022-06-26T07:24:57.000Z</time></trkpt><trkpt lon="5.706287" lat="50.887744"><ele>22.6</ele><time>2022-06-26T07:24:58.000Z</time></trkpt><trkpt lon="5.70625" lat="50.887699"><ele>22.6</ele><time>2022-06-26T07:24:59.000Z</time></trkpt><trkpt lon="5.706181" lat="50.887618"><ele>22.6</ele><time>2022-06-26T07:25:00.000Z</time></trkpt><trkpt lon="5.706141" lat="50.887567"><ele>22.8</ele><time>2022-06-26T07:25:01.000Z</time></trkpt><trkpt lon="5.706081" lat="50.887488"><ele>22.8</ele><time>2022-06-26T07:25:02.000Z</time></trkpt><trkpt lon="5.706045" lat="50.887443"><ele>22.8</ele><time>2022-06-26T07:25:03.000Z</time></trkpt><trkpt lon="5.705987" lat="50.887362"><ele>23</ele><time>2022-06-26T07:25:04.000Z</time></trkpt><trkpt lon="5.705948" lat="50.887305"><ele>23</ele><time>2022-06-26T07:25:05.000Z</time></trkpt><trkpt lon="5.705896" lat="50.887236"><ele>23</ele><time>2022-06-26T07:25:06.000Z</time></trkpt><trkpt lon="5.705863" lat="50.887189"><ele>22.8</ele><time>2022-06-26T07:25:07.000Z</time></trkpt><trkpt lon="5.705801" lat="50.887103"><ele>22.8</ele><time>2022-06-26T07:25:08.000Z</time></trkpt><trkpt lon="5.705764" lat="50.887048"><ele>22.8</ele><time>2022-06-26T07:25:09.000Z</time></trkpt><trkpt lon="5.705708" lat="50.886969"><ele>22.8</ele><time>2022-06-26T07:25:10.000Z</time></trkpt><trkpt lon="5.705672" lat="50.88692"><ele>23</ele><time>2022-06-26T07:25:11.000Z</time></trkpt><trkpt lon="5.705611" lat="50.886836"><ele>23</ele><time>2022-06-26T07:25:12.000Z</time></trkpt><trkpt lon="5.705576" lat="50.886787"><ele>23</ele><time>2022-06-26T07:25:13.000Z</time></trkpt><trkpt lon="5.705516" lat="50.886699"><ele>22.8</ele><time>2022-06-26T07:25:14.000Z</time></trkpt><trkpt lon="5.705484" lat="50.88665"><ele>22.6</ele><time>2022-06-26T07:25:15.000Z</time></trkpt><trkpt lon="5.705423" lat="50.886565"><ele>22.4</ele><time>2022-06-26T07:25:16.000Z</time></trkpt><trkpt lon="5.70539" lat="50.886517"><ele>22.4</ele><time>2022-06-26T07:25:17.000Z</time></trkpt><trkpt lon="5.705329" lat="50.886436"><ele>22.2</ele><time>2022-06-26T07:25:18.000Z</time></trkpt><trkpt lon="5.705292" lat="50.886385"><ele>22.2</ele><time>2022-06-26T07:25:19.000Z</time></trkpt><trkpt lon="5.705231" lat="50.886302"><ele>22</ele><time>2022-06-26T07:25:20.000Z</time></trkpt><trkpt lon="5.70519" lat="50.886247"><ele>21.8</ele><time>2022-06-26T07:25:21.000Z</time></trkpt><trkpt lon="5.705131" lat="50.886172"><ele>21.8</ele><time>2022-06-26T07:25:22.000Z</time></trkpt><trkpt lon="5.705097" lat="50.886132"><ele>21.6</ele><time>2022-06-26T07:25:23.000Z</time></trkpt><trkpt lon="5.705032" lat="50.886051"><ele>21.6</ele><time>2022-06-26T07:25:24.000Z</time></trkpt><trkpt lon="5.705" lat="50.886005"><ele>21.6</ele><time>2022-06-26T07:25:25.000Z</time></trkpt><trkpt lon="5.704942" lat="50.885921"><ele>21.6</ele><time>2022-06-26T07:25:26.000Z</time></trkpt><trkpt lon="5.704908" lat="50.885875"><ele>21.8</ele><time>2022-06-26T07:25:27.000Z</time></trkpt><trkpt lon="5.704849" lat="50.885794"><ele>22</ele><time>2022-06-26T07:25:28.000Z</time></trkpt><trkpt lon="5.704805" lat="50.88574"><ele>22</ele><time>2022-06-26T07:25:29.000Z</time></trkpt><trkpt lon="5.704747" lat="50.885672"><ele>22.4</ele><time>2022-06-26T07:25:30.000Z</time></trkpt><trkpt lon="5.704707" lat="50.885618"><ele>22.4</ele><time>2022-06-26T07:25:31.000Z</time></trkpt><trkpt lon="5.704649" lat="50.885542"><ele>22.4</ele><time>2022-06-26T07:25:32.000Z</time></trkpt><trkpt lon="5.704607" lat="50.88549"><ele>22.4</ele><time>2022-06-26T07:25:33.000Z</time></trkpt><trkpt lon="5.704549" lat="50.885417"><ele>22.4</ele><time>2022-06-26T07:25:34.000Z</time></trkpt><trkpt lon="5.704506" lat="50.885364"><ele>22.2</ele><time>2022-06-26T07:25:35.000Z</time></trkpt><trkpt lon="5.704449" lat="50.885287"><ele>22.2</ele><time>2022-06-26T07:25:36.000Z</time></trkpt><trkpt lon="5.704406" lat="50.885231"><ele>22.2</ele><time>2022-06-26T07:25:37.000Z</time></trkpt><trkpt lon="5.704349" lat="50.885161"><ele>22</ele><time>2022-06-26T07:25:38.000Z</time></trkpt><trkpt lon="5.704315" lat="50.885119"><ele>22</ele><time>2022-06-26T07:25:39.000Z</time></trkpt><trkpt lon="5.704251" lat="50.885035"><ele>22</ele><time>2022-06-26T07:25:40.000Z</time></trkpt><trkpt lon="5.704211" lat="50.884985"><ele>22.2</ele><time>2022-06-26T07:25:41.000Z</time></trkpt><trkpt lon="5.704151" lat="50.884913"><ele>22</ele><time>2022-06-26T07:25:42.000Z</time></trkpt><trkpt lon="5.704115" lat="50.884869"><ele>22</ele><time>2022-06-26T07:25:43.000Z</time></trkpt><trkpt lon="5.704053" lat="50.884788"><ele>22</ele><time>2022-06-26T07:25:44.000Z</time></trkpt><trkpt lon="5.704026" lat="50.884742"><ele>22</ele><time>2022-06-26T07:25:45.000Z</time></trkpt><trkpt lon="5.703972" lat="50.884662"><ele>22</ele><time>2022-06-26T07:25:46.000Z</time></trkpt><trkpt lon="5.703937" lat="50.884615"><ele>22</ele><time>2022-06-26T07:25:47.000Z</time></trkpt><trkpt lon="5.703874" lat="50.884536"><ele>22</ele><time>2022-06-26T07:25:48.000Z</time></trkpt><trkpt lon="5.703833" lat="50.88449"><ele>22</ele><time>2022-06-26T07:25:49.000Z</time></trkpt><trkpt lon="5.703769" lat="50.884417"><ele>22</ele><time>2022-06-26T07:25:50.000Z</time></trkpt><trkpt lon="5.703734" lat="50.884369"><ele>22</ele><time>2022-06-26T07:25:51.000Z</time></trkpt><trkpt lon="5.703679" lat="50.884292"><ele>22.2</ele><time>2022-06-26T07:25:52.000Z</time></trkpt><trkpt lon="5.70365" lat="50.884251"><ele>22.2</ele><time>2022-06-26T07:25:53.000Z</time></trkpt><trkpt lon="5.703591" lat="50.884169"><ele>22.2</ele><time>2022-06-26T07:25:54.000Z</time></trkpt><trkpt lon="5.703553" lat="50.88412"><ele>22.2</ele><time>2022-06-26T07:25:55.000Z</time></trkpt><trkpt lon="5.703498" lat="50.884044"><ele>22.2</ele><time>2022-06-26T07:25:56.000Z</time></trkpt><trkpt lon="5.70346" lat="50.883986"><ele>22.2</ele><time>2022-06-26T07:25:57.000Z</time></trkpt><trkpt lon="5.703406" lat="50.88391"><ele>22.2</ele><time>2022-06-26T07:25:58.000Z</time></trkpt><trkpt lon="5.703366" lat="50.883856"><ele>22</ele><time>2022-06-26T07:25:59.000Z</time></trkpt><trkpt lon="5.703313" lat="50.883781"><ele>21.8</ele><time>2022-06-26T07:26:00.000Z</time></trkpt><trkpt lon="5.703281" lat="50.88373"><ele>21.8</ele><time>2022-06-26T07:26:01.000Z</time></trkpt><trkpt lon="5.703222" lat="50.883654"><ele>21.8</ele><time>2022-06-26T07:26:02.000Z</time></trkpt><trkpt lon="5.703187" lat="50.883607"><ele>21.8</ele><time>2022-06-26T07:26:03.000Z</time></trkpt><trkpt lon="5.703129" lat="50.883529"><ele>21.8</ele><time>2022-06-26T07:26:04.000Z</time></trkpt><trkpt lon="5.703101" lat="50.883484"><ele>21.8</ele><time>2022-06-26T07:26:05.000Z</time></trkpt><trkpt lon="5.703048" lat="50.883399"><ele>21.8</ele><time>2022-06-26T07:26:06.000Z</time></trkpt><trkpt lon="5.703012" lat="50.883356"><ele>22</ele><time>2022-06-26T07:26:07.000Z</time></trkpt><trkpt lon="5.702946" lat="50.883273"><ele>22</ele><time>2022-06-26T07:26:08.000Z</time></trkpt><trkpt lon="5.702907" lat="50.883228"><ele>21.8</ele><time>2022-06-26T07:26:09.000Z</time></trkpt><trkpt lon="5.702841" lat="50.883142"><ele>21.8</ele><time>2022-06-26T07:26:10.000Z</time></trkpt><trkpt lon="5.702801" lat="50.883094"><ele>21.8</ele><time>2022-06-26T07:26:11.000Z</time></trkpt><trkpt lon="5.702736" lat="50.88301"><ele>21.8</ele><time>2022-06-26T07:26:12.000Z</time></trkpt><trkpt lon="5.702693" lat="50.882954"><ele>21.8</ele><time>2022-06-26T07:26:13.000Z</time></trkpt><trkpt lon="5.702639" lat="50.88288"><ele>21.8</ele><time>2022-06-26T07:26:14.000Z</time></trkpt><trkpt lon="5.702609" lat="50.882841"><ele>21.8</ele><time>2022-06-26T07:26:15.000Z</time></trkpt><trkpt lon="5.702545" lat="50.882755"><ele>21.8</ele><time>2022-06-26T07:26:16.000Z</time></trkpt><trkpt lon="5.702513" lat="50.882712"><ele>21.8</ele><time>2022-06-26T07:26:17.000Z</time></trkpt><trkpt lon="5.702454" lat="50.882633"><ele>22</ele><time>2022-06-26T07:26:18.000Z</time></trkpt><trkpt lon="5.702423" lat="50.882591"><ele>22</ele><time>2022-06-26T07:26:19.000Z</time></trkpt><trkpt lon="5.70237" lat="50.882518"><ele>22.2</ele><time>2022-06-26T07:26:20.000Z</time></trkpt><trkpt lon="5.702344" lat="50.882479"><ele>22.4</ele><time>2022-06-26T07:26:21.000Z</time></trkpt><trkpt lon="5.702308" lat="50.882419"><ele>22.4</ele><time>2022-06-26T07:26:22.000Z</time></trkpt><trkpt lon="5.702304" lat="50.882386"><ele>22.6</ele><time>2022-06-26T07:26:23.000Z</time></trkpt><trkpt lon="5.702331" lat="50.882331"><ele>22.4</ele><time>2022-06-26T07:26:24.000Z</time></trkpt><trkpt lon="5.702392" lat="50.882305"><ele>22.4</ele><time>2022-06-26T07:26:25.000Z</time></trkpt><trkpt lon="5.702445" lat="50.882289"><ele>22.4</ele><time>2022-06-26T07:26:26.000Z</time></trkpt><trkpt lon="5.702579" lat="50.882251"><ele>22.2</ele><time>2022-06-26T07:26:27.000Z</time></trkpt><trkpt lon="5.70266" lat="50.88223"><ele>22.2</ele><time>2022-06-26T07:26:28.000Z</time></trkpt><trkpt lon="5.702787" lat="50.882198"><ele>22.2</ele><time>2022-06-26T07:26:29.000Z</time></trkpt><trkpt lon="5.702855" lat="50.882178"><ele>22</ele><time>2022-06-26T07:26:30.000Z</time></trkpt><trkpt lon="5.702997" lat="50.882137"><ele>22.2</ele><time>2022-06-26T07:26:31.000Z</time></trkpt><trkpt lon="5.703073" lat="50.882118"><ele>22.4</ele><time>2022-06-26T07:26:32.000Z</time></trkpt><trkpt lon="5.70321" lat="50.882083"><ele>22.6</ele><time>2022-06-26T07:26:33.000Z</time></trkpt><trkpt lon="5.703276" lat="50.882066"><ele>22.6</ele><time>2022-06-26T07:26:34.000Z</time></trkpt><trkpt lon="5.703419" lat="50.882034"><ele>22.8</ele><time>2022-06-26T07:26:35.000Z</time></trkpt><trkpt lon="5.703498" lat="50.882014"><ele>22.8</ele><time>2022-06-26T07:26:36.000Z</time></trkpt><trkpt lon="5.703625" lat="50.881981"><ele>22.8</ele><time>2022-06-26T07:26:37.000Z</time></trkpt><trkpt lon="5.703693" lat="50.881963"><ele>22.8</ele><time>2022-06-26T07:26:38.000Z</time></trkpt><trkpt lon="5.703831" lat="50.881923"><ele>22.6</ele><time>2022-06-26T07:26:39.000Z</time></trkpt><trkpt lon="5.70389" lat="50.881909"><ele>22.6</ele><time>2022-06-26T07:26:40.000Z</time></trkpt><trkpt lon="5.704039" lat="50.881868"><ele>22.8</ele><time>2022-06-26T07:26:41.000Z</time></trkpt><trkpt lon="5.704116" lat="50.881851"><ele>22.8</ele><time>2022-06-26T07:26:42.000Z</time></trkpt><trkpt lon="5.704256" lat="50.881813"><ele>22.6</ele><time>2022-06-26T07:26:43.000Z</time></trkpt><trkpt lon="5.704326" lat="50.881795"><ele>22.8</ele><time>2022-06-26T07:26:44.000Z</time></trkpt><trkpt lon="5.704462" lat="50.881759"><ele>22.8</ele><time>2022-06-26T07:26:45.000Z</time></trkpt><trkpt lon="5.704514" lat="50.881745"><ele>22.8</ele><time>2022-06-26T07:26:46.000Z</time></trkpt><trkpt lon="5.704643" lat="50.881698"><ele>23</ele><time>2022-06-26T07:26:47.000Z</time></trkpt><trkpt lon="5.704685" lat="50.88167"><ele>23</ele><time>2022-06-26T07:26:48.000Z</time></trkpt><trkpt lon="5.70472" lat="50.88161"><ele>23.2</ele><time>2022-06-26T07:26:49.000Z</time></trkpt><trkpt lon="5.704713" lat="50.881578"><ele>23.4</ele><time>2022-06-26T07:26:50.000Z</time></trkpt><trkpt lon="5.70469" lat="50.8815"><ele>23.8</ele><time>2022-06-26T07:26:51.000Z</time></trkpt><trkpt lon="5.704666" lat="50.881456"><ele>24</ele><time>2022-06-26T07:26:52.000Z</time></trkpt><trkpt lon="5.704615" lat="50.881366"><ele>24.2</ele><time>2022-06-26T07:26:53.000Z</time></trkpt><trkpt lon="5.704596" lat="50.881334"><ele>24.2</ele><time>2022-06-26T07:26:54.000Z</time></trkpt><trkpt lon="5.704536" lat="50.881244"><ele>24.4</ele><time>2022-06-26T07:26:55.000Z</time></trkpt><trkpt lon="5.704508" lat="50.881205"><ele>24.6</ele><time>2022-06-26T07:26:56.000Z</time></trkpt><trkpt lon="5.704438" lat="50.881111"><ele>24.6</ele><time>2022-06-26T07:26:57.000Z</time></trkpt><trkpt lon="5.704408" lat="50.881071"><ele>24.6</ele><time>2022-06-26T07:26:58.000Z</time></trkpt><trkpt lon="5.704331" lat="50.880969"><ele>24.6</ele><time>2022-06-26T07:26:59.000Z</time></trkpt><trkpt lon="5.704299" lat="50.880928"><ele>24.6</ele><time>2022-06-26T07:27:00.000Z</time></trkpt><trkpt lon="5.70422" lat="50.880825"><ele>24.6</ele><time>2022-06-26T07:27:01.000Z</time></trkpt><trkpt lon="5.704185" lat="50.880777"><ele>24.6</ele><time>2022-06-26T07:27:02.000Z</time></trkpt><trkpt lon="5.704111" lat="50.880679"><ele>24.8</ele><time>2022-06-26T07:27:03.000Z</time></trkpt><trkpt lon="5.70408" lat="50.880638"><ele>25</ele><time>2022-06-26T07:27:04.000Z</time></trkpt><trkpt lon="5.704001" lat="50.880538"><ele>25.2</ele><time>2022-06-26T07:27:05.000Z</time></trkpt><trkpt lon="5.703971" lat="50.880497"><ele>25.2</ele><time>2022-06-26T07:27:06.000Z</time></trkpt><trkpt lon="5.703894" lat="50.880397"><ele>25.4</ele><time>2022-06-26T07:27:07.000Z</time></trkpt><trkpt lon="5.703861" lat="50.880353"><ele>25.4</ele><time>2022-06-26T07:27:08.000Z</time></trkpt><trkpt lon="5.70379" lat="50.88026"><ele>25.4</ele><time>2022-06-26T07:27:09.000Z</time></trkpt><trkpt lon="5.703765" lat="50.880229"><ele>25.4</ele><time>2022-06-26T07:27:10.000Z</time></trkpt><trkpt lon="5.70374" lat="50.880198"><ele>25.2</ele><time>2022-06-26T07:27:11.000Z</time></trkpt><trkpt lon="5.703662" lat="50.880097"><ele>25.2</ele><time>2022-06-26T07:27:12.000Z</time></trkpt><trkpt lon="5.703584" lat="50.879996"><ele>25.2</ele><time>2022-06-26T07:27:13.000Z</time></trkpt><trkpt lon="5.703532" lat="50.879935"><ele>25</ele><time>2022-06-26T07:27:14.000Z</time></trkpt><trkpt lon="5.70348" lat="50.87987"><ele>25</ele><time>2022-06-26T07:27:15.000Z</time></trkpt><trkpt lon="5.703427" lat="50.879805"><ele>25</ele><time>2022-06-26T07:27:16.000Z</time></trkpt><trkpt lon="5.703381" lat="50.879744"><ele>24.8</ele><time>2022-06-26T07:27:17.000Z</time></trkpt><trkpt lon="5.703332" lat="50.879683"><ele>24.8</ele><time>2022-06-26T07:27:18.000Z</time></trkpt><trkpt lon="5.703286" lat="50.879627"><ele>24.8</ele><time>2022-06-26T07:27:19.000Z</time></trkpt><trkpt lon="5.703232" lat="50.879561"><ele>25</ele><time>2022-06-26T07:27:20.000Z</time></trkpt><trkpt lon="5.703181" lat="50.8795"><ele>25</ele><time>2022-06-26T07:27:21.000Z</time></trkpt><trkpt lon="5.703131" lat="50.879436"><ele>25</ele><time>2022-06-26T07:27:22.000Z</time></trkpt><trkpt lon="5.703079" lat="50.879375"><ele>25</ele><time>2022-06-26T07:27:23.000Z</time></trkpt><trkpt lon="5.703027" lat="50.879313"><ele>25</ele><time>2022-06-26T07:27:24.000Z</time></trkpt><trkpt lon="5.702977" lat="50.879248"><ele>25</ele><time>2022-06-26T07:27:25.000Z</time></trkpt><trkpt lon="5.702922" lat="50.879188"><ele>25.2</ele><time>2022-06-26T07:27:26.000Z</time></trkpt><trkpt lon="5.702869" lat="50.879126"><ele>25.2</ele><time>2022-06-26T07:27:27.000Z</time></trkpt><trkpt lon="5.702819" lat="50.879065"><ele>25.4</ele><time>2022-06-26T07:27:28.000Z</time></trkpt><trkpt lon="5.702771" lat="50.879"><ele>25.4</ele><time>2022-06-26T07:27:29.000Z</time></trkpt><trkpt lon="5.702721" lat="50.878936"><ele>25.2</ele><time>2022-06-26T07:27:30.000Z</time></trkpt><trkpt lon="5.702675" lat="50.878875"><ele>25.2</ele><time>2022-06-26T07:27:31.000Z</time></trkpt><trkpt lon="5.702626" lat="50.87881"><ele>25.2</ele><time>2022-06-26T07:27:32.000Z</time></trkpt><trkpt lon="5.702578" lat="50.878745"><ele>25.2</ele><time>2022-06-26T07:27:33.000Z</time></trkpt><trkpt lon="5.702534" lat="50.878684"><ele>25.2</ele><time>2022-06-26T07:27:34.000Z</time></trkpt><trkpt lon="5.702493" lat="50.878624"><ele>25.2</ele><time>2022-06-26T07:27:35.000Z</time></trkpt><trkpt lon="5.702451" lat="50.878565"><ele>25.2</ele><time>2022-06-26T07:27:36.000Z</time></trkpt><trkpt lon="5.702409" lat="50.878508"><ele>25.4</ele><time>2022-06-26T07:27:37.000Z</time></trkpt><trkpt lon="5.702369" lat="50.878447"><ele>25.6</ele><time>2022-06-26T07:27:38.000Z</time></trkpt><trkpt lon="5.702323" lat="50.878386"><ele>25.8</ele><time>2022-06-26T07:27:39.000Z</time></trkpt><trkpt lon="5.702276" lat="50.878326"><ele>25.8</ele><time>2022-06-26T07:27:40.000Z</time></trkpt><trkpt lon="5.702229" lat="50.878261"><ele>25.8</ele><time>2022-06-26T07:27:41.000Z</time></trkpt><trkpt lon="5.702175" lat="50.8782"><ele>25.8</ele><time>2022-06-26T07:27:42.000Z</time></trkpt><trkpt lon="5.702124" lat="50.87813"><ele>25.8</ele><time>2022-06-26T07:27:43.000Z</time></trkpt><trkpt lon="5.702072" lat="50.878066"><ele>25.8</ele><time>2022-06-26T07:27:44.000Z</time></trkpt><trkpt lon="5.702026" lat="50.877997"><ele>25.8</ele><time>2022-06-26T07:27:45.000Z</time></trkpt><trkpt lon="5.701984" lat="50.877924"><ele>25.8</ele><time>2022-06-26T07:27:46.000Z</time></trkpt><trkpt lon="5.701943" lat="50.877856"><ele>25.8</ele><time>2022-06-26T07:27:47.000Z</time></trkpt><trkpt lon="5.701896" lat="50.877779"><ele>25.8</ele><time>2022-06-26T07:27:48.000Z</time></trkpt><trkpt lon="5.701853" lat="50.877713"><ele>25.8</ele><time>2022-06-26T07:27:49.000Z</time></trkpt><trkpt lon="5.701811" lat="50.877631"><ele>25.8</ele><time>2022-06-26T07:27:50.000Z</time></trkpt><trkpt lon="5.701769" lat="50.87756"><ele>25.8</ele><time>2022-06-26T07:27:51.000Z</time></trkpt><trkpt lon="5.701738" lat="50.877485"><ele>25.8</ele><time>2022-06-26T07:27:52.000Z</time></trkpt><trkpt lon="5.701703" lat="50.877412"><ele>25.8</ele><time>2022-06-26T07:27:53.000Z</time></trkpt><trkpt lon="5.701674" lat="50.877341"><ele>25.8</ele><time>2022-06-26T07:27:54.000Z</time></trkpt><trkpt lon="5.70164" lat="50.877272"><ele>25.8</ele><time>2022-06-26T07:27:55.000Z</time></trkpt><trkpt lon="5.701611" lat="50.877204"><ele>25.8</ele><time>2022-06-26T07:27:56.000Z</time></trkpt><trkpt lon="5.701582" lat="50.877147"><ele>25.8</ele><time>2022-06-26T07:27:57.000Z</time></trkpt><trkpt lon="5.701548" lat="50.877075"><ele>25.8</ele><time>2022-06-26T07:27:58.000Z</time></trkpt><trkpt lon="5.701519" lat="50.877005"><ele>25.8</ele><time>2022-06-26T07:27:59.000Z</time></trkpt><trkpt lon="5.701491" lat="50.876937"><ele>25.8</ele><time>2022-06-26T07:28:00.000Z</time></trkpt><trkpt lon="5.701466" lat="50.876876"><ele>25.8</ele><time>2022-06-26T07:28:01.000Z</time></trkpt><trkpt lon="5.70144" lat="50.876788"><ele>25.8</ele><time>2022-06-26T07:28:02.000Z</time></trkpt><trkpt lon="5.701421" lat="50.876711"><ele>25.8</ele><time>2022-06-26T07:28:03.000Z</time></trkpt><trkpt lon="5.701401" lat="50.876631"><ele>25.6</ele><time>2022-06-26T07:28:04.000Z</time></trkpt><trkpt lon="5.701375" lat="50.87656"><ele>25.6</ele><time>2022-06-26T07:28:05.000Z</time></trkpt><trkpt lon="5.701348" lat="50.876483"><ele>25.6</ele><time>2022-06-26T07:28:06.000Z</time></trkpt><trkpt lon="5.701323" lat="50.87641"><ele>25.6</ele><time>2022-06-26T07:28:07.000Z</time></trkpt><trkpt lon="5.701303" lat="50.876338"><ele>25.4</ele><time>2022-06-26T07:28:08.000Z</time></trkpt><trkpt lon="5.701287" lat="50.876278"><ele>25.4</ele><time>2022-06-26T07:28:09.000Z</time></trkpt><trkpt lon="5.70126" lat="50.876198"><ele>25.4</ele><time>2022-06-26T07:28:10.000Z</time></trkpt><trkpt lon="5.701239" lat="50.876138"><ele>25.4</ele><time>2022-06-26T07:28:11.000Z</time></trkpt><trkpt lon="5.70121" lat="50.876048"><ele>25.4</ele><time>2022-06-26T07:28:12.000Z</time></trkpt><trkpt lon="5.701191" lat="50.875981"><ele>25.6</ele><time>2022-06-26T07:28:13.000Z</time></trkpt><trkpt lon="5.701176" lat="50.875903"><ele>25.6</ele><time>2022-06-26T07:28:14.000Z</time></trkpt><trkpt lon="5.701161" lat="50.875851"><ele>25.4</ele><time>2022-06-26T07:28:15.000Z</time></trkpt><trkpt lon="5.701126" lat="50.875765"><ele>25.4</ele><time>2022-06-26T07:28:16.000Z</time></trkpt><trkpt lon="5.701102" lat="50.875709"><ele>25.6</ele><time>2022-06-26T07:28:17.000Z</time></trkpt><trkpt lon="5.701066" lat="50.875617"><ele>25.6</ele><time>2022-06-26T07:28:18.000Z</time></trkpt><trkpt lon="5.701044" lat="50.87556"><ele>25.6</ele><time>2022-06-26T07:28:19.000Z</time></trkpt><trkpt lon="5.701013" lat="50.875475"><ele>25.6</ele><time>2022-06-26T07:28:20.000Z</time></trkpt><trkpt lon="5.70099" lat="50.875403"><ele>25.4</ele><time>2022-06-26T07:28:21.000Z</time></trkpt><trkpt lon="5.700968" lat="50.875334"><ele>25.2</ele><time>2022-06-26T07:28:22.000Z</time></trkpt><trkpt lon="5.700947" lat="50.875264"><ele>25.2</ele><time>2022-06-26T07:28:23.000Z</time></trkpt><trkpt lon="5.700926" lat="50.875197"><ele>25</ele><time>2022-06-26T07:28:24.000Z</time></trkpt><trkpt lon="5.700911" lat="50.875145"><ele>25</ele><time>2022-06-26T07:28:25.000Z</time></trkpt><trkpt lon="5.70089" lat="50.875072"><ele>24.8</ele><time>2022-06-26T07:28:26.000Z</time></trkpt><trkpt lon="5.70087" lat="50.87503"><ele>25</ele><time>2022-06-26T07:28:27.000Z</time></trkpt><trkpt lon="5.700822" lat="50.874984"><ele>25.2</ele><time>2022-06-26T07:28:28.000Z</time></trkpt><trkpt lon="5.700777" lat="50.874963"><ele>25.4</ele><time>2022-06-26T07:28:29.000Z</time></trkpt><trkpt lon="5.700676" lat="50.874942"><ele>25.6</ele><time>2022-06-26T07:28:30.000Z</time></trkpt><trkpt lon="5.700599" lat="50.874926"><ele>25.8</ele><time>2022-06-26T07:28:31.000Z</time></trkpt><trkpt lon="5.700495" lat="50.874896"><ele>26</ele><time>2022-06-26T07:28:32.000Z</time></trkpt><trkpt lon="5.700426" lat="50.874867"><ele>26.2</ele><time>2022-06-26T07:28:33.000Z</time></trkpt><trkpt lon="5.700338" lat="50.87482"><ele>26.4</ele><time>2022-06-26T07:28:34.000Z</time></trkpt><trkpt lon="5.700269" lat="50.87477"><ele>26.6</ele><time>2022-06-26T07:28:35.000Z</time></trkpt><trkpt lon="5.700212" lat="50.874713"><ele>27</ele><time>2022-06-26T07:28:36.000Z</time></trkpt><trkpt lon="5.700173" lat="50.874656"><ele>27.4</ele><time>2022-06-26T07:28:37.000Z</time></trkpt><trkpt lon="5.700141" lat="50.874583"><ele>27.8</ele><time>2022-06-26T07:28:38.000Z</time></trkpt><trkpt lon="5.700139" lat="50.874534"><ele>28</ele><time>2022-06-26T07:28:39.000Z</time></trkpt><trkpt lon="5.700143" lat="50.874458"><ele>28.6</ele><time>2022-06-26T07:28:40.000Z</time></trkpt><trkpt lon="5.700155" lat="50.874405"><ele>28.8</ele><time>2022-06-26T07:28:41.000Z</time></trkpt><trkpt lon="5.700172" lat="50.874339"><ele>29.2</ele><time>2022-06-26T07:28:42.000Z</time></trkpt><trkpt lon="5.700177" lat="50.874299"><ele>29.8</ele><time>2022-06-26T07:28:43.000Z</time></trkpt><trkpt lon="5.700183" lat="50.874248"><ele>30.2</ele><time>2022-06-26T07:28:44.000Z</time></trkpt><trkpt lon="5.70019" lat="50.874222"><ele>30.6</ele><time>2022-06-26T07:28:45.000Z</time></trkpt><trkpt lon="5.700216" lat="50.874199"><ele>30.8</ele><time>2022-06-26T07:28:46.000Z</time></trkpt><trkpt lon="5.700247" lat="50.874207"><ele>31.2</ele><time>2022-06-26T07:28:47.000Z</time></trkpt><trkpt lon="5.700257" lat="50.87423"><ele>31.4</ele><time>2022-06-26T07:28:48.000Z</time></trkpt><trkpt lon="5.700257" lat="50.874264"><ele>31.6</ele><time>2022-06-26T07:28:49.000Z</time></trkpt><trkpt lon="5.700258" lat="50.874306"><ele>31.8</ele><time>2022-06-26T07:28:50.000Z</time></trkpt><trkpt lon="5.700265" lat="50.874352"><ele>31.8</ele><time>2022-06-26T07:28:51.000Z</time></trkpt><trkpt lon="5.700271" lat="50.874399"><ele>32</ele><time>2022-06-26T07:28:52.000Z</time></trkpt><trkpt lon="5.700275" lat="50.874459"><ele>32.2</ele><time>2022-06-26T07:28:53.000Z</time></trkpt><trkpt lon="5.700275" lat="50.874503"><ele>32.2</ele><time>2022-06-26T07:28:54.000Z</time></trkpt><trkpt lon="5.700282" lat="50.874562"><ele>32.4</ele><time>2022-06-26T07:28:55.000Z</time></trkpt><trkpt lon="5.700297" lat="50.874607"><ele>32.4</ele><time>2022-06-26T07:28:56.000Z</time></trkpt><trkpt lon="5.700326" lat="50.87465"><ele>32.6</ele><time>2022-06-26T07:28:57.000Z</time></trkpt><trkpt lon="5.700356" lat="50.874678"><ele>32.8</ele><time>2022-06-26T07:28:58.000Z</time></trkpt><trkpt lon="5.700413" lat="50.874722"><ele>32.8</ele><time>2022-06-26T07:28:59.000Z</time></trkpt><trkpt lon="5.700472" lat="50.874749"><ele>33</ele><time>2022-06-26T07:29:00.000Z</time></trkpt><trkpt lon="5.70054" lat="50.874775"><ele>33</ele><time>2022-06-26T07:29:01.000Z</time></trkpt><trkpt lon="5.700621" lat="50.87479"><ele>33.2</ele><time>2022-06-26T07:29:02.000Z</time></trkpt><trkpt lon="5.700694" lat="50.874797"><ele>33.2</ele><time>2022-06-26T07:29:03.000Z</time></trkpt><trkpt lon="5.700802" lat="50.874798"><ele>33.2</ele><time>2022-06-26T07:29:04.000Z</time></trkpt><trkpt lon="5.700874" lat="50.874791"><ele>33.2</ele><time>2022-06-26T07:29:05.000Z</time></trkpt><trkpt lon="5.700975" lat="50.874779"><ele>33.4</ele><time>2022-06-26T07:29:06.000Z</time></trkpt><trkpt lon="5.701045" lat="50.874769"><ele>33.6</ele><time>2022-06-26T07:29:07.000Z</time></trkpt><trkpt lon="5.701136" lat="50.874756"><ele>33.8</ele><time>2022-06-26T07:29:08.000Z</time></trkpt><trkpt lon="5.701206" lat="50.874749"><ele>34</ele><time>2022-06-26T07:29:09.000Z</time></trkpt><trkpt lon="5.7013" lat="50.874737"><ele>34.2</ele><time>2022-06-26T07:29:10.000Z</time></trkpt><trkpt lon="5.701366" lat="50.874727"><ele>34.2</ele><time>2022-06-26T07:29:11.000Z</time></trkpt><trkpt lon="5.701468" lat="50.874717"><ele>34.2</ele><time>2022-06-26T07:29:12.000Z</time></trkpt><trkpt lon="5.701536" lat="50.874705"><ele>34.2</ele><time>2022-06-26T07:29:13.000Z</time></trkpt><trkpt lon="5.70164" lat="50.874691"><ele>34.2</ele><time>2022-06-26T07:29:14.000Z</time></trkpt><trkpt lon="5.70172" lat="50.874681"><ele>34</ele><time>2022-06-26T07:29:15.000Z</time></trkpt><trkpt lon="5.701827" lat="50.874668"><ele>33.8</ele><time>2022-06-26T07:29:16.000Z</time></trkpt><trkpt lon="5.701921" lat="50.874649"><ele>33.6</ele><time>2022-06-26T07:29:17.000Z</time></trkpt><trkpt lon="5.702015" lat="50.874622"><ele>33.4</ele><time>2022-06-26T07:29:18.000Z</time></trkpt><trkpt lon="5.702069" lat="50.874591"><ele>33.4</ele><time>2022-06-26T07:29:19.000Z</time></trkpt><trkpt lon="5.70214" lat="50.87453"><ele>33</ele><time>2022-06-26T07:29:20.000Z</time></trkpt><trkpt lon="5.702163" lat="50.874486"><ele>32.8</ele><time>2022-06-26T07:29:21.000Z</time></trkpt><trkpt lon="5.702183" lat="50.874406"><ele>32.6</ele><time>2022-06-26T07:29:22.000Z</time></trkpt><trkpt lon="5.702174" lat="50.874353"><ele>32.4</ele><time>2022-06-26T07:29:23.000Z</time></trkpt><trkpt lon="5.702143" lat="50.87427"><ele>32.4</ele><time>2022-06-26T07:29:24.000Z</time></trkpt><trkpt lon="5.702112" lat="50.874218"><ele>32.4</ele><time>2022-06-26T07:29:25.000Z</time></trkpt><trkpt lon="5.702064" lat="50.874137"><ele>32</ele><time>2022-06-26T07:29:26.000Z</time></trkpt><trkpt lon="5.70203" lat="50.874069"><ele>31.6</ele><time>2022-06-26T07:29:27.000Z</time></trkpt><trkpt lon="5.701994" lat="50.874"><ele>31.2</ele><time>2022-06-26T07:29:28.000Z</time></trkpt><trkpt lon="5.701968" lat="50.873947"><ele>31.2</ele><time>2022-06-26T07:29:29.000Z</time></trkpt><trkpt lon="5.701926" lat="50.873862"><ele>31</ele><time>2022-06-26T07:29:30.000Z</time></trkpt><trkpt lon="5.701902" lat="50.873808"><ele>30.8</ele><time>2022-06-26T07:29:31.000Z</time></trkpt><trkpt lon="5.701868" lat="50.873721"><ele>30.4</ele><time>2022-06-26T07:29:32.000Z</time></trkpt><trkpt lon="5.701845" lat="50.873665"><ele>30.2</ele><time>2022-06-26T07:29:33.000Z</time></trkpt><trkpt lon="5.701809" lat="50.873579"><ele>30</ele><time>2022-06-26T07:29:34.000Z</time></trkpt><trkpt lon="5.701788" lat="50.873524"><ele>29.8</ele><time>2022-06-26T07:29:35.000Z</time></trkpt><trkpt lon="5.701753" lat="50.873431"><ele>29.6</ele><time>2022-06-26T07:29:36.000Z</time></trkpt><trkpt lon="5.701727" lat="50.873369"><ele>29.6</ele><time>2022-06-26T07:29:37.000Z</time></trkpt><trkpt lon="5.701688" lat="50.873278"><ele>29.6</ele><time>2022-06-26T07:29:38.000Z</time></trkpt><trkpt lon="5.701663" lat="50.873218"><ele>29.4</ele><time>2022-06-26T07:29:39.000Z</time></trkpt><trkpt lon="5.701625" lat="50.873122"><ele>29.2</ele><time>2022-06-26T07:29:40.000Z</time></trkpt><trkpt lon="5.701597" lat="50.873056"><ele>29</ele><time>2022-06-26T07:29:41.000Z</time></trkpt><trkpt lon="5.701559" lat="50.872965"><ele>28.8</ele><time>2022-06-26T07:29:42.000Z</time></trkpt><trkpt lon="5.701531" lat="50.872896"><ele>28.6</ele><time>2022-06-26T07:29:43.000Z</time></trkpt><trkpt lon="5.701493" lat="50.872801"><ele>28.6</ele><time>2022-06-26T07:29:44.000Z</time></trkpt><trkpt lon="5.701467" lat="50.872739"><ele>28.2</ele><time>2022-06-26T07:29:45.000Z</time></trkpt><trkpt lon="5.701429" lat="50.872645"><ele>28</ele><time>2022-06-26T07:29:46.000Z</time></trkpt><trkpt lon="5.701402" lat="50.87258"><ele>27.6</ele><time>2022-06-26T07:29:47.000Z</time></trkpt><trkpt lon="5.701363" lat="50.872489"><ele>27.4</ele><time>2022-06-26T07:29:48.000Z</time></trkpt><trkpt lon="5.701342" lat="50.872431"><ele>27.2</ele><time>2022-06-26T07:29:49.000Z</time></trkpt><trkpt lon="5.701304" lat="50.872332"><ele>26.4</ele><time>2022-06-26T07:29:50.000Z</time></trkpt><trkpt lon="5.701278" lat="50.872261"><ele>26.2</ele><time>2022-06-26T07:29:51.000Z</time></trkpt><trkpt lon="5.701248" lat="50.872172"><ele>25.8</ele><time>2022-06-26T07:29:52.000Z</time></trkpt><trkpt lon="5.701227" lat="50.872109"><ele>25.8</ele><time>2022-06-26T07:29:53.000Z</time></trkpt><trkpt lon="5.701189" lat="50.872007"><ele>25.6</ele><time>2022-06-26T07:29:54.000Z</time></trkpt><trkpt lon="5.701161" lat="50.871932"><ele>25.4</ele><time>2022-06-26T07:29:55.000Z</time></trkpt><trkpt lon="5.701126" lat="50.871852"><ele>25.2</ele><time>2022-06-26T07:29:56.000Z</time></trkpt><trkpt lon="5.701106" lat="50.871798"><ele>25.2</ele><time>2022-06-26T07:29:57.000Z</time></trkpt><trkpt lon="5.701071" lat="50.871696"><ele>25</ele><time>2022-06-26T07:29:58.000Z</time></trkpt><trkpt lon="5.70105" lat="50.871641"><ele>24.8</ele><time>2022-06-26T07:29:59.000Z</time></trkpt><trkpt lon="5.701016" lat="50.871546"><ele>24.6</ele><time>2022-06-26T07:30:00.000Z</time></trkpt><trkpt lon="5.700996" lat="50.871482"><ele>24.6</ele><time>2022-06-26T07:30:01.000Z</time></trkpt><trkpt lon="5.70097" lat="50.871401"><ele>24.6</ele><time>2022-06-26T07:30:02.000Z</time></trkpt><trkpt lon="5.700954" lat="50.871349"><ele>24.4</ele><time>2022-06-26T07:30:03.000Z</time></trkpt><trkpt lon="5.70093" lat="50.871256"><ele>24.4</ele><time>2022-06-26T07:30:04.000Z</time></trkpt><trkpt lon="5.700919" lat="50.87119"><ele>24.4</ele><time>2022-06-26T07:30:05.000Z</time></trkpt><trkpt lon="5.700898" lat="50.871112"><ele>24.4</ele><time>2022-06-26T07:30:06.000Z</time></trkpt><trkpt lon="5.700883" lat="50.871057"><ele>24.4</ele><time>2022-06-26T07:30:07.000Z</time></trkpt><trkpt lon="5.700858" lat="50.87097"><ele>24.4</ele><time>2022-06-26T07:30:08.000Z</time></trkpt><trkpt lon="5.700845" lat="50.870916"><ele>24.4</ele><time>2022-06-26T07:30:09.000Z</time></trkpt><trkpt lon="5.700815" lat="50.870818"><ele>24.4</ele><time>2022-06-26T07:30:10.000Z</time></trkpt><trkpt lon="5.700798" lat="50.870757"><ele>24.6</ele><time>2022-06-26T07:30:11.000Z</time></trkpt><trkpt lon="5.700771" lat="50.870665"><ele>24.4</ele><time>2022-06-26T07:30:12.000Z</time></trkpt><trkpt lon="5.700755" lat="50.870609"><ele>24.6</ele><time>2022-06-26T07:30:13.000Z</time></trkpt><trkpt lon="5.70073" lat="50.87052"><ele>24.6</ele><time>2022-06-26T07:30:14.000Z</time></trkpt><trkpt lon="5.700719" lat="50.870469"><ele>24.6</ele><time>2022-06-26T07:30:15.000Z</time></trkpt><trkpt lon="5.700695" lat="50.870375"><ele>24.6</ele><time>2022-06-26T07:30:16.000Z</time></trkpt><trkpt lon="5.700678" lat="50.87031"><ele>24.6</ele><time>2022-06-26T07:30:17.000Z</time></trkpt><trkpt lon="5.700653" lat="50.87023"><ele>24.6</ele><time>2022-06-26T07:30:18.000Z</time></trkpt><trkpt lon="5.700631" lat="50.870159"><ele>24.6</ele><time>2022-06-26T07:30:19.000Z</time></trkpt><trkpt lon="5.7006" lat="50.870078"><ele>24.4</ele><time>2022-06-26T07:30:20.000Z</time></trkpt><trkpt lon="5.700582" lat="50.870026"><ele>24.4</ele><time>2022-06-26T07:30:21.000Z</time></trkpt><trkpt lon="5.700556" lat="50.869933"><ele>24.4</ele><time>2022-06-26T07:30:22.000Z</time></trkpt><trkpt lon="5.700544" lat="50.86988"><ele>24.4</ele><time>2022-06-26T07:30:23.000Z</time></trkpt><trkpt lon="5.700513" lat="50.869796"><ele>24.4</ele><time>2022-06-26T07:30:24.000Z</time></trkpt><trkpt lon="5.700494" lat="50.869746"><ele>24.4</ele><time>2022-06-26T07:30:25.000Z</time></trkpt><trkpt lon="5.700463" lat="50.869662"><ele>24.4</ele><time>2022-06-26T07:30:26.000Z</time></trkpt><trkpt lon="5.700446" lat="50.869614"><ele>24.6</ele><time>2022-06-26T07:30:27.000Z</time></trkpt><trkpt lon="5.700423" lat="50.86954"><ele>24.8</ele><time>2022-06-26T07:30:28.000Z</time></trkpt><trkpt lon="5.700413" lat="50.86949"><ele>24.8</ele><time>2022-06-26T07:30:29.000Z</time></trkpt><trkpt lon="5.700388" lat="50.869426"><ele>24.8</ele><time>2022-06-26T07:30:30.000Z</time></trkpt><trkpt lon="5.700359" lat="50.869389"><ele>24.8</ele><time>2022-06-26T07:30:31.000Z</time></trkpt><trkpt lon="5.700293" lat="50.869315"><ele>24.8</ele><time>2022-06-26T07:30:32.000Z</time></trkpt><trkpt lon="5.700257" lat="50.869271"><ele>24.6</ele><time>2022-06-26T07:30:33.000Z</time></trkpt><trkpt lon="5.700203" lat="50.869205"><ele>24.6</ele><time>2022-06-26T07:30:34.000Z</time></trkpt><trkpt lon="5.700173" lat="50.869163"><ele>24.4</ele><time>2022-06-26T07:30:35.000Z</time></trkpt><trkpt lon="5.700125" lat="50.869078"><ele>24.4</ele><time>2022-06-26T07:30:36.000Z</time></trkpt><trkpt lon="5.700103" lat="50.869019"><ele>24.4</ele><time>2022-06-26T07:30:37.000Z</time></trkpt><trkpt lon="5.700073" lat="50.868937"><ele>24.2</ele><time>2022-06-26T07:30:38.000Z</time></trkpt><trkpt lon="5.700054" lat="50.868882"><ele>24</ele><time>2022-06-26T07:30:39.000Z</time></trkpt><trkpt lon="5.700028" lat="50.868801"><ele>24</ele><time>2022-06-26T07:30:40.000Z</time></trkpt><trkpt lon="5.700014" lat="50.868752"><ele>24</ele><time>2022-06-26T07:30:41.000Z</time></trkpt><trkpt lon="5.699992" lat="50.868659"><ele>24</ele><time>2022-06-26T07:30:42.000Z</time></trkpt><trkpt lon="5.699985" lat="50.868611"><ele>24</ele><time>2022-06-26T07:30:43.000Z</time></trkpt><trkpt lon="5.699973" lat="50.868518"><ele>23.8</ele><time>2022-06-26T07:30:44.000Z</time></trkpt><trkpt lon="5.699964" lat="50.868468"><ele>23.8</ele><time>2022-06-26T07:30:45.000Z</time></trkpt><trkpt lon="5.699941" lat="50.868373"><ele>23.8</ele><time>2022-06-26T07:30:46.000Z</time></trkpt><trkpt lon="5.699925" lat="50.868322"><ele>23.8</ele><time>2022-06-26T07:30:47.000Z</time></trkpt><trkpt lon="5.699895" lat="50.868232"><ele>24</ele><time>2022-06-26T07:30:48.000Z</time></trkpt><trkpt lon="5.699881" lat="50.868183"><ele>24</ele><time>2022-06-26T07:30:49.000Z</time></trkpt><trkpt lon="5.69986" lat="50.868091"><ele>23.8</ele><time>2022-06-26T07:30:50.000Z</time></trkpt><trkpt lon="5.699849" lat="50.868039"><ele>24</ele><time>2022-06-26T07:30:51.000Z</time></trkpt><trkpt lon="5.69983" lat="50.867946"><ele>23.8</ele><time>2022-06-26T07:30:52.000Z</time></trkpt><trkpt lon="5.699822" lat="50.867895"><ele>23.8</ele><time>2022-06-26T07:30:53.000Z</time></trkpt><trkpt lon="5.699807" lat="50.867801"><ele>23.6</ele><time>2022-06-26T07:30:54.000Z</time></trkpt><trkpt lon="5.6998" lat="50.867754"><ele>23.6</ele><time>2022-06-26T07:30:55.000Z</time></trkpt><trkpt lon="5.69979" lat="50.867656"><ele>23.6</ele><time>2022-06-26T07:30:56.000Z</time></trkpt><trkpt lon="5.699789" lat="50.8676"><ele>23.6</ele><time>2022-06-26T07:30:57.000Z</time></trkpt><trkpt lon="5.699785" lat="50.867515"><ele>23.6</ele><time>2022-06-26T07:30:58.000Z</time></trkpt><trkpt lon="5.699783" lat="50.867472"><ele>23.6</ele><time>2022-06-26T07:30:59.000Z</time></trkpt><trkpt lon="5.699773" lat="50.86737"><ele>23.6</ele><time>2022-06-26T07:31:00.000Z</time></trkpt><trkpt lon="5.69977" lat="50.867326"><ele>23.6</ele><time>2022-06-26T07:31:01.000Z</time></trkpt><trkpt lon="5.699763" lat="50.867225"><ele>23.6</ele><time>2022-06-26T07:31:02.000Z</time></trkpt><trkpt lon="5.699762" lat="50.867176"><ele>23.6</ele><time>2022-06-26T07:31:03.000Z</time></trkpt><trkpt lon="5.699763" lat="50.867083"><ele>23.6</ele><time>2022-06-26T07:31:04.000Z</time></trkpt><trkpt lon="5.699763" lat="50.867036"><ele>23.6</ele><time>2022-06-26T07:31:05.000Z</time></trkpt><trkpt lon="5.699763" lat="50.866938"><ele>23.8</ele><time>2022-06-26T07:31:06.000Z</time></trkpt><trkpt lon="5.699764" lat="50.866894"><ele>23.8</ele><time>2022-06-26T07:31:07.000Z</time></trkpt><trkpt lon="5.69977" lat="50.866793"><ele>23.8</ele><time>2022-06-26T07:31:08.000Z</time></trkpt><trkpt lon="5.69977" lat="50.866741"><ele>23.8</ele><time>2022-06-26T07:31:09.000Z</time></trkpt><trkpt lon="5.699767" lat="50.866649"><ele>23.8</ele><time>2022-06-26T07:31:10.000Z</time></trkpt><trkpt lon="5.699767" lat="50.866603"><ele>23.8</ele><time>2022-06-26T07:31:11.000Z</time></trkpt><trkpt lon="5.699769" lat="50.866507"><ele>23.6</ele><time>2022-06-26T07:31:12.000Z</time></trkpt><trkpt lon="5.699766" lat="50.866463"><ele>23.6</ele><time>2022-06-26T07:31:13.000Z</time></trkpt><trkpt lon="5.699765" lat="50.866363"><ele>23.6</ele><time>2022-06-26T07:31:14.000Z</time></trkpt><trkpt lon="5.699765" lat="50.866319"><ele>23.6</ele><time>2022-06-26T07:31:15.000Z</time></trkpt><trkpt lon="5.699762" lat="50.866213"><ele>23.4</ele><time>2022-06-26T07:31:16.000Z</time></trkpt><trkpt lon="5.69976" lat="50.866161"><ele>23.4</ele><time>2022-06-26T07:31:17.000Z</time></trkpt><trkpt lon="5.699759" lat="50.866069"><ele>23.6</ele><time>2022-06-26T07:31:18.000Z</time></trkpt><trkpt lon="5.699759" lat="50.866024"><ele>23.4</ele><time>2022-06-26T07:31:19.000Z</time></trkpt><trkpt lon="5.699763" lat="50.86592"><ele>23.4</ele><time>2022-06-26T07:31:20.000Z</time></trkpt><trkpt lon="5.699768" lat="50.865873"><ele>23.2</ele><time>2022-06-26T07:31:21.000Z</time></trkpt><trkpt lon="5.699782" lat="50.865776"><ele>23.2</ele><time>2022-06-26T07:31:22.000Z</time></trkpt><trkpt lon="5.699792" lat="50.865728"><ele>23</ele><time>2022-06-26T07:31:23.000Z</time></trkpt><trkpt lon="5.699815" lat="50.865634"><ele>23</ele><time>2022-06-26T07:31:24.000Z</time></trkpt><trkpt lon="5.699827" lat="50.865587"><ele>22.8</ele><time>2022-06-26T07:31:25.000Z</time></trkpt><trkpt lon="5.699854" lat="50.865489"><ele>22.8</ele><time>2022-06-26T07:31:26.000Z</time></trkpt><trkpt lon="5.699866" lat="50.865445"><ele>22.8</ele><time>2022-06-26T07:31:27.000Z</time></trkpt><trkpt lon="5.699894" lat="50.865344"><ele>22.6</ele><time>2022-06-26T07:31:28.000Z</time></trkpt><trkpt lon="5.699906" lat="50.8653"><ele>22.6</ele><time>2022-06-26T07:31:29.000Z</time></trkpt><trkpt lon="5.699934" lat="50.865199"><ele>22.6</ele><time>2022-06-26T07:31:30.000Z</time></trkpt><trkpt lon="5.699947" lat="50.865155"><ele>22.4</ele><time>2022-06-26T07:31:31.000Z</time></trkpt><trkpt lon="5.69998" lat="50.865054"><ele>22.4</ele><time>2022-06-26T07:31:32.000Z</time></trkpt><trkpt lon="5.699995" lat="50.865005"><ele>22.4</ele><time>2022-06-26T07:31:33.000Z</time></trkpt><trkpt lon="5.700029" lat="50.864905"><ele>22.2</ele><time>2022-06-26T07:31:34.000Z</time></trkpt><trkpt lon="5.700041" lat="50.864863"><ele>22</ele><time>2022-06-26T07:31:35.000Z</time></trkpt><trkpt lon="5.700064" lat="50.864764"><ele>22</ele><time>2022-06-26T07:31:36.000Z</time></trkpt><trkpt lon="5.700075" lat="50.864711"><ele>22</ele><time>2022-06-26T07:31:37.000Z</time></trkpt><trkpt lon="5.70009" lat="50.864616"><ele>22</ele><time>2022-06-26T07:31:38.000Z</time></trkpt><trkpt lon="5.700097" lat="50.86457"><ele>22</ele><time>2022-06-26T07:31:39.000Z</time></trkpt><trkpt lon="5.700112" lat="50.864463"><ele>22</ele><time>2022-06-26T07:31:40.000Z</time></trkpt><trkpt lon="5.700119" lat="50.864409"><ele>22</ele><time>2022-06-26T07:31:41.000Z</time></trkpt><trkpt lon="5.700132" lat="50.864314"><ele>22</ele><time>2022-06-26T07:31:42.000Z</time></trkpt><trkpt lon="5.700135" lat="50.864267"><ele>21.8</ele><time>2022-06-26T07:31:43.000Z</time></trkpt><trkpt lon="5.700141" lat="50.864161"><ele>21.8</ele><time>2022-06-26T07:31:44.000Z</time></trkpt><trkpt lon="5.700145" lat="50.864118"><ele>21.8</ele><time>2022-06-26T07:31:45.000Z</time></trkpt><trkpt lon="5.700155" lat="50.864017"><ele>21.8</ele><time>2022-06-26T07:31:46.000Z</time></trkpt><trkpt lon="5.700156" lat="50.863974"><ele>21.6</ele><time>2022-06-26T07:31:47.000Z</time></trkpt><trkpt lon="5.700158" lat="50.863864"><ele>21.6</ele><time>2022-06-26T07:31:48.000Z</time></trkpt><trkpt lon="5.700157" lat="50.863817"><ele>21.6</ele><time>2022-06-26T07:31:49.000Z</time></trkpt><trkpt lon="5.700155" lat="50.863715"><ele>21.6</ele><time>2022-06-26T07:31:50.000Z</time></trkpt><trkpt lon="5.700155" lat="50.863662"><ele>21.6</ele><time>2022-06-26T07:31:51.000Z</time></trkpt><trkpt lon="5.700157" lat="50.863563"><ele>21.8</ele><time>2022-06-26T07:31:52.000Z</time></trkpt><trkpt lon="5.700157" lat="50.863519"><ele>21.8</ele><time>2022-06-26T07:31:53.000Z</time></trkpt><trkpt lon="5.700158" lat="50.86341"><ele>21.8</ele><time>2022-06-26T07:31:54.000Z</time></trkpt><trkpt lon="5.700158" lat="50.863356"><ele>22</ele><time>2022-06-26T07:31:55.000Z</time></trkpt><trkpt lon="5.70016" lat="50.863257"><ele>22</ele><time>2022-06-26T07:31:56.000Z</time></trkpt><trkpt lon="5.70016" lat="50.863211"><ele>22</ele><time>2022-06-26T07:31:57.000Z</time></trkpt><trkpt lon="5.700161" lat="50.863109"><ele>21.8</ele><time>2022-06-26T07:31:58.000Z</time></trkpt><trkpt lon="5.70016" lat="50.863056"><ele>21.8</ele><time>2022-06-26T07:31:59.000Z</time></trkpt><trkpt lon="5.700163" lat="50.862956"><ele>21.8</ele><time>2022-06-26T07:32:00.000Z</time></trkpt><trkpt lon="5.700165" lat="50.862916"><ele>21.8</ele><time>2022-06-26T07:32:01.000Z</time></trkpt><trkpt lon="5.700168" lat="50.862808"><ele>22</ele><time>2022-06-26T07:32:02.000Z</time></trkpt><trkpt lon="5.700168" lat="50.862759"><ele>22</ele><time>2022-06-26T07:32:03.000Z</time></trkpt><trkpt lon="5.700167" lat="50.862662"><ele>21.8</ele><time>2022-06-26T07:32:04.000Z</time></trkpt><trkpt lon="5.70017" lat="50.862618"><ele>21.8</ele><time>2022-06-26T07:32:05.000Z</time></trkpt><trkpt lon="5.700175" lat="50.862513"><ele>21.6</ele><time>2022-06-26T07:32:06.000Z</time></trkpt><trkpt lon="5.700176" lat="50.862464"><ele>21.8</ele><time>2022-06-26T07:32:07.000Z</time></trkpt><trkpt lon="5.70018" lat="50.862373"><ele>21.8</ele><time>2022-06-26T07:32:08.000Z</time></trkpt><trkpt lon="5.70018" lat="50.862335"><ele>22</ele><time>2022-06-26T07:32:09.000Z</time></trkpt><trkpt lon="5.70018" lat="50.862244"><ele>22.2</ele><time>2022-06-26T07:32:10.000Z</time></trkpt><trkpt lon="5.70018" lat="50.862191"><ele>22.4</ele><time>2022-06-26T07:32:11.000Z</time></trkpt><trkpt lon="5.700181" lat="50.862103"><ele>22.4</ele><time>2022-06-26T07:32:12.000Z</time></trkpt><trkpt lon="5.700183" lat="50.86206"><ele>22.4</ele><time>2022-06-26T07:32:13.000Z</time></trkpt><trkpt lon="5.700188" lat="50.861961"><ele>22.6</ele><time>2022-06-26T07:32:14.000Z</time></trkpt><trkpt lon="5.700191" lat="50.861923"><ele>22.6</ele><time>2022-06-26T07:32:15.000Z</time></trkpt><trkpt lon="5.7002" lat="50.861824"><ele>22.6</ele><time>2022-06-26T07:32:16.000Z</time></trkpt><trkpt lon="5.700203" lat="50.861789"><ele>22.6</ele><time>2022-06-26T07:32:17.000Z</time></trkpt><trkpt lon="5.700207" lat="50.861752"><ele>22.6</ele><time>2022-06-26T07:32:18.000Z</time></trkpt><trkpt lon="5.700222" lat="50.861617"><ele>22.4</ele><time>2022-06-26T07:32:19.000Z</time></trkpt><trkpt lon="5.700225" lat="50.861548"><ele>22.4</ele><time>2022-06-26T07:32:20.000Z</time></trkpt><trkpt lon="5.700225" lat="50.861479"><ele>22.6</ele><time>2022-06-26T07:32:21.000Z</time></trkpt><trkpt lon="5.700223" lat="50.861415"><ele>22.8</ele><time>2022-06-26T07:32:22.000Z</time></trkpt><trkpt lon="5.700223" lat="50.861338"><ele>23</ele><time>2022-06-26T07:32:23.000Z</time></trkpt><trkpt lon="5.700223" lat="50.861265"><ele>23</ele><time>2022-06-26T07:32:24.000Z</time></trkpt><trkpt lon="5.700222" lat="50.861197"><ele>23</ele><time>2022-06-26T07:32:25.000Z</time></trkpt><trkpt lon="5.70022" lat="50.861128"><ele>23</ele><time>2022-06-26T07:32:26.000Z</time></trkpt><trkpt lon="5.700218" lat="50.861056"><ele>23</ele><time>2022-06-26T07:32:27.000Z</time></trkpt><trkpt lon="5.70022" lat="50.860983"><ele>23</ele><time>2022-06-26T07:32:28.000Z</time></trkpt><trkpt lon="5.70022" lat="50.860915"><ele>23.2</ele><time>2022-06-26T07:32:29.000Z</time></trkpt><trkpt lon="5.700221" lat="50.860848"><ele>23</ele><time>2022-06-26T07:32:30.000Z</time></trkpt><trkpt lon="5.700222" lat="50.860774"><ele>23</ele><time>2022-06-26T07:32:31.000Z</time></trkpt><trkpt lon="5.700222" lat="50.860715"><ele>23</ele><time>2022-06-26T07:32:32.000Z</time></trkpt><trkpt lon="5.700215" lat="50.86064"><ele>23.2</ele><time>2022-06-26T07:32:33.000Z</time></trkpt><trkpt lon="5.700215" lat="50.860579"><ele>23.2</ele><time>2022-06-26T07:32:34.000Z</time></trkpt><trkpt lon="5.700213" lat="50.860518"><ele>23.2</ele><time>2022-06-26T07:32:35.000Z</time></trkpt><trkpt lon="5.700208" lat="50.860457"><ele>23</ele><time>2022-06-26T07:32:36.000Z</time></trkpt><trkpt lon="5.700203" lat="50.860397"><ele>22.8</ele><time>2022-06-26T07:32:37.000Z</time></trkpt><trkpt lon="5.700202" lat="50.860343"><ele>22.6</ele><time>2022-06-26T07:32:38.000Z</time></trkpt><trkpt lon="5.7002" lat="50.860278"><ele>22.6</ele><time>2022-06-26T07:32:39.000Z</time></trkpt><trkpt lon="5.700192" lat="50.86022"><ele>22.4</ele><time>2022-06-26T07:32:40.000Z</time></trkpt><trkpt lon="5.700172" lat="50.860155"><ele>22.4</ele><time>2022-06-26T07:32:41.000Z</time></trkpt><trkpt lon="5.700139" lat="50.860095"><ele>22.4</ele><time>2022-06-26T07:32:42.000Z</time></trkpt><trkpt lon="5.700097" lat="50.860042"><ele>22.4</ele><time>2022-06-26T07:32:43.000Z</time></trkpt><trkpt lon="5.700032" lat="50.86"><ele>22.4</ele><time>2022-06-26T07:32:44.000Z</time></trkpt><trkpt lon="5.699948" lat="50.859973"><ele>22.4</ele><time>2022-06-26T07:32:45.000Z</time></trkpt><trkpt lon="5.69986" lat="50.859956"><ele>22.6</ele><time>2022-06-26T07:32:46.000Z</time></trkpt><trkpt lon="5.699743" lat="50.859943"><ele>22.6</ele><time>2022-06-26T07:32:47.000Z</time></trkpt><trkpt lon="5.699648" lat="50.859933"><ele>22.8</ele><time>2022-06-26T07:32:48.000Z</time></trkpt><trkpt lon="5.699538" lat="50.859909"><ele>22.6</ele><time>2022-06-26T07:32:49.000Z</time></trkpt><trkpt lon="5.699434" lat="50.859885"><ele>22.4</ele><time>2022-06-26T07:32:50.000Z</time></trkpt><trkpt lon="5.699333" lat="50.859855"><ele>22.4</ele><time>2022-06-26T07:32:51.000Z</time></trkpt><trkpt lon="5.699235" lat="50.859824"><ele>22.6</ele><time>2022-06-26T07:32:52.000Z</time></trkpt><trkpt lon="5.699138" lat="50.859782"><ele>22.6</ele><time>2022-06-26T07:32:53.000Z</time></trkpt><trkpt lon="5.699048" lat="50.85974"><ele>22.6</ele><time>2022-06-26T07:32:54.000Z</time></trkpt><trkpt lon="5.698965" lat="50.85969"><ele>22.4</ele><time>2022-06-26T07:32:55.000Z</time></trkpt><trkpt lon="5.69889" lat="50.859633"><ele>22.4</ele><time>2022-06-26T07:32:56.000Z</time></trkpt><trkpt lon="5.698824" lat="50.859572"><ele>22.6</ele><time>2022-06-26T07:32:57.000Z</time></trkpt><trkpt lon="5.698762" lat="50.859507"><ele>22.6</ele><time>2022-06-26T07:32:58.000Z</time></trkpt><trkpt lon="5.698711" lat="50.859442"><ele>22.4</ele><time>2022-06-26T07:32:59.000Z</time></trkpt><trkpt lon="5.698672" lat="50.859378"><ele>22.2</ele><time>2022-06-26T07:33:00.000Z</time></trkpt><trkpt lon="5.698632" lat="50.859305"><ele>22.2</ele><time>2022-06-26T07:33:01.000Z</time></trkpt><trkpt lon="5.698603" lat="50.859236"><ele>22</ele><time>2022-06-26T07:33:02.000Z</time></trkpt><trkpt lon="5.698581" lat="50.859168"><ele>22</ele><time>2022-06-26T07:33:03.000Z</time></trkpt><trkpt lon="5.69857" lat="50.859104"><ele>22.2</ele><time>2022-06-26T07:33:04.000Z</time></trkpt><trkpt lon="5.698558" lat="50.859031"><ele>22</ele><time>2022-06-26T07:33:05.000Z</time></trkpt><trkpt lon="5.698552" lat="50.858958"><ele>22.2</ele><time>2022-06-26T07:33:06.000Z</time></trkpt><trkpt lon="5.698545" lat="50.858889"><ele>22</ele><time>2022-06-26T07:33:07.000Z</time></trkpt><trkpt lon="5.69854" lat="50.858821"><ele>22</ele><time>2022-06-26T07:33:08.000Z</time></trkpt><trkpt lon="5.698544" lat="50.858752"><ele>21.8</ele><time>2022-06-26T07:33:09.000Z</time></trkpt><trkpt lon="5.698549" lat="50.858679"><ele>21.8</ele><time>2022-06-26T07:33:10.000Z</time></trkpt><trkpt lon="5.698558" lat="50.858607"><ele>21.8</ele><time>2022-06-26T07:33:11.000Z</time></trkpt><trkpt lon="5.698566" lat="50.85854"><ele>22</ele><time>2022-06-26T07:33:12.000Z</time></trkpt><trkpt lon="5.698582" lat="50.858466"><ele>22</ele><time>2022-06-26T07:33:13.000Z</time></trkpt><trkpt lon="5.698599" lat="50.858401"><ele>22</ele><time>2022-06-26T07:33:14.000Z</time></trkpt><trkpt lon="5.698624" lat="50.858336"><ele>21.8</ele><time>2022-06-26T07:33:15.000Z</time></trkpt><trkpt lon="5.698642" lat="50.858276"><ele>21.6</ele><time>2022-06-26T07:33:16.000Z</time></trkpt><trkpt lon="5.698664" lat="50.858218"><ele>21.6</ele><time>2022-06-26T07:33:17.000Z</time></trkpt><trkpt lon="5.698683" lat="50.858153"><ele>21.4</ele><time>2022-06-26T07:33:18.000Z</time></trkpt><trkpt lon="5.69869" lat="50.858092"><ele>21.4</ele><time>2022-06-26T07:33:19.000Z</time></trkpt><trkpt lon="5.698684" lat="50.858036"><ele>21.4</ele><time>2022-06-26T07:33:20.000Z</time></trkpt><trkpt lon="5.698668" lat="50.857962"><ele>21.6</ele><time>2022-06-26T07:33:21.000Z</time></trkpt><trkpt lon="5.698651" lat="50.857897"><ele>21.6</ele><time>2022-06-26T07:33:22.000Z</time></trkpt><trkpt lon="5.698631" lat="50.857837"><ele>21.8</ele><time>2022-06-26T07:33:23.000Z</time></trkpt><trkpt lon="5.69861" lat="50.857777"><ele>22.2</ele><time>2022-06-26T07:33:24.000Z</time></trkpt><trkpt lon="5.698591" lat="50.857711"><ele>22.2</ele><time>2022-06-26T07:33:25.000Z</time></trkpt><trkpt lon="5.698573" lat="50.857656"><ele>22.2</ele><time>2022-06-26T07:33:26.000Z</time></trkpt><trkpt lon="5.698553" lat="50.857592"><ele>22.4</ele><time>2022-06-26T07:33:27.000Z</time></trkpt><trkpt lon="5.698539" lat="50.857544"><ele>22.4</ele><time>2022-06-26T07:33:28.000Z</time></trkpt><trkpt lon="5.698523" lat="50.857486"><ele>22.6</ele><time>2022-06-26T07:33:29.000Z</time></trkpt><trkpt lon="5.698521" lat="50.85744"><ele>22.6</ele><time>2022-06-26T07:33:30.000Z</time></trkpt><trkpt lon="5.698545" lat="50.857398"><ele>22.8</ele><time>2022-06-26T07:33:31.000Z</time></trkpt><trkpt lon="5.69859" lat="50.857368"><ele>22.8</ele><time>2022-06-26T07:33:32.000Z</time></trkpt><trkpt lon="5.698644" lat="50.857341"><ele>22.8</ele><time>2022-06-26T07:33:33.000Z</time></trkpt><trkpt lon="5.698708" lat="50.857307"><ele>22.8</ele><time>2022-06-26T07:33:34.000Z</time></trkpt><trkpt lon="5.698768" lat="50.857273"><ele>22.8</ele><time>2022-06-26T07:33:35.000Z</time></trkpt><trkpt lon="5.698812" lat="50.857222"><ele>22.8</ele><time>2022-06-26T07:33:36.000Z</time></trkpt><trkpt lon="5.698837" lat="50.857165"><ele>22.6</ele><time>2022-06-26T07:33:37.000Z</time></trkpt><trkpt lon="5.698852" lat="50.857096"><ele>22.4</ele><time>2022-06-26T07:33:38.000Z</time></trkpt><trkpt lon="5.698864" lat="50.857027"><ele>22.4</ele><time>2022-06-26T07:33:39.000Z</time></trkpt><trkpt lon="5.698879" lat="50.856956"><ele>22.6</ele><time>2022-06-26T07:33:40.000Z</time></trkpt><trkpt lon="5.698888" lat="50.856908"><ele>22.4</ele><time>2022-06-26T07:33:41.000Z</time></trkpt><trkpt lon="5.698908" lat="50.856816"><ele>22.4</ele><time>2022-06-26T07:33:42.000Z</time></trkpt><trkpt lon="5.698922" lat="50.856759"><ele>22.4</ele><time>2022-06-26T07:33:43.000Z</time></trkpt><trkpt lon="5.698942" lat="50.856673"><ele>22.6</ele><time>2022-06-26T07:33:44.000Z</time></trkpt><trkpt lon="5.698952" lat="50.856627"><ele>22.8</ele><time>2022-06-26T07:33:45.000Z</time></trkpt><trkpt lon="5.69897" lat="50.856543"><ele>22.8</ele><time>2022-06-26T07:33:46.000Z</time></trkpt><trkpt lon="5.698979" lat="50.8565"><ele>22.8</ele><time>2022-06-26T07:33:47.000Z</time></trkpt><trkpt lon="5.699" lat="50.856414"><ele>22.8</ele><time>2022-06-26T07:33:48.000Z</time></trkpt><trkpt lon="5.699013" lat="50.856368"><ele>22.8</ele><time>2022-06-26T07:33:49.000Z</time></trkpt><trkpt lon="5.699035" lat="50.856284"><ele>23.2</ele><time>2022-06-26T07:33:50.000Z</time></trkpt><trkpt lon="5.699046" lat="50.856237"><ele>23.2</ele><time>2022-06-26T07:33:51.000Z</time></trkpt><trkpt lon="5.699065" lat="50.856154"><ele>23.2</ele><time>2022-06-26T07:33:52.000Z</time></trkpt><trkpt lon="5.699075" lat="50.856112"><ele>23.4</ele><time>2022-06-26T07:33:53.000Z</time></trkpt><trkpt lon="5.699083" lat="50.856032"><ele>23.4</ele><time>2022-06-26T07:33:54.000Z</time></trkpt><trkpt lon="5.699086" lat="50.85598"><ele>23.2</ele><time>2022-06-26T07:33:55.000Z</time></trkpt><trkpt lon="5.699087" lat="50.855914"><ele>23</ele><time>2022-06-26T07:33:56.000Z</time></trkpt><trkpt lon="5.699089" lat="50.855868"><ele>22.8</ele><time>2022-06-26T07:33:57.000Z</time></trkpt><trkpt lon="5.699102" lat="50.855788"><ele>22.8</ele><time>2022-06-26T07:33:58.000Z</time></trkpt><trkpt lon="5.699117" lat="50.855737"><ele>22.8</ele><time>2022-06-26T07:33:59.000Z</time></trkpt><trkpt lon="5.699135" lat="50.855666"><ele>22.6</ele><time>2022-06-26T07:34:00.000Z</time></trkpt><trkpt lon="5.699139" lat="50.855627"><ele>22.6</ele><time>2022-06-26T07:34:01.000Z</time></trkpt><trkpt lon="5.699147" lat="50.855544"><ele>22.4</ele><time>2022-06-26T07:34:02.000Z</time></trkpt><trkpt lon="5.699151" lat="50.855498"><ele>22.4</ele><time>2022-06-26T07:34:03.000Z</time></trkpt><trkpt lon="5.699153" lat="50.855426"><ele>22.4</ele><time>2022-06-26T07:34:04.000Z</time></trkpt><trkpt lon="5.699153" lat="50.855379"><ele>22.4</ele><time>2022-06-26T07:34:05.000Z</time></trkpt><trkpt lon="5.69915" lat="50.855311"><ele>22.4</ele><time>2022-06-26T07:34:06.000Z</time></trkpt><trkpt lon="5.699146" lat="50.855269"><ele>22.4</ele><time>2022-06-26T07:34:07.000Z</time></trkpt><trkpt lon="5.69913" lat="50.855182"><ele>22.4</ele><time>2022-06-26T07:34:08.000Z</time></trkpt><trkpt lon="5.699115" lat="50.855127"><ele>22.4</ele><time>2022-06-26T07:34:09.000Z</time></trkpt><trkpt lon="5.699086" lat="50.855037"><ele>22.2</ele><time>2022-06-26T07:34:10.000Z</time></trkpt><trkpt lon="5.699071" lat="50.85499"><ele>22.4</ele><time>2022-06-26T07:34:11.000Z</time></trkpt><trkpt lon="5.699042" lat="50.854896"><ele>22.4</ele><time>2022-06-26T07:34:12.000Z</time></trkpt><trkpt lon="5.699028" lat="50.854849"><ele>22.4</ele><time>2022-06-26T07:34:13.000Z</time></trkpt><trkpt lon="5.699005" lat="50.854758"><ele>22.4</ele><time>2022-06-26T07:34:14.000Z</time></trkpt><trkpt lon="5.698989" lat="50.854707"><ele>22.6</ele><time>2022-06-26T07:34:15.000Z</time></trkpt><trkpt lon="5.698963" lat="50.854617"><ele>22.6</ele><time>2022-06-26T07:34:16.000Z</time></trkpt><trkpt lon="5.698949" lat="50.854569"><ele>22.6</ele><time>2022-06-26T07:34:17.000Z</time></trkpt><trkpt lon="5.698923" lat="50.854483"><ele>22.6</ele><time>2022-06-26T07:34:18.000Z</time></trkpt><trkpt lon="5.698909" lat="50.854439"><ele>22.6</ele><time>2022-06-26T07:34:19.000Z</time></trkpt><trkpt lon="5.698883" lat="50.854354"><ele>22.8</ele><time>2022-06-26T07:34:20.000Z</time></trkpt><trkpt lon="5.698871" lat="50.854313"><ele>22.6</ele><time>2022-06-26T07:34:21.000Z</time></trkpt><trkpt lon="5.698848" lat="50.854224"><ele>22.6</ele><time>2022-06-26T07:34:22.000Z</time></trkpt><trkpt lon="5.698835" lat="50.854181"><ele>22.6</ele><time>2022-06-26T07:34:23.000Z</time></trkpt><trkpt lon="5.698816" lat="50.854106"><ele>22.6</ele><time>2022-06-26T07:34:24.000Z</time></trkpt><trkpt lon="5.698805" lat="50.854063"><ele>22.6</ele><time>2022-06-26T07:34:25.000Z</time></trkpt><trkpt lon="5.698774" lat="50.853984"><ele>22.8</ele><time>2022-06-26T07:34:26.000Z</time></trkpt><trkpt lon="5.69876" lat="50.853937"><ele>22.8</ele><time>2022-06-26T07:34:27.000Z</time></trkpt><trkpt lon="5.69874" lat="50.853854"><ele>22.8</ele><time>2022-06-26T07:34:28.000Z</time></trkpt><trkpt lon="5.698741" lat="50.853815"><ele>22.8</ele><time>2022-06-26T07:34:29.000Z</time></trkpt><trkpt lon="5.698758" lat="50.853736"><ele>22.8</ele><time>2022-06-26T07:34:30.000Z</time></trkpt><trkpt lon="5.698762" lat="50.853696"><ele>22.8</ele><time>2022-06-26T07:34:31.000Z</time></trkpt><trkpt lon="5.698746" lat="50.853609"><ele>22.6</ele><time>2022-06-26T07:34:32.000Z</time></trkpt><trkpt lon="5.698728" lat="50.853559"><ele>22.6</ele><time>2022-06-26T07:34:33.000Z</time></trkpt><trkpt lon="5.698695" lat="50.85348"><ele>22.6</ele><time>2022-06-26T07:34:34.000Z</time></trkpt><trkpt lon="5.69867" lat="50.853424"><ele>22.8</ele><time>2022-06-26T07:34:35.000Z</time></trkpt><trkpt lon="5.698635" lat="50.853344"><ele>23</ele><time>2022-06-26T07:34:36.000Z</time></trkpt><trkpt lon="5.698612" lat="50.853292"><ele>23.2</ele><time>2022-06-26T07:34:37.000Z</time></trkpt><trkpt lon="5.698576" lat="50.853221"><ele>23.6</ele><time>2022-06-26T07:34:38.000Z</time></trkpt><trkpt lon="5.698558" lat="50.853182"><ele>23.8</ele><time>2022-06-26T07:34:39.000Z</time></trkpt><trkpt lon="5.698521" lat="50.853099"><ele>24.2</ele><time>2022-06-26T07:34:40.000Z</time></trkpt><trkpt lon="5.698504" lat="50.853059"><ele>24.4</ele><time>2022-06-26T07:34:41.000Z</time></trkpt><trkpt lon="5.69846" lat="50.852977"><ele>24.8</ele><time>2022-06-26T07:34:42.000Z</time></trkpt><trkpt lon="5.698437" lat="50.852936"><ele>25</ele><time>2022-06-26T07:34:43.000Z</time></trkpt><trkpt lon="5.698391" lat="50.852855"><ele>25.2</ele><time>2022-06-26T07:34:44.000Z</time></trkpt><trkpt lon="5.698368" lat="50.852815"><ele>25.6</ele><time>2022-06-26T07:34:45.000Z</time></trkpt><trkpt lon="5.698319" lat="50.852729"><ele>25.8</ele><time>2022-06-26T07:34:46.000Z</time></trkpt><trkpt lon="5.698296" lat="50.852692"><ele>26.2</ele><time>2022-06-26T07:34:47.000Z</time></trkpt><trkpt lon="5.698246" lat="50.852614"><ele>26.4</ele><time>2022-06-26T07:34:48.000Z</time></trkpt><trkpt lon="5.69822" lat="50.85257"><ele>26.6</ele><time>2022-06-26T07:34:49.000Z</time></trkpt><trkpt lon="5.69818" lat="50.852504"><ele>26.8</ele><time>2022-06-26T07:34:50.000Z</time></trkpt><trkpt lon="5.698155" lat="50.852468"><ele>26.8</ele><time>2022-06-26T07:34:51.000Z</time></trkpt><trkpt lon="5.698111" lat="50.852401"><ele>27</ele><time>2022-06-26T07:34:52.000Z</time></trkpt><trkpt lon="5.698087" lat="50.852365"><ele>27.2</ele><time>2022-06-26T07:34:53.000Z</time></trkpt><trkpt lon="5.698037" lat="50.852302"><ele>27.4</ele><time>2022-06-26T07:34:54.000Z</time></trkpt><trkpt lon="5.698006" lat="50.852266"><ele>27.6</ele><time>2022-06-26T07:34:55.000Z</time></trkpt><trkpt lon="5.697961" lat="50.85221"><ele>27.8</ele><time>2022-06-26T07:34:56.000Z</time></trkpt><trkpt lon="5.697938" lat="50.852181"><ele>28</ele><time>2022-06-26T07:34:57.000Z</time></trkpt><trkpt lon="5.697891" lat="50.852123"><ele>28.2</ele><time>2022-06-26T07:34:58.000Z</time></trkpt><trkpt lon="5.697867" lat="50.852093"><ele>28.2</ele><time>2022-06-26T07:34:59.000Z</time></trkpt><trkpt lon="5.697824" lat="50.852042"><ele>28.4</ele><time>2022-06-26T07:35:00.000Z</time></trkpt><trkpt lon="5.697794" lat="50.852014"><ele>28.6</ele><time>2022-06-26T07:35:01.000Z</time></trkpt><trkpt lon="5.697727" lat="50.851974"><ele>28.6</ele><time>2022-06-26T07:35:02.000Z</time></trkpt><trkpt lon="5.697682" lat="50.851962"><ele>28.8</ele><time>2022-06-26T07:35:03.000Z</time></trkpt><trkpt lon="5.697577" lat="50.851952"><ele>29</ele><time>2022-06-26T07:35:04.000Z</time></trkpt><trkpt lon="5.697509" lat="50.851949"><ele>29</ele><time>2022-06-26T07:35:05.000Z</time></trkpt><trkpt lon="5.6974" lat="50.85194"><ele>29.2</ele><time>2022-06-26T07:35:06.000Z</time></trkpt><trkpt lon="5.697349" lat="50.851936"><ele>29.4</ele><time>2022-06-26T07:35:07.000Z</time></trkpt><trkpt lon="5.697224" lat="50.851925"><ele>29.4</ele><time>2022-06-26T07:35:08.000Z</time></trkpt><trkpt lon="5.697173" lat="50.851923"><ele>29.6</ele><time>2022-06-26T07:35:09.000Z</time></trkpt><trkpt lon="5.697049" lat="50.851913"><ele>29.8</ele><time>2022-06-26T07:35:10.000Z</time></trkpt><trkpt lon="5.696995" lat="50.851911"><ele>30</ele><time>2022-06-26T07:35:11.000Z</time></trkpt><trkpt lon="5.69686" lat="50.85191"><ele>30</ele><time>2022-06-26T07:35:12.000Z</time></trkpt><trkpt lon="5.696792" lat="50.85191"><ele>30.2</ele><time>2022-06-26T07:35:13.000Z</time></trkpt><trkpt lon="5.696656" lat="50.851906"><ele>30.2</ele><time>2022-06-26T07:35:14.000Z</time></trkpt><trkpt lon="5.696593" lat="50.851901"><ele>30.4</ele><time>2022-06-26T07:35:15.000Z</time></trkpt><trkpt lon="5.696452" lat="50.851894"><ele>30.4</ele><time>2022-06-26T07:35:16.000Z</time></trkpt><trkpt lon="5.696389" lat="50.851892"><ele>30.4</ele><time>2022-06-26T07:35:17.000Z</time></trkpt><trkpt lon="5.696247" lat="50.851887"><ele>30.4</ele><time>2022-06-26T07:35:18.000Z</time></trkpt><trkpt lon="5.696186" lat="50.851884"><ele>30.4</ele><time>2022-06-26T07:35:19.000Z</time></trkpt><trkpt lon="5.696045" lat="50.851879"><ele>30.2</ele><time>2022-06-26T07:35:20.000Z</time></trkpt><trkpt lon="5.695973" lat="50.851876"><ele>30.2</ele><time>2022-06-26T07:35:21.000Z</time></trkpt><trkpt lon="5.695841" lat="50.851871"><ele>30.2</ele><time>2022-06-26T07:35:22.000Z</time></trkpt><trkpt lon="5.695781" lat="50.851871"><ele>30</ele><time>2022-06-26T07:35:23.000Z</time></trkpt><trkpt lon="5.69563" lat="50.851868"><ele>30</ele><time>2022-06-26T07:35:24.000Z</time></trkpt><trkpt lon="5.69557" lat="50.851865"><ele>29.6</ele><time>2022-06-26T07:35:25.000Z</time></trkpt><trkpt lon="5.695425" lat="50.85186"><ele>29.4</ele><time>2022-06-26T07:35:26.000Z</time></trkpt><trkpt lon="5.695348" lat="50.85186"><ele>29.2</ele><time>2022-06-26T07:35:27.000Z</time></trkpt><trkpt lon="5.695199" lat="50.851852"><ele>29.2</ele><time>2022-06-26T07:35:28.000Z</time></trkpt><trkpt lon="5.695133" lat="50.851848"><ele>29</ele><time>2022-06-26T07:35:29.000Z</time></trkpt><trkpt lon="5.694989" lat="50.851841"><ele>28.8</ele><time>2022-06-26T07:35:30.000Z</time></trkpt><trkpt lon="5.69492" lat="50.851838"><ele>28.6</ele><time>2022-06-26T07:35:31.000Z</time></trkpt><trkpt lon="5.694787" lat="50.851841"><ele>28.2</ele><time>2022-06-26T07:35:32.000Z</time></trkpt><trkpt lon="5.694725" lat="50.851846"><ele>28</ele><time>2022-06-26T07:35:33.000Z</time></trkpt><trkpt lon="5.694596" lat="50.851876"><ele>27.8</ele><time>2022-06-26T07:35:34.000Z</time></trkpt><trkpt lon="5.694543" lat="50.851892"><ele>27.6</ele><time>2022-06-26T07:35:35.000Z</time></trkpt><trkpt lon="5.694422" lat="50.851933"><ele>27.6</ele><time>2022-06-26T07:35:36.000Z</time></trkpt><trkpt lon="5.694371" lat="50.851949"><ele>27.4</ele><time>2022-06-26T07:35:37.000Z</time></trkpt><trkpt lon="5.694253" lat="50.851986"><ele>27.4</ele><time>2022-06-26T07:35:38.000Z</time></trkpt><trkpt lon="5.69421" lat="50.851997"><ele>27.2</ele><time>2022-06-26T07:35:39.000Z</time></trkpt><trkpt lon="5.694111" lat="50.852028"><ele>27</ele><time>2022-06-26T07:35:40.000Z</time></trkpt><trkpt lon="5.694079" lat="50.852046"><ele>26.8</ele><time>2022-06-26T07:35:41.000Z</time></trkpt><trkpt lon="5.694013" lat="50.852101"><ele>26.6</ele><time>2022-06-26T07:35:42.000Z</time></trkpt><trkpt lon="5.694002" lat="50.852135"><ele>26.4</ele><time>2022-06-26T07:35:43.000Z</time></trkpt><trkpt lon="5.693994" lat="50.852216"><ele>26.2</ele><time>2022-06-26T07:35:44.000Z</time></trkpt><trkpt lon="5.693997" lat="50.852256"><ele>26</ele><time>2022-06-26T07:35:45.000Z</time></trkpt><trkpt lon="5.694007" lat="50.852357"><ele>25.8</ele><time>2022-06-26T07:35:46.000Z</time></trkpt><trkpt lon="5.694009" lat="50.852402"><ele>25.4</ele><time>2022-06-26T07:35:47.000Z</time></trkpt><trkpt lon="5.694015" lat="50.852502"><ele>25</ele><time>2022-06-26T07:35:48.000Z</time></trkpt><trkpt lon="5.694014" lat="50.852547"><ele>24.6</ele><time>2022-06-26T07:35:49.000Z</time></trkpt><trkpt lon="5.694012" lat="50.852651"><ele>24.4</ele><time>2022-06-26T07:35:50.000Z</time></trkpt><trkpt lon="5.694019" lat="50.852696"><ele>24.2</ele><time>2022-06-26T07:35:51.000Z</time></trkpt><trkpt lon="5.694057" lat="50.852788"><ele>23.8</ele><time>2022-06-26T07:35:52.000Z</time></trkpt><trkpt lon="5.694083" lat="50.852839"><ele>23.6</ele><time>2022-06-26T07:35:53.000Z</time></trkpt><trkpt lon="5.694115" lat="50.852933"><ele>23.6</ele><time>2022-06-26T07:35:54.000Z</time></trkpt><trkpt lon="5.694119" lat="50.852977"><ele>23.4</ele><time>2022-06-26T07:35:55.000Z</time></trkpt><trkpt lon="5.694125" lat="50.853078"><ele>23.4</ele><time>2022-06-26T07:35:56.000Z</time></trkpt><trkpt lon="5.694128" lat="50.853128"><ele>23.4</ele><time>2022-06-26T07:35:57.000Z</time></trkpt><trkpt lon="5.694132" lat="50.853223"><ele>23.2</ele><time>2022-06-26T07:35:58.000Z</time></trkpt><trkpt lon="5.694134" lat="50.853264"><ele>23</ele><time>2022-06-26T07:35:59.000Z</time></trkpt><trkpt lon="5.694139" lat="50.853371"><ele>23</ele><time>2022-06-26T07:36:00.000Z</time></trkpt><trkpt lon="5.694141" lat="50.853416"><ele>22.8</ele><time>2022-06-26T07:36:01.000Z</time></trkpt><trkpt lon="5.694145" lat="50.853524"><ele>22.6</ele><time>2022-06-26T07:36:02.000Z</time></trkpt><trkpt lon="5.694144" lat="50.853567"><ele>22.6</ele><time>2022-06-26T07:36:03.000Z</time></trkpt><trkpt lon="5.694143" lat="50.853673"><ele>22.6</ele><time>2022-06-26T07:36:04.000Z</time></trkpt><trkpt lon="5.694143" lat="50.853713"><ele>22.6</ele><time>2022-06-26T07:36:05.000Z</time></trkpt><trkpt lon="5.694143" lat="50.853814"><ele>22.8</ele><time>2022-06-26T07:36:06.000Z</time></trkpt><trkpt lon="5.694145" lat="50.853855"><ele>22.8</ele><time>2022-06-26T07:36:07.000Z</time></trkpt><trkpt lon="5.694147" lat="50.853959"><ele>22.8</ele><time>2022-06-26T07:36:08.000Z</time></trkpt><trkpt lon="5.694141" lat="50.854001"><ele>22.8</ele><time>2022-06-26T07:36:09.000Z</time></trkpt><trkpt lon="5.694116" lat="50.854112"><ele>22.8</ele><time>2022-06-26T07:36:10.000Z</time></trkpt><trkpt lon="5.694106" lat="50.854155"><ele>22.6</ele><time>2022-06-26T07:36:11.000Z</time></trkpt><trkpt lon="5.694093" lat="50.85426"><ele>22.6</ele><time>2022-06-26T07:36:12.000Z</time></trkpt><trkpt lon="5.694092" lat="50.854307"><ele>22.6</ele><time>2022-06-26T07:36:13.000Z</time></trkpt><trkpt lon="5.694093" lat="50.854409"><ele>22.8</ele><time>2022-06-26T07:36:14.000Z</time></trkpt><trkpt lon="5.694094" lat="50.854453"><ele>22.8</ele><time>2022-06-26T07:36:15.000Z</time></trkpt><trkpt lon="5.694097" lat="50.854558"><ele>23</ele><time>2022-06-26T07:36:16.000Z</time></trkpt><trkpt lon="5.694095" lat="50.8546"><ele>22.8</ele><time>2022-06-26T07:36:17.000Z</time></trkpt><trkpt lon="5.694085" lat="50.854699"><ele>23</ele><time>2022-06-26T07:36:18.000Z</time></trkpt><trkpt lon="5.69408" lat="50.85474"><ele>23</ele><time>2022-06-26T07:36:19.000Z</time></trkpt><trkpt lon="5.694066" lat="50.854832"><ele>23</ele><time>2022-06-26T07:36:20.000Z</time></trkpt><trkpt lon="5.694054" lat="50.854877"><ele>23</ele><time>2022-06-26T07:36:21.000Z</time></trkpt><trkpt lon="5.694023" lat="50.854966"><ele>23</ele><time>2022-06-26T07:36:22.000Z</time></trkpt><trkpt lon="5.694006" lat="50.855009"><ele>23</ele><time>2022-06-26T07:36:23.000Z</time></trkpt><trkpt lon="5.693963" lat="50.855096"><ele>23</ele><time>2022-06-26T07:36:24.000Z</time></trkpt><trkpt lon="5.693942" lat="50.85514"><ele>23</ele><time>2022-06-26T07:36:25.000Z</time></trkpt><trkpt lon="5.693897" lat="50.855233"><ele>23</ele><time>2022-06-26T07:36:26.000Z</time></trkpt><trkpt lon="5.693878" lat="50.855269"><ele>23</ele><time>2022-06-26T07:36:27.000Z</time></trkpt><trkpt lon="5.693835" lat="50.855355"><ele>23</ele><time>2022-06-26T07:36:28.000Z</time></trkpt><trkpt lon="5.693815" lat="50.855392"><ele>23.2</ele><time>2022-06-26T07:36:29.000Z</time></trkpt><trkpt lon="5.69378" lat="50.85547"><ele>23.2</ele><time>2022-06-26T07:36:30.000Z</time></trkpt><trkpt lon="5.693765" lat="50.855503"><ele>23.2</ele><time>2022-06-26T07:36:31.000Z</time></trkpt><trkpt lon="5.693718" lat="50.855584"><ele>23</ele><time>2022-06-26T07:36:32.000Z</time></trkpt><trkpt lon="5.693698" lat="50.85562"><ele>23</ele><time>2022-06-26T07:36:33.000Z</time></trkpt><trkpt lon="5.693646" lat="50.855702"><ele>23.2</ele><time>2022-06-26T07:36:34.000Z</time></trkpt><trkpt lon="5.693623" lat="50.855736"><ele>23.2</ele><time>2022-06-26T07:36:35.000Z</time></trkpt><trkpt lon="5.693568" lat="50.855813"><ele>23.2</ele><time>2022-06-26T07:36:36.000Z</time></trkpt><trkpt lon="5.69354" lat="50.855845"><ele>23.2</ele><time>2022-06-26T07:36:37.000Z</time></trkpt><trkpt lon="5.693459" lat="50.8559"><ele>23.2</ele><time>2022-06-26T07:36:38.000Z</time></trkpt><trkpt lon="5.693408" lat="50.855918"><ele>23.2</ele><time>2022-06-26T07:36:39.000Z</time></trkpt><trkpt lon="5.693272" lat="50.85595"><ele>23</ele><time>2022-06-26T07:36:40.000Z</time></trkpt><trkpt lon="5.69321" lat="50.85596"><ele>23</ele><time>2022-06-26T07:36:41.000Z</time></trkpt><trkpt lon="5.693046" lat="50.855988"><ele>22.8</ele><time>2022-06-26T07:36:42.000Z</time></trkpt><trkpt lon="5.692976" lat="50.855996"><ele>22.8</ele><time>2022-06-26T07:36:43.000Z</time></trkpt><trkpt lon="5.6928" lat="50.856011"><ele>22.6</ele><time>2022-06-26T07:36:44.000Z</time></trkpt><trkpt lon="5.692723" lat="50.856015"><ele>22.4</ele><time>2022-06-26T07:36:45.000Z</time></trkpt><trkpt lon="5.692552" lat="50.856026"><ele>22.2</ele><time>2022-06-26T07:36:46.000Z</time></trkpt><trkpt lon="5.692479" lat="50.85603"><ele>22.2</ele><time>2022-06-26T07:36:47.000Z</time></trkpt><trkpt lon="5.692301" lat="50.856037"><ele>22</ele><time>2022-06-26T07:36:48.000Z</time></trkpt><trkpt lon="5.69223" lat="50.856042"><ele>21.8</ele><time>2022-06-26T07:36:49.000Z</time></trkpt><trkpt lon="5.692058" lat="50.856049"><ele>21.6</ele><time>2022-06-26T07:36:50.000Z</time></trkpt><trkpt lon="5.69199" lat="50.856055"><ele>21.6</ele><time>2022-06-26T07:36:51.000Z</time></trkpt><trkpt lon="5.691823" lat="50.856064"><ele>21.6</ele><time>2022-06-26T07:36:52.000Z</time></trkpt><trkpt lon="5.691751" lat="50.856069"><ele>21.8</ele><time>2022-06-26T07:36:53.000Z</time></trkpt><trkpt lon="5.691584" lat="50.856068"><ele>22.2</ele><time>2022-06-26T07:36:54.000Z</time></trkpt><trkpt lon="5.691519" lat="50.856072"><ele>22.2</ele><time>2022-06-26T07:36:55.000Z</time></trkpt><trkpt lon="5.691361" lat="50.856079"><ele>22.4</ele><time>2022-06-26T07:36:56.000Z</time></trkpt><trkpt lon="5.691297" lat="50.856084"><ele>22.4</ele><time>2022-06-26T07:36:57.000Z</time></trkpt><trkpt lon="5.691147" lat="50.856091"><ele>22.6</ele><time>2022-06-26T07:36:58.000Z</time></trkpt><trkpt lon="5.691085" lat="50.856095"><ele>22.8</ele><time>2022-06-26T07:36:59.000Z</time></trkpt><trkpt lon="5.690935" lat="50.856102"><ele>22.8</ele><time>2022-06-26T07:37:00.000Z</time></trkpt><trkpt lon="5.690868" lat="50.85611"><ele>22.8</ele><time>2022-06-26T07:37:01.000Z</time></trkpt><trkpt lon="5.690729" lat="50.856129"><ele>22.6</ele><time>2022-06-26T07:37:02.000Z</time></trkpt><trkpt lon="5.69067" lat="50.856138"><ele>22.6</ele><time>2022-06-26T07:37:03.000Z</time></trkpt><trkpt lon="5.690538" lat="50.856167"><ele>22.6</ele><time>2022-06-26T07:37:04.000Z</time></trkpt><trkpt lon="5.690483" lat="50.856187"><ele>22.6</ele><time>2022-06-26T07:37:05.000Z</time></trkpt><trkpt lon="5.690367" lat="50.856236"><ele>22.6</ele><time>2022-06-26T07:37:06.000Z</time></trkpt><trkpt lon="5.690328" lat="50.856257"><ele>22.6</ele><time>2022-06-26T07:37:07.000Z</time></trkpt><trkpt lon="5.690239" lat="50.85632"><ele>22.6</ele><time>2022-06-26T07:37:08.000Z</time></trkpt><trkpt lon="5.690218" lat="50.856348"><ele>22.8</ele><time>2022-06-26T07:37:09.000Z</time></trkpt><trkpt lon="5.69018" lat="50.856431"><ele>22.8</ele><time>2022-06-26T07:37:10.000Z</time></trkpt><trkpt lon="5.690174" lat="50.856462"><ele>22.8</ele><time>2022-06-26T07:37:11.000Z</time></trkpt><trkpt lon="5.690169" lat="50.856493"><ele>22.8</ele><time>2022-06-26T07:37:12.000Z</time></trkpt><trkpt lon="5.690161" lat="50.856596"><ele>22.8</ele><time>2022-06-26T07:37:13.000Z</time></trkpt><trkpt lon="5.690153" lat="50.856699"><ele>23</ele><time>2022-06-26T07:37:14.000Z</time></trkpt><trkpt lon="5.690145" lat="50.856771"><ele>23</ele><time>2022-06-26T07:37:15.000Z</time></trkpt><trkpt lon="5.690143" lat="50.856832"><ele>23.2</ele><time>2022-06-26T07:37:16.000Z</time></trkpt><trkpt lon="5.690147" lat="50.856897"><ele>23.2</ele><time>2022-06-26T07:37:17.000Z</time></trkpt><trkpt lon="5.690152" lat="50.856962"><ele>23.2</ele><time>2022-06-26T07:37:18.000Z</time></trkpt><trkpt lon="5.690148" lat="50.857027"><ele>23.4</ele><time>2022-06-26T07:37:19.000Z</time></trkpt><trkpt lon="5.690152" lat="50.857088"><ele>23.4</ele><time>2022-06-26T07:37:20.000Z</time></trkpt><trkpt lon="5.690153" lat="50.857152"><ele>23.4</ele><time>2022-06-26T07:37:21.000Z</time></trkpt><trkpt lon="5.690147" lat="50.857216"><ele>23.4</ele><time>2022-06-26T07:37:22.000Z</time></trkpt><trkpt lon="5.690143" lat="50.857286"><ele>23.4</ele><time>2022-06-26T07:37:23.000Z</time></trkpt><trkpt lon="5.690138" lat="50.857343"><ele>23.4</ele><time>2022-06-26T07:37:24.000Z</time></trkpt><trkpt lon="5.690137" lat="50.8574"><ele>23.4</ele><time>2022-06-26T07:37:25.000Z</time></trkpt><trkpt lon="5.690143" lat="50.85745"><ele>23.6</ele><time>2022-06-26T07:37:26.000Z</time></trkpt><trkpt lon="5.690145" lat="50.857491"><ele>23.6</ele><time>2022-06-26T07:37:27.000Z</time></trkpt><trkpt lon="5.690153" lat="50.857525"><ele>23.6</ele><time>2022-06-26T07:37:28.000Z</time></trkpt><trkpt lon="5.690155" lat="50.857552"><ele>23.8</ele><time>2022-06-26T07:37:29.000Z</time></trkpt><trkpt lon="5.69016" lat="50.85759"><ele>23.8</ele><time>2022-06-26T07:37:30.000Z</time></trkpt><trkpt lon="5.690174" lat="50.857616"><ele>23.8</ele><time>2022-06-26T07:37:31.000Z</time></trkpt><trkpt lon="5.690197" lat="50.857651"><ele>24</ele><time>2022-06-26T07:37:32.000Z</time></trkpt><trkpt lon="5.690214" lat="50.857682"><ele>24</ele><time>2022-06-26T07:37:33.000Z</time></trkpt><trkpt lon="5.69024" lat="50.857708"><ele>24.2</ele><time>2022-06-26T07:37:34.000Z</time></trkpt><trkpt lon="5.690264" lat="50.857731"><ele>24.2</ele><time>2022-06-26T07:37:35.000Z</time></trkpt><trkpt lon="5.69029" lat="50.857746"><ele>24.2</ele><time>2022-06-26T07:37:36.000Z</time></trkpt><trkpt lon="5.69031" lat="50.857762"><ele>24.2</ele><time>2022-06-26T07:37:37.000Z</time></trkpt><trkpt lon="5.690325" lat="50.857781"><ele>24.4</ele><time>2022-06-26T07:37:38.000Z</time></trkpt><trkpt lon="5.690335" lat="50.857804"><ele>24.4</ele><time>2022-06-26T07:37:39.000Z</time></trkpt><trkpt lon="5.690345" lat="50.857834"><ele>24.4</ele><time>2022-06-26T07:37:40.000Z</time></trkpt><trkpt lon="5.690357" lat="50.857872"><ele>24.4</ele><time>2022-06-26T07:37:41.000Z</time></trkpt><trkpt lon="5.690369" lat="50.857907"><ele>24.4</ele><time>2022-06-26T07:37:42.000Z</time></trkpt><trkpt lon="5.690382" lat="50.857961"><ele>24.6</ele><time>2022-06-26T07:37:43.000Z</time></trkpt><trkpt lon="5.690387" lat="50.858011"><ele>24.6</ele><time>2022-06-26T07:37:44.000Z</time></trkpt><trkpt lon="5.690385" lat="50.858064"><ele>24.4</ele><time>2022-06-26T07:37:45.000Z</time></trkpt><trkpt lon="5.690371" lat="50.858121"><ele>24.4</ele><time>2022-06-26T07:37:46.000Z</time></trkpt><trkpt lon="5.690353" lat="50.858178"><ele>24.4</ele><time>2022-06-26T07:37:47.000Z</time></trkpt><trkpt lon="5.690331" lat="50.85824"><ele>24.4</ele><time>2022-06-26T07:37:48.000Z</time></trkpt><trkpt lon="5.690306" lat="50.858301"><ele>24.4</ele><time>2022-06-26T07:37:49.000Z</time></trkpt><trkpt lon="5.690278" lat="50.858361"><ele>24.4</ele><time>2022-06-26T07:37:50.000Z</time></trkpt><trkpt lon="5.69025" lat="50.858412"><ele>24.4</ele><time>2022-06-26T07:37:51.000Z</time></trkpt><trkpt lon="5.690202" lat="50.85848"><ele>24.4</ele><time>2022-06-26T07:37:52.000Z</time></trkpt><trkpt lon="5.690166" lat="50.85853"><ele>24.6</ele><time>2022-06-26T07:37:53.000Z</time></trkpt><trkpt lon="5.690107" lat="50.858602"><ele>24.6</ele><time>2022-06-26T07:37:54.000Z</time></trkpt><trkpt lon="5.690062" lat="50.858661"><ele>24.8</ele><time>2022-06-26T07:37:55.000Z</time></trkpt><trkpt lon="5.690026" lat="50.858732"><ele>25</ele><time>2022-06-26T07:37:56.000Z</time></trkpt><trkpt lon="5.690002" lat="50.858799"><ele>25</ele><time>2022-06-26T07:37:57.000Z</time></trkpt><trkpt lon="5.68998" lat="50.858869"><ele>25.2</ele><time>2022-06-26T07:37:58.000Z</time></trkpt><trkpt lon="5.68996" lat="50.858926"><ele>25.2</ele><time>2022-06-26T07:37:59.000Z</time></trkpt><trkpt lon="5.689935" lat="50.85901"><ele>25.2</ele><time>2022-06-26T07:38:00.000Z</time></trkpt><trkpt lon="5.689915" lat="50.859075"><ele>25.4</ele><time>2022-06-26T07:38:01.000Z</time></trkpt><trkpt lon="5.689889" lat="50.859151"><ele>25.4</ele><time>2022-06-26T07:38:02.000Z</time></trkpt><trkpt lon="5.68987" lat="50.859205"><ele>25.4</ele><time>2022-06-26T07:38:03.000Z</time></trkpt><trkpt lon="5.689846" lat="50.859281"><ele>25.4</ele><time>2022-06-26T07:38:04.000Z</time></trkpt><trkpt lon="5.689833" lat="50.859346"><ele>25.4</ele><time>2022-06-26T07:38:05.000Z</time></trkpt><trkpt lon="5.68982" lat="50.85941"><ele>25.4</ele><time>2022-06-26T07:38:06.000Z</time></trkpt><trkpt lon="5.68981" lat="50.859471"><ele>25.6</ele><time>2022-06-26T07:38:07.000Z</time></trkpt><trkpt lon="5.689798" lat="50.859533"><ele>25.6</ele><time>2022-06-26T07:38:08.000Z</time></trkpt><trkpt lon="5.689791" lat="50.85958"><ele>25.6</ele><time>2022-06-26T07:38:09.000Z</time></trkpt><trkpt lon="5.689778" lat="50.859643"><ele>25.4</ele><time>2022-06-26T07:38:10.000Z</time></trkpt><trkpt lon="5.68977" lat="50.859691"><ele>25.4</ele><time>2022-06-26T07:38:11.000Z</time></trkpt><trkpt lon="5.689767" lat="50.859735"><ele>25.4</ele><time>2022-06-26T07:38:12.000Z</time></trkpt><trkpt lon="5.689774" lat="50.859771"><ele>25.4</ele><time>2022-06-26T07:38:13.000Z</time></trkpt><trkpt lon="5.689783" lat="50.859811"><ele>25.4</ele><time>2022-06-26T07:38:14.000Z</time></trkpt><trkpt lon="5.689785" lat="50.859837"><ele>25.4</ele><time>2022-06-26T07:38:15.000Z</time></trkpt><trkpt lon="5.689777" lat="50.859855"><ele>25.4</ele><time>2022-06-26T07:38:16.000Z</time></trkpt><trkpt lon="5.68977" lat="50.859883"><ele>25.4</ele><time>2022-06-26T07:38:17.000Z</time></trkpt><trkpt lon="5.689762" lat="50.859898"><ele>25.4</ele><time>2022-06-26T07:38:18.000Z</time></trkpt><trkpt lon="5.689755" lat="50.859909"><ele>25.4</ele><time>2022-06-26T07:38:19.000Z</time></trkpt><trkpt lon="5.689757" lat="50.859917"><ele>25.4</ele><time>2022-06-26T07:38:30.000Z</time></trkpt><trkpt lon="5.689757" lat="50.859917"><ele>25.4</ele><time>2022-06-26T07:38:31.000Z</time></trkpt><trkpt lon="5.689747" lat="50.859944"><ele>25.4</ele><time>2022-06-26T07:38:32.000Z</time></trkpt><trkpt lon="5.689735" lat="50.859962"><ele>25.4</ele><time>2022-06-26T07:38:33.000Z</time></trkpt><trkpt lon="5.68972" lat="50.859986"><ele>25.4</ele><time>2022-06-26T07:38:34.000Z</time></trkpt><trkpt lon="5.6897" lat="50.860013"><ele>25.4</ele><time>2022-06-26T07:38:35.000Z</time></trkpt><trkpt lon="5.689676" lat="50.860047"><ele>25.4</ele><time>2022-06-26T07:38:36.000Z</time></trkpt><trkpt lon="5.689644" lat="50.860085"><ele>25.4</ele><time>2022-06-26T07:38:37.000Z</time></trkpt><trkpt lon="5.689595" lat="50.860138"><ele>25.4</ele><time>2022-06-26T07:38:38.000Z</time></trkpt><trkpt lon="5.689541" lat="50.860183"><ele>25.4</ele><time>2022-06-26T07:38:39.000Z</time></trkpt><trkpt lon="5.689478" lat="50.860234"><ele>25.4</ele><time>2022-06-26T07:38:40.000Z</time></trkpt><trkpt lon="5.689432" lat="50.860273"><ele>25.4</ele><time>2022-06-26T07:38:41.000Z</time></trkpt><trkpt lon="5.689371" lat="50.860337"><ele>25.4</ele><time>2022-06-26T07:38:42.000Z</time></trkpt><trkpt lon="5.689335" lat="50.860383"><ele>25.4</ele><time>2022-06-26T07:38:43.000Z</time></trkpt><trkpt lon="5.689289" lat="50.860452"><ele>25.4</ele><time>2022-06-26T07:38:44.000Z</time></trkpt><trkpt lon="5.689253" lat="50.860512"><ele>25.4</ele><time>2022-06-26T07:38:45.000Z</time></trkpt><trkpt lon="5.689218" lat="50.860578"><ele>25.4</ele><time>2022-06-26T07:38:46.000Z</time></trkpt><trkpt lon="5.689187" lat="50.860638"><ele>25.4</ele><time>2022-06-26T07:38:47.000Z</time></trkpt><trkpt lon="5.689146" lat="50.860711"><ele>25.4</ele><time>2022-06-26T07:38:48.000Z</time></trkpt><trkpt lon="5.689108" lat="50.860776"><ele>25.4</ele><time>2022-06-26T07:38:49.000Z</time></trkpt><trkpt lon="5.68907" lat="50.860845"><ele>25.4</ele><time>2022-06-26T07:38:50.000Z</time></trkpt><trkpt lon="5.68903" lat="50.860909"><ele>25.4</ele><time>2022-06-26T07:38:51.000Z</time></trkpt><trkpt lon="5.688989" lat="50.860978"><ele>25.4</ele><time>2022-06-26T07:38:52.000Z</time></trkpt><trkpt lon="5.688949" lat="50.861044"><ele>25.4</ele><time>2022-06-26T07:38:53.000Z</time></trkpt><trkpt lon="5.688911" lat="50.861108"><ele>25.4</ele><time>2022-06-26T07:38:54.000Z</time></trkpt><trkpt lon="5.688872" lat="50.861171"><ele>25.4</ele><time>2022-06-26T07:38:55.000Z</time></trkpt><trkpt lon="5.688829" lat="50.861234"><ele>25.4</ele><time>2022-06-26T07:38:56.000Z</time></trkpt><trkpt lon="5.688789" lat="50.861295"><ele>25.4</ele><time>2022-06-26T07:38:57.000Z</time></trkpt><trkpt lon="5.688755" lat="50.861359"><ele>25.4</ele><time>2022-06-26T07:38:58.000Z</time></trkpt><trkpt lon="5.688726" lat="50.861411"><ele>25.4</ele><time>2022-06-26T07:38:59.000Z</time></trkpt><trkpt lon="5.68868" lat="50.861477"><ele>25.2</ele><time>2022-06-26T07:39:00.000Z</time></trkpt><trkpt lon="5.688648" lat="50.861524"><ele>25.4</ele><time>2022-06-26T07:39:01.000Z</time></trkpt><trkpt lon="5.688612" lat="50.861569"><ele>25.4</ele><time>2022-06-26T07:39:02.000Z</time></trkpt><trkpt lon="5.688571" lat="50.861602"><ele>25.4</ele><time>2022-06-26T07:39:03.000Z</time></trkpt><trkpt lon="5.688514" lat="50.861646"><ele>25.6</ele><time>2022-06-26T07:39:04.000Z</time></trkpt><trkpt lon="5.688474" lat="50.861696"><ele>25.6</ele><time>2022-06-26T07:39:05.000Z</time></trkpt><trkpt lon="5.688431" lat="50.86176"><ele>25.6</ele><time>2022-06-26T07:39:06.000Z</time></trkpt><trkpt lon="5.688394" lat="50.861817"><ele>25.6</ele><time>2022-06-26T07:39:07.000Z</time></trkpt><trkpt lon="5.688346" lat="50.861894"><ele>25.6</ele><time>2022-06-26T07:39:08.000Z</time></trkpt><trkpt lon="5.688304" lat="50.861956"><ele>25.6</ele><time>2022-06-26T07:39:09.000Z</time></trkpt><trkpt lon="5.688263" lat="50.862023"><ele>25.6</ele><time>2022-06-26T07:39:10.000Z</time></trkpt><trkpt lon="5.688232" lat="50.862076"><ele>25.6</ele><time>2022-06-26T07:39:11.000Z</time></trkpt><trkpt lon="5.688178" lat="50.862168"><ele>25.6</ele><time>2022-06-26T07:39:12.000Z</time></trkpt><trkpt lon="5.688141" lat="50.862223"><ele>25.6</ele><time>2022-06-26T07:39:13.000Z</time></trkpt><trkpt lon="5.688085" lat="50.862309"><ele>25.8</ele><time>2022-06-26T07:39:14.000Z</time></trkpt><trkpt lon="5.688048" lat="50.862368"><ele>25.8</ele><time>2022-06-26T07:39:15.000Z</time></trkpt><trkpt lon="5.687998" lat="50.862446"><ele>26</ele><time>2022-06-26T07:39:16.000Z</time></trkpt><trkpt lon="5.687966" lat="50.862504"><ele>26</ele><time>2022-06-26T07:39:17.000Z</time></trkpt><trkpt lon="5.687913" lat="50.862584"><ele>26</ele><time>2022-06-26T07:39:18.000Z</time></trkpt><trkpt lon="5.687883" lat="50.86263"><ele>26.2</ele><time>2022-06-26T07:39:19.000Z</time></trkpt><trkpt lon="5.687835" lat="50.862702"><ele>26.2</ele><time>2022-06-26T07:39:20.000Z</time></trkpt><trkpt lon="5.6878" lat="50.862751"><ele>26.2</ele><time>2022-06-26T07:39:21.000Z</time></trkpt><trkpt lon="5.687751" lat="50.862825"><ele>26.4</ele><time>2022-06-26T07:39:22.000Z</time></trkpt><trkpt lon="5.687712" lat="50.862884"><ele>26.4</ele><time>2022-06-26T07:39:23.000Z</time></trkpt><trkpt lon="5.687668" lat="50.862954"><ele>26.6</ele><time>2022-06-26T07:39:24.000Z</time></trkpt><trkpt lon="5.687638" lat="50.862999"><ele>26.6</ele><time>2022-06-26T07:39:25.000Z</time></trkpt><trkpt lon="5.687588" lat="50.863076"><ele>26.8</ele><time>2022-06-26T07:39:26.000Z</time></trkpt><trkpt lon="5.687556" lat="50.863124"><ele>26.8</ele><time>2022-06-26T07:39:27.000Z</time></trkpt><trkpt lon="5.687503" lat="50.863214"><ele>26.8</ele><time>2022-06-26T07:39:28.000Z</time></trkpt><trkpt lon="5.687464" lat="50.863276"><ele>26.8</ele><time>2022-06-26T07:39:29.000Z</time></trkpt><trkpt lon="5.687424" lat="50.863344"><ele>27</ele><time>2022-06-26T07:39:30.000Z</time></trkpt><trkpt lon="5.687395" lat="50.863396"><ele>27</ele><time>2022-06-26T07:39:31.000Z</time></trkpt><trkpt lon="5.687342" lat="50.863481"><ele>27</ele><time>2022-06-26T07:39:32.000Z</time></trkpt><trkpt lon="5.687308" lat="50.863537"><ele>27</ele><time>2022-06-26T07:39:33.000Z</time></trkpt><trkpt lon="5.687258" lat="50.863622"><ele>27.2</ele><time>2022-06-26T07:39:34.000Z</time></trkpt><trkpt lon="5.687224" lat="50.863679"><ele>27.2</ele><time>2022-06-26T07:39:35.000Z</time></trkpt><trkpt lon="5.687173" lat="50.863763"><ele>27.2</ele><time>2022-06-26T07:39:36.000Z</time></trkpt><trkpt lon="5.687138" lat="50.863823"><ele>27.2</ele><time>2022-06-26T07:39:37.000Z</time></trkpt><trkpt lon="5.687088" lat="50.863904"><ele>27.2</ele><time>2022-06-26T07:39:38.000Z</time></trkpt><trkpt lon="5.687044" lat="50.863972"><ele>27.2</ele><time>2022-06-26T07:39:39.000Z</time></trkpt><trkpt lon="5.686996" lat="50.864053"><ele>27.2</ele><time>2022-06-26T07:39:40.000Z</time></trkpt><trkpt lon="5.68697" lat="50.864096"><ele>27</ele><time>2022-06-26T07:39:41.000Z</time></trkpt><trkpt lon="5.686921" lat="50.864176"><ele>27</ele><time>2022-06-26T07:39:42.000Z</time></trkpt><trkpt lon="5.686866" lat="50.864268"><ele>26.8</ele><time>2022-06-26T07:39:43.000Z</time></trkpt><trkpt lon="5.686818" lat="50.86435"><ele>26.6</ele><time>2022-06-26T07:39:44.000Z</time></trkpt><trkpt lon="5.68679" lat="50.864398"><ele>26.4</ele><time>2022-06-26T07:39:45.000Z</time></trkpt><trkpt lon="5.686729" lat="50.864495"><ele>26.6</ele><time>2022-06-26T07:39:46.000Z</time></trkpt><trkpt lon="5.686701" lat="50.864544"><ele>26.6</ele><time>2022-06-26T07:39:47.000Z</time></trkpt><trkpt lon="5.686639" lat="50.86464"><ele>26.8</ele><time>2022-06-26T07:39:48.000Z</time></trkpt><trkpt lon="5.686614" lat="50.864687"><ele>26.8</ele><time>2022-06-26T07:39:49.000Z</time></trkpt><trkpt lon="5.686554" lat="50.864782"><ele>26.8</ele><time>2022-06-26T07:39:50.000Z</time></trkpt><trkpt lon="5.686524" lat="50.86483"><ele>26.8</ele><time>2022-06-26T07:39:51.000Z</time></trkpt><trkpt lon="5.686471" lat="50.864923"><ele>27</ele><time>2022-06-26T07:39:52.000Z</time></trkpt><trkpt lon="5.686444" lat="50.864968"><ele>27</ele><time>2022-06-26T07:39:53.000Z</time></trkpt><trkpt lon="5.686391" lat="50.86506"><ele>27</ele><time>2022-06-26T07:39:54.000Z</time></trkpt><trkpt lon="5.686367" lat="50.865102"><ele>27.2</ele><time>2022-06-26T07:39:55.000Z</time></trkpt><trkpt lon="5.686315" lat="50.865201"><ele>27.2</ele><time>2022-06-26T07:39:56.000Z</time></trkpt><trkpt lon="5.68629" lat="50.865246"><ele>27.2</ele><time>2022-06-26T07:39:57.000Z</time></trkpt><trkpt lon="5.686241" lat="50.865346"><ele>27.2</ele><time>2022-06-26T07:39:58.000Z</time></trkpt><trkpt lon="5.686221" lat="50.865393"><ele>27.2</ele><time>2022-06-26T07:39:59.000Z</time></trkpt><trkpt lon="5.68618" lat="50.865495"><ele>27.2</ele><time>2022-06-26T07:40:00.000Z</time></trkpt><trkpt lon="5.686161" lat="50.865547"><ele>27.2</ele><time>2022-06-26T07:40:01.000Z</time></trkpt><trkpt lon="5.686143" lat="50.865644"><ele>27</ele><time>2022-06-26T07:40:02.000Z</time></trkpt><trkpt lon="5.686146" lat="50.865697"><ele>27</ele><time>2022-06-26T07:40:03.000Z</time></trkpt><trkpt lon="5.686164" lat="50.865807"><ele>27</ele><time>2022-06-26T07:40:04.000Z</time></trkpt><trkpt lon="5.686175" lat="50.865861"><ele>27</ele><time>2022-06-26T07:40:05.000Z</time></trkpt><trkpt lon="5.6862" lat="50.865969"><ele>27</ele><time>2022-06-26T07:40:06.000Z</time></trkpt><trkpt lon="5.686211" lat="50.866024"><ele>27</ele><time>2022-06-26T07:40:07.000Z</time></trkpt><trkpt lon="5.686235" lat="50.866136"><ele>26.8</ele><time>2022-06-26T07:40:08.000Z</time></trkpt><trkpt lon="5.686249" lat="50.866184"><ele>26.8</ele><time>2022-06-26T07:40:09.000Z</time></trkpt><trkpt lon="5.686283" lat="50.866296"><ele>26.8</ele><time>2022-06-26T07:40:10.000Z</time></trkpt><trkpt lon="5.686296" lat="50.866347"><ele>27</ele><time>2022-06-26T07:40:11.000Z</time></trkpt><trkpt lon="5.68632" lat="50.86646"><ele>27</ele><time>2022-06-26T07:40:12.000Z</time></trkpt><trkpt lon="5.68633" lat="50.866517"><ele>27</ele><time>2022-06-26T07:40:13.000Z</time></trkpt><trkpt lon="5.68635" lat="50.866624"><ele>27</ele><time>2022-06-26T07:40:14.000Z</time></trkpt><trkpt lon="5.686358" lat="50.866675"><ele>27</ele><time>2022-06-26T07:40:15.000Z</time></trkpt><trkpt lon="5.686373" lat="50.866788"><ele>26.8</ele><time>2022-06-26T07:40:16.000Z</time></trkpt><trkpt lon="5.686378" lat="50.866836"><ele>26.8</ele><time>2022-06-26T07:40:17.000Z</time></trkpt><trkpt lon="5.686382" lat="50.86694"><ele>27</ele><time>2022-06-26T07:40:18.000Z</time></trkpt><trkpt lon="5.686386" lat="50.866985"><ele>27</ele><time>2022-06-26T07:40:19.000Z</time></trkpt><trkpt lon="5.686404" lat="50.867089"><ele>27</ele><time>2022-06-26T07:40:20.000Z</time></trkpt><trkpt lon="5.686417" lat="50.867139"><ele>26.8</ele><time>2022-06-26T07:40:21.000Z</time></trkpt><trkpt lon="5.686447" lat="50.86723"><ele>26.8</ele><time>2022-06-26T07:40:22.000Z</time></trkpt><trkpt lon="5.686467" lat="50.867272"><ele>26.8</ele><time>2022-06-26T07:40:23.000Z</time></trkpt><trkpt lon="5.686519" lat="50.867364"><ele>26.8</ele><time>2022-06-26T07:40:24.000Z</time></trkpt><trkpt lon="5.686546" lat="50.867406"><ele>26.8</ele><time>2022-06-26T07:40:25.000Z</time></trkpt><trkpt lon="5.686608" lat="50.86749"><ele>26.8</ele><time>2022-06-26T07:40:26.000Z</time></trkpt><trkpt lon="5.686645" lat="50.867535"><ele>27</ele><time>2022-06-26T07:40:27.000Z</time></trkpt><trkpt lon="5.686719" lat="50.867623"><ele>27</ele><time>2022-06-26T07:40:28.000Z</time></trkpt><trkpt lon="5.686757" lat="50.867665"><ele>27</ele><time>2022-06-26T07:40:29.000Z</time></trkpt><trkpt lon="5.68683" lat="50.867756"><ele>27.2</ele><time>2022-06-26T07:40:30.000Z</time></trkpt><trkpt lon="5.686861" lat="50.867797"><ele>27.2</ele><time>2022-06-26T07:40:31.000Z</time></trkpt><trkpt lon="5.686919" lat="50.867882"><ele>27.2</ele><time>2022-06-26T07:40:32.000Z</time></trkpt><trkpt lon="5.686936" lat="50.867921"><ele>27.2</ele><time>2022-06-26T07:40:33.000Z</time></trkpt><trkpt lon="5.686968" lat="50.868017"><ele>27.2</ele><time>2022-06-26T07:40:34.000Z</time></trkpt><trkpt lon="5.686976" lat="50.86807"><ele>27.2</ele><time>2022-06-26T07:40:35.000Z</time></trkpt><trkpt lon="5.686981" lat="50.868165"><ele>27.2</ele><time>2022-06-26T07:40:36.000Z</time></trkpt><trkpt lon="5.686975" lat="50.868213"><ele>27.2</ele><time>2022-06-26T07:40:37.000Z</time></trkpt><trkpt lon="5.68695" lat="50.868318"><ele>27.2</ele><time>2022-06-26T07:40:38.000Z</time></trkpt><trkpt lon="5.686924" lat="50.86836"><ele>27.2</ele><time>2022-06-26T07:40:39.000Z</time></trkpt><trkpt lon="5.686859" lat="50.868451"><ele>27.2</ele><time>2022-06-26T07:40:40.000Z</time></trkpt><trkpt lon="5.686821" lat="50.86849"><ele>27.2</ele><time>2022-06-26T07:40:41.000Z</time></trkpt><trkpt lon="5.686713" lat="50.868581"><ele>27.2</ele><time>2022-06-26T07:40:42.000Z</time></trkpt><trkpt lon="5.686657" lat="50.86862"><ele>27.2</ele><time>2022-06-26T07:40:43.000Z</time></trkpt><trkpt lon="5.686528" lat="50.868699"><ele>27.2</ele><time>2022-06-26T07:40:44.000Z</time></trkpt><trkpt lon="5.686461" lat="50.868733"><ele>27.2</ele><time>2022-06-26T07:40:45.000Z</time></trkpt><trkpt lon="5.686332" lat="50.868798"><ele>27.4</ele><time>2022-06-26T07:40:46.000Z</time></trkpt><trkpt lon="5.686273" lat="50.868826"><ele>27.4</ele><time>2022-06-26T07:40:47.000Z</time></trkpt><trkpt lon="5.686127" lat="50.868893"><ele>27.4</ele><time>2022-06-26T07:40:48.000Z</time></trkpt><trkpt lon="5.686071" lat="50.868921"><ele>27.2</ele><time>2022-06-26T07:40:49.000Z</time></trkpt><trkpt lon="5.685927" lat="50.868993"><ele>27.4</ele><time>2022-06-26T07:40:50.000Z</time></trkpt><trkpt lon="5.685863" lat="50.869024"><ele>27.4</ele><time>2022-06-26T07:40:51.000Z</time></trkpt><trkpt lon="5.685729" lat="50.869084"><ele>27.4</ele><time>2022-06-26T07:40:52.000Z</time></trkpt><trkpt lon="5.685674" lat="50.869112"><ele>27.4</ele><time>2022-06-26T07:40:53.000Z</time></trkpt><trkpt lon="5.685545" lat="50.86918"><ele>27.4</ele><time>2022-06-26T07:40:54.000Z</time></trkpt><trkpt lon="5.685483" lat="50.869211"><ele>27.2</ele><time>2022-06-26T07:40:55.000Z</time></trkpt><trkpt lon="5.685359" lat="50.869271"><ele>27.2</ele><time>2022-06-26T07:40:56.000Z</time></trkpt><trkpt lon="5.685297" lat="50.869302"><ele>27.2</ele><time>2022-06-26T07:40:57.000Z</time></trkpt><trkpt lon="5.685164" lat="50.869366"><ele>27.2</ele><time>2022-06-26T07:40:58.000Z</time></trkpt><trkpt lon="5.685106" lat="50.869394"><ele>27.2</ele><time>2022-06-26T07:40:59.000Z</time></trkpt><trkpt lon="5.684976" lat="50.869457"><ele>27.2</ele><time>2022-06-26T07:41:00.000Z</time></trkpt><trkpt lon="5.684915" lat="50.869487"><ele>27.2</ele><time>2022-06-26T07:41:01.000Z</time></trkpt><trkpt lon="5.684796" lat="50.869545"><ele>27</ele><time>2022-06-26T07:41:02.000Z</time></trkpt><trkpt lon="5.684748" lat="50.869567"><ele>27</ele><time>2022-06-26T07:41:03.000Z</time></trkpt><trkpt lon="5.684623" lat="50.869625"><ele>27</ele><time>2022-06-26T07:41:04.000Z</time></trkpt><trkpt lon="5.68457" lat="50.869652"><ele>27</ele><time>2022-06-26T07:41:05.000Z</time></trkpt><trkpt lon="5.684485" lat="50.869694"><ele>27</ele><time>2022-06-26T07:41:06.000Z</time></trkpt><trkpt lon="5.684359" lat="50.869756"><ele>27</ele><time>2022-06-26T07:41:07.000Z</time></trkpt><trkpt lon="5.68427" lat="50.869802"><ele>27</ele><time>2022-06-26T07:41:08.000Z</time></trkpt><trkpt lon="5.684179" lat="50.869851"><ele>27</ele><time>2022-06-26T07:41:09.000Z</time></trkpt><trkpt lon="5.684088" lat="50.8699"><ele>27</ele><time>2022-06-26T07:41:10.000Z</time></trkpt><trkpt lon="5.684003" lat="50.869954"><ele>27</ele><time>2022-06-26T07:41:11.000Z</time></trkpt><trkpt lon="5.683918" lat="50.870009"><ele>27</ele><time>2022-06-26T07:41:12.000Z</time></trkpt><trkpt lon="5.683828" lat="50.870072"><ele>27.2</ele><time>2022-06-26T07:41:13.000Z</time></trkpt><trkpt lon="5.683749" lat="50.870132"><ele>27.2</ele><time>2022-06-26T07:41:14.000Z</time></trkpt><trkpt lon="5.683676" lat="50.870194"><ele>27.2</ele><time>2022-06-26T07:41:15.000Z</time></trkpt><trkpt lon="5.683605" lat="50.870255"><ele>27.2</ele><time>2022-06-26T07:41:16.000Z</time></trkpt><trkpt lon="5.683539" lat="50.870312"><ele>27.2</ele><time>2022-06-26T07:41:17.000Z</time></trkpt><trkpt lon="5.683476" lat="50.870378"><ele>27.2</ele><time>2022-06-26T07:41:18.000Z</time></trkpt><trkpt lon="5.683414" lat="50.870438"><ele>27.2</ele><time>2022-06-26T07:41:19.000Z</time></trkpt><trkpt lon="5.683358" lat="50.870507"><ele>27.2</ele><time>2022-06-26T07:41:20.000Z</time></trkpt><trkpt lon="5.683303" lat="50.870575"><ele>27.2</ele><time>2022-06-26T07:41:21.000Z</time></trkpt><trkpt lon="5.683255" lat="50.870648"><ele>27.2</ele><time>2022-06-26T07:41:22.000Z</time></trkpt><trkpt lon="5.683208" lat="50.870717"><ele>27</ele><time>2022-06-26T07:41:23.000Z</time></trkpt><trkpt lon="5.683163" lat="50.870785"><ele>27.2</ele><time>2022-06-26T07:41:24.000Z</time></trkpt><trkpt lon="5.683114" lat="50.870858"><ele>27.2</ele><time>2022-06-26T07:41:25.000Z</time></trkpt><trkpt lon="5.683071" lat="50.870926"><ele>27.2</ele><time>2022-06-26T07:41:26.000Z</time></trkpt><trkpt lon="5.683028" lat="50.870995"><ele>27.2</ele><time>2022-06-26T07:41:27.000Z</time></trkpt><trkpt lon="5.682982" lat="50.871065"><ele>27.2</ele><time>2022-06-26T07:41:28.000Z</time></trkpt><trkpt lon="5.682936" lat="50.871133"><ele>27.2</ele><time>2022-06-26T07:41:29.000Z</time></trkpt><trkpt lon="5.682891" lat="50.871198"><ele>27.2</ele><time>2022-06-26T07:41:30.000Z</time></trkpt><trkpt lon="5.682847" lat="50.871265"><ele>27</ele><time>2022-06-26T07:41:31.000Z</time></trkpt><trkpt lon="5.682803" lat="50.871326"><ele>27.2</ele><time>2022-06-26T07:41:32.000Z</time></trkpt><trkpt lon="5.682757" lat="50.871393"><ele>27.2</ele><time>2022-06-26T07:41:33.000Z</time></trkpt><trkpt lon="5.68271" lat="50.87146"><ele>27.2</ele><time>2022-06-26T07:41:34.000Z</time></trkpt><trkpt lon="5.682657" lat="50.87153"><ele>27.2</ele><time>2022-06-26T07:41:35.000Z</time></trkpt><trkpt lon="5.682609" lat="50.871603"><ele>27.4</ele><time>2022-06-26T07:41:36.000Z</time></trkpt><trkpt lon="5.682565" lat="50.871681"><ele>27.4</ele><time>2022-06-26T07:41:37.000Z</time></trkpt><trkpt lon="5.682519" lat="50.871751"><ele>27.4</ele><time>2022-06-26T07:41:38.000Z</time></trkpt><trkpt lon="5.682478" lat="50.871823"><ele>27.4</ele><time>2022-06-26T07:41:39.000Z</time></trkpt><trkpt lon="5.682439" lat="50.871892"><ele>27.2</ele><time>2022-06-26T07:41:40.000Z</time></trkpt><trkpt lon="5.6824" lat="50.87196"><ele>27.2</ele><time>2022-06-26T07:41:41.000Z</time></trkpt><trkpt lon="5.68236" lat="50.872025"><ele>27.2</ele><time>2022-06-26T07:41:42.000Z</time></trkpt><trkpt lon="5.682323" lat="50.872091"><ele>27.2</ele><time>2022-06-26T07:41:43.000Z</time></trkpt><trkpt lon="5.682283" lat="50.872154"><ele>27.2</ele><time>2022-06-26T07:41:44.000Z</time></trkpt><trkpt lon="5.682237" lat="50.872224"><ele>27.4</ele><time>2022-06-26T07:41:45.000Z</time></trkpt><trkpt lon="5.682193" lat="50.872292"><ele>27.4</ele><time>2022-06-26T07:41:46.000Z</time></trkpt><trkpt lon="5.682148" lat="50.872357"><ele>27.4</ele><time>2022-06-26T07:41:47.000Z</time></trkpt><trkpt lon="5.682103" lat="50.872426"><ele>27.4</ele><time>2022-06-26T07:41:48.000Z</time></trkpt><trkpt lon="5.682056" lat="50.872495"><ele>27.4</ele><time>2022-06-26T07:41:49.000Z</time></trkpt><trkpt lon="5.682009" lat="50.872566"><ele>27.4</ele><time>2022-06-26T07:41:50.000Z</time></trkpt><trkpt lon="5.68196" lat="50.872635"><ele>27.4</ele><time>2022-06-26T07:41:51.000Z</time></trkpt><trkpt lon="5.681913" lat="50.872704"><ele>27.4</ele><time>2022-06-26T07:41:52.000Z</time></trkpt><trkpt lon="5.681867" lat="50.872776"><ele>27.4</ele><time>2022-06-26T07:41:53.000Z</time></trkpt><trkpt lon="5.681818" lat="50.872849"><ele>27.2</ele><time>2022-06-26T07:41:54.000Z</time></trkpt><trkpt lon="5.681774" lat="50.872922"><ele>27.2</ele><time>2022-06-26T07:41:55.000Z</time></trkpt><trkpt lon="5.68173" lat="50.87299"><ele>27.2</ele><time>2022-06-26T07:41:56.000Z</time></trkpt><trkpt lon="5.681686" lat="50.873053"><ele>27</ele><time>2022-06-26T07:41:57.000Z</time></trkpt><trkpt lon="5.681643" lat="50.873125"><ele>27</ele><time>2022-06-26T07:41:58.000Z</time></trkpt><trkpt lon="5.681604" lat="50.873189"><ele>27</ele><time>2022-06-26T07:41:59.000Z</time></trkpt><trkpt lon="5.681562" lat="50.873255"><ele>27</ele><time>2022-06-26T07:42:00.000Z</time></trkpt><trkpt lon="5.681515" lat="50.873323"><ele>27</ele><time>2022-06-26T07:42:01.000Z</time></trkpt><trkpt lon="5.681467" lat="50.873392"><ele>27</ele><time>2022-06-26T07:42:02.000Z</time></trkpt><trkpt lon="5.681417" lat="50.873464"><ele>27</ele><time>2022-06-26T07:42:03.000Z</time></trkpt><trkpt lon="5.681374" lat="50.873529"><ele>27</ele><time>2022-06-26T07:42:04.000Z</time></trkpt><trkpt lon="5.681327" lat="50.873591"><ele>27.2</ele><time>2022-06-26T07:42:05.000Z</time></trkpt><trkpt lon="5.681279" lat="50.873662"><ele>27.2</ele><time>2022-06-26T07:42:06.000Z</time></trkpt><trkpt lon="5.681229" lat="50.873735"><ele>27.2</ele><time>2022-06-26T07:42:07.000Z</time></trkpt><trkpt lon="5.681179" lat="50.873803"><ele>27.2</ele><time>2022-06-26T07:42:08.000Z</time></trkpt><trkpt lon="5.681133" lat="50.873865"><ele>27.2</ele><time>2022-06-26T07:42:09.000Z</time></trkpt><trkpt lon="5.681079" lat="50.873937"><ele>27</ele><time>2022-06-26T07:42:10.000Z</time></trkpt><trkpt lon="5.681028" lat="50.874005"><ele>27</ele><time>2022-06-26T07:42:11.000Z</time></trkpt><trkpt lon="5.680979" lat="50.874067"><ele>27</ele><time>2022-06-26T07:42:12.000Z</time></trkpt><trkpt lon="5.68092" lat="50.874141"><ele>27</ele><time>2022-06-26T07:42:13.000Z</time></trkpt><trkpt lon="5.680861" lat="50.874215"><ele>27</ele><time>2022-06-26T07:42:14.000Z</time></trkpt><trkpt lon="5.680802" lat="50.874284"><ele>27</ele><time>2022-06-26T07:42:15.000Z</time></trkpt><trkpt lon="5.680739" lat="50.874353"><ele>27</ele><time>2022-06-26T07:42:16.000Z</time></trkpt><trkpt lon="5.68069" lat="50.874411"><ele>27</ele><time>2022-06-26T07:42:17.000Z</time></trkpt><trkpt lon="5.680629" lat="50.87449"><ele>26.8</ele><time>2022-06-26T07:42:18.000Z</time></trkpt><trkpt lon="5.680576" lat="50.874559"><ele>26.8</ele><time>2022-06-26T07:42:19.000Z</time></trkpt><trkpt lon="5.680514" lat="50.874635"><ele>26.8</ele><time>2022-06-26T07:42:20.000Z</time></trkpt><trkpt lon="5.680457" lat="50.8747"><ele>26.8</ele><time>2022-06-26T07:42:21.000Z</time></trkpt><trkpt lon="5.680407" lat="50.874769"><ele>26.6</ele><time>2022-06-26T07:42:22.000Z</time></trkpt><trkpt lon="5.680358" lat="50.874836"><ele>26.6</ele><time>2022-06-26T07:42:23.000Z</time></trkpt><trkpt lon="5.6803" lat="50.87491"><ele>26.4</ele><time>2022-06-26T07:42:24.000Z</time></trkpt><trkpt lon="5.680255" lat="50.87498"><ele>26.4</ele><time>2022-06-26T07:42:25.000Z</time></trkpt><trkpt lon="5.680202" lat="50.875055"><ele>26.2</ele><time>2022-06-26T07:42:26.000Z</time></trkpt><trkpt lon="5.680158" lat="50.875127"><ele>26.2</ele><time>2022-06-26T07:42:27.000Z</time></trkpt><trkpt lon="5.680116" lat="50.875192"><ele>26.2</ele><time>2022-06-26T07:42:28.000Z</time></trkpt><trkpt lon="5.680081" lat="50.875257"><ele>26</ele><time>2022-06-26T07:42:29.000Z</time></trkpt><trkpt lon="5.68005" lat="50.875324"><ele>26</ele><time>2022-06-26T07:42:30.000Z</time></trkpt><trkpt lon="5.680026" lat="50.875379"><ele>26</ele><time>2022-06-26T07:42:31.000Z</time></trkpt><trkpt lon="5.679983" lat="50.875467"><ele>26</ele><time>2022-06-26T07:42:32.000Z</time></trkpt><trkpt lon="5.679957" lat="50.875528"><ele>26</ele><time>2022-06-26T07:42:33.000Z</time></trkpt><trkpt lon="5.679924" lat="50.875604"><ele>26</ele><time>2022-06-26T07:42:34.000Z</time></trkpt><trkpt lon="5.679893" lat="50.875669"><ele>26</ele><time>2022-06-26T07:42:35.000Z</time></trkpt><trkpt lon="5.679856" lat="50.875742"><ele>25.8</ele><time>2022-06-26T07:42:36.000Z</time></trkpt><trkpt lon="5.679827" lat="50.875801"><ele>25.6</ele><time>2022-06-26T07:42:37.000Z</time></trkpt><trkpt lon="5.679783" lat="50.875893"><ele>25.6</ele><time>2022-06-26T07:42:38.000Z</time></trkpt><trkpt lon="5.679745" lat="50.875966"><ele>25.2</ele><time>2022-06-26T07:42:39.000Z</time></trkpt><trkpt lon="5.679701" lat="50.876062"><ele>25</ele><time>2022-06-26T07:42:40.000Z</time></trkpt><trkpt lon="5.679669" lat="50.876142"><ele>24.8</ele><time>2022-06-26T07:42:41.000Z</time></trkpt><trkpt lon="5.679628" lat="50.876237"><ele>24.4</ele><time>2022-06-26T07:42:42.000Z</time></trkpt><trkpt lon="5.679593" lat="50.876321"><ele>24.2</ele><time>2022-06-26T07:42:43.000Z</time></trkpt><trkpt lon="5.679562" lat="50.876399"><ele>24</ele><time>2022-06-26T07:42:44.000Z</time></trkpt><trkpt lon="5.679523" lat="50.876498"><ele>23.6</ele><time>2022-06-26T07:42:45.000Z</time></trkpt><trkpt lon="5.679494" lat="50.87658"><ele>23.4</ele><time>2022-06-26T07:42:46.000Z</time></trkpt><trkpt lon="5.679464" lat="50.876669"><ele>23.2</ele><time>2022-06-26T07:42:47.000Z</time></trkpt><trkpt lon="5.679441" lat="50.876745"><ele>23.2</ele><time>2022-06-26T07:42:48.000Z</time></trkpt><trkpt lon="5.679423" lat="50.876817"><ele>23.4</ele><time>2022-06-26T07:42:49.000Z</time></trkpt><trkpt lon="5.67941" lat="50.876873"><ele>23.6</ele><time>2022-06-26T07:42:50.000Z</time></trkpt><trkpt lon="5.679395" lat="50.876943"><ele>23.6</ele><time>2022-06-26T07:42:51.000Z</time></trkpt><trkpt lon="5.679384" lat="50.877006"><ele>23.8</ele><time>2022-06-26T07:42:52.000Z</time></trkpt><trkpt lon="5.67937" lat="50.877088"><ele>23.8</ele><time>2022-06-26T07:42:53.000Z</time></trkpt><trkpt lon="5.679361" lat="50.877156"><ele>23.8</ele><time>2022-06-26T07:42:54.000Z</time></trkpt><trkpt lon="5.679352" lat="50.877245"><ele>23.8</ele><time>2022-06-26T07:42:55.000Z</time></trkpt><trkpt lon="5.679345" lat="50.877324"><ele>23.8</ele><time>2022-06-26T07:42:56.000Z</time></trkpt><trkpt lon="5.679338" lat="50.877405"><ele>23.8</ele><time>2022-06-26T07:42:57.000Z</time></trkpt><trkpt lon="5.679331" lat="50.877479"><ele>23.8</ele><time>2022-06-26T07:42:58.000Z</time></trkpt><trkpt lon="5.679325" lat="50.877572"><ele>23.6</ele><time>2022-06-26T07:42:59.000Z</time></trkpt><trkpt lon="5.679315" lat="50.877656"><ele>23.6</ele><time>2022-06-26T07:43:00.000Z</time></trkpt><trkpt lon="5.679308" lat="50.87774"><ele>23.6</ele><time>2022-06-26T07:43:01.000Z</time></trkpt><trkpt lon="5.679301" lat="50.877804"><ele>23.6</ele><time>2022-06-26T07:43:02.000Z</time></trkpt><trkpt lon="5.67929" lat="50.877916"><ele>23.6</ele><time>2022-06-26T07:43:03.000Z</time></trkpt><trkpt lon="5.679282" lat="50.877984"><ele>23.6</ele><time>2022-06-26T07:43:04.000Z</time></trkpt><trkpt lon="5.679268" lat="50.878087"><ele>23.4</ele><time>2022-06-26T07:43:05.000Z</time></trkpt><trkpt lon="5.679258" lat="50.87816"><ele>23.4</ele><time>2022-06-26T07:43:06.000Z</time></trkpt><trkpt lon="5.679241" lat="50.878252"><ele>23.4</ele><time>2022-06-26T07:43:07.000Z</time></trkpt><trkpt lon="5.679224" lat="50.878322"><ele>23.4</ele><time>2022-06-26T07:43:08.000Z</time></trkpt><trkpt lon="5.6792" lat="50.878412"><ele>23.4</ele><time>2022-06-26T07:43:09.000Z</time></trkpt><trkpt lon="5.679181" lat="50.87847"><ele>23.4</ele><time>2022-06-26T07:43:10.000Z</time></trkpt><trkpt lon="5.679148" lat="50.878567"><ele>23.4</ele><time>2022-06-26T07:43:11.000Z</time></trkpt><trkpt lon="5.679124" lat="50.878631"><ele>23.2</ele><time>2022-06-26T07:43:12.000Z</time></trkpt><trkpt lon="5.679089" lat="50.878721"><ele>23.2</ele><time>2022-06-26T07:43:13.000Z</time></trkpt><trkpt lon="5.679065" lat="50.878779"><ele>23.2</ele><time>2022-06-26T07:43:14.000Z</time></trkpt><trkpt lon="5.679028" lat="50.87887"><ele>23.2</ele><time>2022-06-26T07:43:15.000Z</time></trkpt><trkpt lon="5.679003" lat="50.878927"><ele>23.2</ele><time>2022-06-26T07:43:16.000Z</time></trkpt><trkpt lon="5.678966" lat="50.879014"><ele>23.2</ele><time>2022-06-26T07:43:17.000Z</time></trkpt><trkpt lon="5.67894" lat="50.879071"><ele>23.2</ele><time>2022-06-26T07:43:18.000Z</time></trkpt><trkpt lon="5.678901" lat="50.879159"><ele>23.2</ele><time>2022-06-26T07:43:19.000Z</time></trkpt><trkpt lon="5.678876" lat="50.879212"><ele>23.2</ele><time>2022-06-26T07:43:20.000Z</time></trkpt><trkpt lon="5.678836" lat="50.879297"><ele>23.2</ele><time>2022-06-26T07:43:21.000Z</time></trkpt><trkpt lon="5.678807" lat="50.879363"><ele>23.2</ele><time>2022-06-26T07:43:22.000Z</time></trkpt><trkpt lon="5.678769" lat="50.879449"><ele>23.2</ele><time>2022-06-26T07:43:23.000Z</time></trkpt><trkpt lon="5.678746" lat="50.879498"><ele>23.2</ele><time>2022-06-26T07:43:24.000Z</time></trkpt><trkpt lon="5.678699" lat="50.879594"><ele>23.2</ele><time>2022-06-26T07:43:25.000Z</time></trkpt><trkpt lon="5.678673" lat="50.879649"><ele>23.2</ele><time>2022-06-26T07:43:26.000Z</time></trkpt><trkpt lon="5.678633" lat="50.879734"><ele>23.2</ele><time>2022-06-26T07:43:27.000Z</time></trkpt><trkpt lon="5.678608" lat="50.879792"><ele>23.2</ele><time>2022-06-26T07:43:28.000Z</time></trkpt><trkpt lon="5.678568" lat="50.87988"><ele>23.2</ele><time>2022-06-26T07:43:29.000Z</time></trkpt><trkpt lon="5.678543" lat="50.879928"><ele>23.2</ele><time>2022-06-26T07:43:30.000Z</time></trkpt><trkpt lon="5.678498" lat="50.880021"><ele>23.2</ele><time>2022-06-26T07:43:31.000Z</time></trkpt><trkpt lon="5.678476" lat="50.88007"><ele>23.2</ele><time>2022-06-26T07:43:32.000Z</time></trkpt><trkpt lon="5.678436" lat="50.880163"><ele>23.2</ele><time>2022-06-26T07:43:33.000Z</time></trkpt><trkpt lon="5.678405" lat="50.880221"><ele>23</ele><time>2022-06-26T07:43:34.000Z</time></trkpt><trkpt lon="5.678368" lat="50.880307"><ele>23</ele><time>2022-06-26T07:43:35.000Z</time></trkpt><trkpt lon="5.678348" lat="50.880361"><ele>23</ele><time>2022-06-26T07:43:36.000Z</time></trkpt><trkpt lon="5.678318" lat="50.880452"><ele>23</ele><time>2022-06-26T07:43:37.000Z</time></trkpt><trkpt lon="5.6783" lat="50.880514"><ele>23</ele><time>2022-06-26T07:43:38.000Z</time></trkpt><trkpt lon="5.67828" lat="50.880589"><ele>23</ele><time>2022-06-26T07:43:39.000Z</time></trkpt><trkpt lon="5.678267" lat="50.880634"><ele>23</ele><time>2022-06-26T07:43:40.000Z</time></trkpt><trkpt lon="5.678241" lat="50.880719"><ele>23</ele><time>2022-06-26T07:43:41.000Z</time></trkpt><trkpt lon="5.678228" lat="50.880755"><ele>23</ele><time>2022-06-26T07:43:42.000Z</time></trkpt><trkpt lon="5.678207" lat="50.88083"><ele>23</ele><time>2022-06-26T07:43:43.000Z</time></trkpt><trkpt lon="5.678213" lat="50.88087"><ele>23</ele><time>2022-06-26T07:43:44.000Z</time></trkpt><trkpt lon="5.678247" lat="50.880945"><ele>23</ele><time>2022-06-26T07:43:45.000Z</time></trkpt><trkpt lon="5.678272" lat="50.880994"><ele>23</ele><time>2022-06-26T07:43:46.000Z</time></trkpt><trkpt lon="5.678292" lat="50.881063"><ele>23.2</ele><time>2022-06-26T07:43:47.000Z</time></trkpt><trkpt lon="5.678296" lat="50.881123"><ele>23.2</ele><time>2022-06-26T07:43:48.000Z</time></trkpt><trkpt lon="5.678295" lat="50.881203"><ele>23.2</ele><time>2022-06-26T07:43:49.000Z</time></trkpt><trkpt lon="5.678293" lat="50.881261"><ele>23.2</ele><time>2022-06-26T07:43:50.000Z</time></trkpt><trkpt lon="5.678288" lat="50.881369"><ele>23.2</ele><time>2022-06-26T07:43:51.000Z</time></trkpt><trkpt lon="5.678286" lat="50.881437"><ele>23.2</ele><time>2022-06-26T07:43:52.000Z</time></trkpt><trkpt lon="5.678285" lat="50.881525"><ele>23.2</ele><time>2022-06-26T07:43:53.000Z</time></trkpt><trkpt lon="5.678285" lat="50.881585"><ele>23.2</ele><time>2022-06-26T07:43:54.000Z</time></trkpt><trkpt lon="5.678285" lat="50.881685"><ele>23.2</ele><time>2022-06-26T07:43:55.000Z</time></trkpt><trkpt lon="5.678284" lat="50.881743"><ele>23.4</ele><time>2022-06-26T07:43:56.000Z</time></trkpt><trkpt lon="5.678285" lat="50.881845"><ele>23.4</ele><time>2022-06-26T07:43:57.000Z</time></trkpt><trkpt lon="5.678284" lat="50.881902"><ele>23.4</ele><time>2022-06-26T07:43:58.000Z</time></trkpt><trkpt lon="5.678282" lat="50.882005"><ele>23.2</ele><time>2022-06-26T07:43:59.000Z</time></trkpt><trkpt lon="5.678283" lat="50.882064"><ele>23.2</ele><time>2022-06-26T07:44:00.000Z</time></trkpt><trkpt lon="5.678285" lat="50.882161"><ele>23</ele><time>2022-06-26T07:44:01.000Z</time></trkpt><trkpt lon="5.678286" lat="50.882215"><ele>23</ele><time>2022-06-26T07:44:02.000Z</time></trkpt><trkpt lon="5.678288" lat="50.88231"><ele>23</ele><time>2022-06-26T07:44:03.000Z</time></trkpt><trkpt lon="5.678288" lat="50.882359"><ele>23</ele><time>2022-06-26T07:44:04.000Z</time></trkpt><trkpt lon="5.67829" lat="50.882462"><ele>23</ele><time>2022-06-26T07:44:05.000Z</time></trkpt><trkpt lon="5.678294" lat="50.882521"><ele>23</ele><time>2022-06-26T07:44:06.000Z</time></trkpt><trkpt lon="5.6783" lat="50.882619"><ele>23.2</ele><time>2022-06-26T07:44:07.000Z</time></trkpt><trkpt lon="5.678306" lat="50.882677"><ele>23.2</ele><time>2022-06-26T07:44:08.000Z</time></trkpt><trkpt lon="5.678315" lat="50.882776"><ele>23.4</ele><time>2022-06-26T07:44:09.000Z</time></trkpt><trkpt lon="5.678319" lat="50.88284"><ele>23.4</ele><time>2022-06-26T07:44:10.000Z</time></trkpt><trkpt lon="5.678327" lat="50.882932"><ele>23.4</ele><time>2022-06-26T07:44:11.000Z</time></trkpt><trkpt lon="5.67833" lat="50.882977"><ele>23.4</ele><time>2022-06-26T07:44:12.000Z</time></trkpt><trkpt lon="5.678342" lat="50.883091"><ele>23.4</ele><time>2022-06-26T07:44:13.000Z</time></trkpt><trkpt lon="5.678349" lat="50.883147"><ele>23.6</ele><time>2022-06-26T07:44:14.000Z</time></trkpt><trkpt lon="5.678365" lat="50.883252"><ele>23.6</ele><time>2022-06-26T07:44:15.000Z</time></trkpt><trkpt lon="5.678373" lat="50.883299"><ele>23.6</ele><time>2022-06-26T07:44:16.000Z</time></trkpt><trkpt lon="5.678392" lat="50.883413"><ele>23.6</ele><time>2022-06-26T07:44:17.000Z</time></trkpt><trkpt lon="5.678403" lat="50.88347"><ele>23.8</ele><time>2022-06-26T07:44:18.000Z</time></trkpt><trkpt lon="5.678422" lat="50.883569"><ele>23.8</ele><time>2022-06-26T07:44:19.000Z</time></trkpt><trkpt lon="5.678431" lat="50.883615"><ele>23.8</ele><time>2022-06-26T07:44:20.000Z</time></trkpt><trkpt lon="5.678455" lat="50.883726"><ele>23.8</ele><time>2022-06-26T07:44:21.000Z</time></trkpt><trkpt lon="5.678472" lat="50.883781"><ele>24</ele><time>2022-06-26T07:44:22.000Z</time></trkpt><trkpt lon="5.678505" lat="50.883881"><ele>24.2</ele><time>2022-06-26T07:44:23.000Z</time></trkpt><trkpt lon="5.678521" lat="50.883921"><ele>24.2</ele><time>2022-06-26T07:44:24.000Z</time></trkpt><trkpt lon="5.67856" lat="50.884027"><ele>24.4</ele><time>2022-06-26T07:44:25.000Z</time></trkpt><trkpt lon="5.678576" lat="50.88407"><ele>24.8</ele><time>2022-06-26T07:44:26.000Z</time></trkpt><trkpt lon="5.678614" lat="50.884168"><ele>25</ele><time>2022-06-26T07:44:27.000Z</time></trkpt><trkpt lon="5.67863" lat="50.884212"><ele>25.4</ele><time>2022-06-26T07:44:28.000Z</time></trkpt><trkpt lon="5.678669" lat="50.884309"><ele>25.8</ele><time>2022-06-26T07:44:29.000Z</time></trkpt><trkpt lon="5.678686" lat="50.88435"><ele>26</ele><time>2022-06-26T07:44:30.000Z</time></trkpt><trkpt lon="5.678732" lat="50.88445"><ele>26.2</ele><time>2022-06-26T07:44:31.000Z</time></trkpt><trkpt lon="5.67875" lat="50.88449"><ele>26.4</ele><time>2022-06-26T07:44:32.000Z</time></trkpt><trkpt lon="5.678797" lat="50.884592"><ele>26.6</ele><time>2022-06-26T07:44:33.000Z</time></trkpt><trkpt lon="5.678822" lat="50.884636"><ele>26.8</ele><time>2022-06-26T07:44:34.000Z</time></trkpt><trkpt lon="5.678872" lat="50.884732"><ele>27</ele><time>2022-06-26T07:44:35.000Z</time></trkpt><trkpt lon="5.678893" lat="50.88477"><ele>27.2</ele><time>2022-06-26T07:44:36.000Z</time></trkpt><trkpt lon="5.678947" lat="50.884869"><ele>27.4</ele><time>2022-06-26T07:44:37.000Z</time></trkpt><trkpt lon="5.678967" lat="50.884913"><ele>27.6</ele><time>2022-06-26T07:44:38.000Z</time></trkpt><trkpt lon="5.679016" lat="50.885011"><ele>27.6</ele><time>2022-06-26T07:44:39.000Z</time></trkpt><trkpt lon="5.67904" lat="50.88505"><ele>27.6</ele><time>2022-06-26T07:44:40.000Z</time></trkpt><trkpt lon="5.679101" lat="50.885148"><ele>27.6</ele><time>2022-06-26T07:44:41.000Z</time></trkpt><trkpt lon="5.679126" lat="50.885192"><ele>27.8</ele><time>2022-06-26T07:44:42.000Z</time></trkpt><trkpt lon="5.679184" lat="50.885289"><ele>27.8</ele><time>2022-06-26T07:44:43.000Z</time></trkpt><trkpt lon="5.679205" lat="50.885328"><ele>27.8</ele><time>2022-06-26T07:44:44.000Z</time></trkpt><trkpt lon="5.67926" lat="50.885427"><ele>27.8</ele><time>2022-06-26T07:44:45.000Z</time></trkpt><trkpt lon="5.679283" lat="50.885469"><ele>28</ele><time>2022-06-26T07:44:46.000Z</time></trkpt><trkpt lon="5.679339" lat="50.885568"><ele>28</ele><time>2022-06-26T07:44:47.000Z</time></trkpt><trkpt lon="5.679366" lat="50.885611"><ele>28</ele><time>2022-06-26T07:44:48.000Z</time></trkpt><trkpt lon="5.679429" lat="50.885713"><ele>28</ele><time>2022-06-26T07:44:49.000Z</time></trkpt><trkpt lon="5.679459" lat="50.885761"><ele>28</ele><time>2022-06-26T07:44:50.000Z</time></trkpt><trkpt lon="5.679516" lat="50.885858"><ele>28.2</ele><time>2022-06-26T07:44:51.000Z</time></trkpt><trkpt lon="5.679541" lat="50.885898"><ele>28.2</ele><time>2022-06-26T07:44:52.000Z</time></trkpt><trkpt lon="5.67961" lat="50.886002"><ele>28.2</ele><time>2022-06-26T07:44:53.000Z</time></trkpt><trkpt lon="5.679644" lat="50.886047"><ele>28</ele><time>2022-06-26T07:44:54.000Z</time></trkpt><trkpt lon="5.679714" lat="50.886148"><ele>28</ele><time>2022-06-26T07:44:55.000Z</time></trkpt><trkpt lon="5.679739" lat="50.88619"><ele>28</ele><time>2022-06-26T07:44:56.000Z</time></trkpt><trkpt lon="5.679806" lat="50.886297"><ele>28.2</ele><time>2022-06-26T07:44:57.000Z</time></trkpt><trkpt lon="5.679838" lat="50.88635"><ele>28.2</ele><time>2022-06-26T07:44:58.000Z</time></trkpt><trkpt lon="5.679898" lat="50.886449"><ele>28.2</ele><time>2022-06-26T07:44:59.000Z</time></trkpt><trkpt lon="5.679924" lat="50.886491"><ele>28.2</ele><time>2022-06-26T07:45:00.000Z</time></trkpt><trkpt lon="5.679992" lat="50.886601"><ele>28.2</ele><time>2022-06-26T07:45:01.000Z</time></trkpt><trkpt lon="5.680016" lat="50.886641"><ele>28.2</ele><time>2022-06-26T07:45:02.000Z</time></trkpt><trkpt lon="5.680081" lat="50.886751"><ele>28.2</ele><time>2022-06-26T07:45:03.000Z</time></trkpt><trkpt lon="5.680108" lat="50.886799"><ele>28</ele><time>2022-06-26T07:45:04.000Z</time></trkpt><trkpt lon="5.680171" lat="50.886903"><ele>28</ele><time>2022-06-26T07:45:05.000Z</time></trkpt><trkpt lon="5.680197" lat="50.886945"><ele>28</ele><time>2022-06-26T07:45:06.000Z</time></trkpt><trkpt lon="5.680264" lat="50.887053"><ele>28</ele><time>2022-06-26T07:45:07.000Z</time></trkpt><trkpt lon="5.680297" lat="50.887101"><ele>27.8</ele><time>2022-06-26T07:45:08.000Z</time></trkpt><trkpt lon="5.680363" lat="50.887202"><ele>28</ele><time>2022-06-26T07:45:09.000Z</time></trkpt><trkpt lon="5.680411" lat="50.88728"><ele>28</ele><time>2022-06-26T07:45:10.000Z</time></trkpt><trkpt lon="5.680459" lat="50.887357"><ele>28</ele><time>2022-06-26T07:45:11.000Z</time></trkpt><trkpt lon="5.680508" lat="50.887434"><ele>28</ele><time>2022-06-26T07:45:12.000Z</time></trkpt><trkpt lon="5.680556" lat="50.88751"><ele>27.8</ele><time>2022-06-26T07:45:13.000Z</time></trkpt><trkpt lon="5.680608" lat="50.887583"><ele>27.6</ele><time>2022-06-26T07:45:14.000Z</time></trkpt><trkpt lon="5.68066" lat="50.887659"><ele>27.4</ele><time>2022-06-26T07:45:15.000Z</time></trkpt><trkpt lon="5.680713" lat="50.887735"><ele>27.4</ele><time>2022-06-26T07:45:16.000Z</time></trkpt><trkpt lon="5.680768" lat="50.887811"><ele>27.4</ele><time>2022-06-26T07:45:17.000Z</time></trkpt><trkpt lon="5.680829" lat="50.887879"><ele>27.4</ele><time>2022-06-26T07:45:18.000Z</time></trkpt><trkpt lon="5.680897" lat="50.887952"><ele>27.2</ele><time>2022-06-26T07:45:19.000Z</time></trkpt><trkpt lon="5.680966" lat="50.888017"><ele>27.2</ele><time>2022-06-26T07:45:20.000Z</time></trkpt><trkpt lon="5.681038" lat="50.888086"><ele>27.2</ele><time>2022-06-26T07:45:21.000Z</time></trkpt><trkpt lon="5.681111" lat="50.888151"><ele>27.2</ele><time>2022-06-26T07:45:22.000Z</time></trkpt><trkpt lon="5.681187" lat="50.888216"><ele>27.2</ele><time>2022-06-26T07:45:23.000Z</time></trkpt><trkpt lon="5.681265" lat="50.88828"><ele>27.4</ele><time>2022-06-26T07:45:24.000Z</time></trkpt><trkpt lon="5.68134" lat="50.888345"><ele>27.4</ele><time>2022-06-26T07:45:25.000Z</time></trkpt><trkpt lon="5.681414" lat="50.888406"><ele>27.4</ele><time>2022-06-26T07:45:26.000Z</time></trkpt><trkpt lon="5.681489" lat="50.888471"><ele>27.2</ele><time>2022-06-26T07:45:27.000Z</time></trkpt><trkpt lon="5.681563" lat="50.888532"><ele>27.2</ele><time>2022-06-26T07:45:28.000Z</time></trkpt><trkpt lon="5.681636" lat="50.888597"><ele>27.2</ele><time>2022-06-26T07:45:29.000Z</time></trkpt><trkpt lon="5.68171" lat="50.888658"><ele>27.4</ele><time>2022-06-26T07:45:30.000Z</time></trkpt><trkpt lon="5.681783" lat="50.888719"><ele>27.2</ele><time>2022-06-26T07:45:31.000Z</time></trkpt><trkpt lon="5.681861" lat="50.888781"><ele>27.2</ele><time>2022-06-26T07:45:32.000Z</time></trkpt><trkpt lon="5.681935" lat="50.888841"><ele>27.2</ele><time>2022-06-26T07:45:33.000Z</time></trkpt><trkpt lon="5.68201" lat="50.888906"><ele>27</ele><time>2022-06-26T07:45:34.000Z</time></trkpt><trkpt lon="5.682083" lat="50.888963"><ele>27</ele><time>2022-06-26T07:45:35.000Z</time></trkpt><trkpt lon="5.682144" lat="50.889024"><ele>26.8</ele><time>2022-06-26T07:45:36.000Z</time></trkpt><trkpt lon="5.68219" lat="50.889093"><ele>26.8</ele><time>2022-06-26T07:45:37.000Z</time></trkpt><trkpt lon="5.682215" lat="50.889158"><ele>26.8</ele><time>2022-06-26T07:45:38.000Z</time></trkpt><trkpt lon="5.682216" lat="50.889235"><ele>26.8</ele><time>2022-06-26T07:45:39.000Z</time></trkpt><trkpt lon="5.682201" lat="50.889314"><ele>26.8</ele><time>2022-06-26T07:45:40.000Z</time></trkpt><trkpt lon="5.682176" lat="50.88939"><ele>26.6</ele><time>2022-06-26T07:45:41.000Z</time></trkpt><trkpt lon="5.682153" lat="50.889462"><ele>26.6</ele><time>2022-06-26T07:45:42.000Z</time></trkpt><trkpt lon="5.682129" lat="50.889535"><ele>26.6</ele><time>2022-06-26T07:45:43.000Z</time></trkpt><trkpt lon="5.682108" lat="50.889603"><ele>26.8</ele><time>2022-06-26T07:45:44.000Z</time></trkpt><trkpt lon="5.682088" lat="50.889661"><ele>26.8</ele><time>2022-06-26T07:45:45.000Z</time></trkpt><trkpt lon="5.682075" lat="50.889719"><ele>27</ele><time>2022-06-26T07:45:46.000Z</time></trkpt><trkpt lon="5.682073" lat="50.889772"><ele>27</ele><time>2022-06-26T07:45:47.000Z</time></trkpt><trkpt lon="5.682089" lat="50.889825"><ele>27</ele><time>2022-06-26T07:45:48.000Z</time></trkpt><trkpt lon="5.682116" lat="50.889875"><ele>27</ele><time>2022-06-26T07:45:49.000Z</time></trkpt><trkpt lon="5.682157" lat="50.889924"><ele>26.8</ele><time>2022-06-26T07:45:50.000Z</time></trkpt><trkpt lon="5.682215" lat="50.889982"><ele>26.8</ele><time>2022-06-26T07:45:51.000Z</time></trkpt><trkpt lon="5.682273" lat="50.890043"><ele>26.6</ele><time>2022-06-26T07:45:52.000Z</time></trkpt><trkpt lon="5.682328" lat="50.890104"><ele>26.6</ele><time>2022-06-26T07:45:53.000Z</time></trkpt><trkpt lon="5.682386" lat="50.890173"><ele>26.4</ele><time>2022-06-26T07:45:54.000Z</time></trkpt><trkpt lon="5.682446" lat="50.890241"><ele>26.4</ele><time>2022-06-26T07:45:55.000Z</time></trkpt><trkpt lon="5.682499" lat="50.890302"><ele>26.4</ele><time>2022-06-26T07:45:56.000Z</time></trkpt><trkpt lon="5.682565" lat="50.890367"><ele>26.2</ele><time>2022-06-26T07:45:57.000Z</time></trkpt><trkpt lon="5.682625" lat="50.890432"><ele>26</ele><time>2022-06-26T07:45:58.000Z</time></trkpt><trkpt lon="5.68268" lat="50.890497"><ele>25.8</ele><time>2022-06-26T07:45:59.000Z</time></trkpt><trkpt lon="5.682731" lat="50.890565"><ele>25.4</ele><time>2022-06-26T07:46:00.000Z</time></trkpt><trkpt lon="5.682784" lat="50.890634"><ele>25.2</ele><time>2022-06-26T07:46:01.000Z</time></trkpt><trkpt lon="5.682833" lat="50.890703"><ele>25</ele><time>2022-06-26T07:46:02.000Z</time></trkpt><trkpt lon="5.682884" lat="50.890764"><ele>25</ele><time>2022-06-26T07:46:03.000Z</time></trkpt><trkpt lon="5.682937" lat="50.890826"><ele>24.8</ele><time>2022-06-26T07:46:04.000Z</time></trkpt><trkpt lon="5.683001" lat="50.890901"><ele>24.6</ele><time>2022-06-26T07:46:05.000Z</time></trkpt><trkpt lon="5.68306" lat="50.890959"><ele>24.4</ele><time>2022-06-26T07:46:06.000Z</time></trkpt><trkpt lon="5.683123" lat="50.891023"><ele>24.2</ele><time>2022-06-26T07:46:07.000Z</time></trkpt><trkpt lon="5.683174" lat="50.891076"><ele>24.2</ele><time>2022-06-26T07:46:08.000Z</time></trkpt><trkpt lon="5.683218" lat="50.89113"><ele>24</ele><time>2022-06-26T07:46:09.000Z</time></trkpt><trkpt lon="5.683258" lat="50.891175"><ele>23.8</ele><time>2022-06-26T07:46:10.000Z</time></trkpt><trkpt lon="5.683309" lat="50.891233"><ele>23.6</ele><time>2022-06-26T07:46:11.000Z</time></trkpt><trkpt lon="5.683362" lat="50.891283"><ele>23.6</ele><time>2022-06-26T07:46:12.000Z</time></trkpt><trkpt lon="5.68341" lat="50.89134"><ele>23.4</ele><time>2022-06-26T07:46:13.000Z</time></trkpt><trkpt lon="5.683458" lat="50.891387"><ele>23.4</ele><time>2022-06-26T07:46:14.000Z</time></trkpt><trkpt lon="5.683513" lat="50.891447"><ele>23.4</ele><time>2022-06-26T07:46:15.000Z</time></trkpt><trkpt lon="5.683579" lat="50.891501"><ele>23.4</ele><time>2022-06-26T07:46:16.000Z</time></trkpt><trkpt lon="5.683636" lat="50.891557"><ele>23.4</ele><time>2022-06-26T07:46:17.000Z</time></trkpt><trkpt lon="5.683688" lat="50.891611"><ele>23.4</ele><time>2022-06-26T07:46:18.000Z</time></trkpt><trkpt lon="5.683759" lat="50.891683"><ele>23.2</ele><time>2022-06-26T07:46:19.000Z</time></trkpt><trkpt lon="5.683845" lat="50.89175"><ele>23.2</ele><time>2022-06-26T07:46:20.000Z</time></trkpt><trkpt lon="5.683913" lat="50.891809"><ele>23.2</ele><time>2022-06-26T07:46:21.000Z</time></trkpt><trkpt lon="5.683963" lat="50.891862"><ele>23.2</ele><time>2022-06-26T07:46:22.000Z</time></trkpt><trkpt lon="5.684015" lat="50.891919"><ele>23.2</ele><time>2022-06-26T07:46:23.000Z</time></trkpt><trkpt lon="5.684069" lat="50.891973"><ele>23.2</ele><time>2022-06-26T07:46:24.000Z</time></trkpt><trkpt lon="5.684131" lat="50.892034"><ele>23.2</ele><time>2022-06-26T07:46:25.000Z</time></trkpt><trkpt lon="5.684187" lat="50.892092"><ele>23.2</ele><time>2022-06-26T07:46:26.000Z</time></trkpt><trkpt lon="5.684244" lat="50.892164"><ele>23.2</ele><time>2022-06-26T07:46:27.000Z</time></trkpt><trkpt lon="5.684299" lat="50.892227"><ele>23.2</ele><time>2022-06-26T07:46:28.000Z</time></trkpt><trkpt lon="5.684373" lat="50.892305"><ele>23.2</ele><time>2022-06-26T07:46:29.000Z</time></trkpt><trkpt lon="5.684439" lat="50.89237"><ele>23.2</ele><time>2022-06-26T07:46:30.000Z</time></trkpt><trkpt lon="5.684514" lat="50.892438"><ele>23.2</ele><time>2022-06-26T07:46:31.000Z</time></trkpt><trkpt lon="5.684562" lat="50.892484"><ele>23.2</ele><time>2022-06-26T07:46:32.000Z</time></trkpt><trkpt lon="5.68463" lat="50.892553"><ele>23.2</ele><time>2022-06-26T07:46:33.000Z</time></trkpt><trkpt lon="5.684685" lat="50.892606"><ele>23.2</ele><time>2022-06-26T07:46:34.000Z</time></trkpt><trkpt lon="5.684746" lat="50.892671"><ele>23.2</ele><time>2022-06-26T07:46:35.000Z</time></trkpt><trkpt lon="5.684798" lat="50.892725"><ele>23.2</ele><time>2022-06-26T07:46:36.000Z</time></trkpt><trkpt lon="5.684864" lat="50.892792"><ele>23.2</ele><time>2022-06-26T07:46:37.000Z</time></trkpt><trkpt lon="5.684948" lat="50.892862"><ele>23.2</ele><time>2022-06-26T07:46:38.000Z</time></trkpt><trkpt lon="5.685019" lat="50.89293"><ele>23.2</ele><time>2022-06-26T07:46:39.000Z</time></trkpt><trkpt lon="5.685078" lat="50.892986"><ele>23.2</ele><time>2022-06-26T07:46:40.000Z</time></trkpt><trkpt lon="5.685198" lat="50.893071"><ele>23.2</ele><time>2022-06-26T07:46:41.000Z</time></trkpt><trkpt lon="5.685243" lat="50.893106"><ele>23.2</ele><time>2022-06-26T07:46:42.000Z</time></trkpt><trkpt lon="5.685355" lat="50.893178"><ele>23.2</ele><time>2022-06-26T07:46:43.000Z</time></trkpt><trkpt lon="5.685409" lat="50.89323"><ele>23</ele><time>2022-06-26T07:46:44.000Z</time></trkpt><trkpt lon="5.685489" lat="50.8933"><ele>23</ele><time>2022-06-26T07:46:45.000Z</time></trkpt><trkpt lon="5.685585" lat="50.893366"><ele>22.8</ele><time>2022-06-26T07:46:46.000Z</time></trkpt><trkpt lon="5.68566" lat="50.893429"><ele>23</ele><time>2022-06-26T07:46:47.000Z</time></trkpt><trkpt lon="5.685726" lat="50.893491"><ele>23</ele><time>2022-06-26T07:46:48.000Z</time></trkpt><trkpt lon="5.68578" lat="50.89354"><ele>23</ele><time>2022-06-26T07:46:49.000Z</time></trkpt><trkpt lon="5.685858" lat="50.893605"><ele>23</ele><time>2022-06-26T07:46:50.000Z</time></trkpt><trkpt lon="5.685932" lat="50.893667"><ele>22.8</ele><time>2022-06-26T07:46:51.000Z</time></trkpt><trkpt lon="5.686005" lat="50.893731"><ele>22.8</ele><time>2022-06-26T07:46:52.000Z</time></trkpt><trkpt lon="5.686099" lat="50.893793"><ele>22.8</ele><time>2022-06-26T07:46:53.000Z</time></trkpt><trkpt lon="5.686198" lat="50.893855"><ele>22.8</ele><time>2022-06-26T07:46:54.000Z</time></trkpt><trkpt lon="5.686296" lat="50.893917"><ele>22.8</ele><time>2022-06-26T07:46:55.000Z</time></trkpt><trkpt lon="5.686385" lat="50.893984"><ele>22.8</ele><time>2022-06-26T07:46:56.000Z</time></trkpt><trkpt lon="5.686479" lat="50.89406"><ele>22.8</ele><time>2022-06-26T07:46:57.000Z</time></trkpt><trkpt lon="5.686551" lat="50.89411"><ele>22.8</ele><time>2022-06-26T07:46:58.000Z</time></trkpt><trkpt lon="5.68665" lat="50.894189"><ele>22.8</ele><time>2022-06-26T07:46:59.000Z</time></trkpt><trkpt lon="5.686728" lat="50.894249"><ele>22.8</ele><time>2022-06-26T07:47:00.000Z</time></trkpt><trkpt lon="5.686809" lat="50.894316"><ele>22.8</ele><time>2022-06-26T07:47:01.000Z</time></trkpt><trkpt lon="5.686903" lat="50.894399"><ele>22.8</ele><time>2022-06-26T07:47:02.000Z</time></trkpt><trkpt lon="5.686969" lat="50.894455"><ele>22.8</ele><time>2022-06-26T07:47:03.000Z</time></trkpt><trkpt lon="5.687055" lat="50.894528"><ele>22.8</ele><time>2022-06-26T07:47:04.000Z</time></trkpt><trkpt lon="5.687138" lat="50.8946"><ele>22.8</ele><time>2022-06-26T07:47:05.000Z</time></trkpt><trkpt lon="5.68725" lat="50.894693"><ele>22.6</ele><time>2022-06-26T07:47:06.000Z</time></trkpt><trkpt lon="5.687324" lat="50.894743"><ele>22.6</ele><time>2022-06-26T07:47:07.000Z</time></trkpt><trkpt lon="5.68743" lat="50.894818"><ele>22.6</ele><time>2022-06-26T07:47:08.000Z</time></trkpt><trkpt lon="5.687555" lat="50.894908"><ele>22.6</ele><time>2022-06-26T07:47:09.000Z</time></trkpt><trkpt lon="5.687676" lat="50.894994"><ele>22.8</ele><time>2022-06-26T07:47:10.000Z</time></trkpt><trkpt lon="5.687805" lat="50.895072"><ele>22.8</ele><time>2022-06-26T07:47:11.000Z</time></trkpt><trkpt lon="5.687902" lat="50.895137"><ele>22.8</ele><time>2022-06-26T07:47:12.000Z</time></trkpt><trkpt lon="5.688013" lat="50.895223"><ele>22.8</ele><time>2022-06-26T07:47:13.000Z</time></trkpt><trkpt lon="5.688075" lat="50.895273"><ele>23</ele><time>2022-06-26T07:47:14.000Z</time></trkpt><trkpt lon="5.68818" lat="50.895357"><ele>23</ele><time>2022-06-26T07:47:15.000Z</time></trkpt><trkpt lon="5.688239" lat="50.89541"><ele>23.2</ele><time>2022-06-26T07:47:16.000Z</time></trkpt><trkpt lon="5.688335" lat="50.895489"><ele>23.2</ele><time>2022-06-26T07:47:17.000Z</time></trkpt><trkpt lon="5.688395" lat="50.895536"><ele>23.2</ele><time>2022-06-26T07:47:18.000Z</time></trkpt><trkpt lon="5.688489" lat="50.895619"><ele>23.2</ele><time>2022-06-26T07:47:19.000Z</time></trkpt><trkpt lon="5.68855" lat="50.895671"><ele>23.2</ele><time>2022-06-26T07:47:20.000Z</time></trkpt><trkpt lon="5.688651" lat="50.895753"><ele>23.2</ele><time>2022-06-26T07:47:21.000Z</time></trkpt><trkpt lon="5.688719" lat="50.895802"><ele>23.2</ele><time>2022-06-26T07:47:22.000Z</time></trkpt><trkpt lon="5.688818" lat="50.895879"><ele>23.2</ele><time>2022-06-26T07:47:23.000Z</time></trkpt><trkpt lon="5.688873" lat="50.895925"><ele>23.2</ele><time>2022-06-26T07:47:24.000Z</time></trkpt><trkpt lon="5.688983" lat="50.896013"><ele>23.2</ele><time>2022-06-26T07:47:25.000Z</time></trkpt><trkpt lon="5.689054" lat="50.89607"><ele>23</ele><time>2022-06-26T07:47:26.000Z</time></trkpt><trkpt lon="5.689143" lat="50.896142"><ele>23</ele><time>2022-06-26T07:47:27.000Z</time></trkpt><trkpt lon="5.68921" lat="50.896189"><ele>23</ele><time>2022-06-26T07:47:28.000Z</time></trkpt><trkpt lon="5.689325" lat="50.896272"><ele>22.8</ele><time>2022-06-26T07:47:29.000Z</time></trkpt><trkpt lon="5.689388" lat="50.896325"><ele>22.8</ele><time>2022-06-26T07:47:30.000Z</time></trkpt><trkpt lon="5.689484" lat="50.896405"><ele>22.8</ele><time>2022-06-26T07:47:31.000Z</time></trkpt><trkpt lon="5.689539" lat="50.896458"><ele>22.8</ele><time>2022-06-26T07:47:32.000Z</time></trkpt><trkpt lon="5.689619" lat="50.896535"><ele>22.8</ele><time>2022-06-26T07:47:33.000Z</time></trkpt><trkpt lon="5.689669" lat="50.896581"><ele>22.8</ele><time>2022-06-26T07:47:34.000Z</time></trkpt><trkpt lon="5.689748" lat="50.896653"><ele>22.8</ele><time>2022-06-26T07:47:35.000Z</time></trkpt><trkpt lon="5.689796" lat="50.896704"><ele>22.8</ele><time>2022-06-26T07:47:36.000Z</time></trkpt><trkpt lon="5.689859" lat="50.896767"><ele>22.8</ele><time>2022-06-26T07:47:37.000Z</time></trkpt><trkpt lon="5.689902" lat="50.896813"><ele>22.8</ele><time>2022-06-26T07:47:38.000Z</time></trkpt><trkpt lon="5.689946" lat="50.896867"><ele>22.8</ele><time>2022-06-26T07:47:39.000Z</time></trkpt><trkpt lon="5.689985" lat="50.896918"><ele>22.8</ele><time>2022-06-26T07:47:40.000Z</time></trkpt><trkpt lon="5.690044" lat="50.896981"><ele>22.8</ele><time>2022-06-26T07:47:41.000Z</time></trkpt><trkpt lon="5.690078" lat="50.897025"><ele>22.8</ele><time>2022-06-26T07:47:42.000Z</time></trkpt><trkpt lon="5.690144" lat="50.897096"><ele>22.8</ele><time>2022-06-26T07:47:43.000Z</time></trkpt><trkpt lon="5.690184" lat="50.897142"><ele>22.8</ele><time>2022-06-26T07:47:44.000Z</time></trkpt><trkpt lon="5.690251" lat="50.89721"><ele>23</ele><time>2022-06-26T07:47:45.000Z</time></trkpt><trkpt lon="5.690282" lat="50.897255"><ele>23</ele><time>2022-06-26T07:47:46.000Z</time></trkpt><trkpt lon="5.690332" lat="50.897325"><ele>23</ele><time>2022-06-26T07:47:47.000Z</time></trkpt><trkpt lon="5.690372" lat="50.897376"><ele>23.2</ele><time>2022-06-26T07:47:48.000Z</time></trkpt><trkpt lon="5.690436" lat="50.89745"><ele>23.2</ele><time>2022-06-26T07:47:49.000Z</time></trkpt><trkpt lon="5.690481" lat="50.89751"><ele>23.4</ele><time>2022-06-26T07:47:50.000Z</time></trkpt><trkpt lon="5.690534" lat="50.897576"><ele>23.4</ele><time>2022-06-26T07:47:51.000Z</time></trkpt><trkpt lon="5.690562" lat="50.897621"><ele>23.4</ele><time>2022-06-26T07:47:52.000Z</time></trkpt><trkpt lon="5.69061" lat="50.897706"><ele>23.4</ele><time>2022-06-26T07:47:53.000Z</time></trkpt><trkpt lon="5.690636" lat="50.897748"><ele>23.4</ele><time>2022-06-26T07:47:54.000Z</time></trkpt><trkpt lon="5.690672" lat="50.897828"><ele>23.6</ele><time>2022-06-26T07:47:55.000Z</time></trkpt><trkpt lon="5.690686" lat="50.897866"><ele>23.6</ele><time>2022-06-26T07:47:56.000Z</time></trkpt><trkpt lon="5.69071" lat="50.897935"><ele>23.8</ele><time>2022-06-26T07:47:57.000Z</time></trkpt><trkpt lon="5.690725" lat="50.897987"><ele>23.8</ele><time>2022-06-26T07:47:58.000Z</time></trkpt><trkpt lon="5.690747" lat="50.898061"><ele>24</ele><time>2022-06-26T07:47:59.000Z</time></trkpt><trkpt lon="5.690764" lat="50.898112"><ele>24.2</ele><time>2022-06-26T07:48:00.000Z</time></trkpt><trkpt lon="5.690797" lat="50.898198"><ele>24.2</ele><time>2022-06-26T07:48:01.000Z</time></trkpt><trkpt lon="5.690818" lat="50.898253"><ele>24.2</ele><time>2022-06-26T07:48:02.000Z</time></trkpt><trkpt lon="5.690847" lat="50.898332"><ele>24.2</ele><time>2022-06-26T07:48:03.000Z</time></trkpt><trkpt lon="5.690863" lat="50.898376"><ele>24.4</ele><time>2022-06-26T07:48:04.000Z</time></trkpt><trkpt lon="5.690889" lat="50.898457"><ele>24.4</ele><time>2022-06-26T07:48:05.000Z</time></trkpt><trkpt lon="5.690901" lat="50.898503"><ele>24.4</ele><time>2022-06-26T07:48:06.000Z</time></trkpt><trkpt lon="5.690919" lat="50.898607"><ele>24.2</ele><time>2022-06-26T07:48:07.000Z</time></trkpt><trkpt lon="5.69093" lat="50.898665"><ele>24.2</ele><time>2022-06-26T07:48:08.000Z</time></trkpt><trkpt lon="5.690944" lat="50.898774"><ele>24</ele><time>2022-06-26T07:48:09.000Z</time></trkpt><trkpt lon="5.690954" lat="50.898826"><ele>24</ele><time>2022-06-26T07:48:10.000Z</time></trkpt><trkpt lon="5.690975" lat="50.898904"><ele>24</ele><time>2022-06-26T07:48:11.000Z</time></trkpt><trkpt lon="5.690986" lat="50.89894"><ele>23.8</ele><time>2022-06-26T07:48:12.000Z</time></trkpt><trkpt lon="5.691003" lat="50.899037"><ele>23.8</ele><time>2022-06-26T07:48:13.000Z</time></trkpt><trkpt lon="5.691008" lat="50.899087"><ele>23.8</ele><time>2022-06-26T07:48:14.000Z</time></trkpt><trkpt lon="5.69102" lat="50.899216"><ele>23.8</ele><time>2022-06-26T07:48:15.000Z</time></trkpt><trkpt lon="5.691031" lat="50.899275"><ele>23.8</ele><time>2022-06-26T07:48:16.000Z</time></trkpt><trkpt lon="5.691042" lat="50.89934"><ele>23.8</ele><time>2022-06-26T07:48:17.000Z</time></trkpt><trkpt lon="5.691065" lat="50.899461"><ele>23.8</ele><time>2022-06-26T07:48:18.000Z</time></trkpt><trkpt lon="5.691074" lat="50.899504"><ele>23.8</ele><time>2022-06-26T07:48:19.000Z</time></trkpt><trkpt lon="5.691104" lat="50.899618"><ele>24</ele><time>2022-06-26T07:48:20.000Z</time></trkpt><trkpt lon="5.691114" lat="50.899663"><ele>24</ele><time>2022-06-26T07:48:21.000Z</time></trkpt><trkpt lon="5.691128" lat="50.899778"><ele>24.2</ele><time>2022-06-26T07:48:22.000Z</time></trkpt><trkpt lon="5.691134" lat="50.899819"><ele>24.2</ele><time>2022-06-26T07:48:23.000Z</time></trkpt><trkpt lon="5.691148" lat="50.899915"><ele>24.2</ele><time>2022-06-26T07:48:24.000Z</time></trkpt><trkpt lon="5.69115" lat="50.899952"><ele>24</ele><time>2022-06-26T07:48:25.000Z</time></trkpt><trkpt lon="5.691154" lat="50.900041"><ele>24</ele><time>2022-06-26T07:48:26.000Z</time></trkpt><trkpt lon="5.69116" lat="50.900079"><ele>24</ele><time>2022-06-26T07:48:27.000Z</time></trkpt><trkpt lon="5.69116" lat="50.900182"><ele>24.2</ele><time>2022-06-26T07:48:28.000Z</time></trkpt><trkpt lon="5.69117" lat="50.900231"><ele>24.2</ele><time>2022-06-26T07:48:29.000Z</time></trkpt><trkpt lon="5.691193" lat="50.900346"><ele>24.2</ele><time>2022-06-26T07:48:30.000Z</time></trkpt><trkpt lon="5.691199" lat="50.900394"><ele>24.2</ele><time>2022-06-26T07:48:31.000Z</time></trkpt><trkpt lon="5.69121" lat="50.900491"><ele>24</ele><time>2022-06-26T07:48:32.000Z</time></trkpt><trkpt lon="5.691211" lat="50.900546"><ele>24</ele><time>2022-06-26T07:48:33.000Z</time></trkpt><trkpt lon="5.691213" lat="50.900651"><ele>24</ele><time>2022-06-26T07:48:34.000Z</time></trkpt><trkpt lon="5.691213" lat="50.900701"><ele>24</ele><time>2022-06-26T07:48:35.000Z</time></trkpt><trkpt lon="5.69121" lat="50.900807"><ele>24</ele><time>2022-06-26T07:48:36.000Z</time></trkpt><trkpt lon="5.691215" lat="50.900858"><ele>24.2</ele><time>2022-06-26T07:48:37.000Z</time></trkpt><trkpt lon="5.691229" lat="50.900987"><ele>24.2</ele><time>2022-06-26T07:48:38.000Z</time></trkpt><trkpt lon="5.691233" lat="50.901047"><ele>24</ele><time>2022-06-26T07:48:39.000Z</time></trkpt><trkpt lon="5.691237" lat="50.901117"><ele>24</ele><time>2022-06-26T07:48:40.000Z</time></trkpt><trkpt lon="5.691248" lat="50.901258"><ele>23.8</ele><time>2022-06-26T07:48:41.000Z</time></trkpt><trkpt lon="5.691251" lat="50.901303"><ele>23.8</ele><time>2022-06-26T07:48:42.000Z</time></trkpt><trkpt lon="5.691242" lat="50.901445"><ele>23.6</ele><time>2022-06-26T07:48:43.000Z</time></trkpt><trkpt lon="5.691235" lat="50.901511"><ele>23.6</ele><time>2022-06-26T07:48:44.000Z</time></trkpt><trkpt lon="5.69123" lat="50.901588"><ele>23.8</ele><time>2022-06-26T07:48:45.000Z</time></trkpt><trkpt lon="5.691224" lat="50.901678"><ele>23.8</ele><time>2022-06-26T07:48:46.000Z</time></trkpt><trkpt lon="5.691219" lat="50.901769"><ele>23.8</ele><time>2022-06-26T07:48:47.000Z</time></trkpt><trkpt lon="5.691227" lat="50.901918"><ele>23.8</ele><time>2022-06-26T07:48:48.000Z</time></trkpt><trkpt lon="5.691227" lat="50.901968"><ele>23.8</ele><time>2022-06-26T07:48:49.000Z</time></trkpt><trkpt lon="5.69123" lat="50.902082"><ele>23.8</ele><time>2022-06-26T07:48:50.000Z</time></trkpt><trkpt lon="5.691229" lat="50.902135"><ele>23.8</ele><time>2022-06-26T07:48:51.000Z</time></trkpt><trkpt lon="5.691226" lat="50.902238"><ele>23.8</ele><time>2022-06-26T07:48:52.000Z</time></trkpt><trkpt lon="5.691224" lat="50.90229"><ele>23.8</ele><time>2022-06-26T07:48:53.000Z</time></trkpt><trkpt lon="5.691227" lat="50.902391"><ele>23.8</ele><time>2022-06-26T07:48:54.000Z</time></trkpt><trkpt lon="5.69123" lat="50.902443"><ele>23.6</ele><time>2022-06-26T07:48:55.000Z</time></trkpt><trkpt lon="5.691232" lat="50.902539"><ele>23.4</ele><time>2022-06-26T07:48:56.000Z</time></trkpt><trkpt lon="5.691237" lat="50.902583"><ele>23.4</ele><time>2022-06-26T07:48:57.000Z</time></trkpt><trkpt lon="5.691245" lat="50.902685"><ele>23.4</ele><time>2022-06-26T07:48:58.000Z</time></trkpt><trkpt lon="5.691246" lat="50.902735"><ele>23.4</ele><time>2022-06-26T07:48:59.000Z</time></trkpt><trkpt lon="5.691252" lat="50.902837"><ele>23.2</ele><time>2022-06-26T07:49:00.000Z</time></trkpt><trkpt lon="5.691257" lat="50.902878"><ele>23.2</ele><time>2022-06-26T07:49:01.000Z</time></trkpt><trkpt lon="5.691272" lat="50.902989"><ele>23.2</ele><time>2022-06-26T07:49:02.000Z</time></trkpt><trkpt lon="5.691276" lat="50.903038"><ele>23.4</ele><time>2022-06-26T07:49:03.000Z</time></trkpt><trkpt lon="5.691283" lat="50.903142"><ele>23.6</ele><time>2022-06-26T07:49:04.000Z</time></trkpt><trkpt lon="5.691285" lat="50.903187"><ele>23.6</ele><time>2022-06-26T07:49:05.000Z</time></trkpt><trkpt lon="5.691293" lat="50.903306"><ele>23.8</ele><time>2022-06-26T07:49:06.000Z</time></trkpt><trkpt lon="5.691299" lat="50.903355"><ele>23.6</ele><time>2022-06-26T07:49:07.000Z</time></trkpt><trkpt lon="5.6913" lat="50.903474"><ele>23.4</ele><time>2022-06-26T07:49:08.000Z</time></trkpt><trkpt lon="5.6913" lat="50.903523"><ele>23.4</ele><time>2022-06-26T07:49:09.000Z</time></trkpt><trkpt lon="5.691305" lat="50.903634"><ele>23.2</ele><time>2022-06-26T07:49:10.000Z</time></trkpt><trkpt lon="5.691306" lat="50.903685"><ele>23</ele><time>2022-06-26T07:49:11.000Z</time></trkpt><trkpt lon="5.691312" lat="50.903786"><ele>23</ele><time>2022-06-26T07:49:12.000Z</time></trkpt><trkpt lon="5.691319" lat="50.903829"><ele>22.8</ele><time>2022-06-26T07:49:13.000Z</time></trkpt><trkpt lon="5.69132" lat="50.903935"><ele>22.8</ele><time>2022-06-26T07:49:14.000Z</time></trkpt><trkpt lon="5.69132" lat="50.903988"><ele>22.8</ele><time>2022-06-26T07:49:15.000Z</time></trkpt><trkpt lon="5.691323" lat="50.904084"><ele>22.6</ele><time>2022-06-26T07:49:16.000Z</time></trkpt><trkpt lon="5.691328" lat="50.904119"><ele>22.6</ele><time>2022-06-26T07:49:17.000Z</time></trkpt><trkpt lon="5.691335" lat="50.904222"><ele>22.8</ele><time>2022-06-26T07:49:18.000Z</time></trkpt><trkpt lon="5.691336" lat="50.904257"><ele>22.8</ele><time>2022-06-26T07:49:19.000Z</time></trkpt><trkpt lon="5.691328" lat="50.904355"><ele>23</ele><time>2022-06-26T07:49:20.000Z</time></trkpt><trkpt lon="5.691322" lat="50.904405"><ele>23</ele><time>2022-06-26T07:49:21.000Z</time></trkpt><trkpt lon="5.691312" lat="50.904526"><ele>23</ele><time>2022-06-26T07:49:22.000Z</time></trkpt><trkpt lon="5.69131" lat="50.904576"><ele>23</ele><time>2022-06-26T07:49:23.000Z</time></trkpt><trkpt lon="5.691312" lat="50.904691"><ele>23.2</ele><time>2022-06-26T07:49:24.000Z</time></trkpt><trkpt lon="5.691314" lat="50.904734"><ele>23.2</ele><time>2022-06-26T07:49:25.000Z</time></trkpt><trkpt lon="5.691313" lat="50.904851"><ele>23.2</ele><time>2022-06-26T07:49:26.000Z</time></trkpt><trkpt lon="5.691314" lat="50.904899"><ele>23.4</ele><time>2022-06-26T07:49:27.000Z</time></trkpt><trkpt lon="5.69132" lat="50.905004"><ele>23.4</ele><time>2022-06-26T07:49:28.000Z</time></trkpt><trkpt lon="5.691324" lat="50.905054"><ele>23.4</ele><time>2022-06-26T07:49:29.000Z</time></trkpt><trkpt lon="5.691329" lat="50.905168"><ele>23.6</ele><time>2022-06-26T07:49:30.000Z</time></trkpt><trkpt lon="5.691329" lat="50.90522"><ele>23.6</ele><time>2022-06-26T07:49:31.000Z</time></trkpt><trkpt lon="5.691337" lat="50.905332"><ele>23.6</ele><time>2022-06-26T07:49:32.000Z</time></trkpt><trkpt lon="5.691339" lat="50.90538"><ele>23.6</ele><time>2022-06-26T07:49:33.000Z</time></trkpt><trkpt lon="5.691345" lat="50.905496"><ele>23.6</ele><time>2022-06-26T07:49:34.000Z</time></trkpt><trkpt lon="5.691348" lat="50.905535"><ele>23.6</ele><time>2022-06-26T07:49:35.000Z</time></trkpt><trkpt lon="5.691357" lat="50.905641"><ele>23.8</ele><time>2022-06-26T07:49:36.000Z</time></trkpt><trkpt lon="5.69136" lat="50.905683"><ele>23.8</ele><time>2022-06-26T07:49:37.000Z</time></trkpt><trkpt lon="5.691368" lat="50.90579"><ele>23.8</ele><time>2022-06-26T07:49:38.000Z</time></trkpt><trkpt lon="5.691367" lat="50.905846"><ele>23.8</ele><time>2022-06-26T07:49:39.000Z</time></trkpt><trkpt lon="5.691374" lat="50.90595"><ele>24</ele><time>2022-06-26T07:49:40.000Z</time></trkpt><trkpt lon="5.691379" lat="50.90599"><ele>24</ele><time>2022-06-26T07:49:41.000Z</time></trkpt><trkpt lon="5.691397" lat="50.906106"><ele>24</ele><time>2022-06-26T07:49:42.000Z</time></trkpt><trkpt lon="5.691411" lat="50.906165"><ele>24.2</ele><time>2022-06-26T07:49:43.000Z</time></trkpt><trkpt lon="5.691424" lat="50.906227"><ele>24.2</ele><time>2022-06-26T07:49:44.000Z</time></trkpt><trkpt lon="5.691445" lat="50.906355"><ele>24.2</ele><time>2022-06-26T07:49:45.000Z</time></trkpt><trkpt lon="5.69145" lat="50.906409"><ele>24.2</ele><time>2022-06-26T07:49:46.000Z</time></trkpt><trkpt lon="5.69147" lat="50.906533"><ele>23.8</ele><time>2022-06-26T07:49:47.000Z</time></trkpt><trkpt lon="5.691476" lat="50.906584"><ele>23.6</ele><time>2022-06-26T07:49:48.000Z</time></trkpt><trkpt lon="5.691483" lat="50.906646"><ele>23.6</ele><time>2022-06-26T07:49:49.000Z</time></trkpt><trkpt lon="5.6915" lat="50.906792"><ele>23.6</ele><time>2022-06-26T07:49:50.000Z</time></trkpt><trkpt lon="5.691504" lat="50.90684"><ele>23.4</ele><time>2022-06-26T07:49:51.000Z</time></trkpt><trkpt lon="5.691512" lat="50.906956"><ele>23.4</ele><time>2022-06-26T07:49:52.000Z</time></trkpt><trkpt lon="5.691522" lat="50.907002"><ele>23.4</ele><time>2022-06-26T07:49:53.000Z</time></trkpt><trkpt lon="5.691543" lat="50.907117"><ele>23.4</ele><time>2022-06-26T07:49:54.000Z</time></trkpt><trkpt lon="5.691553" lat="50.907159"><ele>23.4</ele><time>2022-06-26T07:49:55.000Z</time></trkpt><trkpt lon="5.691565" lat="50.907213"><ele>23.4</ele><time>2022-06-26T07:49:56.000Z</time></trkpt><trkpt lon="5.691596" lat="50.907329"><ele>23.4</ele><time>2022-06-26T07:49:57.000Z</time></trkpt><trkpt lon="5.691627" lat="50.907446"><ele>23.4</ele><time>2022-06-26T07:49:58.000Z</time></trkpt><trkpt lon="5.691656" lat="50.907526"><ele>23.4</ele><time>2022-06-26T07:49:59.000Z</time></trkpt><trkpt lon="5.691687" lat="50.907598"><ele>23.4</ele><time>2022-06-26T07:50:00.000Z</time></trkpt><trkpt lon="5.691723" lat="50.907679"><ele>23.4</ele><time>2022-06-26T07:50:01.000Z</time></trkpt><trkpt lon="5.691764" lat="50.907758"><ele>23.4</ele><time>2022-06-26T07:50:02.000Z</time></trkpt><trkpt lon="5.691805" lat="50.907827"><ele>23.4</ele><time>2022-06-26T07:50:03.000Z</time></trkpt><trkpt lon="5.69185" lat="50.907904"><ele>23.4</ele><time>2022-06-26T07:50:04.000Z</time></trkpt><trkpt lon="5.691898" lat="50.907972"><ele>23.6</ele><time>2022-06-26T07:50:05.000Z</time></trkpt><trkpt lon="5.691941" lat="50.908038"><ele>23.6</ele><time>2022-06-26T07:50:06.000Z</time></trkpt><trkpt lon="5.691986" lat="50.908104"><ele>23.4</ele><time>2022-06-26T07:50:07.000Z</time></trkpt><trkpt lon="5.692034" lat="50.908174"><ele>23.4</ele><time>2022-06-26T07:50:08.000Z</time></trkpt><trkpt lon="5.692089" lat="50.908238"><ele>23.2</ele><time>2022-06-26T07:50:09.000Z</time></trkpt><trkpt lon="5.692151" lat="50.908302"><ele>23</ele><time>2022-06-26T07:50:10.000Z</time></trkpt><trkpt lon="5.692227" lat="50.908368"><ele>22.8</ele><time>2022-06-26T07:50:11.000Z</time></trkpt><trkpt lon="5.692302" lat="50.90844"><ele>22.6</ele><time>2022-06-26T07:50:12.000Z</time></trkpt><trkpt lon="5.692368" lat="50.908512"><ele>22.2</ele><time>2022-06-26T07:50:13.000Z</time></trkpt><trkpt lon="5.692439" lat="50.908578"><ele>22</ele><time>2022-06-26T07:50:14.000Z</time></trkpt><trkpt lon="5.692504" lat="50.908641"><ele>21.6</ele><time>2022-06-26T07:50:15.000Z</time></trkpt><trkpt lon="5.692562" lat="50.908707"><ele>21.6</ele><time>2022-06-26T07:50:16.000Z</time></trkpt><trkpt lon="5.692609" lat="50.908763"><ele>21.6</ele><time>2022-06-26T07:50:17.000Z</time></trkpt><trkpt lon="5.692659" lat="50.908832"><ele>21.4</ele><time>2022-06-26T07:50:18.000Z</time></trkpt><trkpt lon="5.692716" lat="50.908898"><ele>21.6</ele><time>2022-06-26T07:50:19.000Z</time></trkpt><trkpt lon="5.69276" lat="50.908959"><ele>21.6</ele><time>2022-06-26T07:50:20.000Z</time></trkpt><trkpt lon="5.692812" lat="50.90902"><ele>21.8</ele><time>2022-06-26T07:50:21.000Z</time></trkpt><trkpt lon="5.692865" lat="50.909077"><ele>22</ele><time>2022-06-26T07:50:22.000Z</time></trkpt><trkpt lon="5.692921" lat="50.909131"><ele>22</ele><time>2022-06-26T07:50:23.000Z</time></trkpt><trkpt lon="5.692974" lat="50.909181"><ele>22.2</ele><time>2022-06-26T07:50:24.000Z</time></trkpt><trkpt lon="5.693026" lat="50.909223"><ele>22.2</ele><time>2022-06-26T07:50:25.000Z</time></trkpt><trkpt lon="5.693079" lat="50.909264"><ele>22.4</ele><time>2022-06-26T07:50:26.000Z</time></trkpt><trkpt lon="5.693136" lat="50.909307"><ele>22.4</ele><time>2022-06-26T07:50:27.000Z</time></trkpt><trkpt lon="5.693197" lat="50.909349"><ele>22.6</ele><time>2022-06-26T07:50:28.000Z</time></trkpt><trkpt lon="5.693256" lat="50.909383"><ele>22.8</ele><time>2022-06-26T07:50:29.000Z</time></trkpt><trkpt lon="5.693317" lat="50.909421"><ele>22.8</ele><time>2022-06-26T07:50:30.000Z</time></trkpt><trkpt lon="5.69339" lat="50.909451"><ele>23</ele><time>2022-06-26T07:50:31.000Z</time></trkpt><trkpt lon="5.693462" lat="50.909485"><ele>23.2</ele><time>2022-06-26T07:50:32.000Z</time></trkpt><trkpt lon="5.69354" lat="50.909509"><ele>23.2</ele><time>2022-06-26T07:50:33.000Z</time></trkpt><trkpt lon="5.693617" lat="50.909535"><ele>23.4</ele><time>2022-06-26T07:50:34.000Z</time></trkpt><trkpt lon="5.693695" lat="50.909558"><ele>23.4</ele><time>2022-06-26T07:50:35.000Z</time></trkpt><trkpt lon="5.693767" lat="50.909592"><ele>23.4</ele><time>2022-06-26T07:50:36.000Z</time></trkpt><trkpt lon="5.693824" lat="50.909635"><ele>23.4</ele><time>2022-06-26T07:50:37.000Z</time></trkpt><trkpt lon="5.693865" lat="50.909684"><ele>23.4</ele><time>2022-06-26T07:50:38.000Z</time></trkpt><trkpt lon="5.693906" lat="50.909734"><ele>23.4</ele><time>2022-06-26T07:50:39.000Z</time></trkpt><trkpt lon="5.693936" lat="50.909788"><ele>23.4</ele><time>2022-06-26T07:50:40.000Z</time></trkpt><trkpt lon="5.693962" lat="50.909833"><ele>23.4</ele><time>2022-06-26T07:50:41.000Z</time></trkpt><trkpt lon="5.693985" lat="50.909886"><ele>23.4</ele><time>2022-06-26T07:50:42.000Z</time></trkpt><trkpt lon="5.69401" lat="50.909947"><ele>23.2</ele><time>2022-06-26T07:50:43.000Z</time></trkpt><trkpt lon="5.694034" lat="50.91001"><ele>23.2</ele><time>2022-06-26T07:50:44.000Z</time></trkpt><trkpt lon="5.694064" lat="50.91007"><ele>23.2</ele><time>2022-06-26T07:50:45.000Z</time></trkpt><trkpt lon="5.694086" lat="50.910131"><ele>23.2</ele><time>2022-06-26T07:50:46.000Z</time></trkpt><trkpt lon="5.694109" lat="50.910192"><ele>23.2</ele><time>2022-06-26T07:50:47.000Z</time></trkpt><trkpt lon="5.694136" lat="50.910261"><ele>23.2</ele><time>2022-06-26T07:50:48.000Z</time></trkpt><trkpt lon="5.694164" lat="50.910326"><ele>23.2</ele><time>2022-06-26T07:50:49.000Z</time></trkpt><trkpt lon="5.694201" lat="50.910392"><ele>23.2</ele><time>2022-06-26T07:50:50.000Z</time></trkpt><trkpt lon="5.694249" lat="50.910455"><ele>23.2</ele><time>2022-06-26T07:50:51.000Z</time></trkpt><trkpt lon="5.6943" lat="50.91052"><ele>23.2</ele><time>2022-06-26T07:50:52.000Z</time></trkpt><trkpt lon="5.694354" lat="50.910577"><ele>23</ele><time>2022-06-26T07:50:53.000Z</time></trkpt><trkpt lon="5.694408" lat="50.910636"><ele>23.2</ele><time>2022-06-26T07:50:54.000Z</time></trkpt><trkpt lon="5.694462" lat="50.910698"><ele>23.2</ele><time>2022-06-26T07:50:55.000Z</time></trkpt><trkpt lon="5.694508" lat="50.910756"><ele>23.2</ele><time>2022-06-26T07:50:56.000Z</time></trkpt><trkpt lon="5.694558" lat="50.91081"><ele>23</ele><time>2022-06-26T07:50:57.000Z</time></trkpt><trkpt lon="5.694611" lat="50.910863"><ele>23</ele><time>2022-06-26T07:50:58.000Z</time></trkpt><trkpt lon="5.694666" lat="50.910924"><ele>23</ele><time>2022-06-26T07:50:59.000Z</time></trkpt><trkpt lon="5.694714" lat="50.910982"><ele>23</ele><time>2022-06-26T07:51:00.000Z</time></trkpt><trkpt lon="5.694761" lat="50.911043"><ele>23</ele><time>2022-06-26T07:51:01.000Z</time></trkpt><trkpt lon="5.694814" lat="50.9111"><ele>23</ele><time>2022-06-26T07:51:02.000Z</time></trkpt><trkpt lon="5.694863" lat="50.911161"><ele>23</ele><time>2022-06-26T07:51:03.000Z</time></trkpt><trkpt lon="5.694907" lat="50.911217"><ele>23</ele><time>2022-06-26T07:51:04.000Z</time></trkpt><trkpt lon="5.694966" lat="50.911283"><ele>23</ele><time>2022-06-26T07:51:05.000Z</time></trkpt><trkpt lon="5.695005" lat="50.911335"><ele>23.2</ele><time>2022-06-26T07:51:06.000Z</time></trkpt><trkpt lon="5.695058" lat="50.911393"><ele>23.2</ele><time>2022-06-26T07:51:07.000Z</time></trkpt><trkpt lon="5.69511" lat="50.911447"><ele>23.2</ele><time>2022-06-26T07:51:08.000Z</time></trkpt><trkpt lon="5.695158" lat="50.911508"><ele>23</ele><time>2022-06-26T07:51:09.000Z</time></trkpt><trkpt lon="5.695205" lat="50.91156"><ele>23</ele><time>2022-06-26T07:51:10.000Z</time></trkpt><trkpt lon="5.695248" lat="50.911611"><ele>23</ele><time>2022-06-26T07:51:11.000Z</time></trkpt><trkpt lon="5.695289" lat="50.911653"><ele>23</ele><time>2022-06-26T07:51:12.000Z</time></trkpt><trkpt lon="5.695345" lat="50.911714"><ele>23</ele><time>2022-06-26T07:51:13.000Z</time></trkpt><trkpt lon="5.695399" lat="50.91177"><ele>23</ele><time>2022-06-26T07:51:14.000Z</time></trkpt><trkpt lon="5.695466" lat="50.911832"><ele>23</ele><time>2022-06-26T07:51:15.000Z</time></trkpt><trkpt lon="5.695518" lat="50.911891"><ele>23</ele><time>2022-06-26T07:51:16.000Z</time></trkpt><trkpt lon="5.695601" lat="50.911954"><ele>23</ele><time>2022-06-26T07:51:17.000Z</time></trkpt><trkpt lon="5.695669" lat="50.912023"><ele>23</ele><time>2022-06-26T07:51:18.000Z</time></trkpt><trkpt lon="5.695734" lat="50.912091"><ele>23</ele><time>2022-06-26T07:51:19.000Z</time></trkpt><trkpt lon="5.695784" lat="50.912143"><ele>23</ele><time>2022-06-26T07:51:20.000Z</time></trkpt><trkpt lon="5.695847" lat="50.912218"><ele>23</ele><time>2022-06-26T07:51:21.000Z</time></trkpt><trkpt lon="5.695913" lat="50.912278"><ele>23</ele><time>2022-06-26T07:51:22.000Z</time></trkpt><trkpt lon="5.695971" lat="50.912339"><ele>23</ele><time>2022-06-26T07:51:23.000Z</time></trkpt><trkpt lon="5.69602" lat="50.912396"><ele>23.2</ele><time>2022-06-26T07:51:24.000Z</time></trkpt><trkpt lon="5.696104" lat="50.912465"><ele>23.2</ele><time>2022-06-26T07:51:25.000Z</time></trkpt><trkpt lon="5.696153" lat="50.912522"><ele>23</ele><time>2022-06-26T07:51:26.000Z</time></trkpt><trkpt lon="5.696201" lat="50.91258"><ele>23</ele><time>2022-06-26T07:51:27.000Z</time></trkpt><trkpt lon="5.696246" lat="50.912634"><ele>23</ele><time>2022-06-26T07:51:28.000Z</time></trkpt><trkpt lon="5.696303" lat="50.912698"><ele>23</ele><time>2022-06-26T07:51:29.000Z</time></trkpt><trkpt lon="5.696358" lat="50.912761"><ele>23</ele><time>2022-06-26T07:51:30.000Z</time></trkpt><trkpt lon="5.696449" lat="50.912843"><ele>23</ele><time>2022-06-26T07:51:31.000Z</time></trkpt><trkpt lon="5.696511" lat="50.912904"><ele>23</ele><time>2022-06-26T07:51:32.000Z</time></trkpt><trkpt lon="5.696588" lat="50.912961"><ele>23</ele><time>2022-06-26T07:51:33.000Z</time></trkpt><trkpt lon="5.696632" lat="50.913005"><ele>23</ele><time>2022-06-26T07:51:34.000Z</time></trkpt><trkpt lon="5.696699" lat="50.913075"><ele>23</ele><time>2022-06-26T07:51:35.000Z</time></trkpt><trkpt lon="5.696755" lat="50.913133"><ele>23</ele><time>2022-06-26T07:51:36.000Z</time></trkpt><trkpt lon="5.696841" lat="50.913216"><ele>23</ele><time>2022-06-26T07:51:37.000Z</time></trkpt><trkpt lon="5.696905" lat="50.913277"><ele>23.2</ele><time>2022-06-26T07:51:38.000Z</time></trkpt><trkpt lon="5.69698" lat="50.913354"><ele>23.2</ele><time>2022-06-26T07:51:39.000Z</time></trkpt><trkpt lon="5.69703" lat="50.91341"><ele>23</ele><time>2022-06-26T07:51:40.000Z</time></trkpt><trkpt lon="5.697095" lat="50.913472"><ele>23</ele><time>2022-06-26T07:51:41.000Z</time></trkpt><trkpt lon="5.697156" lat="50.913516"><ele>23</ele><time>2022-06-26T07:51:42.000Z</time></trkpt><trkpt lon="5.697269" lat="50.913597"><ele>23</ele><time>2022-06-26T07:51:43.000Z</time></trkpt><trkpt lon="5.697353" lat="50.913646"><ele>22.8</ele><time>2022-06-26T07:51:44.000Z</time></trkpt><trkpt lon="5.697521" lat="50.913708"><ele>22.4</ele><time>2022-06-26T07:51:45.000Z</time></trkpt><trkpt lon="5.697634" lat="50.913737"><ele>22.4</ele><time>2022-06-26T07:51:46.000Z</time></trkpt><trkpt lon="5.697763" lat="50.913774"><ele>22.2</ele><time>2022-06-26T07:51:47.000Z</time></trkpt><trkpt lon="5.697915" lat="50.913812"><ele>22</ele><time>2022-06-26T07:51:48.000Z</time></trkpt><trkpt lon="5.698063" lat="50.913853"><ele>22</ele><time>2022-06-26T07:51:49.000Z</time></trkpt><trkpt lon="5.698226" lat="50.913898"><ele>22</ele><time>2022-06-26T07:51:50.000Z</time></trkpt><trkpt lon="5.698376" lat="50.913936"><ele>22</ele><time>2022-06-26T07:51:51.000Z</time></trkpt><trkpt lon="5.698523" lat="50.913974"><ele>22</ele><time>2022-06-26T07:51:52.000Z</time></trkpt><trkpt lon="5.69866" lat="50.914006"><ele>21.8</ele><time>2022-06-26T07:51:53.000Z</time></trkpt><trkpt lon="5.698791" lat="50.914033"><ele>21.8</ele><time>2022-06-26T07:51:54.000Z</time></trkpt><trkpt lon="5.698963" lat="50.914063"><ele>21.8</ele><time>2022-06-26T07:51:55.000Z</time></trkpt><trkpt lon="5.69915" lat="50.914114"><ele>21.8</ele><time>2022-06-26T07:51:56.000Z</time></trkpt><trkpt lon="5.699338" lat="50.914165"><ele>21.8</ele><time>2022-06-26T07:51:57.000Z</time></trkpt><trkpt lon="5.699525" lat="50.914216"><ele>21.8</ele><time>2022-06-26T07:51:58.000Z</time></trkpt><trkpt lon="5.699664" lat="50.914249"><ele>21.8</ele><time>2022-06-26T07:51:59.000Z</time></trkpt><trkpt lon="5.699734" lat="50.914256"><ele>21.8</ele><time>2022-06-26T07:52:00.000Z</time></trkpt><trkpt lon="5.699907" lat="50.91428"><ele>22</ele><time>2022-06-26T07:52:01.000Z</time></trkpt><trkpt lon="5.699983" lat="50.914297"><ele>22</ele><time>2022-06-26T07:52:02.000Z</time></trkpt><trkpt lon="5.700101" lat="50.914326"><ele>22</ele><time>2022-06-26T07:52:03.000Z</time></trkpt><trkpt lon="5.700191" lat="50.914353"><ele>22</ele><time>2022-06-26T07:52:04.000Z</time></trkpt><trkpt lon="5.700328" lat="50.91438"><ele>22</ele><time>2022-06-26T07:52:05.000Z</time></trkpt><trkpt lon="5.700416" lat="50.914397"><ele>22.2</ele><time>2022-06-26T07:52:06.000Z</time></trkpt><trkpt lon="5.700552" lat="50.914429"><ele>22.2</ele><time>2022-06-26T07:52:07.000Z</time></trkpt><trkpt lon="5.700647" lat="50.914452"><ele>22.2</ele><time>2022-06-26T07:52:08.000Z</time></trkpt><trkpt lon="5.700785" lat="50.914487"><ele>22.4</ele><time>2022-06-26T07:52:09.000Z</time></trkpt><trkpt lon="5.700877" lat="50.914508"><ele>22.4</ele><time>2022-06-26T07:52:10.000Z</time></trkpt><trkpt lon="5.701013" lat="50.914544"><ele>22.4</ele><time>2022-06-26T07:52:11.000Z</time></trkpt><trkpt lon="5.701103" lat="50.914568"><ele>22.4</ele><time>2022-06-26T07:52:12.000Z</time></trkpt><trkpt lon="5.701238" lat="50.914605"><ele>22.4</ele><time>2022-06-26T07:52:13.000Z</time></trkpt><trkpt lon="5.701333" lat="50.914628"><ele>22.4</ele><time>2022-06-26T07:52:14.000Z</time></trkpt><trkpt lon="5.701462" lat="50.914662"><ele>22.4</ele><time>2022-06-26T07:52:15.000Z</time></trkpt><trkpt lon="5.701551" lat="50.914683"><ele>22.6</ele><time>2022-06-26T07:52:16.000Z</time></trkpt><trkpt lon="5.701682" lat="50.914716"><ele>22.4</ele><time>2022-06-26T07:52:17.000Z</time></trkpt><trkpt lon="5.701785" lat="50.91474"><ele>22.4</ele><time>2022-06-26T07:52:18.000Z</time></trkpt><trkpt lon="5.701907" lat="50.914769"><ele>22.4</ele><time>2022-06-26T07:52:19.000Z</time></trkpt><trkpt lon="5.701999" lat="50.914791"><ele>22.4</ele><time>2022-06-26T07:52:20.000Z</time></trkpt><trkpt lon="5.702133" lat="50.914826"><ele>22.4</ele><time>2022-06-26T07:52:21.000Z</time></trkpt><trkpt lon="5.702232" lat="50.914849"><ele>22.2</ele><time>2022-06-26T07:52:22.000Z</time></trkpt><trkpt lon="5.702359" lat="50.914882"><ele>22.2</ele><time>2022-06-26T07:52:23.000Z</time></trkpt><trkpt lon="5.70246" lat="50.914908"><ele>22.2</ele><time>2022-06-26T07:52:24.000Z</time></trkpt><trkpt lon="5.702596" lat="50.91494"><ele>22.2</ele><time>2022-06-26T07:52:25.000Z</time></trkpt><trkpt lon="5.702711" lat="50.91497"><ele>22.2</ele><time>2022-06-26T07:52:26.000Z</time></trkpt><trkpt lon="5.702824" lat="50.915013"><ele>22.2</ele><time>2022-06-26T07:52:27.000Z</time></trkpt><trkpt lon="5.702902" lat="50.915044"><ele>22.2</ele><time>2022-06-26T07:52:28.000Z</time></trkpt><trkpt lon="5.703027" lat="50.915109"><ele>22.2</ele><time>2022-06-26T07:52:29.000Z</time></trkpt><trkpt lon="5.703107" lat="50.915159"><ele>22</ele><time>2022-06-26T07:52:30.000Z</time></trkpt><trkpt lon="5.703203" lat="50.915227"><ele>21.8</ele><time>2022-06-26T07:52:31.000Z</time></trkpt><trkpt lon="5.703273" lat="50.91528"><ele>21.8</ele><time>2022-06-26T07:52:32.000Z</time></trkpt><trkpt lon="5.703367" lat="50.915358"><ele>22</ele><time>2022-06-26T07:52:33.000Z</time></trkpt><trkpt lon="5.70344" lat="50.915421"><ele>21.8</ele><time>2022-06-26T07:52:34.000Z</time></trkpt><trkpt lon="5.703518" lat="50.915487"><ele>22</ele><time>2022-06-26T07:52:35.000Z</time></trkpt><trkpt lon="5.703574" lat="50.915535"><ele>22</ele><time>2022-06-26T07:52:36.000Z</time></trkpt><trkpt lon="5.703665" lat="50.915617"><ele>22</ele><time>2022-06-26T07:52:37.000Z</time></trkpt><trkpt lon="5.703733" lat="50.915682"><ele>22</ele><time>2022-06-26T07:52:38.000Z</time></trkpt><trkpt lon="5.703807" lat="50.91575"><ele>22</ele><time>2022-06-26T07:52:39.000Z</time></trkpt><trkpt lon="5.70386" lat="50.915802"><ele>22</ele><time>2022-06-26T07:52:40.000Z</time></trkpt><trkpt lon="5.70395" lat="50.915884"><ele>22</ele><time>2022-06-26T07:52:41.000Z</time></trkpt><trkpt lon="5.704007" lat="50.915935"><ele>22</ele><time>2022-06-26T07:52:42.000Z</time></trkpt><trkpt lon="5.704093" lat="50.91601"><ele>22</ele><time>2022-06-26T07:52:43.000Z</time></trkpt><trkpt lon="5.704149" lat="50.91606"><ele>22</ele><time>2022-06-26T07:52:44.000Z</time></trkpt><trkpt lon="5.704236" lat="50.916136"><ele>22</ele><time>2022-06-26T07:52:45.000Z</time></trkpt><trkpt lon="5.704301" lat="50.916197"><ele>22.2</ele><time>2022-06-26T07:52:46.000Z</time></trkpt><trkpt lon="5.704371" lat="50.916265"><ele>22</ele><time>2022-06-26T07:52:47.000Z</time></trkpt><trkpt lon="5.704436" lat="50.91633"><ele>22.2</ele><time>2022-06-26T07:52:48.000Z</time></trkpt><trkpt lon="5.704502" lat="50.916394"><ele>22.2</ele><time>2022-06-26T07:52:49.000Z</time></trkpt><trkpt lon="5.704554" lat="50.916439"><ele>22.4</ele><time>2022-06-26T07:52:50.000Z</time></trkpt><trkpt lon="5.704635" lat="50.916513"><ele>22.4</ele><time>2022-06-26T07:52:51.000Z</time></trkpt><trkpt lon="5.704703" lat="50.91657"><ele>22.4</ele><time>2022-06-26T07:52:52.000Z</time></trkpt><trkpt lon="5.70477" lat="50.916635"><ele>22.4</ele><time>2022-06-26T07:52:53.000Z</time></trkpt><trkpt lon="5.704826" lat="50.916688"><ele>22.4</ele><time>2022-06-26T07:52:54.000Z</time></trkpt><trkpt lon="5.704906" lat="50.916761"><ele>22.4</ele><time>2022-06-26T07:52:55.000Z</time></trkpt><trkpt lon="5.704957" lat="50.916809"><ele>22.4</ele><time>2022-06-26T07:52:56.000Z</time></trkpt><trkpt lon="5.705042" lat="50.916887"><ele>22.6</ele><time>2022-06-26T07:52:57.000Z</time></trkpt><trkpt lon="5.705106" lat="50.916948"><ele>22.6</ele><time>2022-06-26T07:52:58.000Z</time></trkpt><trkpt lon="5.705178" lat="50.917012"><ele>22.6</ele><time>2022-06-26T07:52:59.000Z</time></trkpt><trkpt lon="5.70523" lat="50.917064"><ele>22.6</ele><time>2022-06-26T07:53:00.000Z</time></trkpt><trkpt lon="5.70531" lat="50.917138"><ele>22.6</ele><time>2022-06-26T07:53:01.000Z</time></trkpt><trkpt lon="5.705363" lat="50.917191"><ele>22.6</ele><time>2022-06-26T07:53:02.000Z</time></trkpt><trkpt lon="5.705442" lat="50.917269"><ele>22.6</ele><time>2022-06-26T07:53:03.000Z</time></trkpt><trkpt lon="5.705509" lat="50.917331"><ele>22.6</ele><time>2022-06-26T07:53:04.000Z</time></trkpt><trkpt lon="5.705577" lat="50.917394"><ele>22.6</ele><time>2022-06-26T07:53:05.000Z</time></trkpt><trkpt lon="5.705637" lat="50.917453"><ele>22.6</ele><time>2022-06-26T07:53:06.000Z</time></trkpt><trkpt lon="5.705712" lat="50.91752"><ele>22.8</ele><time>2022-06-26T07:53:07.000Z</time></trkpt><trkpt lon="5.705773" lat="50.91758"><ele>22.8</ele><time>2022-06-26T07:53:08.000Z</time></trkpt><trkpt lon="5.705845" lat="50.917646"><ele>22.8</ele><time>2022-06-26T07:53:09.000Z</time></trkpt><trkpt lon="5.705892" lat="50.917693"><ele>23</ele><time>2022-06-26T07:53:10.000Z</time></trkpt><trkpt lon="5.705978" lat="50.917772"><ele>23</ele><time>2022-06-26T07:53:11.000Z</time></trkpt><trkpt lon="5.706043" lat="50.91783"><ele>23</ele><time>2022-06-26T07:53:12.000Z</time></trkpt><trkpt lon="5.706113" lat="50.917898"><ele>23</ele><time>2022-06-26T07:53:13.000Z</time></trkpt><trkpt lon="5.706175" lat="50.917954"><ele>23</ele><time>2022-06-26T07:53:14.000Z</time></trkpt><trkpt lon="5.706246" lat="50.91802"><ele>23.2</ele><time>2022-06-26T07:53:15.000Z</time></trkpt><trkpt lon="5.706299" lat="50.918071"><ele>23.2</ele><time>2022-06-26T07:53:16.000Z</time></trkpt><trkpt lon="5.706378" lat="50.918145"><ele>23.2</ele><time>2022-06-26T07:53:17.000Z</time></trkpt><trkpt lon="5.706424" lat="50.918188"><ele>23.2</ele><time>2022-06-26T07:53:18.000Z</time></trkpt><trkpt lon="5.706508" lat="50.918271"><ele>23.2</ele><time>2022-06-26T07:53:19.000Z</time></trkpt><trkpt lon="5.706565" lat="50.918326"><ele>23.4</ele><time>2022-06-26T07:53:20.000Z</time></trkpt><trkpt lon="5.706637" lat="50.918394"><ele>23.4</ele><time>2022-06-26T07:53:21.000Z</time></trkpt><trkpt lon="5.706685" lat="50.918439"><ele>23.4</ele><time>2022-06-26T07:53:22.000Z</time></trkpt><trkpt lon="5.706767" lat="50.918515"><ele>23.4</ele><time>2022-06-26T07:53:23.000Z</time></trkpt><trkpt lon="5.70682" lat="50.918561"><ele>23.4</ele><time>2022-06-26T07:53:24.000Z</time></trkpt><trkpt lon="5.706896" lat="50.918633"><ele>23.4</ele><time>2022-06-26T07:53:25.000Z</time></trkpt><trkpt lon="5.706943" lat="50.918678"><ele>23.6</ele><time>2022-06-26T07:53:26.000Z</time></trkpt><trkpt lon="5.707026" lat="50.918756"><ele>23.6</ele><time>2022-06-26T07:53:27.000Z</time></trkpt><trkpt lon="5.707084" lat="50.918811"><ele>23.6</ele><time>2022-06-26T07:53:28.000Z</time></trkpt><trkpt lon="5.707152" lat="50.918878"><ele>23.6</ele><time>2022-06-26T07:53:29.000Z</time></trkpt><trkpt lon="5.707209" lat="50.918932"><ele>23.6</ele><time>2022-06-26T07:53:30.000Z</time></trkpt><trkpt lon="5.707283" lat="50.918996"><ele>23.6</ele><time>2022-06-26T07:53:31.000Z</time></trkpt><trkpt lon="5.707343" lat="50.919051"><ele>23.6</ele><time>2022-06-26T07:53:32.000Z</time></trkpt><trkpt lon="5.707417" lat="50.919119"><ele>23.8</ele><time>2022-06-26T07:53:33.000Z</time></trkpt><trkpt lon="5.707475" lat="50.919173"><ele>23.8</ele><time>2022-06-26T07:53:34.000Z</time></trkpt><trkpt lon="5.707544" lat="50.91924"><ele>23.8</ele><time>2022-06-26T07:53:35.000Z</time></trkpt><trkpt lon="5.707589" lat="50.919283"><ele>23.8</ele><time>2022-06-26T07:53:36.000Z</time></trkpt><trkpt lon="5.70767" lat="50.919366"><ele>23.8</ele><time>2022-06-26T07:53:37.000Z</time></trkpt><trkpt lon="5.70772" lat="50.919421"><ele>23.8</ele><time>2022-06-26T07:53:38.000Z</time></trkpt><trkpt lon="5.707781" lat="50.9195"><ele>23.8</ele><time>2022-06-26T07:53:39.000Z</time></trkpt><trkpt lon="5.707812" lat="50.91955"><ele>23.8</ele><time>2022-06-26T07:53:40.000Z</time></trkpt><trkpt lon="5.70785" lat="50.919641"><ele>23.6</ele><time>2022-06-26T07:53:41.000Z</time></trkpt><trkpt lon="5.707861" lat="50.919691"><ele>23.6</ele><time>2022-06-26T07:53:42.000Z</time></trkpt><trkpt lon="5.707868" lat="50.919786"><ele>23.4</ele><time>2022-06-26T07:53:43.000Z</time></trkpt><trkpt lon="5.707863" lat="50.919844"><ele>23.4</ele><time>2022-06-26T07:53:44.000Z</time></trkpt><trkpt lon="5.707846" lat="50.919931"><ele>23.2</ele><time>2022-06-26T07:53:45.000Z</time></trkpt><trkpt lon="5.707824" lat="50.919988"><ele>23</ele><time>2022-06-26T07:53:46.000Z</time></trkpt><trkpt lon="5.707781" lat="50.920076"><ele>23</ele><time>2022-06-26T07:53:47.000Z</time></trkpt><trkpt lon="5.707738" lat="50.920144"><ele>23</ele><time>2022-06-26T07:53:48.000Z</time></trkpt><trkpt lon="5.707689" lat="50.920221"><ele>23</ele><time>2022-06-26T07:53:49.000Z</time></trkpt><trkpt lon="5.707655" lat="50.920271"><ele>23</ele><time>2022-06-26T07:53:50.000Z</time></trkpt><trkpt lon="5.707589" lat="50.920362"><ele>23</ele><time>2022-06-26T07:53:51.000Z</time></trkpt><trkpt lon="5.707548" lat="50.92042"><ele>22.8</ele><time>2022-06-26T07:53:52.000Z</time></trkpt><trkpt lon="5.707487" lat="50.920503"><ele>22.6</ele><time>2022-06-26T07:53:53.000Z</time></trkpt><trkpt lon="5.707446" lat="50.920564"><ele>22.6</ele><time>2022-06-26T07:53:54.000Z</time></trkpt><trkpt lon="5.707388" lat="50.920648"><ele>22.2</ele><time>2022-06-26T07:53:55.000Z</time></trkpt><trkpt lon="5.707354" lat="50.920695"><ele>22.4</ele><time>2022-06-26T07:53:56.000Z</time></trkpt><trkpt lon="5.707291" lat="50.920781"><ele>22.4</ele><time>2022-06-26T07:53:57.000Z</time></trkpt><trkpt lon="5.707253" lat="50.920826"><ele>22.6</ele><time>2022-06-26T07:53:58.000Z</time></trkpt><trkpt lon="5.707196" lat="50.9209"><ele>22.6</ele><time>2022-06-26T07:53:59.000Z</time></trkpt><trkpt lon="5.707161" lat="50.920941"><ele>22.6</ele><time>2022-06-26T07:54:00.000Z</time></trkpt><trkpt lon="5.707109" lat="50.921002"><ele>22.8</ele><time>2022-06-26T07:54:01.000Z</time></trkpt><trkpt lon="5.707076" lat="50.921041"><ele>23</ele><time>2022-06-26T07:54:02.000Z</time></trkpt><trkpt lon="5.707021" lat="50.921098"><ele>23</ele><time>2022-06-26T07:54:03.000Z</time></trkpt><trkpt lon="5.706993" lat="50.921134"><ele>23.2</ele><time>2022-06-26T07:54:04.000Z</time></trkpt><trkpt lon="5.706958" lat="50.921197"><ele>23.4</ele><time>2022-06-26T07:54:05.000Z</time></trkpt><trkpt lon="5.706953" lat="50.921237"><ele>23.6</ele><time>2022-06-26T07:54:06.000Z</time></trkpt><trkpt lon="5.706971" lat="50.9213"><ele>23.6</ele><time>2022-06-26T07:54:07.000Z</time></trkpt><trkpt lon="5.707014" lat="50.921341"><ele>23.6</ele><time>2022-06-26T07:54:08.000Z</time></trkpt><trkpt lon="5.707094" lat="50.92138"><ele>23.6</ele><time>2022-06-26T07:54:09.000Z</time></trkpt><trkpt lon="5.707161" lat="50.921404"><ele>23.6</ele><time>2022-06-26T07:54:10.000Z</time></trkpt><trkpt lon="5.707273" lat="50.921437"><ele>23.4</ele><time>2022-06-26T07:54:11.000Z</time></trkpt><trkpt lon="5.70734" lat="50.921459"><ele>23.4</ele><time>2022-06-26T07:54:12.000Z</time></trkpt><trkpt lon="5.707458" lat="50.921506"><ele>23.2</ele><time>2022-06-26T07:54:13.000Z</time></trkpt><trkpt lon="5.707527" lat="50.921537"><ele>23</ele><time>2022-06-26T07:54:14.000Z</time></trkpt><trkpt lon="5.707639" lat="50.921598"><ele>22.8</ele><time>2022-06-26T07:54:15.000Z</time></trkpt><trkpt lon="5.707702" lat="50.921634"><ele>22.6</ele><time>2022-06-26T07:54:16.000Z</time></trkpt><trkpt lon="5.707806" lat="50.921699"><ele>22.4</ele><time>2022-06-26T07:54:17.000Z</time></trkpt><trkpt lon="5.707879" lat="50.921755"><ele>22.4</ele><time>2022-06-26T07:54:18.000Z</time></trkpt><trkpt lon="5.707965" lat="50.921823"><ele>22</ele><time>2022-06-26T07:54:19.000Z</time></trkpt><trkpt lon="5.708013" lat="50.921866"><ele>21.8</ele><time>2022-06-26T07:54:20.000Z</time></trkpt><trkpt lon="5.708108" lat="50.921961"><ele>21.4</ele><time>2022-06-26T07:54:21.000Z</time></trkpt><trkpt lon="5.708163" lat="50.922021"><ele>21.2</ele><time>2022-06-26T07:54:22.000Z</time></trkpt><trkpt lon="5.708231" lat="50.922109"><ele>21</ele><time>2022-06-26T07:54:23.000Z</time></trkpt><trkpt lon="5.708272" lat="50.922166"><ele>20.6</ele><time>2022-06-26T07:54:24.000Z</time></trkpt><trkpt lon="5.708341" lat="50.922265"><ele>20.2</ele><time>2022-06-26T07:54:25.000Z</time></trkpt><trkpt lon="5.708386" lat="50.922329"><ele>20</ele><time>2022-06-26T07:54:26.000Z</time></trkpt><trkpt lon="5.708452" lat="50.922425"><ele>19.8</ele><time>2022-06-26T07:54:27.000Z</time></trkpt><trkpt lon="5.708494" lat="50.922484"><ele>19.6</ele><time>2022-06-26T07:54:28.000Z</time></trkpt><trkpt lon="5.708568" lat="50.922582"><ele>19.4</ele><time>2022-06-26T07:54:29.000Z</time></trkpt><trkpt lon="5.70861" lat="50.922644"><ele>19.2</ele><time>2022-06-26T07:54:30.000Z</time></trkpt><trkpt lon="5.708681" lat="50.922746"><ele>18.6</ele><time>2022-06-26T07:54:31.000Z</time></trkpt><trkpt lon="5.708722" lat="50.922795"><ele>18.4</ele><time>2022-06-26T07:54:32.000Z</time></trkpt><trkpt lon="5.708804" lat="50.922891"><ele>18.2</ele><time>2022-06-26T07:54:33.000Z</time></trkpt><trkpt lon="5.708853" lat="50.92294"><ele>18</ele><time>2022-06-26T07:54:34.000Z</time></trkpt><trkpt lon="5.708941" lat="50.923024"><ele>18</ele><time>2022-06-26T07:54:35.000Z</time></trkpt><trkpt lon="5.709002" lat="50.923077"><ele>17.8</ele><time>2022-06-26T07:54:36.000Z</time></trkpt><trkpt lon="5.709086" lat="50.923143"><ele>17.6</ele><time>2022-06-26T07:54:37.000Z</time></trkpt><trkpt lon="5.709142" lat="50.92318"><ele>17.6</ele><time>2022-06-26T07:54:38.000Z</time></trkpt><trkpt lon="5.709253" lat="50.923242"><ele>17.6</ele><time>2022-06-26T07:54:39.000Z</time></trkpt><trkpt lon="5.709336" lat="50.92327"><ele>17.4</ele><time>2022-06-26T07:54:40.000Z</time></trkpt><trkpt lon="5.70945" lat="50.923298"><ele>17.4</ele><time>2022-06-26T07:54:41.000Z</time></trkpt><trkpt lon="5.709508" lat="50.923305"><ele>17.4</ele><time>2022-06-26T07:54:42.000Z</time></trkpt><trkpt lon="5.709626" lat="50.923313"><ele>17.4</ele><time>2022-06-26T07:54:43.000Z</time></trkpt><trkpt lon="5.709685" lat="50.923316"><ele>17.4</ele><time>2022-06-26T07:54:44.000Z</time></trkpt><trkpt lon="5.709789" lat="50.923325"><ele>17.2</ele><time>2022-06-26T07:54:45.000Z</time></trkpt><trkpt lon="5.709849" lat="50.923322"><ele>17.4</ele><time>2022-06-26T07:54:46.000Z</time></trkpt><trkpt lon="5.709979" lat="50.92332"><ele>17.2</ele><time>2022-06-26T07:54:47.000Z</time></trkpt><trkpt lon="5.710055" lat="50.923312"><ele>17.2</ele><time>2022-06-26T07:54:48.000Z</time></trkpt><trkpt lon="5.710199" lat="50.923301"><ele>17.2</ele><time>2022-06-26T07:54:49.000Z</time></trkpt><trkpt lon="5.710283" lat="50.923291"><ele>17.2</ele><time>2022-06-26T07:54:50.000Z</time></trkpt><trkpt lon="5.710445" lat="50.923275"><ele>17.2</ele><time>2022-06-26T07:54:51.000Z</time></trkpt><trkpt lon="5.710545" lat="50.923266"><ele>17.2</ele><time>2022-06-26T07:54:52.000Z</time></trkpt><trkpt lon="5.710695" lat="50.923256"><ele>17</ele><time>2022-06-26T07:54:53.000Z</time></trkpt><trkpt lon="5.710775" lat="50.923251"><ele>17</ele><time>2022-06-26T07:54:54.000Z</time></trkpt><trkpt lon="5.710953" lat="50.923237"><ele>17</ele><time>2022-06-26T07:54:55.000Z</time></trkpt><trkpt lon="5.711043" lat="50.923234"><ele>17</ele><time>2022-06-26T07:54:56.000Z</time></trkpt><trkpt lon="5.711203" lat="50.923225"><ele>16.8</ele><time>2022-06-26T07:54:57.000Z</time></trkpt><trkpt lon="5.711282" lat="50.923223"><ele>16.8</ele><time>2022-06-26T07:54:58.000Z</time></trkpt><trkpt lon="5.711437" lat="50.923214"><ele>17</ele><time>2022-06-26T07:54:59.000Z</time></trkpt><trkpt lon="5.711512" lat="50.923211"><ele>17</ele><time>2022-06-26T07:55:00.000Z</time></trkpt><trkpt lon="5.711672" lat="50.923206"><ele>17.2</ele><time>2022-06-26T07:55:01.000Z</time></trkpt><trkpt lon="5.711747" lat="50.923204"><ele>17.4</ele><time>2022-06-26T07:55:02.000Z</time></trkpt><trkpt lon="5.711909" lat="50.923199"><ele>17.6</ele><time>2022-06-26T07:55:03.000Z</time></trkpt><trkpt lon="5.712009" lat="50.923199"><ele>17.6</ele><time>2022-06-26T07:55:04.000Z</time></trkpt><trkpt lon="5.71215" lat="50.923195"><ele>17.6</ele><time>2022-06-26T07:55:05.000Z</time></trkpt><trkpt lon="5.712228" lat="50.923195"><ele>17.6</ele><time>2022-06-26T07:55:06.000Z</time></trkpt><trkpt lon="5.712383" lat="50.923195"><ele>17.8</ele><time>2022-06-26T07:55:07.000Z</time></trkpt><trkpt lon="5.712469" lat="50.923195"><ele>17.8</ele><time>2022-06-26T07:55:08.000Z</time></trkpt><trkpt lon="5.712615" lat="50.923195"><ele>17.8</ele><time>2022-06-26T07:55:09.000Z</time></trkpt><trkpt lon="5.712697" lat="50.923195"><ele>17.8</ele><time>2022-06-26T07:55:10.000Z</time></trkpt><trkpt lon="5.712849" lat="50.923195"><ele>17.8</ele><time>2022-06-26T07:55:11.000Z</time></trkpt><trkpt lon="5.712928" lat="50.923195"><ele>17.8</ele><time>2022-06-26T07:55:12.000Z</time></trkpt><trkpt lon="5.713083" lat="50.923199"><ele>17.8</ele><time>2022-06-26T07:55:13.000Z</time></trkpt><trkpt lon="5.713161" lat="50.923199"><ele>17.8</ele><time>2022-06-26T07:55:14.000Z</time></trkpt><trkpt lon="5.71332" lat="50.923199"><ele>17.8</ele><time>2022-06-26T07:55:15.000Z</time></trkpt><trkpt lon="5.7134" lat="50.923199"><ele>17.8</ele><time>2022-06-26T07:55:16.000Z</time></trkpt><trkpt lon="5.713559" lat="50.923199"><ele>17.8</ele><time>2022-06-26T07:55:17.000Z</time></trkpt><trkpt lon="5.713645" lat="50.923199"><ele>17.8</ele><time>2022-06-26T07:55:18.000Z</time></trkpt><trkpt lon="5.713795" lat="50.923203"><ele>17.8</ele><time>2022-06-26T07:55:19.000Z</time></trkpt><trkpt lon="5.713874" lat="50.923205"><ele>18</ele><time>2022-06-26T07:55:20.000Z</time></trkpt><trkpt lon="5.714031" lat="50.92321"><ele>17.8</ele><time>2022-06-26T07:55:21.000Z</time></trkpt><trkpt lon="5.714121" lat="50.92321"><ele>17.8</ele><time>2022-06-26T07:55:22.000Z</time></trkpt><trkpt lon="5.714267" lat="50.923218"><ele>18</ele><time>2022-06-26T07:55:23.000Z</time></trkpt><trkpt lon="5.714362" lat="50.923224"><ele>17.8</ele><time>2022-06-26T07:55:24.000Z</time></trkpt><trkpt lon="5.714507" lat="50.923237"><ele>17.8</ele><time>2022-06-26T07:55:25.000Z</time></trkpt><trkpt lon="5.714593" lat="50.923246"><ele>17.8</ele><time>2022-06-26T07:55:26.000Z</time></trkpt><trkpt lon="5.714737" lat="50.923256"><ele>17.8</ele><time>2022-06-26T07:55:27.000Z</time></trkpt><trkpt lon="5.71481" lat="50.923263"><ele>17.8</ele><time>2022-06-26T07:55:28.000Z</time></trkpt><trkpt lon="5.714972" lat="50.923279"><ele>17.8</ele><time>2022-06-26T07:55:29.000Z</time></trkpt><trkpt lon="5.715044" lat="50.923289"><ele>17.8</ele><time>2022-06-26T07:55:30.000Z</time></trkpt><trkpt lon="5.715203" lat="50.923306"><ele>17.8</ele><time>2022-06-26T07:55:31.000Z</time></trkpt><trkpt lon="5.71529" lat="50.923317"><ele>17.8</ele><time>2022-06-26T07:55:32.000Z</time></trkpt><trkpt lon="5.715431" lat="50.923336"><ele>17.8</ele><time>2022-06-26T07:55:33.000Z</time></trkpt><trkpt lon="5.71552" lat="50.923348"><ele>18</ele><time>2022-06-26T07:55:34.000Z</time></trkpt><trkpt lon="5.715656" lat="50.923367"><ele>18</ele><time>2022-06-26T07:55:35.000Z</time></trkpt><trkpt lon="5.715744" lat="50.923382"><ele>18</ele><time>2022-06-26T07:55:36.000Z</time></trkpt><trkpt lon="5.715877" lat="50.923409"><ele>18</ele><time>2022-06-26T07:55:37.000Z</time></trkpt><trkpt lon="5.715944" lat="50.923421"><ele>17.8</ele><time>2022-06-26T07:55:38.000Z</time></trkpt><trkpt lon="5.716092" lat="50.923447"><ele>17.6</ele><time>2022-06-26T07:55:39.000Z</time></trkpt><trkpt lon="5.716172" lat="50.923461"><ele>17.6</ele><time>2022-06-26T07:55:40.000Z</time></trkpt><trkpt lon="5.716308" lat="50.923485"><ele>17.8</ele><time>2022-06-26T07:55:41.000Z</time></trkpt><trkpt lon="5.716374" lat="50.923497"><ele>17.8</ele><time>2022-06-26T07:55:42.000Z</time></trkpt><trkpt lon="5.716526" lat="50.923527"><ele>17.8</ele><time>2022-06-26T07:55:43.000Z</time></trkpt><trkpt lon="5.716599" lat="50.92354"><ele>17.8</ele><time>2022-06-26T07:55:44.000Z</time></trkpt><trkpt lon="5.716746" lat="50.923565"><ele>17.8</ele><time>2022-06-26T07:55:45.000Z</time></trkpt><trkpt lon="5.716827" lat="50.923576"><ele>17.8</ele><time>2022-06-26T07:55:46.000Z</time></trkpt><trkpt lon="5.716977" lat="50.9236"><ele>17.8</ele><time>2022-06-26T07:55:47.000Z</time></trkpt><trkpt lon="5.71706" lat="50.923613"><ele>17.8</ele><time>2022-06-26T07:55:48.000Z</time></trkpt><trkpt lon="5.717208" lat="50.923626"><ele>17.8</ele><time>2022-06-26T07:55:49.000Z</time></trkpt><trkpt lon="5.717279" lat="50.923631"><ele>17.8</ele><time>2022-06-26T07:55:50.000Z</time></trkpt><trkpt lon="5.717438" lat="50.923641"><ele>18</ele><time>2022-06-26T07:55:51.000Z</time></trkpt><trkpt lon="5.717506" lat="50.923646"><ele>18</ele><time>2022-06-26T07:55:52.000Z</time></trkpt><trkpt lon="5.717675" lat="50.923656"><ele>18</ele><time>2022-06-26T07:55:53.000Z</time></trkpt><trkpt lon="5.717753" lat="50.923656"><ele>18.2</ele><time>2022-06-26T07:55:54.000Z</time></trkpt><trkpt lon="5.717907" lat="50.923657"><ele>18.2</ele><time>2022-06-26T07:55:55.000Z</time></trkpt><trkpt lon="5.717978" lat="50.923659"><ele>18.2</ele><time>2022-06-26T07:55:56.000Z</time></trkpt><trkpt lon="5.718131" lat="50.92366"><ele>18</ele><time>2022-06-26T07:55:57.000Z</time></trkpt><trkpt lon="5.718199" lat="50.92366"><ele>18</ele><time>2022-06-26T07:55:58.000Z</time></trkpt><trkpt lon="5.71835" lat="50.92366"><ele>18.2</ele><time>2022-06-26T07:55:59.000Z</time></trkpt><trkpt lon="5.718423" lat="50.923663"><ele>18.2</ele><time>2022-06-26T07:56:00.000Z</time></trkpt><trkpt lon="5.71857" lat="50.923672"><ele>18.2</ele><time>2022-06-26T07:56:01.000Z</time></trkpt><trkpt lon="5.718651" lat="50.92368"><ele>18.2</ele><time>2022-06-26T07:56:02.000Z</time></trkpt><trkpt lon="5.718792" lat="50.923687"><ele>18.2</ele><time>2022-06-26T07:56:03.000Z</time></trkpt><trkpt lon="5.718855" lat="50.923691"><ele>18.2</ele><time>2022-06-26T07:56:04.000Z</time></trkpt><trkpt lon="5.719015" lat="50.923706"><ele>18</ele><time>2022-06-26T07:56:05.000Z</time></trkpt><trkpt lon="5.719096" lat="50.923711"><ele>18</ele><time>2022-06-26T07:56:06.000Z</time></trkpt><trkpt lon="5.719247" lat="50.923725"><ele>18</ele><time>2022-06-26T07:56:07.000Z</time></trkpt><trkpt lon="5.719328" lat="50.923733"><ele>18</ele><time>2022-06-26T07:56:08.000Z</time></trkpt><trkpt lon="5.719479" lat="50.923752"><ele>18</ele><time>2022-06-26T07:56:09.000Z</time></trkpt><trkpt lon="5.719546" lat="50.923761"><ele>18</ele><time>2022-06-26T07:56:10.000Z</time></trkpt><trkpt lon="5.719699" lat="50.923779"><ele>18</ele><time>2022-06-26T07:56:11.000Z</time></trkpt><trkpt lon="5.719775" lat="50.92379"><ele>17.8</ele><time>2022-06-26T07:56:12.000Z</time></trkpt><trkpt lon="5.719911" lat="50.923805"><ele>17.8</ele><time>2022-06-26T07:56:13.000Z</time></trkpt><trkpt lon="5.719978" lat="50.923813"><ele>17.6</ele><time>2022-06-26T07:56:14.000Z</time></trkpt><trkpt lon="5.72012" lat="50.923832"><ele>17.6</ele><time>2022-06-26T07:56:15.000Z</time></trkpt><trkpt lon="5.720184" lat="50.923841"><ele>17.6</ele><time>2022-06-26T07:56:16.000Z</time></trkpt><trkpt lon="5.720339" lat="50.923863"><ele>17.8</ele><time>2022-06-26T07:56:17.000Z</time></trkpt><trkpt lon="5.720413" lat="50.923872"><ele>17.8</ele><time>2022-06-26T07:56:18.000Z</time></trkpt><trkpt lon="5.720578" lat="50.923882"><ele>17.8</ele><time>2022-06-26T07:56:19.000Z</time></trkpt><trkpt lon="5.720652" lat="50.923886"><ele>17.8</ele><time>2022-06-26T07:56:20.000Z</time></trkpt><trkpt lon="5.720815" lat="50.923893"><ele>17.8</ele><time>2022-06-26T07:56:21.000Z</time></trkpt><trkpt lon="5.720885" lat="50.923893"><ele>17.8</ele><time>2022-06-26T07:56:22.000Z</time></trkpt><trkpt lon="5.721047" lat="50.923889"><ele>17.8</ele><time>2022-06-26T07:56:23.000Z</time></trkpt><trkpt lon="5.721131" lat="50.923884"><ele>17.8</ele><time>2022-06-26T07:56:24.000Z</time></trkpt><trkpt lon="5.721287" lat="50.92387"><ele>17.8</ele><time>2022-06-26T07:56:25.000Z</time></trkpt><trkpt lon="5.721372" lat="50.923859"><ele>17.8</ele><time>2022-06-26T07:56:26.000Z</time></trkpt><trkpt lon="5.721525" lat="50.923839"><ele>17.6</ele><time>2022-06-26T07:56:27.000Z</time></trkpt><trkpt lon="5.721595" lat="50.923828"><ele>17.6</ele><time>2022-06-26T07:56:28.000Z</time></trkpt><trkpt lon="5.721753" lat="50.923805"><ele>17.6</ele><time>2022-06-26T07:56:29.000Z</time></trkpt><trkpt lon="5.721818" lat="50.923791"><ele>17.6</ele><time>2022-06-26T07:56:30.000Z</time></trkpt><trkpt lon="5.721973" lat="50.923763"><ele>17.6</ele><time>2022-06-26T07:56:31.000Z</time></trkpt><trkpt lon="5.722038" lat="50.923749"><ele>17.6</ele><time>2022-06-26T07:56:32.000Z</time></trkpt><trkpt lon="5.722191" lat="50.923713"><ele>17.8</ele><time>2022-06-26T07:56:33.000Z</time></trkpt><trkpt lon="5.722254" lat="50.923698"><ele>17.8</ele><time>2022-06-26T07:56:34.000Z</time></trkpt><trkpt lon="5.722404" lat="50.923656"><ele>17.8</ele><time>2022-06-26T07:56:35.000Z</time></trkpt><trkpt lon="5.722469" lat="50.923637"><ele>18</ele><time>2022-06-26T07:56:36.000Z</time></trkpt><trkpt lon="5.722612" lat="50.923591"><ele>18</ele><time>2022-06-26T07:56:37.000Z</time></trkpt><trkpt lon="5.722686" lat="50.923564"><ele>18</ele><time>2022-06-26T07:56:38.000Z</time></trkpt><trkpt lon="5.722815" lat="50.923511"><ele>18</ele><time>2022-06-26T07:56:39.000Z</time></trkpt><trkpt lon="5.722883" lat="50.923482"><ele>18</ele><time>2022-06-26T07:56:40.000Z</time></trkpt><trkpt lon="5.723013" lat="50.923423"><ele>18</ele><time>2022-06-26T07:56:41.000Z</time></trkpt><trkpt lon="5.72307" lat="50.923396"><ele>18</ele><time>2022-06-26T07:56:42.000Z</time></trkpt><trkpt lon="5.723206" lat="50.923332"><ele>18</ele><time>2022-06-26T07:56:43.000Z</time></trkpt><trkpt lon="5.723273" lat="50.923302"><ele>17.8</ele><time>2022-06-26T07:56:44.000Z</time></trkpt><trkpt lon="5.723398" lat="50.923248"><ele>18</ele><time>2022-06-26T07:56:45.000Z</time></trkpt><trkpt lon="5.723448" lat="50.923223"><ele>18</ele><time>2022-06-26T07:56:46.000Z</time></trkpt><trkpt lon="5.723588" lat="50.923156"><ele>18</ele><time>2022-06-26T07:56:47.000Z</time></trkpt><trkpt lon="5.723646" lat="50.92313"><ele>18</ele><time>2022-06-26T07:56:48.000Z</time></trkpt><trkpt lon="5.723773" lat="50.923072"><ele>18</ele><time>2022-06-26T07:56:49.000Z</time></trkpt><trkpt lon="5.723831" lat="50.923042"><ele>18</ele><time>2022-06-26T07:56:50.000Z</time></trkpt><trkpt lon="5.72395" lat="50.922985"><ele>18</ele><time>2022-06-26T07:56:51.000Z</time></trkpt><trkpt lon="5.723999" lat="50.922964"><ele>18</ele><time>2022-06-26T07:56:52.000Z</time></trkpt><trkpt lon="5.724129" lat="50.922904"><ele>17.8</ele><time>2022-06-26T07:56:53.000Z</time></trkpt><trkpt lon="5.724187" lat="50.92288"><ele>17.8</ele><time>2022-06-26T07:56:54.000Z</time></trkpt><trkpt lon="5.724311" lat="50.922828"><ele>17.8</ele><time>2022-06-26T07:56:55.000Z</time></trkpt><trkpt lon="5.724368" lat="50.92281"><ele>17.8</ele><time>2022-06-26T07:56:56.000Z</time></trkpt><trkpt lon="5.724504" lat="50.922771"><ele>18</ele><time>2022-06-26T07:56:57.000Z</time></trkpt><trkpt lon="5.724561" lat="50.92276"><ele>18</ele><time>2022-06-26T07:56:58.000Z</time></trkpt><trkpt lon="5.724708" lat="50.922749"><ele>17.8</ele><time>2022-06-26T07:56:59.000Z</time></trkpt><trkpt lon="5.72477" lat="50.922749"><ele>17.6</ele><time>2022-06-26T07:57:00.000Z</time></trkpt><trkpt lon="5.72493" lat="50.92276"><ele>17.4</ele><time>2022-06-26T07:57:01.000Z</time></trkpt><trkpt lon="5.725004" lat="50.922773"><ele>17.6</ele><time>2022-06-26T07:57:02.000Z</time></trkpt><trkpt lon="5.725139" lat="50.92281"><ele>17.6</ele><time>2022-06-26T07:57:03.000Z</time></trkpt><trkpt lon="5.725189" lat="50.922835"><ele>17.6</ele><time>2022-06-26T07:57:04.000Z</time></trkpt><trkpt lon="5.725284" lat="50.922902"><ele>17.8</ele><time>2022-06-26T07:57:05.000Z</time></trkpt><trkpt lon="5.72531" lat="50.922938"><ele>17.8</ele><time>2022-06-26T07:57:06.000Z</time></trkpt><trkpt lon="5.725362" lat="50.923024"><ele>18</ele><time>2022-06-26T07:57:07.000Z</time></trkpt><trkpt lon="5.72538" lat="50.923062"><ele>18</ele><time>2022-06-26T07:57:08.000Z</time></trkpt><trkpt lon="5.725423" lat="50.923161"><ele>17.8</ele><time>2022-06-26T07:57:09.000Z</time></trkpt><trkpt lon="5.725442" lat="50.923204"><ele>17.8</ele><time>2022-06-26T07:57:10.000Z</time></trkpt><trkpt lon="5.725485" lat="50.923291"><ele>17.8</ele><time>2022-06-26T07:57:11.000Z</time></trkpt><trkpt lon="5.725506" lat="50.923325"><ele>17.8</ele><time>2022-06-26T07:57:12.000Z</time></trkpt><trkpt lon="5.725559" lat="50.92342"><ele>18</ele><time>2022-06-26T07:57:13.000Z</time></trkpt><trkpt lon="5.725579" lat="50.92346"><ele>18</ele><time>2022-06-26T07:57:14.000Z</time></trkpt><trkpt lon="5.725627" lat="50.923543"><ele>18.2</ele><time>2022-06-26T07:57:15.000Z</time></trkpt><trkpt lon="5.725648" lat="50.92358"><ele>18.2</ele><time>2022-06-26T07:57:16.000Z</time></trkpt><trkpt lon="5.72569" lat="50.923673"><ele>18.2</ele><time>2022-06-26T07:57:17.000Z</time></trkpt><trkpt lon="5.725707" lat="50.923711"><ele>18.4</ele><time>2022-06-26T07:57:18.000Z</time></trkpt><trkpt lon="5.725764" lat="50.923806"><ele>18.4</ele><time>2022-06-26T07:57:19.000Z</time></trkpt><trkpt lon="5.725792" lat="50.923842"><ele>18.6</ele><time>2022-06-26T07:57:20.000Z</time></trkpt><trkpt lon="5.725866" lat="50.92394"><ele>18.6</ele><time>2022-06-26T07:57:21.000Z</time></trkpt><trkpt lon="5.725893" lat="50.923976"><ele>18.8</ele><time>2022-06-26T07:57:22.000Z</time></trkpt><trkpt lon="5.725964" lat="50.924077"><ele>18.8</ele><time>2022-06-26T07:57:23.000Z</time></trkpt><trkpt lon="5.725994" lat="50.924116"><ele>18.8</ele><time>2022-06-26T07:57:24.000Z</time></trkpt><trkpt lon="5.726067" lat="50.924206"><ele>18.8</ele><time>2022-06-26T07:57:25.000Z</time></trkpt><trkpt lon="5.726108" lat="50.924246"><ele>19</ele><time>2022-06-26T07:57:26.000Z</time></trkpt><trkpt lon="5.726206" lat="50.924327"><ele>19</ele><time>2022-06-26T07:57:27.000Z</time></trkpt><trkpt lon="5.726251" lat="50.924358"><ele>19</ele><time>2022-06-26T07:57:28.000Z</time></trkpt><trkpt lon="5.726374" lat="50.924439"><ele>19</ele><time>2022-06-26T07:57:29.000Z</time></trkpt><trkpt lon="5.726414" lat="50.924472"><ele>19</ele><time>2022-06-26T07:57:30.000Z</time></trkpt><trkpt lon="5.72651" lat="50.924565"><ele>18.8</ele><time>2022-06-26T07:57:31.000Z</time></trkpt><trkpt lon="5.72654" lat="50.92461"><ele>18.8</ele><time>2022-06-26T07:57:32.000Z</time></trkpt><trkpt lon="5.726588" lat="50.924705"><ele>18.6</ele><time>2022-06-26T07:57:33.000Z</time></trkpt><trkpt lon="5.726606" lat="50.924757"><ele>18.4</ele><time>2022-06-26T07:57:34.000Z</time></trkpt><trkpt lon="5.726637" lat="50.92487"><ele>18.2</ele><time>2022-06-26T07:57:35.000Z</time></trkpt><trkpt lon="5.726646" lat="50.924914"><ele>18.2</ele><time>2022-06-26T07:57:36.000Z</time></trkpt><trkpt lon="5.726673" lat="50.925014"><ele>18.2</ele><time>2022-06-26T07:57:37.000Z</time></trkpt><trkpt lon="5.726686" lat="50.925065"><ele>18.2</ele><time>2022-06-26T07:57:38.000Z</time></trkpt><trkpt lon="5.726703" lat="50.925127"><ele>18.2</ele><time>2022-06-26T07:57:39.000Z</time></trkpt><trkpt lon="5.72674" lat="50.925257"><ele>18</ele><time>2022-06-26T07:57:40.000Z</time></trkpt><trkpt lon="5.72676" lat="50.925332"><ele>18</ele><time>2022-06-26T07:57:41.000Z</time></trkpt><trkpt lon="5.726783" lat="50.925407"><ele>18</ele><time>2022-06-26T07:57:42.000Z</time></trkpt><trkpt lon="5.72681" lat="50.925483"><ele>18</ele><time>2022-06-26T07:57:43.000Z</time></trkpt><trkpt lon="5.726837" lat="50.925558"><ele>17.8</ele><time>2022-06-26T07:57:44.000Z</time></trkpt><trkpt lon="5.726868" lat="50.925633"><ele>17.6</ele><time>2022-06-26T07:57:45.000Z</time></trkpt><trkpt lon="5.7269" lat="50.925708"><ele>17.8</ele><time>2022-06-26T07:57:46.000Z</time></trkpt><trkpt lon="5.726933" lat="50.925784"><ele>17.8</ele><time>2022-06-26T07:57:47.000Z</time></trkpt><trkpt lon="5.726972" lat="50.925862"><ele>17.8</ele><time>2022-06-26T07:57:48.000Z</time></trkpt><trkpt lon="5.727018" lat="50.925933"><ele>17.8</ele><time>2022-06-26T07:57:49.000Z</time></trkpt><trkpt lon="5.727073" lat="50.926003"><ele>17.6</ele><time>2022-06-26T07:57:50.000Z</time></trkpt><trkpt lon="5.72713" lat="50.926068"><ele>17.6</ele><time>2022-06-26T07:57:51.000Z</time></trkpt><trkpt lon="5.727183" lat="50.926132"><ele>17.6</ele><time>2022-06-26T07:57:52.000Z</time></trkpt><trkpt lon="5.727232" lat="50.926199"><ele>17.6</ele><time>2022-06-26T07:57:53.000Z</time></trkpt><trkpt lon="5.727289" lat="50.926271"><ele>17.6</ele><time>2022-06-26T07:57:54.000Z</time></trkpt><trkpt lon="5.72734" lat="50.92634"><ele>17.6</ele><time>2022-06-26T07:57:55.000Z</time></trkpt><trkpt lon="5.727393" lat="50.926409"><ele>17.6</ele><time>2022-06-26T07:57:56.000Z</time></trkpt><trkpt lon="5.72745" lat="50.926478"><ele>17.4</ele><time>2022-06-26T07:57:57.000Z</time></trkpt><trkpt lon="5.727508" lat="50.92655"><ele>17.4</ele><time>2022-06-26T07:57:58.000Z</time></trkpt><trkpt lon="5.72756" lat="50.926615"><ele>17.2</ele><time>2022-06-26T07:57:59.000Z</time></trkpt><trkpt lon="5.727615" lat="50.92669"><ele>17.2</ele><time>2022-06-26T07:58:00.000Z</time></trkpt><trkpt lon="5.727668" lat="50.926759"><ele>17.2</ele><time>2022-06-26T07:58:01.000Z</time></trkpt><trkpt lon="5.727726" lat="50.926836"><ele>17.4</ele><time>2022-06-26T07:58:02.000Z</time></trkpt><trkpt lon="5.727776" lat="50.926908"><ele>17.4</ele><time>2022-06-26T07:58:03.000Z</time></trkpt><trkpt lon="5.72783" lat="50.926981"><ele>17.6</ele><time>2022-06-26T07:58:04.000Z</time></trkpt><trkpt lon="5.727882" lat="50.927053"><ele>17.6</ele><time>2022-06-26T07:58:05.000Z</time></trkpt><trkpt lon="5.727938" lat="50.927122"><ele>17.4</ele><time>2022-06-26T07:58:06.000Z</time></trkpt><trkpt lon="5.727992" lat="50.927191"><ele>17.4</ele><time>2022-06-26T07:58:07.000Z</time></trkpt><trkpt lon="5.728051" lat="50.927263"><ele>17.4</ele><time>2022-06-26T07:58:08.000Z</time></trkpt><trkpt lon="5.728106" lat="50.927332"><ele>17.4</ele><time>2022-06-26T07:58:09.000Z</time></trkpt><trkpt lon="5.728161" lat="50.927404"><ele>17.6</ele><time>2022-06-26T07:58:10.000Z</time></trkpt><trkpt lon="5.728214" lat="50.927473"><ele>17.6</ele><time>2022-06-26T07:58:11.000Z</time></trkpt><trkpt lon="5.728269" lat="50.927541"><ele>17.6</ele><time>2022-06-26T07:58:12.000Z</time></trkpt><trkpt lon="5.728316" lat="50.927605"><ele>17.6</ele><time>2022-06-26T07:58:13.000Z</time></trkpt><trkpt lon="5.728376" lat="50.927686"><ele>17.6</ele><time>2022-06-26T07:58:14.000Z</time></trkpt><trkpt lon="5.72843" lat="50.927755"><ele>17.6</ele><time>2022-06-26T07:58:15.000Z</time></trkpt><trkpt lon="5.728484" lat="50.927822"><ele>17.6</ele><time>2022-06-26T07:58:16.000Z</time></trkpt><trkpt lon="5.72854" lat="50.927891"><ele>17.6</ele><time>2022-06-26T07:58:17.000Z</time></trkpt><trkpt lon="5.728597" lat="50.92796"><ele>17.6</ele><time>2022-06-26T07:58:18.000Z</time></trkpt><trkpt lon="5.728651" lat="50.928029"><ele>17.6</ele><time>2022-06-26T07:58:19.000Z</time></trkpt><trkpt lon="5.728708" lat="50.928097"><ele>17.8</ele><time>2022-06-26T07:58:20.000Z</time></trkpt><trkpt lon="5.728768" lat="50.928167"><ele>17.8</ele><time>2022-06-26T07:58:21.000Z</time></trkpt><trkpt lon="5.728824" lat="50.928235"><ele>17.8</ele><time>2022-06-26T07:58:22.000Z</time></trkpt><trkpt lon="5.728875" lat="50.928298"><ele>17.8</ele><time>2022-06-26T07:58:23.000Z</time></trkpt><trkpt lon="5.728936" lat="50.928373"><ele>17.8</ele><time>2022-06-26T07:58:24.000Z</time></trkpt><trkpt lon="5.728992" lat="50.928441"><ele>17.8</ele><time>2022-06-26T07:58:25.000Z</time></trkpt><trkpt lon="5.729048" lat="50.928505"><ele>17.8</ele><time>2022-06-26T07:58:26.000Z</time></trkpt><trkpt lon="5.729109" lat="50.928572"><ele>17.8</ele><time>2022-06-26T07:58:27.000Z</time></trkpt><trkpt lon="5.729176" lat="50.928639"><ele>17.8</ele><time>2022-06-26T07:58:28.000Z</time></trkpt><trkpt lon="5.729237" lat="50.928705"><ele>17.8</ele><time>2022-06-26T07:58:29.000Z</time></trkpt><trkpt lon="5.729294" lat="50.928773"><ele>17.8</ele><time>2022-06-26T07:58:30.000Z</time></trkpt><trkpt lon="5.729353" lat="50.928842"><ele>17.8</ele><time>2022-06-26T07:58:31.000Z</time></trkpt><trkpt lon="5.729409" lat="50.92891"><ele>17.8</ele><time>2022-06-26T07:58:32.000Z</time></trkpt><trkpt lon="5.729462" lat="50.928974"><ele>17.8</ele><time>2022-06-26T07:58:33.000Z</time></trkpt><trkpt lon="5.729523" lat="50.929048"><ele>17.8</ele><time>2022-06-26T07:58:34.000Z</time></trkpt><trkpt lon="5.729577" lat="50.929112"><ele>17.8</ele><time>2022-06-26T07:58:35.000Z</time></trkpt><trkpt lon="5.729636" lat="50.929181"><ele>17.8</ele><time>2022-06-26T07:58:36.000Z</time></trkpt><trkpt lon="5.729688" lat="50.929246"><ele>17.8</ele><time>2022-06-26T07:58:37.000Z</time></trkpt><trkpt lon="5.729748" lat="50.929322"><ele>17.8</ele><time>2022-06-26T07:58:38.000Z</time></trkpt><trkpt lon="5.729803" lat="50.929392"><ele>17.8</ele><time>2022-06-26T07:58:39.000Z</time></trkpt><trkpt lon="5.72986" lat="50.92946"><ele>17.8</ele><time>2022-06-26T07:58:40.000Z</time></trkpt><trkpt lon="5.72992" lat="50.929529"><ele>18</ele><time>2022-06-26T07:58:41.000Z</time></trkpt><trkpt lon="5.72998" lat="50.929601"><ele>17.8</ele><time>2022-06-26T07:58:42.000Z</time></trkpt><trkpt lon="5.730038" lat="50.92967"><ele>17.8</ele><time>2022-06-26T07:58:43.000Z</time></trkpt><trkpt lon="5.730102" lat="50.929735"><ele>17.8</ele><time>2022-06-26T07:58:44.000Z</time></trkpt><trkpt lon="5.730168" lat="50.9298"><ele>17.8</ele><time>2022-06-26T07:58:45.000Z</time></trkpt><trkpt lon="5.730234" lat="50.929864"><ele>17.8</ele><time>2022-06-26T07:58:46.000Z</time></trkpt><trkpt lon="5.730291" lat="50.929919"><ele>17.8</ele><time>2022-06-26T07:58:47.000Z</time></trkpt><trkpt lon="5.730368" lat="50.929994"><ele>17.8</ele><time>2022-06-26T07:58:48.000Z</time></trkpt><trkpt lon="5.730433" lat="50.930055"><ele>17.8</ele><time>2022-06-26T07:58:49.000Z</time></trkpt><trkpt lon="5.730503" lat="50.93012"><ele>17.8</ele><time>2022-06-26T07:58:50.000Z</time></trkpt><trkpt lon="5.73057" lat="50.930179"><ele>17.8</ele><time>2022-06-26T07:58:51.000Z</time></trkpt><trkpt lon="5.730638" lat="50.930242"><ele>17.8</ele><time>2022-06-26T07:58:52.000Z</time></trkpt><trkpt lon="5.7307" lat="50.930302"><ele>17.8</ele><time>2022-06-26T07:58:53.000Z</time></trkpt><trkpt lon="5.730772" lat="50.930372"><ele>17.6</ele><time>2022-06-26T07:58:54.000Z</time></trkpt><trkpt lon="5.730841" lat="50.930436"><ele>17.6</ele><time>2022-06-26T07:58:55.000Z</time></trkpt><trkpt lon="5.730911" lat="50.930497"><ele>17.4</ele><time>2022-06-26T07:58:56.000Z</time></trkpt><trkpt lon="5.730978" lat="50.930554"><ele>17.4</ele><time>2022-06-26T07:58:57.000Z</time></trkpt><trkpt lon="5.731055" lat="50.930627"><ele>17.4</ele><time>2022-06-26T07:58:58.000Z</time></trkpt><trkpt lon="5.731122" lat="50.930685"><ele>17.4</ele><time>2022-06-26T07:58:59.000Z</time></trkpt><trkpt lon="5.7312" lat="50.930753"><ele>17.4</ele><time>2022-06-26T07:59:00.000Z</time></trkpt><trkpt lon="5.731271" lat="50.930822"><ele>17.4</ele><time>2022-06-26T07:59:01.000Z</time></trkpt><trkpt lon="5.731338" lat="50.930895"><ele>17.4</ele><time>2022-06-26T07:59:02.000Z</time></trkpt><trkpt lon="5.731399" lat="50.93096"><ele>17.4</ele><time>2022-06-26T07:59:03.000Z</time></trkpt><trkpt lon="5.731459" lat="50.931036"><ele>17.4</ele><time>2022-06-26T07:59:04.000Z</time></trkpt><trkpt lon="5.731516" lat="50.931108"><ele>17.4</ele><time>2022-06-26T07:59:05.000Z</time></trkpt><trkpt lon="5.731568" lat="50.931181"><ele>17.4</ele><time>2022-06-26T07:59:06.000Z</time></trkpt><trkpt lon="5.731614" lat="50.931252"><ele>17.4</ele><time>2022-06-26T07:59:07.000Z</time></trkpt><trkpt lon="5.731656" lat="50.931326"><ele>17.2</ele><time>2022-06-26T07:59:08.000Z</time></trkpt><trkpt lon="5.731692" lat="50.931394"><ele>17.2</ele><time>2022-06-26T07:59:09.000Z</time></trkpt><trkpt lon="5.731732" lat="50.931466"><ele>17.2</ele><time>2022-06-26T07:59:10.000Z</time></trkpt><trkpt lon="5.731771" lat="50.931535"><ele>17.2</ele><time>2022-06-26T07:59:11.000Z</time></trkpt><trkpt lon="5.731807" lat="50.931604"><ele>17.2</ele><time>2022-06-26T07:59:12.000Z</time></trkpt><trkpt lon="5.731833" lat="50.931659"><ele>17.2</ele><time>2022-06-26T07:59:13.000Z</time></trkpt><trkpt lon="5.731874" lat="50.931742"><ele>17.2</ele><time>2022-06-26T07:59:14.000Z</time></trkpt><trkpt lon="5.731899" lat="50.931802"><ele>17.2</ele><time>2022-06-26T07:59:15.000Z</time></trkpt><trkpt lon="5.731937" lat="50.931886"><ele>17.2</ele><time>2022-06-26T07:59:16.000Z</time></trkpt><trkpt lon="5.731962" lat="50.931946"><ele>17.2</ele><time>2022-06-26T07:59:17.000Z</time></trkpt><trkpt lon="5.73199" lat="50.932036"><ele>17.4</ele><time>2022-06-26T07:59:18.000Z</time></trkpt><trkpt lon="5.732006" lat="50.932106"><ele>17.4</ele><time>2022-06-26T07:59:19.000Z</time></trkpt><trkpt lon="5.73201" lat="50.932188"><ele>17.2</ele><time>2022-06-26T07:59:20.000Z</time></trkpt><trkpt lon="5.731998" lat="50.93226"><ele>17.2</ele><time>2022-06-26T07:59:21.000Z</time></trkpt><trkpt lon="5.731964" lat="50.932329"><ele>17.2</ele><time>2022-06-26T07:59:22.000Z</time></trkpt><trkpt lon="5.731913" lat="50.932382"><ele>17.2</ele><time>2022-06-26T07:59:23.000Z</time></trkpt><trkpt lon="5.731822" lat="50.932454"><ele>17.2</ele><time>2022-06-26T07:59:24.000Z</time></trkpt><trkpt lon="5.731735" lat="50.932503"><ele>17.2</ele><time>2022-06-26T07:59:25.000Z</time></trkpt><trkpt lon="5.731621" lat="50.932549"><ele>17.2</ele><time>2022-06-26T07:59:26.000Z</time></trkpt><trkpt lon="5.731539" lat="50.932581"><ele>17.2</ele><time>2022-06-26T07:59:27.000Z</time></trkpt><trkpt lon="5.731406" lat="50.932629"><ele>17</ele><time>2022-06-26T07:59:28.000Z</time></trkpt><trkpt lon="5.731298" lat="50.932667"><ele>16.8</ele><time>2022-06-26T07:59:29.000Z</time></trkpt><trkpt lon="5.731192" lat="50.932709"><ele>16.8</ele><time>2022-06-26T07:59:30.000Z</time></trkpt><trkpt lon="5.731106" lat="50.932743"><ele>17</ele><time>2022-06-26T07:59:31.000Z</time></trkpt><trkpt lon="5.730977" lat="50.932789"><ele>17</ele><time>2022-06-26T07:59:32.000Z</time></trkpt><trkpt lon="5.730882" lat="50.932819"><ele>17.2</ele><time>2022-06-26T07:59:33.000Z</time></trkpt><trkpt lon="5.730761" lat="50.932862"><ele>17.2</ele><time>2022-06-26T07:59:34.000Z</time></trkpt><trkpt lon="5.730671" lat="50.932888"><ele>17.4</ele><time>2022-06-26T07:59:35.000Z</time></trkpt><trkpt lon="5.730553" lat="50.932927"><ele>17.4</ele><time>2022-06-26T07:59:36.000Z</time></trkpt><trkpt lon="5.730449" lat="50.93296"><ele>17.4</ele><time>2022-06-26T07:59:37.000Z</time></trkpt><trkpt lon="5.730338" lat="50.932996"><ele>17.6</ele><time>2022-06-26T07:59:38.000Z</time></trkpt><trkpt lon="5.730258" lat="50.933024"><ele>17.6</ele><time>2022-06-26T07:59:39.000Z</time></trkpt><trkpt lon="5.730123" lat="50.933072"><ele>17.6</ele><time>2022-06-26T07:59:40.000Z</time></trkpt><trkpt lon="5.730031" lat="50.933101"><ele>17.8</ele><time>2022-06-26T07:59:41.000Z</time></trkpt><trkpt lon="5.729907" lat="50.93314"><ele>17.8</ele><time>2022-06-26T07:59:42.000Z</time></trkpt><trkpt lon="5.729829" lat="50.933162"><ele>17.8</ele><time>2022-06-26T07:59:43.000Z</time></trkpt><trkpt lon="5.729692" lat="50.933205"><ele>18</ele><time>2022-06-26T07:59:44.000Z</time></trkpt><trkpt lon="5.72959" lat="50.933234"><ele>18</ele><time>2022-06-26T07:59:45.000Z</time></trkpt><trkpt lon="5.729478" lat="50.933262"><ele>18</ele><time>2022-06-26T07:59:46.000Z</time></trkpt><trkpt lon="5.729397" lat="50.933282"><ele>18</ele><time>2022-06-26T07:59:47.000Z</time></trkpt><trkpt lon="5.729258" lat="50.933316"><ele>18</ele><time>2022-06-26T07:59:48.000Z</time></trkpt><trkpt lon="5.729166" lat="50.933335"><ele>18</ele><time>2022-06-26T07:59:49.000Z</time></trkpt><trkpt lon="5.72904" lat="50.933361"><ele>18</ele><time>2022-06-26T07:59:50.000Z</time></trkpt><trkpt lon="5.728949" lat="50.933377"><ele>18</ele><time>2022-06-26T07:59:51.000Z</time></trkpt><trkpt lon="5.728818" lat="50.933399"><ele>18</ele><time>2022-06-26T07:59:52.000Z</time></trkpt><trkpt lon="5.728721" lat="50.933412"><ele>18.2</ele><time>2022-06-26T07:59:53.000Z</time></trkpt><trkpt lon="5.728587" lat="50.933434"><ele>18</ele><time>2022-06-26T07:59:54.000Z</time></trkpt><trkpt lon="5.728495" lat="50.933446"><ele>18</ele><time>2022-06-26T07:59:55.000Z</time></trkpt><trkpt lon="5.728359" lat="50.933468"><ele>17.8</ele><time>2022-06-26T07:59:56.000Z</time></trkpt><trkpt lon="5.728272" lat="50.93348"><ele>17.8</ele><time>2022-06-26T07:59:57.000Z</time></trkpt><trkpt lon="5.728131" lat="50.933499"><ele>17.8</ele><time>2022-06-26T07:59:58.000Z</time></trkpt><trkpt lon="5.728021" lat="50.93351"><ele>17.8</ele><time>2022-06-26T07:59:59.000Z</time></trkpt><trkpt lon="5.727904" lat="50.933525"><ele>17.6</ele><time>2022-06-26T08:00:00.000Z</time></trkpt><trkpt lon="5.727819" lat="50.933533"><ele>17.6</ele><time>2022-06-26T08:00:01.000Z</time></trkpt><trkpt lon="5.727666" lat="50.933552"><ele>17.4</ele><time>2022-06-26T08:00:02.000Z</time></trkpt><trkpt lon="5.727567" lat="50.933565"><ele>17.4</ele><time>2022-06-26T08:00:03.000Z</time></trkpt><trkpt lon="5.727424" lat="50.933579"><ele>17.4</ele><time>2022-06-26T08:00:04.000Z</time></trkpt><trkpt lon="5.727328" lat="50.933591"><ele>17.6</ele><time>2022-06-26T08:00:05.000Z</time></trkpt><trkpt lon="5.727183" lat="50.933609"><ele>17.4</ele><time>2022-06-26T08:00:06.000Z</time></trkpt><trkpt lon="5.727076" lat="50.933623"><ele>17.4</ele><time>2022-06-26T08:00:07.000Z</time></trkpt><trkpt lon="5.726943" lat="50.933644"><ele>17.4</ele><time>2022-06-26T08:00:08.000Z</time></trkpt><trkpt lon="5.726858" lat="50.933654"><ele>17.4</ele><time>2022-06-26T08:00:09.000Z</time></trkpt><trkpt lon="5.726704" lat="50.933674"><ele>17.4</ele><time>2022-06-26T08:00:10.000Z</time></trkpt><trkpt lon="5.726614" lat="50.933692"><ele>17.4</ele><time>2022-06-26T08:00:11.000Z</time></trkpt><trkpt lon="5.726465" lat="50.933712"><ele>17.4</ele><time>2022-06-26T08:00:12.000Z</time></trkpt><trkpt lon="5.726388" lat="50.933722"><ele>17.4</ele><time>2022-06-26T08:00:13.000Z</time></trkpt><trkpt lon="5.726269" lat="50.933738"><ele>17.6</ele><time>2022-06-26T08:00:14.000Z</time></trkpt><trkpt lon="5.726098" lat="50.933762"><ele>17.6</ele><time>2022-06-26T08:00:15.000Z</time></trkpt><trkpt lon="5.726015" lat="50.933772"><ele>17.4</ele><time>2022-06-26T08:00:16.000Z</time></trkpt><trkpt lon="5.725858" lat="50.933792"><ele>17.4</ele><time>2022-06-26T08:00:17.000Z</time></trkpt><trkpt lon="5.725775" lat="50.9338"><ele>17.4</ele><time>2022-06-26T08:00:18.000Z</time></trkpt><trkpt lon="5.725615" lat="50.933815"><ele>17.4</ele><time>2022-06-26T08:00:19.000Z</time></trkpt><trkpt lon="5.725535" lat="50.933818"><ele>17.4</ele><time>2022-06-26T08:00:20.000Z</time></trkpt><trkpt lon="5.725376" lat="50.933826"><ele>17.4</ele><time>2022-06-26T08:00:21.000Z</time></trkpt><trkpt lon="5.725285" lat="50.933826"><ele>17.4</ele><time>2022-06-26T08:00:22.000Z</time></trkpt><trkpt lon="5.725143" lat="50.933826"><ele>17.4</ele><time>2022-06-26T08:00:23.000Z</time></trkpt><trkpt lon="5.725051" lat="50.933823"><ele>17.6</ele><time>2022-06-26T08:00:24.000Z</time></trkpt><trkpt lon="5.724911" lat="50.933815"><ele>17.6</ele><time>2022-06-26T08:00:25.000Z</time></trkpt><trkpt lon="5.724835" lat="50.933812"><ele>17.6</ele><time>2022-06-26T08:00:26.000Z</time></trkpt><trkpt lon="5.724682" lat="50.933804"><ele>17.6</ele><time>2022-06-26T08:00:27.000Z</time></trkpt><trkpt lon="5.724597" lat="50.933795"><ele>17.6</ele><time>2022-06-26T08:00:28.000Z</time></trkpt><trkpt lon="5.724446" lat="50.933784"><ele>17.6</ele><time>2022-06-26T08:00:29.000Z</time></trkpt><trkpt lon="5.724366" lat="50.933782"><ele>17.6</ele><time>2022-06-26T08:00:30.000Z</time></trkpt><trkpt lon="5.724203" lat="50.933781"><ele>17.6</ele><time>2022-06-26T08:00:31.000Z</time></trkpt><trkpt lon="5.724119" lat="50.933783"><ele>17.6</ele><time>2022-06-26T08:00:32.000Z</time></trkpt><trkpt lon="5.723961" lat="50.933796"><ele>17.4</ele><time>2022-06-26T08:00:33.000Z</time></trkpt><trkpt lon="5.723868" lat="50.933808"><ele>17.4</ele><time>2022-06-26T08:00:34.000Z</time></trkpt><trkpt lon="5.723728" lat="50.933831"><ele>17.4</ele><time>2022-06-26T08:00:35.000Z</time></trkpt><trkpt lon="5.723638" lat="50.933852"><ele>17.4</ele><time>2022-06-26T08:00:36.000Z</time></trkpt><trkpt lon="5.723504" lat="50.933888"><ele>17.4</ele><time>2022-06-26T08:00:37.000Z</time></trkpt><trkpt lon="5.72342" lat="50.933914"><ele>17.4</ele><time>2022-06-26T08:00:38.000Z</time></trkpt><trkpt lon="5.723285" lat="50.933961"><ele>17.4</ele><time>2022-06-26T08:00:39.000Z</time></trkpt><trkpt lon="5.723211" lat="50.933991"><ele>17.2</ele><time>2022-06-26T08:00:40.000Z</time></trkpt><trkpt lon="5.723076" lat="50.934041"><ele>17.2</ele><time>2022-06-26T08:00:41.000Z</time></trkpt><trkpt lon="5.723008" lat="50.934065"><ele>17.2</ele><time>2022-06-26T08:00:42.000Z</time></trkpt><trkpt lon="5.722871" lat="50.934116"><ele>17.2</ele><time>2022-06-26T08:00:43.000Z</time></trkpt><trkpt lon="5.722798" lat="50.934145"><ele>17.2</ele><time>2022-06-26T08:00:44.000Z</time></trkpt><trkpt lon="5.722662" lat="50.934197"><ele>17.2</ele><time>2022-06-26T08:00:45.000Z</time></trkpt><trkpt lon="5.722594" lat="50.934228"><ele>17.2</ele><time>2022-06-26T08:00:46.000Z</time></trkpt><trkpt lon="5.722467" lat="50.934293"><ele>17.2</ele><time>2022-06-26T08:00:47.000Z</time></trkpt><trkpt lon="5.722393" lat="50.93433"><ele>17.4</ele><time>2022-06-26T08:00:48.000Z</time></trkpt><trkpt lon="5.722287" lat="50.934384"><ele>17.4</ele><time>2022-06-26T08:00:49.000Z</time></trkpt><trkpt lon="5.722231" lat="50.934418"><ele>17.4</ele><time>2022-06-26T08:00:50.000Z</time></trkpt><trkpt lon="5.722108" lat="50.934491"><ele>17.4</ele><time>2022-06-26T08:00:51.000Z</time></trkpt><trkpt lon="5.72205" lat="50.93453"><ele>17.6</ele><time>2022-06-26T08:00:52.000Z</time></trkpt><trkpt lon="5.72195" lat="50.934602"><ele>17.6</ele><time>2022-06-26T08:00:53.000Z</time></trkpt><trkpt lon="5.721895" lat="50.934643"><ele>17.6</ele><time>2022-06-26T08:00:54.000Z</time></trkpt><trkpt lon="5.721799" lat="50.93472"><ele>17.6</ele><time>2022-06-26T08:00:55.000Z</time></trkpt><trkpt lon="5.72175" lat="50.934762"><ele>17.6</ele><time>2022-06-26T08:00:56.000Z</time></trkpt><trkpt lon="5.721659" lat="50.934838"><ele>17.6</ele><time>2022-06-26T08:00:57.000Z</time></trkpt><trkpt lon="5.721611" lat="50.93488"><ele>17.6</ele><time>2022-06-26T08:00:58.000Z</time></trkpt><trkpt lon="5.721517" lat="50.934964"><ele>17.6</ele><time>2022-06-26T08:00:59.000Z</time></trkpt><trkpt lon="5.721468" lat="50.935003"><ele>17.8</ele><time>2022-06-26T08:01:00.000Z</time></trkpt><trkpt lon="5.721372" lat="50.935082"><ele>17.8</ele><time>2022-06-26T08:01:01.000Z</time></trkpt><trkpt lon="5.721313" lat="50.935131"><ele>17.8</ele><time>2022-06-26T08:01:02.000Z</time></trkpt><trkpt lon="5.721227" lat="50.935204"><ele>18</ele><time>2022-06-26T08:01:03.000Z</time></trkpt><trkpt lon="5.721182" lat="50.93524"><ele>18</ele><time>2022-06-26T08:01:04.000Z</time></trkpt><trkpt lon="5.72108" lat="50.935323"><ele>18</ele><time>2022-06-26T08:01:05.000Z</time></trkpt><trkpt lon="5.721022" lat="50.935368"><ele>18</ele><time>2022-06-26T08:01:06.000Z</time></trkpt><trkpt lon="5.720929" lat="50.935441"><ele>18</ele><time>2022-06-26T08:01:07.000Z</time></trkpt><trkpt lon="5.720882" lat="50.935482"><ele>18</ele><time>2022-06-26T08:01:08.000Z</time></trkpt><trkpt lon="5.72078" lat="50.935567"><ele>18</ele><time>2022-06-26T08:01:09.000Z</time></trkpt><trkpt lon="5.720728" lat="50.935609"><ele>18.2</ele><time>2022-06-26T08:01:10.000Z</time></trkpt><trkpt lon="5.720629" lat="50.935693"><ele>18.2</ele><time>2022-06-26T08:01:11.000Z</time></trkpt><trkpt lon="5.720579" lat="50.935734"><ele>18.2</ele><time>2022-06-26T08:01:12.000Z</time></trkpt><trkpt lon="5.720472" lat="50.935817"><ele>18</ele><time>2022-06-26T08:01:13.000Z</time></trkpt><trkpt lon="5.720416" lat="50.935863"><ele>18</ele><time>2022-06-26T08:01:14.000Z</time></trkpt><trkpt lon="5.72031" lat="50.935949"><ele>18</ele><time>2022-06-26T08:01:15.000Z</time></trkpt><trkpt lon="5.720254" lat="50.935996"><ele>17.8</ele><time>2022-06-26T08:01:16.000Z</time></trkpt><trkpt lon="5.720155" lat="50.936078"><ele>17.8</ele><time>2022-06-26T08:01:17.000Z</time></trkpt><trkpt lon="5.720107" lat="50.936117"><ele>17.8</ele><time>2022-06-26T08:01:18.000Z</time></trkpt><trkpt lon="5.720002" lat="50.936204"><ele>17.8</ele><time>2022-06-26T08:01:19.000Z</time></trkpt><trkpt lon="5.719954" lat="50.936243"><ele>17.8</ele><time>2022-06-26T08:01:20.000Z</time></trkpt><trkpt lon="5.719852" lat="50.936326"><ele>17.6</ele><time>2022-06-26T08:01:21.000Z</time></trkpt><trkpt lon="5.719801" lat="50.936367"><ele>17.6</ele><time>2022-06-26T08:01:22.000Z</time></trkpt><trkpt lon="5.719701" lat="50.936448"><ele>17.6</ele><time>2022-06-26T08:01:23.000Z</time></trkpt><trkpt lon="5.719651" lat="50.936486"><ele>17.6</ele><time>2022-06-26T08:01:24.000Z</time></trkpt><trkpt lon="5.719546" lat="50.936562"><ele>17.6</ele><time>2022-06-26T08:01:25.000Z</time></trkpt><trkpt lon="5.719489" lat="50.936597"><ele>17.6</ele><time>2022-06-26T08:01:26.000Z</time></trkpt><trkpt lon="5.719367" lat="50.936669"><ele>17.6</ele><time>2022-06-26T08:01:27.000Z</time></trkpt><trkpt lon="5.719302" lat="50.936702"><ele>17.4</ele><time>2022-06-26T08:01:28.000Z</time></trkpt><trkpt lon="5.719165" lat="50.936764"><ele>17.4</ele><time>2022-06-26T08:01:29.000Z</time></trkpt><trkpt lon="5.719085" lat="50.936795"><ele>17.4</ele><time>2022-06-26T08:01:30.000Z</time></trkpt><trkpt lon="5.718947" lat="50.936848"><ele>17.2</ele><time>2022-06-26T08:01:31.000Z</time></trkpt><trkpt lon="5.718871" lat="50.936874"><ele>17.2</ele><time>2022-06-26T08:01:32.000Z</time></trkpt><trkpt lon="5.718721" lat="50.936924"><ele>17.2</ele><time>2022-06-26T08:01:33.000Z</time></trkpt><trkpt lon="5.718647" lat="50.936947"><ele>17.2</ele><time>2022-06-26T08:01:34.000Z</time></trkpt><trkpt lon="5.718498" lat="50.936993"><ele>17.4</ele><time>2022-06-26T08:01:35.000Z</time></trkpt><trkpt lon="5.718426" lat="50.937016"><ele>17.4</ele><time>2022-06-26T08:01:36.000Z</time></trkpt><trkpt lon="5.718282" lat="50.937066"><ele>17.4</ele><time>2022-06-26T08:01:37.000Z</time></trkpt><trkpt lon="5.718214" lat="50.937085"><ele>17.4</ele><time>2022-06-26T08:01:38.000Z</time></trkpt><trkpt lon="5.718076" lat="50.937131"><ele>17.4</ele><time>2022-06-26T08:01:39.000Z</time></trkpt><trkpt lon="5.718012" lat="50.937153"><ele>17.4</ele><time>2022-06-26T08:01:40.000Z</time></trkpt><trkpt lon="5.717885" lat="50.937203"><ele>17.4</ele><time>2022-06-26T08:01:41.000Z</time></trkpt><trkpt lon="5.717818" lat="50.937239"><ele>17.4</ele><time>2022-06-26T08:01:42.000Z</time></trkpt><trkpt lon="5.717727" lat="50.937301"><ele>17.4</ele><time>2022-06-26T08:01:43.000Z</time></trkpt><trkpt lon="5.717662" lat="50.937352"><ele>17.2</ele><time>2022-06-26T08:01:44.000Z</time></trkpt><trkpt lon="5.717569" lat="50.937428"><ele>17.2</ele><time>2022-06-26T08:01:45.000Z</time></trkpt><trkpt lon="5.717529" lat="50.93747"><ele>17</ele><time>2022-06-26T08:01:46.000Z</time></trkpt><trkpt lon="5.717448" lat="50.93757"><ele>17</ele><time>2022-06-26T08:01:47.000Z</time></trkpt><trkpt lon="5.717412" lat="50.937622"><ele>17</ele><time>2022-06-26T08:01:48.000Z</time></trkpt><trkpt lon="5.717343" lat="50.937722"><ele>17</ele><time>2022-06-26T08:01:49.000Z</time></trkpt><trkpt lon="5.717308" lat="50.937775"><ele>16.8</ele><time>2022-06-26T08:01:50.000Z</time></trkpt><trkpt lon="5.717248" lat="50.937871"><ele>16.8</ele><time>2022-06-26T08:01:51.000Z</time></trkpt><trkpt lon="5.717219" lat="50.937922"><ele>16.8</ele><time>2022-06-26T08:01:52.000Z</time></trkpt><trkpt lon="5.717158" lat="50.938024"><ele>16.6</ele><time>2022-06-26T08:01:53.000Z</time></trkpt><trkpt lon="5.717128" lat="50.938074"><ele>16.6</ele><time>2022-06-26T08:01:54.000Z</time></trkpt><trkpt lon="5.717063" lat="50.938176"><ele>16.6</ele><time>2022-06-26T08:01:55.000Z</time></trkpt><trkpt lon="5.71703" lat="50.938219"><ele>16.6</ele><time>2022-06-26T08:01:56.000Z</time></trkpt><trkpt lon="5.716961" lat="50.938317"><ele>16.4</ele><time>2022-06-26T08:01:57.000Z</time></trkpt><trkpt lon="5.716927" lat="50.938369"><ele>16.4</ele><time>2022-06-26T08:01:58.000Z</time></trkpt><trkpt lon="5.716861" lat="50.938462"><ele>16.2</ele><time>2022-06-26T08:01:59.000Z</time></trkpt><trkpt lon="5.716829" lat="50.938509"><ele>16.2</ele><time>2022-06-26T08:02:00.000Z</time></trkpt><trkpt lon="5.716764" lat="50.938603"><ele>16.2</ele><time>2022-06-26T08:02:01.000Z</time></trkpt><trkpt lon="5.716728" lat="50.938654"><ele>16.2</ele><time>2022-06-26T08:02:02.000Z</time></trkpt><trkpt lon="5.716674" lat="50.938729"><ele>16.2</ele><time>2022-06-26T08:02:03.000Z</time></trkpt><trkpt lon="5.716649" lat="50.938769"><ele>16.2</ele><time>2022-06-26T08:02:04.000Z</time></trkpt><trkpt lon="5.716593" lat="50.938855"><ele>16.2</ele><time>2022-06-26T08:02:05.000Z</time></trkpt><trkpt lon="5.716566" lat="50.938894"><ele>16.2</ele><time>2022-06-26T08:02:06.000Z</time></trkpt><trkpt lon="5.716514" lat="50.938969"><ele>16.4</ele><time>2022-06-26T08:02:07.000Z</time></trkpt><trkpt lon="5.716491" lat="50.939001"><ele>16.4</ele><time>2022-06-26T08:02:08.000Z</time></trkpt><trkpt lon="5.716441" lat="50.939072"><ele>16.6</ele><time>2022-06-26T08:02:09.000Z</time></trkpt><trkpt lon="5.716421" lat="50.939102"><ele>16.6</ele><time>2022-06-26T08:02:10.000Z</time></trkpt><trkpt lon="5.716395" lat="50.93916"><ele>16.6</ele><time>2022-06-26T08:02:11.000Z</time></trkpt><trkpt lon="5.7164" lat="50.93919"><ele>16.6</ele><time>2022-06-26T08:02:12.000Z</time></trkpt><trkpt lon="5.716434" lat="50.939255"><ele>16.6</ele><time>2022-06-26T08:02:13.000Z</time></trkpt><trkpt lon="5.716476" lat="50.93929"><ele>16.8</ele><time>2022-06-26T08:02:14.000Z</time></trkpt><trkpt lon="5.716572" lat="50.939343"><ele>16.8</ele><time>2022-06-26T08:02:15.000Z</time></trkpt><trkpt lon="5.716636" lat="50.939374"><ele>16.8</ele><time>2022-06-26T08:02:16.000Z</time></trkpt><trkpt lon="5.71677" lat="50.939431"><ele>16.8</ele><time>2022-06-26T08:02:17.000Z</time></trkpt><trkpt lon="5.716839" lat="50.939464"><ele>16.8</ele><time>2022-06-26T08:02:18.000Z</time></trkpt><trkpt lon="5.716978" lat="50.939526"><ele>16.8</ele><time>2022-06-26T08:02:19.000Z</time></trkpt><trkpt lon="5.717042" lat="50.939558"><ele>16.8</ele><time>2022-06-26T08:02:20.000Z</time></trkpt><trkpt lon="5.71718" lat="50.939622"><ele>16.8</ele><time>2022-06-26T08:02:21.000Z</time></trkpt><trkpt lon="5.717253" lat="50.939654"><ele>16.8</ele><time>2022-06-26T08:02:22.000Z</time></trkpt><trkpt lon="5.717387" lat="50.939713"><ele>16.8</ele><time>2022-06-26T08:02:23.000Z</time></trkpt><trkpt lon="5.717462" lat="50.939744"><ele>16.8</ele><time>2022-06-26T08:02:24.000Z</time></trkpt><trkpt lon="5.717594" lat="50.939801"><ele>16.8</ele><time>2022-06-26T08:02:25.000Z</time></trkpt><trkpt lon="5.717667" lat="50.939834"><ele>16.8</ele><time>2022-06-26T08:02:26.000Z</time></trkpt><trkpt lon="5.717792" lat="50.939896"><ele>16.8</ele><time>2022-06-26T08:02:27.000Z</time></trkpt><trkpt lon="5.717864" lat="50.939932"><ele>16.8</ele><time>2022-06-26T08:02:28.000Z</time></trkpt><trkpt lon="5.71799" lat="50.939992"><ele>16.6</ele><time>2022-06-26T08:02:29.000Z</time></trkpt><trkpt lon="5.718047" lat="50.940022"><ele>16.6</ele><time>2022-06-26T08:02:30.000Z</time></trkpt><trkpt lon="5.718183" lat="50.940083"><ele>16.4</ele><time>2022-06-26T08:02:31.000Z</time></trkpt><trkpt lon="5.718244" lat="50.940111"><ele>16.4</ele><time>2022-06-26T08:02:32.000Z</time></trkpt><trkpt lon="5.718377" lat="50.940175"><ele>16.6</ele><time>2022-06-26T08:02:33.000Z</time></trkpt><trkpt lon="5.718439" lat="50.940204"><ele>16.6</ele><time>2022-06-26T08:02:34.000Z</time></trkpt><trkpt lon="5.718574" lat="50.940266"><ele>16.6</ele><time>2022-06-26T08:02:35.000Z</time></trkpt><trkpt lon="5.718638" lat="50.940293"><ele>16.4</ele><time>2022-06-26T08:02:36.000Z</time></trkpt><trkpt lon="5.718769" lat="50.940354"><ele>16.6</ele><time>2022-06-26T08:02:37.000Z</time></trkpt><trkpt lon="5.718838" lat="50.940385"><ele>16.6</ele><time>2022-06-26T08:02:38.000Z</time></trkpt><trkpt lon="5.71897" lat="50.94045"><ele>16.6</ele><time>2022-06-26T08:02:39.000Z</time></trkpt><trkpt lon="5.719035" lat="50.940482"><ele>16.4</ele><time>2022-06-26T08:02:40.000Z</time></trkpt><trkpt lon="5.719168" lat="50.940545"><ele>16.4</ele><time>2022-06-26T08:02:41.000Z</time></trkpt><trkpt lon="5.719233" lat="50.940575"><ele>16.6</ele><time>2022-06-26T08:02:42.000Z</time></trkpt><trkpt lon="5.719364" lat="50.940636"><ele>16.6</ele><time>2022-06-26T08:02:43.000Z</time></trkpt><trkpt lon="5.71943" lat="50.940667"><ele>16.6</ele><time>2022-06-26T08:02:44.000Z</time></trkpt><trkpt lon="5.719561" lat="50.940728"><ele>16.4</ele><time>2022-06-26T08:02:45.000Z</time></trkpt><trkpt lon="5.719624" lat="50.940756"><ele>16.4</ele><time>2022-06-26T08:02:46.000Z</time></trkpt><trkpt lon="5.719764" lat="50.940819"><ele>16.6</ele><time>2022-06-26T08:02:47.000Z</time></trkpt><trkpt lon="5.719839" lat="50.940851"><ele>16.6</ele><time>2022-06-26T08:02:48.000Z</time></trkpt><trkpt lon="5.719963" lat="50.940907"><ele>16.6</ele><time>2022-06-26T08:02:49.000Z</time></trkpt><trkpt lon="5.720029" lat="50.94094"><ele>16.8</ele><time>2022-06-26T08:02:50.000Z</time></trkpt><trkpt lon="5.720165" lat="50.941003"><ele>16.8</ele><time>2022-06-26T08:02:51.000Z</time></trkpt><trkpt lon="5.720229" lat="50.941031"><ele>16.8</ele><time>2022-06-26T08:02:52.000Z</time></trkpt><trkpt lon="5.720369" lat="50.941094"><ele>16.8</ele><time>2022-06-26T08:02:53.000Z</time></trkpt><trkpt lon="5.720434" lat="50.941123"><ele>16.8</ele><time>2022-06-26T08:02:54.000Z</time></trkpt><trkpt lon="5.720576" lat="50.941185"><ele>16.8</ele><time>2022-06-26T08:02:55.000Z</time></trkpt><trkpt lon="5.72064" lat="50.941214"><ele>16.8</ele><time>2022-06-26T08:02:56.000Z</time></trkpt><trkpt lon="5.72078" lat="50.941277"><ele>16.8</ele><time>2022-06-26T08:02:57.000Z</time></trkpt><trkpt lon="5.720852" lat="50.941317"><ele>16.6</ele><time>2022-06-26T08:02:58.000Z</time></trkpt><trkpt lon="5.720982" lat="50.941376"><ele>16.6</ele><time>2022-06-26T08:02:59.000Z</time></trkpt><trkpt lon="5.721042" lat="50.941404"><ele>16.6</ele><time>2022-06-26T08:03:00.000Z</time></trkpt><trkpt lon="5.721182" lat="50.941476"><ele>16.6</ele><time>2022-06-26T08:03:01.000Z</time></trkpt><trkpt lon="5.721257" lat="50.941507"><ele>16.4</ele><time>2022-06-26T08:03:02.000Z</time></trkpt><trkpt lon="5.721386" lat="50.941567"><ele>16.4</ele><time>2022-06-26T08:03:03.000Z</time></trkpt><trkpt lon="5.721445" lat="50.941596"><ele>16.4</ele><time>2022-06-26T08:03:04.000Z</time></trkpt><trkpt lon="5.721584" lat="50.941662"><ele>16.4</ele><time>2022-06-26T08:03:05.000Z</time></trkpt><trkpt lon="5.721658" lat="50.941696"><ele>16.4</ele><time>2022-06-26T08:03:06.000Z</time></trkpt><trkpt lon="5.72178" lat="50.941754"><ele>16.4</ele><time>2022-06-26T08:03:07.000Z</time></trkpt><trkpt lon="5.72185" lat="50.941783"><ele>16.4</ele><time>2022-06-26T08:03:08.000Z</time></trkpt><trkpt lon="5.721986" lat="50.941842"><ele>16.4</ele><time>2022-06-26T08:03:09.000Z</time></trkpt><trkpt lon="5.72205" lat="50.941869"><ele>16.4</ele><time>2022-06-26T08:03:10.000Z</time></trkpt><trkpt lon="5.722198" lat="50.94193"><ele>16.4</ele><time>2022-06-26T08:03:11.000Z</time></trkpt><trkpt lon="5.722268" lat="50.941959"><ele>16.4</ele><time>2022-06-26T08:03:12.000Z</time></trkpt><trkpt lon="5.722419" lat="50.942013"><ele>16.2</ele><time>2022-06-26T08:03:13.000Z</time></trkpt><trkpt lon="5.722491" lat="50.942035"><ele>16.2</ele><time>2022-06-26T08:03:14.000Z</time></trkpt><trkpt lon="5.72265" lat="50.942086"><ele>16.2</ele><time>2022-06-26T08:03:15.000Z</time></trkpt><trkpt lon="5.722734" lat="50.942111"><ele>16.2</ele><time>2022-06-26T08:03:16.000Z</time></trkpt><trkpt lon="5.722888" lat="50.942151"><ele>16.2</ele><time>2022-06-26T08:03:17.000Z</time></trkpt><trkpt lon="5.722971" lat="50.94217"><ele>16.2</ele><time>2022-06-26T08:03:18.000Z</time></trkpt><trkpt lon="5.723124" lat="50.942208"><ele>16</ele><time>2022-06-26T08:03:19.000Z</time></trkpt><trkpt lon="5.7232" lat="50.942225"><ele>16</ele><time>2022-06-26T08:03:20.000Z</time></trkpt><trkpt lon="5.723364" lat="50.942265"><ele>16</ele><time>2022-06-26T08:03:21.000Z</time></trkpt><trkpt lon="5.723446" lat="50.942286"><ele>15.8</ele><time>2022-06-26T08:03:22.000Z</time></trkpt><trkpt lon="5.723603" lat="50.942322"><ele>16</ele><time>2022-06-26T08:03:23.000Z</time></trkpt><trkpt lon="5.723676" lat="50.942338"><ele>16</ele><time>2022-06-26T08:03:24.000Z</time></trkpt><trkpt lon="5.723844" lat="50.942376"><ele>16</ele><time>2022-06-26T08:03:25.000Z</time></trkpt><trkpt lon="5.723925" lat="50.942397"><ele>16</ele><time>2022-06-26T08:03:26.000Z</time></trkpt><trkpt lon="5.724079" lat="50.942433"><ele>16</ele><time>2022-06-26T08:03:27.000Z</time></trkpt><trkpt lon="5.724157" lat="50.942453"><ele>16</ele><time>2022-06-26T08:03:28.000Z</time></trkpt><trkpt lon="5.724317" lat="50.94249"><ele>15.8</ele><time>2022-06-26T08:03:29.000Z</time></trkpt><trkpt lon="5.724395" lat="50.942508"><ele>15.8</ele><time>2022-06-26T08:03:30.000Z</time></trkpt><trkpt lon="5.724548" lat="50.942547"><ele>15.8</ele><time>2022-06-26T08:03:31.000Z</time></trkpt><trkpt lon="5.72462" lat="50.942564"><ele>15.8</ele><time>2022-06-26T08:03:32.000Z</time></trkpt><trkpt lon="5.724779" lat="50.942601"><ele>15.8</ele><time>2022-06-26T08:03:33.000Z</time></trkpt><trkpt lon="5.724861" lat="50.942619"><ele>15.8</ele><time>2022-06-26T08:03:34.000Z</time></trkpt><trkpt lon="5.72501" lat="50.942658"><ele>15.8</ele><time>2022-06-26T08:03:35.000Z</time></trkpt><trkpt lon="5.725081" lat="50.942674"><ele>15.8</ele><time>2022-06-26T08:03:36.000Z</time></trkpt><trkpt lon="5.725243" lat="50.942711"><ele>15.8</ele><time>2022-06-26T08:03:37.000Z</time></trkpt><trkpt lon="5.725312" lat="50.942728"><ele>16</ele><time>2022-06-26T08:03:38.000Z</time></trkpt><trkpt lon="5.725465" lat="50.942768"><ele>16</ele><time>2022-06-26T08:03:39.000Z</time></trkpt><trkpt lon="5.725542" lat="50.942786"><ele>16</ele><time>2022-06-26T08:03:40.000Z</time></trkpt><trkpt lon="5.725692" lat="50.942825"><ele>16</ele><time>2022-06-26T08:03:41.000Z</time></trkpt><trkpt lon="5.725775" lat="50.942851"><ele>16</ele><time>2022-06-26T08:03:42.000Z</time></trkpt><trkpt lon="5.725914" lat="50.94289"><ele>16.2</ele><time>2022-06-26T08:03:43.000Z</time></trkpt><trkpt lon="5.725979" lat="50.942911"><ele>16.2</ele><time>2022-06-26T08:03:44.000Z</time></trkpt><trkpt lon="5.726135" lat="50.942963"><ele>16.2</ele><time>2022-06-26T08:03:45.000Z</time></trkpt><trkpt lon="5.726199" lat="50.942983"><ele>16.2</ele><time>2022-06-26T08:03:46.000Z</time></trkpt><trkpt lon="5.726351" lat="50.943035"><ele>16.2</ele><time>2022-06-26T08:03:47.000Z</time></trkpt><trkpt lon="5.726413" lat="50.943058"><ele>16.4</ele><time>2022-06-26T08:03:48.000Z</time></trkpt><trkpt lon="5.726561" lat="50.943116"><ele>16.4</ele><time>2022-06-26T08:03:49.000Z</time></trkpt><trkpt lon="5.726625" lat="50.943139"><ele>16.4</ele><time>2022-06-26T08:03:50.000Z</time></trkpt><trkpt lon="5.72677" lat="50.943192"><ele>16.2</ele><time>2022-06-26T08:03:51.000Z</time></trkpt><trkpt lon="5.726838" lat="50.94322"><ele>16.2</ele><time>2022-06-26T08:03:52.000Z</time></trkpt><trkpt lon="5.726976" lat="50.943276"><ele>16.2</ele><time>2022-06-26T08:03:53.000Z</time></trkpt><trkpt lon="5.727039" lat="50.943303"><ele>16.2</ele><time>2022-06-26T08:03:54.000Z</time></trkpt><trkpt lon="5.727188" lat="50.943364"><ele>16.2</ele><time>2022-06-26T08:03:55.000Z</time></trkpt><trkpt lon="5.727247" lat="50.943387"><ele>16</ele><time>2022-06-26T08:03:56.000Z</time></trkpt><trkpt lon="5.727401" lat="50.943448"><ele>16</ele><time>2022-06-26T08:03:57.000Z</time></trkpt><trkpt lon="5.727457" lat="50.943472"><ele>16</ele><time>2022-06-26T08:03:58.000Z</time></trkpt><trkpt lon="5.727616" lat="50.943535"><ele>16</ele><time>2022-06-26T08:03:59.000Z</time></trkpt><trkpt lon="5.727673" lat="50.943557"><ele>16</ele><time>2022-06-26T08:04:00.000Z</time></trkpt><trkpt lon="5.727741" lat="50.943583"><ele>16</ele><time>2022-06-26T08:04:01.000Z</time></trkpt><trkpt lon="5.72794" lat="50.943662"><ele>15.8</ele><time>2022-06-26T08:04:02.000Z</time></trkpt><trkpt lon="5.728045" lat="50.943705"><ele>15.8</ele><time>2022-06-26T08:04:03.000Z</time></trkpt><trkpt lon="5.72815" lat="50.943749"><ele>15.8</ele><time>2022-06-26T08:04:04.000Z</time></trkpt><trkpt lon="5.728254" lat="50.943793"><ele>15.8</ele><time>2022-06-26T08:04:05.000Z</time></trkpt><trkpt lon="5.728359" lat="50.943837"><ele>16</ele><time>2022-06-26T08:04:06.000Z</time></trkpt><trkpt lon="5.728465" lat="50.943879"><ele>15.8</ele><time>2022-06-26T08:04:07.000Z</time></trkpt><trkpt lon="5.728572" lat="50.94392"><ele>15.8</ele><time>2022-06-26T08:04:08.000Z</time></trkpt><trkpt lon="5.728677" lat="50.943958"><ele>15.8</ele><time>2022-06-26T08:04:09.000Z</time></trkpt><trkpt lon="5.728787" lat="50.943997"><ele>15.8</ele><time>2022-06-26T08:04:10.000Z</time></trkpt><trkpt lon="5.728893" lat="50.944039"><ele>15.8</ele><time>2022-06-26T08:04:11.000Z</time></trkpt><trkpt lon="5.728999" lat="50.944085"><ele>15.8</ele><time>2022-06-26T08:04:12.000Z</time></trkpt><trkpt lon="5.729105" lat="50.944127"><ele>15.8</ele><time>2022-06-26T08:04:13.000Z</time></trkpt><trkpt lon="5.72921" lat="50.944171"><ele>16</ele><time>2022-06-26T08:04:14.000Z</time></trkpt><trkpt lon="5.729315" lat="50.944215"><ele>16</ele><time>2022-06-26T08:04:15.000Z</time></trkpt><trkpt lon="5.72942" lat="50.944261"><ele>16</ele><time>2022-06-26T08:04:16.000Z</time></trkpt><trkpt lon="5.729524" lat="50.944302"><ele>16</ele><time>2022-06-26T08:04:17.000Z</time></trkpt><trkpt lon="5.729626" lat="50.944345"><ele>16</ele><time>2022-06-26T08:04:18.000Z</time></trkpt><trkpt lon="5.729728" lat="50.944389"><ele>16</ele><time>2022-06-26T08:04:19.000Z</time></trkpt><trkpt lon="5.72983" lat="50.944435"><ele>16</ele><time>2022-06-26T08:04:20.000Z</time></trkpt><trkpt lon="5.729933" lat="50.944476"><ele>16</ele><time>2022-06-26T08:04:21.000Z</time></trkpt><trkpt lon="5.730039" lat="50.944519"><ele>15.8</ele><time>2022-06-26T08:04:22.000Z</time></trkpt><trkpt lon="5.730141" lat="50.944561"><ele>15.8</ele><time>2022-06-26T08:04:23.000Z</time></trkpt><trkpt lon="5.730245" lat="50.944603"><ele>15.8</ele><time>2022-06-26T08:04:24.000Z</time></trkpt><trkpt lon="5.730348" lat="50.944645"><ele>15.8</ele><time>2022-06-26T08:04:25.000Z</time></trkpt><trkpt lon="5.73045" lat="50.944687"><ele>15.8</ele><time>2022-06-26T08:04:26.000Z</time></trkpt><trkpt lon="5.730553" lat="50.944729"><ele>15.8</ele><time>2022-06-26T08:04:27.000Z</time></trkpt><trkpt lon="5.730655" lat="50.944773"><ele>16</ele><time>2022-06-26T08:04:28.000Z</time></trkpt><trkpt lon="5.730767" lat="50.944818"><ele>16</ele><time>2022-06-26T08:04:29.000Z</time></trkpt><trkpt lon="5.730875" lat="50.944856"><ele>16</ele><time>2022-06-26T08:04:30.000Z</time></trkpt><trkpt lon="5.730983" lat="50.944894"><ele>15.8</ele><time>2022-06-26T08:04:31.000Z</time></trkpt><trkpt lon="5.73109" lat="50.944928"><ele>15.8</ele><time>2022-06-26T08:04:32.000Z</time></trkpt><trkpt lon="5.731197" lat="50.944955"><ele>15.8</ele><time>2022-06-26T08:04:33.000Z</time></trkpt><trkpt lon="5.731308" lat="50.944985"><ele>16</ele><time>2022-06-26T08:04:34.000Z</time></trkpt><trkpt lon="5.731422" lat="50.945015"><ele>16</ele><time>2022-06-26T08:04:35.000Z</time></trkpt><trkpt lon="5.731531" lat="50.945042"><ele>16</ele><time>2022-06-26T08:04:36.000Z</time></trkpt><trkpt lon="5.731634" lat="50.945065"><ele>16</ele><time>2022-06-26T08:04:37.000Z</time></trkpt><trkpt lon="5.731732" lat="50.945084"><ele>16</ele><time>2022-06-26T08:04:38.000Z</time></trkpt><trkpt lon="5.731832" lat="50.945099"><ele>16.2</ele><time>2022-06-26T08:04:39.000Z</time></trkpt><trkpt lon="5.731928" lat="50.945118"><ele>16.2</ele><time>2022-06-26T08:04:40.000Z</time></trkpt><trkpt lon="5.732022" lat="50.945137"><ele>16.2</ele><time>2022-06-26T08:04:41.000Z</time></trkpt><trkpt lon="5.732108" lat="50.945157"><ele>16.2</ele><time>2022-06-26T08:04:42.000Z</time></trkpt><trkpt lon="5.732183" lat="50.945184"><ele>16.2</ele><time>2022-06-26T08:04:43.000Z</time></trkpt><trkpt lon="5.732231" lat="50.945217"><ele>16.2</ele><time>2022-06-26T08:04:44.000Z</time></trkpt><trkpt lon="5.732265" lat="50.945268"><ele>16.4</ele><time>2022-06-26T08:04:45.000Z</time></trkpt><trkpt lon="5.732263" lat="50.945321"><ele>16.6</ele><time>2022-06-26T08:04:46.000Z</time></trkpt><trkpt lon="5.732237" lat="50.945367"><ele>16.6</ele><time>2022-06-26T08:04:47.000Z</time></trkpt><trkpt lon="5.732202" lat="50.945413"><ele>16.6</ele><time>2022-06-26T08:04:48.000Z</time></trkpt><trkpt lon="5.732163" lat="50.945455"><ele>16.6</ele><time>2022-06-26T08:04:49.000Z</time></trkpt><trkpt lon="5.732123" lat="50.945496"><ele>16.8</ele><time>2022-06-26T08:04:50.000Z</time></trkpt><trkpt lon="5.732086" lat="50.945531"><ele>16.8</ele><time>2022-06-26T08:04:51.000Z</time></trkpt><trkpt lon="5.732051" lat="50.945565"><ele>17</ele><time>2022-06-26T08:04:52.000Z</time></trkpt><trkpt lon="5.732023" lat="50.945591"><ele>17</ele><time>2022-06-26T08:04:53.000Z</time></trkpt><trkpt lon="5.732001" lat="50.94561"><ele>17</ele><time>2022-06-26T08:04:54.000Z</time></trkpt><trkpt lon="5.731986" lat="50.945626"><ele>17.2</ele><time>2022-06-26T08:04:55.000Z</time></trkpt><trkpt lon="5.731971" lat="50.945645"><ele>17.2</ele><time>2022-06-26T08:04:56.000Z</time></trkpt><trkpt lon="5.731958" lat="50.945656"><ele>17.2</ele><time>2022-06-26T08:04:57.000Z</time></trkpt><trkpt lon="5.731938" lat="50.945663"><ele>17.2</ele><time>2022-06-26T08:04:58.000Z</time></trkpt><trkpt lon="5.731917" lat="50.945663"><ele>17.2</ele><time>2022-06-26T08:04:59.000Z</time></trkpt><trkpt lon="5.731898" lat="50.945652"><ele>17.4</ele><time>2022-06-26T08:05:00.000Z</time></trkpt><trkpt lon="5.731897" lat="50.945633"><ele>17.4</ele><time>2022-06-26T08:05:01.000Z</time></trkpt><trkpt lon="5.731912" lat="50.94561"><ele>17.4</ele><time>2022-06-26T08:05:02.000Z</time></trkpt><trkpt lon="5.731939" lat="50.945583"><ele>17.2</ele><time>2022-06-26T08:05:03.000Z</time></trkpt><trkpt lon="5.731976" lat="50.945552"><ele>17.2</ele><time>2022-06-26T08:05:04.000Z</time></trkpt><trkpt lon="5.732014" lat="50.94551"><ele>17.2</ele><time>2022-06-26T08:05:05.000Z</time></trkpt><trkpt lon="5.732056" lat="50.945464"><ele>17</ele><time>2022-06-26T08:05:06.000Z</time></trkpt><trkpt lon="5.732101" lat="50.945415"><ele>16.8</ele><time>2022-06-26T08:05:07.000Z</time></trkpt><trkpt lon="5.732147" lat="50.945366"><ele>16.6</ele><time>2022-06-26T08:05:08.000Z</time></trkpt><trkpt lon="5.732195" lat="50.945315"><ele>16.4</ele><time>2022-06-26T08:05:09.000Z</time></trkpt><trkpt lon="5.732246" lat="50.945278"><ele>16.4</ele><time>2022-06-26T08:05:10.000Z</time></trkpt><trkpt lon="5.732325" lat="50.94524"><ele>16.2</ele><time>2022-06-26T08:05:11.000Z</time></trkpt><trkpt lon="5.732397" lat="50.945224"><ele>16.2</ele><time>2022-06-26T08:05:12.000Z</time></trkpt><trkpt lon="5.732512" lat="50.945214"><ele>16</ele><time>2022-06-26T08:05:13.000Z</time></trkpt><trkpt lon="5.732602" lat="50.945223"><ele>16</ele><time>2022-06-26T08:05:14.000Z</time></trkpt><trkpt lon="5.732733" lat="50.945241"><ele>15.6</ele><time>2022-06-26T08:05:15.000Z</time></trkpt><trkpt lon="5.73285" lat="50.945263"><ele>15.6</ele><time>2022-06-26T08:05:16.000Z</time></trkpt><trkpt lon="5.732974" lat="50.945286"><ele>15.4</ele><time>2022-06-26T08:05:17.000Z</time></trkpt><trkpt lon="5.733086" lat="50.945307"><ele>15.6</ele><time>2022-06-26T08:05:18.000Z</time></trkpt><trkpt lon="5.73323" lat="50.945332"><ele>15.8</ele><time>2022-06-26T08:05:19.000Z</time></trkpt><trkpt lon="5.733356" lat="50.945351"><ele>16</ele><time>2022-06-26T08:05:20.000Z</time></trkpt><trkpt lon="5.733482" lat="50.945374"><ele>16</ele><time>2022-06-26T08:05:21.000Z</time></trkpt><trkpt lon="5.733599" lat="50.945399"><ele>16</ele><time>2022-06-26T08:05:22.000Z</time></trkpt><trkpt lon="5.733737" lat="50.945427"><ele>16.2</ele><time>2022-06-26T08:05:23.000Z</time></trkpt><trkpt lon="5.733866" lat="50.945457"><ele>16.2</ele><time>2022-06-26T08:05:24.000Z</time></trkpt><trkpt lon="5.734003" lat="50.945485"><ele>16</ele><time>2022-06-26T08:05:25.000Z</time></trkpt><trkpt lon="5.73414" lat="50.945507"><ele>16</ele><time>2022-06-26T08:05:26.000Z</time></trkpt><trkpt lon="5.734267" lat="50.945528"><ele>16</ele><time>2022-06-26T08:05:27.000Z</time></trkpt><trkpt lon="5.734402" lat="50.945552"><ele>16.2</ele><time>2022-06-26T08:05:28.000Z</time></trkpt><trkpt lon="5.73454" lat="50.945576"><ele>16.4</ele><time>2022-06-26T08:05:29.000Z</time></trkpt><trkpt lon="5.734686" lat="50.9456"><ele>16.6</ele><time>2022-06-26T08:05:30.000Z</time></trkpt><trkpt lon="5.734833" lat="50.945626"><ele>16.6</ele><time>2022-06-26T08:05:31.000Z</time></trkpt><trkpt lon="5.734957" lat="50.945649"><ele>16.8</ele><time>2022-06-26T08:05:32.000Z</time></trkpt><trkpt lon="5.735076" lat="50.945672"><ele>16.8</ele><time>2022-06-26T08:05:33.000Z</time></trkpt><trkpt lon="5.735179" lat="50.945692"><ele>16.8</ele><time>2022-06-26T08:05:34.000Z</time></trkpt><trkpt lon="5.735301" lat="50.945717"><ele>17</ele><time>2022-06-26T08:05:35.000Z</time></trkpt><trkpt lon="5.735405" lat="50.945739"><ele>17</ele><time>2022-06-26T08:05:36.000Z</time></trkpt><trkpt lon="5.735521" lat="50.945759"><ele>17.2</ele><time>2022-06-26T08:05:37.000Z</time></trkpt><trkpt lon="5.735628" lat="50.945782"><ele>17.2</ele><time>2022-06-26T08:05:38.000Z</time></trkpt><trkpt lon="5.735739" lat="50.945809"><ele>17.2</ele><time>2022-06-26T08:05:39.000Z</time></trkpt><trkpt lon="5.735842" lat="50.94583"><ele>17.2</ele><time>2022-06-26T08:05:40.000Z</time></trkpt><trkpt lon="5.735964" lat="50.945851"><ele>17.2</ele><time>2022-06-26T08:05:41.000Z</time></trkpt><trkpt lon="5.736077" lat="50.945874"><ele>17.2</ele><time>2022-06-26T08:05:42.000Z</time></trkpt><trkpt lon="5.736188" lat="50.9459"><ele>17</ele><time>2022-06-26T08:05:43.000Z</time></trkpt><trkpt lon="5.736291" lat="50.945922"><ele>17</ele><time>2022-06-26T08:05:44.000Z</time></trkpt><trkpt lon="5.736406" lat="50.945946"><ele>16.8</ele><time>2022-06-26T08:05:45.000Z</time></trkpt><trkpt lon="5.736509" lat="50.945968"><ele>16.8</ele><time>2022-06-26T08:05:46.000Z</time></trkpt><trkpt lon="5.736622" lat="50.945992"><ele>16.8</ele><time>2022-06-26T08:05:47.000Z</time></trkpt><trkpt lon="5.736721" lat="50.946005"><ele>16.6</ele><time>2022-06-26T08:05:48.000Z</time></trkpt><trkpt lon="5.736848" lat="50.94603"><ele>16.8</ele><time>2022-06-26T08:05:49.000Z</time></trkpt><trkpt lon="5.736952" lat="50.946048"><ele>16.8</ele><time>2022-06-26T08:05:50.000Z</time></trkpt><trkpt lon="5.737072" lat="50.946072"><ele>16.6</ele><time>2022-06-26T08:05:51.000Z</time></trkpt><trkpt lon="5.737175" lat="50.94609"><ele>16.6</ele><time>2022-06-26T08:05:52.000Z</time></trkpt><trkpt lon="5.737299" lat="50.946114"><ele>16.6</ele><time>2022-06-26T08:05:53.000Z</time></trkpt><trkpt lon="5.737405" lat="50.946136"><ele>16.6</ele><time>2022-06-26T08:05:54.000Z</time></trkpt><trkpt lon="5.737519" lat="50.94616"><ele>16.8</ele><time>2022-06-26T08:05:55.000Z</time></trkpt><trkpt lon="5.737632" lat="50.946179"><ele>16.8</ele><time>2022-06-26T08:05:56.000Z</time></trkpt><trkpt lon="5.737742" lat="50.946202"><ele>16.6</ele><time>2022-06-26T08:05:57.000Z</time></trkpt><trkpt lon="5.737832" lat="50.946217"><ele>16.6</ele><time>2022-06-26T08:05:58.000Z</time></trkpt><trkpt lon="5.737968" lat="50.94624"><ele>16.6</ele><time>2022-06-26T08:05:59.000Z</time></trkpt><trkpt lon="5.738078" lat="50.946258"><ele>16.6</ele><time>2022-06-26T08:06:00.000Z</time></trkpt><trkpt lon="5.738204" lat="50.946278"><ele>16.6</ele><time>2022-06-26T08:06:01.000Z</time></trkpt><trkpt lon="5.73831" lat="50.946295"><ele>16.6</ele><time>2022-06-26T08:06:02.000Z</time></trkpt><trkpt lon="5.738437" lat="50.94632"><ele>16.6</ele><time>2022-06-26T08:06:03.000Z</time></trkpt><trkpt lon="5.738536" lat="50.946336"><ele>16.6</ele><time>2022-06-26T08:06:04.000Z</time></trkpt><trkpt lon="5.738674" lat="50.946358"><ele>16.6</ele><time>2022-06-26T08:06:05.000Z</time></trkpt><trkpt lon="5.738769" lat="50.946377"><ele>16.6</ele><time>2022-06-26T08:06:06.000Z</time></trkpt><trkpt lon="5.73891" lat="50.946404"><ele>16.4</ele><time>2022-06-26T08:06:07.000Z</time></trkpt><trkpt lon="5.739026" lat="50.946431"><ele>16.4</ele><time>2022-06-26T08:06:08.000Z</time></trkpt><trkpt lon="5.739144" lat="50.946454"><ele>16.4</ele><time>2022-06-26T08:06:09.000Z</time></trkpt><trkpt lon="5.739241" lat="50.946473"><ele>16.4</ele><time>2022-06-26T08:06:10.000Z</time></trkpt><trkpt lon="5.739378" lat="50.9465"><ele>16.4</ele><time>2022-06-26T08:06:11.000Z</time></trkpt><trkpt lon="5.739491" lat="50.946526"><ele>16.4</ele><time>2022-06-26T08:06:12.000Z</time></trkpt><trkpt lon="5.7396" lat="50.946557"><ele>16.4</ele><time>2022-06-26T08:06:13.000Z</time></trkpt><trkpt lon="5.739683" lat="50.94658"><ele>16.4</ele><time>2022-06-26T08:06:14.000Z</time></trkpt><trkpt lon="5.739811" lat="50.946613"><ele>16.4</ele><time>2022-06-26T08:06:15.000Z</time></trkpt><trkpt lon="5.739904" lat="50.946641"><ele>16.4</ele><time>2022-06-26T08:06:16.000Z</time></trkpt><trkpt lon="5.740015" lat="50.946679"><ele>16.6</ele><time>2022-06-26T08:06:17.000Z</time></trkpt><trkpt lon="5.740098" lat="50.9467"><ele>16.6</ele><time>2022-06-26T08:06:18.000Z</time></trkpt><trkpt lon="5.740226" lat="50.946732"><ele>16.6</ele><time>2022-06-26T08:06:19.000Z</time></trkpt><trkpt lon="5.740321" lat="50.946756"><ele>16.6</ele><time>2022-06-26T08:06:20.000Z</time></trkpt><trkpt lon="5.740435" lat="50.946785"><ele>16.6</ele><time>2022-06-26T08:06:21.000Z</time></trkpt><trkpt lon="5.740536" lat="50.946812"><ele>16.6</ele><time>2022-06-26T08:06:22.000Z</time></trkpt><trkpt lon="5.740637" lat="50.946839"><ele>16.6</ele><time>2022-06-26T08:06:23.000Z</time></trkpt><trkpt lon="5.740718" lat="50.946864"><ele>16.6</ele><time>2022-06-26T08:06:24.000Z</time></trkpt><trkpt lon="5.740835" lat="50.946896"><ele>16.8</ele><time>2022-06-26T08:06:25.000Z</time></trkpt><trkpt lon="5.740921" lat="50.946923"><ele>16.8</ele><time>2022-06-26T08:06:26.000Z</time></trkpt><trkpt lon="5.741025" lat="50.946961"><ele>16.8</ele><time>2022-06-26T08:06:27.000Z</time></trkpt><trkpt lon="5.7411" lat="50.946987"><ele>16.8</ele><time>2022-06-26T08:06:28.000Z</time></trkpt><trkpt lon="5.741195" lat="50.947018"><ele>16.8</ele><time>2022-06-26T08:06:29.000Z</time></trkpt><trkpt lon="5.741272" lat="50.947043"><ele>16.8</ele><time>2022-06-26T08:06:30.000Z</time></trkpt><trkpt lon="5.741354" lat="50.947071"><ele>16.8</ele><time>2022-06-26T08:06:31.000Z</time></trkpt><trkpt lon="5.741412" lat="50.947092"><ele>17</ele><time>2022-06-26T08:06:32.000Z</time></trkpt><trkpt lon="5.741504" lat="50.947117"><ele>17</ele><time>2022-06-26T08:06:33.000Z</time></trkpt><trkpt lon="5.741566" lat="50.947134"><ele>17</ele><time>2022-06-26T08:06:34.000Z</time></trkpt><trkpt lon="5.741649" lat="50.947151"><ele>17</ele><time>2022-06-26T08:06:35.000Z</time></trkpt><trkpt lon="5.74172" lat="50.947163"><ele>17</ele><time>2022-06-26T08:06:36.000Z</time></trkpt><trkpt lon="5.741786" lat="50.947178"><ele>17.2</ele><time>2022-06-26T08:06:37.000Z</time></trkpt><trkpt lon="5.741849" lat="50.947193"><ele>17.2</ele><time>2022-06-26T08:06:38.000Z</time></trkpt><trkpt lon="5.741911" lat="50.947209"><ele>17.2</ele><time>2022-06-26T08:06:39.000Z</time></trkpt><trkpt lon="5.741971" lat="50.947224"><ele>17.2</ele><time>2022-06-26T08:06:40.000Z</time></trkpt><trkpt lon="5.74202" lat="50.947237"><ele>17.2</ele><time>2022-06-26T08:06:41.000Z</time></trkpt><trkpt lon="5.742081" lat="50.947254"><ele>17.2</ele><time>2022-06-26T08:06:42.000Z</time></trkpt><trkpt lon="5.742131" lat="50.947265"><ele>17.2</ele><time>2022-06-26T08:06:43.000Z</time></trkpt><trkpt lon="5.74217" lat="50.947274"><ele>17.2</ele><time>2022-06-26T08:06:44.000Z</time></trkpt><trkpt lon="5.742238" lat="50.947285"><ele>17.2</ele><time>2022-06-26T08:06:45.000Z</time></trkpt><trkpt lon="5.742289" lat="50.947293"><ele>17.2</ele><time>2022-06-26T08:06:46.000Z</time></trkpt><trkpt lon="5.742328" lat="50.947303"><ele>17.2</ele><time>2022-06-26T08:06:47.000Z</time></trkpt><trkpt lon="5.742381" lat="50.947315"><ele>17.4</ele><time>2022-06-26T08:06:48.000Z</time></trkpt><trkpt lon="5.742433" lat="50.947327"><ele>17.4</ele><time>2022-06-26T08:06:49.000Z</time></trkpt><trkpt lon="5.742488" lat="50.947338"><ele>17.2</ele><time>2022-06-26T08:06:50.000Z</time></trkpt><trkpt lon="5.74255" lat="50.947354"><ele>17.2</ele><time>2022-06-26T08:06:51.000Z</time></trkpt><trkpt lon="5.742613" lat="50.947373"><ele>17.2</ele><time>2022-06-26T08:06:52.000Z</time></trkpt><trkpt lon="5.742665" lat="50.94739"><ele>17.2</ele><time>2022-06-26T08:06:53.000Z</time></trkpt><trkpt lon="5.742754" lat="50.947415"><ele>17.2</ele><time>2022-06-26T08:06:54.000Z</time></trkpt><trkpt lon="5.742815" lat="50.947433"><ele>17.2</ele><time>2022-06-26T08:06:55.000Z</time></trkpt><trkpt lon="5.742907" lat="50.947457"><ele>17.2</ele><time>2022-06-26T08:06:56.000Z</time></trkpt><trkpt lon="5.742965" lat="50.947475"><ele>17.2</ele><time>2022-06-26T08:06:57.000Z</time></trkpt><trkpt lon="5.743051" lat="50.947499"><ele>17.2</ele><time>2022-06-26T08:06:58.000Z</time></trkpt><trkpt lon="5.743104" lat="50.947511"><ele>17.2</ele><time>2022-06-26T08:06:59.000Z</time></trkpt><trkpt lon="5.743173" lat="50.947529"><ele>17.2</ele><time>2022-06-26T08:07:00.000Z</time></trkpt><trkpt lon="5.743222" lat="50.947544"><ele>17.2</ele><time>2022-06-26T08:07:01.000Z</time></trkpt><trkpt lon="5.743257" lat="50.947556"><ele>17.2</ele><time>2022-06-26T08:07:02.000Z</time></trkpt><trkpt lon="5.743314" lat="50.947575"><ele>17.2</ele><time>2022-06-26T08:07:03.000Z</time></trkpt><trkpt lon="5.743354" lat="50.947594"><ele>17.2</ele><time>2022-06-26T08:07:04.000Z</time></trkpt><trkpt lon="5.743372" lat="50.947616"><ele>17.2</ele><time>2022-06-26T08:07:05.000Z</time></trkpt><trkpt lon="5.743381" lat="50.947655"><ele>17.2</ele><time>2022-06-26T08:07:06.000Z</time></trkpt><trkpt lon="5.743363" lat="50.947689"><ele>17.2</ele><time>2022-06-26T08:07:07.000Z</time></trkpt><trkpt lon="5.74334" lat="50.947718"><ele>17</ele><time>2022-06-26T08:07:08.000Z</time></trkpt><trkpt lon="5.743299" lat="50.947778"><ele>17</ele><time>2022-06-26T08:07:09.000Z</time></trkpt><trkpt lon="5.743268" lat="50.947821"><ele>17</ele><time>2022-06-26T08:07:10.000Z</time></trkpt><trkpt lon="5.743225" lat="50.947884"><ele>16.8</ele><time>2022-06-26T08:07:11.000Z</time></trkpt><trkpt lon="5.743195" lat="50.947937"><ele>16.8</ele><time>2022-06-26T08:07:12.000Z</time></trkpt><trkpt lon="5.743156" lat="50.948014"><ele>16.6</ele><time>2022-06-26T08:07:13.000Z</time></trkpt><trkpt lon="5.743135" lat="50.948065"><ele>16.6</ele><time>2022-06-26T08:07:14.000Z</time></trkpt><trkpt lon="5.743091" lat="50.948152"><ele>16.6</ele><time>2022-06-26T08:07:15.000Z</time></trkpt><trkpt lon="5.743064" lat="50.948207"><ele>16.6</ele><time>2022-06-26T08:07:16.000Z</time></trkpt><trkpt lon="5.743026" lat="50.948289"><ele>16.6</ele><time>2022-06-26T08:07:17.000Z</time></trkpt><trkpt lon="5.743004" lat="50.948341"><ele>16.6</ele><time>2022-06-26T08:07:18.000Z</time></trkpt><trkpt lon="5.742965" lat="50.948422"><ele>16.6</ele><time>2022-06-26T08:07:19.000Z</time></trkpt><trkpt lon="5.742939" lat="50.948475"><ele>16.4</ele><time>2022-06-26T08:07:20.000Z</time></trkpt><trkpt lon="5.742899" lat="50.948552"><ele>16.4</ele><time>2022-06-26T08:07:21.000Z</time></trkpt><trkpt lon="5.742873" lat="50.948604"><ele>16.4</ele><time>2022-06-26T08:07:22.000Z</time></trkpt><trkpt lon="5.742834" lat="50.94869"><ele>16.2</ele><time>2022-06-26T08:07:23.000Z</time></trkpt><trkpt lon="5.742809" lat="50.948737"><ele>16.2</ele><time>2022-06-26T08:07:24.000Z</time></trkpt><trkpt lon="5.742771" lat="50.948816"><ele>16.2</ele><time>2022-06-26T08:07:25.000Z</time></trkpt><trkpt lon="5.742745" lat="50.948876"><ele>16.2</ele><time>2022-06-26T08:07:26.000Z</time></trkpt><trkpt lon="5.742714" lat="50.948934"><ele>16.2</ele><time>2022-06-26T08:07:27.000Z</time></trkpt><trkpt lon="5.742691" lat="50.948984"><ele>16.4</ele><time>2022-06-26T08:07:28.000Z</time></trkpt><trkpt lon="5.74266" lat="50.94904"><ele>16.4</ele><time>2022-06-26T08:07:29.000Z</time></trkpt><trkpt lon="5.742639" lat="50.949081"><ele>16.4</ele><time>2022-06-26T08:07:30.000Z</time></trkpt><trkpt lon="5.742627" lat="50.949136"><ele>16.4</ele><time>2022-06-26T08:07:31.000Z</time></trkpt><trkpt lon="5.742643" lat="50.949178"><ele>16.4</ele><time>2022-06-26T08:07:32.000Z</time></trkpt><trkpt lon="5.742696" lat="50.949231"><ele>16.4</ele><time>2022-06-26T08:07:33.000Z</time></trkpt><trkpt lon="5.742762" lat="50.949264"><ele>16.4</ele><time>2022-06-26T08:07:34.000Z</time></trkpt><trkpt lon="5.742848" lat="50.949291"><ele>16.4</ele><time>2022-06-26T08:07:35.000Z</time></trkpt><trkpt lon="5.742906" lat="50.949307"><ele>16.4</ele><time>2022-06-26T08:07:36.000Z</time></trkpt><trkpt lon="5.743013" lat="50.949341"><ele>16.6</ele><time>2022-06-26T08:07:37.000Z</time></trkpt><trkpt lon="5.743063" lat="50.949359"><ele>16.6</ele><time>2022-06-26T08:07:38.000Z</time></trkpt><trkpt lon="5.743158" lat="50.949391"><ele>16.6</ele><time>2022-06-26T08:07:39.000Z</time></trkpt><trkpt lon="5.743215" lat="50.949412"><ele>16.6</ele><time>2022-06-26T08:07:40.000Z</time></trkpt><trkpt lon="5.743274" lat="50.949437"><ele>16.6</ele><time>2022-06-26T08:07:41.000Z</time></trkpt><trkpt lon="5.743321" lat="50.949459"><ele>16.6</ele><time>2022-06-26T08:07:42.000Z</time></trkpt><trkpt lon="5.743348" lat="50.949469"><ele>16.6</ele><time>2022-06-26T08:07:43.000Z</time></trkpt><trkpt lon="5.743401" lat="50.949493"><ele>16.6</ele><time>2022-06-26T08:07:44.000Z</time></trkpt><trkpt lon="5.743442" lat="50.949505"><ele>16.6</ele><time>2022-06-26T08:07:45.000Z</time></trkpt><trkpt lon="5.743482" lat="50.94952"><ele>16.6</ele><time>2022-06-26T08:07:46.000Z</time></trkpt><trkpt lon="5.743509" lat="50.949525"><ele>16.6</ele><time>2022-06-26T08:07:47.000Z</time></trkpt><trkpt lon="5.743559" lat="50.949539"><ele>16.6</ele><time>2022-06-26T08:07:48.000Z</time></trkpt><trkpt lon="5.743597" lat="50.949547"><ele>16.6</ele><time>2022-06-26T08:07:49.000Z</time></trkpt><trkpt lon="5.743634" lat="50.949558"><ele>16.6</ele><time>2022-06-26T08:07:50.000Z</time></trkpt><trkpt lon="5.743659" lat="50.949564"><ele>16.6</ele><time>2022-06-26T08:07:51.000Z</time></trkpt><trkpt lon="5.743709" lat="50.949581"><ele>16.6</ele><time>2022-06-26T08:07:52.000Z</time></trkpt><trkpt lon="5.743744" lat="50.949593"><ele>16.6</ele><time>2022-06-26T08:07:53.000Z</time></trkpt><trkpt lon="5.743781" lat="50.949604"><ele>16.6</ele><time>2022-06-26T08:07:54.000Z</time></trkpt><trkpt lon="5.743805" lat="50.949612"><ele>16.6</ele><time>2022-06-26T08:07:55.000Z</time></trkpt><trkpt lon="5.743854" lat="50.949627"><ele>16.6</ele><time>2022-06-26T08:07:56.000Z</time></trkpt><trkpt lon="5.743891" lat="50.949635"><ele>16.6</ele><time>2022-06-26T08:07:57.000Z</time></trkpt><trkpt lon="5.743931" lat="50.949642"><ele>16.8</ele><time>2022-06-26T08:07:58.000Z</time></trkpt><trkpt lon="5.743962" lat="50.949648"><ele>16.8</ele><time>2022-06-26T08:07:59.000Z</time></trkpt><trkpt lon="5.744023" lat="50.949665"><ele>16.6</ele><time>2022-06-26T08:08:00.000Z</time></trkpt><trkpt lon="5.744072" lat="50.949677"><ele>16.6</ele><time>2022-06-26T08:08:01.000Z</time></trkpt><trkpt lon="5.744106" lat="50.949687"><ele>16.6</ele><time>2022-06-26T08:08:02.000Z</time></trkpt><trkpt lon="5.744178" lat="50.949707"><ele>16.8</ele><time>2022-06-26T08:08:03.000Z</time></trkpt><trkpt lon="5.744236" lat="50.949726"><ele>16.8</ele><time>2022-06-26T08:08:04.000Z</time></trkpt><trkpt lon="5.744275" lat="50.949739"><ele>16.8</ele><time>2022-06-26T08:08:05.000Z</time></trkpt><trkpt lon="5.744361" lat="50.949768"><ele>16.6</ele><time>2022-06-26T08:08:06.000Z</time></trkpt><trkpt lon="5.744429" lat="50.949787"><ele>16.6</ele><time>2022-06-26T08:08:07.000Z</time></trkpt><trkpt lon="5.744476" lat="50.949802"><ele>16.8</ele><time>2022-06-26T08:08:08.000Z</time></trkpt><trkpt lon="5.74457" lat="50.949833"><ele>16.8</ele><time>2022-06-26T08:08:09.000Z</time></trkpt><trkpt lon="5.744619" lat="50.949846"><ele>16.8</ele><time>2022-06-26T08:08:10.000Z</time></trkpt><trkpt lon="5.744711" lat="50.949875"><ele>16.8</ele><time>2022-06-26T08:08:11.000Z</time></trkpt><trkpt lon="5.744753" lat="50.949891"><ele>16.8</ele><time>2022-06-26T08:08:12.000Z</time></trkpt><trkpt lon="5.744853" lat="50.949921"><ele>16.8</ele><time>2022-06-26T08:08:13.000Z</time></trkpt><trkpt lon="5.744898" lat="50.949937"><ele>16.8</ele><time>2022-06-26T08:08:14.000Z</time></trkpt><trkpt lon="5.744979" lat="50.949963"><ele>16.8</ele><time>2022-06-26T08:08:15.000Z</time></trkpt><trkpt lon="5.745024" lat="50.949978"><ele>16.8</ele><time>2022-06-26T08:08:16.000Z</time></trkpt><trkpt lon="5.745098" lat="50.950001"><ele>16.6</ele><time>2022-06-26T08:08:17.000Z</time></trkpt><trkpt lon="5.745155" lat="50.95002"><ele>16.6</ele><time>2022-06-26T08:08:18.000Z</time></trkpt><trkpt lon="5.745192" lat="50.95003"><ele>16.6</ele><time>2022-06-26T08:08:19.000Z</time></trkpt><trkpt lon="5.745266" lat="50.950051"><ele>16.6</ele><time>2022-06-26T08:08:20.000Z</time></trkpt><trkpt lon="5.745313" lat="50.950069"><ele>16.8</ele><time>2022-06-26T08:08:21.000Z</time></trkpt><trkpt lon="5.745343" lat="50.950079"><ele>16.6</ele><time>2022-06-26T08:08:22.000Z</time></trkpt><trkpt lon="5.745399" lat="50.9501"><ele>16.6</ele><time>2022-06-26T08:08:23.000Z</time></trkpt><trkpt lon="5.745436" lat="50.950115"><ele>16.8</ele><time>2022-06-26T08:08:24.000Z</time></trkpt><trkpt lon="5.745465" lat="50.950127"><ele>16.8</ele><time>2022-06-26T08:08:25.000Z</time></trkpt><trkpt lon="5.745479" lat="50.950134"><ele>16.8</ele><time>2022-06-26T08:08:26.000Z</time></trkpt><trkpt lon="5.745649" lat="50.950062"><ele>17</ele><time>2022-06-26T08:08:53.000Z</time></trkpt><trkpt lon="5.74566" lat="50.95005"><ele>17</ele><time>2022-06-26T08:08:54.000Z</time></trkpt><trkpt lon="5.745672" lat="50.950043"><ele>17</ele><time>2022-06-26T08:08:55.000Z</time></trkpt><trkpt lon="5.745683" lat="50.950035"><ele>17</ele><time>2022-06-26T08:08:56.000Z</time></trkpt><trkpt lon="5.745699" lat="50.950023"><ele>17</ele><time>2022-06-26T08:08:57.000Z</time></trkpt><trkpt lon="5.745706" lat="50.950016"><ele>17</ele><time>2022-06-26T08:08:58.000Z</time></trkpt><trkpt lon="5.745722" lat="50.950005"><ele>17</ele><time>2022-06-26T08:08:59.000Z</time></trkpt><trkpt lon="5.745732" lat="50.949993"><ele>17</ele><time>2022-06-26T08:09:00.000Z</time></trkpt><trkpt lon="5.745739" lat="50.949982"><ele>17</ele><time>2022-06-26T08:09:01.000Z</time></trkpt><trkpt lon="5.745749" lat="50.949974"><ele>17</ele><time>2022-06-26T08:09:02.000Z</time></trkpt><trkpt lon="5.745755" lat="50.949963"><ele>17</ele><time>2022-06-26T08:09:03.000Z</time></trkpt><trkpt lon="5.74576" lat="50.949951"><ele>17</ele><time>2022-06-26T08:09:04.000Z</time></trkpt><trkpt lon="5.745765" lat="50.94994"><ele>17</ele><time>2022-06-26T08:09:05.000Z</time></trkpt><trkpt lon="5.745768" lat="50.949932"><ele>17</ele><time>2022-06-26T08:09:06.000Z</time></trkpt><trkpt lon="5.745779" lat="50.949917"><ele>17</ele><time>2022-06-26T08:09:07.000Z</time></trkpt><trkpt lon="5.745787" lat="50.949905"><ele>17</ele><time>2022-06-26T08:09:08.000Z</time></trkpt><trkpt lon="5.745795" lat="50.949894"><ele>17</ele><time>2022-06-26T08:09:09.000Z</time></trkpt><trkpt lon="5.7458" lat="50.949882"><ele>17</ele><time>2022-06-26T08:09:10.000Z</time></trkpt><trkpt lon="5.74581" lat="50.949871"><ele>17</ele><time>2022-06-26T08:09:11.000Z</time></trkpt><trkpt lon="5.745817" lat="50.949859"><ele>17</ele><time>2022-06-26T08:09:12.000Z</time></trkpt><trkpt lon="5.745825" lat="50.949848"><ele>17</ele><time>2022-06-26T08:09:13.000Z</time></trkpt><trkpt lon="5.745829" lat="50.949841"><ele>17</ele><time>2022-06-26T08:09:14.000Z</time></trkpt><trkpt lon="5.745842" lat="50.949829"><ele>17</ele><time>2022-06-26T08:09:15.000Z</time></trkpt><trkpt lon="5.745848" lat="50.949817"><ele>17</ele><time>2022-06-26T08:09:16.000Z</time></trkpt><trkpt lon="5.745852" lat="50.94981"><ele>17</ele><time>2022-06-26T08:09:17.000Z</time></trkpt><trkpt lon="5.745857" lat="50.949803"><ele>17</ele><time>2022-06-26T08:09:18.000Z</time></trkpt><trkpt lon="5.745862" lat="50.949795"><ele>17</ele><time>2022-06-26T08:09:19.000Z</time></trkpt><trkpt lon="5.745862" lat="50.949795"><ele>17</ele><time>2022-06-26T08:09:20.000Z</time></trkpt><trkpt lon="5.745862" lat="50.949795"><ele>17</ele><time>2022-06-26T08:09:21.000Z</time></trkpt><trkpt lon="5.745862" lat="50.949794"><ele>17</ele><time>2022-06-26T08:09:22.000Z</time></trkpt><trkpt lon="5.745875" lat="50.949764"><ele>17</ele><time>2022-06-26T08:09:23.000Z</time></trkpt><trkpt lon="5.745885" lat="50.949753"><ele>17</ele><time>2022-06-26T08:09:24.000Z</time></trkpt><trkpt lon="5.745891" lat="50.949744"><ele>17</ele><time>2022-06-26T08:09:25.000Z</time></trkpt><trkpt lon="5.74591" lat="50.949722"><ele>17</ele><time>2022-06-26T08:09:26.000Z</time></trkpt><trkpt lon="5.745925" lat="50.949706"><ele>17</ele><time>2022-06-26T08:09:27.000Z</time></trkpt><trkpt lon="5.74593" lat="50.9497"><ele>17</ele><time>2022-06-26T08:09:28.000Z</time></trkpt><trkpt lon="5.745935" lat="50.949695"><ele>17</ele><time>2022-06-26T08:09:29.000Z</time></trkpt><trkpt lon="5.74594" lat="50.94969"><ele>17</ele><time>2022-06-26T08:09:30.000Z</time></trkpt><trkpt lon="5.745946" lat="50.949684"><ele>17</ele><time>2022-06-26T08:09:31.000Z</time></trkpt><trkpt lon="5.745951" lat="50.949679"><ele>17</ele><time>2022-06-26T08:09:32.000Z</time></trkpt><trkpt lon="5.745956" lat="50.949673"><ele>17</ele><time>2022-06-26T08:09:33.000Z</time></trkpt><trkpt lon="5.745961" lat="50.949668"><ele>17</ele><time>2022-06-26T08:09:34.000Z</time></trkpt><trkpt lon="5.745966" lat="50.949663"><ele>17</ele><time>2022-06-26T08:09:35.000Z</time></trkpt><trkpt lon="5.745971" lat="50.949657"><ele>17</ele><time>2022-06-26T08:09:36.000Z</time></trkpt><trkpt lon="5.745976" lat="50.949652"><ele>17</ele><time>2022-06-26T08:09:37.000Z</time></trkpt><trkpt lon="5.745981" lat="50.949646"><ele>17</ele><time>2022-06-26T08:09:38.000Z</time></trkpt><trkpt lon="5.745986" lat="50.949641"><ele>17</ele><time>2022-06-26T08:09:39.000Z</time></trkpt><trkpt lon="5.745991" lat="50.949636"><ele>17</ele><time>2022-06-26T08:09:40.000Z</time></trkpt><trkpt lon="5.745997" lat="50.94963"><ele>17</ele><time>2022-06-26T08:09:41.000Z</time></trkpt><trkpt lon="5.746002" lat="50.949625"><ele>17</ele><time>2022-06-26T08:09:42.000Z</time></trkpt><trkpt lon="5.746007" lat="50.94962"><ele>17</ele><time>2022-06-26T08:09:43.000Z</time></trkpt><trkpt lon="5.746012" lat="50.949614"><ele>17</ele><time>2022-06-26T08:09:44.000Z</time></trkpt><trkpt lon="5.746017" lat="50.949609"><ele>17</ele><time>2022-06-26T08:09:45.000Z</time></trkpt><trkpt lon="5.746022" lat="50.949603"><ele>17</ele><time>2022-06-26T08:09:46.000Z</time></trkpt><trkpt lon="5.746027" lat="50.949598"><ele>17</ele><time>2022-06-26T08:09:47.000Z</time></trkpt><trkpt lon="5.746032" lat="50.949593"><ele>17</ele><time>2022-06-26T08:09:48.000Z</time></trkpt><trkpt lon="5.746037" lat="50.949587"><ele>17</ele><time>2022-06-26T08:09:49.000Z</time></trkpt><trkpt lon="5.746042" lat="50.949582"><ele>17</ele><time>2022-06-26T08:09:50.000Z</time></trkpt><trkpt lon="5.746047" lat="50.949577"><ele>17</ele><time>2022-06-26T08:09:51.000Z</time></trkpt><trkpt lon="5.746053" lat="50.949571"><ele>17</ele><time>2022-06-26T08:09:52.000Z</time></trkpt><trkpt lon="5.746058" lat="50.949566"><ele>17</ele><time>2022-06-26T08:09:53.000Z</time></trkpt><trkpt lon="5.746063" lat="50.94956"><ele>17</ele><time>2022-06-26T08:09:54.000Z</time></trkpt><trkpt lon="5.746068" lat="50.949555"><ele>17</ele><time>2022-06-26T08:09:55.000Z</time></trkpt><trkpt lon="5.746073" lat="50.94955"><ele>17</ele><time>2022-06-26T08:09:56.000Z</time></trkpt><trkpt lon="5.746078" lat="50.949544"><ele>17</ele><time>2022-06-26T08:09:57.000Z</time></trkpt><trkpt lon="5.746083" lat="50.949539"><ele>17</ele><time>2022-06-26T08:09:58.000Z</time></trkpt><trkpt lon="5.746088" lat="50.949533"><ele>17</ele><time>2022-06-26T08:09:59.000Z</time></trkpt><trkpt lon="5.746093" lat="50.949528"><ele>17</ele><time>2022-06-26T08:10:00.000Z</time></trkpt><trkpt lon="5.746098" lat="50.949523"><ele>16.8</ele><time>2022-06-26T08:10:01.000Z</time></trkpt><trkpt lon="5.746104" lat="50.949517"><ele>16.8</ele><time>2022-06-26T08:10:02.000Z</time></trkpt><trkpt lon="5.746109" lat="50.949512"><ele>16.8</ele><time>2022-06-26T08:10:03.000Z</time></trkpt><trkpt lon="5.746114" lat="50.949507"><ele>16.8</ele><time>2022-06-26T08:10:04.000Z</time></trkpt><trkpt lon="5.746119" lat="50.949501"><ele>16.8</ele><time>2022-06-26T08:10:05.000Z</time></trkpt><trkpt lon="5.746124" lat="50.949496"><ele>17</ele><time>2022-06-26T08:10:09.000Z</time></trkpt><trkpt lon="5.746129" lat="50.94949"><ele>17</ele><time>2022-06-26T08:10:10.000Z</time></trkpt><trkpt lon="5.746134" lat="50.949485"><ele>17</ele><time>2022-06-26T08:10:11.000Z</time></trkpt><trkpt lon="5.746139" lat="50.94948"><ele>17</ele><time>2022-06-26T08:10:12.000Z</time></trkpt><trkpt lon="5.746144" lat="50.949474"><ele>17</ele><time>2022-06-26T08:10:13.000Z</time></trkpt><trkpt lon="5.746149" lat="50.949469"><ele>17</ele><time>2022-06-26T08:10:14.000Z</time></trkpt><trkpt lon="5.746155" lat="50.949464"><ele>17</ele><time>2022-06-26T08:10:15.000Z</time></trkpt><trkpt lon="5.74616" lat="50.949458"><ele>17</ele><time>2022-06-26T08:10:18.000Z</time></trkpt><trkpt lon="5.746165" lat="50.949453"><ele>17</ele><time>2022-06-26T08:10:19.000Z</time></trkpt><trkpt lon="5.74617" lat="50.949447"><ele>17</ele><time>2022-06-26T08:10:20.000Z</time></trkpt><trkpt lon="5.746175" lat="50.949442"><ele>17</ele><time>2022-06-26T08:10:21.000Z</time></trkpt><trkpt lon="5.74618" lat="50.949437"><ele>17</ele><time>2022-06-26T08:10:22.000Z</time></trkpt><trkpt lon="5.746185" lat="50.949431"><ele>17</ele><time>2022-06-26T08:10:23.000Z</time></trkpt><trkpt lon="5.74619" lat="50.949426"><ele>17</ele><time>2022-06-26T08:10:24.000Z</time></trkpt><trkpt lon="5.746195" lat="50.94942"><ele>17</ele><time>2022-06-26T08:10:25.000Z</time></trkpt><trkpt lon="5.7462" lat="50.949415"><ele>17</ele><time>2022-06-26T08:10:26.000Z</time></trkpt><trkpt lon="5.746206" lat="50.94941"><ele>17</ele><time>2022-06-26T08:10:27.000Z</time></trkpt><trkpt lon="5.746211" lat="50.949404"><ele>17</ele><time>2022-06-26T08:10:28.000Z</time></trkpt><trkpt lon="5.746216" lat="50.949399"><ele>17</ele><time>2022-06-26T08:10:29.000Z</time></trkpt><trkpt lon="5.746221" lat="50.949394"><ele>17</ele><time>2022-06-26T08:10:30.000Z</time></trkpt><trkpt lon="5.746226" lat="50.949388"><ele>17.2</ele><time>2022-06-26T08:39:01.000Z</time></trkpt><trkpt lon="5.746231" lat="50.949383"><ele>17.2</ele><time>2022-06-26T08:39:02.000Z</time></trkpt><trkpt lon="5.746236" lat="50.949377"><ele>17.2</ele><time>2022-06-26T08:39:03.000Z</time></trkpt><trkpt lon="5.746241" lat="50.949372"><ele>17.2</ele><time>2022-06-26T08:39:04.000Z</time></trkpt><trkpt lon="5.746246" lat="50.949367"><ele>17.2</ele><time>2022-06-26T08:39:05.000Z</time></trkpt><trkpt lon="5.746251" lat="50.949361"><ele>17.2</ele><time>2022-06-26T08:39:06.000Z</time></trkpt><trkpt lon="5.746257" lat="50.949356"><ele>17.4</ele><time>2022-06-26T08:39:41.000Z</time></trkpt><trkpt lon="5.746262" lat="50.949351"><ele>17.4</ele><time>2022-06-26T08:39:42.000Z</time></trkpt><trkpt lon="5.746267" lat="50.949345"><ele>17.4</ele><time>2022-06-26T08:39:43.000Z</time></trkpt><trkpt lon="5.746272" lat="50.94934"><ele>17.4</ele><time>2022-06-26T08:39:44.000Z</time></trkpt><trkpt lon="5.746277" lat="50.949334"><ele>17.4</ele><time>2022-06-26T08:39:45.000Z</time></trkpt><trkpt lon="5.746282" lat="50.949329"><ele>17.4</ele><time>2022-06-26T08:39:46.000Z</time></trkpt><trkpt lon="5.746287" lat="50.949324"><ele>17.4</ele><time>2022-06-26T08:39:47.000Z</time></trkpt><trkpt lon="5.746292" lat="50.949318"><ele>17.4</ele><time>2022-06-26T08:39:48.000Z</time></trkpt><trkpt lon="5.746297" lat="50.949313"><ele>17.4</ele><time>2022-06-26T08:39:49.000Z</time></trkpt><trkpt lon="5.746302" lat="50.949307"><ele>17.4</ele><time>2022-06-26T08:39:50.000Z</time></trkpt><trkpt lon="5.746308" lat="50.949302"><ele>17.4</ele><time>2022-06-26T08:39:51.000Z</time></trkpt><trkpt lon="5.746313" lat="50.949297"><ele>17.4</ele><time>2022-06-26T08:39:52.000Z</time></trkpt><trkpt lon="5.746318" lat="50.949291"><ele>17.4</ele><time>2022-06-26T08:39:53.000Z</time></trkpt><trkpt lon="5.746323" lat="50.949286"><ele>17.4</ele><time>2022-06-26T08:39:54.000Z</time></trkpt><trkpt lon="5.746328" lat="50.949281"><ele>17.6</ele><time>2022-06-26T08:39:55.000Z</time></trkpt><trkpt lon="5.746333" lat="50.949275"><ele>17.6</ele><time>2022-06-26T08:39:56.000Z</time></trkpt><trkpt lon="5.746338" lat="50.94927"><ele>17.6</ele><time>2022-06-26T08:39:57.000Z</time></trkpt><trkpt lon="5.746343" lat="50.949264"><ele>17.6</ele><time>2022-06-26T08:39:58.000Z</time></trkpt><trkpt lon="5.746355" lat="50.94925"><ele>17.6</ele><time>2022-06-26T08:39:59.000Z</time></trkpt><trkpt lon="5.746361" lat="50.949243"><ele>17.6</ele><time>2022-06-26T08:40:00.000Z</time></trkpt><trkpt lon="5.746368" lat="50.949236"><ele>17.6</ele><time>2022-06-26T08:40:01.000Z</time></trkpt><trkpt lon="5.746374" lat="50.949229"><ele>17.6</ele><time>2022-06-26T08:40:02.000Z</time></trkpt><trkpt lon="5.74638" lat="50.949222"><ele>17.6</ele><time>2022-06-26T08:40:03.000Z</time></trkpt><trkpt lon="5.746387" lat="50.949215"><ele>17.6</ele><time>2022-06-26T08:40:04.000Z</time></trkpt><trkpt lon="5.746393" lat="50.949208"><ele>17.6</ele><time>2022-06-26T08:40:05.000Z</time></trkpt><trkpt lon="5.7464" lat="50.949201"><ele>17.6</ele><time>2022-06-26T08:40:06.000Z</time></trkpt><trkpt lon="5.746406" lat="50.949194"><ele>17.6</ele><time>2022-06-26T08:40:07.000Z</time></trkpt><trkpt lon="5.746412" lat="50.949187"><ele>17.6</ele><time>2022-06-26T08:40:08.000Z</time></trkpt><trkpt lon="5.746419" lat="50.94918"><ele>17.6</ele><time>2022-06-26T08:40:09.000Z</time></trkpt><trkpt lon="5.746425" lat="50.949173"><ele>17.6</ele><time>2022-06-26T08:40:10.000Z</time></trkpt><trkpt lon="5.746433" lat="50.949152"><ele>17.6</ele><time>2022-06-26T08:40:11.000Z</time></trkpt><trkpt lon="5.746437" lat="50.949142"><ele>17.6</ele><time>2022-06-26T08:40:12.000Z</time></trkpt><trkpt lon="5.746441" lat="50.949133"><ele>17.6</ele><time>2022-06-26T08:40:13.000Z</time></trkpt><trkpt lon="5.746445" lat="50.949123"><ele>17.6</ele><time>2022-06-26T08:40:14.000Z</time></trkpt><trkpt lon="5.746449" lat="50.949114"><ele>17.6</ele><time>2022-06-26T08:40:15.000Z</time></trkpt><trkpt lon="5.746453" lat="50.949104"><ele>17.6</ele><time>2022-06-26T08:40:16.000Z</time></trkpt><trkpt lon="5.746457" lat="50.949095"><ele>17.6</ele><time>2022-06-26T08:40:17.000Z</time></trkpt><trkpt lon="5.746461" lat="50.949085"><ele>17.8</ele><time>2022-06-26T08:40:18.000Z</time></trkpt><trkpt lon="5.746465" lat="50.949076"><ele>17.8</ele><time>2022-06-26T08:40:19.000Z</time></trkpt><trkpt lon="5.746469" lat="50.949066"><ele>17.6</ele><time>2022-06-26T08:40:20.000Z</time></trkpt><trkpt lon="5.746473" lat="50.949057"><ele>17.6</ele><time>2022-06-26T08:40:21.000Z</time></trkpt><trkpt lon="5.746477" lat="50.949047"><ele>17.6</ele><time>2022-06-26T08:40:22.000Z</time></trkpt><trkpt lon="5.746481" lat="50.949038"><ele>17.6</ele><time>2022-06-26T08:40:23.000Z</time></trkpt><trkpt lon="5.746485" lat="50.949028"><ele>17.6</ele><time>2022-06-26T08:40:24.000Z</time></trkpt><trkpt lon="5.746489" lat="50.949019"><ele>17.6</ele><time>2022-06-26T08:40:25.000Z</time></trkpt><trkpt lon="5.746493" lat="50.949009"><ele>17.6</ele><time>2022-06-26T08:40:26.000Z</time></trkpt><trkpt lon="5.746497" lat="50.949"><ele>17.6</ele><time>2022-06-26T08:40:27.000Z</time></trkpt><trkpt lon="5.746501" lat="50.94899"><ele>17.6</ele><time>2022-06-26T08:40:28.000Z</time></trkpt><trkpt lon="5.746505" lat="50.948981"><ele>17.6</ele><time>2022-06-26T08:40:29.000Z</time></trkpt><trkpt lon="5.746509" lat="50.948971"><ele>17.6</ele><time>2022-06-26T08:40:30.000Z</time></trkpt><trkpt lon="5.746513" lat="50.948962"><ele>17.6</ele><time>2022-06-26T08:40:31.000Z</time></trkpt><trkpt lon="5.746517" lat="50.948952"><ele>17.6</ele><time>2022-06-26T08:40:32.000Z</time></trkpt><trkpt lon="5.746521" lat="50.948943"><ele>17.6</ele><time>2022-06-26T08:40:33.000Z</time></trkpt><trkpt lon="5.746525" lat="50.948933"><ele>17.6</ele><time>2022-06-26T08:40:34.000Z</time></trkpt><trkpt lon="5.746529" lat="50.948924"><ele>17.6</ele><time>2022-06-26T08:40:35.000Z</time></trkpt><trkpt lon="5.746533" lat="50.948914"><ele>17.6</ele><time>2022-06-26T08:40:36.000Z</time></trkpt><trkpt lon="5.746538" lat="50.948905"><ele>17.6</ele><time>2022-06-26T08:40:37.000Z</time></trkpt><trkpt lon="5.746542" lat="50.948895"><ele>17.6</ele><time>2022-06-26T08:40:38.000Z</time></trkpt><trkpt lon="5.746546" lat="50.948886"><ele>17.6</ele><time>2022-06-26T08:40:39.000Z</time></trkpt><trkpt lon="5.74655" lat="50.948876"><ele>17.6</ele><time>2022-06-26T08:40:40.000Z</time></trkpt><trkpt lon="5.746554" lat="50.948867"><ele>17.6</ele><time>2022-06-26T08:40:41.000Z</time></trkpt><trkpt lon="5.746558" lat="50.948857"><ele>17.6</ele><time>2022-06-26T08:40:42.000Z</time></trkpt><trkpt lon="5.746562" lat="50.948848"><ele>17.6</ele><time>2022-06-26T08:40:43.000Z</time></trkpt><trkpt lon="5.746566" lat="50.948838"><ele>17.6</ele><time>2022-06-26T08:40:44.000Z</time></trkpt><trkpt lon="5.74657" lat="50.948829"><ele>17.8</ele><time>2022-06-26T08:40:45.000Z</time></trkpt><trkpt lon="5.746574" lat="50.948819"><ele>17.8</ele><time>2022-06-26T08:40:46.000Z</time></trkpt><trkpt lon="5.746578" lat="50.94881"><ele>17.8</ele><time>2022-06-26T08:40:47.000Z</time></trkpt><trkpt lon="5.746582" lat="50.9488"><ele>17.8</ele><time>2022-06-26T08:40:48.000Z</time></trkpt><trkpt lon="5.746586" lat="50.948791"><ele>17.8</ele><time>2022-06-26T08:40:49.000Z</time></trkpt><trkpt lon="5.74659" lat="50.948781"><ele>17.8</ele><time>2022-06-26T08:40:50.000Z</time></trkpt><trkpt lon="5.746594" lat="50.948772"><ele>17.6</ele><time>2022-06-26T08:40:51.000Z</time></trkpt><trkpt lon="5.746598" lat="50.948762"><ele>17.6</ele><time>2022-06-26T08:40:52.000Z</time></trkpt><trkpt lon="5.746602" lat="50.948753"><ele>17.6</ele><time>2022-06-26T08:40:53.000Z</time></trkpt><trkpt lon="5.746606" lat="50.948743"><ele>17.6</ele><time>2022-06-26T08:40:54.000Z</time></trkpt><trkpt lon="5.74661" lat="50.948734"><ele>17.6</ele><time>2022-06-26T08:40:55.000Z</time></trkpt><trkpt lon="5.746614" lat="50.948724"><ele>17.6</ele><time>2022-06-26T08:40:56.000Z</time></trkpt><trkpt lon="5.746618" lat="50.948715"><ele>17.8</ele><time>2022-06-26T08:40:57.000Z</time></trkpt><trkpt lon="5.74662" lat="50.948703"><ele>17.8</ele><time>2022-06-26T08:40:58.000Z</time></trkpt><trkpt lon="5.746624" lat="50.948692"><ele>17.8</ele><time>2022-06-26T08:40:59.000Z</time></trkpt><trkpt lon="5.746627" lat="50.948685"><ele>17.8</ele><time>2022-06-26T08:41:00.000Z</time></trkpt><trkpt lon="5.74663" lat="50.948673"><ele>17.8</ele><time>2022-06-26T08:41:01.000Z</time></trkpt><trkpt lon="5.746632" lat="50.948666"><ele>17.8</ele><time>2022-06-26T08:41:02.000Z</time></trkpt><trkpt lon="5.746632" lat="50.948666"><ele>17.8</ele><time>2022-06-26T08:41:03.000Z</time></trkpt><trkpt lon="5.746632" lat="50.948666"><ele>17.8</ele><time>2022-06-26T08:41:04.000Z</time></trkpt><trkpt lon="5.746632" lat="50.948666"><ele>17.8</ele><time>2022-06-26T08:41:05.000Z</time></trkpt><trkpt lon="5.746632" lat="50.948666"><ele>17.8</ele><time>2022-06-26T08:41:06.000Z</time></trkpt><trkpt lon="5.746632" lat="50.948666"><ele>17.8</ele><time>2022-06-26T08:41:07.000Z</time></trkpt><trkpt lon="5.746632" lat="50.948666"><ele>17.8</ele><time>2022-06-26T08:41:08.000Z</time></trkpt><trkpt lon="5.746632" lat="50.948666"><ele>17.8</ele><time>2022-06-26T08:41:09.000Z</time></trkpt><trkpt lon="5.746677" lat="50.948666"><ele>17.8</ele><time>2022-06-26T08:41:10.000Z</time></trkpt><trkpt lon="5.746707" lat="50.948673"><ele>17.8</ele><time>2022-06-26T08:41:11.000Z</time></trkpt><trkpt lon="5.74672" lat="50.948676"><ele>17.8</ele><time>2022-06-26T08:41:12.000Z</time></trkpt><trkpt lon="5.746733" lat="50.948679"><ele>17.8</ele><time>2022-06-26T08:41:13.000Z</time></trkpt><trkpt lon="5.746745" lat="50.948683"><ele>17.8</ele><time>2022-06-26T08:41:14.000Z</time></trkpt><trkpt lon="5.746758" lat="50.948686"><ele>17.8</ele><time>2022-06-26T08:41:15.000Z</time></trkpt><trkpt lon="5.746771" lat="50.948689"><ele>17.8</ele><time>2022-06-26T08:41:16.000Z</time></trkpt><trkpt lon="5.746783" lat="50.948693"><ele>17.8</ele><time>2022-06-26T08:41:17.000Z</time></trkpt><trkpt lon="5.746796" lat="50.948696"><ele>17.8</ele><time>2022-06-26T08:41:18.000Z</time></trkpt><trkpt lon="5.746809" lat="50.948699"><ele>17.8</ele><time>2022-06-26T08:41:19.000Z</time></trkpt><trkpt lon="5.746822" lat="50.948703"><ele>17.8</ele><time>2022-06-26T08:41:20.000Z</time></trkpt><trkpt lon="5.746834" lat="50.948706"><ele>17.8</ele><time>2022-06-26T08:41:21.000Z</time></trkpt><trkpt lon="5.746847" lat="50.948709"><ele>17.8</ele><time>2022-06-26T08:41:22.000Z</time></trkpt><trkpt lon="5.74686" lat="50.948712"><ele>17.8</ele><time>2022-06-26T08:41:23.000Z</time></trkpt><trkpt lon="5.746872" lat="50.948716"><ele>17.8</ele><time>2022-06-26T08:41:24.000Z</time></trkpt><trkpt lon="5.746885" lat="50.948719"><ele>17.8</ele><time>2022-06-26T08:41:25.000Z</time></trkpt><trkpt lon="5.746903" lat="50.948723"><ele>17.8</ele><time>2022-06-26T08:41:26.000Z</time></trkpt><trkpt lon="5.74692" lat="50.948727"><ele>17.8</ele><time>2022-06-26T08:41:27.000Z</time></trkpt><trkpt lon="5.746934" lat="50.948727"><ele>17.8</ele><time>2022-06-26T08:41:28.000Z</time></trkpt><trkpt lon="5.746944" lat="50.948731"><ele>17.8</ele><time>2022-06-26T08:41:29.000Z</time></trkpt><trkpt lon="5.746957" lat="50.948738"><ele>17.8</ele><time>2022-06-26T08:41:30.000Z</time></trkpt><trkpt lon="5.746957" lat="50.948738"><ele>17.8</ele><time>2022-06-26T08:41:31.000Z</time></trkpt><trkpt lon="5.746957" lat="50.948738"><ele>17.8</ele><time>2022-06-26T08:41:32.000Z</time></trkpt><trkpt lon="5.746957" lat="50.948738"><ele>17.8</ele><time>2022-06-26T08:41:33.000Z</time></trkpt><trkpt lon="5.746957" lat="50.948738"><ele>17.8</ele><time>2022-06-26T08:41:34.000Z</time></trkpt><trkpt lon="5.746957" lat="50.948738"><ele>17.8</ele><time>2022-06-26T08:41:35.000Z</time></trkpt><trkpt lon="5.746957" lat="50.948738"><ele>17.8</ele><time>2022-06-26T08:41:36.000Z</time></trkpt><trkpt lon="5.746957" lat="50.948738"><ele>17.8</ele><time>2022-06-26T08:41:37.000Z</time></trkpt><trkpt lon="5.746957" lat="50.948738"><ele>17.8</ele><time>2022-06-26T08:41:38.000Z</time></trkpt><trkpt lon="5.746957" lat="50.948738"><ele>17.8</ele><time>2022-06-26T08:41:39.000Z</time></trkpt><trkpt lon="5.746957" lat="50.948738"><ele>17.8</ele><time>2022-06-26T08:41:40.000Z</time></trkpt><trkpt lon="5.747105" lat="50.948765"><ele>17.8</ele><time>2022-06-26T08:41:52.000Z</time></trkpt><trkpt lon="5.747122" lat="50.948769"><ele>17.8</ele><time>2022-06-26T08:41:53.000Z</time></trkpt><trkpt lon="5.74714" lat="50.948772"><ele>17.8</ele><time>2022-06-26T08:41:54.000Z</time></trkpt><trkpt lon="5.747171" lat="50.94878"><ele>17.8</ele><time>2022-06-26T08:41:55.000Z</time></trkpt><trkpt lon="5.747204" lat="50.948788"><ele>17.8</ele><time>2022-06-26T08:41:56.000Z</time></trkpt><trkpt lon="5.747237" lat="50.948796"><ele>17.8</ele><time>2022-06-26T08:41:57.000Z</time></trkpt><trkpt lon="5.747276" lat="50.948807"><ele>17.6</ele><time>2022-06-26T08:41:58.000Z</time></trkpt><trkpt lon="5.747316" lat="50.948822"><ele>17.6</ele><time>2022-06-26T08:41:59.000Z</time></trkpt><trkpt lon="5.747363" lat="50.948838"><ele>17.6</ele><time>2022-06-26T08:42:00.000Z</time></trkpt><trkpt lon="5.747417" lat="50.948853"><ele>17.6</ele><time>2022-06-26T08:42:01.000Z</time></trkpt><trkpt lon="5.747475" lat="50.948868"><ele>17.6</ele><time>2022-06-26T08:42:02.000Z</time></trkpt><trkpt lon="5.747538" lat="50.948887"><ele>17.6</ele><time>2022-06-26T08:42:03.000Z</time></trkpt><trkpt lon="5.747606" lat="50.948899"><ele>17.6</ele><time>2022-06-26T08:42:04.000Z</time></trkpt><trkpt lon="5.747673" lat="50.948918"><ele>17.6</ele><time>2022-06-26T08:42:05.000Z</time></trkpt><trkpt lon="5.747739" lat="50.948936"><ele>17.6</ele><time>2022-06-26T08:42:06.000Z</time></trkpt><trkpt lon="5.747808" lat="50.948952"><ele>17.4</ele><time>2022-06-26T08:42:07.000Z</time></trkpt><trkpt lon="5.747871" lat="50.948967"><ele>17.4</ele><time>2022-06-26T08:42:08.000Z</time></trkpt><trkpt lon="5.747932" lat="50.948982"><ele>17.4</ele><time>2022-06-26T08:42:09.000Z</time></trkpt><trkpt lon="5.747989" lat="50.948994"><ele>17.4</ele><time>2022-06-26T08:42:10.000Z</time></trkpt><trkpt lon="5.748041" lat="50.949005"><ele>17.4</ele><time>2022-06-26T08:42:11.000Z</time></trkpt><trkpt lon="5.74809" lat="50.949017"><ele>17.4</ele><time>2022-06-26T08:42:12.000Z</time></trkpt><trkpt lon="5.748138" lat="50.949032"><ele>17.4</ele><time>2022-06-26T08:42:13.000Z</time></trkpt><trkpt lon="5.74819" lat="50.949044"><ele>17.4</ele><time>2022-06-26T08:42:14.000Z</time></trkpt><trkpt lon="5.74824" lat="50.949059"><ele>17.4</ele><time>2022-06-26T08:42:15.000Z</time></trkpt><trkpt lon="5.748288" lat="50.949074"><ele>17.4</ele><time>2022-06-26T08:42:16.000Z</time></trkpt><trkpt lon="5.748334" lat="50.949097"><ele>17.6</ele><time>2022-06-26T08:42:17.000Z</time></trkpt><trkpt lon="5.748382" lat="50.949116"><ele>17.6</ele><time>2022-06-26T08:42:18.000Z</time></trkpt><trkpt lon="5.748433" lat="50.949131"><ele>17.6</ele><time>2022-06-26T08:42:19.000Z</time></trkpt><trkpt lon="5.748495" lat="50.949147"><ele>17.6</ele><time>2022-06-26T08:42:20.000Z</time></trkpt><trkpt lon="5.748558" lat="50.949158"><ele>17.6</ele><time>2022-06-26T08:42:21.000Z</time></trkpt><trkpt lon="5.748623" lat="50.949169"><ele>17.6</ele><time>2022-06-26T08:42:22.000Z</time></trkpt><trkpt lon="5.748688" lat="50.949177"><ele>17.6</ele><time>2022-06-26T08:42:23.000Z</time></trkpt><trkpt lon="5.748753" lat="50.949185"><ele>17.6</ele><time>2022-06-26T08:42:24.000Z</time></trkpt><trkpt lon="5.748816" lat="50.9492"><ele>17.6</ele><time>2022-06-26T08:42:25.000Z</time></trkpt><trkpt lon="5.74888" lat="50.949212"><ele>17.6</ele><time>2022-06-26T08:42:26.000Z</time></trkpt><trkpt lon="5.748946" lat="50.949227"><ele>17.6</ele><time>2022-06-26T08:42:27.000Z</time></trkpt><trkpt lon="5.749013" lat="50.949246"><ele>17.6</ele><time>2022-06-26T08:42:28.000Z</time></trkpt><trkpt lon="5.74908" lat="50.949261"><ele>17.6</ele><time>2022-06-26T08:42:29.000Z</time></trkpt><trkpt lon="5.749148" lat="50.94928"><ele>17.6</ele><time>2022-06-26T08:42:30.000Z</time></trkpt><trkpt lon="5.749216" lat="50.949295"><ele>17.6</ele><time>2022-06-26T08:42:31.000Z</time></trkpt><trkpt lon="5.749292" lat="50.949315"><ele>17.6</ele><time>2022-06-26T08:42:32.000Z</time></trkpt><trkpt lon="5.749369" lat="50.949334"><ele>17.6</ele><time>2022-06-26T08:42:33.000Z</time></trkpt><trkpt lon="5.74945" lat="50.949353"><ele>17.6</ele><time>2022-06-26T08:42:34.000Z</time></trkpt><trkpt lon="5.749526" lat="50.949372"><ele>17.6</ele><time>2022-06-26T08:42:35.000Z</time></trkpt><trkpt lon="5.749599" lat="50.949387"><ele>17.6</ele><time>2022-06-26T08:42:36.000Z</time></trkpt><trkpt lon="5.749668" lat="50.949406"><ele>17.6</ele><time>2022-06-26T08:42:37.000Z</time></trkpt><trkpt lon="5.749743" lat="50.949429"><ele>17.6</ele><time>2022-06-26T08:42:38.000Z</time></trkpt><trkpt lon="5.749824" lat="50.949452"><ele>17.6</ele><time>2022-06-26T08:42:39.000Z</time></trkpt><trkpt lon="5.749912" lat="50.949471"><ele>17.8</ele><time>2022-06-26T08:42:40.000Z</time></trkpt><trkpt lon="5.75" lat="50.949493"><ele>17.8</ele><time>2022-06-26T08:42:41.000Z</time></trkpt><trkpt lon="5.750091" lat="50.949516"><ele>17.8</ele><time>2022-06-26T08:42:42.000Z</time></trkpt><trkpt lon="5.750187" lat="50.94954"><ele>17.8</ele><time>2022-06-26T08:42:43.000Z</time></trkpt><trkpt lon="5.750276" lat="50.949566"><ele>17.8</ele><time>2022-06-26T08:42:44.000Z</time></trkpt><trkpt lon="5.750366" lat="50.949589"><ele>17.8</ele><time>2022-06-26T08:42:45.000Z</time></trkpt><trkpt lon="5.75045" lat="50.949612"><ele>18</ele><time>2022-06-26T08:42:46.000Z</time></trkpt><trkpt lon="5.750537" lat="50.949635"><ele>18</ele><time>2022-06-26T08:42:47.000Z</time></trkpt><trkpt lon="5.750622" lat="50.949654"><ele>18.2</ele><time>2022-06-26T08:42:48.000Z</time></trkpt><trkpt lon="5.750707" lat="50.949673"><ele>18.4</ele><time>2022-06-26T08:42:49.000Z</time></trkpt><trkpt lon="5.750785" lat="50.949691"><ele>18.6</ele><time>2022-06-26T08:42:50.000Z</time></trkpt><trkpt lon="5.750872" lat="50.949715"><ele>18.6</ele><time>2022-06-26T08:42:51.000Z</time></trkpt><trkpt lon="5.75095" lat="50.94973"><ele>19</ele><time>2022-06-26T08:42:52.000Z</time></trkpt><trkpt lon="5.751029" lat="50.94975"><ele>19</ele><time>2022-06-26T08:42:53.000Z</time></trkpt><trkpt lon="5.751105" lat="50.949769"><ele>19.2</ele><time>2022-06-26T08:42:54.000Z</time></trkpt><trkpt lon="5.75118" lat="50.949788"><ele>19.4</ele><time>2022-06-26T08:42:55.000Z</time></trkpt><trkpt lon="5.751258" lat="50.949807"><ele>19.4</ele><time>2022-06-26T08:42:56.000Z</time></trkpt><trkpt lon="5.751338" lat="50.949826"><ele>19.6</ele><time>2022-06-26T08:42:57.000Z</time></trkpt><trkpt lon="5.751422" lat="50.949849"><ele>19.6</ele><time>2022-06-26T08:42:58.000Z</time></trkpt><trkpt lon="5.751509" lat="50.949868"><ele>19.6</ele><time>2022-06-26T08:42:59.000Z</time></trkpt><trkpt lon="5.751595" lat="50.94989"><ele>19.6</ele><time>2022-06-26T08:43:00.000Z</time></trkpt><trkpt lon="5.751686" lat="50.949913"><ele>19.4</ele><time>2022-06-26T08:43:01.000Z</time></trkpt><trkpt lon="5.751775" lat="50.949935"><ele>19.4</ele><time>2022-06-26T08:43:02.000Z</time></trkpt><trkpt lon="5.751871" lat="50.949959"><ele>19.2</ele><time>2022-06-26T08:43:03.000Z</time></trkpt><trkpt lon="5.75197" lat="50.949982"><ele>19.2</ele><time>2022-06-26T08:43:04.000Z</time></trkpt><trkpt lon="5.752071" lat="50.950009"><ele>19</ele><time>2022-06-26T08:43:05.000Z</time></trkpt><trkpt lon="5.752173" lat="50.950032"><ele>18.8</ele><time>2022-06-26T08:43:06.000Z</time></trkpt><trkpt lon="5.752278" lat="50.950059"><ele>18.8</ele><time>2022-06-26T08:43:07.000Z</time></trkpt><trkpt lon="5.752385" lat="50.950085"><ele>18.6</ele><time>2022-06-26T08:43:08.000Z</time></trkpt><trkpt lon="5.752487" lat="50.950108"><ele>18.6</ele><time>2022-06-26T08:43:09.000Z</time></trkpt><trkpt lon="5.752591" lat="50.950135"><ele>18.4</ele><time>2022-06-26T08:43:10.000Z</time></trkpt><trkpt lon="5.752694" lat="50.950158"><ele>18.4</ele><time>2022-06-26T08:43:11.000Z</time></trkpt><trkpt lon="5.752796" lat="50.950184"><ele>18.2</ele><time>2022-06-26T08:43:12.000Z</time></trkpt><trkpt lon="5.7529" lat="50.950211"><ele>18.2</ele><time>2022-06-26T08:43:13.000Z</time></trkpt><trkpt lon="5.753001" lat="50.950234"><ele>18.2</ele><time>2022-06-26T08:43:14.000Z</time></trkpt><trkpt lon="5.753104" lat="50.950257"><ele>18.2</ele><time>2022-06-26T08:43:15.000Z</time></trkpt><trkpt lon="5.753208" lat="50.950276"><ele>18.2</ele><time>2022-06-26T08:43:16.000Z</time></trkpt><trkpt lon="5.753312" lat="50.950295"><ele>18.2</ele><time>2022-06-26T08:43:17.000Z</time></trkpt><trkpt lon="5.753416" lat="50.950313"><ele>18.2</ele><time>2022-06-26T08:43:18.000Z</time></trkpt><trkpt lon="5.753524" lat="50.950333"><ele>18.2</ele><time>2022-06-26T08:43:19.000Z</time></trkpt><trkpt lon="5.753631" lat="50.950352"><ele>18.2</ele><time>2022-06-26T08:43:20.000Z</time></trkpt><trkpt lon="5.753733" lat="50.950367"><ele>18.2</ele><time>2022-06-26T08:43:21.000Z</time></trkpt><trkpt lon="5.753837" lat="50.950383"><ele>18.2</ele><time>2022-06-26T08:43:22.000Z</time></trkpt><trkpt lon="5.75394" lat="50.950398"><ele>18.2</ele><time>2022-06-26T08:43:23.000Z</time></trkpt><trkpt lon="5.754043" lat="50.950409"><ele>18.2</ele><time>2022-06-26T08:43:24.000Z</time></trkpt><trkpt lon="5.754142" lat="50.950417"><ele>18.2</ele><time>2022-06-26T08:43:25.000Z</time></trkpt><trkpt lon="5.754242" lat="50.950428"><ele>18.2</ele><time>2022-06-26T08:43:26.000Z</time></trkpt><trkpt lon="5.75434" lat="50.950439"><ele>18.2</ele><time>2022-06-26T08:43:27.000Z</time></trkpt><trkpt lon="5.754441" lat="50.950443"><ele>18</ele><time>2022-06-26T08:43:28.000Z</time></trkpt><trkpt lon="5.754542" lat="50.950451"><ele>18</ele><time>2022-06-26T08:43:29.000Z</time></trkpt><trkpt lon="5.754646" lat="50.950459"><ele>17.8</ele><time>2022-06-26T08:43:30.000Z</time></trkpt><trkpt lon="5.754753" lat="50.950463"><ele>17.8</ele><time>2022-06-26T08:43:31.000Z</time></trkpt><trkpt lon="5.754864" lat="50.95047"><ele>17.6</ele><time>2022-06-26T08:43:32.000Z</time></trkpt><trkpt lon="5.754978" lat="50.95047"><ele>17.4</ele><time>2022-06-26T08:43:33.000Z</time></trkpt><trkpt lon="5.755095" lat="50.95047"><ele>17.2</ele><time>2022-06-26T08:43:34.000Z</time></trkpt><trkpt lon="5.755211" lat="50.950474"><ele>16.8</ele><time>2022-06-26T08:43:35.000Z</time></trkpt><trkpt lon="5.755327" lat="50.950478"><ele>16.6</ele><time>2022-06-26T08:43:36.000Z</time></trkpt><trkpt lon="5.755441" lat="50.950481"><ele>16.2</ele><time>2022-06-26T08:43:37.000Z</time></trkpt><trkpt lon="5.75556" lat="50.950485"><ele>16</ele><time>2022-06-26T08:43:38.000Z</time></trkpt><trkpt lon="5.755675" lat="50.950489"><ele>15.8</ele><time>2022-06-26T08:43:39.000Z</time></trkpt><trkpt lon="5.755791" lat="50.950493"><ele>15.6</ele><time>2022-06-26T08:43:40.000Z</time></trkpt><trkpt lon="5.755904" lat="50.950497"><ele>15.4</ele><time>2022-06-26T08:43:41.000Z</time></trkpt><trkpt lon="5.756016" lat="50.9505"><ele>15.4</ele><time>2022-06-26T08:43:42.000Z</time></trkpt><trkpt lon="5.756126" lat="50.950501"><ele>15.2</ele><time>2022-06-26T08:43:43.000Z</time></trkpt><trkpt lon="5.756232" lat="50.950504"><ele>15.2</ele><time>2022-06-26T08:43:44.000Z</time></trkpt><trkpt lon="5.756335" lat="50.950508"><ele>15.2</ele><time>2022-06-26T08:43:45.000Z</time></trkpt><trkpt lon="5.756433" lat="50.950524"><ele>15</ele><time>2022-06-26T08:43:46.000Z</time></trkpt><trkpt lon="5.756521" lat="50.950551"><ele>15</ele><time>2022-06-26T08:43:47.000Z</time></trkpt><trkpt lon="5.756597" lat="50.950592"><ele>15</ele><time>2022-06-26T08:43:48.000Z</time></trkpt><trkpt lon="5.756671" lat="50.950646"><ele>15</ele><time>2022-06-26T08:43:49.000Z</time></trkpt><trkpt lon="5.756739" lat="50.950707"><ele>15</ele><time>2022-06-26T08:43:50.000Z</time></trkpt><trkpt lon="5.756806" lat="50.950765"><ele>14.8</ele><time>2022-06-26T08:43:51.000Z</time></trkpt><trkpt lon="5.756872" lat="50.95083"><ele>14.8</ele><time>2022-06-26T08:43:52.000Z</time></trkpt><trkpt lon="5.756938" lat="50.950895"><ele>14.8</ele><time>2022-06-26T08:43:53.000Z</time></trkpt><trkpt lon="5.757004" lat="50.95096"><ele>14.8</ele><time>2022-06-26T08:43:54.000Z</time></trkpt><trkpt lon="5.757068" lat="50.951025"><ele>14.8</ele><time>2022-06-26T08:43:55.000Z</time></trkpt><trkpt lon="5.757129" lat="50.951089"><ele>14.8</ele><time>2022-06-26T08:43:56.000Z</time></trkpt><trkpt lon="5.757193" lat="50.951154"><ele>14.6</ele><time>2022-06-26T08:43:57.000Z</time></trkpt><trkpt lon="5.757255" lat="50.951224"><ele>14.6</ele><time>2022-06-26T08:43:58.000Z</time></trkpt><trkpt lon="5.757313" lat="50.951288"><ele>14.8</ele><time>2022-06-26T08:43:59.000Z</time></trkpt><trkpt lon="5.75737" lat="50.951357"><ele>14.8</ele><time>2022-06-26T08:44:00.000Z</time></trkpt><trkpt lon="5.757422" lat="50.951425"><ele>14.8</ele><time>2022-06-26T08:44:01.000Z</time></trkpt><trkpt lon="5.757474" lat="50.951497"><ele>14.8</ele><time>2022-06-26T08:44:02.000Z</time></trkpt><trkpt lon="5.757523" lat="50.951566"><ele>14.8</ele><time>2022-06-26T08:44:03.000Z</time></trkpt><trkpt lon="5.757566" lat="50.951636"><ele>14.8</ele><time>2022-06-26T08:44:04.000Z</time></trkpt><trkpt lon="5.757606" lat="50.951704"><ele>14.8</ele><time>2022-06-26T08:44:05.000Z</time></trkpt><trkpt lon="5.757643" lat="50.951776"><ele>14.8</ele><time>2022-06-26T08:44:06.000Z</time></trkpt><trkpt lon="5.757679" lat="50.951845"><ele>14.8</ele><time>2022-06-26T08:44:07.000Z</time></trkpt><trkpt lon="5.757713" lat="50.951921"><ele>14.8</ele><time>2022-06-26T08:44:08.000Z</time></trkpt><trkpt lon="5.757745" lat="50.951994"><ele>14.8</ele><time>2022-06-26T08:44:09.000Z</time></trkpt><trkpt lon="5.757774" lat="50.952066"><ele>14.8</ele><time>2022-06-26T08:44:10.000Z</time></trkpt><trkpt lon="5.757798" lat="50.952137"><ele>14.8</ele><time>2022-06-26T08:44:11.000Z</time></trkpt><trkpt lon="5.757818" lat="50.952214"><ele>14.8</ele><time>2022-06-26T08:44:12.000Z</time></trkpt><trkpt lon="5.757835" lat="50.952284"><ele>14.8</ele><time>2022-06-26T08:44:13.000Z</time></trkpt><trkpt lon="5.757848" lat="50.95236"><ele>14.8</ele><time>2022-06-26T08:44:14.000Z</time></trkpt><trkpt lon="5.75786" lat="50.952432"><ele>14.8</ele><time>2022-06-26T08:44:15.000Z</time></trkpt><trkpt lon="5.757867" lat="50.952506"><ele>14.8</ele><time>2022-06-26T08:44:16.000Z</time></trkpt><trkpt lon="5.75787" lat="50.952581"><ele>14.8</ele><time>2022-06-26T08:44:17.000Z</time></trkpt><trkpt lon="5.757867" lat="50.952655"><ele>15</ele><time>2022-06-26T08:44:18.000Z</time></trkpt><trkpt lon="5.757863" lat="50.952731"><ele>15</ele><time>2022-06-26T08:44:19.000Z</time></trkpt><trkpt lon="5.757851" lat="50.952806"><ele>15</ele><time>2022-06-26T08:44:20.000Z</time></trkpt><trkpt lon="5.757838" lat="50.952875"><ele>15.2</ele><time>2022-06-26T08:44:21.000Z</time></trkpt><trkpt lon="5.757821" lat="50.952943"><ele>15.4</ele><time>2022-06-26T08:44:22.000Z</time></trkpt><trkpt lon="5.757805" lat="50.953011"><ele>15.6</ele><time>2022-06-26T08:44:23.000Z</time></trkpt><trkpt lon="5.757786" lat="50.953077"><ele>15.8</ele><time>2022-06-26T08:44:24.000Z</time></trkpt><trkpt lon="5.757768" lat="50.953142"><ele>16</ele><time>2022-06-26T08:44:25.000Z</time></trkpt><trkpt lon="5.757748" lat="50.953207"><ele>16.2</ele><time>2022-06-26T08:44:26.000Z</time></trkpt><trkpt lon="5.75773" lat="50.953271"><ele>16.6</ele><time>2022-06-26T08:44:27.000Z</time></trkpt><trkpt lon="5.757712" lat="50.953336"><ele>16.8</ele><time>2022-06-26T08:44:28.000Z</time></trkpt><trkpt lon="5.757695" lat="50.953402"><ele>17</ele><time>2022-06-26T08:44:29.000Z</time></trkpt><trkpt lon="5.757676" lat="50.95347"><ele>17</ele><time>2022-06-26T08:44:30.000Z</time></trkpt><trkpt lon="5.757658" lat="50.953538"><ele>17.2</ele><time>2022-06-26T08:44:31.000Z</time></trkpt><trkpt lon="5.757638" lat="50.953607"><ele>17.2</ele><time>2022-06-26T08:44:32.000Z</time></trkpt><trkpt lon="5.757616" lat="50.95368"><ele>17.2</ele><time>2022-06-26T08:44:33.000Z</time></trkpt><trkpt lon="5.757594" lat="50.953749"><ele>17.2</ele><time>2022-06-26T08:44:34.000Z</time></trkpt><trkpt lon="5.757569" lat="50.953821"><ele>17.2</ele><time>2022-06-26T08:44:35.000Z</time></trkpt><trkpt lon="5.757543" lat="50.953893"><ele>17.2</ele><time>2022-06-26T08:44:36.000Z</time></trkpt><trkpt lon="5.757518" lat="50.953964"><ele>17.2</ele><time>2022-06-26T08:44:37.000Z</time></trkpt><trkpt lon="5.75749" lat="50.954038"><ele>17.2</ele><time>2022-06-26T08:44:38.000Z</time></trkpt><trkpt lon="5.757461" lat="50.954106"><ele>17</ele><time>2022-06-26T08:44:39.000Z</time></trkpt><trkpt lon="5.757431" lat="50.954178"><ele>17</ele><time>2022-06-26T08:44:40.000Z</time></trkpt><trkpt lon="5.757399" lat="50.954248"><ele>17</ele><time>2022-06-26T08:44:41.000Z</time></trkpt><trkpt lon="5.757368" lat="50.95432"><ele>17</ele><time>2022-06-26T08:44:42.000Z</time></trkpt><trkpt lon="5.757334" lat="50.954393"><ele>17.2</ele><time>2022-06-26T08:44:43.000Z</time></trkpt><trkpt lon="5.757297" lat="50.954462"><ele>17.2</ele><time>2022-06-26T08:44:44.000Z</time></trkpt><trkpt lon="5.757261" lat="50.95453"><ele>17.2</ele><time>2022-06-26T08:44:45.000Z</time></trkpt><trkpt lon="5.757222" lat="50.954599"><ele>17.2</ele><time>2022-06-26T08:44:46.000Z</time></trkpt><trkpt lon="5.757184" lat="50.954667"><ele>17.2</ele><time>2022-06-26T08:44:47.000Z</time></trkpt><trkpt lon="5.757142" lat="50.954737"><ele>17</ele><time>2022-06-26T08:44:48.000Z</time></trkpt><trkpt lon="5.757103" lat="50.954805"><ele>17</ele><time>2022-06-26T08:44:49.000Z</time></trkpt><trkpt lon="5.75706" lat="50.954876"><ele>17</ele><time>2022-06-26T08:44:50.000Z</time></trkpt><trkpt lon="5.757016" lat="50.954946"><ele>17</ele><time>2022-06-26T08:44:51.000Z</time></trkpt><trkpt lon="5.756971" lat="50.955014"><ele>17</ele><time>2022-06-26T08:44:52.000Z</time></trkpt><trkpt lon="5.756925" lat="50.955084"><ele>16.8</ele><time>2022-06-26T08:44:53.000Z</time></trkpt><trkpt lon="5.756877" lat="50.955152"><ele>16.8</ele><time>2022-06-26T08:44:54.000Z</time></trkpt><trkpt lon="5.756829" lat="50.955217"><ele>16.8</ele><time>2022-06-26T08:44:55.000Z</time></trkpt><trkpt lon="5.75678" lat="50.955286"><ele>16.8</ele><time>2022-06-26T08:44:56.000Z</time></trkpt><trkpt lon="5.75673" lat="50.95535"><ele>17</ele><time>2022-06-26T08:44:57.000Z</time></trkpt><trkpt lon="5.756681" lat="50.955415"><ele>17</ele><time>2022-06-26T08:44:58.000Z</time></trkpt><trkpt lon="5.756629" lat="50.955484"><ele>17</ele><time>2022-06-26T08:44:59.000Z</time></trkpt><trkpt lon="5.756575" lat="50.955549"><ele>17</ele><time>2022-06-26T08:45:00.000Z</time></trkpt><trkpt lon="5.756522" lat="50.955613"><ele>17</ele><time>2022-06-26T08:45:01.000Z</time></trkpt><trkpt lon="5.756466" lat="50.955677"><ele>16.8</ele><time>2022-06-26T08:45:02.000Z</time></trkpt><trkpt lon="5.756409" lat="50.955743"><ele>16.6</ele><time>2022-06-26T08:45:03.000Z</time></trkpt><trkpt lon="5.75635" lat="50.955809"><ele>16.8</ele><time>2022-06-26T08:45:04.000Z</time></trkpt><trkpt lon="5.756289" lat="50.955873"><ele>16.8</ele><time>2022-06-26T08:45:05.000Z</time></trkpt><trkpt lon="5.75623" lat="50.955934"><ele>16.8</ele><time>2022-06-26T08:45:06.000Z</time></trkpt><trkpt lon="5.756168" lat="50.955995"><ele>16.8</ele><time>2022-06-26T08:45:07.000Z</time></trkpt><trkpt lon="5.756106" lat="50.956056"><ele>16.6</ele><time>2022-06-26T08:45:08.000Z</time></trkpt><trkpt lon="5.75604" lat="50.956117"><ele>16.6</ele><time>2022-06-26T08:45:09.000Z</time></trkpt><trkpt lon="5.755975" lat="50.956178"><ele>16.6</ele><time>2022-06-26T08:45:10.000Z</time></trkpt><trkpt lon="5.755908" lat="50.956243"><ele>16.6</ele><time>2022-06-26T08:45:11.000Z</time></trkpt><trkpt lon="5.755841" lat="50.9563"><ele>16.6</ele><time>2022-06-26T08:45:12.000Z</time></trkpt><trkpt lon="5.755772" lat="50.956361"><ele>16.8</ele><time>2022-06-26T08:45:13.000Z</time></trkpt><trkpt lon="5.755707" lat="50.956426"><ele>16.6</ele><time>2022-06-26T08:45:14.000Z</time></trkpt><trkpt lon="5.755644" lat="50.956486"><ele>16.6</ele><time>2022-06-26T08:45:15.000Z</time></trkpt><trkpt lon="5.755575" lat="50.956548"><ele>16.6</ele><time>2022-06-26T08:45:16.000Z</time></trkpt><trkpt lon="5.75551" lat="50.956608"><ele>16.8</ele><time>2022-06-26T08:45:17.000Z</time></trkpt><trkpt lon="5.755446" lat="50.956668"><ele>16.8</ele><time>2022-06-26T08:45:18.000Z</time></trkpt><trkpt lon="5.75538" lat="50.956731"><ele>16.8</ele><time>2022-06-26T08:45:19.000Z</time></trkpt><trkpt lon="5.755313" lat="50.956792"><ele>16.6</ele><time>2022-06-26T08:45:20.000Z</time></trkpt><trkpt lon="5.755245" lat="50.956849"><ele>16.6</ele><time>2022-06-26T08:45:21.000Z</time></trkpt><trkpt lon="5.755174" lat="50.956907"><ele>16.4</ele><time>2022-06-26T08:45:22.000Z</time></trkpt><trkpt lon="5.755107" lat="50.956968"><ele>16.4</ele><time>2022-06-26T08:45:23.000Z</time></trkpt><trkpt lon="5.755035" lat="50.957029"><ele>16.6</ele><time>2022-06-26T08:45:24.000Z</time></trkpt><trkpt lon="5.754969" lat="50.957089"><ele>16.6</ele><time>2022-06-26T08:45:25.000Z</time></trkpt><trkpt lon="5.754899" lat="50.957147"><ele>16.6</ele><time>2022-06-26T08:45:26.000Z</time></trkpt><trkpt lon="5.75483" lat="50.957209"><ele>16.6</ele><time>2022-06-26T08:45:27.000Z</time></trkpt><trkpt lon="5.754761" lat="50.95727"><ele>16.4</ele><time>2022-06-26T08:45:28.000Z</time></trkpt><trkpt lon="5.754692" lat="50.957334"><ele>16.4</ele><time>2022-06-26T08:45:29.000Z</time></trkpt><trkpt lon="5.754623" lat="50.957391"><ele>16.2</ele><time>2022-06-26T08:45:30.000Z</time></trkpt><trkpt lon="5.754555" lat="50.957452"><ele>16.4</ele><time>2022-06-26T08:45:31.000Z</time></trkpt><trkpt lon="5.754487" lat="50.957513"><ele>16.4</ele><time>2022-06-26T08:45:32.000Z</time></trkpt><trkpt lon="5.754421" lat="50.957568"><ele>16.4</ele><time>2022-06-26T08:45:33.000Z</time></trkpt><trkpt lon="5.754354" lat="50.95763"><ele>16.4</ele><time>2022-06-26T08:45:34.000Z</time></trkpt><trkpt lon="5.754282" lat="50.957689"><ele>16.6</ele><time>2022-06-26T08:45:35.000Z</time></trkpt><trkpt lon="5.754213" lat="50.95775"><ele>16.6</ele><time>2022-06-26T08:45:36.000Z</time></trkpt><trkpt lon="5.754145" lat="50.957807"><ele>16.6</ele><time>2022-06-26T08:45:37.000Z</time></trkpt><trkpt lon="5.754074" lat="50.957865"><ele>16.6</ele><time>2022-06-26T08:45:38.000Z</time></trkpt><trkpt lon="5.754005" lat="50.957922"><ele>16.6</ele><time>2022-06-26T08:45:39.000Z</time></trkpt><trkpt lon="5.753935" lat="50.957979"><ele>16.6</ele><time>2022-06-26T08:45:40.000Z</time></trkpt><trkpt lon="5.753866" lat="50.958035"><ele>16.6</ele><time>2022-06-26T08:45:41.000Z</time></trkpt><trkpt lon="5.753803" lat="50.95809"><ele>16.6</ele><time>2022-06-26T08:45:42.000Z</time></trkpt><trkpt lon="5.75374" lat="50.958146"><ele>16.6</ele><time>2022-06-26T08:45:43.000Z</time></trkpt><trkpt lon="5.753678" lat="50.958206"><ele>16.6</ele><time>2022-06-26T08:45:44.000Z</time></trkpt><trkpt lon="5.753614" lat="50.958264"><ele>16.6</ele><time>2022-06-26T08:45:45.000Z</time></trkpt><trkpt lon="5.753543" lat="50.958314"><ele>16.6</ele><time>2022-06-26T08:45:46.000Z</time></trkpt><trkpt lon="5.753461" lat="50.958364"><ele>16.6</ele><time>2022-06-26T08:45:47.000Z</time></trkpt><trkpt lon="5.75337" lat="50.95841"><ele>16.6</ele><time>2022-06-26T08:45:48.000Z</time></trkpt><trkpt lon="5.753279" lat="50.958462"><ele>16.6</ele><time>2022-06-26T08:45:49.000Z</time></trkpt><trkpt lon="5.753184" lat="50.958504"><ele>16.6</ele><time>2022-06-26T08:45:50.000Z</time></trkpt><trkpt lon="5.753091" lat="50.95855"><ele>16.6</ele><time>2022-06-26T08:45:51.000Z</time></trkpt><trkpt lon="5.75299" lat="50.958593"><ele>16.6</ele><time>2022-06-26T08:45:52.000Z</time></trkpt><trkpt lon="5.752896" lat="50.958638"><ele>16.6</ele><time>2022-06-26T08:45:53.000Z</time></trkpt><trkpt lon="5.7528" lat="50.958684"><ele>16.6</ele><time>2022-06-26T08:45:54.000Z</time></trkpt><trkpt lon="5.752699" lat="50.95873"><ele>16.6</ele><time>2022-06-26T08:45:55.000Z</time></trkpt><trkpt lon="5.752599" lat="50.958775"><ele>16.4</ele><time>2022-06-26T08:45:56.000Z</time></trkpt><trkpt lon="5.752501" lat="50.958818"><ele>16.4</ele><time>2022-06-26T08:45:57.000Z</time></trkpt><trkpt lon="5.752404" lat="50.958864"><ele>16.4</ele><time>2022-06-26T08:45:58.000Z</time></trkpt><trkpt lon="5.752306" lat="50.958905"><ele>16.4</ele><time>2022-06-26T08:45:59.000Z</time></trkpt><trkpt lon="5.752208" lat="50.958947"><ele>16.4</ele><time>2022-06-26T08:46:00.000Z</time></trkpt><trkpt lon="5.75211" lat="50.958989"><ele>16.6</ele><time>2022-06-26T08:46:01.000Z</time></trkpt><trkpt lon="5.752011" lat="50.95903"><ele>16.8</ele><time>2022-06-26T08:46:02.000Z</time></trkpt><trkpt lon="5.751911" lat="50.959069"><ele>16.8</ele><time>2022-06-26T08:46:03.000Z</time></trkpt><trkpt lon="5.751814" lat="50.959107"><ele>16.8</ele><time>2022-06-26T08:46:04.000Z</time></trkpt><trkpt lon="5.751714" lat="50.959149"><ele>16.8</ele><time>2022-06-26T08:46:05.000Z</time></trkpt><trkpt lon="5.751614" lat="50.959188"><ele>16.8</ele><time>2022-06-26T08:46:06.000Z</time></trkpt><trkpt lon="5.751516" lat="50.959226"><ele>16.6</ele><time>2022-06-26T08:46:07.000Z</time></trkpt><trkpt lon="5.751417" lat="50.95926"><ele>16.6</ele><time>2022-06-26T08:46:08.000Z</time></trkpt><trkpt lon="5.751316" lat="50.959298"><ele>16.4</ele><time>2022-06-26T08:46:09.000Z</time></trkpt><trkpt lon="5.751217" lat="50.959332"><ele>16.4</ele><time>2022-06-26T08:46:10.000Z</time></trkpt><trkpt lon="5.751117" lat="50.959366"><ele>16.4</ele><time>2022-06-26T08:46:11.000Z</time></trkpt><trkpt lon="5.751017" lat="50.959401"><ele>16.4</ele><time>2022-06-26T08:46:12.000Z</time></trkpt><trkpt lon="5.750921" lat="50.959435"><ele>16.4</ele><time>2022-06-26T08:46:13.000Z</time></trkpt><trkpt lon="5.750821" lat="50.959469"><ele>16.4</ele><time>2022-06-26T08:46:14.000Z</time></trkpt><trkpt lon="5.75072" lat="50.959503"><ele>16.4</ele><time>2022-06-26T08:46:15.000Z</time></trkpt><trkpt lon="5.750615" lat="50.959539"><ele>16.4</ele><time>2022-06-26T08:46:16.000Z</time></trkpt><trkpt lon="5.750514" lat="50.959573"><ele>16.2</ele><time>2022-06-26T08:46:17.000Z</time></trkpt><trkpt lon="5.750419" lat="50.959602"><ele>16.2</ele><time>2022-06-26T08:46:18.000Z</time></trkpt><trkpt lon="5.750311" lat="50.959638"><ele>16.2</ele><time>2022-06-26T08:46:19.000Z</time></trkpt><trkpt lon="5.750209" lat="50.959672"><ele>16.2</ele><time>2022-06-26T08:46:20.000Z</time></trkpt><trkpt lon="5.750107" lat="50.959702"><ele>16</ele><time>2022-06-26T08:46:21.000Z</time></trkpt><trkpt lon="5.750003" lat="50.959737"><ele>16</ele><time>2022-06-26T08:46:22.000Z</time></trkpt><trkpt lon="5.749902" lat="50.959771"><ele>16</ele><time>2022-06-26T08:46:23.000Z</time></trkpt><trkpt lon="5.749795" lat="50.959802"><ele>16</ele><time>2022-06-26T08:46:24.000Z</time></trkpt><trkpt lon="5.749692" lat="50.959835"><ele>16</ele><time>2022-06-26T08:46:25.000Z</time></trkpt><trkpt lon="5.749593" lat="50.959861"><ele>16</ele><time>2022-06-26T08:46:26.000Z</time></trkpt><trkpt lon="5.749483" lat="50.959897"><ele>16</ele><time>2022-06-26T08:46:27.000Z</time></trkpt><trkpt lon="5.749376" lat="50.959931"><ele>16</ele><time>2022-06-26T08:46:28.000Z</time></trkpt><trkpt lon="5.74927" lat="50.959958"><ele>16</ele><time>2022-06-26T08:46:29.000Z</time></trkpt><trkpt lon="5.749168" lat="50.959988"><ele>16</ele><time>2022-06-26T08:46:30.000Z</time></trkpt><trkpt lon="5.749062" lat="50.960019"><ele>16</ele><time>2022-06-26T08:46:31.000Z</time></trkpt><trkpt lon="5.748959" lat="50.960045"><ele>16</ele><time>2022-06-26T08:46:32.000Z</time></trkpt><trkpt lon="5.748856" lat="50.960072"><ele>16</ele><time>2022-06-26T08:46:33.000Z</time></trkpt><trkpt lon="5.748752" lat="50.960102"><ele>16</ele><time>2022-06-26T08:46:34.000Z</time></trkpt><trkpt lon="5.748645" lat="50.960129"><ele>16</ele><time>2022-06-26T08:46:35.000Z</time></trkpt><trkpt lon="5.748539" lat="50.960156"><ele>16</ele><time>2022-06-26T08:46:36.000Z</time></trkpt><trkpt lon="5.748432" lat="50.960187"><ele>16.2</ele><time>2022-06-26T08:46:37.000Z</time></trkpt><trkpt lon="5.748329" lat="50.960213"><ele>16</ele><time>2022-06-26T08:46:38.000Z</time></trkpt><trkpt lon="5.748223" lat="50.96024"><ele>16</ele><time>2022-06-26T08:46:39.000Z</time></trkpt><trkpt lon="5.748113" lat="50.960267"><ele>15.8</ele><time>2022-06-26T08:46:40.000Z</time></trkpt><trkpt lon="5.748008" lat="50.960289"><ele>15.8</ele><time>2022-06-26T08:46:41.000Z</time></trkpt><trkpt lon="5.747902" lat="50.960311"><ele>16</ele><time>2022-06-26T08:46:42.000Z</time></trkpt><trkpt lon="5.747789" lat="50.960335"><ele>16</ele><time>2022-06-26T08:46:43.000Z</time></trkpt><trkpt lon="5.747681" lat="50.960358"><ele>16</ele><time>2022-06-26T08:46:44.000Z</time></trkpt><trkpt lon="5.747573" lat="50.960377"><ele>16</ele><time>2022-06-26T08:46:45.000Z</time></trkpt><trkpt lon="5.747464" lat="50.9604"><ele>15.8</ele><time>2022-06-26T08:46:46.000Z</time></trkpt><trkpt lon="5.747356" lat="50.960419"><ele>15.8</ele><time>2022-06-26T08:46:47.000Z</time></trkpt><trkpt lon="5.747245" lat="50.960442"><ele>15.8</ele><time>2022-06-26T08:46:48.000Z</time></trkpt><trkpt lon="5.747138" lat="50.960461"><ele>15.6</ele><time>2022-06-26T08:46:49.000Z</time></trkpt><trkpt lon="5.747029" lat="50.960476"><ele>15.6</ele><time>2022-06-26T08:46:50.000Z</time></trkpt><trkpt lon="5.746922" lat="50.960495"><ele>15.6</ele><time>2022-06-26T08:46:51.000Z</time></trkpt><trkpt lon="5.746816" lat="50.960507"><ele>15.6</ele><time>2022-06-26T08:46:52.000Z</time></trkpt><trkpt lon="5.746707" lat="50.960518"><ele>15.6</ele><time>2022-06-26T08:46:53.000Z</time></trkpt><trkpt lon="5.746598" lat="50.960526"><ele>15.6</ele><time>2022-06-26T08:46:54.000Z</time></trkpt><trkpt lon="5.746488" lat="50.960533"><ele>15.6</ele><time>2022-06-26T08:46:55.000Z</time></trkpt><trkpt lon="5.746376" lat="50.960545"><ele>15.6</ele><time>2022-06-26T08:46:56.000Z</time></trkpt><trkpt lon="5.746265" lat="50.960548"><ele>15.8</ele><time>2022-06-26T08:46:57.000Z</time></trkpt><trkpt lon="5.746151" lat="50.960552"><ele>15.8</ele><time>2022-06-26T08:46:58.000Z</time></trkpt><trkpt lon="5.746038" lat="50.960556"><ele>15.8</ele><time>2022-06-26T08:46:59.000Z</time></trkpt><trkpt lon="5.745926" lat="50.960552"><ele>15.8</ele><time>2022-06-26T08:47:00.000Z</time></trkpt><trkpt lon="5.745815" lat="50.960552"><ele>16</ele><time>2022-06-26T08:47:01.000Z</time></trkpt><trkpt lon="5.745708" lat="50.960548"><ele>15.8</ele><time>2022-06-26T08:47:02.000Z</time></trkpt><trkpt lon="5.745596" lat="50.960544"><ele>16</ele><time>2022-06-26T08:47:03.000Z</time></trkpt><trkpt lon="5.745488" lat="50.960537"><ele>15.8</ele><time>2022-06-26T08:47:04.000Z</time></trkpt><trkpt lon="5.745382" lat="50.960529"><ele>15.8</ele><time>2022-06-26T08:47:05.000Z</time></trkpt><trkpt lon="5.745274" lat="50.960522"><ele>15.8</ele><time>2022-06-26T08:47:06.000Z</time></trkpt><trkpt lon="5.745165" lat="50.960514"><ele>15.8</ele><time>2022-06-26T08:47:07.000Z</time></trkpt><trkpt lon="5.745057" lat="50.960502"><ele>15.6</ele><time>2022-06-26T08:47:08.000Z</time></trkpt><trkpt lon="5.744951" lat="50.960491"><ele>15.6</ele><time>2022-06-26T08:47:09.000Z</time></trkpt><trkpt lon="5.744843" lat="50.960476"><ele>15.4</ele><time>2022-06-26T08:47:10.000Z</time></trkpt><trkpt lon="5.744738" lat="50.960457"><ele>15.2</ele><time>2022-06-26T08:47:11.000Z</time></trkpt><trkpt lon="5.744633" lat="50.960437"><ele>15.2</ele><time>2022-06-26T08:47:12.000Z</time></trkpt><trkpt lon="5.744531" lat="50.960415"><ele>15</ele><time>2022-06-26T08:47:13.000Z</time></trkpt><trkpt lon="5.744429" lat="50.960396"><ele>15.2</ele><time>2022-06-26T08:47:14.000Z</time></trkpt><trkpt lon="5.744329" lat="50.960373"><ele>15.2</ele><time>2022-06-26T08:47:15.000Z</time></trkpt><trkpt lon="5.744224" lat="50.96035"><ele>15.2</ele><time>2022-06-26T08:47:16.000Z</time></trkpt><trkpt lon="5.744124" lat="50.960327"><ele>15.2</ele><time>2022-06-26T08:47:17.000Z</time></trkpt><trkpt lon="5.74403" lat="50.960298"><ele>15.2</ele><time>2022-06-26T08:47:18.000Z</time></trkpt><trkpt lon="5.743922" lat="50.960269"><ele>15.2</ele><time>2022-06-26T08:47:19.000Z</time></trkpt><trkpt lon="5.743822" lat="50.960242"><ele>15.2</ele><time>2022-06-26T08:47:20.000Z</time></trkpt><trkpt lon="5.743726" lat="50.960208"><ele>15.2</ele><time>2022-06-26T08:47:21.000Z</time></trkpt><trkpt lon="5.74363" lat="50.960178"><ele>15.4</ele><time>2022-06-26T08:47:22.000Z</time></trkpt><trkpt lon="5.743536" lat="50.960143"><ele>15.4</ele><time>2022-06-26T08:47:23.000Z</time></trkpt><trkpt lon="5.743443" lat="50.960109"><ele>15.4</ele><time>2022-06-26T08:47:24.000Z</time></trkpt><trkpt lon="5.74335" lat="50.960075"><ele>15.4</ele><time>2022-06-26T08:47:25.000Z</time></trkpt><trkpt lon="5.743263" lat="50.960043"><ele>15.4</ele><time>2022-06-26T08:47:26.000Z</time></trkpt><trkpt lon="5.743161" lat="50.960006"><ele>15.2</ele><time>2022-06-26T08:47:27.000Z</time></trkpt><trkpt lon="5.743071" lat="50.959967"><ele>15.2</ele><time>2022-06-26T08:47:28.000Z</time></trkpt><trkpt lon="5.742981" lat="50.959926"><ele>15.2</ele><time>2022-06-26T08:47:29.000Z</time></trkpt><trkpt lon="5.742891" lat="50.959887"><ele>15.2</ele><time>2022-06-26T08:47:30.000Z</time></trkpt><trkpt lon="5.742805" lat="50.959846"><ele>15.2</ele><time>2022-06-26T08:47:31.000Z</time></trkpt><trkpt lon="5.742716" lat="50.959807"><ele>15</ele><time>2022-06-26T08:47:32.000Z</time></trkpt><trkpt lon="5.742631" lat="50.959761"><ele>15</ele><time>2022-06-26T08:47:33.000Z</time></trkpt><trkpt lon="5.742548" lat="50.959716"><ele>15</ele><time>2022-06-26T08:47:34.000Z</time></trkpt><trkpt lon="5.742467" lat="50.95967"><ele>15.2</ele><time>2022-06-26T08:47:35.000Z</time></trkpt><trkpt lon="5.742387" lat="50.959624"><ele>15.2</ele><time>2022-06-26T08:47:36.000Z</time></trkpt><trkpt lon="5.742309" lat="50.959579"><ele>15.2</ele><time>2022-06-26T08:47:37.000Z</time></trkpt><trkpt lon="5.742231" lat="50.959529"><ele>15</ele><time>2022-06-26T08:47:38.000Z</time></trkpt><trkpt lon="5.742158" lat="50.95948"><ele>15.2</ele><time>2022-06-26T08:47:39.000Z</time></trkpt><trkpt lon="5.742086" lat="50.959433"><ele>15</ele><time>2022-06-26T08:47:40.000Z</time></trkpt><trkpt lon="5.742017" lat="50.95938"><ele>15</ele><time>2022-06-26T08:47:41.000Z</time></trkpt><trkpt lon="5.741953" lat="50.959335"><ele>15</ele><time>2022-06-26T08:47:42.000Z</time></trkpt><trkpt lon="5.741879" lat="50.959277"><ele>15</ele><time>2022-06-26T08:47:43.000Z</time></trkpt><trkpt lon="5.74181" lat="50.959223"><ele>15</ele><time>2022-06-26T08:47:44.000Z</time></trkpt><trkpt lon="5.741742" lat="50.95917"><ele>15</ele><time>2022-06-26T08:47:45.000Z</time></trkpt><trkpt lon="5.741676" lat="50.95912"><ele>15</ele><time>2022-06-26T08:47:46.000Z</time></trkpt><trkpt lon="5.741603" lat="50.959064"><ele>15</ele><time>2022-06-26T08:47:47.000Z</time></trkpt><trkpt lon="5.741535" lat="50.959006"><ele>15</ele><time>2022-06-26T08:47:48.000Z</time></trkpt><trkpt lon="5.741468" lat="50.958954"><ele>15</ele><time>2022-06-26T08:47:49.000Z</time></trkpt><trkpt lon="5.7414" lat="50.958896"><ele>15</ele><time>2022-06-26T08:47:50.000Z</time></trkpt><trkpt lon="5.74133" lat="50.958842"><ele>14.8</ele><time>2022-06-26T08:47:51.000Z</time></trkpt><trkpt lon="5.741263" lat="50.958789"><ele>14.8</ele><time>2022-06-26T08:47:52.000Z</time></trkpt><trkpt lon="5.741193" lat="50.958731"><ele>14.8</ele><time>2022-06-26T08:47:53.000Z</time></trkpt><trkpt lon="5.741124" lat="50.958674"><ele>14.8</ele><time>2022-06-26T08:47:54.000Z</time></trkpt><trkpt lon="5.741055" lat="50.958621"><ele>14.8</ele><time>2022-06-26T08:47:55.000Z</time></trkpt><trkpt lon="5.740987" lat="50.958567"><ele>14.8</ele><time>2022-06-26T08:47:56.000Z</time></trkpt><trkpt lon="5.740917" lat="50.95851"><ele>14.8</ele><time>2022-06-26T08:47:57.000Z</time></trkpt><trkpt lon="5.740849" lat="50.958453"><ele>14.6</ele><time>2022-06-26T08:47:58.000Z</time></trkpt><trkpt lon="5.74078" lat="50.9584"><ele>14.6</ele><time>2022-06-26T08:47:59.000Z</time></trkpt><trkpt lon="5.74071" lat="50.958342"><ele>14.8</ele><time>2022-06-26T08:48:00.000Z</time></trkpt><trkpt lon="5.740643" lat="50.958286"><ele>15</ele><time>2022-06-26T08:48:01.000Z</time></trkpt><trkpt lon="5.740576" lat="50.95823"><ele>15</ele><time>2022-06-26T08:48:02.000Z</time></trkpt><trkpt lon="5.740502" lat="50.958171"><ele>14.8</ele><time>2022-06-26T08:48:03.000Z</time></trkpt><trkpt lon="5.74043" lat="50.958109"><ele>14.6</ele><time>2022-06-26T08:48:04.000Z</time></trkpt><trkpt lon="5.740357" lat="50.958049"><ele>14.4</ele><time>2022-06-26T08:48:05.000Z</time></trkpt><trkpt lon="5.740284" lat="50.957992"><ele>14.2</ele><time>2022-06-26T08:48:06.000Z</time></trkpt><trkpt lon="5.74021" lat="50.957931"><ele>14</ele><time>2022-06-26T08:48:07.000Z</time></trkpt><trkpt lon="5.74014" lat="50.957878"><ele>14</ele><time>2022-06-26T08:48:08.000Z</time></trkpt><trkpt lon="5.740069" lat="50.957816"><ele>14</ele><time>2022-06-26T08:48:09.000Z</time></trkpt><trkpt lon="5.739997" lat="50.957759"><ele>13.8</ele><time>2022-06-26T08:48:10.000Z</time></trkpt><trkpt lon="5.739928" lat="50.957706"><ele>13.6</ele><time>2022-06-26T08:48:11.000Z</time></trkpt><trkpt lon="5.739857" lat="50.957648"><ele>13.6</ele><time>2022-06-26T08:48:12.000Z</time></trkpt><trkpt lon="5.739787" lat="50.957591"><ele>13.8</ele><time>2022-06-26T08:48:13.000Z</time></trkpt><trkpt lon="5.739717" lat="50.957534"><ele>13.6</ele><time>2022-06-26T08:48:14.000Z</time></trkpt><trkpt lon="5.739647" lat="50.95748"><ele>13.6</ele><time>2022-06-26T08:48:15.000Z</time></trkpt><trkpt lon="5.73959" lat="50.957431"><ele>14</ele><time>2022-06-26T08:48:16.000Z</time></trkpt><trkpt lon="5.739532" lat="50.957379"><ele>14.4</ele><time>2022-06-26T08:48:17.000Z</time></trkpt><trkpt lon="5.739491" lat="50.957345"><ele>14.6</ele><time>2022-06-26T08:48:18.000Z</time></trkpt><trkpt lon="5.739456" lat="50.957317"><ele>14.4</ele><time>2022-06-26T08:48:19.000Z</time></trkpt><trkpt lon="5.739325" lat="50.957221"><ele>14.6</ele><time>2022-06-26T08:48:20.000Z</time></trkpt><trkpt lon="5.739258" lat="50.957173"><ele>14.8</ele><time>2022-06-26T08:48:21.000Z</time></trkpt><trkpt lon="5.73916" lat="50.957096"><ele>14.6</ele><time>2022-06-26T08:48:22.000Z</time></trkpt><trkpt lon="5.739087" lat="50.957038"><ele>14.6</ele><time>2022-06-26T08:48:23.000Z</time></trkpt><trkpt lon="5.739016" lat="50.956981"><ele>14.2</ele><time>2022-06-26T08:48:24.000Z</time></trkpt><trkpt lon="5.73894" lat="50.956927"><ele>14.2</ele><time>2022-06-26T08:48:25.000Z</time></trkpt><trkpt lon="5.738868" lat="50.956871"><ele>14</ele><time>2022-06-26T08:48:26.000Z</time></trkpt><trkpt lon="5.738804" lat="50.956822"><ele>14</ele><time>2022-06-26T08:48:27.000Z</time></trkpt><trkpt lon="5.738721" lat="50.956756"><ele>13.8</ele><time>2022-06-26T08:48:28.000Z</time></trkpt><trkpt lon="5.738649" lat="50.956696"><ele>13.6</ele><time>2022-06-26T08:48:29.000Z</time></trkpt><trkpt lon="5.738572" lat="50.956637"><ele>13.6</ele><time>2022-06-26T08:48:30.000Z</time></trkpt><trkpt lon="5.738503" lat="50.956586"><ele>13.6</ele><time>2022-06-26T08:48:31.000Z</time></trkpt><trkpt lon="5.738417" lat="50.956527"><ele>13.6</ele><time>2022-06-26T08:48:32.000Z</time></trkpt><trkpt lon="5.738341" lat="50.956475"><ele>13.6</ele><time>2022-06-26T08:48:33.000Z</time></trkpt><trkpt lon="5.738257" lat="50.95642"><ele>13.6</ele><time>2022-06-26T08:48:34.000Z</time></trkpt><trkpt lon="5.738183" lat="50.956372"><ele>13.4</ele><time>2022-06-26T08:48:35.000Z</time></trkpt><trkpt lon="5.738092" lat="50.956317"><ele>13.6</ele><time>2022-06-26T08:48:36.000Z</time></trkpt><trkpt lon="5.738009" lat="50.956269"><ele>13.8</ele><time>2022-06-26T08:48:37.000Z</time></trkpt><trkpt lon="5.73792" lat="50.956222"><ele>13.8</ele><time>2022-06-26T08:48:38.000Z</time></trkpt><trkpt lon="5.737846" lat="50.956185"><ele>13.8</ele><time>2022-06-26T08:48:39.000Z</time></trkpt><trkpt lon="5.737736" lat="50.956134"><ele>14</ele><time>2022-06-26T08:48:40.000Z</time></trkpt><trkpt lon="5.737647" lat="50.956094"><ele>14</ele><time>2022-06-26T08:48:41.000Z</time></trkpt><trkpt lon="5.737552" lat="50.956051"><ele>14</ele><time>2022-06-26T08:48:42.000Z</time></trkpt><trkpt lon="5.737464" lat="50.956012"><ele>14</ele><time>2022-06-26T08:48:43.000Z</time></trkpt><trkpt lon="5.737364" lat="50.955966"><ele>14</ele><time>2022-06-26T08:48:44.000Z</time></trkpt><trkpt lon="5.737272" lat="50.955926"><ele>14</ele><time>2022-06-26T08:48:45.000Z</time></trkpt><trkpt lon="5.737171" lat="50.955886"><ele>13.8</ele><time>2022-06-26T08:48:46.000Z</time></trkpt><trkpt lon="5.737072" lat="50.955848"><ele>13.8</ele><time>2022-06-26T08:48:47.000Z</time></trkpt><trkpt lon="5.73697" lat="50.955814"><ele>14</ele><time>2022-06-26T08:48:48.000Z</time></trkpt><trkpt lon="5.736887" lat="50.955786"><ele>14.2</ele><time>2022-06-26T08:48:49.000Z</time></trkpt><trkpt lon="5.736761" lat="50.955745"><ele>14.2</ele><time>2022-06-26T08:48:50.000Z</time></trkpt><trkpt lon="5.736668" lat="50.955718"><ele>14.2</ele><time>2022-06-26T08:48:51.000Z</time></trkpt><trkpt lon="5.736551" lat="50.955681"><ele>14.2</ele><time>2022-06-26T08:48:52.000Z</time></trkpt><trkpt lon="5.736446" lat="50.955647"><ele>14.2</ele><time>2022-06-26T08:48:53.000Z</time></trkpt><trkpt lon="5.736336" lat="50.955619"><ele>14.2</ele><time>2022-06-26T08:48:54.000Z</time></trkpt><trkpt lon="5.736239" lat="50.955595"><ele>14.2</ele><time>2022-06-26T08:48:55.000Z</time></trkpt><trkpt lon="5.736124" lat="50.955562"><ele>14.2</ele><time>2022-06-26T08:48:56.000Z</time></trkpt><trkpt lon="5.736023" lat="50.955528"><ele>14.4</ele><time>2022-06-26T08:48:57.000Z</time></trkpt><trkpt lon="5.735926" lat="50.955498"><ele>14.6</ele><time>2022-06-26T08:48:58.000Z</time></trkpt><trkpt lon="5.735847" lat="50.955471"><ele>14.8</ele><time>2022-06-26T08:48:59.000Z</time></trkpt><trkpt lon="5.735746" lat="50.955436"><ele>15</ele><time>2022-06-26T08:49:00.000Z</time></trkpt><trkpt lon="5.735663" lat="50.955409"><ele>15.4</ele><time>2022-06-26T08:49:01.000Z</time></trkpt><trkpt lon="5.735584" lat="50.955379"><ele>15.6</ele><time>2022-06-26T08:49:02.000Z</time></trkpt><trkpt lon="5.735525" lat="50.955355"><ele>15.8</ele><time>2022-06-26T08:49:03.000Z</time></trkpt><trkpt lon="5.735441" lat="50.955318"><ele>16.4</ele><time>2022-06-26T08:49:04.000Z</time></trkpt><trkpt lon="5.735388" lat="50.955283"><ele>16.6</ele><time>2022-06-26T08:49:05.000Z</time></trkpt><trkpt lon="5.735346" lat="50.955241"><ele>16.8</ele><time>2022-06-26T08:49:06.000Z</time></trkpt><trkpt lon="5.73533" lat="50.955204"><ele>17</ele><time>2022-06-26T08:49:07.000Z</time></trkpt><trkpt lon="5.735359" lat="50.955157"><ele>17</ele><time>2022-06-26T08:49:08.000Z</time></trkpt><trkpt lon="5.735403" lat="50.955112"><ele>17.2</ele><time>2022-06-26T08:49:09.000Z</time></trkpt><trkpt lon="5.735469" lat="50.955081"><ele>17.2</ele><time>2022-06-26T08:49:10.000Z</time></trkpt><trkpt lon="5.73556" lat="50.955055"><ele>17.2</ele><time>2022-06-26T08:49:11.000Z</time></trkpt><trkpt lon="5.735638" lat="50.955041"><ele>17.2</ele><time>2022-06-26T08:49:12.000Z</time></trkpt><trkpt lon="5.735733" lat="50.955028"><ele>17.2</ele><time>2022-06-26T08:49:13.000Z</time></trkpt><trkpt lon="5.735806" lat="50.955017"><ele>17.2</ele><time>2022-06-26T08:49:14.000Z</time></trkpt><trkpt lon="5.735877" lat="50.955005"><ele>17.2</ele><time>2022-06-26T08:49:15.000Z</time></trkpt><trkpt lon="5.735935" lat="50.954987"><ele>17.2</ele><time>2022-06-26T08:49:16.000Z</time></trkpt><trkpt lon="5.735984" lat="50.954967"><ele>17.2</ele><time>2022-06-26T08:49:17.000Z</time></trkpt><trkpt lon="5.736" lat="50.954948"><ele>17.2</ele><time>2022-06-26T08:49:18.000Z</time></trkpt><trkpt lon="5.735991" lat="50.95493"><ele>17.2</ele><time>2022-06-26T08:49:19.000Z</time></trkpt><trkpt lon="5.735955" lat="50.954918"><ele>17.2</ele><time>2022-06-26T08:49:20.000Z</time></trkpt><trkpt lon="5.735908" lat="50.954914"><ele>17</ele><time>2022-06-26T08:49:21.000Z</time></trkpt><trkpt lon="5.735854" lat="50.954914"><ele>17</ele><time>2022-06-26T08:49:22.000Z</time></trkpt><trkpt lon="5.735796" lat="50.954914"><ele>17</ele><time>2022-06-26T08:49:23.000Z</time></trkpt><trkpt lon="5.735706" lat="50.954918"><ele>17</ele><time>2022-06-26T08:49:24.000Z</time></trkpt><trkpt lon="5.735617" lat="50.954914"><ele>17</ele><time>2022-06-26T08:49:25.000Z</time></trkpt><trkpt lon="5.735514" lat="50.95491"><ele>17</ele><time>2022-06-26T08:49:26.000Z</time></trkpt><trkpt lon="5.735425" lat="50.954907"><ele>17</ele><time>2022-06-26T08:49:27.000Z</time></trkpt><trkpt lon="5.735302" lat="50.954895"><ele>16.8</ele><time>2022-06-26T08:49:28.000Z</time></trkpt><trkpt lon="5.7352" lat="50.95488"><ele>16.6</ele><time>2022-06-26T08:49:29.000Z</time></trkpt><trkpt lon="5.735092" lat="50.954868"><ele>16.6</ele><time>2022-06-26T08:49:30.000Z</time></trkpt><trkpt lon="5.734996" lat="50.954854"><ele>16.6</ele><time>2022-06-26T08:49:31.000Z</time></trkpt><trkpt lon="5.734887" lat="50.954834"><ele>16.6</ele><time>2022-06-26T08:49:32.000Z</time></trkpt><trkpt lon="5.734801" lat="50.954811"><ele>16.4</ele><time>2022-06-26T08:49:33.000Z</time></trkpt><trkpt lon="5.73471" lat="50.954788"><ele>16.4</ele><time>2022-06-26T08:49:34.000Z</time></trkpt><trkpt lon="5.734629" lat="50.954767"><ele>16.4</ele><time>2022-06-26T08:49:35.000Z</time></trkpt><trkpt lon="5.734532" lat="50.954742"><ele>16.4</ele><time>2022-06-26T08:49:36.000Z</time></trkpt><trkpt lon="5.734447" lat="50.954721"><ele>16.6</ele><time>2022-06-26T08:49:37.000Z</time></trkpt><trkpt lon="5.734352" lat="50.954696"><ele>16.4</ele><time>2022-06-26T08:49:38.000Z</time></trkpt><trkpt lon="5.73428" lat="50.954678"><ele>16.2</ele><time>2022-06-26T08:49:39.000Z</time></trkpt><trkpt lon="5.734171" lat="50.954643"><ele>16.2</ele><time>2022-06-26T08:49:40.000Z</time></trkpt><trkpt lon="5.734088" lat="50.954619"><ele>16.2</ele><time>2022-06-26T08:49:41.000Z</time></trkpt><trkpt lon="5.733985" lat="50.954589"><ele>16.2</ele><time>2022-06-26T08:49:42.000Z</time></trkpt><trkpt lon="5.7339" lat="50.954566"><ele>16.2</ele><time>2022-06-26T08:49:43.000Z</time></trkpt><trkpt lon="5.733793" lat="50.954544"><ele>16.2</ele><time>2022-06-26T08:49:44.000Z</time></trkpt><trkpt lon="5.733699" lat="50.954525"><ele>16.2</ele><time>2022-06-26T08:49:45.000Z</time></trkpt><trkpt lon="5.733598" lat="50.954509"><ele>16.2</ele><time>2022-06-26T08:49:46.000Z</time></trkpt><trkpt lon="5.733505" lat="50.954491"><ele>16.4</ele><time>2022-06-26T08:49:47.000Z</time></trkpt><trkpt lon="5.733404" lat="50.954471"><ele>16.4</ele><time>2022-06-26T08:49:48.000Z</time></trkpt><trkpt lon="5.733306" lat="50.954456"><ele>16.4</ele><time>2022-06-26T08:49:49.000Z</time></trkpt><trkpt lon="5.733204" lat="50.954441"><ele>16.4</ele><time>2022-06-26T08:49:50.000Z</time></trkpt><trkpt lon="5.733115" lat="50.954431"><ele>16.4</ele><time>2022-06-26T08:49:51.000Z</time></trkpt><trkpt lon="5.732991" lat="50.954418"><ele>16.4</ele><time>2022-06-26T08:49:52.000Z</time></trkpt><trkpt lon="5.732894" lat="50.954411"><ele>16.4</ele><time>2022-06-26T08:49:53.000Z</time></trkpt><trkpt lon="5.732781" lat="50.954407"><ele>16.4</ele><time>2022-06-26T08:49:54.000Z</time></trkpt><trkpt lon="5.732686" lat="50.954403"><ele>16.4</ele><time>2022-06-26T08:49:55.000Z</time></trkpt><trkpt lon="5.732569" lat="50.954399"><ele>16.4</ele><time>2022-06-26T08:49:56.000Z</time></trkpt><trkpt lon="5.732469" lat="50.954399"><ele>16.6</ele><time>2022-06-26T08:49:57.000Z</time></trkpt><trkpt lon="5.73236" lat="50.954403"><ele>16.4</ele><time>2022-06-26T08:49:58.000Z</time></trkpt><trkpt lon="5.732264" lat="50.954406"><ele>16.4</ele><time>2022-06-26T08:49:59.000Z</time></trkpt><trkpt lon="5.732144" lat="50.954411"><ele>16.6</ele><time>2022-06-26T08:50:00.000Z</time></trkpt><trkpt lon="5.732037" lat="50.954414"><ele>16.8</ele><time>2022-06-26T08:50:01.000Z</time></trkpt><trkpt lon="5.731924" lat="50.954418"><ele>16.6</ele><time>2022-06-26T08:50:02.000Z</time></trkpt><trkpt lon="5.731837" lat="50.954421"><ele>16.4</ele><time>2022-06-26T08:50:03.000Z</time></trkpt><trkpt lon="5.731701" lat="50.95443"><ele>16.4</ele><time>2022-06-26T08:50:04.000Z</time></trkpt><trkpt lon="5.731601" lat="50.954441"><ele>16.4</ele><time>2022-06-26T08:50:05.000Z</time></trkpt><trkpt lon="5.731493" lat="50.954449"><ele>16.6</ele><time>2022-06-26T08:50:06.000Z</time></trkpt><trkpt lon="5.731401" lat="50.954456"><ele>16.6</ele><time>2022-06-26T08:50:07.000Z</time></trkpt><trkpt lon="5.731283" lat="50.95446"><ele>16.8</ele><time>2022-06-26T08:50:08.000Z</time></trkpt><trkpt lon="5.731183" lat="50.954467"><ele>16.8</ele><time>2022-06-26T08:50:09.000Z</time></trkpt><trkpt lon="5.731058" lat="50.954476"><ele>16.8</ele><time>2022-06-26T08:50:10.000Z</time></trkpt><trkpt lon="5.73095" lat="50.954483"><ele>16.8</ele><time>2022-06-26T08:50:11.000Z</time></trkpt><trkpt lon="5.730836" lat="50.954491"><ele>16.8</ele><time>2022-06-26T08:50:12.000Z</time></trkpt><trkpt lon="5.730726" lat="50.954498"><ele>16.6</ele><time>2022-06-26T08:50:13.000Z</time></trkpt><trkpt lon="5.730614" lat="50.954506"><ele>16.6</ele><time>2022-06-26T08:50:14.000Z</time></trkpt><trkpt lon="5.73052" lat="50.954513"><ele>16.6</ele><time>2022-06-26T08:50:15.000Z</time></trkpt><trkpt lon="5.730408" lat="50.954518"><ele>16.6</ele><time>2022-06-26T08:50:16.000Z</time></trkpt><trkpt lon="5.73031" lat="50.954525"><ele>16.4</ele><time>2022-06-26T08:50:17.000Z</time></trkpt><trkpt lon="5.730214" lat="50.95454"><ele>16.4</ele><time>2022-06-26T08:50:18.000Z</time></trkpt><trkpt lon="5.730139" lat="50.954552"><ele>16.4</ele><time>2022-06-26T08:50:19.000Z</time></trkpt><trkpt lon="5.730014" lat="50.954571"><ele>16.4</ele><time>2022-06-26T08:50:20.000Z</time></trkpt><trkpt lon="5.729919" lat="50.954578"><ele>16.4</ele><time>2022-06-26T08:50:21.000Z</time></trkpt><trkpt lon="5.7298" lat="50.95459"><ele>16.4</ele><time>2022-06-26T08:50:22.000Z</time></trkpt><trkpt lon="5.7297" lat="50.954597"><ele>16.6</ele><time>2022-06-26T08:50:23.000Z</time></trkpt><trkpt lon="5.729571" lat="50.954605"><ele>16.6</ele><time>2022-06-26T08:50:24.000Z</time></trkpt><trkpt lon="5.729459" lat="50.954616"><ele>16.6</ele><time>2022-06-26T08:50:25.000Z</time></trkpt><trkpt lon="5.729339" lat="50.954624"><ele>16.8</ele><time>2022-06-26T08:50:26.000Z</time></trkpt><trkpt lon="5.729234" lat="50.954631"><ele>16.6</ele><time>2022-06-26T08:50:27.000Z</time></trkpt><trkpt lon="5.729107" lat="50.95464"><ele>16.6</ele><time>2022-06-26T08:50:28.000Z</time></trkpt><trkpt lon="5.728998" lat="50.954647"><ele>16.6</ele><time>2022-06-26T08:50:29.000Z</time></trkpt><trkpt lon="5.728876" lat="50.954659"><ele>16.6</ele><time>2022-06-26T08:50:30.000Z</time></trkpt><trkpt lon="5.728775" lat="50.954668"><ele>16.8</ele><time>2022-06-26T08:50:31.000Z</time></trkpt><trkpt lon="5.728639" lat="50.954685"><ele>16.8</ele><time>2022-06-26T08:50:32.000Z</time></trkpt><trkpt lon="5.72853" lat="50.954696"><ele>17</ele><time>2022-06-26T08:50:33.000Z</time></trkpt><trkpt lon="5.728404" lat="50.954712"><ele>17</ele><time>2022-06-26T08:50:34.000Z</time></trkpt><trkpt lon="5.728298" lat="50.954722"><ele>17</ele><time>2022-06-26T08:50:35.000Z</time></trkpt><trkpt lon="5.728167" lat="50.954735"><ele>17</ele><time>2022-06-26T08:50:36.000Z</time></trkpt><trkpt lon="5.728055" lat="50.95475"><ele>17.2</ele><time>2022-06-26T08:50:37.000Z</time></trkpt><trkpt lon="5.727943" lat="50.954766"><ele>17.2</ele><time>2022-06-26T08:50:38.000Z</time></trkpt><trkpt lon="5.727854" lat="50.954778"><ele>17.2</ele><time>2022-06-26T08:50:39.000Z</time></trkpt><trkpt lon="5.727729" lat="50.9548"><ele>17.2</ele><time>2022-06-26T08:50:40.000Z</time></trkpt><trkpt lon="5.727635" lat="50.954814"><ele>17.2</ele><time>2022-06-26T08:50:41.000Z</time></trkpt><trkpt lon="5.727523" lat="50.954831"><ele>17</ele><time>2022-06-26T08:50:42.000Z</time></trkpt><trkpt lon="5.727434" lat="50.95485"><ele>16.8</ele><time>2022-06-26T08:50:43.000Z</time></trkpt><trkpt lon="5.727315" lat="50.954872"><ele>16.8</ele><time>2022-06-26T08:50:44.000Z</time></trkpt><trkpt lon="5.727213" lat="50.954891"><ele>16.6</ele><time>2022-06-26T08:50:45.000Z</time></trkpt><trkpt lon="5.727106" lat="50.954915"><ele>16.6</ele><time>2022-06-26T08:50:46.000Z</time></trkpt><trkpt lon="5.727" lat="50.954933"><ele>16.4</ele><time>2022-06-26T08:50:47.000Z</time></trkpt><trkpt lon="5.726899" lat="50.954956"><ele>16.4</ele><time>2022-06-26T08:50:48.000Z</time></trkpt><trkpt lon="5.7268" lat="50.954978"><ele>16.4</ele><time>2022-06-26T08:50:49.000Z</time></trkpt><trkpt lon="5.726691" lat="50.955002"><ele>16.4</ele><time>2022-06-26T08:50:50.000Z</time></trkpt><trkpt lon="5.7266" lat="50.955025"><ele>16.4</ele><time>2022-06-26T08:50:51.000Z</time></trkpt><trkpt lon="5.726479" lat="50.955056"><ele>16.4</ele><time>2022-06-26T08:50:52.000Z</time></trkpt><trkpt lon="5.726378" lat="50.955082"><ele>16.6</ele><time>2022-06-26T08:50:53.000Z</time></trkpt><trkpt lon="5.726269" lat="50.955113"><ele>16.8</ele><time>2022-06-26T08:50:54.000Z</time></trkpt><trkpt lon="5.726176" lat="50.955137"><ele>16.8</ele><time>2022-06-26T08:50:55.000Z</time></trkpt><trkpt lon="5.726059" lat="50.955167"><ele>16.6</ele><time>2022-06-26T08:50:56.000Z</time></trkpt><trkpt lon="5.725964" lat="50.955195"><ele>16.6</ele><time>2022-06-26T08:50:57.000Z</time></trkpt><trkpt lon="5.725852" lat="50.955224"><ele>16.6</ele><time>2022-06-26T08:50:58.000Z</time></trkpt><trkpt lon="5.725766" lat="50.955245"><ele>16.6</ele><time>2022-06-26T08:50:59.000Z</time></trkpt><trkpt lon="5.725642" lat="50.955277"><ele>16.6</ele><time>2022-06-26T08:51:00.000Z</time></trkpt><trkpt lon="5.72555" lat="50.955305"><ele>16.8</ele><time>2022-06-26T08:51:01.000Z</time></trkpt><trkpt lon="5.725436" lat="50.955338"><ele>16.8</ele><time>2022-06-26T08:51:02.000Z</time></trkpt><trkpt lon="5.725342" lat="50.955361"><ele>16.8</ele><time>2022-06-26T08:51:03.000Z</time></trkpt><trkpt lon="5.725221" lat="50.955395"><ele>16.8</ele><time>2022-06-26T08:51:04.000Z</time></trkpt><trkpt lon="5.725122" lat="50.955421"><ele>17</ele><time>2022-06-26T08:51:05.000Z</time></trkpt><trkpt lon="5.725009" lat="50.955453"><ele>17</ele><time>2022-06-26T08:51:06.000Z</time></trkpt><trkpt lon="5.724917" lat="50.955479"><ele>17</ele><time>2022-06-26T08:51:07.000Z</time></trkpt><trkpt lon="5.724797" lat="50.955513"><ele>17</ele><time>2022-06-26T08:51:08.000Z</time></trkpt><trkpt lon="5.724693" lat="50.955539"><ele>16.8</ele><time>2022-06-26T08:51:09.000Z</time></trkpt><trkpt lon="5.724582" lat="50.955571"><ele>16.8</ele><time>2022-06-26T08:51:10.000Z</time></trkpt><trkpt lon="5.724482" lat="50.955597"><ele>16.8</ele><time>2022-06-26T08:51:11.000Z</time></trkpt><trkpt lon="5.724371" lat="50.955628"><ele>16.8</ele><time>2022-06-26T08:51:12.000Z</time></trkpt><trkpt lon="5.724264" lat="50.955658"><ele>16.8</ele><time>2022-06-26T08:51:13.000Z</time></trkpt><trkpt lon="5.724158" lat="50.955689"><ele>16.8</ele><time>2022-06-26T08:51:14.000Z</time></trkpt><trkpt lon="5.724062" lat="50.955713"><ele>16.8</ele><time>2022-06-26T08:51:15.000Z</time></trkpt><trkpt lon="5.723944" lat="50.955747"><ele>16.8</ele><time>2022-06-26T08:51:16.000Z</time></trkpt><trkpt lon="5.723841" lat="50.955777"><ele>16.8</ele><time>2022-06-26T08:51:17.000Z</time></trkpt><trkpt lon="5.723734" lat="50.955807"><ele>16.6</ele><time>2022-06-26T08:51:18.000Z</time></trkpt><trkpt lon="5.723653" lat="50.955828"><ele>16.6</ele><time>2022-06-26T08:51:19.000Z</time></trkpt><trkpt lon="5.723524" lat="50.955864"><ele>16.6</ele><time>2022-06-26T08:51:20.000Z</time></trkpt><trkpt lon="5.723433" lat="50.955888"><ele>16.4</ele><time>2022-06-26T08:51:21.000Z</time></trkpt><trkpt lon="5.723319" lat="50.955921"><ele>16.4</ele><time>2022-06-26T08:51:22.000Z</time></trkpt><trkpt lon="5.723254" lat="50.955938"><ele>16.6</ele><time>2022-06-26T08:51:23.000Z</time></trkpt><trkpt lon="5.72311" lat="50.955979"><ele>16.6</ele><time>2022-06-26T08:51:24.000Z</time></trkpt><trkpt lon="5.723008" lat="50.956014"><ele>16.6</ele><time>2022-06-26T08:51:25.000Z</time></trkpt><trkpt lon="5.722911" lat="50.956047"><ele>16.8</ele><time>2022-06-26T08:51:26.000Z</time></trkpt><trkpt lon="5.72283" lat="50.956083"><ele>16.6</ele><time>2022-06-26T08:51:27.000Z</time></trkpt><trkpt lon="5.722722" lat="50.95614"><ele>16.6</ele><time>2022-06-26T08:51:28.000Z</time></trkpt><trkpt lon="5.722639" lat="50.956185"><ele>16.8</ele><time>2022-06-26T08:51:29.000Z</time></trkpt><trkpt lon="5.72255" lat="50.956241"><ele>16.8</ele><time>2022-06-26T08:51:30.000Z</time></trkpt><trkpt lon="5.722477" lat="50.95629"><ele>17</ele><time>2022-06-26T08:51:31.000Z</time></trkpt><trkpt lon="5.722386" lat="50.956353"><ele>17.2</ele><time>2022-06-26T08:51:32.000Z</time></trkpt><trkpt lon="5.722322" lat="50.956396"><ele>17.2</ele><time>2022-06-26T08:51:33.000Z</time></trkpt><trkpt lon="5.722228" lat="50.956463"><ele>17.4</ele><time>2022-06-26T08:51:34.000Z</time></trkpt><trkpt lon="5.722166" lat="50.956509"><ele>17.4</ele><time>2022-06-26T08:51:35.000Z</time></trkpt><trkpt lon="5.722075" lat="50.956579"><ele>17.4</ele><time>2022-06-26T08:51:36.000Z</time></trkpt><trkpt lon="5.722004" lat="50.956636"><ele>17.4</ele><time>2022-06-26T08:51:37.000Z</time></trkpt><trkpt lon="5.721926" lat="50.956697"><ele>17.4</ele><time>2022-06-26T08:51:38.000Z</time></trkpt><trkpt lon="5.721862" lat="50.95675"><ele>17.6</ele><time>2022-06-26T08:51:39.000Z</time></trkpt><trkpt lon="5.721782" lat="50.956815"><ele>17.4</ele><time>2022-06-26T08:51:40.000Z</time></trkpt><trkpt lon="5.72171" lat="50.956875"><ele>17.4</ele><time>2022-06-26T08:51:41.000Z</time></trkpt><trkpt lon="5.721637" lat="50.956933"><ele>17.4</ele><time>2022-06-26T08:51:42.000Z</time></trkpt><trkpt lon="5.721581" lat="50.956977"><ele>17.4</ele><time>2022-06-26T08:51:43.000Z</time></trkpt><trkpt lon="5.721491" lat="50.957051"><ele>17.4</ele><time>2022-06-26T08:51:44.000Z</time></trkpt><trkpt lon="5.721424" lat="50.957103"><ele>17.6</ele><time>2022-06-26T08:51:45.000Z</time></trkpt><trkpt lon="5.721345" lat="50.957169"><ele>17.6</ele><time>2022-06-26T08:51:46.000Z</time></trkpt><trkpt lon="5.721272" lat="50.957225"><ele>17.6</ele><time>2022-06-26T08:51:47.000Z</time></trkpt><trkpt lon="5.721199" lat="50.957288"><ele>17.6</ele><time>2022-06-26T08:51:48.000Z</time></trkpt><trkpt lon="5.721127" lat="50.957344"><ele>17.6</ele><time>2022-06-26T08:51:49.000Z</time></trkpt><trkpt lon="5.721055" lat="50.957405"><ele>17.6</ele><time>2022-06-26T08:51:50.000Z</time></trkpt><trkpt lon="5.720999" lat="50.95745"><ele>17.6</ele><time>2022-06-26T08:51:51.000Z</time></trkpt><trkpt lon="5.72091" lat="50.957525"><ele>17.6</ele><time>2022-06-26T08:51:52.000Z</time></trkpt><trkpt lon="5.720842" lat="50.957583"><ele>17.4</ele><time>2022-06-26T08:51:53.000Z</time></trkpt><trkpt lon="5.720766" lat="50.957642"><ele>17.4</ele><time>2022-06-26T08:51:54.000Z</time></trkpt><trkpt lon="5.720701" lat="50.957692"><ele>17.4</ele><time>2022-06-26T08:51:55.000Z</time></trkpt><trkpt lon="5.720616" lat="50.95776"><ele>17.4</ele><time>2022-06-26T08:51:56.000Z</time></trkpt><trkpt lon="5.720543" lat="50.95781"><ele>17.4</ele><time>2022-06-26T08:51:57.000Z</time></trkpt><trkpt lon="5.720458" lat="50.957871"><ele>17.4</ele><time>2022-06-26T08:51:58.000Z</time></trkpt><trkpt lon="5.720383" lat="50.957918"><ele>17.4</ele><time>2022-06-26T08:51:59.000Z</time></trkpt><trkpt lon="5.720318" lat="50.957976"><ele>17.2</ele><time>2022-06-26T08:52:00.000Z</time></trkpt><trkpt lon="5.720254" lat="50.958036"><ele>17.2</ele><time>2022-06-26T08:52:01.000Z</time></trkpt><trkpt lon="5.720191" lat="50.958096"><ele>17.2</ele><time>2022-06-26T08:52:02.000Z</time></trkpt><trkpt lon="5.720086" lat="50.958151"><ele>17.4</ele><time>2022-06-26T08:52:03.000Z</time></trkpt><trkpt lon="5.719987" lat="50.958203"><ele>17.4</ele><time>2022-06-26T08:52:04.000Z</time></trkpt><trkpt lon="5.719895" lat="50.958253"><ele>17.6</ele><time>2022-06-26T08:52:05.000Z</time></trkpt><trkpt lon="5.719824" lat="50.958299"><ele>17.6</ele><time>2022-06-26T08:52:06.000Z</time></trkpt><trkpt lon="5.719712" lat="50.95836"><ele>17.6</ele><time>2022-06-26T08:52:07.000Z</time></trkpt><trkpt lon="5.71963" lat="50.958408"><ele>17.6</ele><time>2022-06-26T08:52:08.000Z</time></trkpt><trkpt lon="5.719536" lat="50.958463"><ele>17.6</ele><time>2022-06-26T08:52:09.000Z</time></trkpt><trkpt lon="5.719462" lat="50.958509"><ele>17.6</ele><time>2022-06-26T08:52:10.000Z</time></trkpt><trkpt lon="5.71936" lat="50.95857"><ele>17.6</ele><time>2022-06-26T08:52:11.000Z</time></trkpt><trkpt lon="5.71927" lat="50.958623"><ele>17.4</ele><time>2022-06-26T08:52:12.000Z</time></trkpt><trkpt lon="5.719185" lat="50.958677"><ele>17.4</ele><time>2022-06-26T08:52:13.000Z</time></trkpt><trkpt lon="5.719118" lat="50.95872"><ele>17.4</ele><time>2022-06-26T08:52:14.000Z</time></trkpt><trkpt lon="5.71902" lat="50.958783"><ele>17.6</ele><time>2022-06-26T08:52:15.000Z</time></trkpt><trkpt lon="5.718956" lat="50.958827"><ele>17.6</ele><time>2022-06-26T08:52:16.000Z</time></trkpt><trkpt lon="5.718874" lat="50.958899"><ele>17.6</ele><time>2022-06-26T08:52:17.000Z</time></trkpt><trkpt lon="5.718825" lat="50.958965"><ele>17.6</ele><time>2022-06-26T08:52:18.000Z</time></trkpt><trkpt lon="5.718791" lat="50.959039"><ele>17.6</ele><time>2022-06-26T08:52:19.000Z</time></trkpt><trkpt lon="5.718777" lat="50.959112"><ele>17.6</ele><time>2022-06-26T08:52:20.000Z</time></trkpt><trkpt lon="5.71877" lat="50.959196"><ele>17.6</ele><time>2022-06-26T08:52:21.000Z</time></trkpt><trkpt lon="5.718767" lat="50.959259"><ele>17.6</ele><time>2022-06-26T08:52:22.000Z</time></trkpt><trkpt lon="5.718765" lat="50.959352"><ele>17.4</ele><time>2022-06-26T08:52:23.000Z</time></trkpt><trkpt lon="5.718762" lat="50.959424"><ele>17.2</ele><time>2022-06-26T08:52:24.000Z</time></trkpt><trkpt lon="5.718758" lat="50.95951"><ele>17.4</ele><time>2022-06-26T08:52:25.000Z</time></trkpt><trkpt lon="5.718757" lat="50.959591"><ele>17.4</ele><time>2022-06-26T08:52:26.000Z</time></trkpt><trkpt lon="5.718757" lat="50.959673"><ele>17.4</ele><time>2022-06-26T08:52:27.000Z</time></trkpt><trkpt lon="5.718757" lat="50.959752"><ele>17.4</ele><time>2022-06-26T08:52:28.000Z</time></trkpt><trkpt lon="5.718755" lat="50.959833"><ele>17.4</ele><time>2022-06-26T08:52:29.000Z</time></trkpt><trkpt lon="5.718747" lat="50.959909"><ele>17.6</ele><time>2022-06-26T08:52:30.000Z</time></trkpt><trkpt lon="5.718728" lat="50.959989"><ele>17.6</ele><time>2022-06-26T08:52:31.000Z</time></trkpt><trkpt lon="5.718705" lat="50.960063"><ele>17.6</ele><time>2022-06-26T08:52:32.000Z</time></trkpt><trkpt lon="5.718671" lat="50.960142"><ele>17.6</ele><time>2022-06-26T08:52:33.000Z</time></trkpt><trkpt lon="5.718641" lat="50.960208"><ele>17.6</ele><time>2022-06-26T08:52:34.000Z</time></trkpt><trkpt lon="5.718598" lat="50.96029"><ele>17.6</ele><time>2022-06-26T08:52:35.000Z</time></trkpt><trkpt lon="5.718561" lat="50.960361"><ele>17.6</ele><time>2022-06-26T08:52:36.000Z</time></trkpt><trkpt lon="5.718521" lat="50.960435"><ele>17.6</ele><time>2022-06-26T08:52:37.000Z</time></trkpt><trkpt lon="5.718491" lat="50.96049"><ele>17.8</ele><time>2022-06-26T08:52:38.000Z</time></trkpt><trkpt lon="5.718444" lat="50.960572"><ele>17.6</ele><time>2022-06-26T08:52:39.000Z</time></trkpt><trkpt lon="5.718407" lat="50.960634"><ele>17.6</ele><time>2022-06-26T08:52:40.000Z</time></trkpt><trkpt lon="5.718362" lat="50.96071"><ele>17.6</ele><time>2022-06-26T08:52:41.000Z</time></trkpt><trkpt lon="5.718328" lat="50.960768"><ele>17.8</ele><time>2022-06-26T08:52:42.000Z</time></trkpt><trkpt lon="5.718281" lat="50.960847"><ele>17.8</ele><time>2022-06-26T08:52:43.000Z</time></trkpt><trkpt lon="5.718241" lat="50.960912"><ele>17.8</ele><time>2022-06-26T08:52:44.000Z</time></trkpt><trkpt lon="5.718197" lat="50.960985"><ele>17.8</ele><time>2022-06-26T08:52:45.000Z</time></trkpt><trkpt lon="5.718157" lat="50.961048"><ele>17.8</ele><time>2022-06-26T08:52:46.000Z</time></trkpt><trkpt lon="5.718109" lat="50.961126"><ele>17.8</ele><time>2022-06-26T08:52:47.000Z</time></trkpt><trkpt lon="5.718064" lat="50.961189"><ele>18</ele><time>2022-06-26T08:52:48.000Z</time></trkpt><trkpt lon="5.718004" lat="50.961251"><ele>18</ele><time>2022-06-26T08:52:49.000Z</time></trkpt><trkpt lon="5.717944" lat="50.961292"><ele>18</ele><time>2022-06-26T08:52:50.000Z</time></trkpt><trkpt lon="5.717827" lat="50.961347"><ele>18</ele><time>2022-06-26T08:52:51.000Z</time></trkpt><trkpt lon="5.717739" lat="50.961378"><ele>18</ele><time>2022-06-26T08:52:52.000Z</time></trkpt><trkpt lon="5.717612" lat="50.961418"><ele>18</ele><time>2022-06-26T08:52:53.000Z</time></trkpt><trkpt lon="5.717518" lat="50.961448"><ele>18</ele><time>2022-06-26T08:52:54.000Z</time></trkpt><trkpt lon="5.717389" lat="50.961488"><ele>17.8</ele><time>2022-06-26T08:52:55.000Z</time></trkpt><trkpt lon="5.717282" lat="50.96152"><ele>17.8</ele><time>2022-06-26T08:52:56.000Z</time></trkpt><trkpt lon="5.717163" lat="50.961552"><ele>17.8</ele><time>2022-06-26T08:52:57.000Z</time></trkpt><trkpt lon="5.717068" lat="50.961581"><ele>17.8</ele><time>2022-06-26T08:52:58.000Z</time></trkpt><trkpt lon="5.716934" lat="50.961617"><ele>17.8</ele><time>2022-06-26T08:52:59.000Z</time></trkpt><trkpt lon="5.716829" lat="50.961645"><ele>17.8</ele><time>2022-06-26T08:53:00.000Z</time></trkpt><trkpt lon="5.716704" lat="50.961682"><ele>17.8</ele><time>2022-06-26T08:53:01.000Z</time></trkpt><trkpt lon="5.716603" lat="50.961708"><ele>17.8</ele><time>2022-06-26T08:53:02.000Z</time></trkpt><trkpt lon="5.716472" lat="50.961739"><ele>17.8</ele><time>2022-06-26T08:53:03.000Z</time></trkpt><trkpt lon="5.716363" lat="50.961763"><ele>17.8</ele><time>2022-06-26T08:53:04.000Z</time></trkpt><trkpt lon="5.716233" lat="50.961792"><ele>18</ele><time>2022-06-26T08:53:05.000Z</time></trkpt><trkpt lon="5.716136" lat="50.961811"><ele>18</ele><time>2022-06-26T08:53:06.000Z</time></trkpt><trkpt lon="5.715992" lat="50.961834"><ele>18</ele><time>2022-06-26T08:53:07.000Z</time></trkpt><trkpt lon="5.715875" lat="50.961856"><ele>18</ele><time>2022-06-26T08:53:08.000Z</time></trkpt><trkpt lon="5.715749" lat="50.96188"><ele>18</ele><time>2022-06-26T08:53:09.000Z</time></trkpt><trkpt lon="5.715655" lat="50.961895"><ele>18</ele><time>2022-06-26T08:53:10.000Z</time></trkpt><trkpt lon="5.715509" lat="50.961918"><ele>18</ele><time>2022-06-26T08:53:11.000Z</time></trkpt><trkpt lon="5.715401" lat="50.961936"><ele>18.2</ele><time>2022-06-26T08:53:12.000Z</time></trkpt><trkpt lon="5.715276" lat="50.96196"><ele>18.2</ele><time>2022-06-26T08:53:13.000Z</time></trkpt><trkpt lon="5.715177" lat="50.961973"><ele>18.2</ele><time>2022-06-26T08:53:14.000Z</time></trkpt><trkpt lon="5.715044" lat="50.961987"><ele>18.4</ele><time>2022-06-26T08:53:15.000Z</time></trkpt><trkpt lon="5.71493" lat="50.961987"><ele>18.4</ele><time>2022-06-26T08:53:16.000Z</time></trkpt><trkpt lon="5.714804" lat="50.961971"><ele>18.2</ele><time>2022-06-26T08:53:17.000Z</time></trkpt><trkpt lon="5.714701" lat="50.961954"><ele>18.2</ele><time>2022-06-26T08:53:18.000Z</time></trkpt><trkpt lon="5.714567" lat="50.961933"><ele>18.2</ele><time>2022-06-26T08:53:19.000Z</time></trkpt><trkpt lon="5.714461" lat="50.961915"><ele>18</ele><time>2022-06-26T08:53:20.000Z</time></trkpt><trkpt lon="5.714343" lat="50.961895"><ele>18</ele><time>2022-06-26T08:53:21.000Z</time></trkpt><trkpt lon="5.714248" lat="50.961881"><ele>18</ele><time>2022-06-26T08:53:22.000Z</time></trkpt><trkpt lon="5.714135" lat="50.961856"><ele>18</ele><time>2022-06-26T08:53:23.000Z</time></trkpt><trkpt lon="5.714051" lat="50.961825"><ele>18</ele><time>2022-06-26T08:53:24.000Z</time></trkpt><trkpt lon="5.713974" lat="50.96178"><ele>18.2</ele><time>2022-06-26T08:53:25.000Z</time></trkpt><trkpt lon="5.713941" lat="50.961733"><ele>18.2</ele><time>2022-06-26T08:53:26.000Z</time></trkpt><trkpt lon="5.713931" lat="50.961664"><ele>18</ele><time>2022-06-26T08:53:27.000Z</time></trkpt><trkpt lon="5.713957" lat="50.9616"><ele>17.8</ele><time>2022-06-26T08:53:28.000Z</time></trkpt><trkpt lon="5.713998" lat="50.961523"><ele>17.6</ele><time>2022-06-26T08:53:29.000Z</time></trkpt><trkpt lon="5.714039" lat="50.961462"><ele>17.6</ele><time>2022-06-26T08:53:30.000Z</time></trkpt><trkpt lon="5.714092" lat="50.961379"><ele>17.6</ele><time>2022-06-26T08:53:31.000Z</time></trkpt><trkpt lon="5.714122" lat="50.961319"><ele>17.6</ele><time>2022-06-26T08:53:32.000Z</time></trkpt><trkpt lon="5.714135" lat="50.961245"><ele>17.6</ele><time>2022-06-26T08:53:33.000Z</time></trkpt><trkpt lon="5.714123" lat="50.961196"><ele>17.6</ele><time>2022-06-26T08:53:34.000Z</time></trkpt><trkpt lon="5.714067" lat="50.961123"><ele>17.6</ele><time>2022-06-26T08:53:35.000Z</time></trkpt><trkpt lon="5.713992" lat="50.961073"><ele>17.6</ele><time>2022-06-26T08:53:36.000Z</time></trkpt><trkpt lon="5.713889" lat="50.96102"><ele>17.8</ele><time>2022-06-26T08:53:37.000Z</time></trkpt><trkpt lon="5.713802" lat="50.960974"><ele>18</ele><time>2022-06-26T08:53:38.000Z</time></trkpt><trkpt lon="5.713687" lat="50.960917"><ele>18</ele><time>2022-06-26T08:53:39.000Z</time></trkpt><trkpt lon="5.713602" lat="50.960873"><ele>18</ele><time>2022-06-26T08:53:40.000Z</time></trkpt><trkpt lon="5.713496" lat="50.960822"><ele>18</ele><time>2022-06-26T08:53:41.000Z</time></trkpt><trkpt lon="5.713421" lat="50.960781"><ele>18</ele><time>2022-06-26T08:53:42.000Z</time></trkpt><trkpt lon="5.713322" lat="50.96073"><ele>18</ele><time>2022-06-26T08:53:43.000Z</time></trkpt><trkpt lon="5.713264" lat="50.960686"><ele>18</ele><time>2022-06-26T08:53:44.000Z</time></trkpt><trkpt lon="5.713215" lat="50.960627"><ele>18</ele><time>2022-06-26T08:53:45.000Z</time></trkpt><trkpt lon="5.71323" lat="50.960565"><ele>18.2</ele><time>2022-06-26T08:53:46.000Z</time></trkpt><trkpt lon="5.713276" lat="50.960505"><ele>18.2</ele><time>2022-06-26T08:53:47.000Z</time></trkpt><trkpt lon="5.713326" lat="50.960461"><ele>18</ele><time>2022-06-26T08:53:48.000Z</time></trkpt><trkpt lon="5.713365" lat="50.960414"><ele>18</ele><time>2022-06-26T08:53:49.000Z</time></trkpt><trkpt lon="5.713376" lat="50.960373"><ele>18</ele><time>2022-06-26T08:53:50.000Z</time></trkpt><trkpt lon="5.713358" lat="50.960311"><ele>18</ele><time>2022-06-26T08:53:51.000Z</time></trkpt><trkpt lon="5.713306" lat="50.960266"><ele>18</ele><time>2022-06-26T08:53:52.000Z</time></trkpt><trkpt lon="5.713242" lat="50.960208"><ele>18</ele><time>2022-06-26T08:53:53.000Z</time></trkpt><trkpt lon="5.713193" lat="50.960169"><ele>18</ele><time>2022-06-26T08:53:54.000Z</time></trkpt><trkpt lon="5.713107" lat="50.960117"><ele>18</ele><time>2022-06-26T08:53:55.000Z</time></trkpt><trkpt lon="5.713034" lat="50.960089"><ele>17.8</ele><time>2022-06-26T08:53:56.000Z</time></trkpt><trkpt lon="5.71294" lat="50.960087"><ele>17.8</ele><time>2022-06-26T08:53:57.000Z</time></trkpt><trkpt lon="5.712867" lat="50.960104"><ele>17.8</ele><time>2022-06-26T08:53:58.000Z</time></trkpt><trkpt lon="5.71277" lat="50.960145"><ele>18</ele><time>2022-06-26T08:53:59.000Z</time></trkpt><trkpt lon="5.712691" lat="50.960187"><ele>18</ele><time>2022-06-26T08:54:00.000Z</time></trkpt><trkpt lon="5.712593" lat="50.960233"><ele>18</ele><time>2022-06-26T08:54:01.000Z</time></trkpt><trkpt lon="5.712516" lat="50.960272"><ele>18.2</ele><time>2022-06-26T08:54:02.000Z</time></trkpt><trkpt lon="5.712406" lat="50.960325"><ele>18.2</ele><time>2022-06-26T08:54:03.000Z</time></trkpt><trkpt lon="5.712326" lat="50.960367"><ele>18.2</ele><time>2022-06-26T08:54:04.000Z</time></trkpt><trkpt lon="5.712219" lat="50.960424"><ele>18.2</ele><time>2022-06-26T08:54:05.000Z</time></trkpt><trkpt lon="5.712128" lat="50.960467"><ele>18.2</ele><time>2022-06-26T08:54:06.000Z</time></trkpt><trkpt lon="5.71203" lat="50.960514"><ele>18.2</ele><time>2022-06-26T08:54:07.000Z</time></trkpt><trkpt lon="5.711953" lat="50.96055"><ele>18.2</ele><time>2022-06-26T08:54:08.000Z</time></trkpt><trkpt lon="5.711829" lat="50.960611"><ele>18.2</ele><time>2022-06-26T08:54:09.000Z</time></trkpt><trkpt lon="5.711742" lat="50.960655"><ele>18.2</ele><time>2022-06-26T08:54:10.000Z</time></trkpt><trkpt lon="5.711635" lat="50.960706"><ele>18.2</ele><time>2022-06-26T08:54:11.000Z</time></trkpt><trkpt lon="5.71156" lat="50.960742"><ele>18.2</ele><time>2022-06-26T08:54:12.000Z</time></trkpt><trkpt lon="5.711439" lat="50.960801"><ele>18.2</ele><time>2022-06-26T08:54:13.000Z</time></trkpt><trkpt lon="5.711356" lat="50.960837"><ele>18.2</ele><time>2022-06-26T08:54:14.000Z</time></trkpt><trkpt lon="5.711246" lat="50.960889"><ele>18</ele><time>2022-06-26T08:54:15.000Z</time></trkpt><trkpt lon="5.711168" lat="50.960925"><ele>18</ele><time>2022-06-26T08:54:16.000Z</time></trkpt><trkpt lon="5.711067" lat="50.960976"><ele>18</ele><time>2022-06-26T08:54:17.000Z</time></trkpt><trkpt lon="5.71099" lat="50.961013"><ele>18</ele><time>2022-06-26T08:54:18.000Z</time></trkpt><trkpt lon="5.710895" lat="50.96106"><ele>18</ele><time>2022-06-26T08:54:19.000Z</time></trkpt><trkpt lon="5.710819" lat="50.961095"><ele>18</ele><time>2022-06-26T08:54:20.000Z</time></trkpt><trkpt lon="5.710728" lat="50.961137"><ele>18.2</ele><time>2022-06-26T08:54:21.000Z</time></trkpt><trkpt lon="5.710659" lat="50.961163"><ele>18.2</ele><time>2022-06-26T08:54:22.000Z</time></trkpt><trkpt lon="5.710568" lat="50.961186"><ele>18.2</ele><time>2022-06-26T08:54:23.000Z</time></trkpt><trkpt lon="5.71049" lat="50.961189"><ele>18.2</ele><time>2022-06-26T08:54:24.000Z</time></trkpt><trkpt lon="5.710397" lat="50.961181"><ele>18.2</ele><time>2022-06-26T08:54:25.000Z</time></trkpt><trkpt lon="5.710332" lat="50.961161"><ele>18.2</ele><time>2022-06-26T08:54:26.000Z</time></trkpt><trkpt lon="5.710274" lat="50.961096"><ele>18.2</ele><time>2022-06-26T08:54:27.000Z</time></trkpt><trkpt lon="5.710224" lat="50.961039"><ele>18.4</ele><time>2022-06-26T08:54:28.000Z</time></trkpt><trkpt lon="5.710169" lat="50.960978"><ele>18.4</ele><time>2022-06-26T08:54:29.000Z</time></trkpt><trkpt lon="5.710125" lat="50.960927"><ele>18.4</ele><time>2022-06-26T08:54:30.000Z</time></trkpt><trkpt lon="5.710062" lat="50.960856"><ele>18.2</ele><time>2022-06-26T08:54:31.000Z</time></trkpt><trkpt lon="5.710012" lat="50.960801"><ele>18.2</ele><time>2022-06-26T08:54:32.000Z</time></trkpt><trkpt lon="5.709954" lat="50.960734"><ele>18.2</ele><time>2022-06-26T08:54:33.000Z</time></trkpt><trkpt lon="5.709915" lat="50.960693"><ele>18.2</ele><time>2022-06-26T08:54:34.000Z</time></trkpt><trkpt lon="5.709855" lat="50.960623"><ele>18.2</ele><time>2022-06-26T08:54:35.000Z</time></trkpt><trkpt lon="5.709813" lat="50.960573"><ele>18.2</ele><time>2022-06-26T08:54:36.000Z</time></trkpt><trkpt lon="5.709754" lat="50.960521"><ele>18.4</ele><time>2022-06-26T08:54:37.000Z</time></trkpt><trkpt lon="5.709705" lat="50.960495"><ele>18.4</ele><time>2022-06-26T08:54:38.000Z</time></trkpt><trkpt lon="5.709644" lat="50.960468"><ele>18.8</ele><time>2022-06-26T08:54:39.000Z</time></trkpt><trkpt lon="5.709598" lat="50.960465"><ele>19</ele><time>2022-06-26T08:54:40.000Z</time></trkpt><trkpt lon="5.709561" lat="50.960468"><ele>19.2</ele><time>2022-06-26T08:54:41.000Z</time></trkpt><trkpt lon="5.709522" lat="50.960488"><ele>19.4</ele><time>2022-06-26T08:54:42.000Z</time></trkpt><trkpt lon="5.709489" lat="50.960511"><ele>19.6</ele><time>2022-06-26T08:54:43.000Z</time></trkpt><trkpt lon="5.709452" lat="50.96053"><ele>19.8</ele><time>2022-06-26T08:54:44.000Z</time></trkpt><trkpt lon="5.70942" lat="50.960545"><ele>20</ele><time>2022-06-26T08:54:45.000Z</time></trkpt><trkpt lon="5.709374" lat="50.960568"><ele>20.2</ele><time>2022-06-26T08:54:46.000Z</time></trkpt><trkpt lon="5.70935" lat="50.960603"><ele>20.2</ele><time>2022-06-26T08:54:47.000Z</time></trkpt><trkpt lon="5.709342" lat="50.960646"><ele>20.2</ele><time>2022-06-26T08:54:48.000Z</time></trkpt><trkpt lon="5.70934" lat="50.960706"><ele>20.2</ele><time>2022-06-26T08:54:49.000Z</time></trkpt><trkpt lon="5.709337" lat="50.960753"><ele>20.2</ele><time>2022-06-26T08:54:50.000Z</time></trkpt><trkpt lon="5.70933" lat="50.960829"><ele>20.2</ele><time>2022-06-26T08:54:51.000Z</time></trkpt><trkpt lon="5.709324" lat="50.960885"><ele>20.2</ele><time>2022-06-26T08:54:52.000Z</time></trkpt><trkpt lon="5.709313" lat="50.960958"><ele>20.2</ele><time>2022-06-26T08:54:53.000Z</time></trkpt><trkpt lon="5.709305" lat="50.961016"><ele>20</ele><time>2022-06-26T08:54:54.000Z</time></trkpt><trkpt lon="5.709293" lat="50.961095"><ele>20</ele><time>2022-06-26T08:54:55.000Z</time></trkpt><trkpt lon="5.709284" lat="50.961161"><ele>20</ele><time>2022-06-26T08:54:56.000Z</time></trkpt><trkpt lon="5.709275" lat="50.96124"><ele>20</ele><time>2022-06-26T08:54:57.000Z</time></trkpt><trkpt lon="5.709268" lat="50.961298"><ele>20</ele><time>2022-06-26T08:54:58.000Z</time></trkpt><trkpt lon="5.709257" lat="50.961385"><ele>20.2</ele><time>2022-06-26T08:54:59.000Z</time></trkpt><trkpt lon="5.709251" lat="50.961453"><ele>20.2</ele><time>2022-06-26T08:55:00.000Z</time></trkpt><trkpt lon="5.709243" lat="50.96153"><ele>20</ele><time>2022-06-26T08:55:01.000Z</time></trkpt><trkpt lon="5.709236" lat="50.961594"><ele>20</ele><time>2022-06-26T08:55:02.000Z</time></trkpt><trkpt lon="5.709239" lat="50.961675"><ele>20</ele><time>2022-06-26T08:55:03.000Z</time></trkpt><trkpt lon="5.709254" lat="50.961742"><ele>19.8</ele><time>2022-06-26T08:55:04.000Z</time></trkpt><trkpt lon="5.709287" lat="50.96182"><ele>19.6</ele><time>2022-06-26T08:55:05.000Z</time></trkpt><trkpt lon="5.709314" lat="50.961884"><ele>19.4</ele><time>2022-06-26T08:55:06.000Z</time></trkpt><trkpt lon="5.709328" lat="50.961969"><ele>19.4</ele><time>2022-06-26T08:55:07.000Z</time></trkpt><trkpt lon="5.709324" lat="50.962039"><ele>19.4</ele><time>2022-06-26T08:55:08.000Z</time></trkpt><trkpt lon="5.709317" lat="50.962121"><ele>19.4</ele><time>2022-06-26T08:55:09.000Z</time></trkpt><trkpt lon="5.709308" lat="50.962184"><ele>19.4</ele><time>2022-06-26T08:55:10.000Z</time></trkpt><trkpt lon="5.709298" lat="50.962271"><ele>19.6</ele><time>2022-06-26T08:55:11.000Z</time></trkpt><trkpt lon="5.709282" lat="50.96234"><ele>19.6</ele><time>2022-06-26T08:55:12.000Z</time></trkpt><trkpt lon="5.709253" lat="50.962411"><ele>19.8</ele><time>2022-06-26T08:55:13.000Z</time></trkpt><trkpt lon="5.709222" lat="50.96246"><ele>19.8</ele><time>2022-06-26T08:55:14.000Z</time></trkpt><trkpt lon="5.709168" lat="50.962541"><ele>19.8</ele><time>2022-06-26T08:55:15.000Z</time></trkpt><trkpt lon="5.709135" lat="50.962603"><ele>19.8</ele><time>2022-06-26T08:55:16.000Z</time></trkpt><trkpt lon="5.709103" lat="50.96269"><ele>19.8</ele><time>2022-06-26T08:55:17.000Z</time></trkpt><trkpt lon="5.709088" lat="50.962754"><ele>19.8</ele><time>2022-06-26T08:55:18.000Z</time></trkpt><trkpt lon="5.709078" lat="50.962839"><ele>20</ele><time>2022-06-26T08:55:19.000Z</time></trkpt><trkpt lon="5.709077" lat="50.962908"><ele>20</ele><time>2022-06-26T08:55:20.000Z</time></trkpt><trkpt lon="5.709074" lat="50.962991"><ele>20</ele><time>2022-06-26T08:55:21.000Z</time></trkpt><trkpt lon="5.709071" lat="50.963053"><ele>20</ele><time>2022-06-26T08:55:22.000Z</time></trkpt><trkpt lon="5.709061" lat="50.96314"><ele>20</ele><time>2022-06-26T08:55:23.000Z</time></trkpt><trkpt lon="5.709055" lat="50.963209"><ele>19.8</ele><time>2022-06-26T08:55:24.000Z</time></trkpt><trkpt lon="5.709047" lat="50.963293"><ele>19.8</ele><time>2022-06-26T08:55:25.000Z</time></trkpt><trkpt lon="5.709039" lat="50.963357"><ele>19.8</ele><time>2022-06-26T08:55:26.000Z</time></trkpt><trkpt lon="5.709028" lat="50.963445"><ele>19.8</ele><time>2022-06-26T08:55:27.000Z</time></trkpt><trkpt lon="5.709018" lat="50.963519"><ele>19.8</ele><time>2022-06-26T08:55:28.000Z</time></trkpt><trkpt lon="5.709005" lat="50.963602"><ele>19.8</ele><time>2022-06-26T08:55:29.000Z</time></trkpt><trkpt lon="5.708998" lat="50.963668"><ele>19.8</ele><time>2022-06-26T08:55:30.000Z</time></trkpt><trkpt lon="5.708987" lat="50.963758"><ele>19.8</ele><time>2022-06-26T08:55:31.000Z</time></trkpt><trkpt lon="5.708979" lat="50.963823"><ele>20</ele><time>2022-06-26T08:55:32.000Z</time></trkpt><trkpt lon="5.708968" lat="50.963914"><ele>20</ele><time>2022-06-26T08:55:33.000Z</time></trkpt><trkpt lon="5.708961" lat="50.963981"><ele>20</ele><time>2022-06-26T08:55:34.000Z</time></trkpt><trkpt lon="5.708951" lat="50.964071"><ele>19.8</ele><time>2022-06-26T08:55:35.000Z</time></trkpt><trkpt lon="5.708942" lat="50.964141"><ele>19.8</ele><time>2022-06-26T08:55:36.000Z</time></trkpt><trkpt lon="5.708933" lat="50.964231"><ele>19.8</ele><time>2022-06-26T08:55:37.000Z</time></trkpt><trkpt lon="5.708925" lat="50.964299"><ele>19.8</ele><time>2022-06-26T08:55:38.000Z</time></trkpt><trkpt lon="5.708915" lat="50.964391"><ele>19.8</ele><time>2022-06-26T08:55:39.000Z</time></trkpt><trkpt lon="5.708906" lat="50.964465"><ele>19.8</ele><time>2022-06-26T08:55:40.000Z</time></trkpt><trkpt lon="5.7089" lat="50.964555"><ele>20</ele><time>2022-06-26T08:55:41.000Z</time></trkpt><trkpt lon="5.708894" lat="50.964616"><ele>20</ele><time>2022-06-26T08:55:42.000Z</time></trkpt><trkpt lon="5.708885" lat="50.964712"><ele>20</ele><time>2022-06-26T08:55:43.000Z</time></trkpt><trkpt lon="5.708878" lat="50.964776"><ele>20</ele><time>2022-06-26T08:55:44.000Z</time></trkpt><trkpt lon="5.708866" lat="50.964868"><ele>20</ele><time>2022-06-26T08:55:45.000Z</time></trkpt><trkpt lon="5.708858" lat="50.964932"><ele>20</ele><time>2022-06-26T08:55:46.000Z</time></trkpt><trkpt lon="5.708848" lat="50.965025"><ele>20.2</ele><time>2022-06-26T08:55:47.000Z</time></trkpt><trkpt lon="5.708842" lat="50.965099"><ele>20.2</ele><time>2022-06-26T08:55:48.000Z</time></trkpt><trkpt lon="5.708832" lat="50.965185"><ele>20.2</ele><time>2022-06-26T08:55:49.000Z</time></trkpt><trkpt lon="5.708823" lat="50.965252"><ele>20.2</ele><time>2022-06-26T08:55:50.000Z</time></trkpt><trkpt lon="5.708813" lat="50.965345"><ele>20</ele><time>2022-06-26T08:55:51.000Z</time></trkpt><trkpt lon="5.708802" lat="50.965424"><ele>20</ele><time>2022-06-26T08:55:52.000Z</time></trkpt><trkpt lon="5.708793" lat="50.965508"><ele>20.2</ele><time>2022-06-26T08:55:53.000Z</time></trkpt><trkpt lon="5.708788" lat="50.965568"><ele>20</ele><time>2022-06-26T08:55:54.000Z</time></trkpt><trkpt lon="5.70878" lat="50.965666"><ele>20</ele><time>2022-06-26T08:55:55.000Z</time></trkpt><trkpt lon="5.708774" lat="50.965732"><ele>20</ele><time>2022-06-26T08:55:56.000Z</time></trkpt><trkpt lon="5.708766" lat="50.965818"><ele>20</ele><time>2022-06-26T08:55:57.000Z</time></trkpt><trkpt lon="5.708761" lat="50.965882"><ele>19.8</ele><time>2022-06-26T08:55:58.000Z</time></trkpt><trkpt lon="5.70875" lat="50.96597"><ele>19.8</ele><time>2022-06-26T08:55:59.000Z</time></trkpt><trkpt lon="5.708741" lat="50.96604"><ele>19.8</ele><time>2022-06-26T08:56:00.000Z</time></trkpt><trkpt lon="5.708728" lat="50.966131"><ele>19.8</ele><time>2022-06-26T08:56:01.000Z</time></trkpt><trkpt lon="5.70872" lat="50.966192"><ele>19.6</ele><time>2022-06-26T08:56:02.000Z</time></trkpt><trkpt lon="5.708707" lat="50.966283"><ele>19.8</ele><time>2022-06-26T08:56:03.000Z</time></trkpt><trkpt lon="5.708696" lat="50.966349"><ele>20</ele><time>2022-06-26T08:56:04.000Z</time></trkpt><trkpt lon="5.708683" lat="50.966439"><ele>20</ele><time>2022-06-26T08:56:05.000Z</time></trkpt><trkpt lon="5.708679" lat="50.966504"><ele>20.2</ele><time>2022-06-26T08:56:06.000Z</time></trkpt><trkpt lon="5.708668" lat="50.966591"><ele>20.2</ele><time>2022-06-26T08:56:07.000Z</time></trkpt><trkpt lon="5.70866" lat="50.966661"><ele>20.2</ele><time>2022-06-26T08:56:08.000Z</time></trkpt><trkpt lon="5.70865" lat="50.966741"><ele>20.2</ele><time>2022-06-26T08:56:09.000Z</time></trkpt><trkpt lon="5.708644" lat="50.966796"><ele>20.2</ele><time>2022-06-26T08:56:10.000Z</time></trkpt><trkpt lon="5.708633" lat="50.96689"><ele>20.2</ele><time>2022-06-26T08:56:11.000Z</time></trkpt><trkpt lon="5.708625" lat="50.966952"><ele>20.4</ele><time>2022-06-26T08:56:12.000Z</time></trkpt><trkpt lon="5.708615" lat="50.967042"><ele>20.2</ele><time>2022-06-26T08:56:13.000Z</time></trkpt><trkpt lon="5.708609" lat="50.967105"><ele>20.4</ele><time>2022-06-26T08:56:14.000Z</time></trkpt><trkpt lon="5.708605" lat="50.967191"><ele>20.4</ele><time>2022-06-26T08:56:15.000Z</time></trkpt><trkpt lon="5.708599" lat="50.967261"><ele>20.4</ele><time>2022-06-26T08:56:16.000Z</time></trkpt><trkpt lon="5.708588" lat="50.96734"><ele>20.4</ele><time>2022-06-26T08:56:17.000Z</time></trkpt><trkpt lon="5.708581" lat="50.967404"><ele>20.4</ele><time>2022-06-26T08:56:18.000Z</time></trkpt><trkpt lon="5.708571" lat="50.967489"><ele>20.6</ele><time>2022-06-26T08:56:19.000Z</time></trkpt><trkpt lon="5.708563" lat="50.967552"><ele>20.6</ele><time>2022-06-26T08:56:20.000Z</time></trkpt><trkpt lon="5.708557" lat="50.967635"><ele>20.6</ele><time>2022-06-26T08:56:21.000Z</time></trkpt><trkpt lon="5.708551" lat="50.967697"><ele>20.4</ele><time>2022-06-26T08:56:22.000Z</time></trkpt><trkpt lon="5.70854" lat="50.967786"><ele>20.4</ele><time>2022-06-26T08:56:23.000Z</time></trkpt><trkpt lon="5.708531" lat="50.967853"><ele>20.2</ele><time>2022-06-26T08:56:24.000Z</time></trkpt><trkpt lon="5.708523" lat="50.967938"><ele>20.2</ele><time>2022-06-26T08:56:25.000Z</time></trkpt><trkpt lon="5.708516" lat="50.968003"><ele>20</ele><time>2022-06-26T08:56:26.000Z</time></trkpt><trkpt lon="5.70851" lat="50.968091"><ele>20</ele><time>2022-06-26T08:56:27.000Z</time></trkpt><trkpt lon="5.708506" lat="50.968164"><ele>20.2</ele><time>2022-06-26T08:56:28.000Z</time></trkpt><trkpt lon="5.708496" lat="50.968248"><ele>20.2</ele><time>2022-06-26T08:56:29.000Z</time></trkpt><trkpt lon="5.708491" lat="50.968307"><ele>20.2</ele><time>2022-06-26T08:56:30.000Z</time></trkpt><trkpt lon="5.70848" lat="50.968397"><ele>20.2</ele><time>2022-06-26T08:56:31.000Z</time></trkpt><trkpt lon="5.708472" lat="50.968465"><ele>20.2</ele><time>2022-06-26T08:56:32.000Z</time></trkpt><trkpt lon="5.708463" lat="50.968541"><ele>20.2</ele><time>2022-06-26T08:56:33.000Z</time></trkpt><trkpt lon="5.708456" lat="50.968593"><ele>20.2</ele><time>2022-06-26T08:56:34.000Z</time></trkpt><trkpt lon="5.708442" lat="50.968683"><ele>20.2</ele><time>2022-06-26T08:56:35.000Z</time></trkpt><trkpt lon="5.708434" lat="50.96874"><ele>20.4</ele><time>2022-06-26T08:56:36.000Z</time></trkpt><trkpt lon="5.708423" lat="50.96882"><ele>20.4</ele><time>2022-06-26T08:56:37.000Z</time></trkpt><trkpt lon="5.708416" lat="50.96888"><ele>20.2</ele><time>2022-06-26T08:56:38.000Z</time></trkpt><trkpt lon="5.708405" lat="50.968961"><ele>20.2</ele><time>2022-06-26T08:56:39.000Z</time></trkpt><trkpt lon="5.708396" lat="50.969021"><ele>20</ele><time>2022-06-26T08:56:40.000Z</time></trkpt><trkpt lon="5.708385" lat="50.969098"><ele>20.2</ele><time>2022-06-26T08:56:41.000Z</time></trkpt><trkpt lon="5.708381" lat="50.969156"><ele>20.2</ele><time>2022-06-26T08:56:42.000Z</time></trkpt><trkpt lon="5.70837" lat="50.96924"><ele>20.2</ele><time>2022-06-26T08:56:43.000Z</time></trkpt><trkpt lon="5.708364" lat="50.969303"><ele>20.4</ele><time>2022-06-26T08:56:44.000Z</time></trkpt><trkpt lon="5.708357" lat="50.96938"><ele>20.4</ele><time>2022-06-26T08:56:45.000Z</time></trkpt><trkpt lon="5.70835" lat="50.969436"><ele>20.4</ele><time>2022-06-26T08:56:46.000Z</time></trkpt><trkpt lon="5.708338" lat="50.969525"><ele>20.6</ele><time>2022-06-26T08:56:47.000Z</time></trkpt><trkpt lon="5.708331" lat="50.969594"><ele>20.6</ele><time>2022-06-26T08:56:48.000Z</time></trkpt><trkpt lon="5.708317" lat="50.969671"><ele>20.6</ele><time>2022-06-26T08:56:49.000Z</time></trkpt><trkpt lon="5.708307" lat="50.969731"><ele>20.6</ele><time>2022-06-26T08:56:50.000Z</time></trkpt><trkpt lon="5.708293" lat="50.969819"><ele>20.6</ele><time>2022-06-26T08:56:51.000Z</time></trkpt><trkpt lon="5.708284" lat="50.969889"><ele>20.6</ele><time>2022-06-26T08:56:52.000Z</time></trkpt><trkpt lon="5.708273" lat="50.969976"><ele>20.6</ele><time>2022-06-26T08:56:53.000Z</time></trkpt><trkpt lon="5.708266" lat="50.970037"><ele>20.8</ele><time>2022-06-26T08:56:54.000Z</time></trkpt><trkpt lon="5.708255" lat="50.970133"><ele>21</ele><time>2022-06-26T08:56:55.000Z</time></trkpt><trkpt lon="5.708247" lat="50.970204"><ele>21</ele><time>2022-06-26T08:56:56.000Z</time></trkpt><trkpt lon="5.708236" lat="50.970289"><ele>21</ele><time>2022-06-26T08:56:57.000Z</time></trkpt><trkpt lon="5.708229" lat="50.970353"><ele>21.2</ele><time>2022-06-26T08:56:58.000Z</time></trkpt><trkpt lon="5.708223" lat="50.970441"><ele>21.2</ele><time>2022-06-26T08:56:59.000Z</time></trkpt><trkpt lon="5.708214" lat="50.970505"><ele>21.2</ele><time>2022-06-26T08:57:00.000Z</time></trkpt><trkpt lon="5.708205" lat="50.97059"><ele>21.2</ele><time>2022-06-26T08:57:01.000Z</time></trkpt><trkpt lon="5.708197" lat="50.970653"><ele>21.2</ele><time>2022-06-26T08:57:02.000Z</time></trkpt><trkpt lon="5.708187" lat="50.970742"><ele>21.2</ele><time>2022-06-26T08:57:03.000Z</time></trkpt><trkpt lon="5.708179" lat="50.970809"><ele>21.4</ele><time>2022-06-26T08:57:04.000Z</time></trkpt><trkpt lon="5.70817" lat="50.970894"><ele>21.4</ele><time>2022-06-26T08:57:05.000Z</time></trkpt><trkpt lon="5.70816" lat="50.970959"><ele>21.4</ele><time>2022-06-26T08:57:06.000Z</time></trkpt><trkpt lon="5.70815" lat="50.971043"><ele>21.4</ele><time>2022-06-26T08:57:07.000Z</time></trkpt><trkpt lon="5.708143" lat="50.971112"><ele>21.4</ele><time>2022-06-26T08:57:08.000Z</time></trkpt><trkpt lon="5.708132" lat="50.9712"><ele>21.6</ele><time>2022-06-26T08:57:09.000Z</time></trkpt><trkpt lon="5.708125" lat="50.971263"><ele>21.6</ele><time>2022-06-26T08:57:10.000Z</time></trkpt><trkpt lon="5.708115" lat="50.971357"><ele>21.6</ele><time>2022-06-26T08:57:11.000Z</time></trkpt><trkpt lon="5.708106" lat="50.971432"><ele>21.6</ele><time>2022-06-26T08:57:12.000Z</time></trkpt><trkpt lon="5.708096" lat="50.971517"><ele>21.6</ele><time>2022-06-26T08:57:13.000Z</time></trkpt><trkpt lon="5.708088" lat="50.971586"><ele>21.6</ele><time>2022-06-26T08:57:14.000Z</time></trkpt><trkpt lon="5.708078" lat="50.971677"><ele>21.6</ele><time>2022-06-26T08:57:15.000Z</time></trkpt><trkpt lon="5.708071" lat="50.971736"><ele>21.4</ele><time>2022-06-26T08:57:16.000Z</time></trkpt><trkpt lon="5.708058" lat="50.971838"><ele>21.4</ele><time>2022-06-26T08:57:17.000Z</time></trkpt><trkpt lon="5.708052" lat="50.971907"><ele>21.6</ele><time>2022-06-26T08:57:18.000Z</time></trkpt><trkpt lon="5.708043" lat="50.971991"><ele>21.6</ele><time>2022-06-26T08:57:19.000Z</time></trkpt><trkpt lon="5.708037" lat="50.97206"><ele>21.6</ele><time>2022-06-26T08:57:20.000Z</time></trkpt><trkpt lon="5.70803" lat="50.972143"><ele>21.6</ele><time>2022-06-26T08:57:21.000Z</time></trkpt><trkpt lon="5.708023" lat="50.972202"><ele>21.6</ele><time>2022-06-26T08:57:22.000Z</time></trkpt><trkpt lon="5.708011" lat="50.97228"><ele>21.6</ele><time>2022-06-26T08:57:23.000Z</time></trkpt><trkpt lon="5.708003" lat="50.972341"><ele>21.6</ele><time>2022-06-26T08:57:24.000Z</time></trkpt><trkpt lon="5.707997" lat="50.972409"><ele>21.6</ele><time>2022-06-26T08:57:25.000Z</time></trkpt><trkpt lon="5.707992" lat="50.97246"><ele>21.6</ele><time>2022-06-26T08:57:26.000Z</time></trkpt><trkpt lon="5.707985" lat="50.972528"><ele>21.6</ele><time>2022-06-26T08:57:27.000Z</time></trkpt><trkpt lon="5.707981" lat="50.972575"><ele>21.6</ele><time>2022-06-26T08:57:28.000Z</time></trkpt><trkpt lon="5.707977" lat="50.972634"><ele>21.8</ele><time>2022-06-26T08:57:29.000Z</time></trkpt><trkpt lon="5.707983" lat="50.972672"><ele>21.8</ele><time>2022-06-26T08:57:30.000Z</time></trkpt><trkpt lon="5.708004" lat="50.972726"><ele>21.8</ele><time>2022-06-26T08:57:31.000Z</time></trkpt><trkpt lon="5.708023" lat="50.972767"><ele>21.8</ele><time>2022-06-26T08:57:32.000Z</time></trkpt><trkpt lon="5.708041" lat="50.972821"><ele>21.8</ele><time>2022-06-26T08:57:33.000Z</time></trkpt><trkpt lon="5.708051" lat="50.972863"><ele>21.6</ele><time>2022-06-26T08:57:34.000Z</time></trkpt><trkpt lon="5.708065" lat="50.972925"><ele>21.4</ele><time>2022-06-26T08:57:35.000Z</time></trkpt><trkpt lon="5.70808" lat="50.972978"><ele>21</ele><time>2022-06-26T08:57:36.000Z</time></trkpt><trkpt lon="5.708114" lat="50.973054"><ele>20.4</ele><time>2022-06-26T08:57:37.000Z</time></trkpt><trkpt lon="5.708153" lat="50.973112"><ele>20.2</ele><time>2022-06-26T08:57:38.000Z</time></trkpt><trkpt lon="5.708219" lat="50.973203"><ele>19.6</ele><time>2022-06-26T08:57:39.000Z</time></trkpt><trkpt lon="5.708271" lat="50.973273"><ele>19.2</ele><time>2022-06-26T08:57:40.000Z</time></trkpt><trkpt lon="5.708334" lat="50.973363"><ele>19</ele><time>2022-06-26T08:57:41.000Z</time></trkpt><trkpt lon="5.708394" lat="50.973452"><ele>18.8</ele><time>2022-06-26T08:57:42.000Z</time></trkpt><trkpt lon="5.708447" lat="50.973532"><ele>18.8</ele><time>2022-06-26T08:57:43.000Z</time></trkpt><trkpt lon="5.708508" lat="50.973626"><ele>18.6</ele><time>2022-06-26T08:57:44.000Z</time></trkpt><trkpt lon="5.708557" lat="50.973704"><ele>18.4</ele><time>2022-06-26T08:57:45.000Z</time></trkpt><trkpt lon="5.708614" lat="50.973798"><ele>18.2</ele><time>2022-06-26T08:57:46.000Z</time></trkpt><trkpt lon="5.708662" lat="50.973878"><ele>18</ele><time>2022-06-26T08:57:47.000Z</time></trkpt><trkpt lon="5.708719" lat="50.973972"><ele>17.8</ele><time>2022-06-26T08:57:48.000Z</time></trkpt><trkpt lon="5.708769" lat="50.974054"><ele>17.8</ele><time>2022-06-26T08:57:49.000Z</time></trkpt><trkpt lon="5.708826" lat="50.974142"><ele>17.6</ele><time>2022-06-26T08:57:50.000Z</time></trkpt><trkpt lon="5.708873" lat="50.974216"><ele>17.4</ele><time>2022-06-26T08:57:51.000Z</time></trkpt><trkpt lon="5.708924" lat="50.974298"><ele>17.2</ele><time>2022-06-26T08:57:52.000Z</time></trkpt><trkpt lon="5.70896" lat="50.974355"><ele>17.2</ele><time>2022-06-26T08:57:53.000Z</time></trkpt><trkpt lon="5.709022" lat="50.974451"><ele>17.2</ele><time>2022-06-26T08:57:54.000Z</time></trkpt><trkpt lon="5.709066" lat="50.974513"><ele>17.4</ele><time>2022-06-26T08:57:55.000Z</time></trkpt><trkpt lon="5.70912" lat="50.974603"><ele>17.4</ele><time>2022-06-26T08:57:56.000Z</time></trkpt><trkpt lon="5.709158" lat="50.97467"><ele>17.4</ele><time>2022-06-26T08:57:57.000Z</time></trkpt><trkpt lon="5.709213" lat="50.97476"><ele>17.4</ele><time>2022-06-26T08:57:58.000Z</time></trkpt><trkpt lon="5.709258" lat="50.974825"><ele>17.2</ele><time>2022-06-26T08:57:59.000Z</time></trkpt><trkpt lon="5.709313" lat="50.974905"><ele>17</ele><time>2022-06-26T08:58:00.000Z</time></trkpt><trkpt lon="5.709353" lat="50.974961"><ele>16.8</ele><time>2022-06-26T08:58:01.000Z</time></trkpt><trkpt lon="5.709409" lat="50.975042"><ele>17</ele><time>2022-06-26T08:58:02.000Z</time></trkpt><trkpt lon="5.70945" lat="50.975105"><ele>17</ele><time>2022-06-26T08:58:03.000Z</time></trkpt><trkpt lon="5.709494" lat="50.975176"><ele>16.8</ele><time>2022-06-26T08:58:04.000Z</time></trkpt><trkpt lon="5.709524" lat="50.975226"><ele>16.8</ele><time>2022-06-26T08:58:05.000Z</time></trkpt><trkpt lon="5.709559" lat="50.975301"><ele>16.8</ele><time>2022-06-26T08:58:06.000Z</time></trkpt><trkpt lon="5.709572" lat="50.975362"><ele>17</ele><time>2022-06-26T08:58:07.000Z</time></trkpt><trkpt lon="5.709573" lat="50.975443"><ele>17</ele><time>2022-06-26T08:58:08.000Z</time></trkpt><trkpt lon="5.70957" lat="50.975501"><ele>17</ele><time>2022-06-26T08:58:09.000Z</time></trkpt><trkpt lon="5.709586" lat="50.975595"><ele>17.2</ele><time>2022-06-26T08:58:10.000Z</time></trkpt><trkpt lon="5.709602" lat="50.975643"><ele>17.2</ele><time>2022-06-26T08:58:11.000Z</time></trkpt><trkpt lon="5.709624" lat="50.975704"><ele>17</ele><time>2022-06-26T08:58:12.000Z</time></trkpt><trkpt lon="5.709653" lat="50.975779"><ele>16.8</ele><time>2022-06-26T08:58:13.000Z</time></trkpt><trkpt lon="5.709687" lat="50.975868"><ele>16.8</ele><time>2022-06-26T08:58:14.000Z</time></trkpt><trkpt lon="5.709724" lat="50.975954"><ele>16.8</ele><time>2022-06-26T08:58:15.000Z</time></trkpt><trkpt lon="5.709754" lat="50.976026"><ele>16.6</ele><time>2022-06-26T08:58:16.000Z</time></trkpt><trkpt lon="5.709785" lat="50.976098"><ele>16.6</ele><time>2022-06-26T08:58:17.000Z</time></trkpt><trkpt lon="5.709818" lat="50.976168"><ele>16.8</ele><time>2022-06-26T08:58:18.000Z</time></trkpt><trkpt lon="5.709853" lat="50.97624"><ele>16.8</ele><time>2022-06-26T08:58:19.000Z</time></trkpt><trkpt lon="5.709881" lat="50.976308"><ele>16.8</ele><time>2022-06-26T08:58:20.000Z</time></trkpt><trkpt lon="5.709916" lat="50.976385"><ele>16.8</ele><time>2022-06-26T08:58:21.000Z</time></trkpt><trkpt lon="5.709946" lat="50.976461"><ele>16.6</ele><time>2022-06-26T08:58:22.000Z</time></trkpt><trkpt lon="5.709977" lat="50.976533"><ele>16.6</ele><time>2022-06-26T08:58:23.000Z</time></trkpt><trkpt lon="5.710001" lat="50.976602"><ele>16.4</ele><time>2022-06-26T08:58:24.000Z</time></trkpt><trkpt lon="5.710032" lat="50.976679"><ele>16.4</ele><time>2022-06-26T08:58:25.000Z</time></trkpt><trkpt lon="5.710063" lat="50.976747"><ele>16.4</ele><time>2022-06-26T08:58:26.000Z</time></trkpt><trkpt lon="5.710091" lat="50.976827"><ele>16.4</ele><time>2022-06-26T08:58:27.000Z</time></trkpt><trkpt lon="5.710111" lat="50.976904"><ele>16.4</ele><time>2022-06-26T08:58:28.000Z</time></trkpt><trkpt lon="5.710132" lat="50.97698"><ele>16.4</ele><time>2022-06-26T08:58:29.000Z</time></trkpt><trkpt lon="5.710152" lat="50.977057"><ele>16.6</ele><time>2022-06-26T08:58:30.000Z</time></trkpt><trkpt lon="5.710174" lat="50.977129"><ele>16.6</ele><time>2022-06-26T08:58:31.000Z</time></trkpt><trkpt lon="5.710197" lat="50.977209"><ele>16.6</ele><time>2022-06-26T08:58:32.000Z</time></trkpt><trkpt lon="5.710219" lat="50.977285"><ele>16.6</ele><time>2022-06-26T08:58:33.000Z</time></trkpt><trkpt lon="5.71024" lat="50.977358"><ele>16.6</ele><time>2022-06-26T08:58:34.000Z</time></trkpt><trkpt lon="5.710257" lat="50.97743"><ele>16.8</ele><time>2022-06-26T08:58:35.000Z</time></trkpt><trkpt lon="5.710282" lat="50.977502"><ele>16.8</ele><time>2022-06-26T08:58:36.000Z</time></trkpt><trkpt lon="5.710313" lat="50.977575"><ele>16.8</ele><time>2022-06-26T08:58:37.000Z</time></trkpt><trkpt lon="5.710342" lat="50.977652"><ele>17</ele><time>2022-06-26T08:58:38.000Z</time></trkpt><trkpt lon="5.710367" lat="50.977724"><ele>16.8</ele><time>2022-06-26T08:58:39.000Z</time></trkpt><trkpt lon="5.710394" lat="50.977797"><ele>17</ele><time>2022-06-26T08:58:40.000Z</time></trkpt><trkpt lon="5.710414" lat="50.977869"><ele>17</ele><time>2022-06-26T08:58:41.000Z</time></trkpt><trkpt lon="5.710434" lat="50.977941"><ele>16.8</ele><time>2022-06-26T08:58:42.000Z</time></trkpt><trkpt lon="5.710459" lat="50.978006"><ele>16.8</ele><time>2022-06-26T08:58:43.000Z</time></trkpt><trkpt lon="5.710486" lat="50.978075"><ele>16.8</ele><time>2022-06-26T08:58:44.000Z</time></trkpt><trkpt lon="5.710509" lat="50.978151"><ele>16.6</ele><time>2022-06-26T08:58:45.000Z</time></trkpt><trkpt lon="5.710527" lat="50.978228"><ele>16.6</ele><time>2022-06-26T08:58:46.000Z</time></trkpt><trkpt lon="5.710552" lat="50.9783"><ele>16.6</ele><time>2022-06-26T08:58:47.000Z</time></trkpt><trkpt lon="5.710575" lat="50.978368"><ele>16.6</ele><time>2022-06-26T08:58:48.000Z</time></trkpt><trkpt lon="5.710596" lat="50.978437"><ele>16.8</ele><time>2022-06-26T08:58:49.000Z</time></trkpt><trkpt lon="5.710619" lat="50.978505"><ele>16.8</ele><time>2022-06-26T08:58:50.000Z</time></trkpt><trkpt lon="5.710641" lat="50.978563"><ele>16.8</ele><time>2022-06-26T08:58:51.000Z</time></trkpt><trkpt lon="5.710666" lat="50.978616"><ele>16.8</ele><time>2022-06-26T08:58:52.000Z</time></trkpt><trkpt lon="5.710711" lat="50.978669"><ele>16.8</ele><time>2022-06-26T08:58:53.000Z</time></trkpt><trkpt lon="5.710777" lat="50.978695"><ele>16.8</ele><time>2022-06-26T08:58:54.000Z</time></trkpt><trkpt lon="5.710855" lat="50.978699"><ele>16.8</ele><time>2022-06-26T08:58:55.000Z</time></trkpt><trkpt lon="5.710946" lat="50.978694"><ele>16.8</ele><time>2022-06-26T08:58:56.000Z</time></trkpt><trkpt lon="5.71106" lat="50.978672"><ele>16.8</ele><time>2022-06-26T08:58:57.000Z</time></trkpt><trkpt lon="5.711184" lat="50.978648"><ele>16.6</ele><time>2022-06-26T08:58:58.000Z</time></trkpt><trkpt lon="5.711306" lat="50.978622"><ele>16.6</ele><time>2022-06-26T08:58:59.000Z</time></trkpt><trkpt lon="5.711436" lat="50.978599"><ele>16.6</ele><time>2022-06-26T08:59:00.000Z</time></trkpt><trkpt lon="5.71156" lat="50.978572"><ele>16.6</ele><time>2022-06-26T08:59:01.000Z</time></trkpt><trkpt lon="5.711685" lat="50.978545"><ele>16.6</ele><time>2022-06-26T08:59:02.000Z</time></trkpt><trkpt lon="5.711808" lat="50.978515"><ele>16.4</ele><time>2022-06-26T08:59:03.000Z</time></trkpt><trkpt lon="5.711935" lat="50.978492"><ele>16.4</ele><time>2022-06-26T08:59:04.000Z</time></trkpt><trkpt lon="5.712061" lat="50.978473"><ele>16.4</ele><time>2022-06-26T08:59:05.000Z</time></trkpt><trkpt lon="5.712188" lat="50.978454"><ele>16.2</ele><time>2022-06-26T08:59:06.000Z</time></trkpt><trkpt lon="5.712313" lat="50.978431"><ele>16.2</ele><time>2022-06-26T08:59:07.000Z</time></trkpt><trkpt lon="5.712436" lat="50.978412"><ele>16.4</ele><time>2022-06-26T08:59:08.000Z</time></trkpt><trkpt lon="5.71256" lat="50.978389"><ele>16.4</ele><time>2022-06-26T08:59:09.000Z</time></trkpt><trkpt lon="5.71268" lat="50.978366"><ele>16.2</ele><time>2022-06-26T08:59:10.000Z</time></trkpt><trkpt lon="5.712801" lat="50.978339"><ele>16.2</ele><time>2022-06-26T08:59:11.000Z</time></trkpt><trkpt lon="5.712924" lat="50.978309"><ele>16.2</ele><time>2022-06-26T08:59:12.000Z</time></trkpt><trkpt lon="5.713046" lat="50.978282"><ele>16</ele><time>2022-06-26T08:59:13.000Z</time></trkpt><trkpt lon="5.713167" lat="50.978256"><ele>16</ele><time>2022-06-26T08:59:14.000Z</time></trkpt><trkpt lon="5.713293" lat="50.978233"><ele>16</ele><time>2022-06-26T08:59:15.000Z</time></trkpt><trkpt lon="5.713413" lat="50.97821"><ele>16</ele><time>2022-06-26T08:59:16.000Z</time></trkpt><trkpt lon="5.713538" lat="50.978187"><ele>16</ele><time>2022-06-26T08:59:17.000Z</time></trkpt><trkpt lon="5.71366" lat="50.978168"><ele>16</ele><time>2022-06-26T08:59:18.000Z</time></trkpt><trkpt lon="5.713776" lat="50.978146"><ele>16</ele><time>2022-06-26T08:59:19.000Z</time></trkpt><trkpt lon="5.713896" lat="50.978118"><ele>15.8</ele><time>2022-06-26T08:59:20.000Z</time></trkpt><trkpt lon="5.714011" lat="50.978095"><ele>15.8</ele><time>2022-06-26T08:59:21.000Z</time></trkpt><trkpt lon="5.714126" lat="50.978069"><ele>15.8</ele><time>2022-06-26T08:59:22.000Z</time></trkpt><trkpt lon="5.714237" lat="50.97805"><ele>15.8</ele><time>2022-06-26T08:59:23.000Z</time></trkpt><trkpt lon="5.714347" lat="50.978031"><ele>15.8</ele><time>2022-06-26T08:59:24.000Z</time></trkpt><trkpt lon="5.714453" lat="50.978012"><ele>15.6</ele><time>2022-06-26T08:59:25.000Z</time></trkpt><trkpt lon="5.714545" lat="50.977997"><ele>15.8</ele><time>2022-06-26T08:59:26.000Z</time></trkpt><trkpt lon="5.714633" lat="50.977981"><ele>15.8</ele><time>2022-06-26T08:59:27.000Z</time></trkpt><trkpt lon="5.714722" lat="50.977974"><ele>15.8</ele><time>2022-06-26T08:59:28.000Z</time></trkpt><trkpt lon="5.714812" lat="50.977974"><ele>15.8</ele><time>2022-06-26T08:59:29.000Z</time></trkpt><trkpt lon="5.714896" lat="50.977998"><ele>15.6</ele><time>2022-06-26T08:59:30.000Z</time></trkpt><trkpt lon="5.714978" lat="50.978032"><ele>15.6</ele><time>2022-06-26T08:59:31.000Z</time></trkpt><trkpt lon="5.715057" lat="50.978077"><ele>15.6</ele><time>2022-06-26T08:59:32.000Z</time></trkpt><trkpt lon="5.715138" lat="50.978132"><ele>15.4</ele><time>2022-06-26T08:59:33.000Z</time></trkpt><trkpt lon="5.715214" lat="50.978184"><ele>15.4</ele><time>2022-06-26T08:59:34.000Z</time></trkpt><trkpt lon="5.715292" lat="50.978242"><ele>15.4</ele><time>2022-06-26T08:59:35.000Z</time></trkpt><trkpt lon="5.715368" lat="50.978303"><ele>15.4</ele><time>2022-06-26T08:59:36.000Z</time></trkpt><trkpt lon="5.715445" lat="50.978364"><ele>15.4</ele><time>2022-06-26T08:59:37.000Z</time></trkpt><trkpt lon="5.71552" lat="50.978425"><ele>15.2</ele><time>2022-06-26T08:59:38.000Z</time></trkpt><trkpt lon="5.715595" lat="50.978486"><ele>15.2</ele><time>2022-06-26T08:59:39.000Z</time></trkpt><trkpt lon="5.715662" lat="50.978546"><ele>15</ele><time>2022-06-26T08:59:40.000Z</time></trkpt><trkpt lon="5.715743" lat="50.978616"><ele>15</ele><time>2022-06-26T08:59:41.000Z</time></trkpt><trkpt lon="5.715818" lat="50.978681"><ele>15</ele><time>2022-06-26T08:59:42.000Z</time></trkpt><trkpt lon="5.715892" lat="50.978741"><ele>15.2</ele><time>2022-06-26T08:59:43.000Z</time></trkpt><trkpt lon="5.71597" lat="50.978807"><ele>15.2</ele><time>2022-06-26T08:59:44.000Z</time></trkpt><trkpt lon="5.716047" lat="50.978872"><ele>15.2</ele><time>2022-06-26T08:59:45.000Z</time></trkpt><trkpt lon="5.716124" lat="50.978933"><ele>15.2</ele><time>2022-06-26T08:59:46.000Z</time></trkpt><trkpt lon="5.716207" lat="50.97899"><ele>15.4</ele><time>2022-06-26T08:59:47.000Z</time></trkpt><trkpt lon="5.716295" lat="50.979047"><ele>15.4</ele><time>2022-06-26T08:59:48.000Z</time></trkpt><trkpt lon="5.716389" lat="50.979096"><ele>15.4</ele><time>2022-06-26T08:59:49.000Z</time></trkpt><trkpt lon="5.716487" lat="50.979146"><ele>15.4</ele><time>2022-06-26T08:59:50.000Z</time></trkpt><trkpt lon="5.716591" lat="50.979188"><ele>15.4</ele><time>2022-06-26T08:59:51.000Z</time></trkpt><trkpt lon="5.716702" lat="50.979222"><ele>15.4</ele><time>2022-06-26T08:59:52.000Z</time></trkpt><trkpt lon="5.716819" lat="50.979252"><ele>15.4</ele><time>2022-06-26T08:59:53.000Z</time></trkpt><trkpt lon="5.716938" lat="50.979271"><ele>15.2</ele><time>2022-06-26T08:59:54.000Z</time></trkpt><trkpt lon="5.717061" lat="50.97929"><ele>15.2</ele><time>2022-06-26T08:59:55.000Z</time></trkpt><trkpt lon="5.717184" lat="50.979309"><ele>15.2</ele><time>2022-06-26T08:59:56.000Z</time></trkpt><trkpt lon="5.717308" lat="50.979325"><ele>15.4</ele><time>2022-06-26T08:59:57.000Z</time></trkpt><trkpt lon="5.71743" lat="50.97934"><ele>15.4</ele><time>2022-06-26T08:59:58.000Z</time></trkpt><trkpt lon="5.717554" lat="50.979355"><ele>15.4</ele><time>2022-06-26T08:59:59.000Z</time></trkpt><trkpt lon="5.717676" lat="50.979371"><ele>15.4</ele><time>2022-06-26T09:00:00.000Z</time></trkpt><trkpt lon="5.717797" lat="50.97939"><ele>15.4</ele><time>2022-06-26T09:00:01.000Z</time></trkpt><trkpt lon="5.717917" lat="50.979413"><ele>15.4</ele><time>2022-06-26T09:00:02.000Z</time></trkpt><trkpt lon="5.718037" lat="50.979435"><ele>15.6</ele><time>2022-06-26T09:00:03.000Z</time></trkpt><trkpt lon="5.718154" lat="50.979462"><ele>15.6</ele><time>2022-06-26T09:00:04.000Z</time></trkpt><trkpt lon="5.718274" lat="50.979489"><ele>15.6</ele><time>2022-06-26T09:00:05.000Z</time></trkpt><trkpt lon="5.71839" lat="50.979519"><ele>15.8</ele><time>2022-06-26T09:00:06.000Z</time></trkpt><trkpt lon="5.718506" lat="50.979554"><ele>15.8</ele><time>2022-06-26T09:00:07.000Z</time></trkpt><trkpt lon="5.718615" lat="50.979588"><ele>16</ele><time>2022-06-26T09:00:08.000Z</time></trkpt><trkpt lon="5.718721" lat="50.97963"><ele>16</ele><time>2022-06-26T09:00:09.000Z</time></trkpt><trkpt lon="5.718822" lat="50.97968"><ele>16.2</ele><time>2022-06-26T09:00:10.000Z</time></trkpt><trkpt lon="5.718914" lat="50.979738"><ele>16.2</ele><time>2022-06-26T09:00:11.000Z</time></trkpt><trkpt lon="5.719" lat="50.979795"><ele>16.4</ele><time>2022-06-26T09:00:12.000Z</time></trkpt><trkpt lon="5.719082" lat="50.97985"><ele>16.4</ele><time>2022-06-26T09:00:13.000Z</time></trkpt><trkpt lon="5.71917" lat="50.979913"><ele>16.4</ele><time>2022-06-26T09:00:14.000Z</time></trkpt><trkpt lon="5.719255" lat="50.979974"><ele>16.2</ele><time>2022-06-26T09:00:15.000Z</time></trkpt><trkpt lon="5.719338" lat="50.980036"><ele>16.2</ele><time>2022-06-26T09:00:16.000Z</time></trkpt><trkpt lon="5.719422" lat="50.980096"><ele>16.2</ele><time>2022-06-26T09:00:17.000Z</time></trkpt><trkpt lon="5.719506" lat="50.980161"><ele>16.2</ele><time>2022-06-26T09:00:18.000Z</time></trkpt><trkpt lon="5.719588" lat="50.980221"><ele>16.4</ele><time>2022-06-26T09:00:19.000Z</time></trkpt><trkpt lon="5.719672" lat="50.980283"><ele>16.4</ele><time>2022-06-26T09:00:20.000Z</time></trkpt><trkpt lon="5.719755" lat="50.980344"><ele>16.4</ele><time>2022-06-26T09:00:21.000Z</time></trkpt><trkpt lon="5.719842" lat="50.980405"><ele>16.4</ele><time>2022-06-26T09:00:22.000Z</time></trkpt><trkpt lon="5.719927" lat="50.980462"><ele>16.6</ele><time>2022-06-26T09:00:23.000Z</time></trkpt><trkpt lon="5.720016" lat="50.98052"><ele>16.6</ele><time>2022-06-26T09:00:24.000Z</time></trkpt><trkpt lon="5.720102" lat="50.980581"><ele>16.4</ele><time>2022-06-26T09:00:25.000Z</time></trkpt><trkpt lon="5.720185" lat="50.980641"><ele>16.4</ele><time>2022-06-26T09:00:26.000Z</time></trkpt><trkpt lon="5.720269" lat="50.980699"><ele>16.4</ele><time>2022-06-26T09:00:27.000Z</time></trkpt><trkpt lon="5.720353" lat="50.980756"><ele>16.4</ele><time>2022-06-26T09:00:28.000Z</time></trkpt><trkpt lon="5.720437" lat="50.980817"><ele>16.2</ele><time>2022-06-26T09:00:29.000Z</time></trkpt><trkpt lon="5.72052" lat="50.980878"><ele>16.2</ele><time>2022-06-26T09:00:30.000Z</time></trkpt><trkpt lon="5.720603" lat="50.980936"><ele>16</ele><time>2022-06-26T09:00:31.000Z</time></trkpt><trkpt lon="5.720685" lat="50.980997"><ele>16</ele><time>2022-06-26T09:00:32.000Z</time></trkpt><trkpt lon="5.720765" lat="50.981053"><ele>15.8</ele><time>2022-06-26T09:00:33.000Z</time></trkpt><trkpt lon="5.720849" lat="50.981115"><ele>15.8</ele><time>2022-06-26T09:00:34.000Z</time></trkpt><trkpt lon="5.72093" lat="50.981175"><ele>16</ele><time>2022-06-26T09:00:35.000Z</time></trkpt><trkpt lon="5.721011" lat="50.981236"><ele>16</ele><time>2022-06-26T09:00:36.000Z</time></trkpt><trkpt lon="5.721094" lat="50.981302"><ele>16</ele><time>2022-06-26T09:00:37.000Z</time></trkpt><trkpt lon="5.721173" lat="50.981366"><ele>16</ele><time>2022-06-26T09:00:38.000Z</time></trkpt><trkpt lon="5.721252" lat="50.981431"><ele>15.8</ele><time>2022-06-26T09:00:39.000Z</time></trkpt><trkpt lon="5.721326" lat="50.9815"><ele>16</ele><time>2022-06-26T09:00:40.000Z</time></trkpt><trkpt lon="5.721398" lat="50.981569"><ele>16</ele><time>2022-06-26T09:00:41.000Z</time></trkpt><trkpt lon="5.721465" lat="50.981638"><ele>16.2</ele><time>2022-06-26T09:00:42.000Z</time></trkpt><trkpt lon="5.721526" lat="50.981706"><ele>16.2</ele><time>2022-06-26T09:00:43.000Z</time></trkpt><trkpt lon="5.721588" lat="50.981775"><ele>16.2</ele><time>2022-06-26T09:00:44.000Z</time></trkpt><trkpt lon="5.721648" lat="50.981848"><ele>16.2</ele><time>2022-06-26T09:00:45.000Z</time></trkpt><trkpt lon="5.721708" lat="50.981916"><ele>16.2</ele><time>2022-06-26T09:00:46.000Z</time></trkpt><trkpt lon="5.721772" lat="50.981985"><ele>16.4</ele><time>2022-06-26T09:00:47.000Z</time></trkpt><trkpt lon="5.721841" lat="50.982045"><ele>16.4</ele><time>2022-06-26T09:00:48.000Z</time></trkpt><trkpt lon="5.721919" lat="50.982103"><ele>16.4</ele><time>2022-06-26T09:00:49.000Z</time></trkpt><trkpt lon="5.722002" lat="50.98216"><ele>16.4</ele><time>2022-06-26T09:00:50.000Z</time></trkpt><trkpt lon="5.722087" lat="50.982217"><ele>16.4</ele><time>2022-06-26T09:00:51.000Z</time></trkpt><trkpt lon="5.722172" lat="50.982275"><ele>16.4</ele><time>2022-06-26T09:00:52.000Z</time></trkpt><trkpt lon="5.722257" lat="50.982336"><ele>16.4</ele><time>2022-06-26T09:00:53.000Z</time></trkpt><trkpt lon="5.722346" lat="50.982397"><ele>16.4</ele><time>2022-06-26T09:00:54.000Z</time></trkpt><trkpt lon="5.722439" lat="50.98245"><ele>16.4</ele><time>2022-06-26T09:00:55.000Z</time></trkpt><trkpt lon="5.722539" lat="50.982503"><ele>16.2</ele><time>2022-06-26T09:00:56.000Z</time></trkpt><trkpt lon="5.72265" lat="50.982553"><ele>16.2</ele><time>2022-06-26T09:00:57.000Z</time></trkpt><trkpt lon="5.722763" lat="50.982595"><ele>16.2</ele><time>2022-06-26T09:00:58.000Z</time></trkpt><trkpt lon="5.722878" lat="50.98264"><ele>16.2</ele><time>2022-06-26T09:00:59.000Z</time></trkpt><trkpt lon="5.72299" lat="50.982686"><ele>16</ele><time>2022-06-26T09:01:00.000Z</time></trkpt><trkpt lon="5.723104" lat="50.982728"><ele>16</ele><time>2022-06-26T09:01:01.000Z</time></trkpt><trkpt lon="5.723218" lat="50.982774"><ele>16</ele><time>2022-06-26T09:01:02.000Z</time></trkpt><trkpt lon="5.723328" lat="50.982818"><ele>16</ele><time>2022-06-26T09:01:03.000Z</time></trkpt><trkpt lon="5.723446" lat="50.982865"><ele>16</ele><time>2022-06-26T09:01:04.000Z</time></trkpt><trkpt lon="5.723558" lat="50.982911"><ele>16</ele><time>2022-06-26T09:01:05.000Z</time></trkpt><trkpt lon="5.72367" lat="50.982961"><ele>16</ele><time>2022-06-26T09:01:06.000Z</time></trkpt><trkpt lon="5.723772" lat="50.98301"><ele>15.8</ele><time>2022-06-26T09:01:07.000Z</time></trkpt><trkpt lon="5.723868" lat="50.983064"><ele>15.8</ele><time>2022-06-26T09:01:08.000Z</time></trkpt><trkpt lon="5.723959" lat="50.983121"><ele>15.6</ele><time>2022-06-26T09:01:09.000Z</time></trkpt><trkpt lon="5.724047" lat="50.983182"><ele>15.6</ele><time>2022-06-26T09:01:10.000Z</time></trkpt><trkpt lon="5.724132" lat="50.983243"><ele>15.6</ele><time>2022-06-26T09:01:11.000Z</time></trkpt><trkpt lon="5.724215" lat="50.983308"><ele>15.6</ele><time>2022-06-26T09:01:12.000Z</time></trkpt><trkpt lon="5.724298" lat="50.983374"><ele>15.6</ele><time>2022-06-26T09:01:13.000Z</time></trkpt><trkpt lon="5.724378" lat="50.983438"><ele>15.4</ele><time>2022-06-26T09:01:14.000Z</time></trkpt><trkpt lon="5.724464" lat="50.983503"><ele>15.4</ele><time>2022-06-26T09:01:15.000Z</time></trkpt><trkpt lon="5.724552" lat="50.983572"><ele>15.4</ele><time>2022-06-26T09:01:16.000Z</time></trkpt><trkpt lon="5.724639" lat="50.983636"><ele>15.2</ele><time>2022-06-26T09:01:17.000Z</time></trkpt><trkpt lon="5.724728" lat="50.9837"><ele>15</ele><time>2022-06-26T09:01:18.000Z</time></trkpt><trkpt lon="5.724819" lat="50.983766"><ele>15</ele><time>2022-06-26T09:01:19.000Z</time></trkpt><trkpt lon="5.724905" lat="50.983831"><ele>15</ele><time>2022-06-26T09:01:20.000Z</time></trkpt><trkpt lon="5.72499" lat="50.983895"><ele>14.8</ele><time>2022-06-26T09:01:21.000Z</time></trkpt><trkpt lon="5.725077" lat="50.983961"><ele>14.8</ele><time>2022-06-26T09:01:22.000Z</time></trkpt><trkpt lon="5.725165" lat="50.984025"><ele>14.8</ele><time>2022-06-26T09:01:23.000Z</time></trkpt><trkpt lon="5.725252" lat="50.984087"><ele>14.6</ele><time>2022-06-26T09:01:24.000Z</time></trkpt><trkpt lon="5.725339" lat="50.984151"><ele>14.6</ele><time>2022-06-26T09:01:25.000Z</time></trkpt><trkpt lon="5.725429" lat="50.984212"><ele>14.6</ele><time>2022-06-26T09:01:26.000Z</time></trkpt><trkpt lon="5.72552" lat="50.984269"><ele>14.6</ele><time>2022-06-26T09:01:27.000Z</time></trkpt><trkpt lon="5.725614" lat="50.984331"><ele>14.4</ele><time>2022-06-26T09:01:28.000Z</time></trkpt><trkpt lon="5.725709" lat="50.984392"><ele>14.4</ele><time>2022-06-26T09:01:29.000Z</time></trkpt><trkpt lon="5.725803" lat="50.984452"><ele>14.2</ele><time>2022-06-26T09:01:30.000Z</time></trkpt><trkpt lon="5.725899" lat="50.984513"><ele>14</ele><time>2022-06-26T09:01:31.000Z</time></trkpt><trkpt lon="5.726001" lat="50.984575"><ele>13.8</ele><time>2022-06-26T09:01:32.000Z</time></trkpt><trkpt lon="5.726099" lat="50.984628"><ele>13.8</ele><time>2022-06-26T09:01:33.000Z</time></trkpt><trkpt lon="5.726197" lat="50.984689"><ele>13.6</ele><time>2022-06-26T09:01:34.000Z</time></trkpt><trkpt lon="5.726295" lat="50.984746"><ele>13.6</ele><time>2022-06-26T09:01:35.000Z</time></trkpt><trkpt lon="5.726399" lat="50.984807"><ele>13.4</ele><time>2022-06-26T09:01:36.000Z</time></trkpt><trkpt lon="5.726501" lat="50.984863"><ele>13.4</ele><time>2022-06-26T09:01:37.000Z</time></trkpt><trkpt lon="5.726609" lat="50.984918"><ele>13.6</ele><time>2022-06-26T09:01:38.000Z</time></trkpt><trkpt lon="5.726711" lat="50.984975"><ele>13.6</ele><time>2022-06-26T09:01:39.000Z</time></trkpt><trkpt lon="5.726814" lat="50.985032"><ele>13.6</ele><time>2022-06-26T09:01:40.000Z</time></trkpt><trkpt lon="5.726912" lat="50.985089"><ele>13.6</ele><time>2022-06-26T09:01:41.000Z</time></trkpt><trkpt lon="5.72701" lat="50.985143"><ele>13.6</ele><time>2022-06-26T09:01:42.000Z</time></trkpt><trkpt lon="5.727106" lat="50.985199"><ele>13.6</ele><time>2022-06-26T09:01:43.000Z</time></trkpt><trkpt lon="5.727205" lat="50.98526"><ele>13.8</ele><time>2022-06-26T09:01:44.000Z</time></trkpt><trkpt lon="5.727304" lat="50.985319"><ele>13.8</ele><time>2022-06-26T09:01:45.000Z</time></trkpt><trkpt lon="5.727399" lat="50.985376"><ele>13.6</ele><time>2022-06-26T09:01:46.000Z</time></trkpt><trkpt lon="5.727495" lat="50.985436"><ele>13.6</ele><time>2022-06-26T09:01:47.000Z</time></trkpt><trkpt lon="5.727587" lat="50.985495"><ele>13.6</ele><time>2022-06-26T09:01:48.000Z</time></trkpt><trkpt lon="5.727687" lat="50.985555"><ele>13.6</ele><time>2022-06-26T09:01:49.000Z</time></trkpt><trkpt lon="5.72778" lat="50.985616"><ele>13.6</ele><time>2022-06-26T09:01:50.000Z</time></trkpt><trkpt lon="5.727871" lat="50.985673"><ele>13.6</ele><time>2022-06-26T09:01:51.000Z</time></trkpt><trkpt lon="5.727961" lat="50.985735"><ele>13.6</ele><time>2022-06-26T09:01:52.000Z</time></trkpt><trkpt lon="5.72805" lat="50.985791"><ele>13.6</ele><time>2022-06-26T09:01:53.000Z</time></trkpt><trkpt lon="5.728135" lat="50.985851"><ele>13.8</ele><time>2022-06-26T09:01:54.000Z</time></trkpt><trkpt lon="5.728223" lat="50.985913"><ele>13.8</ele><time>2022-06-26T09:01:55.000Z</time></trkpt><trkpt lon="5.728308" lat="50.985974"><ele>13.8</ele><time>2022-06-26T09:01:56.000Z</time></trkpt><trkpt lon="5.728394" lat="50.986032"><ele>13.8</ele><time>2022-06-26T09:01:57.000Z</time></trkpt><trkpt lon="5.728478" lat="50.986089"><ele>13.8</ele><time>2022-06-26T09:01:58.000Z</time></trkpt><trkpt lon="5.728565" lat="50.98615"><ele>13.6</ele><time>2022-06-26T09:01:59.000Z</time></trkpt><trkpt lon="5.728651" lat="50.986206"><ele>13.6</ele><time>2022-06-26T09:02:00.000Z</time></trkpt><trkpt lon="5.728738" lat="50.986264"><ele>13.6</ele><time>2022-06-26T09:02:01.000Z</time></trkpt><trkpt lon="5.728825" lat="50.986322"><ele>13.6</ele><time>2022-06-26T09:02:02.000Z</time></trkpt><trkpt lon="5.728908" lat="50.986378"><ele>13.8</ele><time>2022-06-26T09:02:03.000Z</time></trkpt><trkpt lon="5.728991" lat="50.986432"><ele>13.8</ele><time>2022-06-26T09:02:04.000Z</time></trkpt><trkpt lon="5.729075" lat="50.98649"><ele>13.8</ele><time>2022-06-26T09:02:05.000Z</time></trkpt><trkpt lon="5.729159" lat="50.986546"><ele>13.8</ele><time>2022-06-26T09:02:06.000Z</time></trkpt><trkpt lon="5.729245" lat="50.986604"><ele>13.8</ele><time>2022-06-26T09:02:07.000Z</time></trkpt><trkpt lon="5.72933" lat="50.986661"><ele>14</ele><time>2022-06-26T09:02:08.000Z</time></trkpt><trkpt lon="5.729417" lat="50.986719"><ele>14</ele><time>2022-06-26T09:02:09.000Z</time></trkpt><trkpt lon="5.729502" lat="50.986776"><ele>14</ele><time>2022-06-26T09:02:10.000Z</time></trkpt><trkpt lon="5.729585" lat="50.986837"><ele>14</ele><time>2022-06-26T09:02:11.000Z</time></trkpt><trkpt lon="5.729665" lat="50.986898"><ele>14</ele><time>2022-06-26T09:02:12.000Z</time></trkpt><trkpt lon="5.729739" lat="50.986955"><ele>13.8</ele><time>2022-06-26T09:02:13.000Z</time></trkpt><trkpt lon="5.729812" lat="50.987019"><ele>14</ele><time>2022-06-26T09:02:14.000Z</time></trkpt><trkpt lon="5.729881" lat="50.987084"><ele>14</ele><time>2022-06-26T09:02:15.000Z</time></trkpt><trkpt lon="5.729948" lat="50.98715"><ele>14.2</ele><time>2022-06-26T09:02:16.000Z</time></trkpt><trkpt lon="5.730016" lat="50.987214"><ele>14.2</ele><time>2022-06-26T09:02:17.000Z</time></trkpt><trkpt lon="5.730085" lat="50.987275"><ele>14.2</ele><time>2022-06-26T09:02:18.000Z</time></trkpt><trkpt lon="5.73016" lat="50.987336"><ele>14.2</ele><time>2022-06-26T09:02:19.000Z</time></trkpt><trkpt lon="5.730241" lat="50.987397"><ele>14.4</ele><time>2022-06-26T09:02:20.000Z</time></trkpt><trkpt lon="5.730331" lat="50.987455"><ele>14.4</ele><time>2022-06-26T09:02:21.000Z</time></trkpt><trkpt lon="5.730424" lat="50.987508"><ele>14.4</ele><time>2022-06-26T09:02:22.000Z</time></trkpt><trkpt lon="5.730522" lat="50.987558"><ele>14.4</ele><time>2022-06-26T09:02:23.000Z</time></trkpt><trkpt lon="5.73062" lat="50.987611"><ele>14.4</ele><time>2022-06-26T09:02:24.000Z</time></trkpt><trkpt lon="5.730715" lat="50.987664"><ele>14.4</ele><time>2022-06-26T09:02:25.000Z</time></trkpt><trkpt lon="5.730809" lat="50.987718"><ele>14.4</ele><time>2022-06-26T09:02:26.000Z</time></trkpt><trkpt lon="5.730898" lat="50.987771"><ele>14.6</ele><time>2022-06-26T09:02:27.000Z</time></trkpt><trkpt lon="5.730983" lat="50.987821"><ele>14.6</ele><time>2022-06-26T09:02:28.000Z</time></trkpt><trkpt lon="5.731068" lat="50.987874"><ele>14.6</ele><time>2022-06-26T09:02:29.000Z</time></trkpt><trkpt lon="5.731146" lat="50.987931"><ele>14.8</ele><time>2022-06-26T09:02:30.000Z</time></trkpt><trkpt lon="5.731212" lat="50.987996"><ele>14.8</ele><time>2022-06-26T09:02:31.000Z</time></trkpt><trkpt lon="5.731272" lat="50.988061"><ele>14.8</ele><time>2022-06-26T09:02:32.000Z</time></trkpt><trkpt lon="5.731323" lat="50.98813"><ele>14.8</ele><time>2022-06-26T09:02:33.000Z</time></trkpt><trkpt lon="5.731368" lat="50.988207"><ele>14.8</ele><time>2022-06-26T09:02:34.000Z</time></trkpt><trkpt lon="5.731406" lat="50.988279"><ele>14.8</ele><time>2022-06-26T09:02:35.000Z</time></trkpt><trkpt lon="5.731444" lat="50.988351"><ele>14.8</ele><time>2022-06-26T09:02:36.000Z</time></trkpt><trkpt lon="5.731488" lat="50.988428"><ele>14.8</ele><time>2022-06-26T09:02:37.000Z</time></trkpt><trkpt lon="5.731542" lat="50.988496"><ele>14.8</ele><time>2022-06-26T09:02:38.000Z</time></trkpt><trkpt lon="5.731605" lat="50.988557"><ele>14.8</ele><time>2022-06-26T09:02:39.000Z</time></trkpt><trkpt lon="5.731681" lat="50.988611"><ele>14.8</ele><time>2022-06-26T09:02:40.000Z</time></trkpt><trkpt lon="5.731772" lat="50.98866"><ele>14.6</ele><time>2022-06-26T09:02:41.000Z</time></trkpt><trkpt lon="5.731867" lat="50.988698"><ele>14.8</ele><time>2022-06-26T09:02:42.000Z</time></trkpt><trkpt lon="5.731969" lat="50.988728"><ele>14.8</ele><time>2022-06-26T09:02:43.000Z</time></trkpt><trkpt lon="5.732072" lat="50.988751"><ele>14.8</ele><time>2022-06-26T09:02:44.000Z</time></trkpt><trkpt lon="5.732177" lat="50.98877"><ele>14.6</ele><time>2022-06-26T09:02:45.000Z</time></trkpt><trkpt lon="5.732281" lat="50.988785"><ele>14.4</ele><time>2022-06-26T09:02:46.000Z</time></trkpt><trkpt lon="5.732381" lat="50.988796"><ele>14.4</ele><time>2022-06-26T09:02:47.000Z</time></trkpt><trkpt lon="5.732483" lat="50.988804"><ele>14.4</ele><time>2022-06-26T09:02:48.000Z</time></trkpt><trkpt lon="5.732572" lat="50.988812"><ele>14.6</ele><time>2022-06-26T09:02:49.000Z</time></trkpt><trkpt lon="5.732659" lat="50.988816"><ele>14.6</ele><time>2022-06-26T09:02:50.000Z</time></trkpt><trkpt lon="5.732742" lat="50.988823"><ele>14.8</ele><time>2022-06-26T09:02:51.000Z</time></trkpt><trkpt lon="5.732821" lat="50.988835"><ele>14.8</ele><time>2022-06-26T09:02:52.000Z</time></trkpt><trkpt lon="5.732881" lat="50.988858"><ele>15</ele><time>2022-06-26T09:02:53.000Z</time></trkpt><trkpt lon="5.732924" lat="50.988892"><ele>15</ele><time>2022-06-26T09:02:54.000Z</time></trkpt><trkpt lon="5.732952" lat="50.988938"><ele>15.2</ele><time>2022-06-26T09:02:55.000Z</time></trkpt><trkpt lon="5.732967" lat="50.988988"><ele>15.2</ele><time>2022-06-26T09:02:56.000Z</time></trkpt><trkpt lon="5.73297" lat="50.989041"><ele>15.2</ele><time>2022-06-26T09:02:57.000Z</time></trkpt><trkpt lon="5.732967" lat="50.989106"><ele>15.2</ele><time>2022-06-26T09:02:58.000Z</time></trkpt><trkpt lon="5.73297" lat="50.989171"><ele>15.2</ele><time>2022-06-26T09:02:59.000Z</time></trkpt><trkpt lon="5.732964" lat="50.989235"><ele>15.2</ele><time>2022-06-26T09:03:00.000Z</time></trkpt><trkpt lon="5.732951" lat="50.989305"><ele>15.2</ele><time>2022-06-26T09:03:01.000Z</time></trkpt><trkpt lon="5.732938" lat="50.989381"><ele>15.2</ele><time>2022-06-26T09:03:02.000Z</time></trkpt><trkpt lon="5.732935" lat="50.989458"><ele>15.2</ele><time>2022-06-26T09:03:03.000Z</time></trkpt><trkpt lon="5.732935" lat="50.989526"><ele>15</ele><time>2022-06-26T09:03:04.000Z</time></trkpt><trkpt lon="5.732937" lat="50.989595"><ele>15</ele><time>2022-06-26T09:03:05.000Z</time></trkpt><trkpt lon="5.732935" lat="50.989663"><ele>14.8</ele><time>2022-06-26T09:03:06.000Z</time></trkpt><trkpt lon="5.732934" lat="50.989724"><ele>15</ele><time>2022-06-26T09:03:07.000Z</time></trkpt><trkpt lon="5.732937" lat="50.989778"><ele>15</ele><time>2022-06-26T09:03:08.000Z</time></trkpt><trkpt lon="5.732959" lat="50.989827"><ele>15</ele><time>2022-06-26T09:03:09.000Z</time></trkpt><trkpt lon="5.732997" lat="50.989873"><ele>15</ele><time>2022-06-26T09:03:10.000Z</time></trkpt><trkpt lon="5.733062" lat="50.989899"><ele>15</ele><time>2022-06-26T09:03:11.000Z</time></trkpt><trkpt lon="5.733154" lat="50.989918"><ele>15</ele><time>2022-06-26T09:03:12.000Z</time></trkpt><trkpt lon="5.733263" lat="50.989929"><ele>15</ele><time>2022-06-26T09:03:13.000Z</time></trkpt><trkpt lon="5.733376" lat="50.989941"><ele>15</ele><time>2022-06-26T09:03:14.000Z</time></trkpt><trkpt lon="5.733491" lat="50.989948"><ele>15.2</ele><time>2022-06-26T09:03:15.000Z</time></trkpt><trkpt lon="5.733604" lat="50.989952"><ele>15.2</ele><time>2022-06-26T09:03:16.000Z</time></trkpt><trkpt lon="5.73372" lat="50.98996"><ele>15.2</ele><time>2022-06-26T09:03:17.000Z</time></trkpt><trkpt lon="5.733832" lat="50.989964"><ele>15.4</ele><time>2022-06-26T09:03:18.000Z</time></trkpt><trkpt lon="5.73394" lat="50.989968"><ele>15.4</ele><time>2022-06-26T09:03:19.000Z</time></trkpt><trkpt lon="5.734049" lat="50.989975"><ele>15.4</ele><time>2022-06-26T09:03:20.000Z</time></trkpt><trkpt lon="5.734156" lat="50.989975"><ele>15.6</ele><time>2022-06-26T09:03:21.000Z</time></trkpt><trkpt lon="5.734258" lat="50.989979"><ele>15.6</ele><time>2022-06-26T09:03:22.000Z</time></trkpt><trkpt lon="5.734356" lat="50.989979"><ele>15.6</ele><time>2022-06-26T09:03:23.000Z</time></trkpt><trkpt lon="5.734454" lat="50.989983"><ele>15.6</ele><time>2022-06-26T09:03:24.000Z</time></trkpt><trkpt lon="5.734555" lat="50.989983"><ele>15.8</ele><time>2022-06-26T09:03:25.000Z</time></trkpt><trkpt lon="5.734648" lat="50.989979"><ele>15.8</ele><time>2022-06-26T09:03:26.000Z</time></trkpt><trkpt lon="5.734737" lat="50.989975"><ele>15.8</ele><time>2022-06-26T09:03:27.000Z</time></trkpt><trkpt lon="5.734816" lat="50.989967"><ele>15.8</ele><time>2022-06-26T09:03:28.000Z</time></trkpt><trkpt lon="5.734895" lat="50.989964"><ele>16</ele><time>2022-06-26T09:03:29.000Z</time></trkpt><trkpt lon="5.734963" lat="50.989964"><ele>16</ele><time>2022-06-26T09:03:30.000Z</time></trkpt><trkpt lon="5.735025" lat="50.989975"><ele>16</ele><time>2022-06-26T09:03:31.000Z</time></trkpt><trkpt lon="5.735079" lat="50.990002"><ele>16</ele><time>2022-06-26T09:03:32.000Z</time></trkpt><trkpt lon="5.735122" lat="50.99004"><ele>16</ele><time>2022-06-26T09:03:33.000Z</time></trkpt><trkpt lon="5.735135" lat="50.990091"><ele>15.8</ele><time>2022-06-26T09:03:34.000Z</time></trkpt><trkpt lon="5.735135" lat="50.990147"><ele>15.8</ele><time>2022-06-26T09:03:35.000Z</time></trkpt><trkpt lon="5.73514" lat="50.990213"><ele>15.8</ele><time>2022-06-26T09:03:36.000Z</time></trkpt><trkpt lon="5.73515" lat="50.990285"><ele>15.8</ele><time>2022-06-26T09:03:37.000Z</time></trkpt><trkpt lon="5.735162" lat="50.990358"><ele>15.6</ele><time>2022-06-26T09:03:38.000Z</time></trkpt><trkpt lon="5.735172" lat="50.990425"><ele>15.6</ele><time>2022-06-26T09:03:39.000Z</time></trkpt><trkpt lon="5.735183" lat="50.990499"><ele>15.4</ele><time>2022-06-26T09:03:40.000Z</time></trkpt><trkpt lon="5.735192" lat="50.990571"><ele>15.4</ele><time>2022-06-26T09:03:41.000Z</time></trkpt><trkpt lon="5.735199" lat="50.99064"><ele>15.2</ele><time>2022-06-26T09:03:42.000Z</time></trkpt><trkpt lon="5.735209" lat="50.990717"><ele>15.2</ele><time>2022-06-26T09:03:43.000Z</time></trkpt><trkpt lon="5.735215" lat="50.990788"><ele>15.2</ele><time>2022-06-26T09:03:44.000Z</time></trkpt><trkpt lon="5.735232" lat="50.990866"><ele>15</ele><time>2022-06-26T09:03:45.000Z</time></trkpt><trkpt lon="5.735254" lat="50.990942"><ele>15</ele><time>2022-06-26T09:03:46.000Z</time></trkpt><trkpt lon="5.735277" lat="50.991016"><ele>15</ele><time>2022-06-26T09:03:47.000Z</time></trkpt><trkpt lon="5.735307" lat="50.991094"><ele>15</ele><time>2022-06-26T09:03:48.000Z</time></trkpt><trkpt lon="5.735339" lat="50.99117"><ele>14.8</ele><time>2022-06-26T09:03:49.000Z</time></trkpt><trkpt lon="5.735374" lat="50.991243"><ele>14.8</ele><time>2022-06-26T09:03:50.000Z</time></trkpt><trkpt lon="5.735416" lat="50.991316"><ele>14.6</ele><time>2022-06-26T09:03:51.000Z</time></trkpt><trkpt lon="5.735459" lat="50.991392"><ele>14.4</ele><time>2022-06-26T09:03:52.000Z</time></trkpt><trkpt lon="5.735507" lat="50.991464"><ele>14.4</ele><time>2022-06-26T09:03:53.000Z</time></trkpt><trkpt lon="5.735553" lat="50.991537"><ele>14.4</ele><time>2022-06-26T09:03:54.000Z</time></trkpt><trkpt lon="5.735597" lat="50.991601"><ele>14.4</ele><time>2022-06-26T09:03:55.000Z</time></trkpt><trkpt lon="5.735637" lat="50.991666"><ele>14.2</ele><time>2022-06-26T09:03:56.000Z</time></trkpt><trkpt lon="5.735674" lat="50.991731"><ele>14</ele><time>2022-06-26T09:03:57.000Z</time></trkpt><trkpt lon="5.735712" lat="50.991795"><ele>14</ele><time>2022-06-26T09:03:58.000Z</time></trkpt><trkpt lon="5.735747" lat="50.99186"><ele>13.8</ele><time>2022-06-26T09:03:59.000Z</time></trkpt><trkpt lon="5.735782" lat="50.991925"><ele>13.8</ele><time>2022-06-26T09:04:00.000Z</time></trkpt><trkpt lon="5.735819" lat="50.991991"><ele>13.6</ele><time>2022-06-26T09:04:01.000Z</time></trkpt><trkpt lon="5.735851" lat="50.992059"><ele>13.6</ele><time>2022-06-26T09:04:02.000Z</time></trkpt><trkpt lon="5.735884" lat="50.992124"><ele>13.4</ele><time>2022-06-26T09:04:03.000Z</time></trkpt><trkpt lon="5.735913" lat="50.992179"><ele>13.2</ele><time>2022-06-26T09:04:04.000Z</time></trkpt><trkpt lon="5.735945" lat="50.992229"><ele>13.2</ele><time>2022-06-26T09:04:05.000Z</time></trkpt><trkpt lon="5.735984" lat="50.992276"><ele>13</ele><time>2022-06-26T09:04:06.000Z</time></trkpt><trkpt lon="5.736033" lat="50.99231"><ele>13</ele><time>2022-06-26T09:04:07.000Z</time></trkpt><trkpt lon="5.736097" lat="50.992325"><ele>12.8</ele><time>2022-06-26T09:04:08.000Z</time></trkpt><trkpt lon="5.736162" lat="50.992329"><ele>12.8</ele><time>2022-06-26T09:04:09.000Z</time></trkpt><trkpt lon="5.736241" lat="50.992325"><ele>12.8</ele><time>2022-06-26T09:04:10.000Z</time></trkpt><trkpt lon="5.736326" lat="50.992317"><ele>12.8</ele><time>2022-06-26T09:04:11.000Z</time></trkpt><trkpt lon="5.736421" lat="50.992302"><ele>12.6</ele><time>2022-06-26T09:04:12.000Z</time></trkpt><trkpt lon="5.736521" lat="50.992286"><ele>12.6</ele><time>2022-06-26T09:04:13.000Z</time></trkpt><trkpt lon="5.736626" lat="50.992272"><ele>12.6</ele><time>2022-06-26T09:04:14.000Z</time></trkpt><trkpt lon="5.736747" lat="50.992244"><ele>12.6</ele><time>2022-06-26T09:04:15.000Z</time></trkpt><trkpt lon="5.736861" lat="50.992222"><ele>12.4</ele><time>2022-06-26T09:04:16.000Z</time></trkpt><trkpt lon="5.736971" lat="50.992195"><ele>12.2</ele><time>2022-06-26T09:04:17.000Z</time></trkpt><trkpt lon="5.737078" lat="50.992168"><ele>12.2</ele><time>2022-06-26T09:04:18.000Z</time></trkpt><trkpt lon="5.737186" lat="50.992149"><ele>12.2</ele><time>2022-06-26T09:04:19.000Z</time></trkpt><trkpt lon="5.737291" lat="50.99215"><ele>12.2</ele><time>2022-06-26T09:04:20.000Z</time></trkpt><trkpt lon="5.737389" lat="50.992173"><ele>12.2</ele><time>2022-06-26T09:04:21.000Z</time></trkpt><trkpt lon="5.737477" lat="50.992212"><ele>12</ele><time>2022-06-26T09:04:22.000Z</time></trkpt><trkpt lon="5.737555" lat="50.992265"><ele>11.8</ele><time>2022-06-26T09:04:23.000Z</time></trkpt><trkpt lon="5.73763" lat="50.99233"><ele>11.6</ele><time>2022-06-26T09:04:24.000Z</time></trkpt><trkpt lon="5.737701" lat="50.992394"><ele>11.4</ele><time>2022-06-26T09:04:25.000Z</time></trkpt><trkpt lon="5.737773" lat="50.992456"><ele>11.4</ele><time>2022-06-26T09:04:26.000Z</time></trkpt><trkpt lon="5.737845" lat="50.992517"><ele>11.2</ele><time>2022-06-26T09:04:27.000Z</time></trkpt><trkpt lon="5.737916" lat="50.992577"><ele>11.4</ele><time>2022-06-26T09:04:28.000Z</time></trkpt><trkpt lon="5.73799" lat="50.992637"><ele>11.2</ele><time>2022-06-26T09:04:29.000Z</time></trkpt><trkpt lon="5.738074" lat="50.992692"><ele>11.2</ele><time>2022-06-26T09:04:30.000Z</time></trkpt><trkpt lon="5.738154" lat="50.992749"><ele>11</ele><time>2022-06-26T09:04:31.000Z</time></trkpt><trkpt lon="5.738234" lat="50.992811"><ele>10.8</ele><time>2022-06-26T09:04:32.000Z</time></trkpt><trkpt lon="5.738314" lat="50.992868"><ele>10.8</ele><time>2022-06-26T09:04:33.000Z</time></trkpt><trkpt lon="5.73839" lat="50.992921"><ele>11</ele><time>2022-06-26T09:04:34.000Z</time></trkpt><trkpt lon="5.738479" lat="50.992986"><ele>11</ele><time>2022-06-26T09:04:35.000Z</time></trkpt><trkpt lon="5.738564" lat="50.993047"><ele>10.8</ele><time>2022-06-26T09:04:36.000Z</time></trkpt><trkpt lon="5.738652" lat="50.993108"><ele>10.6</ele><time>2022-06-26T09:04:37.000Z</time></trkpt><trkpt lon="5.738741" lat="50.993173"><ele>10.4</ele><time>2022-06-26T09:04:38.000Z</time></trkpt><trkpt lon="5.738829" lat="50.993234"><ele>10.2</ele><time>2022-06-26T09:04:39.000Z</time></trkpt><trkpt lon="5.738916" lat="50.993299"><ele>10.2</ele><time>2022-06-26T09:04:40.000Z</time></trkpt><trkpt lon="5.739" lat="50.99336"><ele>10.2</ele><time>2022-06-26T09:04:41.000Z</time></trkpt><trkpt lon="5.73908" lat="50.993425"><ele>10.2</ele><time>2022-06-26T09:04:42.000Z</time></trkpt><trkpt lon="5.739163" lat="50.993488"><ele>10.2</ele><time>2022-06-26T09:04:43.000Z</time></trkpt><trkpt lon="5.739249" lat="50.993551"><ele>10.2</ele><time>2022-06-26T09:04:44.000Z</time></trkpt><trkpt lon="5.739328" lat="50.993615"><ele>10.4</ele><time>2022-06-26T09:04:45.000Z</time></trkpt><trkpt lon="5.739412" lat="50.993681"><ele>10.4</ele><time>2022-06-26T09:04:46.000Z</time></trkpt><trkpt lon="5.739494" lat="50.993742"><ele>10.6</ele><time>2022-06-26T09:04:47.000Z</time></trkpt><trkpt lon="5.739577" lat="50.993799"><ele>10.6</ele><time>2022-06-26T09:04:48.000Z</time></trkpt><trkpt lon="5.739656" lat="50.993859"><ele>10.8</ele><time>2022-06-26T09:04:49.000Z</time></trkpt><trkpt lon="5.739733" lat="50.993917"><ele>10.8</ele><time>2022-06-26T09:04:50.000Z</time></trkpt><trkpt lon="5.739809" lat="50.993978"><ele>11</ele><time>2022-06-26T09:04:51.000Z</time></trkpt><trkpt lon="5.739883" lat="50.994035"><ele>11</ele><time>2022-06-26T09:04:52.000Z</time></trkpt><trkpt lon="5.739957" lat="50.994099"><ele>11</ele><time>2022-06-26T09:04:53.000Z</time></trkpt><trkpt lon="5.740035" lat="50.994165"><ele>11</ele><time>2022-06-26T09:04:54.000Z</time></trkpt><trkpt lon="5.740111" lat="50.994225"><ele>10.8</ele><time>2022-06-26T09:04:55.000Z</time></trkpt><trkpt lon="5.740189" lat="50.994291"><ele>10.6</ele><time>2022-06-26T09:04:56.000Z</time></trkpt><trkpt lon="5.740268" lat="50.994348"><ele>10.8</ele><time>2022-06-26T09:04:57.000Z</time></trkpt><trkpt lon="5.740347" lat="50.994413"><ele>10.8</ele><time>2022-06-26T09:04:58.000Z</time></trkpt><trkpt lon="5.740428" lat="50.994477"><ele>10.8</ele><time>2022-06-26T09:04:59.000Z</time></trkpt><trkpt lon="5.740512" lat="50.994539"><ele>10.8</ele><time>2022-06-26T09:05:00.000Z</time></trkpt><trkpt lon="5.740592" lat="50.9946"><ele>11</ele><time>2022-06-26T09:05:01.000Z</time></trkpt><trkpt lon="5.740673" lat="50.994665"><ele>11</ele><time>2022-06-26T09:05:02.000Z</time></trkpt><trkpt lon="5.740752" lat="50.994726"><ele>11</ele><time>2022-06-26T09:05:03.000Z</time></trkpt><trkpt lon="5.74083" lat="50.994786"><ele>11.2</ele><time>2022-06-26T09:05:04.000Z</time></trkpt><trkpt lon="5.740908" lat="50.994847"><ele>11.4</ele><time>2022-06-26T09:05:05.000Z</time></trkpt><trkpt lon="5.740987" lat="50.994909"><ele>11.4</ele><time>2022-06-26T09:05:06.000Z</time></trkpt><trkpt lon="5.741068" lat="50.994969"><ele>11.6</ele><time>2022-06-26T09:05:07.000Z</time></trkpt><trkpt lon="5.741148" lat="50.995031"><ele>11.8</ele><time>2022-06-26T09:05:08.000Z</time></trkpt><trkpt lon="5.741228" lat="50.995088"><ele>11.8</ele><time>2022-06-26T09:05:09.000Z</time></trkpt><trkpt lon="5.741307" lat="50.995151"><ele>12</ele><time>2022-06-26T09:05:10.000Z</time></trkpt><trkpt lon="5.741385" lat="50.995213"><ele>12</ele><time>2022-06-26T09:05:11.000Z</time></trkpt><trkpt lon="5.741464" lat="50.995274"><ele>12</ele><time>2022-06-26T09:05:12.000Z</time></trkpt><trkpt lon="5.741541" lat="50.995336"><ele>12</ele><time>2022-06-26T09:05:13.000Z</time></trkpt><trkpt lon="5.741616" lat="50.995397"><ele>12</ele><time>2022-06-26T09:05:14.000Z</time></trkpt><trkpt lon="5.741689" lat="50.995454"><ele>12</ele><time>2022-06-26T09:05:15.000Z</time></trkpt><trkpt lon="5.741767" lat="50.995515"><ele>12</ele><time>2022-06-26T09:05:16.000Z</time></trkpt><trkpt lon="5.741834" lat="50.995572"><ele>12</ele><time>2022-06-26T09:05:17.000Z</time></trkpt><trkpt lon="5.741899" lat="50.995634"><ele>12</ele><time>2022-06-26T09:05:18.000Z</time></trkpt><trkpt lon="5.741972" lat="50.995691"><ele>12</ele><time>2022-06-26T09:05:19.000Z</time></trkpt><trkpt lon="5.74205" lat="50.995748"><ele>12</ele><time>2022-06-26T09:05:20.000Z</time></trkpt><trkpt lon="5.74213" lat="50.995805"><ele>12</ele><time>2022-06-26T09:05:21.000Z</time></trkpt><trkpt lon="5.742212" lat="50.995862"><ele>11.8</ele><time>2022-06-26T09:05:22.000Z</time></trkpt><trkpt lon="5.742295" lat="50.99592"><ele>11.8</ele><time>2022-06-26T09:05:23.000Z</time></trkpt><trkpt lon="5.742377" lat="50.995985"><ele>12</ele><time>2022-06-26T09:05:24.000Z</time></trkpt><trkpt lon="5.74246" lat="50.996045"><ele>12.2</ele><time>2022-06-26T09:05:25.000Z</time></trkpt><trkpt lon="5.742544" lat="50.996107"><ele>12.2</ele><time>2022-06-26T09:05:26.000Z</time></trkpt><trkpt lon="5.742624" lat="50.996171"><ele>12.2</ele><time>2022-06-26T09:05:27.000Z</time></trkpt><trkpt lon="5.742705" lat="50.996233"><ele>12.4</ele><time>2022-06-26T09:05:28.000Z</time></trkpt><trkpt lon="5.742787" lat="50.996297"><ele>12.2</ele><time>2022-06-26T09:05:29.000Z</time></trkpt><trkpt lon="5.742867" lat="50.996358"><ele>12.2</ele><time>2022-06-26T09:05:30.000Z</time></trkpt><trkpt lon="5.742945" lat="50.996423"><ele>12.2</ele><time>2022-06-26T09:05:31.000Z</time></trkpt><trkpt lon="5.743019" lat="50.996483"><ele>12.2</ele><time>2022-06-26T09:05:32.000Z</time></trkpt><trkpt lon="5.743095" lat="50.99654"><ele>12.2</ele><time>2022-06-26T09:05:33.000Z</time></trkpt><trkpt lon="5.743171" lat="50.996593"><ele>12.2</ele><time>2022-06-26T09:05:34.000Z</time></trkpt><trkpt lon="5.743247" lat="50.996652"><ele>12.2</ele><time>2022-06-26T09:05:35.000Z</time></trkpt><trkpt lon="5.743321" lat="50.996709"><ele>12.2</ele><time>2022-06-26T09:05:36.000Z</time></trkpt><trkpt lon="5.743398" lat="50.996766"><ele>12.2</ele><time>2022-06-26T09:05:37.000Z</time></trkpt><trkpt lon="5.743475" lat="50.996827"><ele>12.4</ele><time>2022-06-26T09:05:38.000Z</time></trkpt><trkpt lon="5.743556" lat="50.996884"><ele>12.4</ele><time>2022-06-26T09:05:39.000Z</time></trkpt><trkpt lon="5.743633" lat="50.996942"><ele>12.2</ele><time>2022-06-26T09:05:40.000Z</time></trkpt><trkpt lon="5.743708" lat="50.997003"><ele>12.2</ele><time>2022-06-26T09:05:41.000Z</time></trkpt><trkpt lon="5.743783" lat="50.99706"><ele>12.2</ele><time>2022-06-26T09:05:42.000Z</time></trkpt><trkpt lon="5.743855" lat="50.997117"><ele>12.4</ele><time>2022-06-26T09:05:43.000Z</time></trkpt><trkpt lon="5.743921" lat="50.997169"><ele>12.2</ele><time>2022-06-26T09:05:44.000Z</time></trkpt><trkpt lon="5.743988" lat="50.997228"><ele>12.2</ele><time>2022-06-26T09:05:45.000Z</time></trkpt><trkpt lon="5.744051" lat="50.997281"><ele>12.2</ele><time>2022-06-26T09:05:46.000Z</time></trkpt><trkpt lon="5.744105" lat="50.997322"><ele>12.4</ele><time>2022-06-26T09:05:47.000Z</time></trkpt><trkpt lon="5.744156" lat="50.997359"><ele>12.4</ele><time>2022-06-26T09:05:48.000Z</time></trkpt><trkpt lon="5.744216" lat="50.997391"><ele>12.2</ele><time>2022-06-26T09:05:49.000Z</time></trkpt><trkpt lon="5.744285" lat="50.997414"><ele>12.2</ele><time>2022-06-26T09:05:50.000Z</time></trkpt><trkpt lon="5.744362" lat="50.997429"><ele>12</ele><time>2022-06-26T09:05:51.000Z</time></trkpt><trkpt lon="5.74445" lat="50.997429"><ele>12</ele><time>2022-06-26T09:05:52.000Z</time></trkpt><trkpt lon="5.74454" lat="50.997413"><ele>12</ele><time>2022-06-26T09:05:53.000Z</time></trkpt><trkpt lon="5.744639" lat="50.99739"><ele>11.8</ele><time>2022-06-26T09:05:54.000Z</time></trkpt><trkpt lon="5.744746" lat="50.99736"><ele>11.8</ele><time>2022-06-26T09:05:55.000Z</time></trkpt><trkpt lon="5.744858" lat="50.997333"><ele>11.6</ele><time>2022-06-26T09:05:56.000Z</time></trkpt><trkpt lon="5.744972" lat="50.997303"><ele>11.6</ele><time>2022-06-26T09:05:57.000Z</time></trkpt><trkpt lon="5.745089" lat="50.99728"><ele>11.4</ele><time>2022-06-26T09:05:58.000Z</time></trkpt><trkpt lon="5.745208" lat="50.997273"><ele>11.4</ele><time>2022-06-26T09:05:59.000Z</time></trkpt><trkpt lon="5.745328" lat="50.997277"><ele>11.2</ele><time>2022-06-26T09:06:00.000Z</time></trkpt><trkpt lon="5.74545" lat="50.997292"><ele>11.2</ele><time>2022-06-26T09:06:01.000Z</time></trkpt><trkpt lon="5.745572" lat="50.997315"><ele>11</ele><time>2022-06-26T09:06:02.000Z</time></trkpt><trkpt lon="5.745689" lat="50.997338"><ele>11</ele><time>2022-06-26T09:06:03.000Z</time></trkpt><trkpt lon="5.745805" lat="50.997364"><ele>10.8</ele><time>2022-06-26T09:06:04.000Z</time></trkpt><trkpt lon="5.745921" lat="50.997383"><ele>10.8</ele><time>2022-06-26T09:06:05.000Z</time></trkpt><trkpt lon="5.746041" lat="50.997407"><ele>10.8</ele><time>2022-06-26T09:06:06.000Z</time></trkpt><trkpt lon="5.746156" lat="50.997425"><ele>10.8</ele><time>2022-06-26T09:06:07.000Z</time></trkpt><trkpt lon="5.746272" lat="50.997448"><ele>10.8</ele><time>2022-06-26T09:06:08.000Z</time></trkpt><trkpt lon="5.746383" lat="50.997475"><ele>10.6</ele><time>2022-06-26T09:06:09.000Z</time></trkpt><trkpt lon="5.746495" lat="50.997498"><ele>10.6</ele><time>2022-06-26T09:06:10.000Z</time></trkpt><trkpt lon="5.746607" lat="50.997525"><ele>10.6</ele><time>2022-06-26T09:06:11.000Z</time></trkpt><trkpt lon="5.746721" lat="50.997551"><ele>10.6</ele><time>2022-06-26T09:06:12.000Z</time></trkpt><trkpt lon="5.746833" lat="50.997574"><ele>10.6</ele><time>2022-06-26T09:06:13.000Z</time></trkpt><trkpt lon="5.746944" lat="50.997601"><ele>10.6</ele><time>2022-06-26T09:06:14.000Z</time></trkpt><trkpt lon="5.747055" lat="50.997624"><ele>10.6</ele><time>2022-06-26T09:06:15.000Z</time></trkpt><trkpt lon="5.747163" lat="50.99765"><ele>10.8</ele><time>2022-06-26T09:06:16.000Z</time></trkpt><trkpt lon="5.747262" lat="50.997673"><ele>11</ele><time>2022-06-26T09:06:17.000Z</time></trkpt><trkpt lon="5.747363" lat="50.9977"><ele>11</ele><time>2022-06-26T09:06:18.000Z</time></trkpt><trkpt lon="5.74745" lat="50.997727"><ele>11.2</ele><time>2022-06-26T09:06:19.000Z</time></trkpt><trkpt lon="5.747514" lat="50.997769"><ele>11.2</ele><time>2022-06-26T09:06:20.000Z</time></trkpt><trkpt lon="5.747557" lat="50.997815"><ele>11.2</ele><time>2022-06-26T09:06:21.000Z</time></trkpt><trkpt lon="5.747578" lat="50.997877"><ele>11.2</ele><time>2022-06-26T09:06:22.000Z</time></trkpt><trkpt lon="5.747573" lat="50.997953"><ele>11.2</ele><time>2022-06-26T09:06:23.000Z</time></trkpt><trkpt lon="5.74757" lat="50.998033"><ele>11.2</ele><time>2022-06-26T09:06:24.000Z</time></trkpt><trkpt lon="5.747565" lat="50.998109"><ele>11.2</ele><time>2022-06-26T09:06:25.000Z</time></trkpt><trkpt lon="5.747565" lat="50.998194"><ele>11.2</ele><time>2022-06-26T09:06:26.000Z</time></trkpt><trkpt lon="5.747578" lat="50.998278"><ele>11.4</ele><time>2022-06-26T09:06:27.000Z</time></trkpt><trkpt lon="5.747588" lat="50.998357"><ele>11.4</ele><time>2022-06-26T09:06:28.000Z</time></trkpt><trkpt lon="5.7476" lat="50.99844"><ele>11.4</ele><time>2022-06-26T09:06:29.000Z</time></trkpt><trkpt lon="5.747608" lat="50.998518"><ele>11.6</ele><time>2022-06-26T09:06:30.000Z</time></trkpt><trkpt lon="5.747618" lat="50.998594"><ele>11.6</ele><time>2022-06-26T09:06:31.000Z</time></trkpt><trkpt lon="5.747628" lat="50.998667"><ele>11.8</ele><time>2022-06-26T09:06:32.000Z</time></trkpt><trkpt lon="5.747637" lat="50.998739"><ele>11.8</ele><time>2022-06-26T09:06:33.000Z</time></trkpt><trkpt lon="5.747651" lat="50.998819"><ele>11.8</ele><time>2022-06-26T09:06:34.000Z</time></trkpt><trkpt lon="5.747669" lat="50.998895"><ele>11.8</ele><time>2022-06-26T09:06:35.000Z</time></trkpt><trkpt lon="5.747682" lat="50.998967"><ele>11.8</ele><time>2022-06-26T09:06:36.000Z</time></trkpt><trkpt lon="5.747697" lat="50.99904"><ele>11.8</ele><time>2022-06-26T09:06:37.000Z</time></trkpt><trkpt lon="5.747709" lat="50.999113"><ele>11.8</ele><time>2022-06-26T09:06:38.000Z</time></trkpt><trkpt lon="5.747722" lat="50.999177"><ele>12</ele><time>2022-06-26T09:06:39.000Z</time></trkpt><trkpt lon="5.747735" lat="50.999238"><ele>12</ele><time>2022-06-26T09:06:40.000Z</time></trkpt><trkpt lon="5.747747" lat="50.999299"><ele>12</ele><time>2022-06-26T09:06:41.000Z</time></trkpt><trkpt lon="5.747755" lat="50.999352"><ele>12</ele><time>2022-06-26T09:06:42.000Z</time></trkpt><trkpt lon="5.747769" lat="50.999406"><ele>12.2</ele><time>2022-06-26T09:06:43.000Z</time></trkpt><trkpt lon="5.74778" lat="50.999463"><ele>12.2</ele><time>2022-06-26T09:06:44.000Z</time></trkpt><trkpt lon="5.747793" lat="50.999516"><ele>12.2</ele><time>2022-06-26T09:06:45.000Z</time></trkpt><trkpt lon="5.74781" lat="50.999574"><ele>12</ele><time>2022-06-26T09:06:46.000Z</time></trkpt><trkpt lon="5.747829" lat="50.999638"><ele>12</ele><time>2022-06-26T09:06:47.000Z</time></trkpt><trkpt lon="5.74785" lat="50.999708"><ele>12</ele><time>2022-06-26T09:06:48.000Z</time></trkpt><trkpt lon="5.747865" lat="50.999777"><ele>12</ele><time>2022-06-26T09:06:49.000Z</time></trkpt><trkpt lon="5.747875" lat="50.999853"><ele>11.8</ele><time>2022-06-26T09:06:50.000Z</time></trkpt><trkpt lon="5.747883" lat="50.999932"><ele>11.6</ele><time>2022-06-26T09:06:51.000Z</time></trkpt><trkpt lon="5.74789" lat="51.000013"><ele>11.4</ele><time>2022-06-26T09:06:52.000Z</time></trkpt><trkpt lon="5.747895" lat="51.000096"><ele>11.4</ele><time>2022-06-26T09:06:53.000Z</time></trkpt><trkpt lon="5.7479" lat="51.000185"><ele>11.4</ele><time>2022-06-26T09:06:54.000Z</time></trkpt><trkpt lon="5.747905" lat="51.000264"><ele>11.2</ele><time>2022-06-26T09:06:55.000Z</time></trkpt><trkpt lon="5.74791" lat="51.000345"><ele>11.2</ele><time>2022-06-26T09:06:56.000Z</time></trkpt><trkpt lon="5.747913" lat="51.000425"><ele>11</ele><time>2022-06-26T09:06:57.000Z</time></trkpt><trkpt lon="5.747917" lat="51.000505"><ele>11</ele><time>2022-06-26T09:06:58.000Z</time></trkpt><trkpt lon="5.74792" lat="51.000581"><ele>10.8</ele><time>2022-06-26T09:06:59.000Z</time></trkpt><trkpt lon="5.747925" lat="51.000659"><ele>10.8</ele><time>2022-06-26T09:07:00.000Z</time></trkpt><trkpt lon="5.747928" lat="51.000738"><ele>10.6</ele><time>2022-06-26T09:07:01.000Z</time></trkpt><trkpt lon="5.747932" lat="51.00081"><ele>10.6</ele><time>2022-06-26T09:07:02.000Z</time></trkpt><trkpt lon="5.747938" lat="51.000879"><ele>10.6</ele><time>2022-06-26T09:07:03.000Z</time></trkpt><trkpt lon="5.747945" lat="51.000951"><ele>10.6</ele><time>2022-06-26T09:07:04.000Z</time></trkpt><trkpt lon="5.74795" lat="51.00102"><ele>10.4</ele><time>2022-06-26T09:07:05.000Z</time></trkpt><trkpt lon="5.747955" lat="51.001086"><ele>10.4</ele><time>2022-06-26T09:07:06.000Z</time></trkpt><trkpt lon="5.747953" lat="51.001164"><ele>10.2</ele><time>2022-06-26T09:07:07.000Z</time></trkpt><trkpt lon="5.747958" lat="51.001241"><ele>10.2</ele><time>2022-06-26T09:07:08.000Z</time></trkpt><trkpt lon="5.747963" lat="51.001318"><ele>10</ele><time>2022-06-26T09:07:09.000Z</time></trkpt><trkpt lon="5.747965" lat="51.001403"><ele>9.8</ele><time>2022-06-26T09:07:10.000Z</time></trkpt><trkpt lon="5.747965" lat="51.001487"><ele>9.8</ele><time>2022-06-26T09:07:11.000Z</time></trkpt><trkpt lon="5.747962" lat="51.00157"><ele>9.6</ele><time>2022-06-26T09:07:12.000Z</time></trkpt><trkpt lon="5.74796" lat="51.001651"><ele>9.6</ele><time>2022-06-26T09:07:13.000Z</time></trkpt><trkpt lon="5.747961" lat="51.001738"><ele>9.6</ele><time>2022-06-26T09:07:14.000Z</time></trkpt><trkpt lon="5.747955" lat="51.001825"><ele>9.4</ele><time>2022-06-26T09:07:15.000Z</time></trkpt><trkpt lon="5.74795" lat="51.001905"><ele>9.4</ele><time>2022-06-26T09:07:16.000Z</time></trkpt><trkpt lon="5.747945" lat="51.001993"><ele>9.4</ele><time>2022-06-26T09:07:17.000Z</time></trkpt><trkpt lon="5.747938" lat="51.002078"><ele>9.2</ele><time>2022-06-26T09:07:18.000Z</time></trkpt><trkpt lon="5.747921" lat="51.002157"><ele>9</ele><time>2022-06-26T09:07:19.000Z</time></trkpt><trkpt lon="5.747892" lat="51.002233"><ele>8.8</ele><time>2022-06-26T09:07:20.000Z</time></trkpt><trkpt lon="5.747849" lat="51.002313"><ele>8.8</ele><time>2022-06-26T09:07:21.000Z</time></trkpt><trkpt lon="5.747797" lat="51.002388"><ele>8.8</ele><time>2022-06-26T09:07:22.000Z</time></trkpt><trkpt lon="5.747737" lat="51.00247"><ele>8.8</ele><time>2022-06-26T09:07:23.000Z</time></trkpt><trkpt lon="5.747682" lat="51.00255"><ele>8.8</ele><time>2022-06-26T09:07:24.000Z</time></trkpt><trkpt lon="5.747629" lat="51.002626"><ele>8.8</ele><time>2022-06-26T09:07:25.000Z</time></trkpt><trkpt lon="5.747577" lat="51.002702"><ele>8.8</ele><time>2022-06-26T09:07:26.000Z</time></trkpt><trkpt lon="5.747529" lat="51.002775"><ele>8.8</ele><time>2022-06-26T09:07:27.000Z</time></trkpt><trkpt lon="5.747484" lat="51.002847"><ele>8.8</ele><time>2022-06-26T09:07:28.000Z</time></trkpt><trkpt lon="5.747441" lat="51.002924"><ele>8.6</ele><time>2022-06-26T09:07:29.000Z</time></trkpt><trkpt lon="5.747401" lat="51.003"><ele>8.6</ele><time>2022-06-26T09:07:30.000Z</time></trkpt><trkpt lon="5.747363" lat="51.003079"><ele>8.6</ele><time>2022-06-26T09:07:31.000Z</time></trkpt><trkpt lon="5.747319" lat="51.003145"><ele>8.6</ele><time>2022-06-26T09:07:32.000Z</time></trkpt><trkpt lon="5.74728" lat="51.003213"><ele>8.6</ele><time>2022-06-26T09:07:33.000Z</time></trkpt><trkpt lon="5.747241" lat="51.003281"><ele>8.8</ele><time>2022-06-26T09:07:34.000Z</time></trkpt><trkpt lon="5.747201" lat="51.003351"><ele>9</ele><time>2022-06-26T09:07:35.000Z</time></trkpt><trkpt lon="5.747161" lat="51.003424"><ele>9</ele><time>2022-06-26T09:07:36.000Z</time></trkpt><trkpt lon="5.747122" lat="51.003496"><ele>9.2</ele><time>2022-06-26T09:07:37.000Z</time></trkpt><trkpt lon="5.747089" lat="51.003568"><ele>9.4</ele><time>2022-06-26T09:07:38.000Z</time></trkpt><trkpt lon="5.747058" lat="51.003644"><ele>9.6</ele><time>2022-06-26T09:07:39.000Z</time></trkpt><trkpt lon="5.747033" lat="51.003717"><ele>9.6</ele><time>2022-06-26T09:07:40.000Z</time></trkpt><trkpt lon="5.747011" lat="51.00379"><ele>9.8</ele><time>2022-06-26T09:07:41.000Z</time></trkpt><trkpt lon="5.746992" lat="51.003856"><ele>10</ele><time>2022-06-26T09:07:42.000Z</time></trkpt><trkpt lon="5.74697" lat="51.003931"><ele>10</ele><time>2022-06-26T09:07:43.000Z</time></trkpt><trkpt lon="5.746948" lat="51.004"><ele>10</ele><time>2022-06-26T09:07:44.000Z</time></trkpt><trkpt lon="5.746928" lat="51.004072"><ele>10.2</ele><time>2022-06-26T09:07:45.000Z</time></trkpt><trkpt lon="5.74691" lat="51.004141"><ele>10.2</ele><time>2022-06-26T09:07:46.000Z</time></trkpt><trkpt lon="5.746895" lat="51.004212"><ele>10.2</ele><time>2022-06-26T09:07:47.000Z</time></trkpt><trkpt lon="5.746883" lat="51.004278"><ele>10.2</ele><time>2022-06-26T09:07:48.000Z</time></trkpt><trkpt lon="5.746877" lat="51.004347"><ele>10.2</ele><time>2022-06-26T09:07:49.000Z</time></trkpt><trkpt lon="5.746873" lat="51.00442"><ele>10.4</ele><time>2022-06-26T09:07:50.000Z</time></trkpt><trkpt lon="5.746873" lat="51.0045"><ele>10.4</ele><time>2022-06-26T09:07:51.000Z</time></trkpt><trkpt lon="5.746877" lat="51.004579"><ele>10.4</ele><time>2022-06-26T09:07:52.000Z</time></trkpt><trkpt lon="5.746883" lat="51.004653"><ele>10.6</ele><time>2022-06-26T09:07:53.000Z</time></trkpt><trkpt lon="5.746895" lat="51.004728"><ele>10.6</ele><time>2022-06-26T09:07:54.000Z</time></trkpt><trkpt lon="5.74691" lat="51.004808"><ele>10.4</ele><time>2022-06-26T09:07:55.000Z</time></trkpt><trkpt lon="5.746922" lat="51.004883"><ele>10.6</ele><time>2022-06-26T09:07:56.000Z</time></trkpt><trkpt lon="5.74693" lat="51.004961"><ele>10.6</ele><time>2022-06-26T09:07:57.000Z</time></trkpt><trkpt lon="5.746939" lat="51.005037"><ele>10.8</ele><time>2022-06-26T09:07:58.000Z</time></trkpt><trkpt lon="5.746948" lat="51.005114"><ele>10.8</ele><time>2022-06-26T09:07:59.000Z</time></trkpt><trkpt lon="5.746959" lat="51.00519"><ele>10.8</ele><time>2022-06-26T09:08:00.000Z</time></trkpt><trkpt lon="5.746975" lat="51.005269"><ele>11</ele><time>2022-06-26T09:08:01.000Z</time></trkpt><trkpt lon="5.746996" lat="51.005351"><ele>11.2</ele><time>2022-06-26T09:08:02.000Z</time></trkpt><trkpt lon="5.747022" lat="51.005434"><ele>11.4</ele><time>2022-06-26T09:08:03.000Z</time></trkpt><trkpt lon="5.74705" lat="51.005514"><ele>11.4</ele><time>2022-06-26T09:08:04.000Z</time></trkpt><trkpt lon="5.747081" lat="51.005594"><ele>11.6</ele><time>2022-06-26T09:08:05.000Z</time></trkpt><trkpt lon="5.747116" lat="51.005673"><ele>11.6</ele><time>2022-06-26T09:08:06.000Z</time></trkpt><trkpt lon="5.747149" lat="51.005754"><ele>11.6</ele><time>2022-06-26T09:08:07.000Z</time></trkpt><trkpt lon="5.74719" lat="51.005831"><ele>11.6</ele><time>2022-06-26T09:08:08.000Z</time></trkpt><trkpt lon="5.747229" lat="51.005907"><ele>11.6</ele><time>2022-06-26T09:08:09.000Z</time></trkpt><trkpt lon="5.747269" lat="51.005983"><ele>11.6</ele><time>2022-06-26T09:08:10.000Z</time></trkpt><trkpt lon="5.747308" lat="51.006063"><ele>11.4</ele><time>2022-06-26T09:08:11.000Z</time></trkpt><trkpt lon="5.747344" lat="51.00614"><ele>11.4</ele><time>2022-06-26T09:08:12.000Z</time></trkpt><trkpt lon="5.74738" lat="51.006215"><ele>11.4</ele><time>2022-06-26T09:08:13.000Z</time></trkpt><trkpt lon="5.747416" lat="51.006289"><ele>11.4</ele><time>2022-06-26T09:08:14.000Z</time></trkpt><trkpt lon="5.747457" lat="51.006368"><ele>11.2</ele><time>2022-06-26T09:08:15.000Z</time></trkpt><trkpt lon="5.747497" lat="51.006445"><ele>11.2</ele><time>2022-06-26T09:08:16.000Z</time></trkpt><trkpt lon="5.74753" lat="51.00652"><ele>11.2</ele><time>2022-06-26T09:08:17.000Z</time></trkpt><trkpt lon="5.747564" lat="51.006596"><ele>11</ele><time>2022-06-26T09:08:18.000Z</time></trkpt><trkpt lon="5.747595" lat="51.006673"><ele>11.2</ele><time>2022-06-26T09:08:19.000Z</time></trkpt><trkpt lon="5.747625" lat="51.00675"><ele>11.2</ele><time>2022-06-26T09:08:20.000Z</time></trkpt><trkpt lon="5.747654" lat="51.00683"><ele>11.4</ele><time>2022-06-26T09:08:21.000Z</time></trkpt><trkpt lon="5.747684" lat="51.006909"><ele>11.4</ele><time>2022-06-26T09:08:22.000Z</time></trkpt><trkpt lon="5.747716" lat="51.006986"><ele>11.4</ele><time>2022-06-26T09:08:23.000Z</time></trkpt><trkpt lon="5.747751" lat="51.007062"><ele>11.4</ele><time>2022-06-26T09:08:24.000Z</time></trkpt><trkpt lon="5.747789" lat="51.007138"><ele>11.4</ele><time>2022-06-26T09:08:25.000Z</time></trkpt><trkpt lon="5.747832" lat="51.007214"><ele>11.4</ele><time>2022-06-26T09:08:26.000Z</time></trkpt><trkpt lon="5.747883" lat="51.007288"><ele>11.4</ele><time>2022-06-26T09:08:27.000Z</time></trkpt><trkpt lon="5.747939" lat="51.00736"><ele>11.4</ele><time>2022-06-26T09:08:28.000Z</time></trkpt><trkpt lon="5.748003" lat="51.007429"><ele>11.4</ele><time>2022-06-26T09:08:29.000Z</time></trkpt><trkpt lon="5.748069" lat="51.007498"><ele>11.4</ele><time>2022-06-26T09:08:30.000Z</time></trkpt><trkpt lon="5.74814" lat="51.007562"><ele>11.6</ele><time>2022-06-26T09:08:31.000Z</time></trkpt><trkpt lon="5.748217" lat="51.007627"><ele>11.6</ele><time>2022-06-26T09:08:32.000Z</time></trkpt><trkpt lon="5.748292" lat="51.00769"><ele>11.4</ele><time>2022-06-26T09:08:33.000Z</time></trkpt><trkpt lon="5.748367" lat="51.007759"><ele>11.4</ele><time>2022-06-26T09:08:34.000Z</time></trkpt><trkpt lon="5.748437" lat="51.007829"><ele>11.6</ele><time>2022-06-26T09:08:35.000Z</time></trkpt><trkpt lon="5.7485" lat="51.007902"><ele>11.6</ele><time>2022-06-26T09:08:36.000Z</time></trkpt><trkpt lon="5.748554" lat="51.007973"><ele>11.4</ele><time>2022-06-26T09:08:37.000Z</time></trkpt><trkpt lon="5.748602" lat="51.008047"><ele>11.4</ele><time>2022-06-26T09:08:38.000Z</time></trkpt><trkpt lon="5.748642" lat="51.00812"><ele>11.2</ele><time>2022-06-26T09:08:39.000Z</time></trkpt><trkpt lon="5.748677" lat="51.008191"><ele>11.2</ele><time>2022-06-26T09:08:40.000Z</time></trkpt><trkpt lon="5.748701" lat="51.008272"><ele>11.2</ele><time>2022-06-26T09:08:41.000Z</time></trkpt><trkpt lon="5.748724" lat="51.008348"><ele>11.2</ele><time>2022-06-26T09:08:42.000Z</time></trkpt><trkpt lon="5.748745" lat="51.008428"><ele>11.2</ele><time>2022-06-26T09:08:43.000Z</time></trkpt><trkpt lon="5.748762" lat="51.008509"><ele>11.2</ele><time>2022-06-26T09:08:44.000Z</time></trkpt><trkpt lon="5.748777" lat="51.008589"><ele>11.2</ele><time>2022-06-26T09:08:45.000Z</time></trkpt><trkpt lon="5.748794" lat="51.008665"><ele>11.2</ele><time>2022-06-26T09:08:46.000Z</time></trkpt><trkpt lon="5.748809" lat="51.008744"><ele>11.4</ele><time>2022-06-26T09:08:47.000Z</time></trkpt><trkpt lon="5.748826" lat="51.008825"><ele>11.4</ele><time>2022-06-26T09:08:48.000Z</time></trkpt><trkpt lon="5.748852" lat="51.008904"><ele>11.6</ele><time>2022-06-26T09:08:49.000Z</time></trkpt><trkpt lon="5.748886" lat="51.008989"><ele>11.6</ele><time>2022-06-26T09:08:50.000Z</time></trkpt><trkpt lon="5.748926" lat="51.00907"><ele>11.6</ele><time>2022-06-26T09:08:51.000Z</time></trkpt><trkpt lon="5.748969" lat="51.009149"><ele>11.8</ele><time>2022-06-26T09:08:52.000Z</time></trkpt><trkpt lon="5.749014" lat="51.009229"><ele>11.8</ele><time>2022-06-26T09:08:53.000Z</time></trkpt><trkpt lon="5.749054" lat="51.009306"><ele>11.8</ele><time>2022-06-26T09:08:54.000Z</time></trkpt><trkpt lon="5.749092" lat="51.009381"><ele>11.8</ele><time>2022-06-26T09:08:55.000Z</time></trkpt><trkpt lon="5.749126" lat="51.009458"><ele>11.8</ele><time>2022-06-26T09:08:56.000Z</time></trkpt><trkpt lon="5.749157" lat="51.009538"><ele>11.8</ele><time>2022-06-26T09:08:57.000Z</time></trkpt><trkpt lon="5.749187" lat="51.009615"><ele>11.6</ele><time>2022-06-26T09:08:58.000Z</time></trkpt><trkpt lon="5.749217" lat="51.009695"><ele>11.6</ele><time>2022-06-26T09:08:59.000Z</time></trkpt><trkpt lon="5.749244" lat="51.009771"><ele>11.4</ele><time>2022-06-26T09:09:00.000Z</time></trkpt><trkpt lon="5.74927" lat="51.00985"><ele>11.4</ele><time>2022-06-26T09:09:01.000Z</time></trkpt><trkpt lon="5.749298" lat="51.009929"><ele>11.2</ele><time>2022-06-26T09:09:02.000Z</time></trkpt><trkpt lon="5.749329" lat="51.010008"><ele>11.4</ele><time>2022-06-26T09:09:03.000Z</time></trkpt><trkpt lon="5.749358" lat="51.010084"><ele>11.6</ele><time>2022-06-26T09:09:04.000Z</time></trkpt><trkpt lon="5.749387" lat="51.01016"><ele>11.8</ele><time>2022-06-26T09:09:05.000Z</time></trkpt><trkpt lon="5.749416" lat="51.010237"><ele>11.8</ele><time>2022-06-26T09:09:06.000Z</time></trkpt><trkpt lon="5.749442" lat="51.010312"><ele>12</ele><time>2022-06-26T09:09:07.000Z</time></trkpt><trkpt lon="5.749467" lat="51.010389"><ele>12</ele><time>2022-06-26T09:09:08.000Z</time></trkpt><trkpt lon="5.74949" lat="51.010465"><ele>12.2</ele><time>2022-06-26T09:09:09.000Z</time></trkpt><trkpt lon="5.74951" lat="51.010541"><ele>12.2</ele><time>2022-06-26T09:09:10.000Z</time></trkpt><trkpt lon="5.749527" lat="51.010624"><ele>12.2</ele><time>2022-06-26T09:09:11.000Z</time></trkpt><trkpt lon="5.749536" lat="51.010703"><ele>12.2</ele><time>2022-06-26T09:09:12.000Z</time></trkpt><trkpt lon="5.749542" lat="51.010789"><ele>12.2</ele><time>2022-06-26T09:09:13.000Z</time></trkpt><trkpt lon="5.749543" lat="51.010868"><ele>12.2</ele><time>2022-06-26T09:09:14.000Z</time></trkpt><trkpt lon="5.749543" lat="51.010953"><ele>12</ele><time>2022-06-26T09:09:15.000Z</time></trkpt><trkpt lon="5.74954" lat="51.011034"><ele>12</ele><time>2022-06-26T09:09:16.000Z</time></trkpt><trkpt lon="5.749535" lat="51.011112"><ele>12</ele><time>2022-06-26T09:09:17.000Z</time></trkpt><trkpt lon="5.749528" lat="51.011198"><ele>12</ele><time>2022-06-26T09:09:18.000Z</time></trkpt><trkpt lon="5.749515" lat="51.011277"><ele>12</ele><time>2022-06-26T09:09:19.000Z</time></trkpt><trkpt lon="5.749496" lat="51.011362"><ele>12</ele><time>2022-06-26T09:09:20.000Z</time></trkpt><trkpt lon="5.749475" lat="51.011442"><ele>11.8</ele><time>2022-06-26T09:09:21.000Z</time></trkpt><trkpt lon="5.749453" lat="51.011526"><ele>11.8</ele><time>2022-06-26T09:09:22.000Z</time></trkpt><trkpt lon="5.749431" lat="51.011605"><ele>11.6</ele><time>2022-06-26T09:09:23.000Z</time></trkpt><trkpt lon="5.749411" lat="51.011686"><ele>11.6</ele><time>2022-06-26T09:09:24.000Z</time></trkpt><trkpt lon="5.749391" lat="51.011765"><ele>11.6</ele><time>2022-06-26T09:09:25.000Z</time></trkpt><trkpt lon="5.749371" lat="51.011846"><ele>11.8</ele><time>2022-06-26T09:09:26.000Z</time></trkpt><trkpt lon="5.749353" lat="51.011927"><ele>11.8</ele><time>2022-06-26T09:09:27.000Z</time></trkpt><trkpt lon="5.749331" lat="51.012007"><ele>11.8</ele><time>2022-06-26T09:09:28.000Z</time></trkpt><trkpt lon="5.749308" lat="51.012086"><ele>11.6</ele><time>2022-06-26T09:09:29.000Z</time></trkpt><trkpt lon="5.749288" lat="51.012166"><ele>11.6</ele><time>2022-06-26T09:09:30.000Z</time></trkpt><trkpt lon="5.74927" lat="51.012243"><ele>11.8</ele><time>2022-06-26T09:09:31.000Z</time></trkpt><trkpt lon="5.749252" lat="51.012319"><ele>11.6</ele><time>2022-06-26T09:09:32.000Z</time></trkpt><trkpt lon="5.749235" lat="51.012396"><ele>11.6</ele><time>2022-06-26T09:09:33.000Z</time></trkpt><trkpt lon="5.749218" lat="51.012476"><ele>11.6</ele><time>2022-06-26T09:09:34.000Z</time></trkpt><trkpt lon="5.7492" lat="51.012556"><ele>11.6</ele><time>2022-06-26T09:09:35.000Z</time></trkpt><trkpt lon="5.749181" lat="51.012636"><ele>11.6</ele><time>2022-06-26T09:09:36.000Z</time></trkpt><trkpt lon="5.749163" lat="51.012716"><ele>11.4</ele><time>2022-06-26T09:09:37.000Z</time></trkpt><trkpt lon="5.749143" lat="51.012797"><ele>11.4</ele><time>2022-06-26T09:09:38.000Z</time></trkpt><trkpt lon="5.749123" lat="51.012877"><ele>11.4</ele><time>2022-06-26T09:09:39.000Z</time></trkpt><trkpt lon="5.749103" lat="51.012956"><ele>11.4</ele><time>2022-06-26T09:09:40.000Z</time></trkpt><trkpt lon="5.749083" lat="51.013035"><ele>11.2</ele><time>2022-06-26T09:09:41.000Z</time></trkpt><trkpt lon="5.749063" lat="51.013116"><ele>11.2</ele><time>2022-06-26T09:09:42.000Z</time></trkpt><trkpt lon="5.749043" lat="51.013197"><ele>11.2</ele><time>2022-06-26T09:09:43.000Z</time></trkpt><trkpt lon="5.749024" lat="51.013277"><ele>11.2</ele><time>2022-06-26T09:09:44.000Z</time></trkpt><trkpt lon="5.749006" lat="51.013354"><ele>11.2</ele><time>2022-06-26T09:09:45.000Z</time></trkpt><trkpt lon="5.748988" lat="51.013433"><ele>11.2</ele><time>2022-06-26T09:09:46.000Z</time></trkpt><trkpt lon="5.748968" lat="51.013513"><ele>11.2</ele><time>2022-06-26T09:09:47.000Z</time></trkpt><trkpt lon="5.748946" lat="51.01359"><ele>11.2</ele><time>2022-06-26T09:09:48.000Z</time></trkpt><trkpt lon="5.748923" lat="51.01367"><ele>11.2</ele><time>2022-06-26T09:09:49.000Z</time></trkpt><trkpt lon="5.748898" lat="51.013746"><ele>11.2</ele><time>2022-06-26T09:09:50.000Z</time></trkpt><trkpt lon="5.748868" lat="51.013822"><ele>11.2</ele><time>2022-06-26T09:09:51.000Z</time></trkpt><trkpt lon="5.748828" lat="51.013897"><ele>11.2</ele><time>2022-06-26T09:09:52.000Z</time></trkpt><trkpt lon="5.748784" lat="51.013974"><ele>11</ele><time>2022-06-26T09:09:53.000Z</time></trkpt><trkpt lon="5.748736" lat="51.014047"><ele>11</ele><time>2022-06-26T09:09:54.000Z</time></trkpt><trkpt lon="5.748684" lat="51.014119"><ele>11</ele><time>2022-06-26T09:09:55.000Z</time></trkpt><trkpt lon="5.748629" lat="51.014196"><ele>10.8</ele><time>2022-06-26T09:09:56.000Z</time></trkpt><trkpt lon="5.748575" lat="51.014269"><ele>10.8</ele><time>2022-06-26T09:09:57.000Z</time></trkpt><trkpt lon="5.748524" lat="51.014341"><ele>10.8</ele><time>2022-06-26T09:09:58.000Z</time></trkpt><trkpt lon="5.748472" lat="51.014413"><ele>10.8</ele><time>2022-06-26T09:09:59.000Z</time></trkpt><trkpt lon="5.748417" lat="51.014486"><ele>10.8</ele><time>2022-06-26T09:10:00.000Z</time></trkpt><trkpt lon="5.748364" lat="51.014562"><ele>10.8</ele><time>2022-06-26T09:10:01.000Z</time></trkpt><trkpt lon="5.748312" lat="51.014635"><ele>10.6</ele><time>2022-06-26T09:10:02.000Z</time></trkpt><trkpt lon="5.748259" lat="51.014711"><ele>10.6</ele><time>2022-06-26T09:10:03.000Z</time></trkpt><trkpt lon="5.748204" lat="51.01478"><ele>10.6</ele><time>2022-06-26T09:10:04.000Z</time></trkpt><trkpt lon="5.748151" lat="51.014852"><ele>10.6</ele><time>2022-06-26T09:10:05.000Z</time></trkpt><trkpt lon="5.748094" lat="51.014924"><ele>10.4</ele><time>2022-06-26T09:10:06.000Z</time></trkpt><trkpt lon="5.748034" lat="51.014993"><ele>10.4</ele><time>2022-06-26T09:10:07.000Z</time></trkpt><trkpt lon="5.747963" lat="51.015062"><ele>10.4</ele><time>2022-06-26T09:10:08.000Z</time></trkpt><trkpt lon="5.747878" lat="51.015127"><ele>10.2</ele><time>2022-06-26T09:10:09.000Z</time></trkpt><trkpt lon="5.747783" lat="51.015187"><ele>10</ele><time>2022-06-26T09:10:10.000Z</time></trkpt><trkpt lon="5.74768" lat="51.015237"><ele>9.8</ele><time>2022-06-26T09:10:11.000Z</time></trkpt><trkpt lon="5.747576" lat="51.015283"><ele>9.8</ele><time>2022-06-26T09:10:12.000Z</time></trkpt><trkpt lon="5.747472" lat="51.015324"><ele>9.8</ele><time>2022-06-26T09:10:13.000Z</time></trkpt><trkpt lon="5.747372" lat="51.01536"><ele>9.8</ele><time>2022-06-26T09:10:14.000Z</time></trkpt><trkpt lon="5.747257" lat="51.015397"><ele>9.8</ele><time>2022-06-26T09:10:15.000Z</time></trkpt><trkpt lon="5.747143" lat="51.015431"><ele>9.8</ele><time>2022-06-26T09:10:16.000Z</time></trkpt><trkpt lon="5.747031" lat="51.015465"><ele>9.8</ele><time>2022-06-26T09:10:17.000Z</time></trkpt><trkpt lon="5.746921" lat="51.015503"><ele>9.8</ele><time>2022-06-26T09:10:18.000Z</time></trkpt><trkpt lon="5.746808" lat="51.015542"><ele>9.8</ele><time>2022-06-26T09:10:19.000Z</time></trkpt><trkpt lon="5.746698" lat="51.01558"><ele>9.8</ele><time>2022-06-26T09:10:20.000Z</time></trkpt><trkpt lon="5.746591" lat="51.015626"><ele>10</ele><time>2022-06-26T09:10:21.000Z</time></trkpt><trkpt lon="5.746491" lat="51.015684"><ele>10</ele><time>2022-06-26T09:10:22.000Z</time></trkpt><trkpt lon="5.746398" lat="51.015741"><ele>10</ele><time>2022-06-26T09:10:23.000Z</time></trkpt><trkpt lon="5.746314" lat="51.015806"><ele>9.8</ele><time>2022-06-26T09:10:24.000Z</time></trkpt><trkpt lon="5.746244" lat="51.015874"><ele>10</ele><time>2022-06-26T09:10:25.000Z</time></trkpt><trkpt lon="5.746182" lat="51.015943"><ele>10</ele><time>2022-06-26T09:10:26.000Z</time></trkpt><trkpt lon="5.746132" lat="51.016016"><ele>9.8</ele><time>2022-06-26T09:10:27.000Z</time></trkpt><trkpt lon="5.746095" lat="51.016088"><ele>9.8</ele><time>2022-06-26T09:10:28.000Z</time></trkpt><trkpt lon="5.746066" lat="51.016165"><ele>10</ele><time>2022-06-26T09:10:29.000Z</time></trkpt><trkpt lon="5.746046" lat="51.016241"><ele>10</ele><time>2022-06-26T09:10:30.000Z</time></trkpt><trkpt lon="5.74603" lat="51.016317"><ele>10</ele><time>2022-06-26T09:10:31.000Z</time></trkpt><trkpt lon="5.746016" lat="51.016393"><ele>10.2</ele><time>2022-06-26T09:10:32.000Z</time></trkpt><trkpt lon="5.746" lat="51.016469"><ele>10.2</ele><time>2022-06-26T09:10:33.000Z</time></trkpt><trkpt lon="5.745984" lat="51.016539"><ele>10.2</ele><time>2022-06-26T09:10:34.000Z</time></trkpt><trkpt lon="5.745961" lat="51.016619"><ele>10.2</ele><time>2022-06-26T09:10:35.000Z</time></trkpt><trkpt lon="5.745941" lat="51.016695"><ele>10.4</ele><time>2022-06-26T09:10:36.000Z</time></trkpt><trkpt lon="5.745921" lat="51.016767"><ele>10.4</ele><time>2022-06-26T09:10:37.000Z</time></trkpt><trkpt lon="5.745905" lat="51.016843"><ele>10.4</ele><time>2022-06-26T09:10:38.000Z</time></trkpt><trkpt lon="5.745886" lat="51.016916"><ele>10.4</ele><time>2022-06-26T09:10:39.000Z</time></trkpt><trkpt lon="5.745868" lat="51.016987"><ele>10.4</ele><time>2022-06-26T09:10:40.000Z</time></trkpt><trkpt lon="5.745853" lat="51.017061"><ele>10.6</ele><time>2022-06-26T09:10:41.000Z</time></trkpt><trkpt lon="5.745836" lat="51.017133"><ele>10.6</ele><time>2022-06-26T09:10:42.000Z</time></trkpt><trkpt lon="5.74582" lat="51.017204"><ele>10.6</ele><time>2022-06-26T09:10:43.000Z</time></trkpt><trkpt lon="5.74581" lat="51.017278"><ele>10.6</ele><time>2022-06-26T09:10:44.000Z</time></trkpt><trkpt lon="5.745794" lat="51.017348"><ele>10.8</ele><time>2022-06-26T09:10:45.000Z</time></trkpt><trkpt lon="5.745771" lat="51.017427"><ele>10.8</ele><time>2022-06-26T09:10:46.000Z</time></trkpt><trkpt lon="5.745745" lat="51.017504"><ele>10.8</ele><time>2022-06-26T09:10:47.000Z</time></trkpt><trkpt lon="5.745719" lat="51.017572"><ele>10.8</ele><time>2022-06-26T09:10:48.000Z</time></trkpt><trkpt lon="5.745688" lat="51.017648"><ele>10.8</ele><time>2022-06-26T09:10:49.000Z</time></trkpt><trkpt lon="5.745656" lat="51.01772"><ele>10.8</ele><time>2022-06-26T09:10:50.000Z</time></trkpt><trkpt lon="5.745619" lat="51.017793"><ele>10.8</ele><time>2022-06-26T09:10:51.000Z</time></trkpt><trkpt lon="5.745582" lat="51.017862"><ele>11</ele><time>2022-06-26T09:10:52.000Z</time></trkpt><trkpt lon="5.745544" lat="51.017935"><ele>11</ele><time>2022-06-26T09:10:53.000Z</time></trkpt><trkpt lon="5.745502" lat="51.018003"><ele>11</ele><time>2022-06-26T09:10:54.000Z</time></trkpt><trkpt lon="5.745454" lat="51.018071"><ele>11</ele><time>2022-06-26T09:10:55.000Z</time></trkpt><trkpt lon="5.745407" lat="51.018137"><ele>11</ele><time>2022-06-26T09:10:56.000Z</time></trkpt><trkpt lon="5.745364" lat="51.018202"><ele>11</ele><time>2022-06-26T09:10:57.000Z</time></trkpt><trkpt lon="5.745322" lat="51.018266"><ele>11.2</ele><time>2022-06-26T09:10:58.000Z</time></trkpt><trkpt lon="5.745282" lat="51.018335"><ele>11.2</ele><time>2022-06-26T09:10:59.000Z</time></trkpt><trkpt lon="5.745244" lat="51.0184"><ele>11.2</ele><time>2022-06-26T09:11:00.000Z</time></trkpt><trkpt lon="5.745218" lat="51.018465"><ele>11.2</ele><time>2022-06-26T09:11:01.000Z</time></trkpt><trkpt lon="5.7452" lat="51.018537"><ele>11.2</ele><time>2022-06-26T09:11:02.000Z</time></trkpt><trkpt lon="5.74519" lat="51.018605"><ele>11.2</ele><time>2022-06-26T09:11:03.000Z</time></trkpt><trkpt lon="5.745188" lat="51.018674"><ele>11.2</ele><time>2022-06-26T09:11:04.000Z</time></trkpt><trkpt lon="5.745194" lat="51.018743"><ele>11.2</ele><time>2022-06-26T09:11:05.000Z</time></trkpt><trkpt lon="5.745202" lat="51.0188"><ele>11.2</ele><time>2022-06-26T09:11:06.000Z</time></trkpt><trkpt lon="5.745212" lat="51.018849"><ele>11.4</ele><time>2022-06-26T09:11:07.000Z</time></trkpt><trkpt lon="5.745218" lat="51.018899"><ele>11.4</ele><time>2022-06-26T09:11:08.000Z</time></trkpt><trkpt lon="5.74522" lat="51.018941"><ele>11.4</ele><time>2022-06-26T09:11:09.000Z</time></trkpt><trkpt lon="5.745213" lat="51.018982"><ele>11.4</ele><time>2022-06-26T09:11:10.000Z</time></trkpt><trkpt lon="5.745187" lat="51.019025"><ele>11.4</ele><time>2022-06-26T09:11:11.000Z</time></trkpt><trkpt lon="5.74514" lat="51.019074"><ele>11.6</ele><time>2022-06-26T09:11:12.000Z</time></trkpt><trkpt lon="5.745074" lat="51.019116"><ele>11.6</ele><time>2022-06-26T09:11:13.000Z</time></trkpt><trkpt lon="5.744995" lat="51.01915"><ele>11.4</ele><time>2022-06-26T09:11:14.000Z</time></trkpt><trkpt lon="5.744908" lat="51.019179"><ele>11.4</ele><time>2022-06-26T09:11:15.000Z</time></trkpt><trkpt lon="5.744802" lat="51.019215"><ele>11.6</ele><time>2022-06-26T09:11:16.000Z</time></trkpt><trkpt lon="5.744696" lat="51.019246"><ele>11.6</ele><time>2022-06-26T09:11:17.000Z</time></trkpt><trkpt lon="5.74459" lat="51.01928"><ele>11.6</ele><time>2022-06-26T09:11:18.000Z</time></trkpt><trkpt lon="5.744485" lat="51.019315"><ele>11.6</ele><time>2022-06-26T09:11:19.000Z</time></trkpt><trkpt lon="5.74438" lat="51.019349"><ele>11.6</ele><time>2022-06-26T09:11:20.000Z</time></trkpt><trkpt lon="5.744279" lat="51.019376"><ele>11.6</ele><time>2022-06-26T09:11:21.000Z</time></trkpt><trkpt lon="5.744179" lat="51.019406"><ele>11.6</ele><time>2022-06-26T09:11:22.000Z</time></trkpt><trkpt lon="5.74408" lat="51.019436"><ele>11.6</ele><time>2022-06-26T09:11:23.000Z</time></trkpt><trkpt lon="5.743982" lat="51.01947"><ele>11.6</ele><time>2022-06-26T09:11:24.000Z</time></trkpt><trkpt lon="5.743887" lat="51.019503"><ele>11.6</ele><time>2022-06-26T09:11:25.000Z</time></trkpt><trkpt lon="5.743776" lat="51.019536"><ele>11.6</ele><time>2022-06-26T09:11:26.000Z</time></trkpt><trkpt lon="5.743673" lat="51.01957"><ele>11.8</ele><time>2022-06-26T09:11:27.000Z</time></trkpt><trkpt lon="5.743571" lat="51.0196"><ele>11.8</ele><time>2022-06-26T09:11:28.000Z</time></trkpt><trkpt lon="5.743473" lat="51.019631"><ele>11.8</ele><time>2022-06-26T09:11:29.000Z</time></trkpt><trkpt lon="5.743376" lat="51.019665"><ele>12</ele><time>2022-06-26T09:11:30.000Z</time></trkpt><trkpt lon="5.743277" lat="51.019696"><ele>12</ele><time>2022-06-26T09:11:31.000Z</time></trkpt><trkpt lon="5.743182" lat="51.019726"><ele>12</ele><time>2022-06-26T09:11:32.000Z</time></trkpt><trkpt lon="5.743092" lat="51.019753"><ele>12</ele><time>2022-06-26T09:11:33.000Z</time></trkpt><trkpt lon="5.743003" lat="51.01978"><ele>12</ele><time>2022-06-26T09:11:34.000Z</time></trkpt><trkpt lon="5.742924" lat="51.019797"><ele>12</ele><time>2022-06-26T09:11:35.000Z</time></trkpt><trkpt lon="5.742835" lat="51.019821"><ele>12</ele><time>2022-06-26T09:11:36.000Z</time></trkpt><trkpt lon="5.742757" lat="51.019833"><ele>12.2</ele><time>2022-06-26T09:11:37.000Z</time></trkpt><trkpt lon="5.742683" lat="51.019852"><ele>12.2</ele><time>2022-06-26T09:11:38.000Z</time></trkpt><trkpt lon="5.742613" lat="51.019868"><ele>12.2</ele><time>2022-06-26T09:11:39.000Z</time></trkpt><trkpt lon="5.742549" lat="51.01989"><ele>12.2</ele><time>2022-06-26T09:11:40.000Z</time></trkpt><trkpt lon="5.742494" lat="51.019916"><ele>12.2</ele><time>2022-06-26T09:11:41.000Z</time></trkpt><trkpt lon="5.742453" lat="51.019952"><ele>12.4</ele><time>2022-06-26T09:11:42.000Z</time></trkpt><trkpt lon="5.742432" lat="51.019982"><ele>12.4</ele><time>2022-06-26T09:11:43.000Z</time></trkpt><trkpt lon="5.742427" lat="51.02001"><ele>12.4</ele><time>2022-06-26T09:11:44.000Z</time></trkpt><trkpt lon="5.742423" lat="51.020043"><ele>12.4</ele><time>2022-06-26T09:11:45.000Z</time></trkpt><trkpt lon="5.742403" lat="51.020073"><ele>12.6</ele><time>2022-06-26T09:11:46.000Z</time></trkpt><trkpt lon="5.742373" lat="51.020096"><ele>12.6</ele><time>2022-06-26T09:11:47.000Z</time></trkpt><trkpt lon="5.742334" lat="51.020127"><ele>12.6</ele><time>2022-06-26T09:11:48.000Z</time></trkpt><trkpt lon="5.742296" lat="51.020161"><ele>12.6</ele><time>2022-06-26T09:11:49.000Z</time></trkpt><trkpt lon="5.742259" lat="51.020192"><ele>12.6</ele><time>2022-06-26T09:11:50.000Z</time></trkpt><trkpt lon="5.742217" lat="51.020231"><ele>12.8</ele><time>2022-06-26T09:11:51.000Z</time></trkpt><trkpt lon="5.742166" lat="51.020272"><ele>12.8</ele><time>2022-06-26T09:11:52.000Z</time></trkpt><trkpt lon="5.742117" lat="51.020304"><ele>12.8</ele><time>2022-06-26T09:11:53.000Z</time></trkpt><trkpt lon="5.742062" lat="51.020337"><ele>12.8</ele><time>2022-06-26T09:11:54.000Z</time></trkpt><trkpt lon="5.742016" lat="51.020361"><ele>12.8</ele><time>2022-06-26T09:11:55.000Z</time></trkpt><trkpt lon="5.741973" lat="51.020394"><ele>12.8</ele><time>2022-06-26T09:11:56.000Z</time></trkpt><trkpt lon="5.741939" lat="51.020423"><ele>12.6</ele><time>2022-06-26T09:11:57.000Z</time></trkpt><trkpt lon="5.741895" lat="51.020466"><ele>12.4</ele><time>2022-06-26T09:11:58.000Z</time></trkpt><trkpt lon="5.741846" lat="51.020509"><ele>12.2</ele><time>2022-06-26T09:11:59.000Z</time></trkpt><trkpt lon="5.741804" lat="51.020555"><ele>12</ele><time>2022-06-26T09:12:00.000Z</time></trkpt><trkpt lon="5.741776" lat="51.020601"><ele>12</ele><time>2022-06-26T09:12:01.000Z</time></trkpt><trkpt lon="5.741765" lat="51.020654"><ele>11.8</ele><time>2022-06-26T09:12:02.000Z</time></trkpt><trkpt lon="5.741767" lat="51.020704"><ele>11.6</ele><time>2022-06-26T09:12:03.000Z</time></trkpt><trkpt lon="5.741789" lat="51.020765"><ele>11.6</ele><time>2022-06-26T09:12:04.000Z</time></trkpt><trkpt lon="5.741831" lat="51.020826"><ele>11.6</ele><time>2022-06-26T09:12:05.000Z</time></trkpt><trkpt lon="5.74188" lat="51.020895"><ele>11.4</ele><time>2022-06-26T09:12:06.000Z</time></trkpt><trkpt lon="5.741929" lat="51.020967"><ele>11.4</ele><time>2022-06-26T09:12:07.000Z</time></trkpt><trkpt lon="5.741977" lat="51.021046"><ele>11.2</ele><time>2022-06-26T09:12:08.000Z</time></trkpt><trkpt lon="5.742024" lat="51.021127"><ele>11.2</ele><time>2022-06-26T09:12:09.000Z</time></trkpt><trkpt lon="5.742076" lat="51.021211"><ele>11</ele><time>2022-06-26T09:12:10.000Z</time></trkpt><trkpt lon="5.742133" lat="51.021288"><ele>11</ele><time>2022-06-26T09:12:11.000Z</time></trkpt><trkpt lon="5.742187" lat="51.021367"><ele>11.2</ele><time>2022-06-26T09:12:12.000Z</time></trkpt><trkpt lon="5.742243" lat="51.02144"><ele>11.2</ele><time>2022-06-26T09:12:13.000Z</time></trkpt><trkpt lon="5.742296" lat="51.021516"><ele>11.2</ele><time>2022-06-26T09:12:14.000Z</time></trkpt><trkpt lon="5.742346" lat="51.021589"><ele>11</ele><time>2022-06-26T09:12:15.000Z</time></trkpt><trkpt lon="5.742398" lat="51.021658"><ele>11</ele><time>2022-06-26T09:12:16.000Z</time></trkpt><trkpt lon="5.742448" lat="51.02173"><ele>10.8</ele><time>2022-06-26T09:12:17.000Z</time></trkpt><trkpt lon="5.742496" lat="51.021796"><ele>10.8</ele><time>2022-06-26T09:12:18.000Z</time></trkpt><trkpt lon="5.742545" lat="51.021866"><ele>10.8</ele><time>2022-06-26T09:12:19.000Z</time></trkpt><trkpt lon="5.742594" lat="51.021935"><ele>10.8</ele><time>2022-06-26T09:12:20.000Z</time></trkpt><trkpt lon="5.742646" lat="51.022005"><ele>10.8</ele><time>2022-06-26T09:12:21.000Z</time></trkpt><trkpt lon="5.742699" lat="51.022073"><ele>10.8</ele><time>2022-06-26T09:12:22.000Z</time></trkpt><trkpt lon="5.742751" lat="51.022142"><ele>10.8</ele><time>2022-06-26T09:12:23.000Z</time></trkpt><trkpt lon="5.742801" lat="51.022212"><ele>10.8</ele><time>2022-06-26T09:12:24.000Z</time></trkpt><trkpt lon="5.742851" lat="51.022283"><ele>10.8</ele><time>2022-06-26T09:12:25.000Z</time></trkpt><trkpt lon="5.742896" lat="51.022348"><ele>10.6</ele><time>2022-06-26T09:12:26.000Z</time></trkpt><trkpt lon="5.742941" lat="51.022417"><ele>10.8</ele><time>2022-06-26T09:12:27.000Z</time></trkpt><trkpt lon="5.742989" lat="51.022481"><ele>10.8</ele><time>2022-06-26T09:12:28.000Z</time></trkpt><trkpt lon="5.743039" lat="51.02255"><ele>10.8</ele><time>2022-06-26T09:12:29.000Z</time></trkpt><trkpt lon="5.743091" lat="51.022615"><ele>11</ele><time>2022-06-26T09:12:30.000Z</time></trkpt><trkpt lon="5.743146" lat="51.02268"><ele>10.8</ele><time>2022-06-26T09:12:31.000Z</time></trkpt><trkpt lon="5.743199" lat="51.022748"><ele>11</ele><time>2022-06-26T09:12:32.000Z</time></trkpt><trkpt lon="5.743253" lat="51.022813"><ele>11</ele><time>2022-06-26T09:12:33.000Z</time></trkpt><trkpt lon="5.743306" lat="51.022881"><ele>10.8</ele><time>2022-06-26T09:12:34.000Z</time></trkpt><trkpt lon="5.743362" lat="51.022954"><ele>10.8</ele><time>2022-06-26T09:12:35.000Z</time></trkpt><trkpt lon="5.743421" lat="51.023019"><ele>10.8</ele><time>2022-06-26T09:12:36.000Z</time></trkpt><trkpt lon="5.743483" lat="51.023088"><ele>10.8</ele><time>2022-06-26T09:12:37.000Z</time></trkpt><trkpt lon="5.743546" lat="51.023153"><ele>10.8</ele><time>2022-06-26T09:12:38.000Z</time></trkpt><trkpt lon="5.743612" lat="51.023222"><ele>10.6</ele><time>2022-06-26T09:12:39.000Z</time></trkpt><trkpt lon="5.743678" lat="51.023282"><ele>10.6</ele><time>2022-06-26T09:12:40.000Z</time></trkpt><trkpt lon="5.743743" lat="51.023339"><ele>10.8</ele><time>2022-06-26T09:12:41.000Z</time></trkpt><trkpt lon="5.74381" lat="51.023401"><ele>10.8</ele><time>2022-06-26T09:12:42.000Z</time></trkpt><trkpt lon="5.743868" lat="51.023453"><ele>10.8</ele><time>2022-06-26T09:12:43.000Z</time></trkpt><trkpt lon="5.743923" lat="51.023499"><ele>10.8</ele><time>2022-06-26T09:12:44.000Z</time></trkpt><trkpt lon="5.743981" lat="51.023549"><ele>10.8</ele><time>2022-06-26T09:12:45.000Z</time></trkpt><trkpt lon="5.744026" lat="51.023595"><ele>11</ele><time>2022-06-26T09:12:46.000Z</time></trkpt><trkpt lon="5.744058" lat="51.02364"><ele>11.2</ele><time>2022-06-26T09:12:47.000Z</time></trkpt><trkpt lon="5.74407" lat="51.023682"><ele>11.2</ele><time>2022-06-26T09:12:48.000Z</time></trkpt><trkpt lon="5.744047" lat="51.02372"><ele>11.4</ele><time>2022-06-26T09:12:49.000Z</time></trkpt><trkpt lon="5.743997" lat="51.023755"><ele>11.4</ele><time>2022-06-26T09:12:50.000Z</time></trkpt><trkpt lon="5.74393" lat="51.023793"><ele>11.4</ele><time>2022-06-26T09:12:51.000Z</time></trkpt><trkpt lon="5.743852" lat="51.023827"><ele>11.4</ele><time>2022-06-26T09:12:52.000Z</time></trkpt><trkpt lon="5.743768" lat="51.023865"><ele>11.4</ele><time>2022-06-26T09:12:53.000Z</time></trkpt><trkpt lon="5.743685" lat="51.023904"><ele>11.2</ele><time>2022-06-26T09:12:54.000Z</time></trkpt><trkpt lon="5.743599" lat="51.023945"><ele>11.2</ele><time>2022-06-26T09:12:55.000Z</time></trkpt><trkpt lon="5.743503" lat="51.023988"><ele>11.2</ele><time>2022-06-26T09:12:56.000Z</time></trkpt><trkpt lon="5.74341" lat="51.024033"><ele>11.2</ele><time>2022-06-26T09:12:57.000Z</time></trkpt><trkpt lon="5.743311" lat="51.02408"><ele>11.2</ele><time>2022-06-26T09:12:58.000Z</time></trkpt><trkpt lon="5.743218" lat="51.024129"><ele>11.2</ele><time>2022-06-26T09:12:59.000Z</time></trkpt><trkpt lon="5.743129" lat="51.024175"><ele>11.2</ele><time>2022-06-26T09:13:00.000Z</time></trkpt><trkpt lon="5.743045" lat="51.024221"><ele>11.2</ele><time>2022-06-26T09:13:01.000Z</time></trkpt><trkpt lon="5.742957" lat="51.024274"><ele>11.2</ele><time>2022-06-26T09:13:02.000Z</time></trkpt><trkpt lon="5.742873" lat="51.024327"><ele>11.2</ele><time>2022-06-26T09:13:03.000Z</time></trkpt><trkpt lon="5.742788" lat="51.024381"><ele>11.2</ele><time>2022-06-26T09:13:04.000Z</time></trkpt><trkpt lon="5.742705" lat="51.024438"><ele>11</ele><time>2022-06-26T09:13:05.000Z</time></trkpt><trkpt lon="5.742624" lat="51.024499"><ele>11</ele><time>2022-06-26T09:13:06.000Z</time></trkpt><trkpt lon="5.742543" lat="51.024564"><ele>11</ele><time>2022-06-26T09:13:07.000Z</time></trkpt><trkpt lon="5.742464" lat="51.024621"><ele>11</ele><time>2022-06-26T09:13:08.000Z</time></trkpt><trkpt lon="5.742386" lat="51.024675"><ele>11</ele><time>2022-06-26T09:13:09.000Z</time></trkpt><trkpt lon="5.742313" lat="51.024732"><ele>11</ele><time>2022-06-26T09:13:10.000Z</time></trkpt><trkpt lon="5.742243" lat="51.024788"><ele>11</ele><time>2022-06-26T09:13:11.000Z</time></trkpt><trkpt lon="5.742172" lat="51.024847"><ele>10.8</ele><time>2022-06-26T09:13:12.000Z</time></trkpt><trkpt lon="5.742099" lat="51.024907"><ele>11</ele><time>2022-06-26T09:13:13.000Z</time></trkpt><trkpt lon="5.742029" lat="51.024965"><ele>11</ele><time>2022-06-26T09:13:14.000Z</time></trkpt><trkpt lon="5.741959" lat="51.025022"><ele>10.8</ele><time>2022-06-26T09:13:15.000Z</time></trkpt><trkpt lon="5.741892" lat="51.025083"><ele>10.8</ele><time>2022-06-26T09:13:16.000Z</time></trkpt><trkpt lon="5.741827" lat="51.025144"><ele>10.8</ele><time>2022-06-26T09:13:17.000Z</time></trkpt><trkpt lon="5.741758" lat="51.025209"><ele>10.6</ele><time>2022-06-26T09:13:18.000Z</time></trkpt><trkpt lon="5.741693" lat="51.025269"><ele>10.6</ele><time>2022-06-26T09:13:19.000Z</time></trkpt><trkpt lon="5.741624" lat="51.025334"><ele>10.6</ele><time>2022-06-26T09:13:20.000Z</time></trkpt><trkpt lon="5.741553" lat="51.0254"><ele>10.6</ele><time>2022-06-26T09:13:21.000Z</time></trkpt><trkpt lon="5.741483" lat="51.025463"><ele>10.6</ele><time>2022-06-26T09:13:22.000Z</time></trkpt><trkpt lon="5.741413" lat="51.025529"><ele>10.8</ele><time>2022-06-26T09:13:23.000Z</time></trkpt><trkpt lon="5.74135" lat="51.02559"><ele>10.8</ele><time>2022-06-26T09:13:24.000Z</time></trkpt><trkpt lon="5.741287" lat="51.02565"><ele>10.8</ele><time>2022-06-26T09:13:25.000Z</time></trkpt><trkpt lon="5.741219" lat="51.025715"><ele>10.8</ele><time>2022-06-26T09:13:26.000Z</time></trkpt><trkpt lon="5.741152" lat="51.025777"><ele>10.8</ele><time>2022-06-26T09:13:27.000Z</time></trkpt><trkpt lon="5.741084" lat="51.025837"><ele>11</ele><time>2022-06-26T09:13:28.000Z</time></trkpt><trkpt lon="5.741013" lat="51.025902"><ele>11</ele><time>2022-06-26T09:13:29.000Z</time></trkpt><trkpt lon="5.740938" lat="51.025959"><ele>11</ele><time>2022-06-26T09:13:30.000Z</time></trkpt><trkpt lon="5.740869" lat="51.026015"><ele>11</ele><time>2022-06-26T09:13:31.000Z</time></trkpt><trkpt lon="5.740787" lat="51.026074"><ele>11</ele><time>2022-06-26T09:13:32.000Z</time></trkpt><trkpt lon="5.740705" lat="51.026128"><ele>11</ele><time>2022-06-26T09:13:33.000Z</time></trkpt><trkpt lon="5.74062" lat="51.026181"><ele>11</ele><time>2022-06-26T09:13:34.000Z</time></trkpt><trkpt lon="5.740531" lat="51.026231"><ele>11.2</ele><time>2022-06-26T09:13:35.000Z</time></trkpt><trkpt lon="5.740438" lat="51.02628"><ele>11.2</ele><time>2022-06-26T09:13:36.000Z</time></trkpt><trkpt lon="5.740343" lat="51.026326"><ele>11.2</ele><time>2022-06-26T09:13:37.000Z</time></trkpt><trkpt lon="5.740245" lat="51.026368"><ele>11.2</ele><time>2022-06-26T09:13:38.000Z</time></trkpt><trkpt lon="5.740143" lat="51.02641"><ele>11.2</ele><time>2022-06-26T09:13:39.000Z</time></trkpt><trkpt lon="5.74004" lat="51.026448"><ele>11.2</ele><time>2022-06-26T09:13:40.000Z</time></trkpt><trkpt lon="5.739935" lat="51.026482"><ele>11.2</ele><time>2022-06-26T09:13:41.000Z</time></trkpt><trkpt lon="5.739826" lat="51.026516"><ele>11.4</ele><time>2022-06-26T09:13:42.000Z</time></trkpt><trkpt lon="5.739715" lat="51.026543"><ele>11.4</ele><time>2022-06-26T09:13:43.000Z</time></trkpt><trkpt lon="5.7396" lat="51.02657"><ele>11.4</ele><time>2022-06-26T09:13:44.000Z</time></trkpt><trkpt lon="5.739497" lat="51.02659"><ele>11.6</ele><time>2022-06-26T09:13:45.000Z</time></trkpt><trkpt lon="5.739371" lat="51.026612"><ele>11.8</ele><time>2022-06-26T09:13:46.000Z</time></trkpt><trkpt lon="5.739258" lat="51.026631"><ele>11.8</ele><time>2022-06-26T09:13:47.000Z</time></trkpt><trkpt lon="5.739145" lat="51.026654"><ele>11.8</ele><time>2022-06-26T09:13:48.000Z</time></trkpt><trkpt lon="5.739031" lat="51.026669"><ele>11.8</ele><time>2022-06-26T09:13:49.000Z</time></trkpt><trkpt lon="5.73892" lat="51.026692"><ele>11.8</ele><time>2022-06-26T09:13:50.000Z</time></trkpt><trkpt lon="5.738809" lat="51.026715"><ele>11.6</ele><time>2022-06-26T09:13:51.000Z</time></trkpt><trkpt lon="5.738701" lat="51.026738"><ele>11.6</ele><time>2022-06-26T09:13:52.000Z</time></trkpt><trkpt lon="5.738597" lat="51.026768"><ele>11.6</ele><time>2022-06-26T09:13:53.000Z</time></trkpt><trkpt lon="5.738491" lat="51.026803"><ele>11.4</ele><time>2022-06-26T09:13:54.000Z</time></trkpt><trkpt lon="5.738386" lat="51.026841"><ele>11.6</ele><time>2022-06-26T09:13:55.000Z</time></trkpt><trkpt lon="5.738285" lat="51.026883"><ele>11.6</ele><time>2022-06-26T09:13:56.000Z</time></trkpt><trkpt lon="5.738183" lat="51.026925"><ele>11.6</ele><time>2022-06-26T09:13:57.000Z</time></trkpt><trkpt lon="5.738085" lat="51.026967"><ele>11.6</ele><time>2022-06-26T09:13:58.000Z</time></trkpt><trkpt lon="5.737991" lat="51.027012"><ele>11.6</ele><time>2022-06-26T09:13:59.000Z</time></trkpt><trkpt lon="5.737898" lat="51.027061"><ele>11.6</ele><time>2022-06-26T09:14:00.000Z</time></trkpt><trkpt lon="5.737812" lat="51.027108"><ele>11.6</ele><time>2022-06-26T09:14:01.000Z</time></trkpt><trkpt lon="5.737718" lat="51.02717"><ele>11.4</ele><time>2022-06-26T09:14:02.000Z</time></trkpt><trkpt lon="5.737636" lat="51.027227"><ele>11.4</ele><time>2022-06-26T09:14:03.000Z</time></trkpt><trkpt lon="5.737557" lat="51.027288"><ele>11.2</ele><time>2022-06-26T09:14:04.000Z</time></trkpt><trkpt lon="5.737477" lat="51.027347"><ele>11.4</ele><time>2022-06-26T09:14:05.000Z</time></trkpt><trkpt lon="5.737393" lat="51.027406"><ele>11.4</ele><time>2022-06-26T09:14:06.000Z</time></trkpt><trkpt lon="5.73731" lat="51.027467"><ele>11.4</ele><time>2022-06-26T09:14:07.000Z</time></trkpt><trkpt lon="5.737227" lat="51.027528"><ele>11.4</ele><time>2022-06-26T09:14:08.000Z</time></trkpt><trkpt lon="5.737145" lat="51.027582"><ele>11.6</ele><time>2022-06-26T09:14:09.000Z</time></trkpt><trkpt lon="5.737065" lat="51.027642"><ele>11.6</ele><time>2022-06-26T09:14:10.000Z</time></trkpt><trkpt lon="5.736981" lat="51.027699"><ele>11.8</ele><time>2022-06-26T09:14:11.000Z</time></trkpt><trkpt lon="5.7369" lat="51.027757"><ele>11.8</ele><time>2022-06-26T09:14:12.000Z</time></trkpt><trkpt lon="5.73682" lat="51.027818"><ele>11.8</ele><time>2022-06-26T09:14:13.000Z</time></trkpt><trkpt lon="5.736738" lat="51.027879"><ele>11.8</ele><time>2022-06-26T09:14:14.000Z</time></trkpt><trkpt lon="5.736656" lat="51.027937"><ele>11.8</ele><time>2022-06-26T09:14:15.000Z</time></trkpt><trkpt lon="5.736574" lat="51.027993"><ele>11.8</ele><time>2022-06-26T09:14:16.000Z</time></trkpt><trkpt lon="5.736492" lat="51.028054"><ele>12</ele><time>2022-06-26T09:14:17.000Z</time></trkpt><trkpt lon="5.73641" lat="51.028112"><ele>11.8</ele><time>2022-06-26T09:14:18.000Z</time></trkpt><trkpt lon="5.73633" lat="51.028172"><ele>12</ele><time>2022-06-26T09:14:19.000Z</time></trkpt><trkpt lon="5.736254" lat="51.02823"><ele>12</ele><time>2022-06-26T09:14:20.000Z</time></trkpt><trkpt lon="5.736191" lat="51.028281"><ele>12</ele><time>2022-06-26T09:14:21.000Z</time></trkpt><trkpt lon="5.736105" lat="51.028353"><ele>11.8</ele><time>2022-06-26T09:14:22.000Z</time></trkpt><trkpt lon="5.736033" lat="51.028413"><ele>11.8</ele><time>2022-06-26T09:14:23.000Z</time></trkpt><trkpt lon="5.735964" lat="51.028477"><ele>11.8</ele><time>2022-06-26T09:14:24.000Z</time></trkpt><trkpt lon="5.735901" lat="51.028533"><ele>11.8</ele><time>2022-06-26T09:14:25.000Z</time></trkpt><trkpt lon="5.735827" lat="51.0286"><ele>11.6</ele><time>2022-06-26T09:14:26.000Z</time></trkpt><trkpt lon="5.735762" lat="51.028665"><ele>11.6</ele><time>2022-06-26T09:14:27.000Z</time></trkpt><trkpt lon="5.735699" lat="51.02873"><ele>11.6</ele><time>2022-06-26T09:14:28.000Z</time></trkpt><trkpt lon="5.735635" lat="51.028795"><ele>11.6</ele><time>2022-06-26T09:14:29.000Z</time></trkpt><trkpt lon="5.735572" lat="51.028856"><ele>11.8</ele><time>2022-06-26T09:14:30.000Z</time></trkpt><trkpt lon="5.73551" lat="51.028921"><ele>11.8</ele><time>2022-06-26T09:14:31.000Z</time></trkpt><trkpt lon="5.735447" lat="51.028985"><ele>11.8</ele><time>2022-06-26T09:14:32.000Z</time></trkpt><trkpt lon="5.735384" lat="51.02905"><ele>11.6</ele><time>2022-06-26T09:14:33.000Z</time></trkpt><trkpt lon="5.735322" lat="51.029115"><ele>11.6</ele><time>2022-06-26T09:14:34.000Z</time></trkpt><trkpt lon="5.735261" lat="51.029182"><ele>11.6</ele><time>2022-06-26T09:14:35.000Z</time></trkpt><trkpt lon="5.735196" lat="51.029247"><ele>11.8</ele><time>2022-06-26T09:14:36.000Z</time></trkpt><trkpt lon="5.735132" lat="51.029314"><ele>11.8</ele><time>2022-06-26T09:14:37.000Z</time></trkpt><trkpt lon="5.735072" lat="51.029382"><ele>11.8</ele><time>2022-06-26T09:14:38.000Z</time></trkpt><trkpt lon="5.735015" lat="51.029451"><ele>12</ele><time>2022-06-26T09:14:39.000Z</time></trkpt><trkpt lon="5.734964" lat="51.02952"><ele>11.8</ele><time>2022-06-26T09:14:40.000Z</time></trkpt><trkpt lon="5.734914" lat="51.029592"><ele>11.8</ele><time>2022-06-26T09:14:41.000Z</time></trkpt><trkpt lon="5.734867" lat="51.029665"><ele>11.8</ele><time>2022-06-26T09:14:42.000Z</time></trkpt><trkpt lon="5.734819" lat="51.029733"><ele>11.6</ele><time>2022-06-26T09:14:43.000Z</time></trkpt><trkpt lon="5.734771" lat="51.029803"><ele>11.6</ele><time>2022-06-26T09:14:44.000Z</time></trkpt><trkpt lon="5.734727" lat="51.029868"><ele>11.6</ele><time>2022-06-26T09:14:45.000Z</time></trkpt><trkpt lon="5.734674" lat="51.029947"><ele>11.6</ele><time>2022-06-26T09:14:46.000Z</time></trkpt><trkpt lon="5.734624" lat="51.030016"><ele>11.6</ele><time>2022-06-26T09:14:47.000Z</time></trkpt><trkpt lon="5.734577" lat="51.030088"><ele>11.6</ele><time>2022-06-26T09:14:48.000Z</time></trkpt><trkpt lon="5.734531" lat="51.030157"><ele>11.6</ele><time>2022-06-26T09:14:49.000Z</time></trkpt><trkpt lon="5.734484" lat="51.03023"><ele>11.6</ele><time>2022-06-26T09:14:50.000Z</time></trkpt><trkpt lon="5.734436" lat="51.030297"><ele>11.6</ele><time>2022-06-26T09:14:51.000Z</time></trkpt><trkpt lon="5.734387" lat="51.030366"><ele>11.8</ele><time>2022-06-26T09:14:52.000Z</time></trkpt><trkpt lon="5.73434" lat="51.03043"><ele>11.8</ele><time>2022-06-26T09:14:53.000Z</time></trkpt><trkpt lon="5.734291" lat="51.030499"><ele>11.8</ele><time>2022-06-26T09:14:54.000Z</time></trkpt><trkpt lon="5.734246" lat="51.030566"><ele>11.8</ele><time>2022-06-26T09:14:55.000Z</time></trkpt><trkpt lon="5.734194" lat="51.030638"><ele>11.8</ele><time>2022-06-26T09:14:56.000Z</time></trkpt><trkpt lon="5.734146" lat="51.030706"><ele>11.8</ele><time>2022-06-26T09:14:57.000Z</time></trkpt><trkpt lon="5.734098" lat="51.030774"><ele>11.8</ele><time>2022-06-26T09:14:58.000Z</time></trkpt><trkpt lon="5.734049" lat="51.030843"><ele>11.8</ele><time>2022-06-26T09:14:59.000Z</time></trkpt><trkpt lon="5.734002" lat="51.030912"><ele>12</ele><time>2022-06-26T09:15:00.000Z</time></trkpt><trkpt lon="5.733955" lat="51.030976"><ele>11.8</ele><time>2022-06-26T09:15:01.000Z</time></trkpt><trkpt lon="5.733909" lat="51.031049"><ele>12</ele><time>2022-06-26T09:15:02.000Z</time></trkpt><trkpt lon="5.733864" lat="51.031118"><ele>12</ele><time>2022-06-26T09:15:03.000Z</time></trkpt><trkpt lon="5.733819" lat="51.031186"><ele>12.2</ele><time>2022-06-26T09:15:04.000Z</time></trkpt><trkpt lon="5.733777" lat="51.031245"><ele>12.2</ele><time>2022-06-26T09:15:05.000Z</time></trkpt><trkpt lon="5.733726" lat="51.031323"><ele>12.4</ele><time>2022-06-26T09:15:06.000Z</time></trkpt><trkpt lon="5.733678" lat="51.031392"><ele>12.2</ele><time>2022-06-26T09:15:07.000Z</time></trkpt><trkpt lon="5.733631" lat="51.031461"><ele>12</ele><time>2022-06-26T09:15:08.000Z</time></trkpt><trkpt lon="5.733582" lat="51.03153"><ele>12</ele><time>2022-06-26T09:15:09.000Z</time></trkpt><trkpt lon="5.733534" lat="51.031599"><ele>12</ele><time>2022-06-26T09:15:10.000Z</time></trkpt><trkpt lon="5.733488" lat="51.031667"><ele>11.8</ele><time>2022-06-26T09:15:11.000Z</time></trkpt><trkpt lon="5.733437" lat="51.03174"><ele>11.8</ele><time>2022-06-26T09:15:12.000Z</time></trkpt><trkpt lon="5.733391" lat="51.031809"><ele>12</ele><time>2022-06-26T09:15:13.000Z</time></trkpt><trkpt lon="5.733345" lat="51.031877"><ele>12</ele><time>2022-06-26T09:15:14.000Z</time></trkpt><trkpt lon="5.733303" lat="51.03195"><ele>12</ele><time>2022-06-26T09:15:15.000Z</time></trkpt><trkpt lon="5.733266" lat="51.032022"><ele>12</ele><time>2022-06-26T09:15:16.000Z</time></trkpt><trkpt lon="5.733235" lat="51.032098"><ele>12</ele><time>2022-06-26T09:15:17.000Z</time></trkpt><trkpt lon="5.733208" lat="51.032171"><ele>12.2</ele><time>2022-06-26T09:15:18.000Z</time></trkpt><trkpt lon="5.733186" lat="51.032247"><ele>12.2</ele><time>2022-06-26T09:15:19.000Z</time></trkpt><trkpt lon="5.73317" lat="51.032322"><ele>12</ele><time>2022-06-26T09:15:20.000Z</time></trkpt><trkpt lon="5.733161" lat="51.032392"><ele>12</ele><time>2022-06-26T09:15:21.000Z</time></trkpt><trkpt lon="5.733157" lat="51.032472"><ele>12</ele><time>2022-06-26T09:15:22.000Z</time></trkpt><trkpt lon="5.733157" lat="51.032549"><ele>12</ele><time>2022-06-26T09:15:23.000Z</time></trkpt><trkpt lon="5.733158" lat="51.032628"><ele>12</ele><time>2022-06-26T09:15:24.000Z</time></trkpt><trkpt lon="5.733163" lat="51.032694"><ele>12</ele><time>2022-06-26T09:15:25.000Z</time></trkpt><trkpt lon="5.733167" lat="51.032785"><ele>12</ele><time>2022-06-26T09:15:26.000Z</time></trkpt><trkpt lon="5.73317" lat="51.032862"><ele>12</ele><time>2022-06-26T09:15:27.000Z</time></trkpt><trkpt lon="5.733172" lat="51.032938"><ele>12</ele><time>2022-06-26T09:15:28.000Z</time></trkpt><trkpt lon="5.733177" lat="51.033013"><ele>12.2</ele><time>2022-06-26T09:15:29.000Z</time></trkpt><trkpt lon="5.733183" lat="51.03309"><ele>12</ele><time>2022-06-26T09:15:30.000Z</time></trkpt><trkpt lon="5.733185" lat="51.033165"><ele>12</ele><time>2022-06-26T09:15:31.000Z</time></trkpt><trkpt lon="5.733188" lat="51.033246"><ele>12</ele><time>2022-06-26T09:15:32.000Z</time></trkpt><trkpt lon="5.733192" lat="51.033327"><ele>12</ele><time>2022-06-26T09:15:33.000Z</time></trkpt><trkpt lon="5.733197" lat="51.033403"><ele>12</ele><time>2022-06-26T09:15:34.000Z</time></trkpt><trkpt lon="5.733202" lat="51.033484"><ele>11.8</ele><time>2022-06-26T09:15:35.000Z</time></trkpt><trkpt lon="5.733207" lat="51.033563"><ele>11.8</ele><time>2022-06-26T09:15:36.000Z</time></trkpt><trkpt lon="5.733212" lat="51.033639"><ele>11.8</ele><time>2022-06-26T09:15:37.000Z</time></trkpt><trkpt lon="5.733217" lat="51.033719"><ele>11.6</ele><time>2022-06-26T09:15:38.000Z</time></trkpt><trkpt lon="5.733225" lat="51.033796"><ele>11.6</ele><time>2022-06-26T09:15:39.000Z</time></trkpt><trkpt lon="5.733234" lat="51.033872"><ele>11.6</ele><time>2022-06-26T09:15:40.000Z</time></trkpt><trkpt lon="5.733237" lat="51.033947"><ele>11.4</ele><time>2022-06-26T09:15:41.000Z</time></trkpt><trkpt lon="5.733242" lat="51.034033"><ele>11.6</ele><time>2022-06-26T09:15:42.000Z</time></trkpt><trkpt lon="5.733247" lat="51.034113"><ele>11.6</ele><time>2022-06-26T09:15:43.000Z</time></trkpt><trkpt lon="5.733248" lat="51.034189"><ele>11.8</ele><time>2022-06-26T09:15:44.000Z</time></trkpt><trkpt lon="5.733252" lat="51.034269"><ele>11.8</ele><time>2022-06-26T09:15:45.000Z</time></trkpt><trkpt lon="5.733258" lat="51.034349"><ele>11.6</ele><time>2022-06-26T09:15:46.000Z</time></trkpt><trkpt lon="5.733262" lat="51.034426"><ele>11.6</ele><time>2022-06-26T09:15:47.000Z</time></trkpt><trkpt lon="5.73326" lat="51.034505"><ele>11.4</ele><time>2022-06-26T09:15:48.000Z</time></trkpt><trkpt lon="5.733251" lat="51.034586"><ele>11.4</ele><time>2022-06-26T09:15:49.000Z</time></trkpt><trkpt lon="5.733238" lat="51.034666"><ele>11.4</ele><time>2022-06-26T09:15:50.000Z</time></trkpt><trkpt lon="5.733219" lat="51.034747"><ele>11.6</ele><time>2022-06-26T09:15:51.000Z</time></trkpt><trkpt lon="5.7332" lat="51.034822"><ele>11.8</ele><time>2022-06-26T09:15:52.000Z</time></trkpt><trkpt lon="5.733176" lat="51.034891"><ele>11.8</ele><time>2022-06-26T09:15:53.000Z</time></trkpt><trkpt lon="5.733147" lat="51.034955"><ele>11.8</ele><time>2022-06-26T09:15:54.000Z</time></trkpt><trkpt lon="5.733118" lat="51.035016"><ele>12</ele><time>2022-06-26T09:15:55.000Z</time></trkpt><trkpt lon="5.73309" lat="51.035077"><ele>12</ele><time>2022-06-26T09:15:56.000Z</time></trkpt><trkpt lon="5.733065" lat="51.035135"><ele>12.2</ele><time>2022-06-26T09:15:57.000Z</time></trkpt><trkpt lon="5.733038" lat="51.035188"><ele>12.2</ele><time>2022-06-26T09:15:58.000Z</time></trkpt><trkpt lon="5.733003" lat="51.035237"><ele>12.2</ele><time>2022-06-26T09:15:59.000Z</time></trkpt><trkpt lon="5.732954" lat="51.035283"><ele>12.2</ele><time>2022-06-26T09:16:00.000Z</time></trkpt><trkpt lon="5.732888" lat="51.035321"><ele>12.2</ele><time>2022-06-26T09:16:01.000Z</time></trkpt><trkpt lon="5.732801" lat="51.035359"><ele>12.2</ele><time>2022-06-26T09:16:02.000Z</time></trkpt><trkpt lon="5.7327" lat="51.035397"><ele>12.2</ele><time>2022-06-26T09:16:03.000Z</time></trkpt><trkpt lon="5.732593" lat="51.035428"><ele>12</ele><time>2022-06-26T09:16:04.000Z</time></trkpt><trkpt lon="5.732483" lat="51.035458"><ele>12</ele><time>2022-06-26T09:16:05.000Z</time></trkpt><trkpt lon="5.732376" lat="51.035489"><ele>12</ele><time>2022-06-26T09:16:06.000Z</time></trkpt><trkpt lon="5.732272" lat="51.035524"><ele>11.8</ele><time>2022-06-26T09:16:07.000Z</time></trkpt><trkpt lon="5.732168" lat="51.035557"><ele>11.8</ele><time>2022-06-26T09:16:08.000Z</time></trkpt><trkpt lon="5.732063" lat="51.035588"><ele>11.8</ele><time>2022-06-26T09:16:09.000Z</time></trkpt><trkpt lon="5.731954" lat="51.035615"><ele>11.8</ele><time>2022-06-26T09:16:10.000Z</time></trkpt><trkpt lon="5.731844" lat="51.035641"><ele>11.8</ele><time>2022-06-26T09:16:11.000Z</time></trkpt><trkpt lon="5.731735" lat="51.035664"><ele>11.8</ele><time>2022-06-26T09:16:12.000Z</time></trkpt><trkpt lon="5.73162" lat="51.035691"><ele>11.6</ele><time>2022-06-26T09:16:13.000Z</time></trkpt><trkpt lon="5.731509" lat="51.035718"><ele>11.6</ele><time>2022-06-26T09:16:14.000Z</time></trkpt><trkpt lon="5.7314" lat="51.035744"><ele>11.6</ele><time>2022-06-26T09:16:15.000Z</time></trkpt><trkpt lon="5.731294" lat="51.035767"><ele>11.6</ele><time>2022-06-26T09:16:16.000Z</time></trkpt><trkpt lon="5.731193" lat="51.03579"><ele>11.6</ele><time>2022-06-26T09:16:17.000Z</time></trkpt><trkpt lon="5.731095" lat="51.035817"><ele>11.6</ele><time>2022-06-26T09:16:18.000Z</time></trkpt><trkpt lon="5.731006" lat="51.035839"><ele>11.6</ele><time>2022-06-26T09:16:19.000Z</time></trkpt><trkpt lon="5.730918" lat="51.035862"><ele>11.6</ele><time>2022-06-26T09:16:20.000Z</time></trkpt><trkpt lon="5.730836" lat="51.035881"><ele>11.6</ele><time>2022-06-26T09:16:21.000Z</time></trkpt><trkpt lon="5.730757" lat="51.035893"><ele>11.8</ele><time>2022-06-26T09:16:22.000Z</time></trkpt><trkpt lon="5.730694" lat="51.035904"><ele>11.8</ele><time>2022-06-26T09:16:23.000Z</time></trkpt><trkpt lon="5.730636" lat="51.035916"><ele>12</ele><time>2022-06-26T09:16:24.000Z</time></trkpt><trkpt lon="5.730583" lat="51.035927"><ele>12</ele><time>2022-06-26T09:16:25.000Z</time></trkpt><trkpt lon="5.73053" lat="51.035938"><ele>12</ele><time>2022-06-26T09:16:26.000Z</time></trkpt><trkpt lon="5.730464" lat="51.035946"><ele>12</ele><time>2022-06-26T09:16:27.000Z</time></trkpt><trkpt lon="5.730401" lat="51.035954"><ele>12.2</ele><time>2022-06-26T09:16:28.000Z</time></trkpt><trkpt lon="5.730339" lat="51.035965"><ele>12.2</ele><time>2022-06-26T09:16:29.000Z</time></trkpt><trkpt lon="5.730282" lat="51.035977"><ele>12.2</ele><time>2022-06-26T09:16:30.000Z</time></trkpt><trkpt lon="5.730231" lat="51.035992"><ele>12.2</ele><time>2022-06-26T09:16:31.000Z</time></trkpt><trkpt lon="5.730179" lat="51.036003"><ele>12.4</ele><time>2022-06-26T09:16:32.000Z</time></trkpt><trkpt lon="5.730129" lat="51.036019"><ele>12.4</ele><time>2022-06-26T09:16:33.000Z</time></trkpt><trkpt lon="5.730076" lat="51.036034"><ele>12.4</ele><time>2022-06-26T09:16:34.000Z</time></trkpt><trkpt lon="5.73002" lat="51.036049"><ele>12.4</ele><time>2022-06-26T09:16:35.000Z</time></trkpt><trkpt lon="5.729971" lat="51.036064"><ele>12.6</ele><time>2022-06-26T09:16:36.000Z</time></trkpt><trkpt lon="5.729926" lat="51.036087"><ele>12.6</ele><time>2022-06-26T09:16:37.000Z</time></trkpt><trkpt lon="5.729883" lat="51.036109"><ele>12.6</ele><time>2022-06-26T09:16:38.000Z</time></trkpt><trkpt lon="5.729841" lat="51.036126"><ele>12.8</ele><time>2022-06-26T09:16:39.000Z</time></trkpt><trkpt lon="5.729806" lat="51.036145"><ele>12.8</ele><time>2022-06-26T09:16:40.000Z</time></trkpt><trkpt lon="5.729775" lat="51.036159"><ele>12.8</ele><time>2022-06-26T09:16:41.000Z</time></trkpt><trkpt lon="5.729748" lat="51.036171"><ele>13</ele><time>2022-06-26T09:16:42.000Z</time></trkpt><trkpt lon="5.729728" lat="51.036186"><ele>13</ele><time>2022-06-26T09:16:43.000Z</time></trkpt><trkpt lon="5.729717" lat="51.036202"><ele>13</ele><time>2022-06-26T09:16:44.000Z</time></trkpt><trkpt lon="5.729712" lat="51.03622"><ele>13.2</ele><time>2022-06-26T09:16:45.000Z</time></trkpt><trkpt lon="5.729706" lat="51.036234"><ele>13.2</ele><time>2022-06-26T09:16:46.000Z</time></trkpt><trkpt lon="5.729695" lat="51.036244"><ele>13.2</ele><time>2022-06-26T09:16:47.000Z</time></trkpt><trkpt lon="5.729687" lat="51.036255"><ele>13.2</ele><time>2022-06-26T09:16:48.000Z</time></trkpt><trkpt lon="5.7296" lat="51.036297"><ele>13.4</ele><time>2022-06-26T09:16:55.000Z</time></trkpt><trkpt lon="5.729564" lat="51.0363"><ele>13.4</ele><time>2022-06-26T09:16:56.000Z</time></trkpt><trkpt lon="5.729517" lat="51.036308"><ele>13.4</ele><time>2022-06-26T09:16:57.000Z</time></trkpt><trkpt lon="5.729462" lat="51.03632"><ele>13.4</ele><time>2022-06-26T09:16:58.000Z</time></trkpt><trkpt lon="5.729397" lat="51.036331"><ele>13.4</ele><time>2022-06-26T09:16:59.000Z</time></trkpt><trkpt lon="5.729326" lat="51.036342"><ele>13.2</ele><time>2022-06-26T09:17:00.000Z</time></trkpt><trkpt lon="5.729247" lat="51.036346"><ele>13.2</ele><time>2022-06-26T09:17:01.000Z</time></trkpt><trkpt lon="5.729173" lat="51.036346"><ele>13.2</ele><time>2022-06-26T09:17:02.000Z</time></trkpt><trkpt lon="5.729101" lat="51.036339"><ele>13.2</ele><time>2022-06-26T09:17:03.000Z</time></trkpt><trkpt lon="5.729034" lat="51.036328"><ele>13.2</ele><time>2022-06-26T09:17:04.000Z</time></trkpt><trkpt lon="5.728947" lat="51.03632"><ele>13.2</ele><time>2022-06-26T09:17:05.000Z</time></trkpt><trkpt lon="5.728867" lat="51.036308"><ele>13.2</ele><time>2022-06-26T09:17:06.000Z</time></trkpt><trkpt lon="5.728787" lat="51.036308"><ele>13.2</ele><time>2022-06-26T09:17:07.000Z</time></trkpt><trkpt lon="5.728703" lat="51.036312"><ele>13</ele><time>2022-06-26T09:17:08.000Z</time></trkpt><trkpt lon="5.728616" lat="51.036328"><ele>13</ele><time>2022-06-26T09:17:09.000Z</time></trkpt><trkpt lon="5.728524" lat="51.036343"><ele>13</ele><time>2022-06-26T09:17:10.000Z</time></trkpt><trkpt lon="5.728426" lat="51.036362"><ele>13</ele><time>2022-06-26T09:17:11.000Z</time></trkpt><trkpt lon="5.728321" lat="51.036377"><ele>13</ele><time>2022-06-26T09:17:12.000Z</time></trkpt><trkpt lon="5.728222" lat="51.0364"><ele>13</ele><time>2022-06-26T09:17:13.000Z</time></trkpt><trkpt lon="5.728121" lat="51.036416"><ele>13.2</ele><time>2022-06-26T09:17:14.000Z</time></trkpt><trkpt lon="5.72802" lat="51.036434"><ele>13.2</ele><time>2022-06-26T09:17:15.000Z</time></trkpt><trkpt lon="5.727919" lat="51.03645"><ele>13.2</ele><time>2022-06-26T09:17:16.000Z</time></trkpt><trkpt lon="5.727817" lat="51.036469"><ele>13.2</ele><time>2022-06-26T09:17:17.000Z</time></trkpt><trkpt lon="5.727709" lat="51.036484"><ele>13.2</ele><time>2022-06-26T09:17:18.000Z</time></trkpt><trkpt lon="5.727602" lat="51.036496"><ele>13.2</ele><time>2022-06-26T09:17:19.000Z</time></trkpt><trkpt lon="5.727499" lat="51.036514"><ele>13.2</ele><time>2022-06-26T09:17:20.000Z</time></trkpt><trkpt lon="5.727399" lat="51.03653"><ele>13.2</ele><time>2022-06-26T09:17:21.000Z</time></trkpt><trkpt lon="5.727295" lat="51.036545"><ele>13.2</ele><time>2022-06-26T09:17:22.000Z</time></trkpt><trkpt lon="5.727196" lat="51.036557"><ele>13.2</ele><time>2022-06-26T09:17:23.000Z</time></trkpt><trkpt lon="5.727098" lat="51.036568"><ele>13.2</ele><time>2022-06-26T09:17:24.000Z</time></trkpt><trkpt lon="5.726997" lat="51.036579"><ele>13.2</ele><time>2022-06-26T09:17:25.000Z</time></trkpt><trkpt lon="5.726895" lat="51.036591"><ele>13.4</ele><time>2022-06-26T09:17:26.000Z</time></trkpt><trkpt lon="5.726795" lat="51.036606"><ele>13.2</ele><time>2022-06-26T09:17:27.000Z</time></trkpt><trkpt lon="5.726695" lat="51.036617"><ele>13.2</ele><time>2022-06-26T09:17:28.000Z</time></trkpt><trkpt lon="5.726588" lat="51.036629"><ele>13.2</ele><time>2022-06-26T09:17:29.000Z</time></trkpt><trkpt lon="5.726488" lat="51.036644"><ele>13.4</ele><time>2022-06-26T09:17:30.000Z</time></trkpt><trkpt lon="5.726387" lat="51.03666"><ele>13.4</ele><time>2022-06-26T09:17:31.000Z</time></trkpt><trkpt lon="5.726288" lat="51.036675"><ele>13.4</ele><time>2022-06-26T09:17:32.000Z</time></trkpt><trkpt lon="5.726189" lat="51.036694"><ele>13.4</ele><time>2022-06-26T09:17:33.000Z</time></trkpt><trkpt lon="5.726091" lat="51.036709"><ele>13.4</ele><time>2022-06-26T09:17:34.000Z</time></trkpt><trkpt lon="5.725996" lat="51.036728"><ele>13.2</ele><time>2022-06-26T09:17:35.000Z</time></trkpt><trkpt lon="5.725899" lat="51.036747"><ele>13.2</ele><time>2022-06-26T09:17:36.000Z</time></trkpt><trkpt lon="5.725808" lat="51.036766"><ele>13.4</ele><time>2022-06-26T09:17:37.000Z</time></trkpt><trkpt lon="5.72572" lat="51.036786"><ele>13.4</ele><time>2022-06-26T09:17:38.000Z</time></trkpt><trkpt lon="5.725636" lat="51.036809"><ele>13.6</ele><time>2022-06-26T09:17:39.000Z</time></trkpt><trkpt lon="5.725558" lat="51.036829"><ele>13.6</ele><time>2022-06-26T09:17:40.000Z</time></trkpt><trkpt lon="5.725454" lat="51.036851"><ele>13.6</ele><time>2022-06-26T09:17:41.000Z</time></trkpt><trkpt lon="5.725358" lat="51.036877"><ele>13.8</ele><time>2022-06-26T09:17:42.000Z</time></trkpt><trkpt lon="5.725266" lat="51.036896"><ele>13.8</ele><time>2022-06-26T09:17:43.000Z</time></trkpt><trkpt lon="5.725171" lat="51.036911"><ele>13.8</ele><time>2022-06-26T09:17:44.000Z</time></trkpt><trkpt lon="5.725076" lat="51.036923"><ele>13.8</ele><time>2022-06-26T09:17:45.000Z</time></trkpt><trkpt lon="5.724977" lat="51.036935"><ele>13.8</ele><time>2022-06-26T09:17:46.000Z</time></trkpt><trkpt lon="5.724874" lat="51.036957"><ele>13.6</ele><time>2022-06-26T09:17:47.000Z</time></trkpt><trkpt lon="5.724772" lat="51.03698"><ele>13.6</ele><time>2022-06-26T09:17:48.000Z</time></trkpt><trkpt lon="5.724671" lat="51.037003"><ele>13.6</ele><time>2022-06-26T09:17:49.000Z</time></trkpt><trkpt lon="5.72457" lat="51.037022"><ele>13.6</ele><time>2022-06-26T09:17:50.000Z</time></trkpt><trkpt lon="5.724468" lat="51.037045"><ele>13.6</ele><time>2022-06-26T09:17:51.000Z</time></trkpt><trkpt lon="5.724369" lat="51.037064"><ele>13.6</ele><time>2022-06-26T09:17:52.000Z</time></trkpt><trkpt lon="5.72427" lat="51.037083"><ele>13.6</ele><time>2022-06-26T09:17:53.000Z</time></trkpt><trkpt lon="5.724169" lat="51.037102"><ele>13.6</ele><time>2022-06-26T09:17:54.000Z</time></trkpt><trkpt lon="5.724065" lat="51.037121"><ele>13.4</ele><time>2022-06-26T09:17:55.000Z</time></trkpt><trkpt lon="5.723971" lat="51.037139"><ele>13.4</ele><time>2022-06-26T09:17:56.000Z</time></trkpt><trkpt lon="5.723862" lat="51.03716"><ele>13.6</ele><time>2022-06-26T09:17:57.000Z</time></trkpt><trkpt lon="5.723759" lat="51.037182"><ele>13.4</ele><time>2022-06-26T09:17:58.000Z</time></trkpt><trkpt lon="5.723655" lat="51.037201"><ele>13.4</ele><time>2022-06-26T09:17:59.000Z</time></trkpt><trkpt lon="5.723553" lat="51.03722"><ele>13.4</ele><time>2022-06-26T09:18:00.000Z</time></trkpt><trkpt lon="5.723454" lat="51.037243"><ele>13.4</ele><time>2022-06-26T09:18:01.000Z</time></trkpt><trkpt lon="5.72335" lat="51.037258"><ele>13.4</ele><time>2022-06-26T09:18:02.000Z</time></trkpt><trkpt lon="5.723248" lat="51.037281"><ele>13.4</ele><time>2022-06-26T09:18:03.000Z</time></trkpt><trkpt lon="5.723154" lat="51.037298"><ele>13.4</ele><time>2022-06-26T09:18:04.000Z</time></trkpt><trkpt lon="5.723035" lat="51.037319"><ele>13.4</ele><time>2022-06-26T09:18:05.000Z</time></trkpt><trkpt lon="5.722928" lat="51.037339"><ele>13.4</ele><time>2022-06-26T09:18:06.000Z</time></trkpt><trkpt lon="5.722825" lat="51.037358"><ele>13.4</ele><time>2022-06-26T09:18:07.000Z</time></trkpt><trkpt lon="5.722725" lat="51.037381"><ele>13.2</ele><time>2022-06-26T09:18:08.000Z</time></trkpt><trkpt lon="5.722622" lat="51.0374"><ele>13.2</ele><time>2022-06-26T09:18:09.000Z</time></trkpt><trkpt lon="5.722519" lat="51.037423"><ele>13.2</ele><time>2022-06-26T09:18:10.000Z</time></trkpt><trkpt lon="5.722417" lat="51.037445"><ele>13.4</ele><time>2022-06-26T09:18:11.000Z</time></trkpt><trkpt lon="5.722314" lat="51.037464"><ele>13.4</ele><time>2022-06-26T09:18:12.000Z</time></trkpt><trkpt lon="5.722213" lat="51.037487"><ele>13.4</ele><time>2022-06-26T09:18:13.000Z</time></trkpt><trkpt lon="5.722116" lat="51.037511"><ele>13.6</ele><time>2022-06-26T09:18:14.000Z</time></trkpt><trkpt lon="5.722022" lat="51.037533"><ele>13.6</ele><time>2022-06-26T09:18:15.000Z</time></trkpt><trkpt lon="5.721924" lat="51.037552"><ele>13.6</ele><time>2022-06-26T09:18:16.000Z</time></trkpt><trkpt lon="5.72182" lat="51.037567"><ele>13.6</ele><time>2022-06-26T09:18:17.000Z</time></trkpt><trkpt lon="5.72171" lat="51.037583"><ele>13.4</ele><time>2022-06-26T09:18:18.000Z</time></trkpt><trkpt lon="5.721602" lat="51.037606"><ele>13.4</ele><time>2022-06-26T09:18:19.000Z</time></trkpt><trkpt lon="5.721491" lat="51.037633"><ele>13.4</ele><time>2022-06-26T09:18:20.000Z</time></trkpt><trkpt lon="5.721378" lat="51.037663"><ele>13.2</ele><time>2022-06-26T09:18:21.000Z</time></trkpt><trkpt lon="5.721267" lat="51.03769"><ele>13.2</ele><time>2022-06-26T09:18:22.000Z</time></trkpt><trkpt lon="5.72116" lat="51.03772"><ele>13.2</ele><time>2022-06-26T09:18:23.000Z</time></trkpt><trkpt lon="5.721062" lat="51.037744"><ele>13.2</ele><time>2022-06-26T09:18:24.000Z</time></trkpt><trkpt lon="5.720945" lat="51.037777"><ele>13.2</ele><time>2022-06-26T09:18:25.000Z</time></trkpt><trkpt lon="5.720838" lat="51.037804"><ele>13.2</ele><time>2022-06-26T09:18:26.000Z</time></trkpt><trkpt lon="5.720731" lat="51.037835"><ele>13.2</ele><time>2022-06-26T09:18:27.000Z</time></trkpt><trkpt lon="5.720621" lat="51.037865"><ele>13.2</ele><time>2022-06-26T09:18:28.000Z</time></trkpt><trkpt lon="5.720514" lat="51.037892"><ele>13.4</ele><time>2022-06-26T09:18:29.000Z</time></trkpt><trkpt lon="5.720405" lat="51.037915"><ele>13.4</ele><time>2022-06-26T09:18:30.000Z</time></trkpt><trkpt lon="5.720295" lat="51.037938"><ele>13.6</ele><time>2022-06-26T09:18:31.000Z</time></trkpt><trkpt lon="5.720191" lat="51.037964"><ele>13.4</ele><time>2022-06-26T09:18:32.000Z</time></trkpt><trkpt lon="5.720086" lat="51.037991"><ele>13.6</ele><time>2022-06-26T09:18:33.000Z</time></trkpt><trkpt lon="5.719979" lat="51.038014"><ele>13.6</ele><time>2022-06-26T09:18:34.000Z</time></trkpt><trkpt lon="5.719875" lat="51.038037"><ele>13.6</ele><time>2022-06-26T09:18:35.000Z</time></trkpt><trkpt lon="5.719773" lat="51.03806"><ele>13.6</ele><time>2022-06-26T09:18:36.000Z</time></trkpt><trkpt lon="5.719673" lat="51.038079"><ele>13.4</ele><time>2022-06-26T09:18:37.000Z</time></trkpt><trkpt lon="5.719575" lat="51.038105"><ele>13.4</ele><time>2022-06-26T09:18:38.000Z</time></trkpt><trkpt lon="5.719475" lat="51.038132"><ele>13.4</ele><time>2022-06-26T09:18:39.000Z</time></trkpt><trkpt lon="5.719378" lat="51.038154"><ele>13.4</ele><time>2022-06-26T09:18:40.000Z</time></trkpt><trkpt lon="5.719272" lat="51.038178"><ele>13.4</ele><time>2022-06-26T09:18:41.000Z</time></trkpt><trkpt lon="5.719166" lat="51.038196"><ele>13.4</ele><time>2022-06-26T09:18:42.000Z</time></trkpt><trkpt lon="5.719053" lat="51.03822"><ele>13.4</ele><time>2022-06-26T09:18:43.000Z</time></trkpt><trkpt lon="5.718939" lat="51.038239"><ele>13.4</ele><time>2022-06-26T09:18:44.000Z</time></trkpt><trkpt lon="5.718829" lat="51.038262"><ele>13.4</ele><time>2022-06-26T09:18:45.000Z</time></trkpt><trkpt lon="5.718717" lat="51.038281"><ele>13.4</ele><time>2022-06-26T09:18:46.000Z</time></trkpt><trkpt lon="5.718606" lat="51.0383"><ele>13.4</ele><time>2022-06-26T09:18:47.000Z</time></trkpt><trkpt lon="5.718496" lat="51.038319"><ele>13.6</ele><time>2022-06-26T09:18:48.000Z</time></trkpt><trkpt lon="5.718388" lat="51.038338"><ele>13.6</ele><time>2022-06-26T09:18:49.000Z</time></trkpt><trkpt lon="5.718285" lat="51.038357"><ele>13.8</ele><time>2022-06-26T09:18:50.000Z</time></trkpt><trkpt lon="5.718182" lat="51.03838"><ele>13.8</ele><time>2022-06-26T09:18:51.000Z</time></trkpt><trkpt lon="5.718089" lat="51.038397"><ele>13.8</ele><time>2022-06-26T09:18:52.000Z</time></trkpt><trkpt lon="5.717974" lat="51.038422"><ele>13.6</ele><time>2022-06-26T09:18:53.000Z</time></trkpt><trkpt lon="5.717868" lat="51.038449"><ele>13.6</ele><time>2022-06-26T09:18:54.000Z</time></trkpt><trkpt lon="5.717764" lat="51.038472"><ele>13.4</ele><time>2022-06-26T09:18:55.000Z</time></trkpt><trkpt lon="5.717658" lat="51.038491"><ele>13.4</ele><time>2022-06-26T09:18:56.000Z</time></trkpt><trkpt lon="5.717552" lat="51.038514"><ele>13.2</ele><time>2022-06-26T09:18:57.000Z</time></trkpt><trkpt lon="5.71745" lat="51.038529"><ele>13.4</ele><time>2022-06-26T09:18:58.000Z</time></trkpt><trkpt lon="5.71735" lat="51.038548"><ele>13.4</ele><time>2022-06-26T09:18:59.000Z</time></trkpt><trkpt lon="5.717256" lat="51.038563"><ele>13.4</ele><time>2022-06-26T09:19:00.000Z</time></trkpt><trkpt lon="5.717162" lat="51.038567"><ele>13.4</ele><time>2022-06-26T09:19:01.000Z</time></trkpt><trkpt lon="5.717079" lat="51.038582"><ele>13.6</ele><time>2022-06-26T09:19:02.000Z</time></trkpt><trkpt lon="5.717006" lat="51.038598"><ele>13.8</ele><time>2022-06-26T09:19:03.000Z</time></trkpt><trkpt lon="5.716942" lat="51.038621"><ele>14</ele><time>2022-06-26T09:19:04.000Z</time></trkpt><trkpt lon="5.716882" lat="51.038647"><ele>14.2</ele><time>2022-06-26T09:19:05.000Z</time></trkpt><trkpt lon="5.716827" lat="51.038686"><ele>14.4</ele><time>2022-06-26T09:19:06.000Z</time></trkpt><trkpt lon="5.716783" lat="51.038728"><ele>14.6</ele><time>2022-06-26T09:19:07.000Z</time></trkpt><trkpt lon="5.716755" lat="51.038774"><ele>14.8</ele><time>2022-06-26T09:19:08.000Z</time></trkpt><trkpt lon="5.71675" lat="51.038827"><ele>14.8</ele><time>2022-06-26T09:19:09.000Z</time></trkpt><trkpt lon="5.71677" lat="51.038883"><ele>14.8</ele><time>2022-06-26T09:19:10.000Z</time></trkpt><trkpt lon="5.716805" lat="51.038941"><ele>15</ele><time>2022-06-26T09:19:11.000Z</time></trkpt><trkpt lon="5.716839" lat="51.038999"><ele>15</ele><time>2022-06-26T09:19:12.000Z</time></trkpt><trkpt lon="5.716867" lat="51.039059"><ele>15</ele><time>2022-06-26T09:19:13.000Z</time></trkpt><trkpt lon="5.716892" lat="51.039129"><ele>15</ele><time>2022-06-26T09:19:14.000Z</time></trkpt><trkpt lon="5.716916" lat="51.039201"><ele>15</ele><time>2022-06-26T09:19:15.000Z</time></trkpt><trkpt lon="5.716937" lat="51.039269"><ele>15</ele><time>2022-06-26T09:19:16.000Z</time></trkpt><trkpt lon="5.716962" lat="51.039338"><ele>15</ele><time>2022-06-26T09:19:17.000Z</time></trkpt><trkpt lon="5.716986" lat="51.039407"><ele>15</ele><time>2022-06-26T09:19:18.000Z</time></trkpt><trkpt lon="5.717008" lat="51.039471"><ele>15</ele><time>2022-06-26T09:19:19.000Z</time></trkpt><trkpt lon="5.717031" lat="51.039526"><ele>15</ele><time>2022-06-26T09:19:20.000Z</time></trkpt><trkpt lon="5.717064" lat="51.039594"><ele>15.2</ele><time>2022-06-26T09:19:21.000Z</time></trkpt><trkpt lon="5.717094" lat="51.039659"><ele>15.2</ele><time>2022-06-26T09:19:22.000Z</time></trkpt><trkpt lon="5.717125" lat="51.039723"><ele>15.2</ele><time>2022-06-26T09:19:23.000Z</time></trkpt><trkpt lon="5.717155" lat="51.039788"><ele>15.2</ele><time>2022-06-26T09:19:24.000Z</time></trkpt><trkpt lon="5.717185" lat="51.039853"><ele>15.2</ele><time>2022-06-26T09:19:25.000Z</time></trkpt><trkpt lon="5.717216" lat="51.039915"><ele>15</ele><time>2022-06-26T09:19:26.000Z</time></trkpt><trkpt lon="5.717251" lat="51.039989"><ele>15</ele><time>2022-06-26T09:19:27.000Z</time></trkpt><trkpt lon="5.717286" lat="51.040054"><ele>15</ele><time>2022-06-26T09:19:28.000Z</time></trkpt><trkpt lon="5.717331" lat="51.040132"><ele>15</ele><time>2022-06-26T09:19:29.000Z</time></trkpt><trkpt lon="5.717376" lat="51.040201"><ele>15.2</ele><time>2022-06-26T09:19:30.000Z</time></trkpt><trkpt lon="5.717428" lat="51.040269"><ele>15.4</ele><time>2022-06-26T09:19:31.000Z</time></trkpt><trkpt lon="5.717483" lat="51.040335"><ele>15.4</ele><time>2022-06-26T09:19:32.000Z</time></trkpt><trkpt lon="5.717539" lat="51.040403"><ele>15.4</ele><time>2022-06-26T09:19:33.000Z</time></trkpt><trkpt lon="5.717596" lat="51.040468"><ele>15.2</ele><time>2022-06-26T09:19:34.000Z</time></trkpt><trkpt lon="5.717654" lat="51.040532"><ele>15.2</ele><time>2022-06-26T09:19:35.000Z</time></trkpt><trkpt lon="5.717716" lat="51.040597"><ele>15</ele><time>2022-06-26T09:19:36.000Z</time></trkpt><trkpt lon="5.717782" lat="51.040662"><ele>15</ele><time>2022-06-26T09:19:37.000Z</time></trkpt><trkpt lon="5.717844" lat="51.04073"><ele>15</ele><time>2022-06-26T09:19:38.000Z</time></trkpt><trkpt lon="5.717908" lat="51.0408"><ele>14.8</ele><time>2022-06-26T09:19:39.000Z</time></trkpt><trkpt lon="5.717974" lat="51.040872"><ele>14.8</ele><time>2022-06-26T09:19:40.000Z</time></trkpt><trkpt lon="5.718048" lat="51.040944"><ele>14.6</ele><time>2022-06-26T09:19:41.000Z</time></trkpt><trkpt lon="5.718122" lat="51.041013"><ele>14.4</ele><time>2022-06-26T09:19:42.000Z</time></trkpt><trkpt lon="5.718189" lat="51.041081"><ele>14.4</ele><time>2022-06-26T09:19:43.000Z</time></trkpt><trkpt lon="5.718245" lat="51.041142"><ele>14.2</ele><time>2022-06-26T09:19:44.000Z</time></trkpt><trkpt lon="5.718325" lat="51.041227"><ele>14.2</ele><time>2022-06-26T09:19:45.000Z</time></trkpt><trkpt lon="5.718394" lat="51.041296"><ele>14.2</ele><time>2022-06-26T09:19:46.000Z</time></trkpt><trkpt lon="5.718463" lat="51.041368"><ele>14.2</ele><time>2022-06-26T09:19:47.000Z</time></trkpt><trkpt lon="5.718529" lat="51.041441"><ele>14.2</ele><time>2022-06-26T09:19:48.000Z</time></trkpt><trkpt lon="5.718593" lat="51.041517"><ele>14.2</ele><time>2022-06-26T09:19:49.000Z</time></trkpt><trkpt lon="5.718655" lat="51.041589"><ele>14.4</ele><time>2022-06-26T09:19:50.000Z</time></trkpt><trkpt lon="5.71872" lat="51.041658"><ele>14.4</ele><time>2022-06-26T09:19:51.000Z</time></trkpt><trkpt lon="5.718775" lat="51.041732"><ele>14.2</ele><time>2022-06-26T09:19:52.000Z</time></trkpt><trkpt lon="5.718836" lat="51.041815"><ele>14</ele><time>2022-06-26T09:19:53.000Z</time></trkpt><trkpt lon="5.718891" lat="51.041887"><ele>14</ele><time>2022-06-26T09:19:54.000Z</time></trkpt><trkpt lon="5.718946" lat="51.041963"><ele>14.2</ele><time>2022-06-26T09:19:55.000Z</time></trkpt><trkpt lon="5.719" lat="51.042039"><ele>14.2</ele><time>2022-06-26T09:19:56.000Z</time></trkpt><trkpt lon="5.719053" lat="51.042112"><ele>14.2</ele><time>2022-06-26T09:19:57.000Z</time></trkpt><trkpt lon="5.7191" lat="51.042188"><ele>14.2</ele><time>2022-06-26T09:19:58.000Z</time></trkpt><trkpt lon="5.719146" lat="51.042268"><ele>14</ele><time>2022-06-26T09:19:59.000Z</time></trkpt><trkpt lon="5.719186" lat="51.042343"><ele>14</ele><time>2022-06-26T09:20:00.000Z</time></trkpt><trkpt lon="5.719222" lat="51.042421"><ele>14</ele><time>2022-06-26T09:20:01.000Z</time></trkpt><trkpt lon="5.719254" lat="51.042502"><ele>14</ele><time>2022-06-26T09:20:02.000Z</time></trkpt><trkpt lon="5.719278" lat="51.042584"><ele>14</ele><time>2022-06-26T09:20:03.000Z</time></trkpt><trkpt lon="5.719298" lat="51.042663"><ele>14</ele><time>2022-06-26T09:20:04.000Z</time></trkpt><trkpt lon="5.719322" lat="51.04276"><ele>13.8</ele><time>2022-06-26T09:20:05.000Z</time></trkpt><trkpt lon="5.719342" lat="51.042849"><ele>13.8</ele><time>2022-06-26T09:20:06.000Z</time></trkpt><trkpt lon="5.719362" lat="51.042932"><ele>13.6</ele><time>2022-06-26T09:20:07.000Z</time></trkpt><trkpt lon="5.719384" lat="51.043016"><ele>13.8</ele><time>2022-06-26T09:20:08.000Z</time></trkpt><trkpt lon="5.719399" lat="51.043104"><ele>13.6</ele><time>2022-06-26T09:20:09.000Z</time></trkpt><trkpt lon="5.719409" lat="51.043192"><ele>13.6</ele><time>2022-06-26T09:20:10.000Z</time></trkpt><trkpt lon="5.719413" lat="51.043276"><ele>13.6</ele><time>2022-06-26T09:20:11.000Z</time></trkpt><trkpt lon="5.71941" lat="51.043356"><ele>13.6</ele><time>2022-06-26T09:20:12.000Z</time></trkpt><trkpt lon="5.719402" lat="51.043451"><ele>13.6</ele><time>2022-06-26T09:20:13.000Z</time></trkpt><trkpt lon="5.719393" lat="51.043536"><ele>13.6</ele><time>2022-06-26T09:20:14.000Z</time></trkpt><trkpt lon="5.719379" lat="51.043624"><ele>13.6</ele><time>2022-06-26T09:20:15.000Z</time></trkpt><trkpt lon="5.719366" lat="51.043707"><ele>13.6</ele><time>2022-06-26T09:20:16.000Z</time></trkpt><trkpt lon="5.71935" lat="51.04379"><ele>13.6</ele><time>2022-06-26T09:20:17.000Z</time></trkpt><trkpt lon="5.71933" lat="51.043872"><ele>13.8</ele><time>2022-06-26T09:20:18.000Z</time></trkpt><trkpt lon="5.719309" lat="51.043954"><ele>14</ele><time>2022-06-26T09:20:19.000Z</time></trkpt><trkpt lon="5.71929" lat="51.044038"><ele>14</ele><time>2022-06-26T09:20:20.000Z</time></trkpt><trkpt lon="5.719273" lat="51.044122"><ele>14.2</ele><time>2022-06-26T09:20:21.000Z</time></trkpt><trkpt lon="5.719263" lat="51.044206"><ele>14.2</ele><time>2022-06-26T09:20:22.000Z</time></trkpt><trkpt lon="5.719258" lat="51.044286"><ele>14.2</ele><time>2022-06-26T09:20:23.000Z</time></trkpt><trkpt lon="5.719255" lat="51.044354"><ele>14</ele><time>2022-06-26T09:20:24.000Z</time></trkpt><trkpt lon="5.719255" lat="51.044449"><ele>14</ele><time>2022-06-26T09:20:25.000Z</time></trkpt><trkpt lon="5.719262" lat="51.04453"><ele>14</ele><time>2022-06-26T09:20:26.000Z</time></trkpt><trkpt lon="5.719268" lat="51.044611"><ele>14.2</ele><time>2022-06-26T09:20:27.000Z</time></trkpt><trkpt lon="5.719272" lat="51.044688"><ele>14.2</ele><time>2022-06-26T09:20:28.000Z</time></trkpt><trkpt lon="5.719268" lat="51.04477"><ele>14.2</ele><time>2022-06-26T09:20:29.000Z</time></trkpt><trkpt lon="5.719253" lat="51.044851"><ele>14.4</ele><time>2022-06-26T09:20:30.000Z</time></trkpt><trkpt lon="5.719226" lat="51.044927"><ele>14.4</ele><time>2022-06-26T09:20:31.000Z</time></trkpt><trkpt lon="5.719189" lat="51.045007"><ele>14.4</ele><time>2022-06-26T09:20:32.000Z</time></trkpt><trkpt lon="5.719146" lat="51.045084"><ele>14.2</ele><time>2022-06-26T09:20:33.000Z</time></trkpt><trkpt lon="5.719095" lat="51.04516"><ele>14.2</ele><time>2022-06-26T09:20:34.000Z</time></trkpt><trkpt lon="5.719041" lat="51.045231"><ele>14.2</ele><time>2022-06-26T09:20:35.000Z</time></trkpt><trkpt lon="5.718984" lat="51.045305"><ele>14.2</ele><time>2022-06-26T09:20:36.000Z</time></trkpt><trkpt lon="5.718925" lat="51.045373"><ele>14.2</ele><time>2022-06-26T09:20:37.000Z</time></trkpt><trkpt lon="5.718866" lat="51.045445"><ele>14.2</ele><time>2022-06-26T09:20:38.000Z</time></trkpt><trkpt lon="5.718807" lat="51.045515"><ele>14.2</ele><time>2022-06-26T09:20:39.000Z</time></trkpt><trkpt lon="5.718755" lat="51.045588"><ele>14.2</ele><time>2022-06-26T09:20:40.000Z</time></trkpt><trkpt lon="5.7187" lat="51.045664"><ele>14.4</ele><time>2022-06-26T09:20:41.000Z</time></trkpt><trkpt lon="5.718649" lat="51.045736"><ele>14.4</ele><time>2022-06-26T09:20:42.000Z</time></trkpt><trkpt lon="5.718595" lat="51.045808"><ele>14.4</ele><time>2022-06-26T09:20:43.000Z</time></trkpt><trkpt lon="5.718543" lat="51.04588"><ele>14.4</ele><time>2022-06-26T09:20:44.000Z</time></trkpt><trkpt lon="5.718487" lat="51.045953"><ele>14.2</ele><time>2022-06-26T09:20:45.000Z</time></trkpt><trkpt lon="5.718438" lat="51.046027"><ele>14.2</ele><time>2022-06-26T09:20:46.000Z</time></trkpt><trkpt lon="5.718387" lat="51.0461"><ele>14.2</ele><time>2022-06-26T09:20:47.000Z</time></trkpt><trkpt lon="5.718342" lat="51.046162"><ele>14.2</ele><time>2022-06-26T09:20:48.000Z</time></trkpt><trkpt lon="5.71828" lat="51.04625"><ele>14.4</ele><time>2022-06-26T09:20:49.000Z</time></trkpt><trkpt lon="5.718224" lat="51.046324"><ele>14.4</ele><time>2022-06-26T09:20:50.000Z</time></trkpt><trkpt lon="5.718169" lat="51.046396"><ele>14.4</ele><time>2022-06-26T09:20:51.000Z</time></trkpt><trkpt lon="5.718112" lat="51.046472"><ele>14.4</ele><time>2022-06-26T09:20:52.000Z</time></trkpt><trkpt lon="5.718057" lat="51.046544"><ele>14.4</ele><time>2022-06-26T09:20:53.000Z</time></trkpt><trkpt lon="5.718002" lat="51.046621"><ele>14.4</ele><time>2022-06-26T09:20:54.000Z</time></trkpt><trkpt lon="5.717946" lat="51.046696"><ele>14.2</ele><time>2022-06-26T09:20:55.000Z</time></trkpt><trkpt lon="5.717891" lat="51.04677"><ele>14.2</ele><time>2022-06-26T09:20:56.000Z</time></trkpt><trkpt lon="5.717831" lat="51.046849"><ele>14.2</ele><time>2022-06-26T09:20:57.000Z</time></trkpt><trkpt lon="5.717772" lat="51.04693"><ele>14</ele><time>2022-06-26T09:20:58.000Z</time></trkpt><trkpt lon="5.717715" lat="51.047006"><ele>13.8</ele><time>2022-06-26T09:20:59.000Z</time></trkpt><trkpt lon="5.71766" lat="51.047079"><ele>13.8</ele><time>2022-06-26T09:21:00.000Z</time></trkpt><trkpt lon="5.717601" lat="51.047163"><ele>13.8</ele><time>2022-06-26T09:21:01.000Z</time></trkpt><trkpt lon="5.717544" lat="51.047238"><ele>13.8</ele><time>2022-06-26T09:21:02.000Z</time></trkpt><trkpt lon="5.717489" lat="51.047319"><ele>13.6</ele><time>2022-06-26T09:21:03.000Z</time></trkpt><trkpt lon="5.717432" lat="51.047394"><ele>13.4</ele><time>2022-06-26T09:21:04.000Z</time></trkpt><trkpt lon="5.717373" lat="51.047475"><ele>13.2</ele><time>2022-06-26T09:21:05.000Z</time></trkpt><trkpt lon="5.717314" lat="51.047552"><ele>13.2</ele><time>2022-06-26T09:21:06.000Z</time></trkpt><trkpt lon="5.717256" lat="51.047628"><ele>13.2</ele><time>2022-06-26T09:21:07.000Z</time></trkpt><trkpt lon="5.7172" lat="51.047707"><ele>13.4</ele><time>2022-06-26T09:21:08.000Z</time></trkpt><trkpt lon="5.717144" lat="51.047784"><ele>13.6</ele><time>2022-06-26T09:21:09.000Z</time></trkpt><trkpt lon="5.717089" lat="51.047857"><ele>13.4</ele><time>2022-06-26T09:21:10.000Z</time></trkpt><trkpt lon="5.717032" lat="51.047933"><ele>13.4</ele><time>2022-06-26T09:21:11.000Z</time></trkpt><trkpt lon="5.71698" lat="51.048003"><ele>13.6</ele><time>2022-06-26T09:21:12.000Z</time></trkpt><trkpt lon="5.716922" lat="51.048078"><ele>13.6</ele><time>2022-06-26T09:21:13.000Z</time></trkpt><trkpt lon="5.716868" lat="51.048159"><ele>13.6</ele><time>2022-06-26T09:21:14.000Z</time></trkpt><trkpt lon="5.716814" lat="51.048235"><ele>13.4</ele><time>2022-06-26T09:21:15.000Z</time></trkpt><trkpt lon="5.716756" lat="51.04831"><ele>13.4</ele><time>2022-06-26T09:21:16.000Z</time></trkpt><trkpt lon="5.716697" lat="51.048387"><ele>13.4</ele><time>2022-06-26T09:21:17.000Z</time></trkpt><trkpt lon="5.716642" lat="51.048467"><ele>13.6</ele><time>2022-06-26T09:21:18.000Z</time></trkpt><trkpt lon="5.716588" lat="51.048547"><ele>13.6</ele><time>2022-06-26T09:21:19.000Z</time></trkpt><trkpt lon="5.716531" lat="51.048623"><ele>13.4</ele><time>2022-06-26T09:21:20.000Z</time></trkpt><trkpt lon="5.716474" lat="51.0487"><ele>13.2</ele><time>2022-06-26T09:21:21.000Z</time></trkpt><trkpt lon="5.716416" lat="51.04878"><ele>13.2</ele><time>2022-06-26T09:21:22.000Z</time></trkpt><trkpt lon="5.716357" lat="51.048856"><ele>13.2</ele><time>2022-06-26T09:21:23.000Z</time></trkpt><trkpt lon="5.716299" lat="51.048932"><ele>13.2</ele><time>2022-06-26T09:21:24.000Z</time></trkpt><trkpt lon="5.716244" lat="51.049013"><ele>13.4</ele><time>2022-06-26T09:21:25.000Z</time></trkpt><trkpt lon="5.716189" lat="51.049089"><ele>13.4</ele><time>2022-06-26T09:21:26.000Z</time></trkpt><trkpt lon="5.716134" lat="51.049165"><ele>13.4</ele><time>2022-06-26T09:21:27.000Z</time></trkpt><trkpt lon="5.716075" lat="51.049242"><ele>13.4</ele><time>2022-06-26T09:21:28.000Z</time></trkpt><trkpt lon="5.716016" lat="51.049321"><ele>13.4</ele><time>2022-06-26T09:21:29.000Z</time></trkpt><trkpt lon="5.715957" lat="51.049398"><ele>13.4</ele><time>2022-06-26T09:21:30.000Z</time></trkpt><trkpt lon="5.715901" lat="51.049478"><ele>13.4</ele><time>2022-06-26T09:21:31.000Z</time></trkpt><trkpt lon="5.715846" lat="51.04955"><ele>13.4</ele><time>2022-06-26T09:21:32.000Z</time></trkpt><trkpt lon="5.715791" lat="51.049623"><ele>13.4</ele><time>2022-06-26T09:21:33.000Z</time></trkpt><trkpt lon="5.715741" lat="51.049695"><ele>13.2</ele><time>2022-06-26T09:21:34.000Z</time></trkpt><trkpt lon="5.71569" lat="51.049764"><ele>13.2</ele><time>2022-06-26T09:21:35.000Z</time></trkpt><trkpt lon="5.71564" lat="51.049829"><ele>13</ele><time>2022-06-26T09:21:36.000Z</time></trkpt><trkpt lon="5.715585" lat="51.049908"><ele>13</ele><time>2022-06-26T09:21:37.000Z</time></trkpt><trkpt lon="5.715529" lat="51.049986"><ele>13</ele><time>2022-06-26T09:21:38.000Z</time></trkpt><trkpt lon="5.71547" lat="51.050062"><ele>13</ele><time>2022-06-26T09:21:39.000Z</time></trkpt><trkpt lon="5.715416" lat="51.050135"><ele>13</ele><time>2022-06-26T09:21:40.000Z</time></trkpt><trkpt lon="5.715359" lat="51.050214"><ele>13</ele><time>2022-06-26T09:21:41.000Z</time></trkpt><trkpt lon="5.715307" lat="51.050287"><ele>13</ele><time>2022-06-26T09:21:42.000Z</time></trkpt><trkpt lon="5.715259" lat="51.050351"><ele>13.2</ele><time>2022-06-26T09:21:43.000Z</time></trkpt><trkpt lon="5.71522" lat="51.050408"><ele>13.2</ele><time>2022-06-26T09:21:44.000Z</time></trkpt><trkpt lon="5.715168" lat="51.05048"><ele>13.2</ele><time>2022-06-26T09:21:45.000Z</time></trkpt><trkpt lon="5.715126" lat="51.050534"><ele>13.2</ele><time>2022-06-26T09:21:46.000Z</time></trkpt><trkpt lon="5.715089" lat="51.050587"><ele>13.2</ele><time>2022-06-26T09:21:47.000Z</time></trkpt><trkpt lon="5.715058" lat="51.050635"><ele>13.2</ele><time>2022-06-26T09:21:48.000Z</time></trkpt><trkpt lon="5.715024" lat="51.050677"><ele>13.2</ele><time>2022-06-26T09:21:49.000Z</time></trkpt><trkpt lon="5.714991" lat="51.050721"><ele>13.2</ele><time>2022-06-26T09:21:50.000Z</time></trkpt><trkpt lon="5.714961" lat="51.050763"><ele>13.2</ele><time>2022-06-26T09:21:51.000Z</time></trkpt><trkpt lon="5.714931" lat="51.050805"><ele>13.2</ele><time>2022-06-26T09:21:52.000Z</time></trkpt><trkpt lon="5.714898" lat="51.050851"><ele>13.2</ele><time>2022-06-26T09:21:53.000Z</time></trkpt><trkpt lon="5.714859" lat="51.050901"><ele>13.2</ele><time>2022-06-26T09:21:54.000Z</time></trkpt><trkpt lon="5.714816" lat="51.050958"><ele>13</ele><time>2022-06-26T09:21:55.000Z</time></trkpt><trkpt lon="5.714771" lat="51.051011"><ele>13</ele><time>2022-06-26T09:21:56.000Z</time></trkpt><trkpt lon="5.714717" lat="51.051081"><ele>13</ele><time>2022-06-26T09:21:57.000Z</time></trkpt><trkpt lon="5.714667" lat="51.051149"><ele>13</ele><time>2022-06-26T09:21:58.000Z</time></trkpt><trkpt lon="5.714616" lat="51.051221"><ele>13</ele><time>2022-06-26T09:21:59.000Z</time></trkpt><trkpt lon="5.714568" lat="51.051284"><ele>13</ele><time>2022-06-26T09:22:00.000Z</time></trkpt><trkpt lon="5.714503" lat="51.051366"><ele>13</ele><time>2022-06-26T09:22:01.000Z</time></trkpt><trkpt lon="5.714446" lat="51.051442"><ele>13</ele><time>2022-06-26T09:22:02.000Z</time></trkpt><trkpt lon="5.714391" lat="51.051519"><ele>13</ele><time>2022-06-26T09:22:03.000Z</time></trkpt><trkpt lon="5.714336" lat="51.051598"><ele>12.8</ele><time>2022-06-26T09:22:04.000Z</time></trkpt><trkpt lon="5.714277" lat="51.051679"><ele>12.8</ele><time>2022-06-26T09:22:05.000Z</time></trkpt><trkpt lon="5.714219" lat="51.05176"><ele>12.8</ele><time>2022-06-26T09:22:06.000Z</time></trkpt><trkpt lon="5.714162" lat="51.051843"><ele>12.6</ele><time>2022-06-26T09:22:07.000Z</time></trkpt><trkpt lon="5.714105" lat="51.051922"><ele>12.6</ele><time>2022-06-26T09:22:08.000Z</time></trkpt><trkpt lon="5.714047" lat="51.052008"><ele>12.6</ele><time>2022-06-26T09:22:09.000Z</time></trkpt><trkpt lon="5.713989" lat="51.052084"><ele>12.6</ele><time>2022-06-26T09:22:10.000Z</time></trkpt><trkpt lon="5.71393" lat="51.05216"><ele>12.6</ele><time>2022-06-26T09:22:11.000Z</time></trkpt><trkpt lon="5.713876" lat="51.052233"><ele>12.8</ele><time>2022-06-26T09:22:12.000Z</time></trkpt><trkpt lon="5.713819" lat="51.052312"><ele>12.8</ele><time>2022-06-26T09:22:13.000Z</time></trkpt><trkpt lon="5.713767" lat="51.052389"><ele>12.8</ele><time>2022-06-26T09:22:14.000Z</time></trkpt><trkpt lon="5.713714" lat="51.052461"><ele>12.8</ele><time>2022-06-26T09:22:15.000Z</time></trkpt><trkpt lon="5.713662" lat="51.052532"><ele>12.8</ele><time>2022-06-26T09:22:16.000Z</time></trkpt><trkpt lon="5.713608" lat="51.052609"><ele>12.8</ele><time>2022-06-26T09:22:17.000Z</time></trkpt><trkpt lon="5.713554" lat="51.052683"><ele>12.8</ele><time>2022-06-26T09:22:18.000Z</time></trkpt><trkpt lon="5.713501" lat="51.052755"><ele>12.8</ele><time>2022-06-26T09:22:19.000Z</time></trkpt><trkpt lon="5.713447" lat="51.052824"><ele>13</ele><time>2022-06-26T09:22:20.000Z</time></trkpt><trkpt lon="5.713395" lat="51.0529"><ele>13</ele><time>2022-06-26T09:22:21.000Z</time></trkpt><trkpt lon="5.71334" lat="51.052969"><ele>13</ele><time>2022-06-26T09:22:22.000Z</time></trkpt><trkpt lon="5.713288" lat="51.053044"><ele>12.8</ele><time>2022-06-26T09:22:23.000Z</time></trkpt><trkpt lon="5.713241" lat="51.053107"><ele>12.8</ele><time>2022-06-26T09:22:24.000Z</time></trkpt><trkpt lon="5.713184" lat="51.053186"><ele>12.8</ele><time>2022-06-26T09:22:25.000Z</time></trkpt><trkpt lon="5.713131" lat="51.053255"><ele>12.8</ele><time>2022-06-26T09:22:26.000Z</time></trkpt><trkpt lon="5.713078" lat="51.053331"><ele>13</ele><time>2022-06-26T09:22:27.000Z</time></trkpt><trkpt lon="5.713031" lat="51.053396"><ele>13</ele><time>2022-06-26T09:22:28.000Z</time></trkpt><trkpt lon="5.712974" lat="51.053476"><ele>13</ele><time>2022-06-26T09:22:29.000Z</time></trkpt><trkpt lon="5.712922" lat="51.053547"><ele>13</ele><time>2022-06-26T09:22:30.000Z</time></trkpt><trkpt lon="5.712866" lat="51.05362"><ele>13</ele><time>2022-06-26T09:22:31.000Z</time></trkpt><trkpt lon="5.712814" lat="51.053691"><ele>13</ele><time>2022-06-26T09:22:32.000Z</time></trkpt><trkpt lon="5.712757" lat="51.05377"><ele>13.2</ele><time>2022-06-26T09:22:33.000Z</time></trkpt><trkpt lon="5.712704" lat="51.053838"><ele>13.2</ele><time>2022-06-26T09:22:34.000Z</time></trkpt><trkpt lon="5.712652" lat="51.053911"><ele>13.2</ele><time>2022-06-26T09:22:35.000Z</time></trkpt><trkpt lon="5.712602" lat="51.05398"><ele>13.2</ele><time>2022-06-26T09:22:36.000Z</time></trkpt><trkpt lon="5.712546" lat="51.054052"><ele>13.2</ele><time>2022-06-26T09:22:37.000Z</time></trkpt><trkpt lon="5.712496" lat="51.054125"><ele>13.4</ele><time>2022-06-26T09:22:38.000Z</time></trkpt><trkpt lon="5.712442" lat="51.054193"><ele>13.4</ele><time>2022-06-26T09:22:39.000Z</time></trkpt><trkpt lon="5.712391" lat="51.054259"><ele>13.4</ele><time>2022-06-26T09:22:40.000Z</time></trkpt><trkpt lon="5.712336" lat="51.054333"><ele>13.4</ele><time>2022-06-26T09:22:41.000Z</time></trkpt><trkpt lon="5.712281" lat="51.054406"><ele>13.4</ele><time>2022-06-26T09:22:42.000Z</time></trkpt><trkpt lon="5.712228" lat="51.054479"><ele>13.4</ele><time>2022-06-26T09:22:43.000Z</time></trkpt><trkpt lon="5.712184" lat="51.05454"><ele>13.4</ele><time>2022-06-26T09:22:44.000Z</time></trkpt><trkpt lon="5.712123" lat="51.054623"><ele>13.4</ele><time>2022-06-26T09:22:45.000Z</time></trkpt><trkpt lon="5.712068" lat="51.054696"><ele>13.6</ele><time>2022-06-26T09:22:46.000Z</time></trkpt><trkpt lon="5.712014" lat="51.054765"><ele>13.6</ele><time>2022-06-26T09:22:47.000Z</time></trkpt><trkpt lon="5.711963" lat="51.054841"><ele>13.6</ele><time>2022-06-26T09:22:48.000Z</time></trkpt><trkpt lon="5.711914" lat="51.054911"><ele>13.6</ele><time>2022-06-26T09:22:49.000Z</time></trkpt><trkpt lon="5.711862" lat="51.054979"><ele>13.6</ele><time>2022-06-26T09:22:50.000Z</time></trkpt><trkpt lon="5.711813" lat="51.055047"><ele>13.6</ele><time>2022-06-26T09:22:51.000Z</time></trkpt><trkpt lon="5.711764" lat="51.055114"><ele>13.6</ele><time>2022-06-26T09:22:52.000Z</time></trkpt><trkpt lon="5.711707" lat="51.055189"><ele>13.6</ele><time>2022-06-26T09:22:53.000Z</time></trkpt><trkpt lon="5.711652" lat="51.055258"><ele>13.6</ele><time>2022-06-26T09:22:54.000Z</time></trkpt><trkpt lon="5.711597" lat="51.05533"><ele>13.6</ele><time>2022-06-26T09:22:55.000Z</time></trkpt><trkpt lon="5.71154" lat="51.055397"><ele>13.6</ele><time>2022-06-26T09:22:56.000Z</time></trkpt><trkpt lon="5.711482" lat="51.055471"><ele>13.6</ele><time>2022-06-26T09:22:57.000Z</time></trkpt><trkpt lon="5.711424" lat="51.055543"><ele>13.6</ele><time>2022-06-26T09:22:58.000Z</time></trkpt><trkpt lon="5.711369" lat="51.055619"><ele>13.6</ele><time>2022-06-26T09:22:59.000Z</time></trkpt><trkpt lon="5.71132" lat="51.055686"><ele>13.6</ele><time>2022-06-26T09:23:00.000Z</time></trkpt><trkpt lon="5.711262" lat="51.055765"><ele>13.4</ele><time>2022-06-26T09:23:01.000Z</time></trkpt><trkpt lon="5.711208" lat="51.055843"><ele>13.4</ele><time>2022-06-26T09:23:02.000Z</time></trkpt><trkpt lon="5.711153" lat="51.05592"><ele>13.4</ele><time>2022-06-26T09:23:03.000Z</time></trkpt><trkpt lon="5.711098" lat="51.055994"><ele>13.2</ele><time>2022-06-26T09:23:04.000Z</time></trkpt><trkpt lon="5.71104" lat="51.056074"><ele>13.2</ele><time>2022-06-26T09:23:05.000Z</time></trkpt><trkpt lon="5.710982" lat="51.05615"><ele>13.2</ele><time>2022-06-26T09:23:06.000Z</time></trkpt><trkpt lon="5.710926" lat="51.056226"><ele>13</ele><time>2022-06-26T09:23:07.000Z</time></trkpt><trkpt lon="5.710872" lat="51.0563"><ele>13</ele><time>2022-06-26T09:23:08.000Z</time></trkpt><trkpt lon="5.710819" lat="51.056379"><ele>13</ele><time>2022-06-26T09:23:09.000Z</time></trkpt><trkpt lon="5.710767" lat="51.056452"><ele>13</ele><time>2022-06-26T09:23:10.000Z</time></trkpt><trkpt lon="5.710717" lat="51.05653"><ele>13</ele><time>2022-06-26T09:23:11.000Z</time></trkpt><trkpt lon="5.710663" lat="51.0566"><ele>13</ele><time>2022-06-26T09:23:12.000Z</time></trkpt><trkpt lon="5.710606" lat="51.05668"><ele>13</ele><time>2022-06-26T09:23:13.000Z</time></trkpt><trkpt lon="5.710552" lat="51.056753"><ele>13</ele><time>2022-06-26T09:23:14.000Z</time></trkpt><trkpt lon="5.710499" lat="51.056825"><ele>13</ele><time>2022-06-26T09:23:15.000Z</time></trkpt><trkpt lon="5.710445" lat="51.056897"><ele>13</ele><time>2022-06-26T09:23:16.000Z</time></trkpt><trkpt lon="5.710392" lat="51.056974"><ele>13</ele><time>2022-06-26T09:23:17.000Z</time></trkpt><trkpt lon="5.71034" lat="51.057047"><ele>13</ele><time>2022-06-26T09:23:18.000Z</time></trkpt><trkpt lon="5.710291" lat="51.057119"><ele>13</ele><time>2022-06-26T09:23:19.000Z</time></trkpt><trkpt lon="5.710235" lat="51.057191"><ele>13</ele><time>2022-06-26T09:23:20.000Z</time></trkpt><trkpt lon="5.710182" lat="51.057261"><ele>13</ele><time>2022-06-26T09:23:21.000Z</time></trkpt><trkpt lon="5.710129" lat="51.057333"><ele>13</ele><time>2022-06-26T09:23:22.000Z</time></trkpt><trkpt lon="5.710076" lat="51.057405"><ele>13</ele><time>2022-06-26T09:23:23.000Z</time></trkpt><trkpt lon="5.710029" lat="51.057467"><ele>13</ele><time>2022-06-26T09:23:24.000Z</time></trkpt><trkpt lon="5.709974" lat="51.057546"><ele>13</ele><time>2022-06-26T09:23:25.000Z</time></trkpt><trkpt lon="5.709922" lat="51.057614"><ele>13.2</ele><time>2022-06-26T09:23:26.000Z</time></trkpt><trkpt lon="5.709871" lat="51.057679"><ele>13.2</ele><time>2022-06-26T09:23:27.000Z</time></trkpt><trkpt lon="5.709821" lat="51.057745"><ele>13</ele><time>2022-06-26T09:23:28.000Z</time></trkpt><trkpt lon="5.709767" lat="51.057821"><ele>13</ele><time>2022-06-26T09:23:29.000Z</time></trkpt><trkpt lon="5.709716" lat="51.057893"><ele>13</ele><time>2022-06-26T09:23:30.000Z</time></trkpt><trkpt lon="5.709659" lat="51.057958"><ele>13.2</ele><time>2022-06-26T09:23:31.000Z</time></trkpt><trkpt lon="5.709607" lat="51.058019"><ele>13.2</ele><time>2022-06-26T09:23:32.000Z</time></trkpt><trkpt lon="5.709554" lat="51.058091"><ele>13.2</ele><time>2022-06-26T09:23:33.000Z</time></trkpt><trkpt lon="5.709501" lat="51.058164"><ele>13.2</ele><time>2022-06-26T09:23:34.000Z</time></trkpt><trkpt lon="5.709445" lat="51.058229"><ele>13.4</ele><time>2022-06-26T09:23:35.000Z</time></trkpt><trkpt lon="5.709396" lat="51.058293"><ele>13.4</ele><time>2022-06-26T09:23:36.000Z</time></trkpt><trkpt lon="5.709347" lat="51.058358"><ele>13.4</ele><time>2022-06-26T09:23:37.000Z</time></trkpt><trkpt lon="5.709297" lat="51.058431"><ele>13.4</ele><time>2022-06-26T09:23:38.000Z</time></trkpt><trkpt lon="5.709244" lat="51.0585"><ele>13.4</ele><time>2022-06-26T09:23:39.000Z</time></trkpt><trkpt lon="5.709188" lat="51.058566"><ele>13.4</ele><time>2022-06-26T09:23:40.000Z</time></trkpt><trkpt lon="5.709135" lat="51.058632"><ele>13.4</ele><time>2022-06-26T09:23:41.000Z</time></trkpt><trkpt lon="5.709079" lat="51.058698"><ele>13.4</ele><time>2022-06-26T09:23:42.000Z</time></trkpt><trkpt lon="5.709029" lat="51.058759"><ele>13.4</ele><time>2022-06-26T09:23:43.000Z</time></trkpt><trkpt lon="5.70899" lat="51.058812"><ele>13.4</ele><time>2022-06-26T09:23:44.000Z</time></trkpt><trkpt lon="5.708939" lat="51.058881"><ele>13.6</ele><time>2022-06-26T09:23:45.000Z</time></trkpt><trkpt lon="5.708893" lat="51.058941"><ele>13.6</ele><time>2022-06-26T09:23:46.000Z</time></trkpt><trkpt lon="5.708845" lat="51.059007"><ele>13.4</ele><time>2022-06-26T09:23:47.000Z</time></trkpt><trkpt lon="5.708802" lat="51.059075"><ele>13.4</ele><time>2022-06-26T09:23:48.000Z</time></trkpt><trkpt lon="5.708759" lat="51.059149"><ele>13.6</ele><time>2022-06-26T09:23:49.000Z</time></trkpt><trkpt lon="5.708721" lat="51.059221"><ele>13.6</ele><time>2022-06-26T09:23:50.000Z</time></trkpt><trkpt lon="5.708688" lat="51.059292"><ele>13.6</ele><time>2022-06-26T09:23:51.000Z</time></trkpt><trkpt lon="5.70866" lat="51.05936"><ele>13.6</ele><time>2022-06-26T09:23:52.000Z</time></trkpt><trkpt lon="5.70863" lat="51.059434"><ele>13.6</ele><time>2022-06-26T09:23:53.000Z</time></trkpt><trkpt lon="5.708607" lat="51.059506"><ele>13.6</ele><time>2022-06-26T09:23:54.000Z</time></trkpt><trkpt lon="5.708588" lat="51.059579"><ele>13.8</ele><time>2022-06-26T09:23:55.000Z</time></trkpt><trkpt lon="5.708575" lat="51.059645"><ele>13.8</ele><time>2022-06-26T09:23:56.000Z</time></trkpt><trkpt lon="5.708556" lat="51.059713"><ele>14</ele><time>2022-06-26T09:23:57.000Z</time></trkpt><trkpt lon="5.708539" lat="51.059769"><ele>14.2</ele><time>2022-06-26T09:23:58.000Z</time></trkpt><trkpt lon="5.708526" lat="51.059834"><ele>14.4</ele><time>2022-06-26T09:23:59.000Z</time></trkpt><trkpt lon="5.708517" lat="51.05989"><ele>14.4</ele><time>2022-06-26T09:24:00.000Z</time></trkpt><trkpt lon="5.7085" lat="51.05996"><ele>14.6</ele><time>2022-06-26T09:24:01.000Z</time></trkpt><trkpt lon="5.708486" lat="51.060026"><ele>14.6</ele><time>2022-06-26T09:24:02.000Z</time></trkpt><trkpt lon="5.708465" lat="51.060101"><ele>14.6</ele><time>2022-06-26T09:24:03.000Z</time></trkpt><trkpt lon="5.708449" lat="51.060157"><ele>14.6</ele><time>2022-06-26T09:24:04.000Z</time></trkpt><trkpt lon="5.708432" lat="51.060227"><ele>14.8</ele><time>2022-06-26T09:24:05.000Z</time></trkpt><trkpt lon="5.708423" lat="51.06028"><ele>14.8</ele><time>2022-06-26T09:24:06.000Z</time></trkpt><trkpt lon="5.708422" lat="51.06033"><ele>15</ele><time>2022-06-26T09:24:07.000Z</time></trkpt><trkpt lon="5.708416" lat="51.060387"><ele>15</ele><time>2022-06-26T09:24:08.000Z</time></trkpt><trkpt lon="5.708408" lat="51.060448"><ele>15</ele><time>2022-06-26T09:24:09.000Z</time></trkpt><trkpt lon="5.708405" lat="51.06051"><ele>15.2</ele><time>2022-06-26T09:24:10.000Z</time></trkpt><trkpt lon="5.7084" lat="51.060571"><ele>15.4</ele><time>2022-06-26T09:24:11.000Z</time></trkpt><trkpt lon="5.708395" lat="51.06063"><ele>15.4</ele><time>2022-06-26T09:24:12.000Z</time></trkpt><trkpt lon="5.708387" lat="51.060689"><ele>15.6</ele><time>2022-06-26T09:24:13.000Z</time></trkpt><trkpt lon="5.708375" lat="51.060746"><ele>15.6</ele><time>2022-06-26T09:24:14.000Z</time></trkpt><trkpt lon="5.708362" lat="51.060796"><ele>15.6</ele><time>2022-06-26T09:24:15.000Z</time></trkpt><trkpt lon="5.708354" lat="51.060843"><ele>15.8</ele><time>2022-06-26T09:24:16.000Z</time></trkpt><trkpt lon="5.708347" lat="51.060899"><ele>15.6</ele><time>2022-06-26T09:24:17.000Z</time></trkpt><trkpt lon="5.70834" lat="51.060952"><ele>15.6</ele><time>2022-06-26T09:24:18.000Z</time></trkpt><trkpt lon="5.70833" lat="51.061006"><ele>15.6</ele><time>2022-06-26T09:24:19.000Z</time></trkpt><trkpt lon="5.708317" lat="51.061063"><ele>15.6</ele><time>2022-06-26T09:24:20.000Z</time></trkpt><trkpt lon="5.708308" lat="51.061124"><ele>15.6</ele><time>2022-06-26T09:24:21.000Z</time></trkpt><trkpt lon="5.708298" lat="51.061192"><ele>15.6</ele><time>2022-06-26T09:24:22.000Z</time></trkpt><trkpt lon="5.708288" lat="51.061265"><ele>15.6</ele><time>2022-06-26T09:24:23.000Z</time></trkpt><trkpt lon="5.708282" lat="51.061327"><ele>15.6</ele><time>2022-06-26T09:24:24.000Z</time></trkpt><trkpt lon="5.708277" lat="51.061402"><ele>15.6</ele><time>2022-06-26T09:24:25.000Z</time></trkpt><trkpt lon="5.708264" lat="51.061469"><ele>15.8</ele><time>2022-06-26T09:24:26.000Z</time></trkpt><trkpt lon="5.708248" lat="51.061536"><ele>15.8</ele><time>2022-06-26T09:24:27.000Z</time></trkpt><trkpt lon="5.708237" lat="51.061609"><ele>15.6</ele><time>2022-06-26T09:24:28.000Z</time></trkpt><trkpt lon="5.708223" lat="51.061693"><ele>15.6</ele><time>2022-06-26T09:24:29.000Z</time></trkpt><trkpt lon="5.708206" lat="51.061776"><ele>15.6</ele><time>2022-06-26T09:24:30.000Z</time></trkpt><trkpt lon="5.708188" lat="51.061867"><ele>15.4</ele><time>2022-06-26T09:24:31.000Z</time></trkpt><trkpt lon="5.708171" lat="51.061943"><ele>15.4</ele><time>2022-06-26T09:24:32.000Z</time></trkpt><trkpt lon="5.70815" lat="51.062036"><ele>15.2</ele><time>2022-06-26T09:24:33.000Z</time></trkpt><trkpt lon="5.708129" lat="51.062116"><ele>15.2</ele><time>2022-06-26T09:24:34.000Z</time></trkpt><trkpt lon="5.708108" lat="51.062208"><ele>15</ele><time>2022-06-26T09:24:35.000Z</time></trkpt><trkpt lon="5.70808" lat="51.062294"><ele>15</ele><time>2022-06-26T09:24:36.000Z</time></trkpt><trkpt lon="5.708056" lat="51.062383"><ele>15</ele><time>2022-06-26T09:24:37.000Z</time></trkpt><trkpt lon="5.708033" lat="51.062467"><ele>15</ele><time>2022-06-26T09:24:38.000Z</time></trkpt><trkpt lon="5.708015" lat="51.062532"><ele>15</ele><time>2022-06-26T09:24:39.000Z</time></trkpt><trkpt lon="5.707993" lat="51.06262"><ele>15</ele><time>2022-06-26T09:24:40.000Z</time></trkpt><trkpt lon="5.707961" lat="51.062699"><ele>14.8</ele><time>2022-06-26T09:24:41.000Z</time></trkpt><trkpt lon="5.70794" lat="51.062776"><ele>14.6</ele><time>2022-06-26T09:24:42.000Z</time></trkpt><trkpt lon="5.707927" lat="51.062851"><ele>14.6</ele><time>2022-06-26T09:24:43.000Z</time></trkpt><trkpt lon="5.707913" lat="51.062921"><ele>14.4</ele><time>2022-06-26T09:24:44.000Z</time></trkpt><trkpt lon="5.707896" lat="51.062989"><ele>14.4</ele><time>2022-06-26T09:24:45.000Z</time></trkpt><trkpt lon="5.707876" lat="51.06307"><ele>14.2</ele><time>2022-06-26T09:24:46.000Z</time></trkpt><trkpt lon="5.707857" lat="51.063172"><ele>14.2</ele><time>2022-06-26T09:24:47.000Z</time></trkpt><trkpt lon="5.707836" lat="51.063269"><ele>14.2</ele><time>2022-06-26T09:24:48.000Z</time></trkpt><trkpt lon="5.707816" lat="51.063374"><ele>14.2</ele><time>2022-06-26T09:24:49.000Z</time></trkpt><trkpt lon="5.707792" lat="51.063452"><ele>14.2</ele><time>2022-06-26T09:24:50.000Z</time></trkpt><trkpt lon="5.707768" lat="51.063536"><ele>14</ele><time>2022-06-26T09:24:51.000Z</time></trkpt><trkpt lon="5.707752" lat="51.063619"><ele>14</ele><time>2022-06-26T09:24:52.000Z</time></trkpt><trkpt lon="5.707746" lat="51.063691"><ele>14</ele><time>2022-06-26T09:24:53.000Z</time></trkpt><trkpt lon="5.707741" lat="51.063742"><ele>14.2</ele><time>2022-06-26T09:24:54.000Z</time></trkpt><trkpt lon="5.707732" lat="51.063837"><ele>14</ele><time>2022-06-26T09:24:55.000Z</time></trkpt><trkpt lon="5.707727" lat="51.063909"><ele>14</ele><time>2022-06-26T09:24:56.000Z</time></trkpt><trkpt lon="5.707722" lat="51.063978"><ele>14</ele><time>2022-06-26T09:24:57.000Z</time></trkpt><trkpt lon="5.707718" lat="51.064043"><ele>14</ele><time>2022-06-26T09:24:58.000Z</time></trkpt><trkpt lon="5.70771" lat="51.064111"><ele>14</ele><time>2022-06-26T09:24:59.000Z</time></trkpt><trkpt lon="5.707699" lat="51.064188"><ele>14</ele><time>2022-06-26T09:25:00.000Z</time></trkpt><trkpt lon="5.707682" lat="51.064262"><ele>14</ele><time>2022-06-26T09:25:01.000Z</time></trkpt><trkpt lon="5.707664" lat="51.064336"><ele>14</ele><time>2022-06-26T09:25:02.000Z</time></trkpt><trkpt lon="5.70765" lat="51.064413"><ele>14</ele><time>2022-06-26T09:25:03.000Z</time></trkpt><trkpt lon="5.707635" lat="51.064493"><ele>14</ele><time>2022-06-26T09:25:04.000Z</time></trkpt><trkpt lon="5.70762" lat="51.064581"><ele>14</ele><time>2022-06-26T09:25:05.000Z</time></trkpt><trkpt lon="5.707611" lat="51.06466"><ele>14.2</ele><time>2022-06-26T09:25:06.000Z</time></trkpt><trkpt lon="5.707601" lat="51.06476"><ele>14</ele><time>2022-06-26T09:25:07.000Z</time></trkpt><trkpt lon="5.707584" lat="51.064841"><ele>14</ele><time>2022-06-26T09:25:08.000Z</time></trkpt><trkpt lon="5.707566" lat="51.06497"><ele>14.2</ele><time>2022-06-26T09:25:09.000Z</time></trkpt><trkpt lon="5.707544" lat="51.065058"><ele>14.2</ele><time>2022-06-26T09:25:10.000Z</time></trkpt><trkpt lon="5.70751" lat="51.065163"><ele>14</ele><time>2022-06-26T09:25:11.000Z</time></trkpt><trkpt lon="5.707491" lat="51.065266"><ele>14</ele><time>2022-06-26T09:25:12.000Z</time></trkpt><trkpt lon="5.707462" lat="51.065408"><ele>14</ele><time>2022-06-26T09:25:13.000Z</time></trkpt><trkpt lon="5.707438" lat="51.06553"><ele>14</ele><time>2022-06-26T09:25:14.000Z</time></trkpt><trkpt lon="5.707419" lat="51.065646"><ele>14</ele><time>2022-06-26T09:25:15.000Z</time></trkpt><trkpt lon="5.707398" lat="51.065756"><ele>14</ele><time>2022-06-26T09:25:16.000Z</time></trkpt><trkpt lon="5.707381" lat="51.065858"><ele>14</ele><time>2022-06-26T09:25:17.000Z</time></trkpt><trkpt lon="5.707363" lat="51.065958"><ele>14</ele><time>2022-06-26T09:25:18.000Z</time></trkpt><trkpt lon="5.707349" lat="51.06604"><ele>14.2</ele><time>2022-06-26T09:25:19.000Z</time></trkpt><trkpt lon="5.707333" lat="51.066137"><ele>14.2</ele><time>2022-06-26T09:25:20.000Z</time></trkpt><trkpt lon="5.707319" lat="51.066223"><ele>14.2</ele><time>2022-06-26T09:25:21.000Z</time></trkpt><trkpt lon="5.707301" lat="51.066321"><ele>14.2</ele><time>2022-06-26T09:25:22.000Z</time></trkpt><trkpt lon="5.707283" lat="51.066408"><ele>14.2</ele><time>2022-06-26T09:25:23.000Z</time></trkpt><trkpt lon="5.707267" lat="51.066491"><ele>14.2</ele><time>2022-06-26T09:25:24.000Z</time></trkpt><trkpt lon="5.707252" lat="51.066571"><ele>14.2</ele><time>2022-06-26T09:25:25.000Z</time></trkpt><trkpt lon="5.707235" lat="51.066651"><ele>14.2</ele><time>2022-06-26T09:25:26.000Z</time></trkpt><trkpt lon="5.707224" lat="51.066713"><ele>14.2</ele><time>2022-06-26T09:25:27.000Z</time></trkpt><trkpt lon="5.707208" lat="51.0668"><ele>14.2</ele><time>2022-06-26T09:25:28.000Z</time></trkpt><trkpt lon="5.707195" lat="51.066874"><ele>14.2</ele><time>2022-06-26T09:25:29.000Z</time></trkpt><trkpt lon="5.70718" lat="51.066957"><ele>14.2</ele><time>2022-06-26T09:25:30.000Z</time></trkpt><trkpt lon="5.707164" lat="51.067033"><ele>14.2</ele><time>2022-06-26T09:25:31.000Z</time></trkpt><trkpt lon="5.707146" lat="51.067121"><ele>14.2</ele><time>2022-06-26T09:25:32.000Z</time></trkpt><trkpt lon="5.70713" lat="51.067205"><ele>14.2</ele><time>2022-06-26T09:25:33.000Z</time></trkpt><trkpt lon="5.707113" lat="51.067296"><ele>14.2</ele><time>2022-06-26T09:25:34.000Z</time></trkpt><trkpt lon="5.7071" lat="51.067372"><ele>14</ele><time>2022-06-26T09:25:35.000Z</time></trkpt><trkpt lon="5.707083" lat="51.067468"><ele>14</ele><time>2022-06-26T09:25:36.000Z</time></trkpt><trkpt lon="5.707069" lat="51.067552"><ele>14</ele><time>2022-06-26T09:25:37.000Z</time></trkpt><trkpt lon="5.707055" lat="51.06764"><ele>14</ele><time>2022-06-26T09:25:38.000Z</time></trkpt><trkpt lon="5.70704" lat="51.067718"><ele>14</ele><time>2022-06-26T09:25:39.000Z</time></trkpt><trkpt lon="5.707026" lat="51.067803"><ele>14.2</ele><time>2022-06-26T09:25:40.000Z</time></trkpt><trkpt lon="5.707012" lat="51.067887"><ele>14.2</ele><time>2022-06-26T09:25:41.000Z</time></trkpt><trkpt lon="5.706998" lat="51.067967"><ele>14.2</ele><time>2022-06-26T09:25:42.000Z</time></trkpt><trkpt lon="5.706984" lat="51.068039"><ele>14.4</ele><time>2022-06-26T09:25:43.000Z</time></trkpt><trkpt lon="5.70697" lat="51.068124"><ele>14.4</ele><time>2022-06-26T09:25:44.000Z</time></trkpt><trkpt lon="5.706955" lat="51.068204"><ele>14.6</ele><time>2022-06-26T09:25:45.000Z</time></trkpt><trkpt lon="5.70694" lat="51.06828"><ele>14.6</ele><time>2022-06-26T09:25:46.000Z</time></trkpt><trkpt lon="5.706925" lat="51.068354"><ele>14.8</ele><time>2022-06-26T09:25:47.000Z</time></trkpt><trkpt lon="5.706907" lat="51.068437"><ele>14.8</ele><time>2022-06-26T09:25:48.000Z</time></trkpt><trkpt lon="5.70689" lat="51.068508"><ele>15</ele><time>2022-06-26T09:25:49.000Z</time></trkpt><trkpt lon="5.70687" lat="51.068593"><ele>15.2</ele><time>2022-06-26T09:25:50.000Z</time></trkpt><trkpt lon="5.706851" lat="51.068673"><ele>15.2</ele><time>2022-06-26T09:25:51.000Z</time></trkpt><trkpt lon="5.706835" lat="51.068753"><ele>15.2</ele><time>2022-06-26T09:25:52.000Z</time></trkpt><trkpt lon="5.70682" lat="51.068834"><ele>15.2</ele><time>2022-06-26T09:25:53.000Z</time></trkpt><trkpt lon="5.706805" lat="51.068909"><ele>15.2</ele><time>2022-06-26T09:25:54.000Z</time></trkpt><trkpt lon="5.706792" lat="51.068976"><ele>15.2</ele><time>2022-06-26T09:25:55.000Z</time></trkpt><trkpt lon="5.706773" lat="51.06907"><ele>15.2</ele><time>2022-06-26T09:25:56.000Z</time></trkpt><trkpt lon="5.706755" lat="51.069151"><ele>15.2</ele><time>2022-06-26T09:25:57.000Z</time></trkpt><trkpt lon="5.706736" lat="51.069234"><ele>15.2</ele><time>2022-06-26T09:25:58.000Z</time></trkpt><trkpt lon="5.706722" lat="51.06931"><ele>15.2</ele><time>2022-06-26T09:25:59.000Z</time></trkpt><trkpt lon="5.706706" lat="51.069394"><ele>15.2</ele><time>2022-06-26T09:26:00.000Z</time></trkpt><trkpt lon="5.706692" lat="51.069468"><ele>15.2</ele><time>2022-06-26T09:26:01.000Z</time></trkpt><trkpt lon="5.706678" lat="51.069551"><ele>15.2</ele><time>2022-06-26T09:26:02.000Z</time></trkpt><trkpt lon="5.706664" lat="51.069625"><ele>15.2</ele><time>2022-06-26T09:26:03.000Z</time></trkpt><trkpt lon="5.706646" lat="51.069711"><ele>15.2</ele><time>2022-06-26T09:26:04.000Z</time></trkpt><trkpt lon="5.706631" lat="51.069791"><ele>15.2</ele><time>2022-06-26T09:26:05.000Z</time></trkpt><trkpt lon="5.706615" lat="51.069871"><ele>15.2</ele><time>2022-06-26T09:26:06.000Z</time></trkpt><trkpt lon="5.706599" lat="51.069945"><ele>15.2</ele><time>2022-06-26T09:26:07.000Z</time></trkpt><trkpt lon="5.706576" lat="51.070036"><ele>15.2</ele><time>2022-06-26T09:26:08.000Z</time></trkpt><trkpt lon="5.70656" lat="51.070114"><ele>15.2</ele><time>2022-06-26T09:26:09.000Z</time></trkpt><trkpt lon="5.706545" lat="51.070195"><ele>15.2</ele><time>2022-06-26T09:26:10.000Z</time></trkpt><trkpt lon="5.706533" lat="51.070267"><ele>15</ele><time>2022-06-26T09:26:11.000Z</time></trkpt><trkpt lon="5.706515" lat="51.070352"><ele>15</ele><time>2022-06-26T09:26:12.000Z</time></trkpt><trkpt lon="5.706497" lat="51.070427"><ele>15</ele><time>2022-06-26T09:26:13.000Z</time></trkpt><trkpt lon="5.706478" lat="51.070509"><ele>15</ele><time>2022-06-26T09:26:14.000Z</time></trkpt><trkpt lon="5.706462" lat="51.070584"><ele>15</ele><time>2022-06-26T09:26:15.000Z</time></trkpt><trkpt lon="5.706446" lat="51.070669"><ele>15</ele><time>2022-06-26T09:26:16.000Z</time></trkpt><trkpt lon="5.70643" lat="51.070752"><ele>15</ele><time>2022-06-26T09:26:17.000Z</time></trkpt><trkpt lon="5.706413" lat="51.070829"><ele>15</ele><time>2022-06-26T09:26:18.000Z</time></trkpt><trkpt lon="5.7064" lat="51.070905"><ele>15</ele><time>2022-06-26T09:26:19.000Z</time></trkpt><trkpt lon="5.706385" lat="51.070993"><ele>14.8</ele><time>2022-06-26T09:26:20.000Z</time></trkpt><trkpt lon="5.706371" lat="51.071074"><ele>14.6</ele><time>2022-06-26T09:26:21.000Z</time></trkpt><trkpt lon="5.706358" lat="51.071153"><ele>14.6</ele><time>2022-06-26T09:26:22.000Z</time></trkpt><trkpt lon="5.706343" lat="51.071233"><ele>14.6</ele><time>2022-06-26T09:26:23.000Z</time></trkpt><trkpt lon="5.706328" lat="51.07131"><ele>14.6</ele><time>2022-06-26T09:26:24.000Z</time></trkpt><trkpt lon="5.706315" lat="51.071393"><ele>14.6</ele><time>2022-06-26T09:26:25.000Z</time></trkpt><trkpt lon="5.706303" lat="51.071477"><ele>14.6</ele><time>2022-06-26T09:26:26.000Z</time></trkpt><trkpt lon="5.706286" lat="51.071561"><ele>14.6</ele><time>2022-06-26T09:26:27.000Z</time></trkpt><trkpt lon="5.706268" lat="51.071645"><ele>14.6</ele><time>2022-06-26T09:26:28.000Z</time></trkpt><trkpt lon="5.706245" lat="51.071729"><ele>14.6</ele><time>2022-06-26T09:26:29.000Z</time></trkpt><trkpt lon="5.706225" lat="51.071809"><ele>14.6</ele><time>2022-06-26T09:26:30.000Z</time></trkpt><trkpt lon="5.706211" lat="51.071873"><ele>14.8</ele><time>2022-06-26T09:26:31.000Z</time></trkpt><trkpt lon="5.706191" lat="51.07197"><ele>14.6</ele><time>2022-06-26T09:26:32.000Z</time></trkpt><trkpt lon="5.706177" lat="51.072047"><ele>14.6</ele><time>2022-06-26T09:26:33.000Z</time></trkpt><trkpt lon="5.706161" lat="51.072126"><ele>14.6</ele><time>2022-06-26T09:26:34.000Z</time></trkpt><trkpt lon="5.706142" lat="51.072201"><ele>14.6</ele><time>2022-06-26T09:26:35.000Z</time></trkpt><trkpt lon="5.70613" lat="51.07229"><ele>14.6</ele><time>2022-06-26T09:26:36.000Z</time></trkpt><trkpt lon="5.706115" lat="51.072367"><ele>14.6</ele><time>2022-06-26T09:26:37.000Z</time></trkpt><trkpt lon="5.706102" lat="51.07245"><ele>14.6</ele><time>2022-06-26T09:26:38.000Z</time></trkpt><trkpt lon="5.706088" lat="51.072519"><ele>14.6</ele><time>2022-06-26T09:26:39.000Z</time></trkpt><trkpt lon="5.70608" lat="51.072607"><ele>14.4</ele><time>2022-06-26T09:26:40.000Z</time></trkpt><trkpt lon="5.706075" lat="51.072676"><ele>14.4</ele><time>2022-06-26T09:26:41.000Z</time></trkpt><trkpt lon="5.706066" lat="51.072755"><ele>14.2</ele><time>2022-06-26T09:26:42.000Z</time></trkpt><trkpt lon="5.706054" lat="51.072825"><ele>14.2</ele><time>2022-06-26T09:26:43.000Z</time></trkpt><trkpt lon="5.70604" lat="51.072912"><ele>14.2</ele><time>2022-06-26T09:26:44.000Z</time></trkpt><trkpt lon="5.706025" lat="51.072994"><ele>14.4</ele><time>2022-06-26T09:26:45.000Z</time></trkpt><trkpt lon="5.706012" lat="51.073076"><ele>14.4</ele><time>2022-06-26T09:26:46.000Z</time></trkpt><trkpt lon="5.705999" lat="51.073153"><ele>14.4</ele><time>2022-06-26T09:26:47.000Z</time></trkpt><trkpt lon="5.705995" lat="51.07324"><ele>14.4</ele><time>2022-06-26T09:26:48.000Z</time></trkpt><trkpt lon="5.706002" lat="51.073308"><ele>14.4</ele><time>2022-06-26T09:26:49.000Z</time></trkpt><trkpt lon="5.706023" lat="51.073401"><ele>14.2</ele><time>2022-06-26T09:26:50.000Z</time></trkpt><trkpt lon="5.706048" lat="51.073477"><ele>14.2</ele><time>2022-06-26T09:26:51.000Z</time></trkpt><trkpt lon="5.706086" lat="51.073556"><ele>14.2</ele><time>2022-06-26T09:26:52.000Z</time></trkpt><trkpt lon="5.706119" lat="51.073637"><ele>14.4</ele><time>2022-06-26T09:26:53.000Z</time></trkpt><trkpt lon="5.706152" lat="51.073716"><ele>14.4</ele><time>2022-06-26T09:26:54.000Z</time></trkpt><trkpt lon="5.706183" lat="51.073777"><ele>14.6</ele><time>2022-06-26T09:26:55.000Z</time></trkpt><trkpt lon="5.706229" lat="51.073873"><ele>14.6</ele><time>2022-06-26T09:26:56.000Z</time></trkpt><trkpt lon="5.706265" lat="51.073944"><ele>14.8</ele><time>2022-06-26T09:26:57.000Z</time></trkpt><trkpt lon="5.706302" lat="51.074022"><ele>14.8</ele><time>2022-06-26T09:26:58.000Z</time></trkpt><trkpt lon="5.706333" lat="51.074091"><ele>14.8</ele><time>2022-06-26T09:26:59.000Z</time></trkpt><trkpt lon="5.70637" lat="51.074174"><ele>14.8</ele><time>2022-06-26T09:27:00.000Z</time></trkpt><trkpt lon="5.706409" lat="51.074247"><ele>15</ele><time>2022-06-26T09:27:01.000Z</time></trkpt><trkpt lon="5.706447" lat="51.074323"><ele>15</ele><time>2022-06-26T09:27:02.000Z</time></trkpt><trkpt lon="5.706481" lat="51.074396"><ele>15</ele><time>2022-06-26T09:27:03.000Z</time></trkpt><trkpt lon="5.706522" lat="51.074479"><ele>15</ele><time>2022-06-26T09:27:04.000Z</time></trkpt><trkpt lon="5.70656" lat="51.074552"><ele>15</ele><time>2022-06-26T09:27:05.000Z</time></trkpt><trkpt lon="5.706606" lat="51.074632"><ele>15</ele><time>2022-06-26T09:27:06.000Z</time></trkpt><trkpt lon="5.706642" lat="51.074706"><ele>15</ele><time>2022-06-26T09:27:07.000Z</time></trkpt><trkpt lon="5.706684" lat="51.074789"><ele>15</ele><time>2022-06-26T09:27:08.000Z</time></trkpt><trkpt lon="5.706719" lat="51.074864"><ele>15</ele><time>2022-06-26T09:27:09.000Z</time></trkpt><trkpt lon="5.706757" lat="51.074941"><ele>15</ele><time>2022-06-26T09:27:10.000Z</time></trkpt><trkpt lon="5.70679" lat="51.075012"><ele>15</ele><time>2022-06-26T09:27:11.000Z</time></trkpt><trkpt lon="5.706818" lat="51.075102"><ele>15</ele><time>2022-06-26T09:27:12.000Z</time></trkpt><trkpt lon="5.706831" lat="51.075185"><ele>15</ele><time>2022-06-26T09:27:13.000Z</time></trkpt><trkpt lon="5.706831" lat="51.075266"><ele>15</ele><time>2022-06-26T09:27:14.000Z</time></trkpt><trkpt lon="5.706823" lat="51.075331"><ele>15</ele><time>2022-06-26T09:27:15.000Z</time></trkpt><trkpt lon="5.70681" lat="51.075422"><ele>15</ele><time>2022-06-26T09:27:16.000Z</time></trkpt><trkpt lon="5.706795" lat="51.075497"><ele>15</ele><time>2022-06-26T09:27:17.000Z</time></trkpt><trkpt lon="5.706776" lat="51.075567"><ele>15</ele><time>2022-06-26T09:27:18.000Z</time></trkpt><trkpt lon="5.706764" lat="51.075632"><ele>15</ele><time>2022-06-26T09:27:19.000Z</time></trkpt><trkpt lon="5.706746" lat="51.075716"><ele>15</ele><time>2022-06-26T09:27:20.000Z</time></trkpt><trkpt lon="5.706733" lat="51.075793"><ele>15</ele><time>2022-06-26T09:27:21.000Z</time></trkpt><trkpt lon="5.706716" lat="51.075868"><ele>14.8</ele><time>2022-06-26T09:27:22.000Z</time></trkpt><trkpt lon="5.706705" lat="51.075944"><ele>14.8</ele><time>2022-06-26T09:27:23.000Z</time></trkpt><trkpt lon="5.706692" lat="51.076024"><ele>14.6</ele><time>2022-06-26T09:27:24.000Z</time></trkpt><trkpt lon="5.706678" lat="51.076101"><ele>14.4</ele><time>2022-06-26T09:27:25.000Z</time></trkpt><trkpt lon="5.706665" lat="51.076176"><ele>14.6</ele><time>2022-06-26T09:27:26.000Z</time></trkpt><trkpt lon="5.706651" lat="51.076244"><ele>14.6</ele><time>2022-06-26T09:27:27.000Z</time></trkpt><trkpt lon="5.706628" lat="51.076334"><ele>14.6</ele><time>2022-06-26T09:27:28.000Z</time></trkpt><trkpt lon="5.706609" lat="51.07641"><ele>14.6</ele><time>2022-06-26T09:27:29.000Z</time></trkpt><trkpt lon="5.706585" lat="51.076501"><ele>14.6</ele><time>2022-06-26T09:27:30.000Z</time></trkpt><trkpt lon="5.706566" lat="51.076575"><ele>14.4</ele><time>2022-06-26T09:27:31.000Z</time></trkpt><trkpt lon="5.706543" lat="51.076673"><ele>14.4</ele><time>2022-06-26T09:27:32.000Z</time></trkpt><trkpt lon="5.706523" lat="51.076765"><ele>14.4</ele><time>2022-06-26T09:27:33.000Z</time></trkpt><trkpt lon="5.706505" lat="51.076845"><ele>14.6</ele><time>2022-06-26T09:27:34.000Z</time></trkpt><trkpt lon="5.706491" lat="51.076911"><ele>14.6</ele><time>2022-06-26T09:27:35.000Z</time></trkpt><trkpt lon="5.706471" lat="51.077012"><ele>14.6</ele><time>2022-06-26T09:27:36.000Z</time></trkpt><trkpt lon="5.706459" lat="51.07709"><ele>14.6</ele><time>2022-06-26T09:27:37.000Z</time></trkpt><trkpt lon="5.706442" lat="51.077177"><ele>14.8</ele><time>2022-06-26T09:27:38.000Z</time></trkpt><trkpt lon="5.706427" lat="51.077249"><ele>14.8</ele><time>2022-06-26T09:27:39.000Z</time></trkpt><trkpt lon="5.706405" lat="51.077341"><ele>14.8</ele><time>2022-06-26T09:27:40.000Z</time></trkpt><trkpt lon="5.706392" lat="51.077418"><ele>14.8</ele><time>2022-06-26T09:27:41.000Z</time></trkpt><trkpt lon="5.706378" lat="51.077505"><ele>14.8</ele><time>2022-06-26T09:27:42.000Z</time></trkpt><trkpt lon="5.706364" lat="51.077581"><ele>14.8</ele><time>2022-06-26T09:27:43.000Z</time></trkpt><trkpt lon="5.706348" lat="51.077673"><ele>14.8</ele><time>2022-06-26T09:27:44.000Z</time></trkpt><trkpt lon="5.706333" lat="51.077756"><ele>15</ele><time>2022-06-26T09:27:45.000Z</time></trkpt><trkpt lon="5.706318" lat="51.077836"><ele>15</ele><time>2022-06-26T09:27:46.000Z</time></trkpt><trkpt lon="5.706306" lat="51.077909"><ele>15</ele><time>2022-06-26T09:27:47.000Z</time></trkpt><trkpt lon="5.706292" lat="51.077996"><ele>15.2</ele><time>2022-06-26T09:27:48.000Z</time></trkpt><trkpt lon="5.706278" lat="51.078069"><ele>15.2</ele><time>2022-06-26T09:27:49.000Z</time></trkpt><trkpt lon="5.70626" lat="51.078157"><ele>15.2</ele><time>2022-06-26T09:27:50.000Z</time></trkpt><trkpt lon="5.706244" lat="51.078236"><ele>15.2</ele><time>2022-06-26T09:27:51.000Z</time></trkpt><trkpt lon="5.706226" lat="51.078317"><ele>15.4</ele><time>2022-06-26T09:27:52.000Z</time></trkpt><trkpt lon="5.706208" lat="51.078397"><ele>15.4</ele><time>2022-06-26T09:27:53.000Z</time></trkpt><trkpt lon="5.706193" lat="51.078477"><ele>15.4</ele><time>2022-06-26T09:27:54.000Z</time></trkpt><trkpt lon="5.706181" lat="51.07854"><ele>15.4</ele><time>2022-06-26T09:27:55.000Z</time></trkpt><trkpt lon="5.706165" lat="51.078633"><ele>15.6</ele><time>2022-06-26T09:27:56.000Z</time></trkpt><trkpt lon="5.706151" lat="51.078708"><ele>15.6</ele><time>2022-06-26T09:27:57.000Z</time></trkpt><trkpt lon="5.706131" lat="51.078786"><ele>15.6</ele><time>2022-06-26T09:27:58.000Z</time></trkpt><trkpt lon="5.706116" lat="51.078857"><ele>15.6</ele><time>2022-06-26T09:27:59.000Z</time></trkpt><trkpt lon="5.706098" lat="51.078942"><ele>15.6</ele><time>2022-06-26T09:28:00.000Z</time></trkpt><trkpt lon="5.706084" lat="51.079018"><ele>15.6</ele><time>2022-06-26T09:28:01.000Z</time></trkpt><trkpt lon="5.70607" lat="51.079103"><ele>15.6</ele><time>2022-06-26T09:28:02.000Z</time></trkpt><trkpt lon="5.706057" lat="51.079171"><ele>15.6</ele><time>2022-06-26T09:28:03.000Z</time></trkpt><trkpt lon="5.706038" lat="51.079252"><ele>15.6</ele><time>2022-06-26T09:28:04.000Z</time></trkpt><trkpt lon="5.706023" lat="51.079326"><ele>15.6</ele><time>2022-06-26T09:28:05.000Z</time></trkpt><trkpt lon="5.706005" lat="51.079404"><ele>15.6</ele><time>2022-06-26T09:28:06.000Z</time></trkpt><trkpt lon="5.705987" lat="51.07947"><ele>15.8</ele><time>2022-06-26T09:28:07.000Z</time></trkpt><trkpt lon="5.705966" lat="51.079553"><ele>15.8</ele><time>2022-06-26T09:28:08.000Z</time></trkpt><trkpt lon="5.705948" lat="51.079624"><ele>15.8</ele><time>2022-06-26T09:28:09.000Z</time></trkpt><trkpt lon="5.70593" lat="51.079694"><ele>16</ele><time>2022-06-26T09:28:10.000Z</time></trkpt><trkpt lon="5.705917" lat="51.079758"><ele>16</ele><time>2022-06-26T09:28:11.000Z</time></trkpt><trkpt lon="5.7059" lat="51.079839"><ele>16</ele><time>2022-06-26T09:28:12.000Z</time></trkpt><trkpt lon="5.705887" lat="51.079901"><ele>16</ele><time>2022-06-26T09:28:13.000Z</time></trkpt><trkpt lon="5.705873" lat="51.079961"><ele>16</ele><time>2022-06-26T09:28:14.000Z</time></trkpt><trkpt lon="5.705862" lat="51.08001"><ele>16.2</ele><time>2022-06-26T09:28:15.000Z</time></trkpt><trkpt lon="5.705855" lat="51.080068"><ele>16.2</ele><time>2022-06-26T09:28:16.000Z</time></trkpt><trkpt lon="5.705857" lat="51.080111"><ele>16.2</ele><time>2022-06-26T09:28:17.000Z</time></trkpt><trkpt lon="5.705871" lat="51.080155"><ele>16.2</ele><time>2022-06-26T09:28:18.000Z</time></trkpt><trkpt lon="5.705891" lat="51.080196"><ele>16.2</ele><time>2022-06-26T09:28:19.000Z</time></trkpt><trkpt lon="5.705921" lat="51.080247"><ele>16.2</ele><time>2022-06-26T09:28:20.000Z</time></trkpt><trkpt lon="5.705938" lat="51.080298"><ele>16.4</ele><time>2022-06-26T09:28:21.000Z</time></trkpt><trkpt lon="5.705943" lat="51.080354"><ele>16.2</ele><time>2022-06-26T09:28:22.000Z</time></trkpt><trkpt lon="5.705935" lat="51.080408"><ele>16.2</ele><time>2022-06-26T09:28:23.000Z</time></trkpt><trkpt lon="5.705905" lat="51.080464"><ele>16.2</ele><time>2022-06-26T09:28:24.000Z</time></trkpt><trkpt lon="5.705855" lat="51.08052"><ele>16.2</ele><time>2022-06-26T09:28:25.000Z</time></trkpt><trkpt lon="5.705804" lat="51.080586"><ele>16.2</ele><time>2022-06-26T09:28:26.000Z</time></trkpt><trkpt lon="5.705763" lat="51.080656"><ele>16.2</ele><time>2022-06-26T09:28:27.000Z</time></trkpt><trkpt lon="5.705719" lat="51.080743"><ele>16.2</ele><time>2022-06-26T09:28:28.000Z</time></trkpt><trkpt lon="5.705683" lat="51.080826"><ele>16.2</ele><time>2022-06-26T09:28:29.000Z</time></trkpt><trkpt lon="5.705644" lat="51.080911"><ele>16.2</ele><time>2022-06-26T09:28:30.000Z</time></trkpt><trkpt lon="5.705607" lat="51.080985"><ele>16.2</ele><time>2022-06-26T09:28:31.000Z</time></trkpt><trkpt lon="5.705561" lat="51.08108"><ele>16.2</ele><time>2022-06-26T09:28:32.000Z</time></trkpt><trkpt lon="5.705517" lat="51.081164"><ele>16.2</ele><time>2022-06-26T09:28:33.000Z</time></trkpt><trkpt lon="5.705479" lat="51.081247"><ele>16.2</ele><time>2022-06-26T09:28:34.000Z</time></trkpt><trkpt lon="5.705451" lat="51.081309"><ele>16.2</ele><time>2022-06-26T09:28:35.000Z</time></trkpt><trkpt lon="5.705405" lat="51.081414"><ele>16.2</ele><time>2022-06-26T09:28:36.000Z</time></trkpt><trkpt lon="5.705367" lat="51.081494"><ele>16.4</ele><time>2022-06-26T09:28:37.000Z</time></trkpt><trkpt lon="5.705323" lat="51.081582"><ele>16.4</ele><time>2022-06-26T09:28:38.000Z</time></trkpt><trkpt lon="5.705288" lat="51.081662"><ele>16.4</ele><time>2022-06-26T09:28:39.000Z</time></trkpt><trkpt lon="5.705245" lat="51.081755"><ele>16.4</ele><time>2022-06-26T09:28:40.000Z</time></trkpt><trkpt lon="5.705209" lat="51.081832"><ele>16.4</ele><time>2022-06-26T09:28:41.000Z</time></trkpt><trkpt lon="5.705173" lat="51.081914"><ele>16.4</ele><time>2022-06-26T09:28:42.000Z</time></trkpt><trkpt lon="5.705138" lat="51.081987"><ele>16.4</ele><time>2022-06-26T09:28:43.000Z</time></trkpt><trkpt lon="5.705104" lat="51.082063"><ele>16.4</ele><time>2022-06-26T09:28:44.000Z</time></trkpt><trkpt lon="5.705074" lat="51.08213"><ele>16.2</ele><time>2022-06-26T09:28:45.000Z</time></trkpt><trkpt lon="5.705043" lat="51.0822"><ele>16.2</ele><time>2022-06-26T09:28:46.000Z</time></trkpt><trkpt lon="5.705008" lat="51.082273"><ele>16.2</ele><time>2022-06-26T09:28:47.000Z</time></trkpt><trkpt lon="5.70498" lat="51.082338"><ele>16.2</ele><time>2022-06-26T09:28:48.000Z</time></trkpt><trkpt lon="5.704948" lat="51.08241"><ele>16</ele><time>2022-06-26T09:28:49.000Z</time></trkpt><trkpt lon="5.704918" lat="51.082471"><ele>16</ele><time>2022-06-26T09:28:50.000Z</time></trkpt><trkpt lon="5.704891" lat="51.082536"><ele>16</ele><time>2022-06-26T09:28:51.000Z</time></trkpt><trkpt lon="5.704863" lat="51.082597"><ele>15.8</ele><time>2022-06-26T09:28:52.000Z</time></trkpt><trkpt lon="5.704835" lat="51.082658"><ele>15.8</ele><time>2022-06-26T09:28:53.000Z</time></trkpt><trkpt lon="5.704811" lat="51.082708"><ele>15.8</ele><time>2022-06-26T09:28:54.000Z</time></trkpt><trkpt lon="5.704783" lat="51.082772"><ele>15.8</ele><time>2022-06-26T09:28:55.000Z</time></trkpt><trkpt lon="5.704758" lat="51.082821"><ele>15.8</ele><time>2022-06-26T09:28:56.000Z</time></trkpt><trkpt lon="5.704733" lat="51.082875"><ele>15.8</ele><time>2022-06-26T09:28:57.000Z</time></trkpt><trkpt lon="5.704715" lat="51.082913"><ele>15.8</ele><time>2022-06-26T09:28:58.000Z</time></trkpt><trkpt lon="5.704702" lat="51.082951"><ele>15.8</ele><time>2022-06-26T09:28:59.000Z</time></trkpt><trkpt lon="5.704706" lat="51.082977"><ele>15.8</ele><time>2022-06-26T09:29:00.000Z</time></trkpt><trkpt lon="5.704737" lat="51.082995"><ele>15.6</ele><time>2022-06-26T09:29:01.000Z</time></trkpt><trkpt lon="5.704798" lat="51.083004"><ele>15.6</ele><time>2022-06-26T09:29:02.000Z</time></trkpt><trkpt lon="5.704869" lat="51.083016"><ele>15.6</ele><time>2022-06-26T09:29:03.000Z</time></trkpt><trkpt lon="5.70494" lat="51.083025"><ele>15.6</ele><time>2022-06-26T09:29:04.000Z</time></trkpt><trkpt lon="5.705058" lat="51.083035"><ele>15.6</ele><time>2022-06-26T09:29:05.000Z</time></trkpt><trkpt lon="5.705171" lat="51.083042"><ele>15.4</ele><time>2022-06-26T09:29:06.000Z</time></trkpt><trkpt lon="5.705294" lat="51.083054"><ele>15.4</ele><time>2022-06-26T09:29:07.000Z</time></trkpt><trkpt lon="5.705404" lat="51.083063"><ele>15.4</ele><time>2022-06-26T09:29:08.000Z</time></trkpt><trkpt lon="5.705561" lat="51.083077"><ele>15.4</ele><time>2022-06-26T09:29:09.000Z</time></trkpt><trkpt lon="5.705685" lat="51.083083"><ele>15</ele><time>2022-06-26T09:29:10.000Z</time></trkpt><trkpt lon="5.705835" lat="51.083096"><ele>14.8</ele><time>2022-06-26T09:29:11.000Z</time></trkpt><trkpt lon="5.705956" lat="51.083106"><ele>15</ele><time>2022-06-26T09:29:12.000Z</time></trkpt><trkpt lon="5.706106" lat="51.083119"><ele>15</ele><time>2022-06-26T09:29:13.000Z</time></trkpt><trkpt lon="5.706236" lat="51.08313"><ele>15</ele><time>2022-06-26T09:29:14.000Z</time></trkpt><trkpt lon="5.706376" lat="51.083142"><ele>15</ele><time>2022-06-26T09:29:15.000Z</time></trkpt><trkpt lon="5.706494" lat="51.083152"><ele>14.8</ele><time>2022-06-26T09:29:16.000Z</time></trkpt><trkpt lon="5.706635" lat="51.083164"><ele>14.6</ele><time>2022-06-26T09:29:17.000Z</time></trkpt><trkpt lon="5.706761" lat="51.083176"><ele>14.4</ele><time>2022-06-26T09:29:18.000Z</time></trkpt><trkpt lon="5.706886" lat="51.083187"><ele>14.6</ele><time>2022-06-26T09:29:19.000Z</time></trkpt><trkpt lon="5.707019" lat="51.083199"><ele>14.8</ele><time>2022-06-26T09:29:20.000Z</time></trkpt><trkpt lon="5.707146" lat="51.08321"><ele>14.8</ele><time>2022-06-26T09:29:21.000Z</time></trkpt><trkpt lon="5.707279" lat="51.083222"><ele>14.8</ele><time>2022-06-26T09:29:22.000Z</time></trkpt><trkpt lon="5.707405" lat="51.083237"><ele>15</ele><time>2022-06-26T09:29:23.000Z</time></trkpt><trkpt lon="5.707524" lat="51.083247"><ele>15</ele><time>2022-06-26T09:29:24.000Z</time></trkpt><trkpt lon="5.707665" lat="51.08326"><ele>15</ele><time>2022-06-26T09:29:25.000Z</time></trkpt><trkpt lon="5.707788" lat="51.083271"><ele>15</ele><time>2022-06-26T09:29:26.000Z</time></trkpt><trkpt lon="5.707917" lat="51.083279"><ele>15</ele><time>2022-06-26T09:29:27.000Z</time></trkpt><trkpt lon="5.708038" lat="51.08329"><ele>15.2</ele><time>2022-06-26T09:29:28.000Z</time></trkpt><trkpt lon="5.708165" lat="51.083302"><ele>15</ele><time>2022-06-26T09:29:29.000Z</time></trkpt><trkpt lon="5.70829" lat="51.083313"><ele>15</ele><time>2022-06-26T09:29:30.000Z</time></trkpt><trkpt lon="5.708414" lat="51.083321"><ele>15</ele><time>2022-06-26T09:29:31.000Z</time></trkpt><trkpt lon="5.708538" lat="51.083332"><ele>15</ele><time>2022-06-26T09:29:32.000Z</time></trkpt><trkpt lon="5.70866" lat="51.083348"><ele>15.2</ele><time>2022-06-26T09:29:33.000Z</time></trkpt><trkpt lon="5.708777" lat="51.083359"><ele>15</ele><time>2022-06-26T09:29:34.000Z</time></trkpt><trkpt lon="5.7089" lat="51.08337"><ele>15</ele><time>2022-06-26T09:29:35.000Z</time></trkpt><trkpt lon="5.708998" lat="51.083377"><ele>15</ele><time>2022-06-26T09:29:36.000Z</time></trkpt><trkpt lon="5.70913" lat="51.083386"><ele>15</ele><time>2022-06-26T09:29:37.000Z</time></trkpt><trkpt lon="5.709228" lat="51.083393"><ele>15</ele><time>2022-06-26T09:29:38.000Z</time></trkpt><trkpt lon="5.709336" lat="51.083401"><ele>15</ele><time>2022-06-26T09:29:39.000Z</time></trkpt><trkpt lon="5.709417" lat="51.083411"><ele>15</ele><time>2022-06-26T09:29:40.000Z</time></trkpt><trkpt lon="5.709515" lat="51.08342"><ele>15</ele><time>2022-06-26T09:29:41.000Z</time></trkpt><trkpt lon="5.709584" lat="51.083441"><ele>15</ele><time>2022-06-26T09:29:42.000Z</time></trkpt><trkpt lon="5.70964" lat="51.083482"><ele>15</ele><time>2022-06-26T09:29:43.000Z</time></trkpt><trkpt lon="5.709663" lat="51.083526"><ele>15</ele><time>2022-06-26T09:29:44.000Z</time></trkpt><trkpt lon="5.70967" lat="51.083589"><ele>15</ele><time>2022-06-26T09:29:45.000Z</time></trkpt><trkpt lon="5.709657" lat="51.08366"><ele>14.8</ele><time>2022-06-26T09:29:46.000Z</time></trkpt><trkpt lon="5.709634" lat="51.083738"><ele>14.8</ele><time>2022-06-26T09:29:47.000Z</time></trkpt><trkpt lon="5.709614" lat="51.083807"><ele>14.6</ele><time>2022-06-26T09:29:48.000Z</time></trkpt><trkpt lon="5.70959" lat="51.083896"><ele>14.6</ele><time>2022-06-26T09:29:49.000Z</time></trkpt><trkpt lon="5.70957" lat="51.083968"><ele>14.6</ele><time>2022-06-26T09:29:50.000Z</time></trkpt><trkpt lon="5.709546" lat="51.084058"><ele>14.6</ele><time>2022-06-26T09:29:51.000Z</time></trkpt><trkpt lon="5.709525" lat="51.084135"><ele>14.6</ele><time>2022-06-26T09:29:52.000Z</time></trkpt><trkpt lon="5.709505" lat="51.084215"><ele>14.6</ele><time>2022-06-26T09:29:53.000Z</time></trkpt><trkpt lon="5.709485" lat="51.084295"><ele>14.6</ele><time>2022-06-26T09:29:54.000Z</time></trkpt><trkpt lon="5.709468" lat="51.084374"><ele>14.6</ele><time>2022-06-26T09:29:55.000Z</time></trkpt><trkpt lon="5.709461" lat="51.084439"><ele>14.6</ele><time>2022-06-26T09:29:56.000Z</time></trkpt><trkpt lon="5.709455" lat="51.084531"><ele>14.6</ele><time>2022-06-26T09:29:57.000Z</time></trkpt><trkpt lon="5.709453" lat="51.084605"><ele>14.6</ele><time>2022-06-26T09:29:58.000Z</time></trkpt><trkpt lon="5.70945" lat="51.08468"><ele>14.6</ele><time>2022-06-26T09:29:59.000Z</time></trkpt><trkpt lon="5.709449" lat="51.084736"><ele>14.6</ele><time>2022-06-26T09:30:00.000Z</time></trkpt><trkpt lon="5.709445" lat="51.084813"><ele>14.6</ele><time>2022-06-26T09:30:01.000Z</time></trkpt><trkpt lon="5.709442" lat="51.084871"><ele>14.6</ele><time>2022-06-26T09:30:02.000Z</time></trkpt><trkpt lon="5.709438" lat="51.084927"><ele>14.6</ele><time>2022-06-26T09:30:03.000Z</time></trkpt><trkpt lon="5.709438" lat="51.084972"><ele>14.6</ele><time>2022-06-26T09:30:04.000Z</time></trkpt><trkpt lon="5.709442" lat="51.085034"><ele>14.6</ele><time>2022-06-26T09:30:05.000Z</time></trkpt><trkpt lon="5.709448" lat="51.085091"><ele>14.6</ele><time>2022-06-26T09:30:06.000Z</time></trkpt><trkpt lon="5.70945" lat="51.085156"><ele>14.6</ele><time>2022-06-26T09:30:07.000Z</time></trkpt><trkpt lon="5.709447" lat="51.085221"><ele>14.6</ele><time>2022-06-26T09:30:08.000Z</time></trkpt><trkpt lon="5.709442" lat="51.085302"><ele>14.6</ele><time>2022-06-26T09:30:09.000Z</time></trkpt><trkpt lon="5.709437" lat="51.085374"><ele>14.6</ele><time>2022-06-26T09:30:10.000Z</time></trkpt><trkpt lon="5.709432" lat="51.085454"><ele>14.6</ele><time>2022-06-26T09:30:11.000Z</time></trkpt><trkpt lon="5.709427" lat="51.085518"><ele>14.6</ele><time>2022-06-26T09:30:12.000Z</time></trkpt><trkpt lon="5.70942" lat="51.085603"><ele>14.8</ele><time>2022-06-26T09:30:13.000Z</time></trkpt><trkpt lon="5.709417" lat="51.085677"><ele>14.8</ele><time>2022-06-26T09:30:14.000Z</time></trkpt><trkpt lon="5.70941" lat="51.085748"><ele>14.8</ele><time>2022-06-26T09:30:15.000Z</time></trkpt><trkpt lon="5.709396" lat="51.085813"><ele>14.8</ele><time>2022-06-26T09:30:16.000Z</time></trkpt><trkpt lon="5.709375" lat="51.085885"><ele>14.8</ele><time>2022-06-26T09:30:17.000Z</time></trkpt><trkpt lon="5.709351" lat="51.085955"><ele>14.8</ele><time>2022-06-26T09:30:18.000Z</time></trkpt><trkpt lon="5.70932" lat="51.086021"><ele>14.8</ele><time>2022-06-26T09:30:19.000Z</time></trkpt><trkpt lon="5.709291" lat="51.086091"><ele>15</ele><time>2022-06-26T09:30:20.000Z</time></trkpt><trkpt lon="5.709259" lat="51.08616"><ele>15</ele><time>2022-06-26T09:30:21.000Z</time></trkpt><trkpt lon="5.709223" lat="51.086228"><ele>15</ele><time>2022-06-26T09:30:22.000Z</time></trkpt><trkpt lon="5.709181" lat="51.086297"><ele>15.2</ele><time>2022-06-26T09:30:23.000Z</time></trkpt><trkpt lon="5.709135" lat="51.086361"><ele>15.2</ele><time>2022-06-26T09:30:24.000Z</time></trkpt><trkpt lon="5.70908" lat="51.086429"><ele>15.2</ele><time>2022-06-26T09:30:25.000Z</time></trkpt><trkpt lon="5.709029" lat="51.086488"><ele>15</ele><time>2022-06-26T09:30:26.000Z</time></trkpt><trkpt lon="5.708969" lat="51.086553"><ele>15</ele><time>2022-06-26T09:30:27.000Z</time></trkpt><trkpt lon="5.708918" lat="51.086615"><ele>15</ele><time>2022-06-26T09:30:28.000Z</time></trkpt><trkpt lon="5.708854" lat="51.08669"><ele>15</ele><time>2022-06-26T09:30:29.000Z</time></trkpt><trkpt lon="5.708802" lat="51.086755"><ele>14.8</ele><time>2022-06-26T09:30:30.000Z</time></trkpt><trkpt lon="5.708743" lat="51.086827"><ele>14.8</ele><time>2022-06-26T09:30:31.000Z</time></trkpt><trkpt lon="5.708693" lat="51.086887"><ele>14.8</ele><time>2022-06-26T09:30:32.000Z</time></trkpt><trkpt lon="5.708629" lat="51.086964"><ele>15</ele><time>2022-06-26T09:30:33.000Z</time></trkpt><trkpt lon="5.708574" lat="51.087026"><ele>14.8</ele><time>2022-06-26T09:30:34.000Z</time></trkpt><trkpt lon="5.708513" lat="51.087098"><ele>14.8</ele><time>2022-06-26T09:30:35.000Z</time></trkpt><trkpt lon="5.708461" lat="51.087157"><ele>14.8</ele><time>2022-06-26T09:30:36.000Z</time></trkpt><trkpt lon="5.708397" lat="51.087228"><ele>14.8</ele><time>2022-06-26T09:30:37.000Z</time></trkpt><trkpt lon="5.708343" lat="51.08729"><ele>14.8</ele><time>2022-06-26T09:30:38.000Z</time></trkpt><trkpt lon="5.708286" lat="51.087358"><ele>14.8</ele><time>2022-06-26T09:30:39.000Z</time></trkpt><trkpt lon="5.708238" lat="51.087416"><ele>14.8</ele><time>2022-06-26T09:30:40.000Z</time></trkpt><trkpt lon="5.70817" lat="51.087492"><ele>14.8</ele><time>2022-06-26T09:30:41.000Z</time></trkpt><trkpt lon="5.708117" lat="51.087557"><ele>14.8</ele><time>2022-06-26T09:30:42.000Z</time></trkpt><trkpt lon="5.708059" lat="51.087628"><ele>14.8</ele><time>2022-06-26T09:30:43.000Z</time></trkpt><trkpt lon="5.708015" lat="51.08769"><ele>14.8</ele><time>2022-06-26T09:30:44.000Z</time></trkpt><trkpt lon="5.707964" lat="51.08777"><ele>14.6</ele><time>2022-06-26T09:30:45.000Z</time></trkpt><trkpt lon="5.707932" lat="51.087844"><ele>14.6</ele><time>2022-06-26T09:30:46.000Z</time></trkpt><trkpt lon="5.707908" lat="51.087915"><ele>14.6</ele><time>2022-06-26T09:30:47.000Z</time></trkpt><trkpt lon="5.70789" lat="51.08798"><ele>14.6</ele><time>2022-06-26T09:30:48.000Z</time></trkpt><trkpt lon="5.707873" lat="51.08806"><ele>14.6</ele><time>2022-06-26T09:30:49.000Z</time></trkpt><trkpt lon="5.707858" lat="51.088132"><ele>14.4</ele><time>2022-06-26T09:30:50.000Z</time></trkpt><trkpt lon="5.707848" lat="51.088201"><ele>14.6</ele><time>2022-06-26T09:30:51.000Z</time></trkpt><trkpt lon="5.707844" lat="51.088255"><ele>14.6</ele><time>2022-06-26T09:30:52.000Z</time></trkpt><trkpt lon="5.707842" lat="51.088331"><ele>14.6</ele><time>2022-06-26T09:30:53.000Z</time></trkpt><trkpt lon="5.707843" lat="51.088384"><ele>14.8</ele><time>2022-06-26T09:30:54.000Z</time></trkpt><trkpt lon="5.707849" lat="51.088441"><ele>15</ele><time>2022-06-26T09:30:55.000Z</time></trkpt><trkpt lon="5.707855" lat="51.088488"><ele>15</ele><time>2022-06-26T09:30:56.000Z</time></trkpt><trkpt lon="5.707862" lat="51.088544"><ele>15.2</ele><time>2022-06-26T09:30:57.000Z</time></trkpt><trkpt lon="5.707866" lat="51.088594"><ele>15.2</ele><time>2022-06-26T09:30:58.000Z</time></trkpt><trkpt lon="5.707871" lat="51.088646"><ele>15.4</ele><time>2022-06-26T09:30:59.000Z</time></trkpt><trkpt lon="5.707873" lat="51.08869"><ele>15.4</ele><time>2022-06-26T09:31:00.000Z</time></trkpt><trkpt lon="5.707875" lat="51.088746"><ele>15.4</ele><time>2022-06-26T09:31:01.000Z</time></trkpt><trkpt lon="5.707863" lat="51.088799"><ele>15.4</ele><time>2022-06-26T09:31:02.000Z</time></trkpt><trkpt lon="5.707827" lat="51.088845"><ele>15.2</ele><time>2022-06-26T09:31:03.000Z</time></trkpt><trkpt lon="5.707782" lat="51.088877"><ele>15.2</ele><time>2022-06-26T09:31:04.000Z</time></trkpt><trkpt lon="5.707687" lat="51.088925"><ele>15</ele><time>2022-06-26T09:31:05.000Z</time></trkpt><trkpt lon="5.707597" lat="51.088954"><ele>15</ele><time>2022-06-26T09:31:06.000Z</time></trkpt><trkpt lon="5.70749" lat="51.088986"><ele>15</ele><time>2022-06-26T09:31:07.000Z</time></trkpt><trkpt lon="5.707403" lat="51.089014"><ele>15</ele><time>2022-06-26T09:31:08.000Z</time></trkpt><trkpt lon="5.707309" lat="51.089051"><ele>15</ele><time>2022-06-26T09:31:09.000Z</time></trkpt><trkpt lon="5.707249" lat="51.089095"><ele>15</ele><time>2022-06-26T09:31:10.000Z</time></trkpt><trkpt lon="5.707211" lat="51.089154"><ele>14.8</ele><time>2022-06-26T09:31:11.000Z</time></trkpt><trkpt lon="5.707207" lat="51.089218"><ele>14.8</ele><time>2022-06-26T09:31:12.000Z</time></trkpt><trkpt lon="5.707221" lat="51.089308"><ele>14.6</ele><time>2022-06-26T09:31:13.000Z</time></trkpt><trkpt lon="5.70724" lat="51.08939"><ele>14.6</ele><time>2022-06-26T09:31:14.000Z</time></trkpt><trkpt lon="5.707258" lat="51.089471"><ele>14.6</ele><time>2022-06-26T09:31:15.000Z</time></trkpt><trkpt lon="5.707271" lat="51.089542"><ele>14.6</ele><time>2022-06-26T09:31:16.000Z</time></trkpt><trkpt lon="5.707285" lat="51.089631"><ele>14.6</ele><time>2022-06-26T09:31:17.000Z</time></trkpt><trkpt lon="5.707297" lat="51.089704"><ele>14.6</ele><time>2022-06-26T09:31:18.000Z</time></trkpt><trkpt lon="5.707307" lat="51.089776"><ele>14.6</ele><time>2022-06-26T09:31:19.000Z</time></trkpt><trkpt lon="5.707312" lat="51.089842"><ele>14.6</ele><time>2022-06-26T09:31:20.000Z</time></trkpt><trkpt lon="5.707308" lat="51.08991"><ele>14.6</ele><time>2022-06-26T09:31:21.000Z</time></trkpt><trkpt lon="5.7073" lat="51.089974"><ele>14.6</ele><time>2022-06-26T09:31:22.000Z</time></trkpt><trkpt lon="5.707297" lat="51.090034"><ele>14.6</ele><time>2022-06-26T09:31:23.000Z</time></trkpt><trkpt lon="5.707312" lat="51.090094"><ele>14.6</ele><time>2022-06-26T09:31:24.000Z</time></trkpt><trkpt lon="5.707363" lat="51.090153"><ele>14.4</ele><time>2022-06-26T09:31:25.000Z</time></trkpt><trkpt lon="5.707436" lat="51.090183"><ele>14.2</ele><time>2022-06-26T09:31:26.000Z</time></trkpt><trkpt lon="5.707538" lat="51.090198"><ele>14</ele><time>2022-06-26T09:31:27.000Z</time></trkpt><trkpt lon="5.707644" lat="51.090198"><ele>14</ele><time>2022-06-26T09:31:28.000Z</time></trkpt><trkpt lon="5.707783" lat="51.090202"><ele>14</ele><time>2022-06-26T09:31:29.000Z</time></trkpt><trkpt lon="5.707904" lat="51.09021"><ele>14</ele><time>2022-06-26T09:31:30.000Z</time></trkpt><trkpt lon="5.708035" lat="51.090214"><ele>14</ele><time>2022-06-26T09:31:31.000Z</time></trkpt><trkpt lon="5.708129" lat="51.09022"><ele>14</ele><time>2022-06-26T09:31:32.000Z</time></trkpt><trkpt lon="5.708272" lat="51.090225"><ele>14</ele><time>2022-06-26T09:31:33.000Z</time></trkpt><trkpt lon="5.70839" lat="51.090229"><ele>14.2</ele><time>2022-06-26T09:31:34.000Z</time></trkpt><trkpt lon="5.708514" lat="51.090237"><ele>14</ele><time>2022-06-26T09:31:35.000Z</time></trkpt><trkpt lon="5.708623" lat="51.090247"><ele>14</ele><time>2022-06-26T09:31:36.000Z</time></trkpt><trkpt lon="5.708754" lat="51.090264"><ele>13.8</ele><time>2022-06-26T09:31:37.000Z</time></trkpt><trkpt lon="5.708862" lat="51.090285"><ele>13.8</ele><time>2022-06-26T09:31:38.000Z</time></trkpt><trkpt lon="5.708975" lat="51.090309"><ele>13.8</ele><time>2022-06-26T09:31:39.000Z</time></trkpt><trkpt lon="5.709077" lat="51.090338"><ele>13.8</ele><time>2022-06-26T09:31:40.000Z</time></trkpt><trkpt lon="5.709194" lat="51.090374"><ele>13.8</ele><time>2022-06-26T09:31:41.000Z</time></trkpt><trkpt lon="5.709301" lat="51.090409"><ele>13.8</ele><time>2022-06-26T09:31:42.000Z</time></trkpt><trkpt lon="5.709412" lat="51.090447"><ele>13.8</ele><time>2022-06-26T09:31:43.000Z</time></trkpt><trkpt lon="5.709496" lat="51.090474"><ele>13.8</ele><time>2022-06-26T09:31:44.000Z</time></trkpt><trkpt lon="5.709629" lat="51.090519"><ele>13.8</ele><time>2022-06-26T09:31:45.000Z</time></trkpt><trkpt lon="5.709734" lat="51.090553"><ele>13.8</ele><time>2022-06-26T09:31:46.000Z</time></trkpt><trkpt lon="5.709841" lat="51.090592"><ele>13.8</ele><time>2022-06-26T09:31:47.000Z</time></trkpt><trkpt lon="5.709937" lat="51.090627"><ele>13.6</ele><time>2022-06-26T09:31:48.000Z</time></trkpt><trkpt lon="5.710049" lat="51.090664"><ele>13.6</ele><time>2022-06-26T09:31:49.000Z</time></trkpt><trkpt lon="5.710158" lat="51.090702"><ele>13.6</ele><time>2022-06-26T09:31:50.000Z</time></trkpt><trkpt lon="5.710263" lat="51.09074"><ele>13.6</ele><time>2022-06-26T09:31:51.000Z</time></trkpt><trkpt lon="5.710369" lat="51.090775"><ele>13.6</ele><time>2022-06-26T09:31:52.000Z</time></trkpt><trkpt lon="5.710474" lat="51.090809"><ele>13.8</ele><time>2022-06-26T09:31:53.000Z</time></trkpt><trkpt lon="5.710579" lat="51.090844"><ele>13.8</ele><time>2022-06-26T09:31:54.000Z</time></trkpt><trkpt lon="5.710676" lat="51.090877"><ele>13.8</ele><time>2022-06-26T09:31:55.000Z</time></trkpt><trkpt lon="5.710757" lat="51.090902"><ele>13.8</ele><time>2022-06-26T09:31:56.000Z</time></trkpt><trkpt lon="5.710865" lat="51.09094"><ele>14</ele><time>2022-06-26T09:31:57.000Z</time></trkpt><trkpt lon="5.710935" lat="51.09098"><ele>14</ele><time>2022-06-26T09:31:58.000Z</time></trkpt><trkpt lon="5.710977" lat="51.091031"><ele>14</ele><time>2022-06-26T09:31:59.000Z</time></trkpt><trkpt lon="5.710984" lat="51.091084"><ele>14</ele><time>2022-06-26T09:32:00.000Z</time></trkpt><trkpt lon="5.710961" lat="51.091157"><ele>14</ele><time>2022-06-26T09:32:01.000Z</time></trkpt><trkpt lon="5.710916" lat="51.091222"><ele>14</ele><time>2022-06-26T09:32:02.000Z</time></trkpt><trkpt lon="5.710864" lat="51.091287"><ele>14</ele><time>2022-06-26T09:32:03.000Z</time></trkpt><trkpt lon="5.710822" lat="51.091337"><ele>13.8</ele><time>2022-06-26T09:32:04.000Z</time></trkpt><trkpt lon="5.710761" lat="51.091413"><ele>13.8</ele><time>2022-06-26T09:32:05.000Z</time></trkpt><trkpt lon="5.710715" lat="51.091464"><ele>13.8</ele><time>2022-06-26T09:32:06.000Z</time></trkpt><trkpt lon="5.71068" lat="51.091523"><ele>13.8</ele><time>2022-06-26T09:32:07.000Z</time></trkpt><trkpt lon="5.710672" lat="51.091573"><ele>13.8</ele><time>2022-06-26T09:32:08.000Z</time></trkpt><trkpt lon="5.710702" lat="51.091642"><ele>13.8</ele><time>2022-06-26T09:32:09.000Z</time></trkpt><trkpt lon="5.710762" lat="51.091689"><ele>13.8</ele><time>2022-06-26T09:32:10.000Z</time></trkpt><trkpt lon="5.710847" lat="51.091725"><ele>13.6</ele><time>2022-06-26T09:32:11.000Z</time></trkpt><trkpt lon="5.710934" lat="51.091752"><ele>13.6</ele><time>2022-06-26T09:32:12.000Z</time></trkpt><trkpt lon="5.711059" lat="51.091782"><ele>13.6</ele><time>2022-06-26T09:32:13.000Z</time></trkpt><trkpt lon="5.711166" lat="51.091808"><ele>13.6</ele><time>2022-06-26T09:32:14.000Z</time></trkpt><trkpt lon="5.711275" lat="51.091836"><ele>13.6</ele><time>2022-06-26T09:32:15.000Z</time></trkpt><trkpt lon="5.71136" lat="51.091859"><ele>13.6</ele><time>2022-06-26T09:32:16.000Z</time></trkpt><trkpt lon="5.711456" lat="51.091897"><ele>13.6</ele><time>2022-06-26T09:32:17.000Z</time></trkpt><trkpt lon="5.711519" lat="51.091936"><ele>13.6</ele><time>2022-06-26T09:32:18.000Z</time></trkpt><trkpt lon="5.711548" lat="51.091996"><ele>13.6</ele><time>2022-06-26T09:32:19.000Z</time></trkpt><trkpt lon="5.711536" lat="51.092061"><ele>13.8</ele><time>2022-06-26T09:32:20.000Z</time></trkpt><trkpt lon="5.711497" lat="51.092126"><ele>13.8</ele><time>2022-06-26T09:32:21.000Z</time></trkpt><trkpt lon="5.711451" lat="51.092194"><ele>13.8</ele><time>2022-06-26T09:32:22.000Z</time></trkpt><trkpt lon="5.711403" lat="51.092263"><ele>13.8</ele><time>2022-06-26T09:32:23.000Z</time></trkpt><trkpt lon="5.711358" lat="51.092325"><ele>13.8</ele><time>2022-06-26T09:32:24.000Z</time></trkpt><trkpt lon="5.711303" lat="51.092401"><ele>13.8</ele><time>2022-06-26T09:32:25.000Z</time></trkpt><trkpt lon="5.711256" lat="51.092468"><ele>13.8</ele><time>2022-06-26T09:32:26.000Z</time></trkpt><trkpt lon="5.711208" lat="51.092542"><ele>13.8</ele><time>2022-06-26T09:32:27.000Z</time></trkpt><trkpt lon="5.711171" lat="51.092604"><ele>13.8</ele><time>2022-06-26T09:32:28.000Z</time></trkpt><trkpt lon="5.711127" lat="51.092686"><ele>13.8</ele><time>2022-06-26T09:32:29.000Z</time></trkpt><trkpt lon="5.711101" lat="51.092756"><ele>13.8</ele><time>2022-06-26T09:32:30.000Z</time></trkpt><trkpt lon="5.711083" lat="51.092835"><ele>13.6</ele><time>2022-06-26T09:32:31.000Z</time></trkpt><trkpt lon="5.711074" lat="51.092906"><ele>13.6</ele><time>2022-06-26T09:32:32.000Z</time></trkpt><trkpt lon="5.711065" lat="51.092992"><ele>13.6</ele><time>2022-06-26T09:32:33.000Z</time></trkpt><trkpt lon="5.711058" lat="51.093065"><ele>13.6</ele><time>2022-06-26T09:32:34.000Z</time></trkpt><trkpt lon="5.711051" lat="51.093145"><ele>13.6</ele><time>2022-06-26T09:32:35.000Z</time></trkpt><trkpt lon="5.711044" lat="51.09321"><ele>13.6</ele><time>2022-06-26T09:32:36.000Z</time></trkpt><trkpt lon="5.711035" lat="51.09329"><ele>13.6</ele><time>2022-06-26T09:32:37.000Z</time></trkpt><trkpt lon="5.711022" lat="51.093361"><ele>13.6</ele><time>2022-06-26T09:32:38.000Z</time></trkpt><trkpt lon="5.711005" lat="51.093438"><ele>13.6</ele><time>2022-06-26T09:32:39.000Z</time></trkpt><trkpt lon="5.710985" lat="51.093503"><ele>13.6</ele><time>2022-06-26T09:32:40.000Z</time></trkpt><trkpt lon="5.710952" lat="51.09358"><ele>13.6</ele><time>2022-06-26T09:32:41.000Z</time></trkpt><trkpt lon="5.710914" lat="51.093649"><ele>13.6</ele><time>2022-06-26T09:32:42.000Z</time></trkpt><trkpt lon="5.710874" lat="51.093715"><ele>13.6</ele><time>2022-06-26T09:32:43.000Z</time></trkpt><trkpt lon="5.710831" lat="51.093772"><ele>13.6</ele><time>2022-06-26T09:32:44.000Z</time></trkpt><trkpt lon="5.710785" lat="51.093842"><ele>13.6</ele><time>2022-06-26T09:32:45.000Z</time></trkpt><trkpt lon="5.710746" lat="51.093895"><ele>13.6</ele><time>2022-06-26T09:32:46.000Z</time></trkpt><trkpt lon="5.710701" lat="51.093961"><ele>13.6</ele><time>2022-06-26T09:32:47.000Z</time></trkpt><trkpt lon="5.710662" lat="51.094008"><ele>13.4</ele><time>2022-06-26T09:32:48.000Z</time></trkpt><trkpt lon="5.710618" lat="51.094072"><ele>13.4</ele><time>2022-06-26T09:32:49.000Z</time></trkpt><trkpt lon="5.710579" lat="51.094125"><ele>13.4</ele><time>2022-06-26T09:32:50.000Z</time></trkpt><trkpt lon="5.710541" lat="51.094174"><ele>13.4</ele><time>2022-06-26T09:32:51.000Z</time></trkpt><trkpt lon="5.710509" lat="51.094219"><ele>13.6</ele><time>2022-06-26T09:32:52.000Z</time></trkpt><trkpt lon="5.710478" lat="51.09427"><ele>13.6</ele><time>2022-06-26T09:32:53.000Z</time></trkpt><trkpt lon="5.710454" lat="51.094308"><ele>13.6</ele><time>2022-06-26T09:32:54.000Z</time></trkpt><trkpt lon="5.710431" lat="51.094345"><ele>13.6</ele><time>2022-06-26T09:32:55.000Z</time></trkpt><trkpt lon="5.710408" lat="51.094376"><ele>13.8</ele><time>2022-06-26T09:32:56.000Z</time></trkpt><trkpt lon="5.710391" lat="51.094405"><ele>13.8</ele><time>2022-06-26T09:32:57.000Z</time></trkpt><trkpt lon="5.71038" lat="51.094441"><ele>13.8</ele><time>2022-06-26T09:32:58.000Z</time></trkpt><trkpt lon="5.710399" lat="51.094475"><ele>13.8</ele><time>2022-06-26T09:32:59.000Z</time></trkpt><trkpt lon="5.710442" lat="51.094497"><ele>13.8</ele><time>2022-06-26T09:33:00.000Z</time></trkpt><trkpt lon="5.710503" lat="51.094521"><ele>13.8</ele><time>2022-06-26T09:33:01.000Z</time></trkpt><trkpt lon="5.710572" lat="51.094544"><ele>13.8</ele><time>2022-06-26T09:33:02.000Z</time></trkpt><trkpt lon="5.710635" lat="51.094562"><ele>13.8</ele><time>2022-06-26T09:33:03.000Z</time></trkpt><trkpt lon="5.710735" lat="51.094593"><ele>13.8</ele><time>2022-06-26T09:33:04.000Z</time></trkpt><trkpt lon="5.710823" lat="51.094616"><ele>13.8</ele><time>2022-06-26T09:33:05.000Z</time></trkpt><trkpt lon="5.710919" lat="51.094647"><ele>13.8</ele><time>2022-06-26T09:33:06.000Z</time></trkpt><trkpt lon="5.711016" lat="51.094672"><ele>13.8</ele><time>2022-06-26T09:33:07.000Z</time></trkpt><trkpt lon="5.711125" lat="51.094704"><ele>13.8</ele><time>2022-06-26T09:33:08.000Z</time></trkpt><trkpt lon="5.711227" lat="51.094737"><ele>13.8</ele><time>2022-06-26T09:33:09.000Z</time></trkpt><trkpt lon="5.711342" lat="51.094769"><ele>13.6</ele><time>2022-06-26T09:33:10.000Z</time></trkpt><trkpt lon="5.711437" lat="51.094796"><ele>13.6</ele><time>2022-06-26T09:33:11.000Z</time></trkpt><trkpt lon="5.711562" lat="51.09483"><ele>13.6</ele><time>2022-06-26T09:33:12.000Z</time></trkpt><trkpt lon="5.711663" lat="51.094859"><ele>13.6</ele><time>2022-06-26T09:33:13.000Z</time></trkpt><trkpt lon="5.711775" lat="51.094891"><ele>13.4</ele><time>2022-06-26T09:33:14.000Z</time></trkpt><trkpt lon="5.711871" lat="51.094918"><ele>13.4</ele><time>2022-06-26T09:33:15.000Z</time></trkpt><trkpt lon="5.711984" lat="51.09495"><ele>13.4</ele><time>2022-06-26T09:33:16.000Z</time></trkpt><trkpt lon="5.712088" lat="51.094981"><ele>13.4</ele><time>2022-06-26T09:33:17.000Z</time></trkpt><trkpt lon="5.712201" lat="51.095017"><ele>13.4</ele><time>2022-06-26T09:33:18.000Z</time></trkpt><trkpt lon="5.712296" lat="51.09504"><ele>13.2</ele><time>2022-06-26T09:33:19.000Z</time></trkpt><trkpt lon="5.712421" lat="51.095075"><ele>13.2</ele><time>2022-06-26T09:33:20.000Z</time></trkpt><trkpt lon="5.712524" lat="51.095108"><ele>13.2</ele><time>2022-06-26T09:33:21.000Z</time></trkpt><trkpt lon="5.71263" lat="51.095139"><ele>13.4</ele><time>2022-06-26T09:33:22.000Z</time></trkpt><trkpt lon="5.712732" lat="51.095166"><ele>13.2</ele><time>2022-06-26T09:33:23.000Z</time></trkpt><trkpt lon="5.712837" lat="51.095196"><ele>13.4</ele><time>2022-06-26T09:33:24.000Z</time></trkpt><trkpt lon="5.712944" lat="51.095227"><ele>13.2</ele><time>2022-06-26T09:33:25.000Z</time></trkpt><trkpt lon="5.71305" lat="51.095257"><ele>13.2</ele><time>2022-06-26T09:33:26.000Z</time></trkpt><trkpt lon="5.713139" lat="51.09528"><ele>13.2</ele><time>2022-06-26T09:33:27.000Z</time></trkpt><trkpt lon="5.71326" lat="51.095318"><ele>13</ele><time>2022-06-26T09:33:28.000Z</time></trkpt><trkpt lon="5.713359" lat="51.095347"><ele>13</ele><time>2022-06-26T09:33:29.000Z</time></trkpt><trkpt lon="5.71347" lat="51.095379"><ele>13</ele><time>2022-06-26T09:33:30.000Z</time></trkpt><trkpt lon="5.713558" lat="51.095406"><ele>13</ele><time>2022-06-26T09:33:31.000Z</time></trkpt><trkpt lon="5.713674" lat="51.095441"><ele>13</ele><time>2022-06-26T09:33:32.000Z</time></trkpt><trkpt lon="5.713769" lat="51.095465"><ele>13</ele><time>2022-06-26T09:33:33.000Z</time></trkpt><trkpt lon="5.71388" lat="51.095498"><ele>13</ele><time>2022-06-26T09:33:34.000Z</time></trkpt><trkpt lon="5.713972" lat="51.095528"><ele>13</ele><time>2022-06-26T09:33:35.000Z</time></trkpt><trkpt lon="5.714085" lat="51.095559"><ele>13</ele><time>2022-06-26T09:33:36.000Z</time></trkpt><trkpt lon="5.71418" lat="51.095588"><ele>13.2</ele><time>2022-06-26T09:33:37.000Z</time></trkpt><trkpt lon="5.714283" lat="51.09562"><ele>13.2</ele><time>2022-06-26T09:33:38.000Z</time></trkpt><trkpt lon="5.714372" lat="51.095647"><ele>13.2</ele><time>2022-06-26T09:33:39.000Z</time></trkpt><trkpt lon="5.714484" lat="51.095681"><ele>13.2</ele><time>2022-06-26T09:33:40.000Z</time></trkpt><trkpt lon="5.714578" lat="51.095705"><ele>13.2</ele><time>2022-06-26T09:33:41.000Z</time></trkpt><trkpt lon="5.714686" lat="51.095738"><ele>13</ele><time>2022-06-26T09:33:42.000Z</time></trkpt><trkpt lon="5.714776" lat="51.095765"><ele>13</ele><time>2022-06-26T09:33:43.000Z</time></trkpt><trkpt lon="5.714892" lat="51.095795"><ele>13</ele><time>2022-06-26T09:33:44.000Z</time></trkpt><trkpt lon="5.714991" lat="51.095825"><ele>13</ele><time>2022-06-26T09:33:45.000Z</time></trkpt><trkpt lon="5.715095" lat="51.095852"><ele>13.2</ele><time>2022-06-26T09:33:46.000Z</time></trkpt><trkpt lon="5.715185" lat="51.095873"><ele>13.2</ele><time>2022-06-26T09:33:47.000Z</time></trkpt><trkpt lon="5.715293" lat="51.095902"><ele>13.2</ele><time>2022-06-26T09:33:48.000Z</time></trkpt><trkpt lon="5.715385" lat="51.095927"><ele>13.2</ele><time>2022-06-26T09:33:49.000Z</time></trkpt><trkpt lon="5.715488" lat="51.095951"><ele>13.2</ele><time>2022-06-26T09:33:50.000Z</time></trkpt><trkpt lon="5.715579" lat="51.095973"><ele>13.2</ele><time>2022-06-26T09:33:51.000Z</time></trkpt><trkpt lon="5.715677" lat="51.095997"><ele>13.2</ele><time>2022-06-26T09:33:52.000Z</time></trkpt><trkpt lon="5.715772" lat="51.096016"><ele>13</ele><time>2022-06-26T09:33:53.000Z</time></trkpt><trkpt lon="5.715863" lat="51.096035"><ele>13</ele><time>2022-06-26T09:33:54.000Z</time></trkpt><trkpt lon="5.715933" lat="51.09605"><ele>13</ele><time>2022-06-26T09:33:55.000Z</time></trkpt><trkpt lon="5.716038" lat="51.096073"><ele>13</ele><time>2022-06-26T09:33:56.000Z</time></trkpt><trkpt lon="5.716116" lat="51.096088"><ele>13</ele><time>2022-06-26T09:33:57.000Z</time></trkpt><trkpt lon="5.716204" lat="51.096104"><ele>13</ele><time>2022-06-26T09:33:58.000Z</time></trkpt><trkpt lon="5.716273" lat="51.096121"><ele>13</ele><time>2022-06-26T09:33:59.000Z</time></trkpt><trkpt lon="5.716358" lat="51.096146"><ele>13.2</ele><time>2022-06-26T09:34:00.000Z</time></trkpt><trkpt lon="5.716427" lat="51.096171"><ele>13</ele><time>2022-06-26T09:34:01.000Z</time></trkpt><trkpt lon="5.716517" lat="51.096196"><ele>13</ele><time>2022-06-26T09:34:02.000Z</time></trkpt><trkpt lon="5.716595" lat="51.096212"><ele>13</ele><time>2022-06-26T09:34:03.000Z</time></trkpt><trkpt lon="5.716688" lat="51.096234"><ele>13</ele><time>2022-06-26T09:34:04.000Z</time></trkpt><trkpt lon="5.716761" lat="51.096248"><ele>13</ele><time>2022-06-26T09:34:05.000Z</time></trkpt><trkpt lon="5.716833" lat="51.096264"><ele>13</ele><time>2022-06-26T09:34:06.000Z</time></trkpt><trkpt lon="5.716885" lat="51.096275"><ele>13</ele><time>2022-06-26T09:34:07.000Z</time></trkpt><trkpt lon="5.716939" lat="51.096287"><ele>13</ele><time>2022-06-26T09:34:08.000Z</time></trkpt><trkpt lon="5.716979" lat="51.096298"><ele>13</ele><time>2022-06-26T09:34:09.000Z</time></trkpt><trkpt lon="5.717008" lat="51.096307"><ele>13.2</ele><time>2022-06-26T09:34:10.000Z</time></trkpt><trkpt lon="5.717045" lat="51.096329"><ele>13.2</ele><time>2022-06-26T09:34:11.000Z</time></trkpt><trkpt lon="5.71706" lat="51.09636"><ele>13.2</ele><time>2022-06-26T09:34:12.000Z</time></trkpt><trkpt lon="5.717065" lat="51.096401"><ele>13.2</ele><time>2022-06-26T09:34:13.000Z</time></trkpt><trkpt lon="5.717069" lat="51.096439"><ele>13</ele><time>2022-06-26T09:34:14.000Z</time></trkpt><trkpt lon="5.717075" lat="51.096506"><ele>13</ele><time>2022-06-26T09:34:15.000Z</time></trkpt><trkpt lon="5.717078" lat="51.096567"><ele>13</ele><time>2022-06-26T09:34:16.000Z</time></trkpt><trkpt lon="5.717085" lat="51.096634"><ele>13</ele><time>2022-06-26T09:34:17.000Z</time></trkpt><trkpt lon="5.717093" lat="51.096701"><ele>13</ele><time>2022-06-26T09:34:18.000Z</time></trkpt><trkpt lon="5.717105" lat="51.096772"><ele>12.8</ele><time>2022-06-26T09:34:19.000Z</time></trkpt><trkpt lon="5.717115" lat="51.096833"><ele>12.8</ele><time>2022-06-26T09:34:20.000Z</time></trkpt><trkpt lon="5.717123" lat="51.096918"><ele>12.8</ele><time>2022-06-26T09:34:21.000Z</time></trkpt><trkpt lon="5.71713" lat="51.097009"><ele>12.6</ele><time>2022-06-26T09:34:22.000Z</time></trkpt><trkpt lon="5.717139" lat="51.097085"><ele>12.6</ele><time>2022-06-26T09:34:23.000Z</time></trkpt><trkpt lon="5.71715" lat="51.097186"><ele>12.4</ele><time>2022-06-26T09:34:24.000Z</time></trkpt><trkpt lon="5.717155" lat="51.097274"><ele>12.2</ele><time>2022-06-26T09:34:25.000Z</time></trkpt><trkpt lon="5.71716" lat="51.097371"><ele>12</ele><time>2022-06-26T09:34:26.000Z</time></trkpt><trkpt lon="5.717168" lat="51.097468"><ele>12</ele><time>2022-06-26T09:34:27.000Z</time></trkpt><trkpt lon="5.717178" lat="51.097564"><ele>11.8</ele><time>2022-06-26T09:34:28.000Z</time></trkpt><trkpt lon="5.717193" lat="51.097675"><ele>11.8</ele><time>2022-06-26T09:34:29.000Z</time></trkpt><trkpt lon="5.717205" lat="51.097778"><ele>11.8</ele><time>2022-06-26T09:34:30.000Z</time></trkpt><trkpt lon="5.717213" lat="51.097881"><ele>11.8</ele><time>2022-06-26T09:34:31.000Z</time></trkpt><trkpt lon="5.717226" lat="51.097989"><ele>11.8</ele><time>2022-06-26T09:34:32.000Z</time></trkpt><trkpt lon="5.71724" lat="51.098096"><ele>11.6</ele><time>2022-06-26T09:34:33.000Z</time></trkpt><trkpt lon="5.71725" lat="51.098195"><ele>11.6</ele><time>2022-06-26T09:34:34.000Z</time></trkpt><trkpt lon="5.717258" lat="51.098296"><ele>11.6</ele><time>2022-06-26T09:34:35.000Z</time></trkpt><trkpt lon="5.717265" lat="51.098398"><ele>11.6</ele><time>2022-06-26T09:34:36.000Z</time></trkpt><trkpt lon="5.717273" lat="51.098495"><ele>11.4</ele><time>2022-06-26T09:34:37.000Z</time></trkpt><trkpt lon="5.717282" lat="51.098581"><ele>11.4</ele><time>2022-06-26T09:34:38.000Z</time></trkpt><trkpt lon="5.717295" lat="51.098694"><ele>11.2</ele><time>2022-06-26T09:34:39.000Z</time></trkpt><trkpt lon="5.71731" lat="51.098787"><ele>11.4</ele><time>2022-06-26T09:34:40.000Z</time></trkpt><trkpt lon="5.717325" lat="51.098884"><ele>11.4</ele><time>2022-06-26T09:34:41.000Z</time></trkpt><trkpt lon="5.717336" lat="51.098975"><ele>11.4</ele><time>2022-06-26T09:34:42.000Z</time></trkpt><trkpt lon="5.71735" lat="51.09906"><ele>11.2</ele><time>2022-06-26T09:34:43.000Z</time></trkpt><trkpt lon="5.717365" lat="51.099149"><ele>11.2</ele><time>2022-06-26T09:34:44.000Z</time></trkpt><trkpt lon="5.717373" lat="51.099215"><ele>11.2</ele><time>2022-06-26T09:34:45.000Z</time></trkpt><trkpt lon="5.717383" lat="51.099313"><ele>11.4</ele><time>2022-06-26T09:34:46.000Z</time></trkpt><trkpt lon="5.717394" lat="51.099386"><ele>11.4</ele><time>2022-06-26T09:34:47.000Z</time></trkpt><trkpt lon="5.717403" lat="51.099473"><ele>11.4</ele><time>2022-06-26T09:34:48.000Z</time></trkpt><trkpt lon="5.717408" lat="51.09954"><ele>11.4</ele><time>2022-06-26T09:34:49.000Z</time></trkpt><trkpt lon="5.717415" lat="51.099618"><ele>11.4</ele><time>2022-06-26T09:34:50.000Z</time></trkpt><trkpt lon="5.717423" lat="51.099688"><ele>11.4</ele><time>2022-06-26T09:34:51.000Z</time></trkpt><trkpt lon="5.71743" lat="51.099764"><ele>11.4</ele><time>2022-06-26T09:34:52.000Z</time></trkpt><trkpt lon="5.717443" lat="51.099832"><ele>11.2</ele><time>2022-06-26T09:34:53.000Z</time></trkpt><trkpt lon="5.717457" lat="51.099905"><ele>11.2</ele><time>2022-06-26T09:34:54.000Z</time></trkpt><trkpt lon="5.717468" lat="51.099977"><ele>11.2</ele><time>2022-06-26T09:34:55.000Z</time></trkpt><trkpt lon="5.717482" lat="51.100061"><ele>11</ele><time>2022-06-26T09:34:56.000Z</time></trkpt><trkpt lon="5.717489" lat="51.100129"><ele>11</ele><time>2022-06-26T09:34:57.000Z</time></trkpt><trkpt lon="5.717504" lat="51.100221"><ele>10.8</ele><time>2022-06-26T09:34:58.000Z</time></trkpt><trkpt lon="5.717516" lat="51.100294"><ele>10.6</ele><time>2022-06-26T09:34:59.000Z</time></trkpt><trkpt lon="5.717529" lat="51.100382"><ele>10.6</ele><time>2022-06-26T09:35:00.000Z</time></trkpt><trkpt lon="5.717536" lat="51.100438"><ele>10.6</ele><time>2022-06-26T09:35:01.000Z</time></trkpt><trkpt lon="5.71755" lat="51.100533"><ele>10.6</ele><time>2022-06-26T09:35:02.000Z</time></trkpt><trkpt lon="5.717561" lat="51.100601"><ele>10.6</ele><time>2022-06-26T09:35:03.000Z</time></trkpt><trkpt lon="5.717572" lat="51.10069"><ele>10.6</ele><time>2022-06-26T09:35:04.000Z</time></trkpt><trkpt lon="5.717579" lat="51.100756"><ele>10.6</ele><time>2022-06-26T09:35:05.000Z</time></trkpt><trkpt lon="5.717589" lat="51.100847"><ele>10.6</ele><time>2022-06-26T09:35:06.000Z</time></trkpt><trkpt lon="5.717596" lat="51.100921"><ele>10.8</ele><time>2022-06-26T09:35:07.000Z</time></trkpt><trkpt lon="5.717608" lat="51.101002"><ele>10.8</ele><time>2022-06-26T09:35:08.000Z</time></trkpt><trkpt lon="5.717617" lat="51.101065"><ele>10.8</ele><time>2022-06-26T09:35:09.000Z</time></trkpt><trkpt lon="5.71763" lat="51.101159"><ele>10.8</ele><time>2022-06-26T09:35:10.000Z</time></trkpt><trkpt lon="5.717641" lat="51.101232"><ele>10.8</ele><time>2022-06-26T09:35:11.000Z</time></trkpt><trkpt lon="5.717652" lat="51.101319"><ele>10.8</ele><time>2022-06-26T09:35:12.000Z</time></trkpt><trkpt lon="5.717661" lat="51.101386"><ele>10.8</ele><time>2022-06-26T09:35:13.000Z</time></trkpt><trkpt lon="5.717673" lat="51.101475"><ele>10.8</ele><time>2022-06-26T09:35:14.000Z</time></trkpt><trkpt lon="5.717686" lat="51.101545"><ele>10.8</ele><time>2022-06-26T09:35:15.000Z</time></trkpt><trkpt lon="5.717698" lat="51.101629"><ele>10.8</ele><time>2022-06-26T09:35:16.000Z</time></trkpt><trkpt lon="5.717707" lat="51.101698"><ele>10.8</ele><time>2022-06-26T09:35:17.000Z</time></trkpt><trkpt lon="5.717718" lat="51.101793"><ele>10.8</ele><time>2022-06-26T09:35:18.000Z</time></trkpt><trkpt lon="5.717728" lat="51.101872"><ele>10.8</ele><time>2022-06-26T09:35:19.000Z</time></trkpt><trkpt lon="5.71774" lat="51.101961"><ele>10.6</ele><time>2022-06-26T09:35:20.000Z</time></trkpt><trkpt lon="5.717748" lat="51.102034"><ele>10.6</ele><time>2022-06-26T09:35:21.000Z</time></trkpt><trkpt lon="5.717758" lat="51.102122"><ele>10.4</ele><time>2022-06-26T09:35:22.000Z</time></trkpt><trkpt lon="5.71777" lat="51.102205"><ele>10.4</ele><time>2022-06-26T09:35:23.000Z</time></trkpt><trkpt lon="5.717782" lat="51.102284"><ele>10.2</ele><time>2022-06-26T09:35:24.000Z</time></trkpt><trkpt lon="5.71779" lat="51.10235"><ele>10.2</ele><time>2022-06-26T09:35:25.000Z</time></trkpt><trkpt lon="5.7178" lat="51.102449"><ele>10.2</ele><time>2022-06-26T09:35:26.000Z</time></trkpt><trkpt lon="5.717808" lat="51.102527"><ele>10.2</ele><time>2022-06-26T09:35:27.000Z</time></trkpt><trkpt lon="5.717818" lat="51.102613"><ele>10.2</ele><time>2022-06-26T09:35:28.000Z</time></trkpt><trkpt lon="5.717829" lat="51.102681"><ele>10.2</ele><time>2022-06-26T09:35:29.000Z</time></trkpt><trkpt lon="5.717844" lat="51.102777"><ele>10.2</ele><time>2022-06-26T09:35:30.000Z</time></trkpt><trkpt lon="5.717856" lat="51.102855"><ele>10.4</ele><time>2022-06-26T09:35:31.000Z</time></trkpt><trkpt lon="5.71787" lat="51.102948"><ele>10.4</ele><time>2022-06-26T09:35:32.000Z</time></trkpt><trkpt lon="5.717883" lat="51.103021"><ele>10.4</ele><time>2022-06-26T09:35:33.000Z</time></trkpt><trkpt lon="5.7179" lat="51.10312"><ele>10.4</ele><time>2022-06-26T09:35:34.000Z</time></trkpt><trkpt lon="5.717914" lat="51.103201"><ele>10.4</ele><time>2022-06-26T09:35:35.000Z</time></trkpt><trkpt lon="5.717927" lat="51.103295"><ele>10.6</ele><time>2022-06-26T09:35:36.000Z</time></trkpt><trkpt lon="5.717937" lat="51.103368"><ele>10.6</ele><time>2022-06-26T09:35:37.000Z</time></trkpt><trkpt lon="5.717949" lat="51.103463"><ele>10.6</ele><time>2022-06-26T09:35:38.000Z</time></trkpt><trkpt lon="5.717958" lat="51.103544"><ele>10.6</ele><time>2022-06-26T09:35:39.000Z</time></trkpt><trkpt lon="5.717965" lat="51.103631"><ele>10.6</ele><time>2022-06-26T09:35:40.000Z</time></trkpt><trkpt lon="5.717972" lat="51.103703"><ele>10.6</ele><time>2022-06-26T09:35:41.000Z</time></trkpt><trkpt lon="5.71798" lat="51.103796"><ele>10.6</ele><time>2022-06-26T09:35:42.000Z</time></trkpt><trkpt lon="5.717987" lat="51.103871"><ele>10.6</ele><time>2022-06-26T09:35:43.000Z</time></trkpt><trkpt lon="5.71799" lat="51.103951"><ele>10.8</ele><time>2022-06-26T09:35:44.000Z</time></trkpt><trkpt lon="5.717995" lat="51.104017"><ele>11</ele><time>2022-06-26T09:35:45.000Z</time></trkpt><trkpt lon="5.718005" lat="51.104108"><ele>11</ele><time>2022-06-26T09:35:46.000Z</time></trkpt><trkpt lon="5.718013" lat="51.104178"><ele>11</ele><time>2022-06-26T09:35:47.000Z</time></trkpt><trkpt lon="5.718019" lat="51.104261"><ele>11</ele><time>2022-06-26T09:35:48.000Z</time></trkpt><trkpt lon="5.718026" lat="51.104332"><ele>11</ele><time>2022-06-26T09:35:49.000Z</time></trkpt><trkpt lon="5.718035" lat="51.104421"><ele>11</ele><time>2022-06-26T09:35:50.000Z</time></trkpt><trkpt lon="5.718045" lat="51.104497"><ele>10.8</ele><time>2022-06-26T09:35:51.000Z</time></trkpt><trkpt lon="5.718053" lat="51.104585"><ele>10.8</ele><time>2022-06-26T09:35:52.000Z</time></trkpt><trkpt lon="5.718061" lat="51.104662"><ele>10.8</ele><time>2022-06-26T09:35:53.000Z</time></trkpt><trkpt lon="5.718075" lat="51.104741"><ele>10.8</ele><time>2022-06-26T09:35:54.000Z</time></trkpt><trkpt lon="5.718087" lat="51.104821"><ele>10.8</ele><time>2022-06-26T09:35:55.000Z</time></trkpt><trkpt lon="5.7181" lat="51.104905"><ele>10.6</ele><time>2022-06-26T09:35:56.000Z</time></trkpt><trkpt lon="5.718108" lat="51.104966"><ele>10.6</ele><time>2022-06-26T09:35:57.000Z</time></trkpt><trkpt lon="5.718122" lat="51.105066"><ele>10.4</ele><time>2022-06-26T09:35:58.000Z</time></trkpt><trkpt lon="5.718131" lat="51.105145"><ele>10.4</ele><time>2022-06-26T09:35:59.000Z</time></trkpt><trkpt lon="5.718142" lat="51.105229"><ele>10.4</ele><time>2022-06-26T09:36:00.000Z</time></trkpt><trkpt lon="5.718153" lat="51.105297"><ele>10.4</ele><time>2022-06-26T09:36:01.000Z</time></trkpt><trkpt lon="5.718169" lat="51.105391"><ele>10.4</ele><time>2022-06-26T09:36:02.000Z</time></trkpt><trkpt lon="5.71818" lat="51.105469"><ele>10.4</ele><time>2022-06-26T09:36:03.000Z</time></trkpt><trkpt lon="5.718188" lat="51.105554"><ele>10.4</ele><time>2022-06-26T09:36:04.000Z</time></trkpt><trkpt lon="5.718198" lat="51.105618"><ele>10.6</ele><time>2022-06-26T09:36:05.000Z</time></trkpt><trkpt lon="5.718212" lat="51.105714"><ele>10.6</ele><time>2022-06-26T09:36:06.000Z</time></trkpt><trkpt lon="5.718224" lat="51.105791"><ele>10.6</ele><time>2022-06-26T09:36:07.000Z</time></trkpt><trkpt lon="5.718237" lat="51.105874"><ele>10.6</ele><time>2022-06-26T09:36:08.000Z</time></trkpt><trkpt lon="5.718244" lat="51.105947"><ele>10.4</ele><time>2022-06-26T09:36:09.000Z</time></trkpt><trkpt lon="5.71825" lat="51.106039"><ele>10.6</ele><time>2022-06-26T09:36:10.000Z</time></trkpt><trkpt lon="5.718254" lat="51.106109"><ele>10.6</ele><time>2022-06-26T09:36:11.000Z</time></trkpt><trkpt lon="5.71826" lat="51.106202"><ele>10.6</ele><time>2022-06-26T09:36:12.000Z</time></trkpt><trkpt lon="5.718268" lat="51.10627"><ele>10.6</ele><time>2022-06-26T09:36:13.000Z</time></trkpt><trkpt lon="5.71828" lat="51.106363"><ele>10.6</ele><time>2022-06-26T09:36:14.000Z</time></trkpt><trkpt lon="5.718289" lat="51.106443"><ele>10.4</ele><time>2022-06-26T09:36:15.000Z</time></trkpt><trkpt lon="5.7183" lat="51.106527"><ele>10.4</ele><time>2022-06-26T09:36:16.000Z</time></trkpt><trkpt lon="5.71831" lat="51.1066"><ele>10.2</ele><time>2022-06-26T09:36:17.000Z</time></trkpt><trkpt lon="5.718323" lat="51.106691"><ele>10.2</ele><time>2022-06-26T09:36:18.000Z</time></trkpt><trkpt lon="5.718334" lat="51.106761"><ele>10.2</ele><time>2022-06-26T09:36:19.000Z</time></trkpt><trkpt lon="5.718347" lat="51.106847"><ele>10.2</ele><time>2022-06-26T09:36:20.000Z</time></trkpt><trkpt lon="5.718359" lat="51.106921"><ele>10.2</ele><time>2022-06-26T09:36:21.000Z</time></trkpt><trkpt lon="5.718372" lat="51.107012"><ele>10.2</ele><time>2022-06-26T09:36:22.000Z</time></trkpt><trkpt lon="5.718385" lat="51.10709"><ele>10.2</ele><time>2022-06-26T09:36:23.000Z</time></trkpt><trkpt lon="5.718395" lat="51.107174"><ele>10.2</ele><time>2022-06-26T09:36:24.000Z</time></trkpt><trkpt lon="5.718404" lat="51.107239"><ele>10.4</ele><time>2022-06-26T09:36:25.000Z</time></trkpt><trkpt lon="5.718415" lat="51.107339"><ele>10.4</ele><time>2022-06-26T09:36:26.000Z</time></trkpt><trkpt lon="5.718423" lat="51.107412"><ele>10.4</ele><time>2022-06-26T09:36:27.000Z</time></trkpt><trkpt lon="5.718433" lat="51.107499"><ele>10.4</ele><time>2022-06-26T09:36:28.000Z</time></trkpt><trkpt lon="5.718442" lat="51.107569"><ele>10.4</ele><time>2022-06-26T09:36:29.000Z</time></trkpt><trkpt lon="5.718455" lat="51.107663"><ele>10.4</ele><time>2022-06-26T09:36:30.000Z</time></trkpt><trkpt lon="5.718467" lat="51.107732"><ele>10.2</ele><time>2022-06-26T09:36:31.000Z</time></trkpt><trkpt lon="5.718478" lat="51.107828"><ele>10.4</ele><time>2022-06-26T09:36:32.000Z</time></trkpt><trkpt lon="5.718488" lat="51.107891"><ele>10.4</ele><time>2022-06-26T09:36:33.000Z</time></trkpt><trkpt lon="5.718497" lat="51.107984"><ele>10.4</ele><time>2022-06-26T09:36:34.000Z</time></trkpt><trkpt lon="5.718507" lat="51.108057"><ele>10.4</ele><time>2022-06-26T09:36:35.000Z</time></trkpt><trkpt lon="5.718518" lat="51.108144"><ele>10.4</ele><time>2022-06-26T09:36:36.000Z</time></trkpt><trkpt lon="5.718529" lat="51.108216"><ele>10.4</ele><time>2022-06-26T09:36:37.000Z</time></trkpt><trkpt lon="5.718537" lat="51.108308"><ele>10.6</ele><time>2022-06-26T09:36:38.000Z</time></trkpt><trkpt lon="5.718547" lat="51.108384"><ele>10.6</ele><time>2022-06-26T09:36:39.000Z</time></trkpt><trkpt lon="5.71856" lat="51.108468"><ele>10.6</ele><time>2022-06-26T09:36:40.000Z</time></trkpt><trkpt lon="5.718574" lat="51.108533"><ele>10.6</ele><time>2022-06-26T09:36:41.000Z</time></trkpt><trkpt lon="5.718593" lat="51.108621"><ele>10.6</ele><time>2022-06-26T09:36:42.000Z</time></trkpt><trkpt lon="5.718608" lat="51.108684"><ele>10.6</ele><time>2022-06-26T09:36:43.000Z</time></trkpt><trkpt lon="5.71862" lat="51.108762"><ele>10.6</ele><time>2022-06-26T09:36:44.000Z</time></trkpt><trkpt lon="5.71863" lat="51.108828"><ele>10.4</ele><time>2022-06-26T09:36:45.000Z</time></trkpt><trkpt lon="5.718637" lat="51.108919"><ele>10.2</ele><time>2022-06-26T09:36:46.000Z</time></trkpt><trkpt lon="5.71864" lat="51.108991"><ele>10.2</ele><time>2022-06-26T09:36:47.000Z</time></trkpt><trkpt lon="5.718649" lat="51.109082"><ele>10.2</ele><time>2022-06-26T09:36:48.000Z</time></trkpt><trkpt lon="5.718657" lat="51.109155"><ele>10.2</ele><time>2022-06-26T09:36:49.000Z</time></trkpt><trkpt lon="5.718669" lat="51.109247"><ele>10.4</ele><time>2022-06-26T09:36:50.000Z</time></trkpt><trkpt lon="5.718676" lat="51.109327"><ele>10.6</ele><time>2022-06-26T09:36:51.000Z</time></trkpt><trkpt lon="5.718683" lat="51.109415"><ele>10.6</ele><time>2022-06-26T09:36:52.000Z</time></trkpt><trkpt lon="5.718695" lat="51.109494"><ele>10.6</ele><time>2022-06-26T09:36:53.000Z</time></trkpt><trkpt lon="5.718707" lat="51.109579"><ele>10.6</ele><time>2022-06-26T09:36:54.000Z</time></trkpt><trkpt lon="5.71872" lat="51.109657"><ele>10.6</ele><time>2022-06-26T09:36:55.000Z</time></trkpt><trkpt lon="5.718732" lat="51.109738"><ele>10.6</ele><time>2022-06-26T09:36:56.000Z</time></trkpt><trkpt lon="5.71874" lat="51.109801"><ele>10.6</ele><time>2022-06-26T09:36:57.000Z</time></trkpt><trkpt lon="5.71875" lat="51.109899"><ele>10.8</ele><time>2022-06-26T09:36:58.000Z</time></trkpt><trkpt lon="5.718758" lat="51.109972"><ele>10.8</ele><time>2022-06-26T09:36:59.000Z</time></trkpt><trkpt lon="5.718765" lat="51.110059"><ele>10.8</ele><time>2022-06-26T09:37:00.000Z</time></trkpt><trkpt lon="5.718772" lat="51.110127"><ele>10.6</ele><time>2022-06-26T09:37:01.000Z</time></trkpt><trkpt lon="5.718784" lat="51.110216"><ele>10.6</ele><time>2022-06-26T09:37:02.000Z</time></trkpt><trkpt lon="5.718794" lat="51.110292"><ele>10.6</ele><time>2022-06-26T09:37:03.000Z</time></trkpt><trkpt lon="5.718807" lat="51.11038"><ele>10.6</ele><time>2022-06-26T09:37:04.000Z</time></trkpt><trkpt lon="5.718817" lat="51.110449"><ele>10.4</ele><time>2022-06-26T09:37:05.000Z</time></trkpt><trkpt lon="5.718834" lat="51.11054"><ele>10.4</ele><time>2022-06-26T09:37:06.000Z</time></trkpt><trkpt lon="5.718844" lat="51.110618"><ele>10.4</ele><time>2022-06-26T09:37:07.000Z</time></trkpt><trkpt lon="5.718854" lat="51.110712"><ele>10.4</ele><time>2022-06-26T09:37:08.000Z</time></trkpt><trkpt lon="5.718861" lat="51.110784"><ele>10.4</ele><time>2022-06-26T09:37:09.000Z</time></trkpt><trkpt lon="5.718874" lat="51.110882"><ele>10.2</ele><time>2022-06-26T09:37:10.000Z</time></trkpt><trkpt lon="5.718884" lat="51.110962"><ele>10.4</ele><time>2022-06-26T09:37:11.000Z</time></trkpt><trkpt lon="5.718897" lat="51.111054"><ele>10.4</ele><time>2022-06-26T09:37:12.000Z</time></trkpt><trkpt lon="5.718904" lat="51.111127"><ele>10.4</ele><time>2022-06-26T09:37:13.000Z</time></trkpt><trkpt lon="5.718915" lat="51.111227"><ele>10.4</ele><time>2022-06-26T09:37:14.000Z</time></trkpt><trkpt lon="5.718924" lat="51.111307"><ele>10.2</ele><time>2022-06-26T09:37:15.000Z</time></trkpt><trkpt lon="5.718933" lat="51.111398"><ele>10.2</ele><time>2022-06-26T09:37:16.000Z</time></trkpt><trkpt lon="5.718941" lat="51.111473"><ele>10</ele><time>2022-06-26T09:37:17.000Z</time></trkpt><trkpt lon="5.718953" lat="51.11157"><ele>10</ele><time>2022-06-26T09:37:18.000Z</time></trkpt><trkpt lon="5.718961" lat="51.111642"><ele>10</ele><time>2022-06-26T09:37:19.000Z</time></trkpt><trkpt lon="5.71897" lat="51.11173"><ele>10</ele><time>2022-06-26T09:37:20.000Z</time></trkpt><trkpt lon="5.718979" lat="51.111808"><ele>9.8</ele><time>2022-06-26T09:37:21.000Z</time></trkpt><trkpt lon="5.71899" lat="51.111898"><ele>9.8</ele><time>2022-06-26T09:37:22.000Z</time></trkpt><trkpt lon="5.719002" lat="51.111975"><ele>9.8</ele><time>2022-06-26T09:37:23.000Z</time></trkpt><trkpt lon="5.719012" lat="51.112062"><ele>9.8</ele><time>2022-06-26T09:37:24.000Z</time></trkpt><trkpt lon="5.71902" lat="51.112145"><ele>9.8</ele><time>2022-06-26T09:37:25.000Z</time></trkpt><trkpt lon="5.71903" lat="51.112235"><ele>10</ele><time>2022-06-26T09:37:26.000Z</time></trkpt><trkpt lon="5.719038" lat="51.112315"><ele>9.8</ele><time>2022-06-26T09:37:27.000Z</time></trkpt><trkpt lon="5.719045" lat="51.112406"><ele>9.8</ele><time>2022-06-26T09:37:28.000Z</time></trkpt><trkpt lon="5.719053" lat="51.112489"><ele>9.6</ele><time>2022-06-26T09:37:29.000Z</time></trkpt><trkpt lon="5.719065" lat="51.112577"><ele>9.6</ele><time>2022-06-26T09:37:30.000Z</time></trkpt><trkpt lon="5.719074" lat="51.112651"><ele>9.6</ele><time>2022-06-26T09:37:31.000Z</time></trkpt><trkpt lon="5.719089" lat="51.112748"><ele>9.6</ele><time>2022-06-26T09:37:32.000Z</time></trkpt><trkpt lon="5.719103" lat="51.112823"><ele>9.6</ele><time>2022-06-26T09:37:33.000Z</time></trkpt><trkpt lon="5.71912" lat="51.112924"><ele>9.8</ele><time>2022-06-26T09:37:34.000Z</time></trkpt><trkpt lon="5.719133" lat="51.113007"><ele>9.8</ele><time>2022-06-26T09:37:35.000Z</time></trkpt><trkpt lon="5.71915" lat="51.113104"><ele>9.6</ele><time>2022-06-26T09:37:36.000Z</time></trkpt><trkpt lon="5.719162" lat="51.113179"><ele>9.6</ele><time>2022-06-26T09:37:37.000Z</time></trkpt><trkpt lon="5.719177" lat="51.113279"><ele>9.8</ele><time>2022-06-26T09:37:38.000Z</time></trkpt><trkpt lon="5.719186" lat="51.113356"><ele>9.8</ele><time>2022-06-26T09:37:39.000Z</time></trkpt><trkpt lon="5.719197" lat="51.11345"><ele>9.8</ele><time>2022-06-26T09:37:40.000Z</time></trkpt><trkpt lon="5.719207" lat="51.113524"><ele>9.6</ele><time>2022-06-26T09:37:41.000Z</time></trkpt><trkpt lon="5.719218" lat="51.113622"><ele>9.6</ele><time>2022-06-26T09:37:42.000Z</time></trkpt><trkpt lon="5.719228" lat="51.113702"><ele>9.6</ele><time>2022-06-26T09:37:43.000Z</time></trkpt><trkpt lon="5.71924" lat="51.113794"><ele>9.6</ele><time>2022-06-26T09:37:44.000Z</time></trkpt><trkpt lon="5.71925" lat="51.113866"><ele>9.8</ele><time>2022-06-26T09:37:45.000Z</time></trkpt><trkpt lon="5.719265" lat="51.113962"><ele>9.6</ele><time>2022-06-26T09:37:46.000Z</time></trkpt><trkpt lon="5.719279" lat="51.11404"><ele>9.4</ele><time>2022-06-26T09:37:47.000Z</time></trkpt><trkpt lon="5.719293" lat="51.114121"><ele>9.4</ele><time>2022-06-26T09:37:48.000Z</time></trkpt><trkpt lon="5.719305" lat="51.114187"><ele>9.4</ele><time>2022-06-26T09:37:49.000Z</time></trkpt><trkpt lon="5.719319" lat="51.114275"><ele>9.6</ele><time>2022-06-26T09:37:50.000Z</time></trkpt><trkpt lon="5.719329" lat="51.114346"><ele>9.6</ele><time>2022-06-26T09:37:51.000Z</time></trkpt><trkpt lon="5.719338" lat="51.114427"><ele>9.6</ele><time>2022-06-26T09:37:52.000Z</time></trkpt><trkpt lon="5.719343" lat="51.114496"><ele>9.4</ele><time>2022-06-26T09:37:53.000Z</time></trkpt><trkpt lon="5.719349" lat="51.11458"><ele>9.4</ele><time>2022-06-26T09:37:54.000Z</time></trkpt><trkpt lon="5.719355" lat="51.114658"><ele>9.4</ele><time>2022-06-26T09:37:55.000Z</time></trkpt><trkpt lon="5.719363" lat="51.114739"><ele>9.4</ele><time>2022-06-26T09:37:56.000Z</time></trkpt><trkpt lon="5.71937" lat="51.114804"><ele>9.4</ele><time>2022-06-26T09:37:57.000Z</time></trkpt><trkpt lon="5.719379" lat="51.114896"><ele>9.4</ele><time>2022-06-26T09:37:58.000Z</time></trkpt><trkpt lon="5.719386" lat="51.114975"><ele>9.4</ele><time>2022-06-26T09:37:59.000Z</time></trkpt><trkpt lon="5.719397" lat="51.115063"><ele>9.4</ele><time>2022-06-26T09:38:00.000Z</time></trkpt><trkpt lon="5.719404" lat="51.115126"><ele>9.2</ele><time>2022-06-26T09:38:01.000Z</time></trkpt><trkpt lon="5.719417" lat="51.115224"><ele>9.2</ele><time>2022-06-26T09:38:02.000Z</time></trkpt><trkpt lon="5.719426" lat="51.115297"><ele>9.2</ele><time>2022-06-26T09:38:03.000Z</time></trkpt><trkpt lon="5.719437" lat="51.115385"><ele>9.2</ele><time>2022-06-26T09:38:04.000Z</time></trkpt><trkpt lon="5.719447" lat="51.115453"><ele>9</ele><time>2022-06-26T09:38:05.000Z</time></trkpt><trkpt lon="5.719457" lat="51.11554"><ele>9</ele><time>2022-06-26T09:38:06.000Z</time></trkpt><trkpt lon="5.719464" lat="51.115615"><ele>9</ele><time>2022-06-26T09:38:07.000Z</time></trkpt><trkpt lon="5.719477" lat="51.115701"><ele>8.8</ele><time>2022-06-26T09:38:08.000Z</time></trkpt><trkpt lon="5.719484" lat="51.11577"><ele>8.8</ele><time>2022-06-26T09:38:09.000Z</time></trkpt><trkpt lon="5.719494" lat="51.115858"><ele>8.8</ele><time>2022-06-26T09:38:10.000Z</time></trkpt><trkpt lon="5.719501" lat="51.115926"><ele>8.8</ele><time>2022-06-26T09:38:11.000Z</time></trkpt><trkpt lon="5.71951" lat="51.116014"><ele>8.8</ele><time>2022-06-26T09:38:12.000Z</time></trkpt><trkpt lon="5.719516" lat="51.116079"><ele>8.8</ele><time>2022-06-26T09:38:13.000Z</time></trkpt><trkpt lon="5.719525" lat="51.11617"><ele>8.8</ele><time>2022-06-26T09:38:14.000Z</time></trkpt><trkpt lon="5.719534" lat="51.116245"><ele>8.8</ele><time>2022-06-26T09:38:15.000Z</time></trkpt><trkpt lon="5.719547" lat="51.116334"><ele>8.8</ele><time>2022-06-26T09:38:16.000Z</time></trkpt><trkpt lon="5.719559" lat="51.116403"><ele>8.8</ele><time>2022-06-26T09:38:17.000Z</time></trkpt><trkpt lon="5.719574" lat="51.116494"><ele>9</ele><time>2022-06-26T09:38:18.000Z</time></trkpt><trkpt lon="5.719584" lat="51.116565"><ele>9</ele><time>2022-06-26T09:38:19.000Z</time></trkpt><trkpt lon="5.719595" lat="51.116654"><ele>9</ele><time>2022-06-26T09:38:20.000Z</time></trkpt><trkpt lon="5.719601" lat="51.116728"><ele>9.2</ele><time>2022-06-26T09:38:21.000Z</time></trkpt><trkpt lon="5.719612" lat="51.116815"><ele>9.2</ele><time>2022-06-26T09:38:22.000Z</time></trkpt><trkpt lon="5.719624" lat="51.116898"><ele>9.4</ele><time>2022-06-26T09:38:23.000Z</time></trkpt><trkpt lon="5.719637" lat="51.116983"><ele>9.6</ele><time>2022-06-26T09:38:24.000Z</time></trkpt><trkpt lon="5.719649" lat="51.117059"><ele>9.6</ele><time>2022-06-26T09:38:25.000Z</time></trkpt><trkpt lon="5.71966" lat="51.117142"><ele>9.6</ele><time>2022-06-26T09:38:26.000Z</time></trkpt><trkpt lon="5.719669" lat="51.117215"><ele>9.6</ele><time>2022-06-26T09:38:27.000Z</time></trkpt><trkpt lon="5.719683" lat="51.1173"><ele>9.6</ele><time>2022-06-26T09:38:28.000Z</time></trkpt><trkpt lon="5.719695" lat="51.117367"><ele>9.8</ele><time>2022-06-26T09:38:29.000Z</time></trkpt><trkpt lon="5.719709" lat="51.117459"><ele>9.8</ele><time>2022-06-26T09:38:30.000Z</time></trkpt><trkpt lon="5.719719" lat="51.11752"><ele>9.8</ele><time>2022-06-26T09:38:31.000Z</time></trkpt><trkpt lon="5.719737" lat="51.1176"><ele>10</ele><time>2022-06-26T09:38:32.000Z</time></trkpt><trkpt lon="5.719752" lat="51.117661"><ele>10</ele><time>2022-06-26T09:38:33.000Z</time></trkpt><trkpt lon="5.719772" lat="51.11775"><ele>10.2</ele><time>2022-06-26T09:38:34.000Z</time></trkpt><trkpt lon="5.719784" lat="51.117826"><ele>10.4</ele><time>2022-06-26T09:38:35.000Z</time></trkpt><trkpt lon="5.719804" lat="51.117917"><ele>10.4</ele><time>2022-06-26T09:38:36.000Z</time></trkpt><trkpt lon="5.719825" lat="51.117988"><ele>10.4</ele><time>2022-06-26T09:38:37.000Z</time></trkpt><trkpt lon="5.719868" lat="51.118082"><ele>10.4</ele><time>2022-06-26T09:38:38.000Z</time></trkpt><trkpt lon="5.71992" lat="51.118152"><ele>10.4</ele><time>2022-06-26T09:38:39.000Z</time></trkpt><trkpt lon="5.719999" lat="51.118233"><ele>10.4</ele><time>2022-06-26T09:38:40.000Z</time></trkpt><trkpt lon="5.720073" lat="51.118294"><ele>10.4</ele><time>2022-06-26T09:38:41.000Z</time></trkpt><trkpt lon="5.720171" lat="51.11837"><ele>10.6</ele><time>2022-06-26T09:38:42.000Z</time></trkpt><trkpt lon="5.720251" lat="51.11844"><ele>10.6</ele><time>2022-06-26T09:38:43.000Z</time></trkpt><trkpt lon="5.720338" lat="51.118516"><ele>10.6</ele><time>2022-06-26T09:38:44.000Z</time></trkpt><trkpt lon="5.720408" lat="51.118584"><ele>10.6</ele><time>2022-06-26T09:38:45.000Z</time></trkpt><trkpt lon="5.720486" lat="51.11866"><ele>10.6</ele><time>2022-06-26T09:38:46.000Z</time></trkpt><trkpt lon="5.720547" lat="51.118716"><ele>10.8</ele><time>2022-06-26T09:38:47.000Z</time></trkpt><trkpt lon="5.720636" lat="51.118795"><ele>10.6</ele><time>2022-06-26T09:38:48.000Z</time></trkpt><trkpt lon="5.720699" lat="51.11886"><ele>10.4</ele><time>2022-06-26T09:38:49.000Z</time></trkpt><trkpt lon="5.720778" lat="51.118934"><ele>10.2</ele><time>2022-06-26T09:38:50.000Z</time></trkpt><trkpt lon="5.720849" lat="51.118999"><ele>10</ele><time>2022-06-26T09:38:51.000Z</time></trkpt><trkpt lon="5.720933" lat="51.119077"><ele>10</ele><time>2022-06-26T09:38:52.000Z</time></trkpt><trkpt lon="5.721005" lat="51.119143"><ele>9.8</ele><time>2022-06-26T09:38:53.000Z</time></trkpt><trkpt lon="5.721079" lat="51.11921"><ele>9.6</ele><time>2022-06-26T09:38:54.000Z</time></trkpt><trkpt lon="5.721134" lat="51.119267"><ele>9.6</ele><time>2022-06-26T09:38:55.000Z</time></trkpt><trkpt lon="5.721224" lat="51.119351"><ele>9.6</ele><time>2022-06-26T09:38:56.000Z</time></trkpt><trkpt lon="5.721291" lat="51.119413"><ele>9.6</ele><time>2022-06-26T09:38:57.000Z</time></trkpt><trkpt lon="5.721373" lat="51.119489"><ele>9.6</ele><time>2022-06-26T09:38:58.000Z</time></trkpt><trkpt lon="5.72143" lat="51.119547"><ele>9.6</ele><time>2022-06-26T09:38:59.000Z</time></trkpt><trkpt lon="5.721511" lat="51.119619"><ele>9.4</ele><time>2022-06-26T09:39:00.000Z</time></trkpt><trkpt lon="5.72158" lat="51.119676"><ele>9.6</ele><time>2022-06-26T09:39:01.000Z</time></trkpt><trkpt lon="5.721677" lat="51.119751"><ele>9.6</ele><time>2022-06-26T09:39:02.000Z</time></trkpt><trkpt lon="5.721744" lat="51.119807"><ele>9.4</ele><time>2022-06-26T09:39:03.000Z</time></trkpt><trkpt lon="5.721826" lat="51.119886"><ele>9.4</ele><time>2022-06-26T09:39:04.000Z</time></trkpt><trkpt lon="5.721886" lat="51.119946"><ele>9.4</ele><time>2022-06-26T09:39:05.000Z</time></trkpt><trkpt lon="5.721956" lat="51.120015"><ele>9.4</ele><time>2022-06-26T09:39:06.000Z</time></trkpt><trkpt lon="5.722018" lat="51.120071"><ele>9.4</ele><time>2022-06-26T09:39:07.000Z</time></trkpt><trkpt lon="5.722103" lat="51.120149"><ele>9.4</ele><time>2022-06-26T09:39:08.000Z</time></trkpt><trkpt lon="5.72218" lat="51.120216"><ele>9.4</ele><time>2022-06-26T09:39:09.000Z</time></trkpt><trkpt lon="5.722265" lat="51.120292"><ele>9.6</ele><time>2022-06-26T09:39:10.000Z</time></trkpt><trkpt lon="5.722352" lat="51.120363"><ele>9.8</ele><time>2022-06-26T09:39:11.000Z</time></trkpt><trkpt lon="5.722438" lat="51.120435"><ele>9.8</ele><time>2022-06-26T09:39:12.000Z</time></trkpt><trkpt lon="5.722513" lat="51.120505"><ele>9.8</ele><time>2022-06-26T09:39:13.000Z</time></trkpt><trkpt lon="5.722592" lat="51.120572"><ele>9.8</ele><time>2022-06-26T09:39:14.000Z</time></trkpt><trkpt lon="5.72267" lat="51.120639"><ele>9.8</ele><time>2022-06-26T09:39:15.000Z</time></trkpt><trkpt lon="5.722742" lat="51.120709"><ele>9.8</ele><time>2022-06-26T09:39:16.000Z</time></trkpt><trkpt lon="5.722798" lat="51.12076"><ele>9.8</ele><time>2022-06-26T09:39:17.000Z</time></trkpt><trkpt lon="5.722881" lat="51.120835"><ele>10</ele><time>2022-06-26T09:39:18.000Z</time></trkpt><trkpt lon="5.722946" lat="51.120892"><ele>9.8</ele><time>2022-06-26T09:39:19.000Z</time></trkpt><trkpt lon="5.723023" lat="51.120961"><ele>9.8</ele><time>2022-06-26T09:39:20.000Z</time></trkpt><trkpt lon="5.723087" lat="51.121018"><ele>10</ele><time>2022-06-26T09:39:21.000Z</time></trkpt><trkpt lon="5.723171" lat="51.121091"><ele>10</ele><time>2022-06-26T09:39:22.000Z</time></trkpt><trkpt lon="5.723243" lat="51.121153"><ele>10</ele><time>2022-06-26T09:39:23.000Z</time></trkpt><trkpt lon="5.723324" lat="51.12122"><ele>9.8</ele><time>2022-06-26T09:39:24.000Z</time></trkpt><trkpt lon="5.72339" lat="51.121278"><ele>10</ele><time>2022-06-26T09:39:25.000Z</time></trkpt><trkpt lon="5.723465" lat="51.121349"><ele>10</ele><time>2022-06-26T09:39:26.000Z</time></trkpt><trkpt lon="5.723541" lat="51.121418"><ele>9.8</ele><time>2022-06-26T09:39:27.000Z</time></trkpt><trkpt lon="5.723621" lat="51.121489"><ele>9.8</ele><time>2022-06-26T09:39:28.000Z</time></trkpt><trkpt lon="5.723679" lat="51.121545"><ele>9.8</ele><time>2022-06-26T09:39:29.000Z</time></trkpt><trkpt lon="5.72377" lat="51.121625"><ele>9.6</ele><time>2022-06-26T09:39:30.000Z</time></trkpt><trkpt lon="5.72384" lat="51.121686"><ele>9.6</ele><time>2022-06-26T09:39:31.000Z</time></trkpt><trkpt lon="5.723926" lat="51.121763"><ele>9.6</ele><time>2022-06-26T09:39:32.000Z</time></trkpt><trkpt lon="5.723995" lat="51.121822"><ele>9.6</ele><time>2022-06-26T09:39:33.000Z</time></trkpt><trkpt lon="5.724095" lat="51.121907"><ele>9.4</ele><time>2022-06-26T09:39:34.000Z</time></trkpt><trkpt lon="5.724171" lat="51.121963"><ele>9.6</ele><time>2022-06-26T09:39:35.000Z</time></trkpt><trkpt lon="5.724261" lat="51.122029"><ele>9.6</ele><time>2022-06-26T09:39:36.000Z</time></trkpt><trkpt lon="5.724325" lat="51.122077"><ele>9.6</ele><time>2022-06-26T09:39:37.000Z</time></trkpt><trkpt lon="5.724418" lat="51.122152"><ele>9.6</ele><time>2022-06-26T09:39:38.000Z</time></trkpt><trkpt lon="5.72449" lat="51.122215"><ele>9.6</ele><time>2022-06-26T09:39:39.000Z</time></trkpt><trkpt lon="5.724576" lat="51.122293"><ele>9.6</ele><time>2022-06-26T09:39:40.000Z</time></trkpt><trkpt lon="5.724641" lat="51.122347"><ele>9.6</ele><time>2022-06-26T09:39:41.000Z</time></trkpt><trkpt lon="5.724731" lat="51.122419"><ele>9.6</ele><time>2022-06-26T09:39:42.000Z</time></trkpt><trkpt lon="5.724804" lat="51.122476"><ele>9.6</ele><time>2022-06-26T09:39:43.000Z</time></trkpt><trkpt lon="5.724883" lat="51.122544"><ele>9.6</ele><time>2022-06-26T09:39:44.000Z</time></trkpt><trkpt lon="5.724947" lat="51.122593"><ele>9.6</ele><time>2022-06-26T09:39:45.000Z</time></trkpt><trkpt lon="5.725038" lat="51.122674"><ele>9.6</ele><time>2022-06-26T09:39:46.000Z</time></trkpt><trkpt lon="5.725103" lat="51.122734"><ele>9.6</ele><time>2022-06-26T09:39:47.000Z</time></trkpt><trkpt lon="5.725179" lat="51.122804"><ele>9.6</ele><time>2022-06-26T09:39:48.000Z</time></trkpt><trkpt lon="5.72524" lat="51.122862"><ele>9.6</ele><time>2022-06-26T09:39:49.000Z</time></trkpt><trkpt lon="5.725325" lat="51.122936"><ele>9.6</ele><time>2022-06-26T09:39:50.000Z</time></trkpt><trkpt lon="5.725397" lat="51.122999"><ele>9.6</ele><time>2022-06-26T09:39:51.000Z</time></trkpt><trkpt lon="5.725478" lat="51.123071"><ele>9.6</ele><time>2022-06-26T09:39:52.000Z</time></trkpt><trkpt lon="5.725549" lat="51.123129"><ele>9.6</ele><time>2022-06-26T09:39:53.000Z</time></trkpt><trkpt lon="5.725647" lat="51.123208"><ele>9.6</ele><time>2022-06-26T09:39:54.000Z</time></trkpt><trkpt lon="5.725727" lat="51.123278"><ele>9.6</ele><time>2022-06-26T09:39:55.000Z</time></trkpt><trkpt lon="5.725806" lat="51.123341"><ele>9.6</ele><time>2022-06-26T09:39:56.000Z</time></trkpt><trkpt lon="5.725888" lat="51.123412"><ele>9.6</ele><time>2022-06-26T09:39:57.000Z</time></trkpt><trkpt lon="5.72597" lat="51.123483"><ele>9.4</ele><time>2022-06-26T09:39:58.000Z</time></trkpt><trkpt lon="5.726043" lat="51.123549"><ele>9.4</ele><time>2022-06-26T09:39:59.000Z</time></trkpt><trkpt lon="5.726131" lat="51.123628"><ele>9.2</ele><time>2022-06-26T09:40:00.000Z</time></trkpt><trkpt lon="5.726204" lat="51.123688"><ele>9.2</ele><time>2022-06-26T09:40:01.000Z</time></trkpt><trkpt lon="5.726282" lat="51.12376"><ele>9.2</ele><time>2022-06-26T09:40:02.000Z</time></trkpt><trkpt lon="5.726371" lat="51.123842"><ele>9.2</ele><time>2022-06-26T09:40:03.000Z</time></trkpt><trkpt lon="5.726435" lat="51.123899"><ele>9.2</ele><time>2022-06-26T09:40:04.000Z</time></trkpt><trkpt lon="5.726528" lat="51.123979"><ele>9.2</ele><time>2022-06-26T09:40:05.000Z</time></trkpt><trkpt lon="5.7266" lat="51.124045"><ele>9.2</ele><time>2022-06-26T09:40:06.000Z</time></trkpt><trkpt lon="5.726686" lat="51.12412"><ele>9.4</ele><time>2022-06-26T09:40:07.000Z</time></trkpt><trkpt lon="5.726757" lat="51.124178"><ele>9.4</ele><time>2022-06-26T09:40:08.000Z</time></trkpt><trkpt lon="5.72685" lat="51.124261"><ele>9.4</ele><time>2022-06-26T09:40:09.000Z</time></trkpt><trkpt lon="5.726924" lat="51.124324"><ele>9.6</ele><time>2022-06-26T09:40:10.000Z</time></trkpt><trkpt lon="5.727011" lat="51.124398"><ele>9.6</ele><time>2022-06-26T09:40:11.000Z</time></trkpt><trkpt lon="5.727081" lat="51.124459"><ele>9.6</ele><time>2022-06-26T09:40:12.000Z</time></trkpt><trkpt lon="5.727175" lat="51.124543"><ele>9.4</ele><time>2022-06-26T09:40:13.000Z</time></trkpt><trkpt lon="5.727245" lat="51.124606"><ele>9.4</ele><time>2022-06-26T09:40:14.000Z</time></trkpt><trkpt lon="5.727328" lat="51.124684"><ele>9.2</ele><time>2022-06-26T09:40:15.000Z</time></trkpt><trkpt lon="5.727394" lat="51.124741"><ele>9.2</ele><time>2022-06-26T09:40:16.000Z</time></trkpt><trkpt lon="5.727476" lat="51.124821"><ele>9.2</ele><time>2022-06-26T09:40:17.000Z</time></trkpt><trkpt lon="5.727543" lat="51.124879"><ele>9</ele><time>2022-06-26T09:40:18.000Z</time></trkpt><trkpt lon="5.727621" lat="51.124947"><ele>9</ele><time>2022-06-26T09:40:19.000Z</time></trkpt><trkpt lon="5.727678" lat="51.124998"><ele>9</ele><time>2022-06-26T09:40:20.000Z</time></trkpt><trkpt lon="5.727769" lat="51.125076"><ele>9</ele><time>2022-06-26T09:40:21.000Z</time></trkpt><trkpt lon="5.727846" lat="51.125139"><ele>9.2</ele><time>2022-06-26T09:40:22.000Z</time></trkpt><trkpt lon="5.727922" lat="51.125203"><ele>9.2</ele><time>2022-06-26T09:40:23.000Z</time></trkpt><trkpt lon="5.727976" lat="51.12525"><ele>9</ele><time>2022-06-26T09:40:24.000Z</time></trkpt><trkpt lon="5.728064" lat="51.125333"><ele>9</ele><time>2022-06-26T09:40:25.000Z</time></trkpt><trkpt lon="5.72813" lat="51.125397"><ele>9</ele><time>2022-06-26T09:40:26.000Z</time></trkpt><trkpt lon="5.728209" lat="51.125469"><ele>9</ele><time>2022-06-26T09:40:27.000Z</time></trkpt><trkpt lon="5.72828" lat="51.125535"><ele>9</ele><time>2022-06-26T09:40:28.000Z</time></trkpt><trkpt lon="5.728362" lat="51.125608"><ele>9</ele><time>2022-06-26T09:40:29.000Z</time></trkpt><trkpt lon="5.728433" lat="51.125674"><ele>9.2</ele><time>2022-06-26T09:40:30.000Z</time></trkpt><trkpt lon="5.728511" lat="51.125743"><ele>9.2</ele><time>2022-06-26T09:40:31.000Z</time></trkpt><trkpt lon="5.728573" lat="51.125799"><ele>9.2</ele><time>2022-06-26T09:40:32.000Z</time></trkpt><trkpt lon="5.728668" lat="51.125883"><ele>9.4</ele><time>2022-06-26T09:40:33.000Z</time></trkpt><trkpt lon="5.728739" lat="51.125944"><ele>9.4</ele><time>2022-06-26T09:40:34.000Z</time></trkpt><trkpt lon="5.728823" lat="51.126019"><ele>9.2</ele><time>2022-06-26T09:40:35.000Z</time></trkpt><trkpt lon="5.728891" lat="51.126084"><ele>9.2</ele><time>2022-06-26T09:40:36.000Z</time></trkpt><trkpt lon="5.728983" lat="51.126164"><ele>9.2</ele><time>2022-06-26T09:40:37.000Z</time></trkpt><trkpt lon="5.729057" lat="51.12623"><ele>9.2</ele><time>2022-06-26T09:40:38.000Z</time></trkpt><trkpt lon="5.729147" lat="51.12631"><ele>9.4</ele><time>2022-06-26T09:40:39.000Z</time></trkpt><trkpt lon="5.729211" lat="51.126365"><ele>9.6</ele><time>2022-06-26T09:40:40.000Z</time></trkpt><trkpt lon="5.729305" lat="51.126447"><ele>9.8</ele><time>2022-06-26T09:40:41.000Z</time></trkpt><trkpt lon="5.729377" lat="51.126508"><ele>9.8</ele><time>2022-06-26T09:40:42.000Z</time></trkpt><trkpt lon="5.729466" lat="51.12658"><ele>9.8</ele><time>2022-06-26T09:40:43.000Z</time></trkpt><trkpt lon="5.729534" lat="51.126637"><ele>10</ele><time>2022-06-26T09:40:44.000Z</time></trkpt><trkpt lon="5.729629" lat="51.126715"><ele>10</ele><time>2022-06-26T09:40:45.000Z</time></trkpt><trkpt lon="5.729697" lat="51.126775"><ele>10.2</ele><time>2022-06-26T09:40:46.000Z</time></trkpt><trkpt lon="5.729785" lat="51.126851"><ele>10</ele><time>2022-06-26T09:40:47.000Z</time></trkpt><trkpt lon="5.72985" lat="51.126908"><ele>10</ele><time>2022-06-26T09:40:48.000Z</time></trkpt><trkpt lon="5.729944" lat="51.126988"><ele>10</ele><time>2022-06-26T09:40:49.000Z</time></trkpt><trkpt lon="5.730007" lat="51.127046"><ele>10</ele><time>2022-06-26T09:40:50.000Z</time></trkpt><trkpt lon="5.7301" lat="51.12713"><ele>10</ele><time>2022-06-26T09:40:51.000Z</time></trkpt><trkpt lon="5.730171" lat="51.127192"><ele>10</ele><time>2022-06-26T09:40:52.000Z</time></trkpt><trkpt lon="5.730254" lat="51.127263"><ele>10</ele><time>2022-06-26T09:40:53.000Z</time></trkpt><trkpt lon="5.730329" lat="51.127325"><ele>9.8</ele><time>2022-06-26T09:40:54.000Z</time></trkpt><trkpt lon="5.730411" lat="51.1274"><ele>9.4</ele><time>2022-06-26T09:40:55.000Z</time></trkpt><trkpt lon="5.730475" lat="51.127457"><ele>9.2</ele><time>2022-06-26T09:40:56.000Z</time></trkpt><trkpt lon="5.730566" lat="51.127538"><ele>9.2</ele><time>2022-06-26T09:40:57.000Z</time></trkpt><trkpt lon="5.730629" lat="51.127598"><ele>9</ele><time>2022-06-26T09:40:58.000Z</time></trkpt><trkpt lon="5.730703" lat="51.127675"><ele>9</ele><time>2022-06-26T09:40:59.000Z</time></trkpt><trkpt lon="5.730755" lat="51.127729"><ele>9.2</ele><time>2022-06-26T09:41:00.000Z</time></trkpt><trkpt lon="5.730829" lat="51.127805"><ele>9.2</ele><time>2022-06-26T09:41:01.000Z</time></trkpt><trkpt lon="5.730879" lat="51.127862"><ele>9.2</ele><time>2022-06-26T09:41:02.000Z</time></trkpt><trkpt lon="5.730939" lat="51.127927"><ele>9.2</ele><time>2022-06-26T09:41:03.000Z</time></trkpt><trkpt lon="5.730985" lat="51.12797"><ele>9.2</ele><time>2022-06-26T09:41:04.000Z</time></trkpt><trkpt lon="5.731069" lat="51.128049"><ele>9.2</ele><time>2022-06-26T09:41:05.000Z</time></trkpt><trkpt lon="5.731134" lat="51.128108"><ele>9.2</ele><time>2022-06-26T09:41:06.000Z</time></trkpt><trkpt lon="5.731213" lat="51.128179"><ele>9.2</ele><time>2022-06-26T09:41:07.000Z</time></trkpt><trkpt lon="5.731276" lat="51.12824"><ele>9.4</ele><time>2022-06-26T09:41:08.000Z</time></trkpt><trkpt lon="5.731361" lat="51.128323"><ele>9.4</ele><time>2022-06-26T09:41:09.000Z</time></trkpt><trkpt lon="5.731435" lat="51.128388"><ele>9.4</ele><time>2022-06-26T09:41:10.000Z</time></trkpt><trkpt lon="5.731524" lat="51.128467"><ele>9.4</ele><time>2022-06-26T09:41:11.000Z</time></trkpt><trkpt lon="5.73161" lat="51.128545"><ele>9.4</ele><time>2022-06-26T09:41:12.000Z</time></trkpt><trkpt lon="5.731698" lat="51.128621"><ele>9.2</ele><time>2022-06-26T09:41:13.000Z</time></trkpt><trkpt lon="5.731759" lat="51.128676"><ele>9.2</ele><time>2022-06-26T09:41:14.000Z</time></trkpt><trkpt lon="5.731867" lat="51.128764"><ele>9</ele><time>2022-06-26T09:41:15.000Z</time></trkpt><trkpt lon="5.731959" lat="51.128841"><ele>9</ele><time>2022-06-26T09:41:16.000Z</time></trkpt><trkpt lon="5.732051" lat="51.128912"><ele>9</ele><time>2022-06-26T09:41:17.000Z</time></trkpt><trkpt lon="5.73212" lat="51.128974"><ele>9</ele><time>2022-06-26T09:41:18.000Z</time></trkpt><trkpt lon="5.732216" lat="51.12906"><ele>9</ele><time>2022-06-26T09:41:19.000Z</time></trkpt><trkpt lon="5.732292" lat="51.129125"><ele>8.8</ele><time>2022-06-26T09:41:20.000Z</time></trkpt><trkpt lon="5.732369" lat="51.129196"><ele>8.8</ele><time>2022-06-26T09:41:21.000Z</time></trkpt><trkpt lon="5.732436" lat="51.129259"><ele>8.8</ele><time>2022-06-26T09:41:22.000Z</time></trkpt><trkpt lon="5.732528" lat="51.129346"><ele>8.8</ele><time>2022-06-26T09:41:23.000Z</time></trkpt><trkpt lon="5.732598" lat="51.129414"><ele>9</ele><time>2022-06-26T09:41:24.000Z</time></trkpt><trkpt lon="5.732679" lat="51.129491"><ele>9</ele><time>2022-06-26T09:41:25.000Z</time></trkpt><trkpt lon="5.732733" lat="51.129547"><ele>9.2</ele><time>2022-06-26T09:41:26.000Z</time></trkpt><trkpt lon="5.732819" lat="51.12964"><ele>9</ele><time>2022-06-26T09:41:27.000Z</time></trkpt><trkpt lon="5.732876" lat="51.129708"><ele>9</ele><time>2022-06-26T09:41:28.000Z</time></trkpt><trkpt lon="5.732948" lat="51.129784"><ele>9</ele><time>2022-06-26T09:41:29.000Z</time></trkpt><trkpt lon="5.732999" lat="51.129845"><ele>9.2</ele><time>2022-06-26T09:41:30.000Z</time></trkpt><trkpt lon="5.733073" lat="51.129933"><ele>9.4</ele><time>2022-06-26T09:41:31.000Z</time></trkpt><trkpt lon="5.733124" lat="51.129999"><ele>9.4</ele><time>2022-06-26T09:41:32.000Z</time></trkpt><trkpt lon="5.733192" lat="51.130086"><ele>9.6</ele><time>2022-06-26T09:41:33.000Z</time></trkpt><trkpt lon="5.733238" lat="51.130152"><ele>9.8</ele><time>2022-06-26T09:41:34.000Z</time></trkpt><trkpt lon="5.733304" lat="51.130242"><ele>9.8</ele><time>2022-06-26T09:41:35.000Z</time></trkpt><trkpt lon="5.733354" lat="51.130306"><ele>10</ele><time>2022-06-26T09:41:36.000Z</time></trkpt><trkpt lon="5.733419" lat="51.130391"><ele>10</ele><time>2022-06-26T09:41:37.000Z</time></trkpt><trkpt lon="5.733466" lat="51.130455"><ele>10</ele><time>2022-06-26T09:41:38.000Z</time></trkpt><trkpt lon="5.733533" lat="51.130545"><ele>10.2</ele><time>2022-06-26T09:41:39.000Z</time></trkpt><trkpt lon="5.733585" lat="51.130612"><ele>10.2</ele><time>2022-06-26T09:41:40.000Z</time></trkpt><trkpt lon="5.733648" lat="51.130696"><ele>10.2</ele><time>2022-06-26T09:41:41.000Z</time></trkpt><trkpt lon="5.733691" lat="51.130755"><ele>10.2</ele><time>2022-06-26T09:41:42.000Z</time></trkpt><trkpt lon="5.733762" lat="51.130849"><ele>10.2</ele><time>2022-06-26T09:41:43.000Z</time></trkpt><trkpt lon="5.73381" lat="51.130916"><ele>10.2</ele><time>2022-06-26T09:41:44.000Z</time></trkpt><trkpt lon="5.733873" lat="51.131002"><ele>10.2</ele><time>2022-06-26T09:41:45.000Z</time></trkpt><trkpt lon="5.733919" lat="51.131066"><ele>10.2</ele><time>2022-06-26T09:41:46.000Z</time></trkpt><trkpt lon="5.733982" lat="51.13115"><ele>10.2</ele><time>2022-06-26T09:41:47.000Z</time></trkpt><trkpt lon="5.734031" lat="51.131218"><ele>10.2</ele><time>2022-06-26T09:41:48.000Z</time></trkpt><trkpt lon="5.734094" lat="51.131299"><ele>10.4</ele><time>2022-06-26T09:41:49.000Z</time></trkpt><trkpt lon="5.734137" lat="51.131357"><ele>10.2</ele><time>2022-06-26T09:41:50.000Z</time></trkpt><trkpt lon="5.734208" lat="51.131452"><ele>10.2</ele><time>2022-06-26T09:41:51.000Z</time></trkpt><trkpt lon="5.734263" lat="51.131521"><ele>10.2</ele><time>2022-06-26T09:41:52.000Z</time></trkpt><trkpt lon="5.734322" lat="51.1316"><ele>10.2</ele><time>2022-06-26T09:41:53.000Z</time></trkpt><trkpt lon="5.734368" lat="51.131666"><ele>10.2</ele><time>2022-06-26T09:41:54.000Z</time></trkpt><trkpt lon="5.734431" lat="51.131753"><ele>10.2</ele><time>2022-06-26T09:41:55.000Z</time></trkpt><trkpt lon="5.734482" lat="51.131823"><ele>10.4</ele><time>2022-06-26T09:41:56.000Z</time></trkpt><trkpt lon="5.734544" lat="51.131906"><ele>10.4</ele><time>2022-06-26T09:41:57.000Z</time></trkpt><trkpt lon="5.734592" lat="51.131976"><ele>10.4</ele><time>2022-06-26T09:41:58.000Z</time></trkpt><trkpt lon="5.734654" lat="51.132062"><ele>10.4</ele><time>2022-06-26T09:41:59.000Z</time></trkpt><trkpt lon="5.734706" lat="51.132128"><ele>10.4</ele><time>2022-06-26T09:42:00.000Z</time></trkpt><trkpt lon="5.734767" lat="51.132211"><ele>10.4</ele><time>2022-06-26T09:42:01.000Z</time></trkpt><trkpt lon="5.734803" lat="51.132261"><ele>10.4</ele><time>2022-06-26T09:42:02.000Z</time></trkpt><trkpt lon="5.734879" lat="51.132363"><ele>10.2</ele><time>2022-06-26T09:42:03.000Z</time></trkpt><trkpt lon="5.734928" lat="51.132431"><ele>10.2</ele><time>2022-06-26T09:42:04.000Z</time></trkpt><trkpt lon="5.73498" lat="51.132507"><ele>10.2</ele><time>2022-06-26T09:42:05.000Z</time></trkpt><trkpt lon="5.735029" lat="51.132577"><ele>10.4</ele><time>2022-06-26T09:42:06.000Z</time></trkpt><trkpt lon="5.735093" lat="51.132665"><ele>10.4</ele><time>2022-06-26T09:42:07.000Z</time></trkpt><trkpt lon="5.73514" lat="51.132731"><ele>10.2</ele><time>2022-06-26T09:42:08.000Z</time></trkpt><trkpt lon="5.735203" lat="51.132818"><ele>10.2</ele><time>2022-06-26T09:42:09.000Z</time></trkpt><trkpt lon="5.735248" lat="51.132878"><ele>10.2</ele><time>2022-06-26T09:42:10.000Z</time></trkpt><trkpt lon="5.735313" lat="51.132967"><ele>10.2</ele><time>2022-06-26T09:42:11.000Z</time></trkpt><trkpt lon="5.735364" lat="51.133042"><ele>10.2</ele><time>2022-06-26T09:42:12.000Z</time></trkpt><trkpt lon="5.735421" lat="51.133122"><ele>10.2</ele><time>2022-06-26T09:42:13.000Z</time></trkpt><trkpt lon="5.735462" lat="51.133181"><ele>10.2</ele><time>2022-06-26T09:42:14.000Z</time></trkpt><trkpt lon="5.735534" lat="51.133279"><ele>10.2</ele><time>2022-06-26T09:42:15.000Z</time></trkpt><trkpt lon="5.735586" lat="51.133345"><ele>10.2</ele><time>2022-06-26T09:42:16.000Z</time></trkpt><trkpt lon="5.735645" lat="51.133427"><ele>10.2</ele><time>2022-06-26T09:42:17.000Z</time></trkpt><trkpt lon="5.735691" lat="51.133488"><ele>10.2</ele><time>2022-06-26T09:42:18.000Z</time></trkpt><trkpt lon="5.735756" lat="51.133569"><ele>10.2</ele><time>2022-06-26T09:42:19.000Z</time></trkpt><trkpt lon="5.7358" lat="51.133629"><ele>10.2</ele><time>2022-06-26T09:42:20.000Z</time></trkpt><trkpt lon="5.73587" lat="51.133722"><ele>10.2</ele><time>2022-06-26T09:42:21.000Z</time></trkpt><trkpt lon="5.73592" lat="51.133789"><ele>10.2</ele><time>2022-06-26T09:42:22.000Z</time></trkpt><trkpt lon="5.735981" lat="51.133878"><ele>10</ele><time>2022-06-26T09:42:23.000Z</time></trkpt><trkpt lon="5.736032" lat="51.133949"><ele>10</ele><time>2022-06-26T09:42:24.000Z</time></trkpt><trkpt lon="5.736091" lat="51.134034"><ele>10.2</ele><time>2022-06-26T09:42:25.000Z</time></trkpt><trkpt lon="5.736133" lat="51.134095"><ele>10.2</ele><time>2022-06-26T09:42:26.000Z</time></trkpt><trkpt lon="5.736201" lat="51.134191"><ele>10.2</ele><time>2022-06-26T09:42:27.000Z</time></trkpt><trkpt lon="5.736251" lat="51.13426"><ele>10.2</ele><time>2022-06-26T09:42:28.000Z</time></trkpt><trkpt lon="5.736311" lat="51.134343"><ele>10.2</ele><time>2022-06-26T09:42:29.000Z</time></trkpt><trkpt lon="5.736358" lat="51.134407"><ele>10.2</ele><time>2022-06-26T09:42:30.000Z</time></trkpt><trkpt lon="5.736424" lat="51.134496"><ele>10.2</ele><time>2022-06-26T09:42:31.000Z</time></trkpt><trkpt lon="5.736476" lat="51.134571"><ele>10.2</ele><time>2022-06-26T09:42:32.000Z</time></trkpt><trkpt lon="5.736535" lat="51.134655"><ele>10.2</ele><time>2022-06-26T09:42:33.000Z</time></trkpt><trkpt lon="5.736579" lat="51.134714"><ele>10.2</ele><time>2022-06-26T09:42:34.000Z</time></trkpt><trkpt lon="5.736654" lat="51.134812"><ele>10</ele><time>2022-06-26T09:42:35.000Z</time></trkpt><trkpt lon="5.736704" lat="51.134881"><ele>10</ele><time>2022-06-26T09:42:36.000Z</time></trkpt><trkpt lon="5.736767" lat="51.134968"><ele>10</ele><time>2022-06-26T09:42:37.000Z</time></trkpt><trkpt lon="5.736813" lat="51.135032"><ele>10</ele><time>2022-06-26T09:42:38.000Z</time></trkpt><trkpt lon="5.736878" lat="51.135126"><ele>10</ele><time>2022-06-26T09:42:39.000Z</time></trkpt><trkpt lon="5.736927" lat="51.135194"><ele>9.8</ele><time>2022-06-26T09:42:40.000Z</time></trkpt><trkpt lon="5.73699" lat="51.135277"><ele>9.8</ele><time>2022-06-26T09:42:41.000Z</time></trkpt><trkpt lon="5.737043" lat="51.135348"><ele>9.8</ele><time>2022-06-26T09:42:42.000Z</time></trkpt><trkpt lon="5.737104" lat="51.13543"><ele>9.6</ele><time>2022-06-26T09:42:43.000Z</time></trkpt><trkpt lon="5.737157" lat="51.135502"><ele>9.6</ele><time>2022-06-26T09:42:44.000Z</time></trkpt><trkpt lon="5.737216" lat="51.135587"><ele>9.8</ele><time>2022-06-26T09:42:45.000Z</time></trkpt><trkpt lon="5.737261" lat="51.135651"><ele>9.8</ele><time>2022-06-26T09:42:46.000Z</time></trkpt><trkpt lon="5.737329" lat="51.135743"><ele>9.6</ele><time>2022-06-26T09:42:47.000Z</time></trkpt><trkpt lon="5.73738" lat="51.135811"><ele>9.6</ele><time>2022-06-26T09:42:48.000Z</time></trkpt><trkpt lon="5.737442" lat="51.135899"><ele>9.6</ele><time>2022-06-26T09:42:49.000Z</time></trkpt><trkpt lon="5.737484" lat="51.135956"><ele>9.6</ele><time>2022-06-26T09:42:50.000Z</time></trkpt><trkpt lon="5.737557" lat="51.136055"><ele>9.8</ele><time>2022-06-26T09:42:51.000Z</time></trkpt><trkpt lon="5.737607" lat="51.136123"><ele>9.8</ele><time>2022-06-26T09:42:52.000Z</time></trkpt><trkpt lon="5.737671" lat="51.136208"><ele>9.6</ele><time>2022-06-26T09:42:53.000Z</time></trkpt><trkpt lon="5.737721" lat="51.136274"><ele>9.6</ele><time>2022-06-26T09:42:54.000Z</time></trkpt><trkpt lon="5.737784" lat="51.136363"><ele>9.6</ele><time>2022-06-26T09:42:55.000Z</time></trkpt><trkpt lon="5.737838" lat="51.136435"><ele>9.4</ele><time>2022-06-26T09:42:56.000Z</time></trkpt><trkpt lon="5.737899" lat="51.136518"><ele>9.4</ele><time>2022-06-26T09:42:57.000Z</time></trkpt><trkpt lon="5.737944" lat="51.13658"><ele>9.2</ele><time>2022-06-26T09:42:58.000Z</time></trkpt><trkpt lon="5.738013" lat="51.136667"><ele>9.2</ele><time>2022-06-26T09:42:59.000Z</time></trkpt><trkpt lon="5.738062" lat="51.136734"><ele>9.2</ele><time>2022-06-26T09:43:00.000Z</time></trkpt><trkpt lon="5.738118" lat="51.136816"><ele>9.2</ele><time>2022-06-26T09:43:01.000Z</time></trkpt><trkpt lon="5.738172" lat="51.136892"><ele>9.2</ele><time>2022-06-26T09:43:02.000Z</time></trkpt><trkpt lon="5.738235" lat="51.136976"><ele>9.2</ele><time>2022-06-26T09:43:03.000Z</time></trkpt><trkpt lon="5.738286" lat="51.137049"><ele>9.4</ele><time>2022-06-26T09:43:04.000Z</time></trkpt><trkpt lon="5.738347" lat="51.137132"><ele>9.2</ele><time>2022-06-26T09:43:05.000Z</time></trkpt><trkpt lon="5.738391" lat="51.137192"><ele>9.2</ele><time>2022-06-26T09:43:06.000Z</time></trkpt><trkpt lon="5.738459" lat="51.137288"><ele>9.2</ele><time>2022-06-26T09:43:07.000Z</time></trkpt><trkpt lon="5.738509" lat="51.137356"><ele>9.2</ele><time>2022-06-26T09:43:08.000Z</time></trkpt><trkpt lon="5.738573" lat="51.137445"><ele>9.2</ele><time>2022-06-26T09:43:09.000Z</time></trkpt><trkpt lon="5.73862" lat="51.137508"><ele>9.2</ele><time>2022-06-26T09:43:10.000Z</time></trkpt><trkpt lon="5.738687" lat="51.1376"><ele>9.2</ele><time>2022-06-26T09:43:11.000Z</time></trkpt><trkpt lon="5.738739" lat="51.137676"><ele>9</ele><time>2022-06-26T09:43:12.000Z</time></trkpt><trkpt lon="5.738794" lat="51.137757"><ele>9.2</ele><time>2022-06-26T09:43:13.000Z</time></trkpt><trkpt lon="5.738833" lat="51.137815"><ele>9.2</ele><time>2022-06-26T09:43:14.000Z</time></trkpt><trkpt lon="5.738894" lat="51.137914"><ele>9</ele><time>2022-06-26T09:43:15.000Z</time></trkpt><trkpt lon="5.738936" lat="51.137986"><ele>9</ele><time>2022-06-26T09:43:16.000Z</time></trkpt><trkpt lon="5.738991" lat="51.138074"><ele>9</ele><time>2022-06-26T09:43:17.000Z</time></trkpt><trkpt lon="5.739031" lat="51.13814"><ele>9</ele><time>2022-06-26T09:43:18.000Z</time></trkpt><trkpt lon="5.739087" lat="51.138234"><ele>8.8</ele><time>2022-06-26T09:43:19.000Z</time></trkpt><trkpt lon="5.739128" lat="51.138295"><ele>8.8</ele><time>2022-06-26T09:43:20.000Z</time></trkpt><trkpt lon="5.739198" lat="51.138387"><ele>8.8</ele><time>2022-06-26T09:43:21.000Z</time></trkpt><trkpt lon="5.739251" lat="51.13845"><ele>9</ele><time>2022-06-26T09:43:22.000Z</time></trkpt><trkpt lon="5.739317" lat="51.138536"><ele>8.8</ele><time>2022-06-26T09:43:23.000Z</time></trkpt><trkpt lon="5.739366" lat="51.13861"><ele>9</ele><time>2022-06-26T09:43:24.000Z</time></trkpt><trkpt lon="5.739413" lat="51.138699"><ele>9.2</ele><time>2022-06-26T09:43:25.000Z</time></trkpt><trkpt lon="5.739444" lat="51.138763"><ele>9.2</ele><time>2022-06-26T09:43:26.000Z</time></trkpt><trkpt lon="5.739494" lat="51.138868"><ele>9.2</ele><time>2022-06-26T09:43:27.000Z</time></trkpt><trkpt lon="5.739537" lat="51.138939"><ele>9.2</ele><time>2022-06-26T09:43:28.000Z</time></trkpt><trkpt lon="5.739594" lat="51.139031"><ele>9.2</ele><time>2022-06-26T09:43:29.000Z</time></trkpt><trkpt lon="5.739638" lat="51.139101"><ele>9</ele><time>2022-06-26T09:43:30.000Z</time></trkpt><trkpt lon="5.739703" lat="51.1392"><ele>9</ele><time>2022-06-26T09:43:31.000Z</time></trkpt><trkpt lon="5.739752" lat="51.139274"><ele>9</ele><time>2022-06-26T09:43:32.000Z</time></trkpt><trkpt lon="5.739807" lat="51.139359"><ele>9</ele><time>2022-06-26T09:43:33.000Z</time></trkpt><trkpt lon="5.739846" lat="51.139418"><ele>9</ele><time>2022-06-26T09:43:34.000Z</time></trkpt><trkpt lon="5.739911" lat="51.139524"><ele>8.8</ele><time>2022-06-26T09:43:35.000Z</time></trkpt><trkpt lon="5.739954" lat="51.139597"><ele>8.6</ele><time>2022-06-26T09:43:36.000Z</time></trkpt><trkpt lon="5.74001" lat="51.139686"><ele>8.6</ele><time>2022-06-26T09:43:37.000Z</time></trkpt><trkpt lon="5.740051" lat="51.139756"><ele>8.4</ele><time>2022-06-26T09:43:38.000Z</time></trkpt><trkpt lon="5.740111" lat="51.139856"><ele>8.4</ele><time>2022-06-26T09:43:39.000Z</time></trkpt><trkpt lon="5.740154" lat="51.139927"><ele>8.4</ele><time>2022-06-26T09:43:40.000Z</time></trkpt><trkpt lon="5.740205" lat="51.14002"><ele>8.4</ele><time>2022-06-26T09:43:41.000Z</time></trkpt><trkpt lon="5.74025" lat="51.140094"><ele>8.2</ele><time>2022-06-26T09:43:42.000Z</time></trkpt><trkpt lon="5.740303" lat="51.140184"><ele>8</ele><time>2022-06-26T09:43:43.000Z</time></trkpt><trkpt lon="5.740349" lat="51.14026"><ele>8</ele><time>2022-06-26T09:43:44.000Z</time></trkpt><trkpt lon="5.740406" lat="51.140348"><ele>8</ele><time>2022-06-26T09:43:45.000Z</time></trkpt><trkpt lon="5.740446" lat="51.140416"><ele>8</ele><time>2022-06-26T09:43:46.000Z</time></trkpt><trkpt lon="5.740507" lat="51.140516"><ele>7.8</ele><time>2022-06-26T09:43:47.000Z</time></trkpt><trkpt lon="5.740551" lat="51.140586"><ele>7.8</ele><time>2022-06-26T09:43:48.000Z</time></trkpt><trkpt lon="5.740606" lat="51.14068"><ele>7.8</ele><time>2022-06-26T09:43:49.000Z</time></trkpt><trkpt lon="5.740642" lat="51.140743"><ele>7.6</ele><time>2022-06-26T09:43:50.000Z</time></trkpt><trkpt lon="5.740704" lat="51.14084"><ele>7.8</ele><time>2022-06-26T09:43:51.000Z</time></trkpt><trkpt lon="5.74075" lat="51.140914"><ele>8</ele><time>2022-06-26T09:43:52.000Z</time></trkpt><trkpt lon="5.740802" lat="51.140999"><ele>8.2</ele><time>2022-06-26T09:43:53.000Z</time></trkpt><trkpt lon="5.740843" lat="51.141067"><ele>8.2</ele><time>2022-06-26T09:43:54.000Z</time></trkpt><trkpt lon="5.740895" lat="51.14116"><ele>8</ele><time>2022-06-26T09:43:55.000Z</time></trkpt><trkpt lon="5.740937" lat="51.141232"><ele>7.8</ele><time>2022-06-26T09:43:56.000Z</time></trkpt><trkpt lon="5.740992" lat="51.141321"><ele>7.8</ele><time>2022-06-26T09:43:57.000Z</time></trkpt><trkpt lon="5.741034" lat="51.141393"><ele>7.8</ele><time>2022-06-26T09:43:58.000Z</time></trkpt><trkpt lon="5.741091" lat="51.141485"><ele>8</ele><time>2022-06-26T09:43:59.000Z</time></trkpt><trkpt lon="5.741135" lat="51.141555"><ele>8</ele><time>2022-06-26T09:44:00.000Z</time></trkpt><trkpt lon="5.741193" lat="51.141649"><ele>8.2</ele><time>2022-06-26T09:44:01.000Z</time></trkpt><trkpt lon="5.741233" lat="51.141714"><ele>8.2</ele><time>2022-06-26T09:44:02.000Z</time></trkpt><trkpt lon="5.741289" lat="51.141805"><ele>8.2</ele><time>2022-06-26T09:44:03.000Z</time></trkpt><trkpt lon="5.74133" lat="51.141872"><ele>8.4</ele><time>2022-06-26T09:44:04.000Z</time></trkpt><trkpt lon="5.741384" lat="51.141961"><ele>8.4</ele><time>2022-06-26T09:44:05.000Z</time></trkpt><trkpt lon="5.741421" lat="51.142024"><ele>8.4</ele><time>2022-06-26T09:44:06.000Z</time></trkpt><trkpt lon="5.741477" lat="51.142122"><ele>8.4</ele><time>2022-06-26T09:44:07.000Z</time></trkpt><trkpt lon="5.741523" lat="51.142194"><ele>8.4</ele><time>2022-06-26T09:44:08.000Z</time></trkpt><trkpt lon="5.741576" lat="51.142286"><ele>8.4</ele><time>2022-06-26T09:44:09.000Z</time></trkpt><trkpt lon="5.741611" lat="51.142355"><ele>8.4</ele><time>2022-06-26T09:44:10.000Z</time></trkpt><trkpt lon="5.741659" lat="51.14245"><ele>8.6</ele><time>2022-06-26T09:44:11.000Z</time></trkpt><trkpt lon="5.741694" lat="51.142524"><ele>8.8</ele><time>2022-06-26T09:44:12.000Z</time></trkpt><trkpt lon="5.741731" lat="51.142606"><ele>8.8</ele><time>2022-06-26T09:44:13.000Z</time></trkpt><trkpt lon="5.741756" lat="51.142674"><ele>9</ele><time>2022-06-26T09:44:14.000Z</time></trkpt><trkpt lon="5.741792" lat="51.142759"><ele>9</ele><time>2022-06-26T09:44:15.000Z</time></trkpt><trkpt lon="5.741818" lat="51.142829"><ele>9</ele><time>2022-06-26T09:44:16.000Z</time></trkpt><trkpt lon="5.741845" lat="51.142907"><ele>9</ele><time>2022-06-26T09:44:17.000Z</time></trkpt><trkpt lon="5.741861" lat="51.142959"><ele>9.2</ele><time>2022-06-26T09:44:18.000Z</time></trkpt><trkpt lon="5.741889" lat="51.143052"><ele>9.2</ele><time>2022-06-26T09:44:19.000Z</time></trkpt><trkpt lon="5.741904" lat="51.143109"><ele>9</ele><time>2022-06-26T09:44:20.000Z</time></trkpt><trkpt lon="5.741924" lat="51.143194"><ele>9</ele><time>2022-06-26T09:44:21.000Z</time></trkpt><trkpt lon="5.741937" lat="51.143258"><ele>8.8</ele><time>2022-06-26T09:44:22.000Z</time></trkpt><trkpt lon="5.74195" lat="51.143332"><ele>8.8</ele><time>2022-06-26T09:44:23.000Z</time></trkpt><trkpt lon="5.741957" lat="51.14338"><ele>8.8</ele><time>2022-06-26T09:44:24.000Z</time></trkpt><trkpt lon="5.74197" lat="51.143472"><ele>8.8</ele><time>2022-06-26T09:44:25.000Z</time></trkpt><trkpt lon="5.741977" lat="51.14353"><ele>8.8</ele><time>2022-06-26T09:44:26.000Z</time></trkpt><trkpt lon="5.741982" lat="51.143606"><ele>9</ele><time>2022-06-26T09:44:27.000Z</time></trkpt><trkpt lon="5.741983" lat="51.143655"><ele>9</ele><time>2022-06-26T09:44:28.000Z</time></trkpt><trkpt lon="5.741985" lat="51.143727"><ele>9.2</ele><time>2022-06-26T09:44:29.000Z</time></trkpt><trkpt lon="5.741987" lat="51.143778"><ele>9.2</ele><time>2022-06-26T09:44:30.000Z</time></trkpt><trkpt lon="5.741983" lat="51.143838"><ele>9.2</ele><time>2022-06-26T09:44:31.000Z</time></trkpt><trkpt lon="5.741979" lat="51.143883"><ele>9.4</ele><time>2022-06-26T09:44:32.000Z</time></trkpt><trkpt lon="5.741971" lat="51.143948"><ele>9.4</ele><time>2022-06-26T09:44:33.000Z</time></trkpt><trkpt lon="5.741966" lat="51.143998"><ele>9.4</ele><time>2022-06-26T09:44:34.000Z</time></trkpt><trkpt lon="5.741955" lat="51.14407"><ele>9.4</ele><time>2022-06-26T09:44:35.000Z</time></trkpt><trkpt lon="5.741945" lat="51.144119"><ele>9.2</ele><time>2022-06-26T09:44:36.000Z</time></trkpt><trkpt lon="5.741935" lat="51.144196"><ele>9</ele><time>2022-06-26T09:44:37.000Z</time></trkpt><trkpt lon="5.741931" lat="51.144253"><ele>9</ele><time>2022-06-26T09:44:38.000Z</time></trkpt><trkpt lon="5.741928" lat="51.14433"><ele>8.8</ele><time>2022-06-26T09:44:39.000Z</time></trkpt><trkpt lon="5.741927" lat="51.144384"><ele>8.8</ele><time>2022-06-26T09:44:40.000Z</time></trkpt><trkpt lon="5.741922" lat="51.144463"><ele>9</ele><time>2022-06-26T09:44:41.000Z</time></trkpt><trkpt lon="5.74192" lat="51.144523"><ele>9</ele><time>2022-06-26T09:44:42.000Z</time></trkpt><trkpt lon="5.741917" lat="51.144593"><ele>9</ele><time>2022-06-26T09:44:43.000Z</time></trkpt><trkpt lon="5.741917" lat="51.144647"><ele>9</ele><time>2022-06-26T09:44:44.000Z</time></trkpt><trkpt lon="5.741915" lat="51.144719"><ele>9.2</ele><time>2022-06-26T09:44:45.000Z</time></trkpt><trkpt lon="5.741916" lat="51.144763"><ele>9.2</ele><time>2022-06-26T09:44:46.000Z</time></trkpt><trkpt lon="5.741915" lat="51.144833"><ele>9.4</ele><time>2022-06-26T09:44:47.000Z</time></trkpt><trkpt lon="5.741916" lat="51.144876"><ele>9.4</ele><time>2022-06-26T09:44:48.000Z</time></trkpt><trkpt lon="5.74192" lat="51.144944"><ele>9.4</ele><time>2022-06-26T09:44:49.000Z</time></trkpt><trkpt lon="5.741926" lat="51.144987"><ele>9.6</ele><time>2022-06-26T09:44:50.000Z</time></trkpt><trkpt lon="5.741935" lat="51.145044"><ele>9.6</ele><time>2022-06-26T09:44:51.000Z</time></trkpt><trkpt lon="5.741937" lat="51.145085"><ele>9.6</ele><time>2022-06-26T09:44:52.000Z</time></trkpt><trkpt lon="5.741931" lat="51.145138"><ele>9.8</ele><time>2022-06-26T09:44:53.000Z</time></trkpt><trkpt lon="5.741922" lat="51.14517"><ele>9.8</ele><time>2022-06-26T09:44:54.000Z</time></trkpt><trkpt lon="5.7419" lat="51.145226"><ele>9.6</ele><time>2022-06-26T09:44:55.000Z</time></trkpt><trkpt lon="5.741885" lat="51.145259"><ele>9.8</ele><time>2022-06-26T09:44:56.000Z</time></trkpt><trkpt lon="5.741873" lat="51.145298"><ele>9.8</ele><time>2022-06-26T09:44:57.000Z</time></trkpt><trkpt lon="5.741883" lat="51.145321"><ele>9.8</ele><time>2022-06-26T09:44:58.000Z</time></trkpt><trkpt lon="5.741904" lat="51.145335"><ele>9.8</ele><time>2022-06-26T09:44:59.000Z</time></trkpt><trkpt lon="5.74194" lat="51.145363"><ele>9.8</ele><time>2022-06-26T09:45:00.000Z</time></trkpt><trkpt lon="5.741979" lat="51.14539"><ele>9.6</ele><time>2022-06-26T09:45:01.000Z</time></trkpt><trkpt lon="5.742014" lat="51.145419"><ele>9.6</ele><time>2022-06-26T09:45:02.000Z</time></trkpt><trkpt lon="5.742065" lat="51.145463"><ele>9.6</ele><time>2022-06-26T09:45:03.000Z</time></trkpt><trkpt lon="5.742109" lat="51.145501"><ele>9.6</ele><time>2022-06-26T09:45:04.000Z</time></trkpt><trkpt lon="5.742147" lat="51.14553"><ele>9.6</ele><time>2022-06-26T09:45:05.000Z</time></trkpt><trkpt lon="5.742223" lat="51.145565"><ele>9.8</ele><time>2022-06-26T09:45:06.000Z</time></trkpt><trkpt lon="5.742288" lat="51.145589"><ele>9.8</ele><time>2022-06-26T09:45:07.000Z</time></trkpt><trkpt lon="5.742378" lat="51.145619"><ele>9.8</ele><time>2022-06-26T09:45:08.000Z</time></trkpt><trkpt lon="5.742456" lat="51.145643"><ele>9.8</ele><time>2022-06-26T09:45:09.000Z</time></trkpt><trkpt lon="5.742558" lat="51.145668"><ele>9.8</ele><time>2022-06-26T09:45:10.000Z</time></trkpt><trkpt lon="5.742634" lat="51.145688"><ele>9.8</ele><time>2022-06-26T09:45:11.000Z</time></trkpt><trkpt lon="5.742733" lat="51.145714"><ele>9.6</ele><time>2022-06-26T09:45:12.000Z</time></trkpt><trkpt lon="5.7428" lat="51.145732"><ele>9.6</ele><time>2022-06-26T09:45:13.000Z</time></trkpt><trkpt lon="5.742904" lat="51.145752"><ele>9.6</ele><time>2022-06-26T09:45:14.000Z</time></trkpt><trkpt lon="5.74298" lat="51.145755"><ele>9.6</ele><time>2022-06-26T09:45:15.000Z</time></trkpt><trkpt lon="5.74308" lat="51.145763"><ele>9.6</ele><time>2022-06-26T09:45:16.000Z</time></trkpt><trkpt lon="5.743143" lat="51.145763"><ele>9.6</ele><time>2022-06-26T09:45:17.000Z</time></trkpt><trkpt lon="5.743227" lat="51.145771"><ele>9.8</ele><time>2022-06-26T09:45:18.000Z</time></trkpt><trkpt lon="5.743275" lat="51.145784"><ele>9.8</ele><time>2022-06-26T09:45:19.000Z</time></trkpt><trkpt lon="5.743319" lat="51.145813"><ele>10</ele><time>2022-06-26T09:45:20.000Z</time></trkpt><trkpt lon="5.743328" lat="51.145844"><ele>10</ele><time>2022-06-26T09:45:21.000Z</time></trkpt></trkseg></trk></gpx>